<?xml version='1.0' encoding='UTF-8'?><gpx version="1.1" creator="JPX - https://github.com/jenetics/jpx" xmlns="http://www.topografix.com/GPX/1/1"><trk><trkseg><trkpt lat="40.4584617" lon="15.0122567"><ele>23.0</ele><time>2026-04-09T05:56:00.083Z</time></trkpt><trkpt lat="40.4585333" lon="15.0122483"><ele>23.0</ele><time>2026-04-09T05:56:01.083Z</time></trkpt><trkpt lat="40.4586183" lon="15.01225"><ele>23.0</ele><time>2026-04-09T05:56:02.083Z</time></trkpt><trkpt lat="40.4587267" lon="15.01225"><ele>23.0</ele><time>2026-04-09T05:56:03.083Z</time></trkpt><trkpt lat="40.4588533" lon="15.0122517"><ele>23.0</ele><time>2026-04-09T05:56:04.083Z</time></trkpt><trkpt lat="40.4589833" lon="15.01227"><ele>22.5</ele><time>2026-04-09T05:56:05.083Z</time></trkpt><trkpt lat="40.45913" lon="15.012295"><ele>22.0</ele><time>2026-04-09T05:56:06.083Z</time></trkpt><trkpt lat="40.4592733" lon="15.0123217"><ele>21.5</ele><time>2026-04-09T05:56:07.083Z</time></trkpt><trkpt lat="40.45942" lon="15.0123433"><ele>21.0</ele><time>2026-04-09T05:56:08.083Z</time></trkpt><trkpt lat="40.4595683" lon="15.01236"><ele>20.666666666666668</ele><time>2026-04-09T05:56:09.083Z</time></trkpt><trkpt lat="40.459715" lon="15.0123783"><ele>20.333333333333336</ele><time>2026-04-09T05:56:10.083Z</time></trkpt><trkpt lat="40.4598717" lon="15.012405"><ele>20.0</ele><time>2026-04-09T05:56:11.083Z</time></trkpt><trkpt lat="40.46004" lon="15.012435"><ele>20.0</ele><time>2026-04-09T05:56:12.083Z</time></trkpt><trkpt lat="40.46021" lon="15.0124567"><ele>20.0</ele><time>2026-04-09T05:56:13.083Z</time></trkpt><trkpt lat="40.4603867" lon="15.0124767"><ele>20.0</ele><time>2026-04-09T05:56:14.083Z</time></trkpt><trkpt lat="40.460555" lon="15.0124933"><ele>20.666666666666668</ele><time>2026-04-09T05:56:15.083Z</time></trkpt><trkpt lat="40.4607083" lon="15.0125067"><ele>21.333333333333332</ele><time>2026-04-09T05:56:16.083Z</time></trkpt><trkpt lat="40.4608633" lon="15.012525"><ele>22.0</ele><time>2026-04-09T05:56:17.083Z</time></trkpt><trkpt lat="40.4610067" lon="15.0125433"><ele>22.0</ele><time>2026-04-09T05:56:18.083Z</time></trkpt><trkpt lat="40.461135" lon="15.0125583"><ele>22.0</ele><time>2026-04-09T05:56:19.083Z</time></trkpt><trkpt lat="40.4612317" lon="15.0125717"><ele>22.0</ele><time>2026-04-09T05:56:20.083Z</time></trkpt><trkpt lat="40.46131" lon="15.01258"><ele>22.0</ele><time>2026-04-09T05:56:21.083Z</time></trkpt><trkpt lat="40.4613767" lon="15.01258"><ele>22.0</ele><time>2026-04-09T05:56:22.083Z</time></trkpt><trkpt lat="40.461465" lon="15.01255"><ele>22.0</ele><time>2026-04-09T05:56:24.083Z</time></trkpt><trkpt lat="40.4614667" lon="15.0124083"><ele>22.0</ele><time>2026-04-09T05:56:26.083Z</time></trkpt><trkpt lat="40.46143" lon="15.0122933"><ele>22.0</ele><time>2026-04-09T05:56:27.083Z</time></trkpt><trkpt lat="40.4613833" lon="15.0121583"><ele>22.0</ele><time>2026-04-09T05:56:28.083Z</time></trkpt><trkpt lat="40.461345" lon="15.012005"><ele>22.0</ele><time>2026-04-09T05:56:29.083Z</time></trkpt><trkpt lat="40.4613183" lon="15.0118383"><ele>22.0</ele><time>2026-04-09T05:56:30.083Z</time></trkpt><trkpt lat="40.4612917" lon="15.0116583"><ele>22.0</ele><time>2026-04-09T05:56:31.083Z</time></trkpt><trkpt lat="40.461255" lon="15.0114683"><ele>22.0</ele><time>2026-04-09T05:56:32.083Z</time></trkpt><trkpt lat="40.4612117" lon="15.011275"><ele>22.0</ele><time>2026-04-09T05:56:33.083Z</time></trkpt><trkpt lat="40.46117" lon="15.0110567"><ele>21.666666666666664</ele><time>2026-04-09T05:56:34.083Z</time></trkpt><trkpt lat="40.46114" lon="15.0108117"><ele>21.333333333333332</ele><time>2026-04-09T05:56:35.083Z</time></trkpt><trkpt lat="40.46111" lon="15.0105717"><ele>21.0</ele><time>2026-04-09T05:56:36.083Z</time></trkpt><trkpt lat="40.4610817" lon="15.0103283"><ele>21.0</ele><time>2026-04-09T05:56:37.083Z</time></trkpt><trkpt lat="40.4610533" lon="15.0100733"><ele>21.0</ele><time>2026-04-09T05:56:38.083Z</time></trkpt><trkpt lat="40.4610267" lon="15.009815"><ele>21.0</ele><time>2026-04-09T05:56:39.083Z</time></trkpt><trkpt lat="40.4609967" lon="15.0095533"><ele>21.0</ele><time>2026-04-09T05:56:40.083Z</time></trkpt><trkpt lat="40.4609633" lon="15.009295"><ele>21.0</ele><time>2026-04-09T05:56:41.083Z</time></trkpt><trkpt lat="40.4609317" lon="15.0090383"><ele>21.0</ele><time>2026-04-09T05:56:42.083Z</time></trkpt><trkpt lat="40.460895" lon="15.0087983"><ele>21.0</ele><time>2026-04-09T05:56:43.083Z</time></trkpt><trkpt lat="40.4608583" lon="15.0085633"><ele>21.0</ele><time>2026-04-09T05:56:44.083Z</time></trkpt><trkpt lat="40.4608133" lon="15.00836"><ele>21.0</ele><time>2026-04-09T05:56:45.083Z</time></trkpt><trkpt lat="40.4607583" lon="15.0081517"><ele>21.0</ele><time>2026-04-09T05:56:46.083Z</time></trkpt><trkpt lat="40.4606867" lon="15.0079483"><ele>21.0</ele><time>2026-04-09T05:56:47.083Z</time></trkpt><trkpt lat="40.4605983" lon="15.00776"><ele>21.0</ele><time>2026-04-09T05:56:48.083Z</time></trkpt><trkpt lat="40.4605133" lon="15.0075867"><ele>20.75</ele><time>2026-04-09T05:56:49.083Z</time></trkpt><trkpt lat="40.460445" lon="15.0074333"><ele>20.5</ele><time>2026-04-09T05:56:50.083Z</time></trkpt><trkpt lat="40.4603833" lon="15.0072983"><ele>20.25</ele><time>2026-04-09T05:56:51.083Z</time></trkpt><trkpt lat="40.4603183" lon="15.0071833"><ele>20.0</ele><time>2026-04-09T05:56:52.083Z</time></trkpt><trkpt lat="40.4602367" lon="15.007095"><ele>20.0</ele><time>2026-04-09T05:56:53.083Z</time></trkpt><trkpt lat="40.4601283" lon="15.00703"><ele>20.0</ele><time>2026-04-09T05:56:54.083Z</time></trkpt><trkpt lat="40.4600033" lon="15.00698"><ele>20.0</ele><time>2026-04-09T05:56:55.083Z</time></trkpt><trkpt lat="40.4598867" lon="15.0069317"><ele>20.0</ele><time>2026-04-09T05:56:56.083Z</time></trkpt><trkpt lat="40.4597817" lon="15.006865"><ele>20.0</ele><time>2026-04-09T05:56:57.083Z</time></trkpt><trkpt lat="40.459695" lon="15.006785"><ele>20.0</ele><time>2026-04-09T05:56:58.083Z</time></trkpt><trkpt lat="40.4596267" lon="15.0066917"><ele>20.0</ele><time>2026-04-09T05:56:59.083Z</time></trkpt><trkpt lat="40.4595683" lon="15.00659"><ele>20.0</ele><time>2026-04-09T05:57:00.083Z</time></trkpt><trkpt lat="40.459515" lon="15.0064883"><ele>20.0</ele><time>2026-04-09T05:57:01.083Z</time></trkpt><trkpt lat="40.4594633" lon="15.0063917"><ele>19.833333333333336</ele><time>2026-04-09T05:57:02.083Z</time></trkpt><trkpt lat="40.4594133" lon="15.0063017"><ele>19.666666666666668</ele><time>2026-04-09T05:57:03.083Z</time></trkpt><trkpt lat="40.4593733" lon="15.0062333"><ele>19.5</ele><time>2026-04-09T05:57:04.083Z</time></trkpt><trkpt lat="40.4593083" lon="15.0061067"><ele>19.333333333333332</ele><time>2026-04-09T05:57:06.083Z</time></trkpt><trkpt lat="40.4592817" lon="15.0060217"><ele>19.166666666666664</ele><time>2026-04-09T05:57:07.083Z</time></trkpt><trkpt lat="40.4592617" lon="15.0059183"><ele>19.0</ele><time>2026-04-09T05:57:08.083Z</time></trkpt><trkpt lat="40.4592433" lon="15.0058233"><ele>18.8</ele><time>2026-04-09T05:57:09.083Z</time></trkpt><trkpt lat="40.4592233" lon="15.0057"><ele>18.599999999999998</ele><time>2026-04-09T05:57:10.083Z</time></trkpt><trkpt lat="40.4592117" lon="15.0055567"><ele>18.4</ele><time>2026-04-09T05:57:11.083Z</time></trkpt><trkpt lat="40.459195" lon="15.0054033"><ele>18.2</ele><time>2026-04-09T05:57:12.083Z</time></trkpt><trkpt lat="40.459175" lon="15.0052417"><ele>18.0</ele><time>2026-04-09T05:57:13.083Z</time></trkpt><trkpt lat="40.4591417" lon="15.0050883"><ele>17.75</ele><time>2026-04-09T05:57:14.083Z</time></trkpt><trkpt lat="40.4590967" lon="15.0049417"><ele>17.5</ele><time>2026-04-09T05:57:15.083Z</time></trkpt><trkpt lat="40.4590233" lon="15.00479"><ele>17.25</ele><time>2026-04-09T05:57:16.083Z</time></trkpt><trkpt lat="40.4589283" lon="15.0046283"><ele>17.0</ele><time>2026-04-09T05:57:17.083Z</time></trkpt><trkpt lat="40.4588183" lon="15.004455"><ele>17.0</ele><time>2026-04-09T05:57:18.083Z</time></trkpt><trkpt lat="40.458695" lon="15.0042717"><ele>17.0</ele><time>2026-04-09T05:57:19.083Z</time></trkpt><trkpt lat="40.458575" lon="15.0040817"><ele>17.0</ele><time>2026-04-09T05:57:20.083Z</time></trkpt><trkpt lat="40.458455" lon="15.0038867"><ele>17.0</ele><time>2026-04-09T05:57:21.083Z</time></trkpt><trkpt lat="40.4583333" lon="15.00369"><ele>17.0</ele><time>2026-04-09T05:57:22.083Z</time></trkpt><trkpt lat="40.4582117" lon="15.003515"><ele>17.0</ele><time>2026-04-09T05:57:23.083Z</time></trkpt><trkpt lat="40.4581117" lon="15.0033517"><ele>17.0</ele><time>2026-04-09T05:57:24.083Z</time></trkpt><trkpt lat="40.45803" lon="15.0032"><ele>17.0</ele><time>2026-04-09T05:57:25.083Z</time></trkpt><trkpt lat="40.4579667" lon="15.0030467"><ele>17.0</ele><time>2026-04-09T05:57:26.084Z</time></trkpt><trkpt lat="40.45793" lon="15.0028733"><ele>17.0</ele><time>2026-04-09T05:57:27.084Z</time></trkpt><trkpt lat="40.4579033" lon="15.0026883"><ele>16.666666666666668</ele><time>2026-04-09T05:57:28.084Z</time></trkpt><trkpt lat="40.457895" lon="15.0024733"><ele>16.333333333333332</ele><time>2026-04-09T05:57:29.084Z</time></trkpt><trkpt lat="40.457885" lon="15.002245"><ele>16.0</ele><time>2026-04-09T05:57:30.084Z</time></trkpt><trkpt lat="40.4578717" lon="15.0020067"><ele>16.0</ele><time>2026-04-09T05:57:31.084Z</time></trkpt><trkpt lat="40.4578617" lon="15.0017883"><ele>16.0</ele><time>2026-04-09T05:57:32.084Z</time></trkpt><trkpt lat="40.4578533" lon="15.001595"><ele>16.0</ele><time>2026-04-09T05:57:33.084Z</time></trkpt><trkpt lat="40.457855" lon="15.0014267"><ele>16.0</ele><time>2026-04-09T05:57:34.084Z</time></trkpt><trkpt lat="40.4578583" lon="15.0012883"><ele>15.999999999999998</ele><time>2026-04-09T05:57:35.084Z</time></trkpt><trkpt lat="40.4578733" lon="15.0011767"><ele>16.0</ele><time>2026-04-09T05:57:36.084Z</time></trkpt><trkpt lat="40.4579017" lon="15.0010917"><ele>16.0</ele><time>2026-04-09T05:57:37.084Z</time></trkpt><trkpt lat="40.4579567" lon="15.001025"><ele>16.0</ele><time>2026-04-09T05:57:38.084Z</time></trkpt><trkpt lat="40.4580283" lon="15.000985"><ele>15.999999999999998</ele><time>2026-04-09T05:57:39.084Z</time></trkpt><trkpt lat="40.45813" lon="15.0009617"><ele>16.0</ele><time>2026-04-09T05:57:40.084Z</time></trkpt><trkpt lat="40.4582483" lon="15.0009367"><ele>16.0</ele><time>2026-04-09T05:57:41.084Z</time></trkpt><trkpt lat="40.4583783" lon="15.0009133"><ele>16.0</ele><time>2026-04-09T05:57:42.084Z</time></trkpt><trkpt lat="40.4585283" lon="15.0008633"><ele>16.0</ele><time>2026-04-09T05:57:43.084Z</time></trkpt><trkpt lat="40.4586883" lon="15.0007917"><ele>16.666666666666664</ele><time>2026-04-09T05:57:44.084Z</time></trkpt><trkpt lat="40.45885" lon="15.0007133"><ele>17.333333333333332</ele><time>2026-04-09T05:57:45.084Z</time></trkpt><trkpt lat="40.4590233" lon="15.0006333"><ele>18.0</ele><time>2026-04-09T05:57:46.084Z</time></trkpt><trkpt lat="40.4592033" lon="15.0005517"><ele>18.0</ele><time>2026-04-09T05:57:47.084Z</time></trkpt><trkpt lat="40.4593917" lon="15.0004667"><ele>18.0</ele><time>2026-04-09T05:57:48.084Z</time></trkpt><trkpt lat="40.45957" lon="15.0003867"><ele>18.0</ele><time>2026-04-09T05:57:49.084Z</time></trkpt><trkpt lat="40.4597383" lon="15.0003183"><ele>18.333333333333332</ele><time>2026-04-09T05:57:50.084Z</time></trkpt><trkpt lat="40.459895" lon="15.00024"><ele>18.666666666666664</ele><time>2026-04-09T05:57:51.084Z</time></trkpt><trkpt lat="40.4600567" lon="15.0001483"><ele>19.0</ele><time>2026-04-09T05:57:52.084Z</time></trkpt><trkpt lat="40.4602217" lon="15.000025"><ele>19.0</ele><time>2026-04-09T05:57:53.084Z</time></trkpt><trkpt lat="40.4603717" lon="14.999875"><ele>19.0</ele><time>2026-04-09T05:57:54.084Z</time></trkpt><trkpt lat="40.460525" lon="14.9997167"><ele>19.0</ele><time>2026-04-09T05:57:55.084Z</time></trkpt><trkpt lat="40.4606817" lon="14.9995483"><ele>19.333333333333332</ele><time>2026-04-09T05:57:56.084Z</time></trkpt><trkpt lat="40.4608383" lon="14.999385"><ele>19.666666666666668</ele><time>2026-04-09T05:57:57.084Z</time></trkpt><trkpt lat="40.46098" lon="14.99922"><ele>20.0</ele><time>2026-04-09T05:57:58.084Z</time></trkpt><trkpt lat="40.461125" lon="14.9990717"><ele>19.333333333333336</ele><time>2026-04-09T05:57:59.084Z</time></trkpt><trkpt lat="40.46128" lon="14.99892"><ele>18.666666666666668</ele><time>2026-04-09T05:58:00.084Z</time></trkpt><trkpt lat="40.4614333" lon="14.9987483"><ele>18.0</ele><time>2026-04-09T05:58:01.084Z</time></trkpt><trkpt lat="40.4615783" lon="14.9985667"><ele>17.333333333333332</ele><time>2026-04-09T05:58:02.084Z</time></trkpt><trkpt lat="40.4617083" lon="14.9983817"><ele>16.666666666666664</ele><time>2026-04-09T05:58:03.084Z</time></trkpt><trkpt lat="40.4618267" lon="14.9981983"><ele>16.0</ele><time>2026-04-09T05:58:04.084Z</time></trkpt><trkpt lat="40.4619417" lon="14.9980517"><ele>16.0</ele><time>2026-04-09T05:58:05.084Z</time></trkpt><trkpt lat="40.4620733" lon="14.9979333"><ele>16.0</ele><time>2026-04-09T05:58:06.084Z</time></trkpt><trkpt lat="40.4622217" lon="14.9978333"><ele>16.0</ele><time>2026-04-09T05:58:07.084Z</time></trkpt><trkpt lat="40.4623767" lon="14.997745"><ele>16.0</ele><time>2026-04-09T05:58:08.084Z</time></trkpt><trkpt lat="40.4625317" lon="14.997665"><ele>16.0</ele><time>2026-04-09T05:58:09.084Z</time></trkpt><trkpt lat="40.46269" lon="14.99759"><ele>16.0</ele><time>2026-04-09T05:58:10.084Z</time></trkpt><trkpt lat="40.46284" lon="14.9975183"><ele>15.333333333333332</ele><time>2026-04-09T05:58:11.084Z</time></trkpt><trkpt lat="40.4629833" lon="14.9974483"><ele>14.666666666666668</ele><time>2026-04-09T05:58:12.084Z</time></trkpt><trkpt lat="40.46313" lon="14.9973817"><ele>14.0</ele><time>2026-04-09T05:58:13.084Z</time></trkpt><trkpt lat="40.463265" lon="14.9973217"><ele>14.0</ele><time>2026-04-09T05:58:14.084Z</time></trkpt><trkpt lat="40.4633983" lon="14.997265"><ele>14.0</ele><time>2026-04-09T05:58:15.084Z</time></trkpt><trkpt lat="40.4635333" lon="14.9972217"><ele>14.0</ele><time>2026-04-09T05:58:16.084Z</time></trkpt><trkpt lat="40.463675" lon="14.9971883"><ele>14.0</ele><time>2026-04-09T05:58:17.084Z</time></trkpt><trkpt lat="40.46382" lon="14.99716"><ele>14.0</ele><time>2026-04-09T05:58:18.084Z</time></trkpt><trkpt lat="40.4639667" lon="14.99713"><ele>14.0</ele><time>2026-04-09T05:58:19.084Z</time></trkpt><trkpt lat="40.4641133" lon="14.997105"><ele>14.0</ele><time>2026-04-09T05:58:20.084Z</time></trkpt><trkpt lat="40.4642533" lon="14.9970817"><ele>14.0</ele><time>2026-04-09T05:58:21.084Z</time></trkpt><trkpt lat="40.46439" lon="14.9970633"><ele>14.0</ele><time>2026-04-09T05:58:22.084Z</time></trkpt><trkpt lat="40.4645317" lon="14.9970483"><ele>14.0</ele><time>2026-04-09T05:58:23.084Z</time></trkpt><trkpt lat="40.4646767" lon="14.9970233"><ele>14.0</ele><time>2026-04-09T05:58:24.084Z</time></trkpt><trkpt lat="40.4648217" lon="14.9969983"><ele>14.0</ele><time>2026-04-09T05:58:25.084Z</time></trkpt><trkpt lat="40.46497" lon="14.996975"><ele>14.5</ele><time>2026-04-09T05:58:26.084Z</time></trkpt><trkpt lat="40.4651167" lon="14.9969533"><ele>15.0</ele><time>2026-04-09T05:58:27.084Z</time></trkpt><trkpt lat="40.465265" lon="14.99692"><ele>15.5</ele><time>2026-04-09T05:58:28.084Z</time></trkpt><trkpt lat="40.4654083" lon="14.9968667"><ele>16.0</ele><time>2026-04-09T05:58:29.084Z</time></trkpt><trkpt lat="40.46555" lon="14.9967917"><ele>16.0</ele><time>2026-04-09T05:58:30.084Z</time></trkpt><trkpt lat="40.4656917" lon="14.9967033"><ele>16.0</ele><time>2026-04-09T05:58:31.084Z</time></trkpt><trkpt lat="40.4658217" lon="14.9966067"><ele>16.0</ele><time>2026-04-09T05:58:32.084Z</time></trkpt><trkpt lat="40.465955" lon="14.99651"><ele>16.0</ele><time>2026-04-09T05:58:33.084Z</time></trkpt><trkpt lat="40.4661" lon="14.9964"><ele>16.0</ele><time>2026-04-09T05:58:34.084Z</time></trkpt><trkpt lat="40.46625" lon="14.996275"><ele>16.0</ele><time>2026-04-09T05:58:35.084Z</time></trkpt><trkpt lat="40.4664217" lon="14.9961467"><ele>16.333333333333332</ele><time>2026-04-09T05:58:36.084Z</time></trkpt><trkpt lat="40.4666017" lon="14.9960233"><ele>16.666666666666668</ele><time>2026-04-09T05:58:37.084Z</time></trkpt><trkpt lat="40.4667883" lon="14.9958967"><ele>17.0</ele><time>2026-04-09T05:58:38.084Z</time></trkpt><trkpt lat="40.46698" lon="14.9957683"><ele>17.0</ele><time>2026-04-09T05:58:39.084Z</time></trkpt><trkpt lat="40.46718" lon="14.995625"><ele>17.0</ele><time>2026-04-09T05:58:40.084Z</time></trkpt><trkpt lat="40.46738" lon="14.99548"><ele>17.0</ele><time>2026-04-09T05:58:41.084Z</time></trkpt><trkpt lat="40.46758" lon="14.9953283"><ele>17.0</ele><time>2026-04-09T05:58:42.084Z</time></trkpt><trkpt lat="40.4677867" lon="14.995175"><ele>16.5</ele><time>2026-04-09T05:58:43.084Z</time></trkpt><trkpt lat="40.4679917" lon="14.9950233"><ele>16.0</ele><time>2026-04-09T05:58:44.084Z</time></trkpt><trkpt lat="40.4681967" lon="14.9948767"><ele>17.0</ele><time>2026-04-09T05:58:45.084Z</time></trkpt><trkpt lat="40.4683983" lon="14.994735"><ele>18.0</ele><time>2026-04-09T05:58:46.084Z</time></trkpt><trkpt lat="40.4685983" lon="14.9945833"><ele>18.0</ele><time>2026-04-09T05:58:47.084Z</time></trkpt><trkpt lat="40.4688" lon="14.9944333"><ele>18.0</ele><time>2026-04-09T05:58:48.084Z</time></trkpt><trkpt lat="40.4690083" lon="14.9942833"><ele>18.0</ele><time>2026-04-09T05:58:49.084Z</time></trkpt><trkpt lat="40.4692217" lon="14.9941367"><ele>18.0</ele><time>2026-04-09T05:58:50.084Z</time></trkpt><trkpt lat="40.4694283" lon="14.9939817"><ele>18.0</ele><time>2026-04-09T05:58:51.084Z</time></trkpt><trkpt lat="40.4696383" lon="14.993835"><ele>18.0</ele><time>2026-04-09T05:58:52.084Z</time></trkpt><trkpt lat="40.4698333" lon="14.9936833"><ele>18.0</ele><time>2026-04-09T05:58:53.084Z</time></trkpt><trkpt lat="40.4700283" lon="14.99355"><ele>18.0</ele><time>2026-04-09T05:58:54.084Z</time></trkpt><trkpt lat="40.47022" lon="14.99341"><ele>18.0</ele><time>2026-04-09T05:58:55.084Z</time></trkpt><trkpt lat="40.470415" lon="14.99326"><ele>17.5</ele><time>2026-04-09T05:58:56.084Z</time></trkpt><trkpt lat="40.4706217" lon="14.9931167"><ele>17.0</ele><time>2026-04-09T05:58:57.084Z</time></trkpt><trkpt lat="40.47082" lon="14.992965"><ele>17.0</ele><time>2026-04-09T05:58:58.084Z</time></trkpt><trkpt lat="40.4710117" lon="14.9928117"><ele>17.0</ele><time>2026-04-09T05:58:59.084Z</time></trkpt><trkpt lat="40.4711967" lon="14.99266"><ele>17.0</ele><time>2026-04-09T05:59:00.084Z</time></trkpt><trkpt lat="40.471375" lon="14.992515"><ele>18.0</ele><time>2026-04-09T05:59:01.084Z</time></trkpt><trkpt lat="40.4715433" lon="14.9923683"><ele>19.0</ele><time>2026-04-09T05:59:02.084Z</time></trkpt><trkpt lat="40.471705" lon="14.9922383"><ele>20.0</ele><time>2026-04-09T05:59:03.084Z</time></trkpt><trkpt lat="40.4718467" lon="14.99212"><ele>20.0</ele><time>2026-04-09T05:59:04.084Z</time></trkpt><trkpt lat="40.4719783" lon="14.9920117"><ele>20.0</ele><time>2026-04-09T05:59:05.084Z</time></trkpt><trkpt lat="40.4720967" lon="14.9919033"><ele>20.0</ele><time>2026-04-09T05:59:06.084Z</time></trkpt><trkpt lat="40.47219" lon="14.9917833"><ele>20.0</ele><time>2026-04-09T05:59:07.084Z</time></trkpt><trkpt lat="40.472265" lon="14.99163"><ele>20.0</ele><time>2026-04-09T05:59:08.084Z</time></trkpt><trkpt lat="40.4723383" lon="14.9914467"><ele>20.0</ele><time>2026-04-09T05:59:09.084Z</time></trkpt><trkpt lat="40.472405" lon="14.991245"><ele>20.0</ele><time>2026-04-09T05:59:10.084Z</time></trkpt><trkpt lat="40.4724633" lon="14.9910533"><ele>20.0</ele><time>2026-04-09T05:59:11.084Z</time></trkpt><trkpt lat="40.4725117" lon="14.99089"><ele>20.0</ele><time>2026-04-09T05:59:12.084Z</time></trkpt><trkpt lat="40.472545" lon="14.9907533"><ele>20.0</ele><time>2026-04-09T05:59:13.084Z</time></trkpt><trkpt lat="40.472575" lon="14.9906367"><ele>20.0</ele><time>2026-04-09T05:59:14.084Z</time></trkpt><trkpt lat="40.4726017" lon="14.99054"><ele>20.0</ele><time>2026-04-09T05:59:15.084Z</time></trkpt><trkpt lat="40.4726383" lon="14.99047"><ele>19.2</ele><time>2026-04-09T05:59:16.084Z</time></trkpt><trkpt lat="40.472745" lon="14.9904233"><ele>18.4</ele><time>2026-04-09T05:59:18.084Z</time></trkpt><trkpt lat="40.47281" lon="14.9904433"><ele>17.6</ele><time>2026-04-09T05:59:19.084Z</time></trkpt><trkpt lat="40.4728967" lon="14.9904833"><ele>16.8</ele><time>2026-04-09T05:59:20.084Z</time></trkpt><trkpt lat="40.4729983" lon="14.9905417"><ele>16.0</ele><time>2026-04-09T05:59:21.084Z</time></trkpt><trkpt lat="40.4731017" lon="14.9905917"><ele>16.0</ele><time>2026-04-09T05:59:22.084Z</time></trkpt><trkpt lat="40.473215" lon="14.9906433"><ele>16.0</ele><time>2026-04-09T05:59:23.084Z</time></trkpt><trkpt lat="40.4733233" lon="14.9906917"><ele>16.0</ele><time>2026-04-09T05:59:24.084Z</time></trkpt><trkpt lat="40.4734217" lon="14.990735"><ele>16.0</ele><time>2026-04-09T05:59:25.084Z</time></trkpt><trkpt lat="40.4735117" lon="14.9907717"><ele>16.0</ele><time>2026-04-09T05:59:26.084Z</time></trkpt><trkpt lat="40.473595" lon="14.99081"><ele>16.0</ele><time>2026-04-09T05:59:27.084Z</time></trkpt><trkpt lat="40.4736617" lon="14.990835"><ele>16.0</ele><time>2026-04-09T05:59:28.084Z</time></trkpt><trkpt lat="40.47375" lon="14.990865"><ele>16.0</ele><time>2026-04-09T05:59:30.084Z</time></trkpt><trkpt lat="40.47383" lon="14.9909033"><ele>16.0</ele><time>2026-04-09T05:59:44.084Z</time></trkpt><trkpt lat="40.473895" lon="14.9908633"><ele>16.0</ele><time>2026-04-09T05:59:46.084Z</time></trkpt><trkpt lat="40.473955" lon="14.9907067"><ele>15.0</ele><time>2026-04-09T05:59:48.084Z</time></trkpt><trkpt lat="40.4739867" lon="14.9905867"><ele>14.0</ele><time>2026-04-09T05:59:49.084Z</time></trkpt><trkpt lat="40.474015" lon="14.9904517"><ele>13.0</ele><time>2026-04-09T05:59:50.084Z</time></trkpt><trkpt lat="40.4740467" lon="14.9902917"><ele>12.0</ele><time>2026-04-09T05:59:51.084Z</time></trkpt><trkpt lat="40.4740817" lon="14.9901183"><ele>12.0</ele><time>2026-04-09T05:59:52.084Z</time></trkpt><trkpt lat="40.474135" lon="14.9899467"><ele>12.0</ele><time>2026-04-09T05:59:53.084Z</time></trkpt><trkpt lat="40.4742217" lon="14.98978"><ele>12.0</ele><time>2026-04-09T05:59:54.084Z</time></trkpt><trkpt lat="40.4743367" lon="14.98962"><ele>12.0</ele><time>2026-04-09T05:59:55.084Z</time></trkpt><trkpt lat="40.4744667" lon="14.9894767"><ele>12.0</ele><time>2026-04-09T05:59:56.084Z</time></trkpt><trkpt lat="40.4746133" lon="14.9893267"><ele>12.0</ele><time>2026-04-09T05:59:57.084Z</time></trkpt><trkpt lat="40.47477" lon="14.9891633"><ele>11.333333333333334</ele><time>2026-04-09T05:59:58.084Z</time></trkpt><trkpt lat="40.4749233" lon="14.988995"><ele>10.666666666666668</ele><time>2026-04-09T05:59:59.084Z</time></trkpt><trkpt lat="40.475085" lon="14.9888283"><ele>10.0</ele><time>2026-04-09T06:00:00.084Z</time></trkpt><trkpt lat="40.4752517" lon="14.98866"><ele>10.0</ele><time>2026-04-09T06:00:01.084Z</time></trkpt><trkpt lat="40.4754133" lon="14.9885"><ele>10.0</ele><time>2026-04-09T06:00:02.084Z</time></trkpt><trkpt lat="40.4755533" lon="14.9883433"><ele>10.0</ele><time>2026-04-09T06:00:03.084Z</time></trkpt><trkpt lat="40.4756967" lon="14.98821"><ele>9.666666666666668</ele><time>2026-04-09T06:00:04.084Z</time></trkpt><trkpt lat="40.47584" lon="14.9880783"><ele>9.333333333333334</ele><time>2026-04-09T06:00:05.084Z</time></trkpt><trkpt lat="40.475975" lon="14.9879533"><ele>9.0</ele><time>2026-04-09T06:00:06.084Z</time></trkpt><trkpt lat="40.4761183" lon="14.98782"><ele>8.0</ele><time>2026-04-09T06:00:07.084Z</time></trkpt><trkpt lat="40.47627" lon="14.9876883"><ele>7.0</ele><time>2026-04-09T06:00:08.084Z</time></trkpt><trkpt lat="40.47643" lon="14.98755"><ele>6.0</ele><time>2026-04-09T06:00:09.084Z</time></trkpt><trkpt lat="40.4766017" lon="14.9874117"><ele>6.0</ele><time>2026-04-09T06:00:10.084Z</time></trkpt><trkpt lat="40.476785" lon="14.98727"><ele>6.0</ele><time>2026-04-09T06:00:11.084Z</time></trkpt><trkpt lat="40.4769717" lon="14.9871233"><ele>6.0</ele><time>2026-04-09T06:00:12.084Z</time></trkpt><trkpt lat="40.4771617" lon="14.9869717"><ele>5.333333333333333</ele><time>2026-04-09T06:00:13.084Z</time></trkpt><trkpt lat="40.4773317" lon="14.98683"><ele>4.666666666666666</ele><time>2026-04-09T06:00:14.084Z</time></trkpt><trkpt lat="40.4774917" lon="14.986695"><ele>4.0</ele><time>2026-04-09T06:00:15.084Z</time></trkpt><trkpt lat="40.4776417" lon="14.9865733"><ele>4.0</ele><time>2026-04-09T06:00:16.084Z</time></trkpt><trkpt lat="40.4777767" lon="14.9864433"><ele>4.0</ele><time>2026-04-09T06:00:17.084Z</time></trkpt><trkpt lat="40.4778917" lon="14.9863167"><ele>4.0</ele><time>2026-04-09T06:00:18.084Z</time></trkpt><trkpt lat="40.47799" lon="14.9861683"><ele>3.5</ele><time>2026-04-09T06:00:19.084Z</time></trkpt><trkpt lat="40.478085" lon="14.9860117"><ele>3.0</ele><time>2026-04-09T06:00:20.084Z</time></trkpt><trkpt lat="40.4781633" lon="14.9858717"><ele>2.5</ele><time>2026-04-09T06:00:21.084Z</time></trkpt><trkpt lat="40.4782333" lon="14.9857567"><ele>2.0</ele><time>2026-04-09T06:00:22.084Z</time></trkpt><trkpt lat="40.4782867" lon="14.9856533"><ele>2.0</ele><time>2026-04-09T06:00:23.084Z</time></trkpt><trkpt lat="40.4783167" lon="14.9855583"><ele>2.0</ele><time>2026-04-09T06:00:24.084Z</time></trkpt><trkpt lat="40.4783167" lon="14.98545"><ele>2.0</ele><time>2026-04-09T06:00:25.084Z</time></trkpt><trkpt lat="40.47828" lon="14.9853383"><ele>2.0</ele><time>2026-04-09T06:00:26.084Z</time></trkpt><trkpt lat="40.4782067" lon="14.9852217"><ele>2.0</ele><time>2026-04-09T06:00:27.084Z</time></trkpt><trkpt lat="40.4780867" lon="14.9850983"><ele>2.0</ele><time>2026-04-09T06:00:28.084Z</time></trkpt><trkpt lat="40.4779517" lon="14.9849683"><ele>2.0</ele><time>2026-04-09T06:00:29.084Z</time></trkpt><trkpt lat="40.47781" lon="14.9848333"><ele>2.0</ele><time>2026-04-09T06:00:30.084Z</time></trkpt><trkpt lat="40.477665" lon="14.9846983"><ele>4.0</ele><time>2026-04-09T06:00:31.084Z</time></trkpt><trkpt lat="40.4775167" lon="14.9845483"><ele>6.0</ele><time>2026-04-09T06:00:32.084Z</time></trkpt><trkpt lat="40.4773617" lon="14.9843917"><ele>8.0</ele><time>2026-04-09T06:00:33.084Z</time></trkpt><trkpt lat="40.4772017" lon="14.9842317"><ele>7.0</ele><time>2026-04-09T06:00:34.084Z</time></trkpt><trkpt lat="40.4770383" lon="14.984065"><ele>6.0</ele><time>2026-04-09T06:00:35.084Z</time></trkpt><trkpt lat="40.476875" lon="14.983895"><ele>5.0</ele><time>2026-04-09T06:00:36.084Z</time></trkpt><trkpt lat="40.4767067" lon="14.9837283"><ele>5.0</ele><time>2026-04-09T06:00:37.084Z</time></trkpt><trkpt lat="40.4765433" lon="14.9835617"><ele>5.0</ele><time>2026-04-09T06:00:38.084Z</time></trkpt><trkpt lat="40.4763667" lon="14.9833883"><ele>5.0</ele><time>2026-04-09T06:00:39.084Z</time></trkpt><trkpt lat="40.4761967" lon="14.9832167"><ele>3.5</ele><time>2026-04-09T06:00:40.084Z</time></trkpt><trkpt lat="40.4760167" lon="14.983035"><ele>2.0</ele><time>2026-04-09T06:00:41.084Z</time></trkpt><trkpt lat="40.4758333" lon="14.9828533"><ele>2.0</ele><time>2026-04-09T06:00:42.084Z</time></trkpt><trkpt lat="40.4756517" lon="14.9826683"><ele>2.0</ele><time>2026-04-09T06:00:43.084Z</time></trkpt><trkpt lat="40.4754733" lon="14.9824917"><ele>2.0</ele><time>2026-04-09T06:00:44.084Z</time></trkpt><trkpt lat="40.4752883" lon="14.9823133"><ele>2.0</ele><time>2026-04-09T06:00:45.084Z</time></trkpt><trkpt lat="40.4750983" lon="14.9821217"><ele>2.0</ele><time>2026-04-09T06:00:46.084Z</time></trkpt><trkpt lat="40.47491" lon="14.9819267"><ele>2.0</ele><time>2026-04-09T06:00:47.084Z</time></trkpt><trkpt lat="40.4747167" lon="14.9817333"><ele>2.5</ele><time>2026-04-09T06:00:48.084Z</time></trkpt><trkpt lat="40.4745217" lon="14.98154"><ele>3.0</ele><time>2026-04-09T06:00:49.084Z</time></trkpt><trkpt lat="40.4743233" lon="14.9813433"><ele>3.0</ele><time>2026-04-09T06:00:50.084Z</time></trkpt><trkpt lat="40.474125" lon="14.9811483"><ele>3.0</ele><time>2026-04-09T06:00:51.084Z</time></trkpt><trkpt lat="40.4739333" lon="14.9809567"><ele>2.5</ele><time>2026-04-09T06:00:52.084Z</time></trkpt><trkpt lat="40.4737433" lon="14.9807533"><ele>2.0</ele><time>2026-04-09T06:00:53.084Z</time></trkpt><trkpt lat="40.4735533" lon="14.98056"><ele>2.0</ele><time>2026-04-09T06:00:54.084Z</time></trkpt><trkpt lat="40.47336" lon="14.980365"><ele>2.0</ele><time>2026-04-09T06:00:55.084Z</time></trkpt><trkpt lat="40.4731683" lon="14.9801717"><ele>2.0</ele><time>2026-04-09T06:00:56.084Z</time></trkpt><trkpt lat="40.4729867" lon="14.97998"><ele>2.0</ele><time>2026-04-09T06:00:57.084Z</time></trkpt><trkpt lat="40.4727983" lon="14.97979"><ele>2.0</ele><time>2026-04-09T06:00:58.084Z</time></trkpt><trkpt lat="40.47262" lon="14.9796033"><ele>2.0</ele><time>2026-04-09T06:00:59.084Z</time></trkpt><trkpt lat="40.472445" lon="14.9794317"><ele>2.0</ele><time>2026-04-09T06:01:00.084Z</time></trkpt><trkpt lat="40.4722833" lon="14.97927"><ele>1.6666666666666665</ele><time>2026-04-09T06:01:01.084Z</time></trkpt><trkpt lat="40.472125" lon="14.9791167"><ele>1.3333333333333333</ele><time>2026-04-09T06:01:02.084Z</time></trkpt><trkpt lat="40.4719683" lon="14.9789617"><ele>1.0</ele><time>2026-04-09T06:01:03.084Z</time></trkpt><trkpt lat="40.4718133" lon="14.9788033"><ele>1.0</ele><time>2026-04-09T06:01:04.084Z</time></trkpt><trkpt lat="40.47166" lon="14.9786533"><ele>1.0</ele><time>2026-04-09T06:01:05.084Z</time></trkpt><trkpt lat="40.471505" lon="14.9785017"><ele>1.0</ele><time>2026-04-09T06:01:06.084Z</time></trkpt><trkpt lat="40.471345" lon="14.9783483"><ele>1.3333333333333333</ele><time>2026-04-09T06:01:07.084Z</time></trkpt><trkpt lat="40.4711817" lon="14.97818"><ele>1.6666666666666665</ele><time>2026-04-09T06:01:08.084Z</time></trkpt><trkpt lat="40.4710133" lon="14.9779967"><ele>2.0</ele><time>2026-04-09T06:01:09.084Z</time></trkpt><trkpt lat="40.47084" lon="14.9778067"><ele>2.0</ele><time>2026-04-09T06:01:10.084Z</time></trkpt><trkpt lat="40.4706533" lon="14.9776183"><ele>2.0</ele><time>2026-04-09T06:01:11.084Z</time></trkpt><trkpt lat="40.4704717" lon="14.9774267"><ele>2.0</ele><time>2026-04-09T06:01:12.084Z</time></trkpt><trkpt lat="40.47028" lon="14.9772283"><ele>2.0</ele><time>2026-04-09T06:01:13.084Z</time></trkpt><trkpt lat="40.4700833" lon="14.97703"><ele>2.0</ele><time>2026-04-09T06:01:14.084Z</time></trkpt><trkpt lat="40.4698883" lon="14.9768333"><ele>2.0</ele><time>2026-04-09T06:01:15.084Z</time></trkpt><trkpt lat="40.469695" lon="14.9766283"><ele>2.0</ele><time>2026-04-09T06:01:16.084Z</time></trkpt><trkpt lat="40.4695067" lon="14.976435"><ele>2.0</ele><time>2026-04-09T06:01:17.084Z</time></trkpt><trkpt lat="40.4693317" lon="14.9762383"><ele>2.0</ele><time>2026-04-09T06:01:18.084Z</time></trkpt><trkpt lat="40.4691517" lon="14.9760583"><ele>2.0</ele><time>2026-04-09T06:01:19.084Z</time></trkpt><trkpt lat="40.46897" lon="14.9758733"><ele>2.0</ele><time>2026-04-09T06:01:20.084Z</time></trkpt><trkpt lat="40.4687867" lon="14.9756917"><ele>2.0</ele><time>2026-04-09T06:01:21.084Z</time></trkpt><trkpt lat="40.4686" lon="14.9755083"><ele>2.0</ele><time>2026-04-09T06:01:22.084Z</time></trkpt><trkpt lat="40.468415" lon="14.9753233"><ele>2.0</ele><time>2026-04-09T06:01:23.084Z</time></trkpt><trkpt lat="40.468225" lon="14.97514"><ele>2.0</ele><time>2026-04-09T06:01:24.084Z</time></trkpt><trkpt lat="40.4680517" lon="14.97497"><ele>2.0</ele><time>2026-04-09T06:01:25.084Z</time></trkpt><trkpt lat="40.467875" lon="14.9747983"><ele>2.0</ele><time>2026-04-09T06:01:26.084Z</time></trkpt><trkpt lat="40.4676917" lon="14.9746083"><ele>2.5</ele><time>2026-04-09T06:01:27.084Z</time></trkpt><trkpt lat="40.4675083" lon="14.974425"><ele>3.0</ele><time>2026-04-09T06:01:28.084Z</time></trkpt><trkpt lat="40.4673233" lon="14.97423"><ele>3.0</ele><time>2026-04-09T06:01:29.084Z</time></trkpt><trkpt lat="40.4671367" lon="14.9740317"><ele>3.0</ele><time>2026-04-09T06:01:30.084Z</time></trkpt><trkpt lat="40.466945" lon="14.973835"><ele>2.0</ele><time>2026-04-09T06:01:31.084Z</time></trkpt><trkpt lat="40.4667517" lon="14.9736333"><ele>1.0</ele><time>2026-04-09T06:01:32.084Z</time></trkpt><trkpt lat="40.4665583" lon="14.9734383"><ele>1.0</ele><time>2026-04-09T06:01:33.084Z</time></trkpt><trkpt lat="40.4663667" lon="14.9732433"><ele>1.0</ele><time>2026-04-09T06:01:34.084Z</time></trkpt><trkpt lat="40.466185" lon="14.973065"><ele>1.0</ele><time>2026-04-09T06:01:35.084Z</time></trkpt><trkpt lat="40.4660233" lon="14.9729033"><ele>1.0</ele><time>2026-04-09T06:01:36.084Z</time></trkpt><trkpt lat="40.4658767" lon="14.972745"><ele>1.0</ele><time>2026-04-09T06:01:37.084Z</time></trkpt><trkpt lat="40.4657283" lon="14.9725933"><ele>1.0</ele><time>2026-04-09T06:01:38.084Z</time></trkpt><trkpt lat="40.465565" lon="14.97243"><ele>1.0</ele><time>2026-04-09T06:01:39.084Z</time></trkpt><trkpt lat="40.4653933" lon="14.9722617"><ele>1.0</ele><time>2026-04-09T06:01:40.084Z</time></trkpt><trkpt lat="40.4652183" lon="14.97209"><ele>1.0</ele><time>2026-04-09T06:01:41.084Z</time></trkpt><trkpt lat="40.4650467" lon="14.9719217"><ele>1.0</ele><time>2026-04-09T06:01:42.084Z</time></trkpt><trkpt lat="40.4648867" lon="14.9717533"><ele>1.0</ele><time>2026-04-09T06:01:43.084Z</time></trkpt><trkpt lat="40.4647233" lon="14.9715817"><ele>1.0</ele><time>2026-04-09T06:01:44.084Z</time></trkpt><trkpt lat="40.4645567" lon="14.97142"><ele>1.0</ele><time>2026-04-09T06:01:45.084Z</time></trkpt><trkpt lat="40.4644" lon="14.97125"><ele>1.0</ele><time>2026-04-09T06:01:46.084Z</time></trkpt><trkpt lat="40.4642517" lon="14.9710733"><ele>1.0</ele><time>2026-04-09T06:01:47.084Z</time></trkpt><trkpt lat="40.4641133" lon="14.97088"><ele>1.0</ele><time>2026-04-09T06:01:48.084Z</time></trkpt><trkpt lat="40.4639883" lon="14.97067"><ele>1.0</ele><time>2026-04-09T06:01:49.084Z</time></trkpt><trkpt lat="40.4638683" lon="14.9704417"><ele>1.3333333333333333</ele><time>2026-04-09T06:01:50.084Z</time></trkpt><trkpt lat="40.4637467" lon="14.9702067"><ele>1.6666666666666665</ele><time>2026-04-09T06:01:51.084Z</time></trkpt><trkpt lat="40.4636283" lon="14.9699767"><ele>2.0</ele><time>2026-04-09T06:01:52.084Z</time></trkpt><trkpt lat="40.4635317" lon="14.9697567"><ele>2.333333333333333</ele><time>2026-04-09T06:01:53.084Z</time></trkpt><trkpt lat="40.4634467" lon="14.96955"><ele>2.6666666666666665</ele><time>2026-04-09T06:01:54.084Z</time></trkpt><trkpt lat="40.4633667" lon="14.969355"><ele>3.0</ele><time>2026-04-09T06:01:55.084Z</time></trkpt><trkpt lat="40.4632967" lon="14.9691733"><ele>3.0</ele><time>2026-04-09T06:01:56.084Z</time></trkpt><trkpt lat="40.46322" lon="14.9689817"><ele>3.0</ele><time>2026-04-09T06:01:57.084Z</time></trkpt><trkpt lat="40.46313" lon="14.9687783"><ele>3.0</ele><time>2026-04-09T06:01:58.084Z</time></trkpt><trkpt lat="40.463035" lon="14.9685533"><ele>2.6666666666666665</ele><time>2026-04-09T06:01:59.084Z</time></trkpt><trkpt lat="40.4629317" lon="14.9683167"><ele>2.333333333333333</ele><time>2026-04-09T06:02:00.084Z</time></trkpt><trkpt lat="40.4628233" lon="14.9680633"><ele>2.0</ele><time>2026-04-09T06:02:01.084Z</time></trkpt><trkpt lat="40.46271" lon="14.9678017"><ele>2.0</ele><time>2026-04-09T06:02:02.084Z</time></trkpt><trkpt lat="40.4626017" lon="14.9675367"><ele>2.0</ele><time>2026-04-09T06:02:03.084Z</time></trkpt><trkpt lat="40.4625067" lon="14.967275"><ele>2.0</ele><time>2026-04-09T06:02:04.084Z</time></trkpt><trkpt lat="40.4624217" lon="14.9669983"><ele>2.0</ele><time>2026-04-09T06:02:05.084Z</time></trkpt><trkpt lat="40.4623317" lon="14.96671"><ele>2.0</ele><time>2026-04-09T06:02:06.084Z</time></trkpt><trkpt lat="40.4622433" lon="14.9664133"><ele>2.0</ele><time>2026-04-09T06:02:07.084Z</time></trkpt><trkpt lat="40.46216" lon="14.9661083"><ele>2.0</ele><time>2026-04-09T06:02:08.084Z</time></trkpt><trkpt lat="40.4620667" lon="14.965795"><ele>1.5</ele><time>2026-04-09T06:02:09.084Z</time></trkpt><trkpt lat="40.4619783" lon="14.9654833"><ele>1.0</ele><time>2026-04-09T06:02:10.084Z</time></trkpt><trkpt lat="40.4618917" lon="14.9651917"><ele>1.5</ele><time>2026-04-09T06:02:11.084Z</time></trkpt><trkpt lat="40.4618117" lon="14.9648933"><ele>2.0</ele><time>2026-04-09T06:02:12.084Z</time></trkpt><trkpt lat="40.4617317" lon="14.9646017"><ele>2.0</ele><time>2026-04-09T06:02:13.084Z</time></trkpt><trkpt lat="40.4616517" lon="14.9643283"><ele>2.0</ele><time>2026-04-09T06:02:14.084Z</time></trkpt><trkpt lat="40.461585" lon="14.9640783"><ele>2.0</ele><time>2026-04-09T06:02:15.084Z</time></trkpt><trkpt lat="40.46152" lon="14.96385"><ele>2.0</ele><time>2026-04-09T06:02:16.084Z</time></trkpt><trkpt lat="40.4614617" lon="14.9636417"><ele>2.0</ele><time>2026-04-09T06:02:17.084Z</time></trkpt><trkpt lat="40.4614167" lon="14.9634467"><ele>2.0</ele><time>2026-04-09T06:02:18.084Z</time></trkpt><trkpt lat="40.461385" lon="14.9632583"><ele>1.75</ele><time>2026-04-09T06:02:19.084Z</time></trkpt><trkpt lat="40.4613683" lon="14.9630717"><ele>1.5</ele><time>2026-04-09T06:02:20.084Z</time></trkpt><trkpt lat="40.4613683" lon="14.9628767"><ele>1.25</ele><time>2026-04-09T06:02:21.084Z</time></trkpt><trkpt lat="40.46138" lon="14.9626967"><ele>1.0</ele><time>2026-04-09T06:02:22.084Z</time></trkpt><trkpt lat="40.4614" lon="14.9625333"><ele>1.5</ele><time>2026-04-09T06:02:23.084Z</time></trkpt><trkpt lat="40.4614367" lon="14.9623867"><ele>2.0</ele><time>2026-04-09T06:02:24.084Z</time></trkpt><trkpt lat="40.46149" lon="14.96225"><ele>2.5</ele><time>2026-04-09T06:02:25.084Z</time></trkpt><trkpt lat="40.4615617" lon="14.962125"><ele>3.0</ele><time>2026-04-09T06:02:26.084Z</time></trkpt><trkpt lat="40.461655" lon="14.9619983"><ele>3.0</ele><time>2026-04-09T06:02:27.084Z</time></trkpt><trkpt lat="40.4617833" lon="14.96189"><ele>3.0</ele><time>2026-04-09T06:02:28.084Z</time></trkpt><trkpt lat="40.4619267" lon="14.9617717"><ele>3.0</ele><time>2026-04-09T06:02:29.084Z</time></trkpt><trkpt lat="40.46209" lon="14.9616567"><ele>3.333333333333333</ele><time>2026-04-09T06:02:30.084Z</time></trkpt><trkpt lat="40.462265" lon="14.961525"><ele>3.6666666666666665</ele><time>2026-04-09T06:02:31.084Z</time></trkpt><trkpt lat="40.4624467" lon="14.9613833"><ele>4.0</ele><time>2026-04-09T06:02:32.084Z</time></trkpt><trkpt lat="40.4626267" lon="14.9612467"><ele>4.0</ele><time>2026-04-09T06:02:33.084Z</time></trkpt><trkpt lat="40.462825" lon="14.9611017"><ele>4.0</ele><time>2026-04-09T06:02:34.084Z</time></trkpt><trkpt lat="40.46303" lon="14.9609383"><ele>5.5</ele><time>2026-04-09T06:02:35.084Z</time></trkpt><trkpt lat="40.463245" lon="14.9607817"><ele>7.0</ele><time>2026-04-09T06:02:36.084Z</time></trkpt><trkpt lat="40.46346" lon="14.9606067"><ele>7.0</ele><time>2026-04-09T06:02:37.084Z</time></trkpt><trkpt lat="40.4636717" lon="14.960435"><ele>7.0</ele><time>2026-04-09T06:02:38.084Z</time></trkpt><trkpt lat="40.4638833" lon="14.9602617"><ele>7.5</ele><time>2026-04-09T06:02:39.084Z</time></trkpt><trkpt lat="40.4641083" lon="14.960085"><ele>8.0</ele><time>2026-04-09T06:02:40.084Z</time></trkpt><trkpt lat="40.4643367" lon="14.95991"><ele>8.0</ele><time>2026-04-09T06:02:41.084Z</time></trkpt><trkpt lat="40.4645717" lon="14.9597367"><ele>8.0</ele><time>2026-04-09T06:02:42.084Z</time></trkpt><trkpt lat="40.4648133" lon="14.9595517"><ele>9.5</ele><time>2026-04-09T06:02:43.084Z</time></trkpt><trkpt lat="40.4650467" lon="14.95936"><ele>11.0</ele><time>2026-04-09T06:02:44.084Z</time></trkpt><trkpt lat="40.4652767" lon="14.9591767"><ele>8.0</ele><time>2026-04-09T06:02:45.084Z</time></trkpt><trkpt lat="40.4654983" lon="14.9590033"><ele>5.0</ele><time>2026-04-09T06:02:46.084Z</time></trkpt><trkpt lat="40.465715" lon="14.9588267"><ele>5.0</ele><time>2026-04-09T06:02:47.084Z</time></trkpt><trkpt lat="40.46593" lon="14.9586517"><ele>5.0</ele><time>2026-04-09T06:02:48.084Z</time></trkpt><trkpt lat="40.4661483" lon="14.95848"><ele>6.0</ele><time>2026-04-09T06:02:49.084Z</time></trkpt><trkpt lat="40.466365" lon="14.95831"><ele>7.0</ele><time>2026-04-09T06:02:50.084Z</time></trkpt><trkpt lat="40.4665783" lon="14.95815"><ele>7.0</ele><time>2026-04-09T06:02:51.084Z</time></trkpt><trkpt lat="40.4667767" lon="14.95799"><ele>7.0</ele><time>2026-04-09T06:02:52.084Z</time></trkpt><trkpt lat="40.4669783" lon="14.9578283"><ele>7.5</ele><time>2026-04-09T06:02:53.084Z</time></trkpt><trkpt lat="40.4671817" lon="14.95766"><ele>8.0</ele><time>2026-04-09T06:02:54.084Z</time></trkpt><trkpt lat="40.4673717" lon="14.9575067"><ele>8.0</ele><time>2026-04-09T06:02:55.084Z</time></trkpt><trkpt lat="40.46756" lon="14.9573567"><ele>8.0</ele><time>2026-04-09T06:02:56.084Z</time></trkpt><trkpt lat="40.46775" lon="14.957205"><ele>8.0</ele><time>2026-04-09T06:02:57.084Z</time></trkpt><trkpt lat="40.46793" lon="14.957065"><ele>8.333333333333332</ele><time>2026-04-09T06:02:58.084Z</time></trkpt><trkpt lat="40.4681083" lon="14.9569217"><ele>8.666666666666666</ele><time>2026-04-09T06:02:59.084Z</time></trkpt><trkpt lat="40.4682717" lon="14.95679"><ele>9.0</ele><time>2026-04-09T06:03:00.084Z</time></trkpt><trkpt lat="40.468435" lon="14.9566633"><ele>9.0</ele><time>2026-04-09T06:03:01.084Z</time></trkpt><trkpt lat="40.4685933" lon="14.9565433"><ele>9.0</ele><time>2026-04-09T06:03:02.084Z</time></trkpt><trkpt lat="40.4687517" lon="14.9564267"><ele>9.0</ele><time>2026-04-09T06:03:03.084Z</time></trkpt><trkpt lat="40.46891" lon="14.9562967"><ele>8.0</ele><time>2026-04-09T06:03:04.084Z</time></trkpt><trkpt lat="40.4690717" lon="14.9561767"><ele>7.0</ele><time>2026-04-09T06:03:05.084Z</time></trkpt><trkpt lat="40.4692417" lon="14.9560483"><ele>6.0</ele><time>2026-04-09T06:03:06.084Z</time></trkpt><trkpt lat="40.469405" lon="14.9559217"><ele>5.666666666666667</ele><time>2026-04-09T06:03:07.084Z</time></trkpt><trkpt lat="40.4695717" lon="14.9557733"><ele>5.333333333333334</ele><time>2026-04-09T06:03:08.084Z</time></trkpt><trkpt lat="40.4697567" lon="14.9556217"><ele>5.0</ele><time>2026-04-09T06:03:09.084Z</time></trkpt><trkpt lat="40.469955" lon="14.9554733"><ele>5.0</ele><time>2026-04-09T06:03:10.084Z</time></trkpt><trkpt lat="40.4701483" lon="14.955325"><ele>5.0</ele><time>2026-04-09T06:03:11.084Z</time></trkpt><trkpt lat="40.4703383" lon="14.9551783"><ele>5.0</ele><time>2026-04-09T06:03:12.084Z</time></trkpt><trkpt lat="40.470525" lon="14.9550333"><ele>5.333333333333334</ele><time>2026-04-09T06:03:13.084Z</time></trkpt><trkpt lat="40.4707133" lon="14.954885"><ele>5.666666666666667</ele><time>2026-04-09T06:03:14.084Z</time></trkpt><trkpt lat="40.470905" lon="14.9547367"><ele>6.0</ele><time>2026-04-09T06:03:15.084Z</time></trkpt><trkpt lat="40.471105" lon="14.9545883"><ele>6.666666666666666</ele><time>2026-04-09T06:03:16.084Z</time></trkpt><trkpt lat="40.4712967" lon="14.9544383"><ele>7.333333333333333</ele><time>2026-04-09T06:03:17.084Z</time></trkpt><trkpt lat="40.4714867" lon="14.9542767"><ele>8.0</ele><time>2026-04-09T06:03:18.084Z</time></trkpt><trkpt lat="40.47169" lon="14.95411"><ele>8.0</ele><time>2026-04-09T06:03:19.084Z</time></trkpt><trkpt lat="40.4719" lon="14.9539517"><ele>8.0</ele><time>2026-04-09T06:03:20.084Z</time></trkpt><trkpt lat="40.4721017" lon="14.9537967"><ele>4.5</ele><time>2026-04-09T06:03:21.084Z</time></trkpt><trkpt lat="40.4723083" lon="14.9536383"><ele>1.0</ele><time>2026-04-09T06:03:22.084Z</time></trkpt><trkpt lat="40.4725133" lon="14.9534783"><ele>4.5</ele><time>2026-04-09T06:03:23.084Z</time></trkpt><trkpt lat="40.4727117" lon="14.9533233"><ele>8.0</ele><time>2026-04-09T06:03:24.084Z</time></trkpt><trkpt lat="40.4729067" lon="14.953175"><ele>5.0</ele><time>2026-04-09T06:03:25.084Z</time></trkpt><trkpt lat="40.4731017" lon="14.95302"><ele>2.0</ele><time>2026-04-09T06:03:26.084Z</time></trkpt><trkpt lat="40.4733" lon="14.95286"><ele>2.0</ele><time>2026-04-09T06:03:27.084Z</time></trkpt><trkpt lat="40.4734967" lon="14.9527"><ele>2.0</ele><time>2026-04-09T06:03:28.084Z</time></trkpt><trkpt lat="40.4737067" lon="14.9525433"><ele>3.5</ele><time>2026-04-09T06:03:29.084Z</time></trkpt><trkpt lat="40.473915" lon="14.9523833"><ele>5.0</ele><time>2026-04-09T06:03:30.084Z</time></trkpt><trkpt lat="40.47412" lon="14.9522233"><ele>5.0</ele><time>2026-04-09T06:03:31.084Z</time></trkpt><trkpt lat="40.47432" lon="14.952065"><ele>5.0</ele><time>2026-04-09T06:03:32.084Z</time></trkpt><trkpt lat="40.4745283" lon="14.9519017"><ele>5.0</ele><time>2026-04-09T06:03:33.084Z</time></trkpt><trkpt lat="40.4747317" lon="14.951735"><ele>5.0</ele><time>2026-04-09T06:03:34.084Z</time></trkpt><trkpt lat="40.4749417" lon="14.9515717"><ele>5.0</ele><time>2026-04-09T06:03:35.084Z</time></trkpt><trkpt lat="40.475155" lon="14.9514033"><ele>5.0</ele><time>2026-04-09T06:03:36.084Z</time></trkpt><trkpt lat="40.475375" lon="14.9512417"><ele>3.0</ele><time>2026-04-09T06:03:37.084Z</time></trkpt><trkpt lat="40.4755933" lon="14.9510783"><ele>1.0</ele><time>2026-04-09T06:03:38.084Z</time></trkpt><trkpt lat="40.4757967" lon="14.9509167"><ele>3.5</ele><time>2026-04-09T06:03:39.084Z</time></trkpt><trkpt lat="40.4759917" lon="14.9507567"><ele>6.0</ele><time>2026-04-09T06:03:40.084Z</time></trkpt><trkpt lat="40.4761817" lon="14.950605"><ele>4.0</ele><time>2026-04-09T06:03:41.084Z</time></trkpt><trkpt lat="40.4763817" lon="14.9504617"><ele>2.0</ele><time>2026-04-09T06:03:42.084Z</time></trkpt><trkpt lat="40.47658" lon="14.9503233"><ele>2.0</ele><time>2026-04-09T06:03:43.084Z</time></trkpt><trkpt lat="40.4767833" lon="14.9501833"><ele>2.0</ele><time>2026-04-09T06:03:44.084Z</time></trkpt><trkpt lat="40.4769933" lon="14.9500517"><ele>2.333333333333333</ele><time>2026-04-09T06:03:45.084Z</time></trkpt><trkpt lat="40.4771883" lon="14.9499267"><ele>2.6666666666666665</ele><time>2026-04-09T06:03:46.084Z</time></trkpt><trkpt lat="40.47739" lon="14.9498017"><ele>3.0</ele><time>2026-04-09T06:03:47.084Z</time></trkpt><trkpt lat="40.47759" lon="14.9496817"><ele>3.0</ele><time>2026-04-09T06:03:48.084Z</time></trkpt><trkpt lat="40.4777867" lon="14.9495733"><ele>3.0</ele><time>2026-04-09T06:03:49.084Z</time></trkpt><trkpt lat="40.4779833" lon="14.949475"><ele>3.0</ele><time>2026-04-09T06:03:50.084Z</time></trkpt><trkpt lat="40.47817" lon="14.9493883"><ele>3.333333333333333</ele><time>2026-04-09T06:03:51.085Z</time></trkpt><trkpt lat="40.478355" lon="14.9493017"><ele>3.6666666666666665</ele><time>2026-04-09T06:03:52.084Z</time></trkpt><trkpt lat="40.4785483" lon="14.9492267"><ele>4.0</ele><time>2026-04-09T06:03:53.084Z</time></trkpt><trkpt lat="40.4787483" lon="14.9491667"><ele>4.333333333333333</ele><time>2026-04-09T06:03:54.084Z</time></trkpt><trkpt lat="40.4789567" lon="14.9491283"><ele>4.666666666666667</ele><time>2026-04-09T06:03:55.084Z</time></trkpt><trkpt lat="40.4791667" lon="14.9491033"><ele>5.0</ele><time>2026-04-09T06:03:56.084Z</time></trkpt><trkpt lat="40.4793767" lon="14.9490883"><ele>5.0</ele><time>2026-04-09T06:03:57.084Z</time></trkpt><trkpt lat="40.4795783" lon="14.9490683"><ele>5.0</ele><time>2026-04-09T06:03:58.084Z</time></trkpt><trkpt lat="40.4797917" lon="14.9490517"><ele>5.0</ele><time>2026-04-09T06:03:59.084Z</time></trkpt><trkpt lat="40.4800283" lon="14.94903"><ele>3.5</ele><time>2026-04-09T06:04:00.084Z</time></trkpt><trkpt lat="40.4802783" lon="14.9490167"><ele>2.0</ele><time>2026-04-09T06:04:01.084Z</time></trkpt><trkpt lat="40.48053" lon="14.9490033"><ele>1.0</ele><time>2026-04-09T06:04:02.084Z</time></trkpt><trkpt lat="40.480775" lon="14.9489967"><ele>0.0</ele><time>2026-04-09T06:04:03.084Z</time></trkpt><trkpt lat="40.4810233" lon="14.9489967"><ele>0.0</ele><time>2026-04-09T06:04:04.084Z</time></trkpt><trkpt lat="40.4812783" lon="14.9489883"><ele>0.0</ele><time>2026-04-09T06:04:05.084Z</time></trkpt><trkpt lat="40.48152" lon="14.9489767"><ele>0.0</ele><time>2026-04-09T06:04:06.084Z</time></trkpt><trkpt lat="40.481755" lon="14.948975"><ele>0.0</ele><time>2026-04-09T06:04:07.084Z</time></trkpt><trkpt lat="40.48199" lon="14.948965"><ele>1.0</ele><time>2026-04-09T06:04:08.084Z</time></trkpt><trkpt lat="40.4822267" lon="14.9489517"><ele>2.0</ele><time>2026-04-09T06:04:09.084Z</time></trkpt><trkpt lat="40.48245" lon="14.9489383"><ele>2.0</ele><time>2026-04-09T06:04:10.084Z</time></trkpt><trkpt lat="40.4826617" lon="14.94892"><ele>2.0</ele><time>2026-04-09T06:04:11.084Z</time></trkpt><trkpt lat="40.4828667" lon="14.9488883"><ele>2.0</ele><time>2026-04-09T06:04:12.084Z</time></trkpt><trkpt lat="40.4830567" lon="14.9488483"><ele>2.0</ele><time>2026-04-09T06:04:13.084Z</time></trkpt><trkpt lat="40.4832417" lon="14.948785"><ele>2.0</ele><time>2026-04-09T06:04:14.084Z</time></trkpt><trkpt lat="40.483425" lon="14.9487017"><ele>2.0</ele><time>2026-04-09T06:04:15.084Z</time></trkpt><trkpt lat="40.4836017" lon="14.9485983"><ele>1.6666666666666665</ele><time>2026-04-09T06:04:16.084Z</time></trkpt><trkpt lat="40.4837717" lon="14.948475"><ele>1.3333333333333333</ele><time>2026-04-09T06:04:17.084Z</time></trkpt><trkpt lat="40.48393" lon="14.948325"><ele>1.0</ele><time>2026-04-09T06:04:18.084Z</time></trkpt><trkpt lat="40.48408" lon="14.9481583"><ele>1.0</ele><time>2026-04-09T06:04:19.084Z</time></trkpt><trkpt lat="40.4842267" lon="14.947965"><ele>1.0</ele><time>2026-04-09T06:04:20.084Z</time></trkpt><trkpt lat="40.4843667" lon="14.9477467"><ele>1.0</ele><time>2026-04-09T06:04:21.084Z</time></trkpt><trkpt lat="40.4844967" lon="14.9475117"><ele>0.6666666666666666</ele><time>2026-04-09T06:04:22.084Z</time></trkpt><trkpt lat="40.48463" lon="14.9472683"><ele>0.3333333333333333</ele><time>2026-04-09T06:04:23.084Z</time></trkpt><trkpt lat="40.4847517" lon="14.9470283"><ele>0.0</ele><time>2026-04-09T06:04:24.084Z</time></trkpt><trkpt lat="40.4848733" lon="14.9468033"><ele>0.0</ele><time>2026-04-09T06:04:25.084Z</time></trkpt><trkpt lat="40.48499" lon="14.9465867"><ele>0.0</ele><time>2026-04-09T06:04:26.084Z</time></trkpt><trkpt lat="40.48511" lon="14.94638"><ele>0.0</ele><time>2026-04-09T06:04:27.084Z</time></trkpt><trkpt lat="40.4852333" lon="14.9461867"><ele>0.0</ele><time>2026-04-09T06:04:28.084Z</time></trkpt><trkpt lat="40.4853717" lon="14.9459983"><ele>0.0</ele><time>2026-04-09T06:04:29.084Z</time></trkpt><trkpt lat="40.4855167" lon="14.945825"><ele>0.0</ele><time>2026-04-09T06:04:30.084Z</time></trkpt><trkpt lat="40.48567" lon="14.9456617"><ele>0.6666666666666666</ele><time>2026-04-09T06:04:31.084Z</time></trkpt><trkpt lat="40.4858333" lon="14.94551"><ele>1.3333333333333333</ele><time>2026-04-09T06:04:32.084Z</time></trkpt><trkpt lat="40.4860167" lon="14.9453617"><ele>2.0</ele><time>2026-04-09T06:04:33.084Z</time></trkpt><trkpt lat="40.4862083" lon="14.9452267"><ele>2.0</ele><time>2026-04-09T06:04:34.084Z</time></trkpt><trkpt lat="40.4864217" lon="14.945105"><ele>2.0</ele><time>2026-04-09T06:04:35.084Z</time></trkpt><trkpt lat="40.48664" lon="14.94498"><ele>2.0</ele><time>2026-04-09T06:04:36.084Z</time></trkpt><trkpt lat="40.4868667" lon="14.94485"><ele>2.0</ele><time>2026-04-09T06:04:37.084Z</time></trkpt><trkpt lat="40.487095" lon="14.9447233"><ele>1.0</ele><time>2026-04-09T06:04:38.084Z</time></trkpt><trkpt lat="40.4873217" lon="14.9445983"><ele>0.0</ele><time>2026-04-09T06:04:39.084Z</time></trkpt><trkpt lat="40.4875483" lon="14.9444717"><ele>0.0</ele><time>2026-04-09T06:04:40.084Z</time></trkpt><trkpt lat="40.487765" lon="14.944355"><ele>0.0</ele><time>2026-04-09T06:04:41.084Z</time></trkpt><trkpt lat="40.487975" lon="14.9442367"><ele>0.3333333333333333</ele><time>2026-04-09T06:04:42.084Z</time></trkpt><trkpt lat="40.488185" lon="14.94412"><ele>0.6666666666666666</ele><time>2026-04-09T06:04:43.084Z</time></trkpt><trkpt lat="40.4883883" lon="14.9440083"><ele>1.0</ele><time>2026-04-09T06:04:44.084Z</time></trkpt><trkpt lat="40.4885867" lon="14.9439083"><ele>0.6666666666666666</ele><time>2026-04-09T06:04:45.084Z</time></trkpt><trkpt lat="40.488785" lon="14.9437933"><ele>0.3333333333333333</ele><time>2026-04-09T06:04:46.084Z</time></trkpt><trkpt lat="40.48899" lon="14.94367"><ele>0.0</ele><time>2026-04-09T06:04:47.084Z</time></trkpt><trkpt lat="40.4892067" lon="14.9435417"><ele>0.0</ele><time>2026-04-09T06:04:48.084Z</time></trkpt><trkpt lat="40.489435" lon="14.94342"><ele>0.0</ele><time>2026-04-09T06:04:49.084Z</time></trkpt><trkpt lat="40.4896683" lon="14.943295"><ele>1.0</ele><time>2026-04-09T06:04:50.084Z</time></trkpt><trkpt lat="40.4899133" lon="14.9431717"><ele>2.0</ele><time>2026-04-09T06:04:51.084Z</time></trkpt><trkpt lat="40.49016" lon="14.9430467"><ele>2.0</ele><time>2026-04-09T06:04:52.084Z</time></trkpt><trkpt lat="40.4904067" lon="14.9429233"><ele>2.0</ele><time>2026-04-09T06:04:53.084Z</time></trkpt><trkpt lat="40.490665" lon="14.94279"><ele>2.0</ele><time>2026-04-09T06:04:54.084Z</time></trkpt><trkpt lat="40.4909217" lon="14.94266"><ele>2.0</ele><time>2026-04-09T06:04:55.084Z</time></trkpt><trkpt lat="40.49117" lon="14.9425167"><ele>3.0</ele><time>2026-04-09T06:04:56.084Z</time></trkpt><trkpt lat="40.4914283" lon="14.9423733"><ele>4.0</ele><time>2026-04-09T06:04:57.084Z</time></trkpt><trkpt lat="40.4916733" lon="14.9422367"><ele>4.0</ele><time>2026-04-09T06:04:58.084Z</time></trkpt><trkpt lat="40.4919183" lon="14.942105"><ele>4.0</ele><time>2026-04-09T06:04:59.084Z</time></trkpt><trkpt lat="40.4921617" lon="14.9419717"><ele>4.0</ele><time>2026-04-09T06:05:00.084Z</time></trkpt><trkpt lat="40.492395" lon="14.941845"><ele>4.0</ele><time>2026-04-09T06:05:01.084Z</time></trkpt><trkpt lat="40.4926217" lon="14.94172"><ele>4.0</ele><time>2026-04-09T06:05:02.084Z</time></trkpt><trkpt lat="40.4928483" lon="14.9416"><ele>4.0</ele><time>2026-04-09T06:05:03.084Z</time></trkpt><trkpt lat="40.4930683" lon="14.941475"><ele>4.0</ele><time>2026-04-09T06:05:04.084Z</time></trkpt><trkpt lat="40.4932933" lon="14.941355"><ele>4.0</ele><time>2026-04-09T06:05:05.084Z</time></trkpt><trkpt lat="40.493515" lon="14.9412333"><ele>4.0</ele><time>2026-04-09T06:05:06.084Z</time></trkpt><trkpt lat="40.4937433" lon="14.941115"><ele>4.0</ele><time>2026-04-09T06:05:07.084Z</time></trkpt><trkpt lat="40.4939783" lon="14.94099"><ele>5.0</ele><time>2026-04-09T06:05:08.084Z</time></trkpt><trkpt lat="40.494215" lon="14.940855"><ele>6.0</ele><time>2026-04-09T06:05:09.084Z</time></trkpt><trkpt lat="40.49446" lon="14.9407233"><ele>4.5</ele><time>2026-04-09T06:05:10.084Z</time></trkpt><trkpt lat="40.4947067" lon="14.9405867"><ele>3.0</ele><time>2026-04-09T06:05:11.084Z</time></trkpt><trkpt lat="40.4949517" lon="14.9404483"><ele>3.0</ele><time>2026-04-09T06:05:12.084Z</time></trkpt><trkpt lat="40.4951983" lon="14.9403117"><ele>3.0</ele><time>2026-04-09T06:05:13.084Z</time></trkpt><trkpt lat="40.4954533" lon="14.9401783"><ele>5.5</ele><time>2026-04-09T06:05:14.084Z</time></trkpt><trkpt lat="40.4957083" lon="14.9400383"><ele>8.0</ele><time>2026-04-09T06:05:15.084Z</time></trkpt><trkpt lat="40.4959717" lon="14.9398933"><ele>8.0</ele><time>2026-04-09T06:05:16.084Z</time></trkpt><trkpt lat="40.4962333" lon="14.9397483"><ele>8.0</ele><time>2026-04-09T06:05:17.084Z</time></trkpt><trkpt lat="40.4965017" lon="14.9396017"><ele>5.5</ele><time>2026-04-09T06:05:18.084Z</time></trkpt><trkpt lat="40.4967783" lon="14.9394583"><ele>3.0</ele><time>2026-04-09T06:05:19.084Z</time></trkpt><trkpt lat="40.497045" lon="14.9393117"><ele>4.5</ele><time>2026-04-09T06:05:20.084Z</time></trkpt><trkpt lat="40.4973117" lon="14.93917"><ele>6.0</ele><time>2026-04-09T06:05:21.084Z</time></trkpt><trkpt lat="40.4975767" lon="14.939025"><ele>6.0</ele><time>2026-04-09T06:05:22.084Z</time></trkpt><trkpt lat="40.4978417" lon="14.93888"><ele>6.0</ele><time>2026-04-09T06:05:23.084Z</time></trkpt><trkpt lat="40.4980983" lon="14.938735"><ele>4.0</ele><time>2026-04-09T06:05:24.084Z</time></trkpt><trkpt lat="40.49836" lon="14.93859"><ele>2.0</ele><time>2026-04-09T06:05:25.084Z</time></trkpt><trkpt lat="40.498615" lon="14.938445"><ele>2.0</ele><time>2026-04-09T06:05:26.084Z</time></trkpt><trkpt lat="40.4988783" lon="14.9383033"><ele>2.0</ele><time>2026-04-09T06:05:27.084Z</time></trkpt><trkpt lat="40.4991383" lon="14.9381667"><ele>2.0</ele><time>2026-04-09T06:05:28.084Z</time></trkpt><trkpt lat="40.4993983" lon="14.9380267"><ele>2.0</ele><time>2026-04-09T06:05:29.084Z</time></trkpt><trkpt lat="40.4996617" lon="14.9378833"><ele>1.5</ele><time>2026-04-09T06:05:30.084Z</time></trkpt><trkpt lat="40.499925" lon="14.93774"><ele>1.0</ele><time>2026-04-09T06:05:31.084Z</time></trkpt><trkpt lat="40.5001883" lon="14.9375967"><ele>4.5</ele><time>2026-04-09T06:05:32.084Z</time></trkpt><trkpt lat="40.5004483" lon="14.9374517"><ele>8.0</ele><time>2026-04-09T06:05:33.084Z</time></trkpt><trkpt lat="40.50071" lon="14.9373067"><ele>8.0</ele><time>2026-04-09T06:05:34.084Z</time></trkpt><trkpt lat="40.500965" lon="14.9371717"><ele>8.0</ele><time>2026-04-09T06:05:35.084Z</time></trkpt><trkpt lat="40.5012217" lon="14.93703"><ele>7.0</ele><time>2026-04-09T06:05:36.084Z</time></trkpt><trkpt lat="40.50147" lon="14.9368933"><ele>6.0</ele><time>2026-04-09T06:05:37.084Z</time></trkpt><trkpt lat="40.5017133" lon="14.9367667"><ele>5.0</ele><time>2026-04-09T06:05:38.084Z</time></trkpt><trkpt lat="40.5019483" lon="14.9366383"><ele>4.0</ele><time>2026-04-09T06:05:39.084Z</time></trkpt><trkpt lat="40.5021883" lon="14.9365117"><ele>4.0</ele><time>2026-04-09T06:05:40.084Z</time></trkpt><trkpt lat="40.5024083" lon="14.9363867"><ele>4.0</ele><time>2026-04-09T06:05:41.084Z</time></trkpt><trkpt lat="40.5026283" lon="14.9362633"><ele>4.0</ele><time>2026-04-09T06:05:42.084Z</time></trkpt><trkpt lat="40.5028517" lon="14.936145"><ele>4.0</ele><time>2026-04-09T06:05:43.084Z</time></trkpt><trkpt lat="40.5030733" lon="14.9360233"><ele>2.5</ele><time>2026-04-09T06:05:44.084Z</time></trkpt><trkpt lat="40.5032817" lon="14.9359083"><ele>1.0</ele><time>2026-04-09T06:05:45.084Z</time></trkpt><trkpt lat="40.5034883" lon="14.9357917"><ele>2.3333333333333335</ele><time>2026-04-09T06:05:46.084Z</time></trkpt><trkpt lat="40.503685" lon="14.9356767"><ele>3.666666666666667</ele><time>2026-04-09T06:05:47.084Z</time></trkpt><trkpt lat="40.5038783" lon="14.9355683"><ele>5.0</ele><time>2026-04-09T06:05:48.084Z</time></trkpt><trkpt lat="40.5040783" lon="14.93546"><ele>5.0</ele><time>2026-04-09T06:05:49.084Z</time></trkpt><trkpt lat="40.5042867" lon="14.9353517"><ele>5.0</ele><time>2026-04-09T06:05:50.084Z</time></trkpt><trkpt lat="40.5045017" lon="14.935245"><ele>4.5</ele><time>2026-04-09T06:05:51.084Z</time></trkpt><trkpt lat="40.5047283" lon="14.93513"><ele>4.0</ele><time>2026-04-09T06:05:52.084Z</time></trkpt><trkpt lat="40.5049583" lon="14.935005"><ele>3.0</ele><time>2026-04-09T06:05:53.084Z</time></trkpt><trkpt lat="40.5051983" lon="14.9348683"><ele>2.0</ele><time>2026-04-09T06:05:54.084Z</time></trkpt><trkpt lat="40.5054367" lon="14.93474"><ele>2.0</ele><time>2026-04-09T06:05:55.084Z</time></trkpt><trkpt lat="40.50567" lon="14.9346117"><ele>2.0</ele><time>2026-04-09T06:05:56.084Z</time></trkpt><trkpt lat="40.5059017" lon="14.9344833"><ele>2.0</ele><time>2026-04-09T06:05:57.084Z</time></trkpt><trkpt lat="40.5061367" lon="14.9343533"><ele>2.0</ele><time>2026-04-09T06:05:58.084Z</time></trkpt><trkpt lat="40.5063733" lon="14.9342283"><ele>4.0</ele><time>2026-04-09T06:05:59.084Z</time></trkpt><trkpt lat="40.5066083" lon="14.9340983"><ele>6.0</ele><time>2026-04-09T06:06:00.084Z</time></trkpt><trkpt lat="40.506845" lon="14.9339667"><ele>6.0</ele><time>2026-04-09T06:06:01.084Z</time></trkpt><trkpt lat="40.5070767" lon="14.9338467"><ele>6.0</ele><time>2026-04-09T06:06:02.084Z</time></trkpt><trkpt lat="40.5073033" lon="14.9337217"><ele>4.0</ele><time>2026-04-09T06:06:03.084Z</time></trkpt><trkpt lat="40.507515" lon="14.9336"><ele>2.0</ele><time>2026-04-09T06:06:04.084Z</time></trkpt><trkpt lat="40.5077167" lon="14.9334883"><ele>2.333333333333333</ele><time>2026-04-09T06:06:05.084Z</time></trkpt><trkpt lat="40.5079217" lon="14.93338"><ele>2.6666666666666665</ele><time>2026-04-09T06:06:06.084Z</time></trkpt><trkpt lat="40.508125" lon="14.9332617"><ele>3.0</ele><time>2026-04-09T06:06:07.084Z</time></trkpt><trkpt lat="40.5083333" lon="14.9331383"><ele>3.0</ele><time>2026-04-09T06:06:08.084Z</time></trkpt><trkpt lat="40.5085533" lon="14.93301"><ele>3.0</ele><time>2026-04-09T06:06:09.084Z</time></trkpt><trkpt lat="40.50878" lon="14.93289"><ele>2.5</ele><time>2026-04-09T06:06:10.084Z</time></trkpt><trkpt lat="40.5089917" lon="14.93277"><ele>2.0</ele><time>2026-04-09T06:06:11.084Z</time></trkpt><trkpt lat="40.5092" lon="14.9326683"><ele>2.0</ele><time>2026-04-09T06:06:12.084Z</time></trkpt><trkpt lat="40.509395" lon="14.9325617"><ele>2.0</ele><time>2026-04-09T06:06:13.084Z</time></trkpt><trkpt lat="40.5095767" lon="14.9324583"><ele>2.0</ele><time>2026-04-09T06:06:14.084Z</time></trkpt><trkpt lat="40.5097533" lon="14.9323683"><ele>3.0</ele><time>2026-04-09T06:06:15.084Z</time></trkpt><trkpt lat="40.509915" lon="14.9322783"><ele>4.0</ele><time>2026-04-09T06:06:16.084Z</time></trkpt><trkpt lat="40.51007" lon="14.9321983"><ele>5.0</ele><time>2026-04-09T06:06:17.084Z</time></trkpt><trkpt lat="40.510215" lon="14.9321117"><ele>5.0</ele><time>2026-04-09T06:06:18.084Z</time></trkpt><trkpt lat="40.5103567" lon="14.9320367"><ele>5.0</ele><time>2026-04-09T06:06:19.084Z</time></trkpt><trkpt lat="40.5104917" lon="14.9319617"><ele>5.0</ele><time>2026-04-09T06:06:20.084Z</time></trkpt><trkpt lat="40.51062" lon="14.9318967"><ele>5.0</ele><time>2026-04-09T06:06:21.084Z</time></trkpt><trkpt lat="40.5107433" lon="14.9318283"><ele>5.666666666666667</ele><time>2026-04-09T06:06:22.084Z</time></trkpt><trkpt lat="40.51088" lon="14.931745"><ele>6.333333333333334</ele><time>2026-04-09T06:06:23.084Z</time></trkpt><trkpt lat="40.5110317" lon="14.9316583"><ele>7.0</ele><time>2026-04-09T06:06:24.084Z</time></trkpt><trkpt lat="40.511195" lon="14.9315667"><ele>5.666666666666667</ele><time>2026-04-09T06:06:25.084Z</time></trkpt><trkpt lat="40.511375" lon="14.93146"><ele>4.333333333333334</ele><time>2026-04-09T06:06:26.084Z</time></trkpt><trkpt lat="40.5115683" lon="14.9313567"><ele>3.0</ele><time>2026-04-09T06:06:27.084Z</time></trkpt><trkpt lat="40.5117733" lon="14.9312483"><ele>3.0</ele><time>2026-04-09T06:06:28.084Z</time></trkpt><trkpt lat="40.511975" lon="14.9311467"><ele>3.0</ele><time>2026-04-09T06:06:29.084Z</time></trkpt><trkpt lat="40.51219" lon="14.9310433"><ele>3.0</ele><time>2026-04-09T06:06:30.084Z</time></trkpt><trkpt lat="40.5124083" lon="14.9309383"><ele>3.0</ele><time>2026-04-09T06:06:31.084Z</time></trkpt><trkpt lat="40.5126267" lon="14.9308183"><ele>3.0</ele><time>2026-04-09T06:06:32.084Z</time></trkpt><trkpt lat="40.512845" lon="14.9306933"><ele>2.0</ele><time>2026-04-09T06:06:33.084Z</time></trkpt><trkpt lat="40.5130633" lon="14.93057"><ele>1.0</ele><time>2026-04-09T06:06:34.084Z</time></trkpt><trkpt lat="40.513285" lon="14.930445"><ele>1.0</ele><time>2026-04-09T06:06:35.084Z</time></trkpt><trkpt lat="40.5137067" lon="14.9302217"><ele>1.0</ele><time>2026-04-09T06:06:37.084Z</time></trkpt><trkpt lat="40.51391" lon="14.9301083"><ele>1.0</ele><time>2026-04-09T06:06:38.084Z</time></trkpt><trkpt lat="40.514115" lon="14.9299967"><ele>1.0</ele><time>2026-04-09T06:06:39.084Z</time></trkpt><trkpt lat="40.51432" lon="14.92988"><ele>1.3333333333333333</ele><time>2026-04-09T06:06:40.084Z</time></trkpt><trkpt lat="40.5145233" lon="14.9297633"><ele>1.6666666666666665</ele><time>2026-04-09T06:06:41.084Z</time></trkpt><trkpt lat="40.5147267" lon="14.929645"><ele>2.0</ele><time>2026-04-09T06:06:42.084Z</time></trkpt><trkpt lat="40.5149333" lon="14.92953"><ele>2.0</ele><time>2026-04-09T06:06:43.084Z</time></trkpt><trkpt lat="40.5151417" lon="14.92942"><ele>2.0</ele><time>2026-04-09T06:06:44.084Z</time></trkpt><trkpt lat="40.5153533" lon="14.9293133"><ele>3.0</ele><time>2026-04-09T06:06:45.084Z</time></trkpt><trkpt lat="40.5155683" lon="14.9292067"><ele>4.0</ele><time>2026-04-09T06:06:46.084Z</time></trkpt><trkpt lat="40.51578" lon="14.9290967"><ele>4.0</ele><time>2026-04-09T06:06:47.084Z</time></trkpt><trkpt lat="40.5160033" lon="14.92898"><ele>4.0</ele><time>2026-04-09T06:06:48.084Z</time></trkpt><trkpt lat="40.516225" lon="14.92886"><ele>3.5</ele><time>2026-04-09T06:06:49.084Z</time></trkpt><trkpt lat="40.5164533" lon="14.9287317"><ele>3.0</ele><time>2026-04-09T06:06:50.084Z</time></trkpt><trkpt lat="40.51668" lon="14.9286033"><ele>3.0</ele><time>2026-04-09T06:06:51.084Z</time></trkpt><trkpt lat="40.5169083" lon="14.92848"><ele>3.0</ele><time>2026-04-09T06:06:52.084Z</time></trkpt><trkpt lat="40.5171433" lon="14.9283567"><ele>2.0</ele><time>2026-04-09T06:06:53.085Z</time></trkpt><trkpt lat="40.51738" lon="14.9282267"><ele>1.0</ele><time>2026-04-09T06:06:54.085Z</time></trkpt><trkpt lat="40.5176217" lon="14.9280933"><ele>1.0</ele><time>2026-04-09T06:06:55.085Z</time></trkpt><trkpt lat="40.5178633" lon="14.9279583"><ele>1.0</ele><time>2026-04-09T06:06:56.085Z</time></trkpt><trkpt lat="40.518105" lon="14.9278217"><ele>1.0</ele><time>2026-04-09T06:06:57.085Z</time></trkpt><trkpt lat="40.5183517" lon="14.92769"><ele>1.0</ele><time>2026-04-09T06:06:58.085Z</time></trkpt><trkpt lat="40.5185967" lon="14.92756"><ele>2.0</ele><time>2026-04-09T06:06:59.085Z</time></trkpt><trkpt lat="40.5188467" lon="14.9274233"><ele>3.0</ele><time>2026-04-09T06:07:00.085Z</time></trkpt><trkpt lat="40.519095" lon="14.9272833"><ele>3.0</ele><time>2026-04-09T06:07:01.085Z</time></trkpt><trkpt lat="40.5193467" lon="14.9271483"><ele>3.0</ele><time>2026-04-09T06:07:02.085Z</time></trkpt><trkpt lat="40.5195883" lon="14.9270133"><ele>2.5</ele><time>2026-04-09T06:07:03.085Z</time></trkpt><trkpt lat="40.519825" lon="14.9268833"><ele>2.0</ele><time>2026-04-09T06:07:04.085Z</time></trkpt><trkpt lat="40.5200583" lon="14.9267633"><ele>2.0</ele><time>2026-04-09T06:07:05.085Z</time></trkpt><trkpt lat="40.520295" lon="14.9266317"><ele>2.0</ele><time>2026-04-09T06:07:06.085Z</time></trkpt><trkpt lat="40.5205317" lon="14.926505"><ele>2.0</ele><time>2026-04-09T06:07:07.085Z</time></trkpt><trkpt lat="40.5207667" lon="14.9263767"><ele>2.0</ele><time>2026-04-09T06:07:08.085Z</time></trkpt><trkpt lat="40.52101" lon="14.9262483"><ele>2.0</ele><time>2026-04-09T06:07:09.085Z</time></trkpt><trkpt lat="40.5212483" lon="14.9261167"><ele>2.0</ele><time>2026-04-09T06:07:10.085Z</time></trkpt><trkpt lat="40.5214983" lon="14.9259767"><ele>2.5</ele><time>2026-04-09T06:07:11.085Z</time></trkpt><trkpt lat="40.5217467" lon="14.92584"><ele>3.0</ele><time>2026-04-09T06:07:12.085Z</time></trkpt><trkpt lat="40.5219967" lon="14.925705"><ele>2.5</ele><time>2026-04-09T06:07:13.085Z</time></trkpt><trkpt lat="40.5222483" lon="14.92557"><ele>2.0</ele><time>2026-04-09T06:07:14.085Z</time></trkpt><trkpt lat="40.5225017" lon="14.9254283"><ele>2.0</ele><time>2026-04-09T06:07:15.085Z</time></trkpt><trkpt lat="40.522745" lon="14.9252867"><ele>2.0</ele><time>2026-04-09T06:07:16.085Z</time></trkpt><trkpt lat="40.5229833" lon="14.92515"><ele>3.5</ele><time>2026-04-09T06:07:17.085Z</time></trkpt><trkpt lat="40.52322" lon="14.9250217"><ele>5.0</ele><time>2026-04-09T06:07:18.085Z</time></trkpt><trkpt lat="40.5234567" lon="14.924895"><ele>5.0</ele><time>2026-04-09T06:07:19.085Z</time></trkpt><trkpt lat="40.52369" lon="14.9247717"><ele>5.0</ele><time>2026-04-09T06:07:20.085Z</time></trkpt><trkpt lat="40.5239167" lon="14.92465"><ele>4.0</ele><time>2026-04-09T06:07:21.085Z</time></trkpt><trkpt lat="40.524125" lon="14.9245283"><ele>3.0</ele><time>2026-04-09T06:07:22.085Z</time></trkpt><trkpt lat="40.524325" lon="14.9244233"><ele>2.0</ele><time>2026-04-09T06:07:23.085Z</time></trkpt><trkpt lat="40.52452" lon="14.92432"><ele>1.6666666666666665</ele><time>2026-04-09T06:07:24.085Z</time></trkpt><trkpt lat="40.5247117" lon="14.9242183"><ele>1.3333333333333333</ele><time>2026-04-09T06:07:25.085Z</time></trkpt><trkpt lat="40.5248817" lon="14.924125"><ele>1.0</ele><time>2026-04-09T06:07:26.085Z</time></trkpt><trkpt lat="40.5250417" lon="14.92404"><ele>1.0</ele><time>2026-04-09T06:07:27.085Z</time></trkpt><trkpt lat="40.5251867" lon="14.9239633"><ele>1.0</ele><time>2026-04-09T06:07:28.085Z</time></trkpt><trkpt lat="40.5253267" lon="14.9238917"><ele>1.0</ele><time>2026-04-09T06:07:29.085Z</time></trkpt><trkpt lat="40.5254517" lon="14.9238233"><ele>1.0</ele><time>2026-04-09T06:07:30.085Z</time></trkpt><trkpt lat="40.525565" lon="14.9237633"><ele>1.0</ele><time>2026-04-09T06:07:31.085Z</time></trkpt><trkpt lat="40.5256633" lon="14.9237183"><ele>1.0</ele><time>2026-04-09T06:07:32.085Z</time></trkpt><trkpt lat="40.5257467" lon="14.923685"><ele>1.0</ele><time>2026-04-09T06:07:33.085Z</time></trkpt><trkpt lat="40.525835" lon="14.9236633"><ele>1.0</ele><time>2026-04-09T06:07:34.085Z</time></trkpt><trkpt lat="40.5259283" lon="14.9236567"><ele>1.0</ele><time>2026-04-09T06:07:35.085Z</time></trkpt><trkpt lat="40.5260183" lon="14.9236167"><ele>1.0</ele><time>2026-04-09T06:07:36.085Z</time></trkpt><trkpt lat="40.5261017" lon="14.92354"><ele>1.0</ele><time>2026-04-09T06:07:37.085Z</time></trkpt><trkpt lat="40.5262083" lon="14.9234483"><ele>1.0</ele><time>2026-04-09T06:07:38.085Z</time></trkpt><trkpt lat="40.5263467" lon="14.9233467"><ele>1.0</ele><time>2026-04-09T06:07:39.085Z</time></trkpt><trkpt lat="40.52651" lon="14.923245"><ele>1.6666666666666665</ele><time>2026-04-09T06:07:40.085Z</time></trkpt><trkpt lat="40.5266833" lon="14.923155"><ele>2.3333333333333335</ele><time>2026-04-09T06:07:41.085Z</time></trkpt><trkpt lat="40.5268683" lon="14.9230583"><ele>3.0</ele><time>2026-04-09T06:07:42.085Z</time></trkpt><trkpt lat="40.527065" lon="14.92295"><ele>3.0</ele><time>2026-04-09T06:07:43.085Z</time></trkpt><trkpt lat="40.52726" lon="14.9228433"><ele>3.0</ele><time>2026-04-09T06:07:44.085Z</time></trkpt><trkpt lat="40.5274517" lon="14.922735"><ele>3.0</ele><time>2026-04-09T06:07:45.085Z</time></trkpt><trkpt lat="40.5276467" lon="14.9226183"><ele>2.6666666666666665</ele><time>2026-04-09T06:07:46.085Z</time></trkpt><trkpt lat="40.5278517" lon="14.9225017"><ele>2.333333333333333</ele><time>2026-04-09T06:07:47.085Z</time></trkpt><trkpt lat="40.5280583" lon="14.92239"><ele>2.0</ele><time>2026-04-09T06:07:48.085Z</time></trkpt><trkpt lat="40.5282683" lon="14.9222733"><ele>2.0</ele><time>2026-04-09T06:07:49.085Z</time></trkpt><trkpt lat="40.5284867" lon="14.9221483"><ele>2.0</ele><time>2026-04-09T06:07:50.085Z</time></trkpt><trkpt lat="40.5287117" lon="14.9220233"><ele>2.0</ele><time>2026-04-09T06:07:51.085Z</time></trkpt><trkpt lat="40.5289467" lon="14.9219"><ele>2.0</ele><time>2026-04-09T06:07:52.085Z</time></trkpt><trkpt lat="40.52918" lon="14.9217883"><ele>2.0</ele><time>2026-04-09T06:07:53.085Z</time></trkpt><trkpt lat="40.5294067" lon="14.921675"><ele>2.0</ele><time>2026-04-09T06:07:54.085Z</time></trkpt><trkpt lat="40.52964" lon="14.9215517"><ele>2.0</ele><time>2026-04-09T06:07:55.085Z</time></trkpt><trkpt lat="40.5298733" lon="14.92142"><ele>2.0</ele><time>2026-04-09T06:07:56.085Z</time></trkpt><trkpt lat="40.53011" lon="14.9212867"><ele>2.0</ele><time>2026-04-09T06:07:57.085Z</time></trkpt><trkpt lat="40.530355" lon="14.9211567"><ele>2.0</ele><time>2026-04-09T06:07:58.085Z</time></trkpt><trkpt lat="40.530595" lon="14.9210283"><ele>2.0</ele><time>2026-04-09T06:07:59.085Z</time></trkpt><trkpt lat="40.5308317" lon="14.9208983"><ele>2.0</ele><time>2026-04-09T06:08:00.085Z</time></trkpt><trkpt lat="40.5310717" lon="14.9207717"><ele>1.5</ele><time>2026-04-09T06:08:01.085Z</time></trkpt><trkpt lat="40.5313083" lon="14.920645"><ele>1.0</ele><time>2026-04-09T06:08:02.085Z</time></trkpt><trkpt lat="40.53155" lon="14.9205133"><ele>1.0</ele><time>2026-04-09T06:08:03.085Z</time></trkpt><trkpt lat="40.531795" lon="14.920375"><ele>1.0</ele><time>2026-04-09T06:08:04.085Z</time></trkpt><trkpt lat="40.5320417" lon="14.9202383"><ele>2.0</ele><time>2026-04-09T06:08:05.085Z</time></trkpt><trkpt lat="40.532285" lon="14.920105"><ele>3.0</ele><time>2026-04-09T06:08:06.085Z</time></trkpt><trkpt lat="40.5325167" lon="14.9199767"><ele>3.0</ele><time>2026-04-09T06:08:07.085Z</time></trkpt><trkpt lat="40.5327517" lon="14.919855"><ele>3.0</ele><time>2026-04-09T06:08:08.085Z</time></trkpt><trkpt lat="40.53299" lon="14.9197283"><ele>2.5</ele><time>2026-04-09T06:08:09.085Z</time></trkpt><trkpt lat="40.5332267" lon="14.9195967"><ele>2.0</ele><time>2026-04-09T06:08:10.085Z</time></trkpt><trkpt lat="40.5334533" lon="14.91947"><ele>2.0</ele><time>2026-04-09T06:08:11.085Z</time></trkpt><trkpt lat="40.5336867" lon="14.9193533"><ele>2.0</ele><time>2026-04-09T06:08:12.085Z</time></trkpt><trkpt lat="40.53392" lon="14.9192283"><ele>2.0</ele><time>2026-04-09T06:08:13.085Z</time></trkpt><trkpt lat="40.534155" lon="14.9190967"><ele>2.0</ele><time>2026-04-09T06:08:14.085Z</time></trkpt><trkpt lat="40.5343967" lon="14.918965"><ele>2.0</ele><time>2026-04-09T06:08:15.085Z</time></trkpt><trkpt lat="40.5346383" lon="14.9188267"><ele>2.0</ele><time>2026-04-09T06:08:16.085Z</time></trkpt><trkpt lat="40.5348817" lon="14.9186917"><ele>2.0</ele><time>2026-04-09T06:08:17.085Z</time></trkpt><trkpt lat="40.5351267" lon="14.91856"><ele>2.0</ele><time>2026-04-09T06:08:18.085Z</time></trkpt><trkpt lat="40.53537" lon="14.9184233"><ele>2.0</ele><time>2026-04-09T06:08:19.085Z</time></trkpt><trkpt lat="40.535615" lon="14.9182917"><ele>2.0</ele><time>2026-04-09T06:08:20.085Z</time></trkpt><trkpt lat="40.5358567" lon="14.9181533"><ele>2.0</ele><time>2026-04-09T06:08:21.085Z</time></trkpt><trkpt lat="40.5361017" lon="14.9180233"><ele>2.0</ele><time>2026-04-09T06:08:22.085Z</time></trkpt><trkpt lat="40.5363483" lon="14.9178933"><ele>2.0</ele><time>2026-04-09T06:08:23.085Z</time></trkpt><trkpt lat="40.5365967" lon="14.9177567"><ele>2.0</ele><time>2026-04-09T06:08:24.085Z</time></trkpt><trkpt lat="40.536845" lon="14.917625"><ele>1.5</ele><time>2026-04-09T06:08:25.085Z</time></trkpt><trkpt lat="40.5370883" lon="14.9174917"><ele>1.0</ele><time>2026-04-09T06:08:26.085Z</time></trkpt><trkpt lat="40.5373333" lon="14.91736"><ele>1.0</ele><time>2026-04-09T06:08:27.085Z</time></trkpt><trkpt lat="40.537575" lon="14.91723"><ele>1.0</ele><time>2026-04-09T06:08:28.085Z</time></trkpt><trkpt lat="40.5378217" lon="14.9170933"><ele>1.0</ele><time>2026-04-09T06:08:29.085Z</time></trkpt><trkpt lat="40.5380667" lon="14.9169633"><ele>1.0</ele><time>2026-04-09T06:08:30.085Z</time></trkpt><trkpt lat="40.5383117" lon="14.9168283"><ele>2.0</ele><time>2026-04-09T06:08:31.085Z</time></trkpt><trkpt lat="40.53855" lon="14.91669"><ele>3.0</ele><time>2026-04-09T06:08:32.085Z</time></trkpt><trkpt lat="40.53879" lon="14.9165617"><ele>3.0</ele><time>2026-04-09T06:08:33.085Z</time></trkpt><trkpt lat="40.5390317" lon="14.9164317"><ele>3.0</ele><time>2026-04-09T06:08:34.085Z</time></trkpt><trkpt lat="40.53927" lon="14.9163017"><ele>3.0</ele><time>2026-04-09T06:08:35.085Z</time></trkpt><trkpt lat="40.5395083" lon="14.916175"><ele>3.0</ele><time>2026-04-09T06:08:36.085Z</time></trkpt><trkpt lat="40.539745" lon="14.9160417"><ele>3.5</ele><time>2026-04-09T06:08:37.085Z</time></trkpt><trkpt lat="40.539985" lon="14.9159"><ele>4.0</ele><time>2026-04-09T06:08:38.085Z</time></trkpt><trkpt lat="40.5402217" lon="14.915755"><ele>4.0</ele><time>2026-04-09T06:08:39.085Z</time></trkpt><trkpt lat="40.540455" lon="14.915595"><ele>4.0</ele><time>2026-04-09T06:08:40.085Z</time></trkpt><trkpt lat="40.5406867" lon="14.9154317"><ele>4.0</ele><time>2026-04-09T06:08:41.085Z</time></trkpt><trkpt lat="40.5409183" lon="14.9152633"><ele>4.0</ele><time>2026-04-09T06:08:42.085Z</time></trkpt><trkpt lat="40.5411433" lon="14.915085"><ele>4.0</ele><time>2026-04-09T06:08:43.085Z</time></trkpt><trkpt lat="40.541375" lon="14.9149067"><ele>4.0</ele><time>2026-04-09T06:08:44.085Z</time></trkpt><trkpt lat="40.5416" lon="14.91473"><ele>4.0</ele><time>2026-04-09T06:08:45.085Z</time></trkpt><trkpt lat="40.5418317" lon="14.9145567"><ele>4.0</ele><time>2026-04-09T06:08:46.085Z</time></trkpt><trkpt lat="40.5420633" lon="14.9143817"><ele>3.0</ele><time>2026-04-09T06:08:47.085Z</time></trkpt><trkpt lat="40.5422967" lon="14.9142067"><ele>2.0</ele><time>2026-04-09T06:08:48.085Z</time></trkpt><trkpt lat="40.54253" lon="14.914025"><ele>2.0</ele><time>2026-04-09T06:08:49.085Z</time></trkpt><trkpt lat="40.5427617" lon="14.9138433"><ele>2.0</ele><time>2026-04-09T06:08:50.085Z</time></trkpt><trkpt lat="40.5429983" lon="14.9136617"><ele>2.5</ele><time>2026-04-09T06:08:51.085Z</time></trkpt><trkpt lat="40.5432367" lon="14.9134767"><ele>3.0</ele><time>2026-04-09T06:08:52.085Z</time></trkpt><trkpt lat="40.54347" lon="14.913295"><ele>3.0</ele><time>2026-04-09T06:08:53.085Z</time></trkpt><trkpt lat="40.54371" lon="14.9131117"><ele>3.0</ele><time>2026-04-09T06:08:54.085Z</time></trkpt><trkpt lat="40.543945" lon="14.912935"><ele>3.0</ele><time>2026-04-09T06:08:55.085Z</time></trkpt><trkpt lat="40.544185" lon="14.9127483"><ele>3.0</ele><time>2026-04-09T06:08:56.085Z</time></trkpt><trkpt lat="40.54442" lon="14.9125683"><ele>2.5</ele><time>2026-04-09T06:08:57.085Z</time></trkpt><trkpt lat="40.5446533" lon="14.9123933"><ele>2.0</ele><time>2026-04-09T06:08:58.085Z</time></trkpt><trkpt lat="40.5448817" lon="14.9122133"><ele>2.0</ele><time>2026-04-09T06:08:59.085Z</time></trkpt><trkpt lat="40.545105" lon="14.912045"><ele>2.0</ele><time>2026-04-09T06:09:00.085Z</time></trkpt><trkpt lat="40.54532" lon="14.91188"><ele>2.5</ele><time>2026-04-09T06:09:01.085Z</time></trkpt><trkpt lat="40.5455317" lon="14.9117167"><ele>3.0</ele><time>2026-04-09T06:09:02.085Z</time></trkpt><trkpt lat="40.5457533" lon="14.9115433"><ele>3.0</ele><time>2026-04-09T06:09:03.085Z</time></trkpt><trkpt lat="40.5459767" lon="14.911375"><ele>3.0</ele><time>2026-04-09T06:09:04.085Z</time></trkpt><trkpt lat="40.5462017" lon="14.91119"><ele>3.5</ele><time>2026-04-09T06:09:05.085Z</time></trkpt><trkpt lat="40.5464267" lon="14.9110117"><ele>4.0</ele><time>2026-04-09T06:09:06.085Z</time></trkpt><trkpt lat="40.5466433" lon="14.9108417"><ele>4.0</ele><time>2026-04-09T06:09:07.085Z</time></trkpt><trkpt lat="40.5468583" lon="14.910675"><ele>4.0</ele><time>2026-04-09T06:09:08.085Z</time></trkpt><trkpt lat="40.5470783" lon="14.9105167"><ele>4.0</ele><time>2026-04-09T06:09:09.085Z</time></trkpt><trkpt lat="40.547295" lon="14.91035"><ele>4.0</ele><time>2026-04-09T06:09:10.085Z</time></trkpt><trkpt lat="40.5475183" lon="14.91018"><ele>3.5</ele><time>2026-04-09T06:09:11.085Z</time></trkpt><trkpt lat="40.5477417" lon="14.91001"><ele>3.0</ele><time>2026-04-09T06:09:12.085Z</time></trkpt><trkpt lat="40.5479583" lon="14.909845"><ele>3.0</ele><time>2026-04-09T06:09:13.085Z</time></trkpt><trkpt lat="40.54817" lon="14.90968"><ele>3.0</ele><time>2026-04-09T06:09:14.085Z</time></trkpt><trkpt lat="40.548375" lon="14.909525"><ele>3.0</ele><time>2026-04-09T06:09:15.085Z</time></trkpt><trkpt lat="40.5485783" lon="14.9093683"><ele>3.0</ele><time>2026-04-09T06:09:16.085Z</time></trkpt><trkpt lat="40.5487867" lon="14.9092133"><ele>3.5</ele><time>2026-04-09T06:09:17.085Z</time></trkpt><trkpt lat="40.5489933" lon="14.9090517"><ele>4.0</ele><time>2026-04-09T06:09:18.085Z</time></trkpt><trkpt lat="40.549205" lon="14.908885"><ele>4.0</ele><time>2026-04-09T06:09:19.085Z</time></trkpt><trkpt lat="40.5494217" lon="14.9087183"><ele>4.0</ele><time>2026-04-09T06:09:20.085Z</time></trkpt><trkpt lat="40.5496383" lon="14.90855"><ele>2.0</ele><time>2026-04-09T06:09:21.085Z</time></trkpt><trkpt lat="40.5498533" lon="14.9083867"><ele>0.0</ele><time>2026-04-09T06:09:22.085Z</time></trkpt><trkpt lat="40.550055" lon="14.908225"><ele>0.0</ele><time>2026-04-09T06:09:23.085Z</time></trkpt><trkpt lat="40.5502517" lon="14.90807"><ele>0.0</ele><time>2026-04-09T06:09:24.085Z</time></trkpt><trkpt lat="40.5504433" lon="14.90793"><ele>0.0</ele><time>2026-04-09T06:09:25.085Z</time></trkpt><trkpt lat="40.5506217" lon="14.9077883"><ele>0.0</ele><time>2026-04-09T06:09:26.085Z</time></trkpt><trkpt lat="40.5508167" lon="14.9076383"><ele>0.0</ele><time>2026-04-09T06:09:27.085Z</time></trkpt><trkpt lat="40.551015" lon="14.90748"><ele>0.5</ele><time>2026-04-09T06:09:28.085Z</time></trkpt><trkpt lat="40.5512283" lon="14.9073233"><ele>1.0</ele><time>2026-04-09T06:09:29.085Z</time></trkpt><trkpt lat="40.5514433" lon="14.9071583"><ele>1.0</ele><time>2026-04-09T06:09:30.085Z</time></trkpt><trkpt lat="40.551655" lon="14.9069917"><ele>1.0</ele><time>2026-04-09T06:09:31.085Z</time></trkpt><trkpt lat="40.5518767" lon="14.90682"><ele>1.5</ele><time>2026-04-09T06:09:32.085Z</time></trkpt><trkpt lat="40.5520967" lon="14.9066467"><ele>2.0</ele><time>2026-04-09T06:09:33.085Z</time></trkpt><trkpt lat="40.552315" lon="14.9064817"><ele>2.0</ele><time>2026-04-09T06:09:34.085Z</time></trkpt><trkpt lat="40.5525233" lon="14.9063167"><ele>2.0</ele><time>2026-04-09T06:09:35.085Z</time></trkpt><trkpt lat="40.5527317" lon="14.90616"><ele>2.0</ele><time>2026-04-09T06:09:36.085Z</time></trkpt><trkpt lat="40.5529367" lon="14.906"><ele>2.0</ele><time>2026-04-09T06:09:37.085Z</time></trkpt><trkpt lat="40.5531267" lon="14.90585"><ele>2.5</ele><time>2026-04-09T06:09:38.085Z</time></trkpt><trkpt lat="40.553325" lon="14.9057"><ele>3.0</ele><time>2026-04-09T06:09:39.085Z</time></trkpt><trkpt lat="40.55352" lon="14.905555"><ele>2.3333333333333335</ele><time>2026-04-09T06:09:40.085Z</time></trkpt><trkpt lat="40.5537067" lon="14.9054117"><ele>1.6666666666666665</ele><time>2026-04-09T06:09:41.085Z</time></trkpt><trkpt lat="40.553895" lon="14.90526"><ele>1.0</ele><time>2026-04-09T06:09:42.085Z</time></trkpt><trkpt lat="40.5540883" lon="14.9051017"><ele>2.5</ele><time>2026-04-09T06:09:43.085Z</time></trkpt><trkpt lat="40.5542933" lon="14.9049417"><ele>4.0</ele><time>2026-04-09T06:09:44.085Z</time></trkpt><trkpt lat="40.5545033" lon="14.904765"><ele>3.0</ele><time>2026-04-09T06:09:45.085Z</time></trkpt><trkpt lat="40.5547217" lon="14.9046117"><ele>2.0</ele><time>2026-04-09T06:09:46.085Z</time></trkpt><trkpt lat="40.554945" lon="14.9044533"><ele>2.0</ele><time>2026-04-09T06:09:47.085Z</time></trkpt><trkpt lat="40.55518" lon="14.9042817"><ele>2.0</ele><time>2026-04-09T06:09:48.085Z</time></trkpt><trkpt lat="40.5554117" lon="14.9041033"><ele>3.0</ele><time>2026-04-09T06:09:49.085Z</time></trkpt><trkpt lat="40.5556483" lon="14.9039183"><ele>4.0</ele><time>2026-04-09T06:09:50.085Z</time></trkpt><trkpt lat="40.55589" lon="14.903735"><ele>4.0</ele><time>2026-04-09T06:09:51.085Z</time></trkpt><trkpt lat="40.556135" lon="14.903545"><ele>4.0</ele><time>2026-04-09T06:09:52.085Z</time></trkpt><trkpt lat="40.556375" lon="14.9033633"><ele>3.5</ele><time>2026-04-09T06:09:53.085Z</time></trkpt><trkpt lat="40.556625" lon="14.90317"><ele>3.0</ele><time>2026-04-09T06:09:54.085Z</time></trkpt><trkpt lat="40.5568667" lon="14.90298"><ele>3.5</ele><time>2026-04-09T06:09:55.085Z</time></trkpt><trkpt lat="40.5571033" lon="14.90279"><ele>4.0</ele><time>2026-04-09T06:09:56.085Z</time></trkpt><trkpt lat="40.55734" lon="14.9026117"><ele>5.0</ele><time>2026-04-09T06:09:57.085Z</time></trkpt><trkpt lat="40.557575" lon="14.9024367"><ele>6.0</ele><time>2026-04-09T06:09:58.085Z</time></trkpt><trkpt lat="40.557795" lon="14.9022583"><ele>6.0</ele><time>2026-04-09T06:09:59.085Z</time></trkpt><trkpt lat="40.55801" lon="14.90209"><ele>6.0</ele><time>2026-04-09T06:10:00.085Z</time></trkpt><trkpt lat="40.5582233" lon="14.90193"><ele>6.0</ele><time>2026-04-09T06:10:01.085Z</time></trkpt><trkpt lat="40.5584283" lon="14.9017717"><ele>6.0</ele><time>2026-04-09T06:10:02.085Z</time></trkpt><trkpt lat="40.5586417" lon="14.9016067"><ele>4.5</ele><time>2026-04-09T06:10:03.085Z</time></trkpt><trkpt lat="40.55886" lon="14.9014467"><ele>3.0</ele><time>2026-04-09T06:10:04.085Z</time></trkpt><trkpt lat="40.5590717" lon="14.9012817"><ele>3.0</ele><time>2026-04-09T06:10:05.085Z</time></trkpt><trkpt lat="40.5592833" lon="14.9011167"><ele>3.0</ele><time>2026-04-09T06:10:06.085Z</time></trkpt><trkpt lat="40.5594867" lon="14.90096"><ele>2.3333333333333335</ele><time>2026-04-09T06:10:07.085Z</time></trkpt><trkpt lat="40.5596833" lon="14.900805"><ele>1.6666666666666665</ele><time>2026-04-09T06:10:08.085Z</time></trkpt><trkpt lat="40.5598683" lon="14.9006617"><ele>1.0</ele><time>2026-04-09T06:10:09.085Z</time></trkpt><trkpt lat="40.5600517" lon="14.9005233"><ele>1.0</ele><time>2026-04-09T06:10:10.085Z</time></trkpt><trkpt lat="40.5602367" lon="14.90038"><ele>1.0</ele><time>2026-04-09T06:10:11.085Z</time></trkpt><trkpt lat="40.5604217" lon="14.9002367"><ele>1.0</ele><time>2026-04-09T06:10:12.085Z</time></trkpt><trkpt lat="40.5606" lon="14.9000983"><ele>1.6666666666666665</ele><time>2026-04-09T06:10:13.085Z</time></trkpt><trkpt lat="40.5607733" lon="14.8999633"><ele>2.3333333333333335</ele><time>2026-04-09T06:10:14.085Z</time></trkpt><trkpt lat="40.5609367" lon="14.89983"><ele>3.0</ele><time>2026-04-09T06:10:15.085Z</time></trkpt><trkpt lat="40.5611" lon="14.8997017"><ele>2.6666666666666665</ele><time>2026-04-09T06:10:16.085Z</time></trkpt><trkpt lat="40.5612567" lon="14.8995783"><ele>2.333333333333333</ele><time>2026-04-09T06:10:17.085Z</time></trkpt><trkpt lat="40.5614083" lon="14.8994617"><ele>2.0</ele><time>2026-04-09T06:10:18.085Z</time></trkpt><trkpt lat="40.5615417" lon="14.8993467"><ele>3.333333333333333</ele><time>2026-04-09T06:10:19.085Z</time></trkpt><trkpt lat="40.5616733" lon="14.8992433"><ele>4.666666666666667</ele><time>2026-04-09T06:10:20.085Z</time></trkpt><trkpt lat="40.5618033" lon="14.8991417"><ele>6.0</ele><time>2026-04-09T06:10:21.085Z</time></trkpt><trkpt lat="40.5619333" lon="14.8990433"><ele>5.666666666666667</ele><time>2026-04-09T06:10:22.085Z</time></trkpt><trkpt lat="40.562065" lon="14.8989383"><ele>5.333333333333334</ele><time>2026-04-09T06:10:23.085Z</time></trkpt><trkpt lat="40.5622083" lon="14.8988333"><ele>5.0</ele><time>2026-04-09T06:10:24.085Z</time></trkpt><trkpt lat="40.5623533" lon="14.8987167"><ele>5.0</ele><time>2026-04-09T06:10:25.085Z</time></trkpt><trkpt lat="40.5624983" lon="14.89859"><ele>5.0</ele><time>2026-04-09T06:10:26.085Z</time></trkpt><trkpt lat="40.5626483" lon="14.8984767"><ele>5.0</ele><time>2026-04-09T06:10:27.085Z</time></trkpt><trkpt lat="40.5627983" lon="14.8983683"><ele>5.0</ele><time>2026-04-09T06:10:28.085Z</time></trkpt><trkpt lat="40.5629433" lon="14.89826"><ele>5.0</ele><time>2026-04-09T06:10:29.085Z</time></trkpt><trkpt lat="40.5630733" lon="14.8981633"><ele>5.0</ele><time>2026-04-09T06:10:30.085Z</time></trkpt><trkpt lat="40.563195" lon="14.8980817"><ele>5.0</ele><time>2026-04-09T06:10:31.085Z</time></trkpt><trkpt lat="40.5632917" lon="14.8980033"><ele>5.0</ele><time>2026-04-09T06:10:32.085Z</time></trkpt><trkpt lat="40.563385" lon="14.8979283"><ele>5.0</ele><time>2026-04-09T06:10:33.085Z</time></trkpt><trkpt lat="40.56348" lon="14.89786"><ele>5.0</ele><time>2026-04-09T06:10:34.085Z</time></trkpt><trkpt lat="40.563575" lon="14.8977917"><ele>5.0</ele><time>2026-04-09T06:10:35.085Z</time></trkpt><trkpt lat="40.5636733" lon="14.8977183"><ele>5.0</ele><time>2026-04-09T06:10:36.085Z</time></trkpt><trkpt lat="40.5637667" lon="14.8976433"><ele>5.0</ele><time>2026-04-09T06:10:37.085Z</time></trkpt><trkpt lat="40.56386" lon="14.8975683"><ele>5.0</ele><time>2026-04-09T06:10:38.085Z</time></trkpt><trkpt lat="40.5639533" lon="14.897495"><ele>5.0</ele><time>2026-04-09T06:10:39.085Z</time></trkpt><trkpt lat="40.5640583" lon="14.8974133"><ele>5.0</ele><time>2026-04-09T06:10:40.085Z</time></trkpt><trkpt lat="40.5641817" lon="14.89731"><ele>5.0</ele><time>2026-04-09T06:10:41.085Z</time></trkpt><trkpt lat="40.5643183" lon="14.8971883"><ele>5.0</ele><time>2026-04-09T06:10:42.085Z</time></trkpt><trkpt lat="40.5644733" lon="14.8970667"><ele>5.0</ele><time>2026-04-09T06:10:43.085Z</time></trkpt><trkpt lat="40.5646517" lon="14.8969333"><ele>5.0</ele><time>2026-04-09T06:10:44.085Z</time></trkpt><trkpt lat="40.5648417" lon="14.8967967"><ele>5.0</ele><time>2026-04-09T06:10:45.085Z</time></trkpt><trkpt lat="40.56503" lon="14.8966583"><ele>5.0</ele><time>2026-04-09T06:10:46.085Z</time></trkpt><trkpt lat="40.56522" lon="14.8965183"><ele>3.5</ele><time>2026-04-09T06:10:47.085Z</time></trkpt><trkpt lat="40.5654167" lon="14.8963733"><ele>2.0</ele><time>2026-04-09T06:10:48.085Z</time></trkpt><trkpt lat="40.5656167" lon="14.896225"><ele>2.0</ele><time>2026-04-09T06:10:49.085Z</time></trkpt><trkpt lat="40.5658233" lon="14.8960667"><ele>2.0</ele><time>2026-04-09T06:10:50.085Z</time></trkpt><trkpt lat="40.566035" lon="14.895905"><ele>3.0</ele><time>2026-04-09T06:10:51.085Z</time></trkpt><trkpt lat="40.566245" lon="14.8957433"><ele>4.0</ele><time>2026-04-09T06:10:52.085Z</time></trkpt><trkpt lat="40.5664617" lon="14.8955733"><ele>4.0</ele><time>2026-04-09T06:10:53.085Z</time></trkpt><trkpt lat="40.5666767" lon="14.8954167"><ele>4.0</ele><time>2026-04-09T06:10:54.085Z</time></trkpt><trkpt lat="40.56688" lon="14.89526"><ele>3.5</ele><time>2026-04-09T06:10:55.085Z</time></trkpt><trkpt lat="40.5670867" lon="14.8951"><ele>3.0</ele><time>2026-04-09T06:10:56.085Z</time></trkpt><trkpt lat="40.5673033" lon="14.894935"><ele>3.0</ele><time>2026-04-09T06:10:57.085Z</time></trkpt><trkpt lat="40.5675117" lon="14.8947717"><ele>3.0</ele><time>2026-04-09T06:10:58.085Z</time></trkpt><trkpt lat="40.5677233" lon="14.8946083"><ele>3.5</ele><time>2026-04-09T06:10:59.085Z</time></trkpt><trkpt lat="40.5679383" lon="14.8944433"><ele>4.0</ele><time>2026-04-09T06:11:00.085Z</time></trkpt><trkpt lat="40.56815" lon="14.8942833"><ele>4.0</ele><time>2026-04-09T06:11:01.085Z</time></trkpt><trkpt lat="40.56836" lon="14.8941217"><ele>4.0</ele><time>2026-04-09T06:11:02.085Z</time></trkpt><trkpt lat="40.5685733" lon="14.8939567"><ele>4.5</ele><time>2026-04-09T06:11:03.085Z</time></trkpt><trkpt lat="40.568775" lon="14.8937983"><ele>5.0</ele><time>2026-04-09T06:11:04.085Z</time></trkpt><trkpt lat="40.5689783" lon="14.8936383"><ele>5.0</ele><time>2026-04-09T06:11:05.085Z</time></trkpt><trkpt lat="40.5691867" lon="14.893475"><ele>5.0</ele><time>2026-04-09T06:11:06.085Z</time></trkpt><trkpt lat="40.5694033" lon="14.893305"><ele>3.5</ele><time>2026-04-09T06:11:07.085Z</time></trkpt><trkpt lat="40.569625" lon="14.893135"><ele>2.0</ele><time>2026-04-09T06:11:08.085Z</time></trkpt><trkpt lat="40.5698517" lon="14.89296"><ele>2.0</ele><time>2026-04-09T06:11:09.085Z</time></trkpt><trkpt lat="40.5700867" lon="14.892785"><ele>2.0</ele><time>2026-04-09T06:11:10.085Z</time></trkpt><trkpt lat="40.57032" lon="14.892605"><ele>3.0</ele><time>2026-04-09T06:11:11.085Z</time></trkpt><trkpt lat="40.570555" lon="14.8924217"><ele>4.0</ele><time>2026-04-09T06:11:12.085Z</time></trkpt><trkpt lat="40.57079" lon="14.8922383"><ele>4.0</ele><time>2026-04-09T06:11:13.085Z</time></trkpt><trkpt lat="40.5710233" lon="14.8920567"><ele>4.0</ele><time>2026-04-09T06:11:14.085Z</time></trkpt><trkpt lat="40.5712483" lon="14.8918833"><ele>3.5</ele><time>2026-04-09T06:11:15.085Z</time></trkpt><trkpt lat="40.571465" lon="14.8917167"><ele>3.0</ele><time>2026-04-09T06:11:16.085Z</time></trkpt><trkpt lat="40.5716783" lon="14.8915533"><ele>3.0</ele><time>2026-04-09T06:11:17.085Z</time></trkpt><trkpt lat="40.5718867" lon="14.891395"><ele>3.0</ele><time>2026-04-09T06:11:18.085Z</time></trkpt><trkpt lat="40.57209" lon="14.8912417"><ele>3.0</ele><time>2026-04-09T06:11:19.085Z</time></trkpt><trkpt lat="40.5722767" lon="14.8911017"><ele>3.0</ele><time>2026-04-09T06:11:20.085Z</time></trkpt><trkpt lat="40.5724433" lon="14.8909767"><ele>3.0</ele><time>2026-04-09T06:11:21.085Z</time></trkpt><trkpt lat="40.5725933" lon="14.8908583"><ele>2.75</ele><time>2026-04-09T06:11:22.085Z</time></trkpt><trkpt lat="40.5727317" lon="14.89075"><ele>2.5</ele><time>2026-04-09T06:11:23.085Z</time></trkpt><trkpt lat="40.5728567" lon="14.8906567"><ele>2.25</ele><time>2026-04-09T06:11:24.085Z</time></trkpt><trkpt lat="40.57296" lon="14.890585"><ele>2.0</ele><time>2026-04-09T06:11:25.085Z</time></trkpt><trkpt lat="40.5730533" lon="14.8905483"><ele>2.0</ele><time>2026-04-09T06:11:26.085Z</time></trkpt><trkpt lat="40.57314" lon="14.8905567"><ele>2.0</ele><time>2026-04-09T06:11:27.085Z</time></trkpt><trkpt lat="40.5732217" lon="14.8905983"><ele>2.0</ele><time>2026-04-09T06:11:28.085Z</time></trkpt><trkpt lat="40.5732967" lon="14.89067"><ele>2.0</ele><time>2026-04-09T06:11:29.085Z</time></trkpt><trkpt lat="40.57337" lon="14.8907817"><ele>2.0</ele><time>2026-04-09T06:11:30.085Z</time></trkpt><trkpt lat="40.5734417" lon="14.8909317"><ele>2.333333333333333</ele><time>2026-04-09T06:11:31.085Z</time></trkpt><trkpt lat="40.57352" lon="14.8911133"><ele>2.6666666666666665</ele><time>2026-04-09T06:11:32.085Z</time></trkpt><trkpt lat="40.5736" lon="14.8912917"><ele>3.0</ele><time>2026-04-09T06:11:33.085Z</time></trkpt><trkpt lat="40.5736833" lon="14.89148"><ele>3.333333333333333</ele><time>2026-04-09T06:11:34.085Z</time></trkpt><trkpt lat="40.573775" lon="14.8916817"><ele>3.6666666666666665</ele><time>2026-04-09T06:11:35.085Z</time></trkpt><trkpt lat="40.5738733" lon="14.8918867"><ele>4.0</ele><time>2026-04-09T06:11:36.085Z</time></trkpt><trkpt lat="40.5739733" lon="14.8921"><ele>4.0</ele><time>2026-04-09T06:11:37.085Z</time></trkpt><trkpt lat="40.5740783" lon="14.89231"><ele>4.0</ele><time>2026-04-09T06:11:38.085Z</time></trkpt><trkpt lat="40.5741867" lon="14.8925267"><ele>4.0</ele><time>2026-04-09T06:11:39.085Z</time></trkpt><trkpt lat="40.5742833" lon="14.8927383"><ele>3.333333333333333</ele><time>2026-04-09T06:11:40.085Z</time></trkpt><trkpt lat="40.5743817" lon="14.8929483"><ele>2.6666666666666665</ele><time>2026-04-09T06:11:41.085Z</time></trkpt><trkpt lat="40.5744783" lon="14.8931533"><ele>2.0</ele><time>2026-04-09T06:11:42.085Z</time></trkpt><trkpt lat="40.5745733" lon="14.8933483"><ele>2.6666666666666665</ele><time>2026-04-09T06:11:43.085Z</time></trkpt><trkpt lat="40.5746567" lon="14.8935333"><ele>3.333333333333333</ele><time>2026-04-09T06:11:44.085Z</time></trkpt><trkpt lat="40.57474" lon="14.8937167"><ele>4.0</ele><time>2026-04-09T06:11:45.085Z</time></trkpt><trkpt lat="40.5748233" lon="14.893895"><ele>4.0</ele><time>2026-04-09T06:11:46.085Z</time></trkpt><trkpt lat="40.574905" lon="14.8940583"><ele>4.0</ele><time>2026-04-09T06:11:47.085Z</time></trkpt><trkpt lat="40.5749767" lon="14.8942117"><ele>4.0</ele><time>2026-04-09T06:11:48.085Z</time></trkpt><trkpt lat="40.5750483" lon="14.89436"><ele>4.0</ele><time>2026-04-09T06:11:49.085Z</time></trkpt><trkpt lat="40.57511" lon="14.8944967"><ele>3.6666666666666665</ele><time>2026-04-09T06:11:50.085Z</time></trkpt><trkpt lat="40.57517" lon="14.8946217"><ele>3.333333333333333</ele><time>2026-04-09T06:11:51.085Z</time></trkpt><trkpt lat="40.5752183" lon="14.8947283"><ele>3.0</ele><time>2026-04-09T06:11:52.085Z</time></trkpt><trkpt lat="40.5752583" lon="14.8948217"><ele>2.6666666666666665</ele><time>2026-04-09T06:11:53.085Z</time></trkpt><trkpt lat="40.5752933" lon="14.8948983"><ele>2.333333333333333</ele><time>2026-04-09T06:11:54.085Z</time></trkpt><trkpt lat="40.575335" lon="14.8950033"><ele>2.0</ele><time>2026-04-09T06:11:56.085Z</time></trkpt><trkpt lat="40.575375" lon="14.8950933"><ele>1.8</ele><time>2026-04-09T06:11:59.085Z</time></trkpt><trkpt lat="40.575405" lon="14.8951817"><ele>1.6</ele><time>2026-04-09T06:12:27.085Z</time></trkpt><trkpt lat="40.5754433" lon="14.8952633"><ele>1.4000000000000001</ele><time>2026-04-09T06:12:29.085Z</time></trkpt><trkpt lat="40.5755033" lon="14.89536"><ele>1.2000000000000002</ele><time>2026-04-09T06:12:31.085Z</time></trkpt><trkpt lat="40.57558" lon="14.89549"><ele>1.0</ele><time>2026-04-09T06:12:33.085Z</time></trkpt><trkpt lat="40.57563" lon="14.8955933"><ele>1.0</ele><time>2026-04-09T06:12:34.085Z</time></trkpt><trkpt lat="40.5756867" lon="14.8957467"><ele>1.0</ele><time>2026-04-09T06:12:35.085Z</time></trkpt><trkpt lat="40.57575" lon="14.89592"><ele>1.0</ele><time>2026-04-09T06:12:36.085Z</time></trkpt><trkpt lat="40.5758067" lon="14.8960933"><ele>1.0</ele><time>2026-04-09T06:12:37.085Z</time></trkpt><trkpt lat="40.5758583" lon="14.8962617"><ele>1.0</ele><time>2026-04-09T06:12:38.085Z</time></trkpt><trkpt lat="40.5759083" lon="14.8964467"><ele>1.0</ele><time>2026-04-09T06:12:39.085Z</time></trkpt><trkpt lat="40.575955" lon="14.8966633"><ele>1.0</ele><time>2026-04-09T06:12:40.085Z</time></trkpt><trkpt lat="40.5759933" lon="14.8968967"><ele>1.0</ele><time>2026-04-09T06:12:41.085Z</time></trkpt><trkpt lat="40.5760333" lon="14.8971483"><ele>1.0</ele><time>2026-04-09T06:12:42.085Z</time></trkpt><trkpt lat="40.576075" lon="14.8974133"><ele>1.0</ele><time>2026-04-09T06:12:43.085Z</time></trkpt><trkpt lat="40.5761217" lon="14.89768"><ele>1.3333333333333333</ele><time>2026-04-09T06:12:44.085Z</time></trkpt><trkpt lat="40.576165" lon="14.89795"><ele>1.6666666666666665</ele><time>2026-04-09T06:12:45.085Z</time></trkpt><trkpt lat="40.5762183" lon="14.8982233"><ele>2.0</ele><time>2026-04-09T06:12:46.085Z</time></trkpt><trkpt lat="40.5762667" lon="14.8985083"><ele>2.5</ele><time>2026-04-09T06:12:47.085Z</time></trkpt><trkpt lat="40.5763217" lon="14.8988067"><ele>3.0</ele><time>2026-04-09T06:12:48.085Z</time></trkpt><trkpt lat="40.5763733" lon="14.89911"><ele>3.0</ele><time>2026-04-09T06:12:49.085Z</time></trkpt><trkpt lat="40.5764233" lon="14.8994067"><ele>3.0</ele><time>2026-04-09T06:12:50.085Z</time></trkpt><trkpt lat="40.5764817" lon="14.8996833"><ele>3.0</ele><time>2026-04-09T06:12:51.085Z</time></trkpt><trkpt lat="40.5765317" lon="14.8999633"><ele>3.333333333333333</ele><time>2026-04-09T06:12:52.085Z</time></trkpt><trkpt lat="40.576575" lon="14.9002433"><ele>3.6666666666666665</ele><time>2026-04-09T06:12:53.085Z</time></trkpt><trkpt lat="40.576625" lon="14.9005133"><ele>4.0</ele><time>2026-04-09T06:12:54.085Z</time></trkpt><trkpt lat="40.57668" lon="14.9007783"><ele>4.0</ele><time>2026-04-09T06:12:55.085Z</time></trkpt><trkpt lat="40.57673" lon="14.9010383"><ele>4.0</ele><time>2026-04-09T06:12:56.085Z</time></trkpt><trkpt lat="40.5767733" lon="14.9012983"><ele>4.0</ele><time>2026-04-09T06:12:57.085Z</time></trkpt><trkpt lat="40.5768167" lon="14.9015567"><ele>4.0</ele><time>2026-04-09T06:12:58.085Z</time></trkpt><trkpt lat="40.5768667" lon="14.9018017"><ele>4.0</ele><time>2026-04-09T06:12:59.085Z</time></trkpt><trkpt lat="40.5769283" lon="14.902035"><ele>4.0</ele><time>2026-04-09T06:13:00.085Z</time></trkpt><trkpt lat="40.5770033" lon="14.90227"><ele>4.666666666666666</ele><time>2026-04-09T06:13:01.085Z</time></trkpt><trkpt lat="40.5771033" lon="14.90251"><ele>5.333333333333333</ele><time>2026-04-09T06:13:02.085Z</time></trkpt><trkpt lat="40.577215" lon="14.90276"><ele>6.0</ele><time>2026-04-09T06:13:03.085Z</time></trkpt><trkpt lat="40.5773383" lon="14.903015"><ele>6.0</ele><time>2026-04-09T06:13:04.085Z</time></trkpt><trkpt lat="40.5774717" lon="14.9032767"><ele>6.0</ele><time>2026-04-09T06:13:05.085Z</time></trkpt><trkpt lat="40.5776067" lon="14.90355"><ele>6.0</ele><time>2026-04-09T06:13:06.085Z</time></trkpt><trkpt lat="40.5777383" lon="14.903835"><ele>6.0</ele><time>2026-04-09T06:13:07.085Z</time></trkpt><trkpt lat="40.5778717" lon="14.904115"><ele>6.5</ele><time>2026-04-09T06:13:08.085Z</time></trkpt><trkpt lat="40.5779983" lon="14.9043983"><ele>7.0</ele><time>2026-04-09T06:13:09.085Z</time></trkpt><trkpt lat="40.5781267" lon="14.9046817"><ele>7.0</ele><time>2026-04-09T06:13:10.085Z</time></trkpt><trkpt lat="40.578255" lon="14.904965"><ele>7.0</ele><time>2026-04-09T06:13:11.085Z</time></trkpt><trkpt lat="40.5783917" lon="14.9052533"><ele>6.5</ele><time>2026-04-09T06:13:12.085Z</time></trkpt><trkpt lat="40.578525" lon="14.905535"><ele>6.0</ele><time>2026-04-09T06:13:13.085Z</time></trkpt><trkpt lat="40.5786567" lon="14.9058117"><ele>6.5</ele><time>2026-04-09T06:13:14.085Z</time></trkpt><trkpt lat="40.5787883" lon="14.9060883"><ele>7.0</ele><time>2026-04-09T06:13:15.085Z</time></trkpt><trkpt lat="40.5789183" lon="14.9063617"><ele>7.0</ele><time>2026-04-09T06:13:16.085Z</time></trkpt><trkpt lat="40.57904" lon="14.90662"><ele>7.0</ele><time>2026-04-09T06:13:17.085Z</time></trkpt><trkpt lat="40.5791567" lon="14.9068683"><ele>7.0</ele><time>2026-04-09T06:13:18.085Z</time></trkpt><trkpt lat="40.5792617" lon="14.9070933"><ele>7.0</ele><time>2026-04-09T06:13:19.085Z</time></trkpt><trkpt lat="40.5793583" lon="14.9073017"><ele>7.0</ele><time>2026-04-09T06:13:20.085Z</time></trkpt><trkpt lat="40.5794433" lon="14.90748"><ele>7.25</ele><time>2026-04-09T06:13:21.085Z</time></trkpt><trkpt lat="40.5795217" lon="14.9076467"><ele>7.5</ele><time>2026-04-09T06:13:22.085Z</time></trkpt><trkpt lat="40.5795883" lon="14.90779"><ele>7.75</ele><time>2026-04-09T06:13:23.085Z</time></trkpt><trkpt lat="40.579655" lon="14.9079317"><ele>8.0</ele><time>2026-04-09T06:13:24.085Z</time></trkpt><trkpt lat="40.5797217" lon="14.908065"><ele>8.0</ele><time>2026-04-09T06:13:25.085Z</time></trkpt><trkpt lat="40.579795" lon="14.908205"><ele>8.0</ele><time>2026-04-09T06:13:26.085Z</time></trkpt><trkpt lat="40.5798583" lon="14.90835"><ele>8.0</ele><time>2026-04-09T06:13:27.085Z</time></trkpt><trkpt lat="40.579905" lon="14.908475"><ele>8.0</ele><time>2026-04-09T06:13:28.085Z</time></trkpt><trkpt lat="40.579935" lon="14.9085867"><ele>8.166666666666666</ele><time>2026-04-09T06:13:29.085Z</time></trkpt><trkpt lat="40.5799467" lon="14.9087"><ele>8.333333333333332</ele><time>2026-04-09T06:13:30.085Z</time></trkpt><trkpt lat="40.5799683" lon="14.9087967"><ele>8.5</ele><time>2026-04-09T06:13:31.085Z</time></trkpt><trkpt lat="40.5800033" lon="14.90888"><ele>8.666666666666666</ele><time>2026-04-09T06:13:32.085Z</time></trkpt><trkpt lat="40.58007" lon="14.9089467"><ele>8.833333333333334</ele><time>2026-04-09T06:13:33.085Z</time></trkpt><trkpt lat="40.5801533" lon="14.9090283"><ele>9.0</ele><time>2026-04-09T06:13:34.085Z</time></trkpt><trkpt lat="40.580235" lon="14.909145"><ele>9.0</ele><time>2026-04-09T06:13:35.085Z</time></trkpt><trkpt lat="40.5803067" lon="14.9093117"><ele>9.0</ele><time>2026-04-09T06:13:36.085Z</time></trkpt><trkpt lat="40.580385" lon="14.90951"><ele>9.0</ele><time>2026-04-09T06:13:37.085Z</time></trkpt><trkpt lat="40.58047" lon="14.9097017"><ele>9.0</ele><time>2026-04-09T06:13:38.085Z</time></trkpt><trkpt lat="40.5805683" lon="14.9099033"><ele>9.0</ele><time>2026-04-09T06:13:39.085Z</time></trkpt><trkpt lat="40.5806767" lon="14.91012"><ele>9.0</ele><time>2026-04-09T06:13:40.085Z</time></trkpt><trkpt lat="40.5807933" lon="14.9103467"><ele>10.0</ele><time>2026-04-09T06:13:41.085Z</time></trkpt><trkpt lat="40.580915" lon="14.9105667"><ele>11.0</ele><time>2026-04-09T06:13:42.085Z</time></trkpt><trkpt lat="40.581045" lon="14.9107817"><ele>12.0</ele><time>2026-04-09T06:13:43.085Z</time></trkpt><trkpt lat="40.5811817" lon="14.9110067"><ele>12.0</ele><time>2026-04-09T06:13:44.085Z</time></trkpt><trkpt lat="40.5813267" lon="14.91123"><ele>12.0</ele><time>2026-04-09T06:13:45.085Z</time></trkpt><trkpt lat="40.5814733" lon="14.9114667"><ele>12.0</ele><time>2026-04-09T06:13:46.085Z</time></trkpt><trkpt lat="40.5816233" lon="14.9117133"><ele>12.0</ele><time>2026-04-09T06:13:47.085Z</time></trkpt><trkpt lat="40.5817783" lon="14.9119633"><ele>12.0</ele><time>2026-04-09T06:13:48.085Z</time></trkpt><trkpt lat="40.5819317" lon="14.9122117"><ele>12.0</ele><time>2026-04-09T06:13:49.085Z</time></trkpt><trkpt lat="40.58209" lon="14.9124617"><ele>13.0</ele><time>2026-04-09T06:13:50.085Z</time></trkpt><trkpt lat="40.5822517" lon="14.9127217"><ele>14.0</ele><time>2026-04-09T06:13:51.085Z</time></trkpt><trkpt lat="40.5824133" lon="14.912975"><ele>14.0</ele><time>2026-04-09T06:13:52.085Z</time></trkpt><trkpt lat="40.5825717" lon="14.9132267"><ele>14.0</ele><time>2026-04-09T06:13:53.085Z</time></trkpt><trkpt lat="40.582725" lon="14.9134767"><ele>13.5</ele><time>2026-04-09T06:13:54.085Z</time></trkpt><trkpt lat="40.5828817" lon="14.9137217"><ele>13.0</ele><time>2026-04-09T06:13:55.085Z</time></trkpt><trkpt lat="40.583035" lon="14.9139617"><ele>13.0</ele><time>2026-04-09T06:13:56.085Z</time></trkpt><trkpt lat="40.5831883" lon="14.9142017"><ele>13.0</ele><time>2026-04-09T06:13:57.085Z</time></trkpt><trkpt lat="40.58334" lon="14.914435"><ele>13.0</ele><time>2026-04-09T06:13:58.085Z</time></trkpt><trkpt lat="40.5834867" lon="14.9146767"><ele>13.0</ele><time>2026-04-09T06:13:59.085Z</time></trkpt><trkpt lat="40.58363" lon="14.9149133"><ele>13.0</ele><time>2026-04-09T06:14:00.085Z</time></trkpt><trkpt lat="40.58378" lon="14.91515"><ele>13.0</ele><time>2026-04-09T06:14:01.085Z</time></trkpt><trkpt lat="40.5839183" lon="14.9153783"><ele>13.0</ele><time>2026-04-09T06:14:02.085Z</time></trkpt><trkpt lat="40.584055" lon="14.9155967"><ele>13.0</ele><time>2026-04-09T06:14:03.085Z</time></trkpt><trkpt lat="40.5841833" lon="14.9158117"><ele>13.0</ele><time>2026-04-09T06:14:04.085Z</time></trkpt><trkpt lat="40.5843083" lon="14.9160233"><ele>13.333333333333332</ele><time>2026-04-09T06:14:05.085Z</time></trkpt><trkpt lat="40.5844283" lon="14.9162467"><ele>13.666666666666668</ele><time>2026-04-09T06:14:06.085Z</time></trkpt><trkpt lat="40.58454" lon="14.9164783"><ele>14.0</ele><time>2026-04-09T06:14:07.085Z</time></trkpt><trkpt lat="40.5846533" lon="14.9167267"><ele>15.0</ele><time>2026-04-09T06:14:08.085Z</time></trkpt><trkpt lat="40.584765" lon="14.9169833"><ele>16.0</ele><time>2026-04-09T06:14:09.085Z</time></trkpt><trkpt lat="40.5848767" lon="14.9172383"><ele>17.0</ele><time>2026-04-09T06:14:10.085Z</time></trkpt><trkpt lat="40.5849883" lon="14.9174783"><ele>17.0</ele><time>2026-04-09T06:14:11.085Z</time></trkpt><trkpt lat="40.585085" lon="14.9177167"><ele>17.0</ele><time>2026-04-09T06:14:12.085Z</time></trkpt><trkpt lat="40.5851817" lon="14.9179433"><ele>17.0</ele><time>2026-04-09T06:14:13.085Z</time></trkpt><trkpt lat="40.58527" lon="14.91816"><ele>16.666666666666668</ele><time>2026-04-09T06:14:14.085Z</time></trkpt><trkpt lat="40.5853483" lon="14.9183467"><ele>16.333333333333332</ele><time>2026-04-09T06:14:15.085Z</time></trkpt><trkpt lat="40.58543" lon="14.9185283"><ele>16.0</ele><time>2026-04-09T06:14:16.085Z</time></trkpt><trkpt lat="40.58552" lon="14.91873"><ele>16.0</ele><time>2026-04-09T06:14:17.086Z</time></trkpt><trkpt lat="40.58562" lon="14.9189517"><ele>16.0</ele><time>2026-04-09T06:14:18.086Z</time></trkpt><trkpt lat="40.58572" lon="14.9192017"><ele>16.0</ele><time>2026-04-09T06:14:19.086Z</time></trkpt><trkpt lat="40.5858233" lon="14.9194567"><ele>16.333333333333332</ele><time>2026-04-09T06:14:20.086Z</time></trkpt><trkpt lat="40.5859317" lon="14.9197067"><ele>16.666666666666668</ele><time>2026-04-09T06:14:21.086Z</time></trkpt><trkpt lat="40.5860433" lon="14.9199483"><ele>17.0</ele><time>2026-04-09T06:14:22.086Z</time></trkpt><trkpt lat="40.5861483" lon="14.9201833"><ele>16.666666666666668</ele><time>2026-04-09T06:14:23.086Z</time></trkpt><trkpt lat="40.58625" lon="14.9204"><ele>16.333333333333332</ele><time>2026-04-09T06:14:24.086Z</time></trkpt><trkpt lat="40.5863517" lon="14.9206"><ele>16.0</ele><time>2026-04-09T06:14:25.086Z</time></trkpt><trkpt lat="40.5864433" lon="14.920805"><ele>16.666666666666664</ele><time>2026-04-09T06:14:26.086Z</time></trkpt><trkpt lat="40.586535" lon="14.9210317"><ele>17.333333333333332</ele><time>2026-04-09T06:14:27.086Z</time></trkpt><trkpt lat="40.5866167" lon="14.9212717"><ele>18.0</ele><time>2026-04-09T06:14:28.086Z</time></trkpt><trkpt lat="40.586705" lon="14.9215217"><ele>18.0</ele><time>2026-04-09T06:14:29.086Z</time></trkpt><trkpt lat="40.5868" lon="14.9217667"><ele>18.0</ele><time>2026-04-09T06:14:30.086Z</time></trkpt><trkpt lat="40.586905" lon="14.922005"><ele>18.0</ele><time>2026-04-09T06:14:31.086Z</time></trkpt><trkpt lat="40.58701" lon="14.9222317"><ele>18.333333333333332</ele><time>2026-04-09T06:14:32.086Z</time></trkpt><trkpt lat="40.587115" lon="14.9224717"><ele>18.666666666666664</ele><time>2026-04-09T06:14:33.086Z</time></trkpt><trkpt lat="40.5872233" lon="14.92272"><ele>19.0</ele><time>2026-04-09T06:14:34.086Z</time></trkpt><trkpt lat="40.5873267" lon="14.9229583"><ele>19.0</ele><time>2026-04-09T06:14:35.086Z</time></trkpt><trkpt lat="40.5874267" lon="14.9231967"><ele>19.0</ele><time>2026-04-09T06:14:36.086Z</time></trkpt><trkpt lat="40.5875267" lon="14.92343"><ele>19.0</ele><time>2026-04-09T06:14:37.086Z</time></trkpt><trkpt lat="40.587615" lon="14.9236517"><ele>19.0</ele><time>2026-04-09T06:14:38.086Z</time></trkpt><trkpt lat="40.5877083" lon="14.92387"><ele>19.0</ele><time>2026-04-09T06:14:39.086Z</time></trkpt><trkpt lat="40.58781" lon="14.9241067"><ele>19.0</ele><time>2026-04-09T06:14:40.086Z</time></trkpt><trkpt lat="40.5879117" lon="14.924355"><ele>19.333333333333332</ele><time>2026-04-09T06:14:41.086Z</time></trkpt><trkpt lat="40.5880217" lon="14.9246067"><ele>19.666666666666668</ele><time>2026-04-09T06:14:42.086Z</time></trkpt><trkpt lat="40.588135" lon="14.92486"><ele>20.0</ele><time>2026-04-09T06:14:43.086Z</time></trkpt><trkpt lat="40.5882517" lon="14.92513"><ele>20.0</ele><time>2026-04-09T06:14:44.086Z</time></trkpt><trkpt lat="40.5883683" lon="14.9254017"><ele>20.0</ele><time>2026-04-09T06:14:45.086Z</time></trkpt><trkpt lat="40.588485" lon="14.9256733"><ele>19.5</ele><time>2026-04-09T06:14:46.086Z</time></trkpt><trkpt lat="40.5886017" lon="14.9259417"><ele>19.0</ele><time>2026-04-09T06:14:47.086Z</time></trkpt><trkpt lat="40.5887183" lon="14.9262083"><ele>20.5</ele><time>2026-04-09T06:14:48.086Z</time></trkpt><trkpt lat="40.5888317" lon="14.92648"><ele>22.0</ele><time>2026-04-09T06:14:49.086Z</time></trkpt><trkpt lat="40.5889433" lon="14.9267517"><ele>22.0</ele><time>2026-04-09T06:14:50.086Z</time></trkpt><trkpt lat="40.5890617" lon="14.9270333"><ele>22.0</ele><time>2026-04-09T06:14:51.086Z</time></trkpt><trkpt lat="40.5891717" lon="14.9273"><ele>23.0</ele><time>2026-04-09T06:14:52.086Z</time></trkpt><trkpt lat="40.5892883" lon="14.927575"><ele>24.0</ele><time>2026-04-09T06:14:53.086Z</time></trkpt><trkpt lat="40.5894033" lon="14.9278433"><ele>23.0</ele><time>2026-04-09T06:14:54.086Z</time></trkpt><trkpt lat="40.5895183" lon="14.9281233"><ele>22.0</ele><time>2026-04-09T06:14:55.086Z</time></trkpt><trkpt lat="40.589635" lon="14.9283833"><ele>22.333333333333332</ele><time>2026-04-09T06:14:56.086Z</time></trkpt><trkpt lat="40.5897417" lon="14.9286267"><ele>22.666666666666668</ele><time>2026-04-09T06:14:57.086Z</time></trkpt><trkpt lat="40.5898367" lon="14.9288517"><ele>23.0</ele><time>2026-04-09T06:14:58.085Z</time></trkpt><trkpt lat="40.5899367" lon="14.9290683"><ele>23.333333333333336</ele><time>2026-04-09T06:14:59.086Z</time></trkpt><trkpt lat="40.59004" lon="14.9292733"><ele>23.666666666666668</ele><time>2026-04-09T06:15:00.086Z</time></trkpt><trkpt lat="40.59015" lon="14.929465"><ele>24.0</ele><time>2026-04-09T06:15:01.086Z</time></trkpt><trkpt lat="40.5902667" lon="14.9296517"><ele>24.0</ele><time>2026-04-09T06:15:02.086Z</time></trkpt><trkpt lat="40.5903917" lon="14.929835"><ele>24.0</ele><time>2026-04-09T06:15:03.086Z</time></trkpt><trkpt lat="40.5905183" lon="14.9300067"><ele>24.0</ele><time>2026-04-09T06:15:04.086Z</time></trkpt><trkpt lat="40.5906383" lon="14.9301667"><ele>24.333333333333336</ele><time>2026-04-09T06:15:05.086Z</time></trkpt><trkpt lat="40.5907483" lon="14.9303183"><ele>24.666666666666668</ele><time>2026-04-09T06:15:06.086Z</time></trkpt><trkpt lat="40.590855" lon="14.93047"><ele>25.0</ele><time>2026-04-09T06:15:07.086Z</time></trkpt><trkpt lat="40.5909617" lon="14.9306333"><ele>25.0</ele><time>2026-04-09T06:15:08.086Z</time></trkpt><trkpt lat="40.59106" lon="14.9308117"><ele>25.0</ele><time>2026-04-09T06:15:09.086Z</time></trkpt><trkpt lat="40.591155" lon="14.9310133"><ele>25.0</ele><time>2026-04-09T06:15:10.086Z</time></trkpt><trkpt lat="40.59125" lon="14.9312417"><ele>25.0</ele><time>2026-04-09T06:15:11.086Z</time></trkpt><trkpt lat="40.5913467" lon="14.931495"><ele>25.0</ele><time>2026-04-09T06:15:12.086Z</time></trkpt><trkpt lat="40.59144" lon="14.93176"><ele>25.0</ele><time>2026-04-09T06:15:13.086Z</time></trkpt><trkpt lat="40.5915417" lon="14.932015"><ele>25.333333333333336</ele><time>2026-04-09T06:15:14.086Z</time></trkpt><trkpt lat="40.5916383" lon="14.93227"><ele>25.666666666666664</ele><time>2026-04-09T06:15:15.086Z</time></trkpt><trkpt lat="40.591735" lon="14.9325283"><ele>26.0</ele><time>2026-04-09T06:15:16.086Z</time></trkpt><trkpt lat="40.5918267" lon="14.9327833"><ele>26.0</ele><time>2026-04-09T06:15:17.086Z</time></trkpt><trkpt lat="40.591925" lon="14.93303"><ele>26.0</ele><time>2026-04-09T06:15:18.086Z</time></trkpt><trkpt lat="40.5920233" lon="14.933285"><ele>26.0</ele><time>2026-04-09T06:15:19.086Z</time></trkpt><trkpt lat="40.592125" lon="14.9335383"><ele>26.0</ele><time>2026-04-09T06:15:20.086Z</time></trkpt><trkpt lat="40.5922233" lon="14.9337833"><ele>26.0</ele><time>2026-04-09T06:15:21.086Z</time></trkpt><trkpt lat="40.59232" lon="14.9340267"><ele>26.0</ele><time>2026-04-09T06:15:22.086Z</time></trkpt><trkpt lat="40.59242" lon="14.9342783"><ele>26.0</ele><time>2026-04-09T06:15:23.086Z</time></trkpt><trkpt lat="40.5925217" lon="14.93455"><ele>26.0</ele><time>2026-04-09T06:15:24.086Z</time></trkpt><trkpt lat="40.5926333" lon="14.93483"><ele>26.5</ele><time>2026-04-09T06:15:25.086Z</time></trkpt><trkpt lat="40.59274" lon="14.9351267"><ele>27.0</ele><time>2026-04-09T06:15:26.086Z</time></trkpt><trkpt lat="40.592845" lon="14.9354333"><ele>27.0</ele><time>2026-04-09T06:15:27.086Z</time></trkpt><trkpt lat="40.5929567" lon="14.935735"><ele>27.0</ele><time>2026-04-09T06:15:28.086Z</time></trkpt><trkpt lat="40.5930717" lon="14.9360417"><ele>27.5</ele><time>2026-04-09T06:15:29.086Z</time></trkpt><trkpt lat="40.5931867" lon="14.936345"><ele>28.0</ele><time>2026-04-09T06:15:30.086Z</time></trkpt><trkpt lat="40.593305" lon="14.9366617"><ele>28.0</ele><time>2026-04-09T06:15:31.086Z</time></trkpt><trkpt lat="40.5934283" lon="14.9369733"><ele>28.0</ele><time>2026-04-09T06:15:32.086Z</time></trkpt><trkpt lat="40.5935517" lon="14.9372917"><ele>29.0</ele><time>2026-04-09T06:15:33.086Z</time></trkpt><trkpt lat="40.5936733" lon="14.9376117"><ele>30.0</ele><time>2026-04-09T06:15:34.086Z</time></trkpt><trkpt lat="40.593795" lon="14.93793"><ele>30.0</ele><time>2026-04-09T06:15:35.086Z</time></trkpt><trkpt lat="40.5939183" lon="14.9382417"><ele>30.0</ele><time>2026-04-09T06:15:36.086Z</time></trkpt><trkpt lat="40.5940383" lon="14.9385467"><ele>30.0</ele><time>2026-04-09T06:15:37.086Z</time></trkpt><trkpt lat="40.5941517" lon="14.9388483"><ele>30.0</ele><time>2026-04-09T06:15:38.086Z</time></trkpt><trkpt lat="40.5942633" lon="14.939135"><ele>30.0</ele><time>2026-04-09T06:15:39.086Z</time></trkpt><trkpt lat="40.5943633" lon="14.939405"><ele>30.0</ele><time>2026-04-09T06:15:40.086Z</time></trkpt><trkpt lat="40.5944583" lon="14.9396683"><ele>30.0</ele><time>2026-04-09T06:15:41.086Z</time></trkpt><trkpt lat="40.5945633" lon="14.9399333"><ele>32.0</ele><time>2026-04-09T06:15:42.086Z</time></trkpt><trkpt lat="40.5946617" lon="14.9402"><ele>34.0</ele><time>2026-04-09T06:15:43.086Z</time></trkpt><trkpt lat="40.5947683" lon="14.9404667"><ele>34.0</ele><time>2026-04-09T06:15:44.086Z</time></trkpt><trkpt lat="40.594875" lon="14.9407467"><ele>34.0</ele><time>2026-04-09T06:15:45.086Z</time></trkpt><trkpt lat="40.5949833" lon="14.94102"><ele>33.66666666666667</ele><time>2026-04-09T06:15:46.086Z</time></trkpt><trkpt lat="40.595085" lon="14.941285"><ele>33.333333333333336</ele><time>2026-04-09T06:15:47.086Z</time></trkpt><trkpt lat="40.5951767" lon="14.94153"><ele>33.0</ele><time>2026-04-09T06:15:48.086Z</time></trkpt><trkpt lat="40.5952633" lon="14.94176"><ele>33.666666666666664</ele><time>2026-04-09T06:15:49.086Z</time></trkpt><trkpt lat="40.59535" lon="14.94199"><ele>34.33333333333333</ele><time>2026-04-09T06:15:50.086Z</time></trkpt><trkpt lat="40.5954317" lon="14.9422067"><ele>35.0</ele><time>2026-04-09T06:15:51.086Z</time></trkpt><trkpt lat="40.595515" lon="14.9424"><ele>34.666666666666664</ele><time>2026-04-09T06:15:52.086Z</time></trkpt><trkpt lat="40.595585" lon="14.9425917"><ele>34.333333333333336</ele><time>2026-04-09T06:15:53.086Z</time></trkpt><trkpt lat="40.5956483" lon="14.9427683"><ele>34.0</ele><time>2026-04-09T06:15:54.086Z</time></trkpt><trkpt lat="40.5957033" lon="14.94295"><ele>34.0</ele><time>2026-04-09T06:15:55.086Z</time></trkpt><trkpt lat="40.59576" lon="14.9431417"><ele>34.0</ele><time>2026-04-09T06:15:56.086Z</time></trkpt><trkpt lat="40.59581" lon="14.9433533"><ele>34.0</ele><time>2026-04-09T06:15:57.086Z</time></trkpt><trkpt lat="40.5958583" lon="14.9435833"><ele>34.0</ele><time>2026-04-09T06:15:58.086Z</time></trkpt><trkpt lat="40.5959017" lon="14.9438383"><ele>34.0</ele><time>2026-04-09T06:15:59.086Z</time></trkpt><trkpt lat="40.595955" lon="14.9441083"><ele>34.0</ele><time>2026-04-09T06:16:00.086Z</time></trkpt><trkpt lat="40.5960117" lon="14.9443917"><ele>34.0</ele><time>2026-04-09T06:16:01.086Z</time></trkpt><trkpt lat="40.5960633" lon="14.9446617"><ele>34.0</ele><time>2026-04-09T06:16:02.086Z</time></trkpt><trkpt lat="40.5961133" lon="14.944915"><ele>34.0</ele><time>2026-04-09T06:16:03.086Z</time></trkpt><trkpt lat="40.596165" lon="14.9451583"><ele>34.333333333333336</ele><time>2026-04-09T06:16:04.086Z</time></trkpt><trkpt lat="40.596215" lon="14.9453783"><ele>34.666666666666664</ele><time>2026-04-09T06:16:05.086Z</time></trkpt><trkpt lat="40.596255" lon="14.9455717"><ele>35.0</ele><time>2026-04-09T06:16:06.086Z</time></trkpt><trkpt lat="40.596295" lon="14.9457383"><ele>35.0</ele><time>2026-04-09T06:16:07.086Z</time></trkpt><trkpt lat="40.596325" lon="14.9458783"><ele>35.0</ele><time>2026-04-09T06:16:08.086Z</time></trkpt><trkpt lat="40.5963467" lon="14.9459883"><ele>35.0</ele><time>2026-04-09T06:16:09.086Z</time></trkpt><trkpt lat="40.5963683" lon="14.9460733"><ele>35.0</ele><time>2026-04-09T06:16:10.086Z</time></trkpt><trkpt lat="40.5963933" lon="14.946185"><ele>35.0</ele><time>2026-04-09T06:16:12.086Z</time></trkpt><trkpt lat="40.5964233" lon="14.9463167"><ele>35.5</ele><time>2026-04-09T06:16:30.086Z</time></trkpt><trkpt lat="40.5964533" lon="14.94642"><ele>36.0</ele><time>2026-04-09T06:16:31.086Z</time></trkpt><trkpt lat="40.5964833" lon="14.9465317"><ele>36.5</ele><time>2026-04-09T06:16:32.086Z</time></trkpt><trkpt lat="40.59652" lon="14.9466333"><ele>37.0</ele><time>2026-04-09T06:16:33.086Z</time></trkpt><trkpt lat="40.596565" lon="14.9467067"><ele>37.5</ele><time>2026-04-09T06:16:34.086Z</time></trkpt><trkpt lat="40.5966383" lon="14.946735"><ele>38.0</ele><time>2026-04-09T06:16:35.086Z</time></trkpt><trkpt lat="40.5967367" lon="14.9467417"><ele>38.0</ele><time>2026-04-09T06:16:36.086Z</time></trkpt><trkpt lat="40.596855" lon="14.9467267"><ele>38.0</ele><time>2026-04-09T06:16:37.086Z</time></trkpt><trkpt lat="40.5969867" lon="14.9466933"><ele>38.0</ele><time>2026-04-09T06:16:38.086Z</time></trkpt><trkpt lat="40.5971317" lon="14.946645"><ele>38.0</ele><time>2026-04-09T06:16:39.086Z</time></trkpt><trkpt lat="40.59729" lon="14.9466067"><ele>37.5</ele><time>2026-04-09T06:16:40.086Z</time></trkpt><trkpt lat="40.5974433" lon="14.9465567"><ele>37.0</ele><time>2026-04-09T06:16:41.086Z</time></trkpt><trkpt lat="40.5975883" lon="14.9465067"><ele>36.5</ele><time>2026-04-09T06:16:42.086Z</time></trkpt><trkpt lat="40.5977183" lon="14.9464617"><ele>36.0</ele><time>2026-04-09T06:16:43.086Z</time></trkpt><trkpt lat="40.5978333" lon="14.9464233"><ele>35.8</ele><time>2026-04-09T06:16:44.086Z</time></trkpt><trkpt lat="40.5979417" lon="14.9463867"><ele>35.6</ele><time>2026-04-09T06:16:45.086Z</time></trkpt><trkpt lat="40.5980383" lon="14.9463567"><ele>35.4</ele><time>2026-04-09T06:16:46.086Z</time></trkpt><trkpt lat="40.5981267" lon="14.9463267"><ele>35.2</ele><time>2026-04-09T06:16:47.086Z</time></trkpt><trkpt lat="40.5981967" lon="14.9462983"><ele>35.0</ele><time>2026-04-09T06:16:48.086Z</time></trkpt><trkpt lat="40.598265" lon="14.94626"><ele>35.0</ele><time>2026-04-09T06:16:49.086Z</time></trkpt><trkpt lat="40.59835" lon="14.946225"><ele>35.0</ele><time>2026-04-09T06:16:50.086Z</time></trkpt><trkpt lat="40.5984267" lon="14.9461983"><ele>35.0</ele><time>2026-04-09T06:16:51.086Z</time></trkpt><trkpt lat="40.5984983" lon="14.94618"><ele>35.0</ele><time>2026-04-09T06:16:52.086Z</time></trkpt><trkpt lat="40.598565" lon="14.9461633"><ele>35.0</ele><time>2026-04-09T06:16:53.086Z</time></trkpt><trkpt lat="40.5986817" lon="14.9461333"><ele>35.0</ele><time>2026-04-09T06:16:55.086Z</time></trkpt><trkpt lat="40.5988" lon="14.9461033"><ele>35.0</ele><time>2026-04-09T06:16:57.086Z</time></trkpt><trkpt lat="40.5989133" lon="14.9460667"><ele>35.0</ele><time>2026-04-09T06:16:59.086Z</time></trkpt><trkpt lat="40.5989767" lon="14.9460533"><ele>35.0</ele><time>2026-04-09T06:17:00.086Z</time></trkpt><trkpt lat="40.599045" lon="14.9460267"><ele>35.0</ele><time>2026-04-09T06:17:01.086Z</time></trkpt><trkpt lat="40.5991267" lon="14.946"><ele>35.0</ele><time>2026-04-09T06:17:02.086Z</time></trkpt><trkpt lat="40.5992117" lon="14.9459683"><ele>35.0</ele><time>2026-04-09T06:17:03.086Z</time></trkpt><trkpt lat="40.5992933" lon="14.9459317"><ele>35.0</ele><time>2026-04-09T06:17:04.086Z</time></trkpt><trkpt lat="40.5993883" lon="14.9459017"><ele>35.0</ele><time>2026-04-09T06:17:05.086Z</time></trkpt><trkpt lat="40.59948" lon="14.9458733"><ele>35.0</ele><time>2026-04-09T06:17:06.086Z</time></trkpt><trkpt lat="40.599565" lon="14.9458383"><ele>35.0</ele><time>2026-04-09T06:17:07.086Z</time></trkpt><trkpt lat="40.5996517" lon="14.94581"><ele>35.0</ele><time>2026-04-09T06:17:08.086Z</time></trkpt><trkpt lat="40.59974" lon="14.94578"><ele>35.2</ele><time>2026-04-09T06:17:09.086Z</time></trkpt><trkpt lat="40.5998333" lon="14.9457533"><ele>35.4</ele><time>2026-04-09T06:17:10.086Z</time></trkpt><trkpt lat="40.59993" lon="14.94572"><ele>35.6</ele><time>2026-04-09T06:17:11.086Z</time></trkpt><trkpt lat="40.600025" lon="14.9456833"><ele>35.8</ele><time>2026-04-09T06:17:12.086Z</time></trkpt><trkpt lat="40.6001133" lon="14.9456467"><ele>36.0</ele><time>2026-04-09T06:17:13.086Z</time></trkpt><trkpt lat="40.6001917" lon="14.945615"><ele>36.00000000000001</ele><time>2026-04-09T06:17:14.086Z</time></trkpt><trkpt lat="40.6002667" lon="14.945585"><ele>36.0</ele><time>2026-04-09T06:17:15.086Z</time></trkpt><trkpt lat="40.6003417" lon="14.9455583"><ele>36.0</ele><time>2026-04-09T06:17:16.086Z</time></trkpt><trkpt lat="40.60042" lon="14.9455267"><ele>36.0</ele><time>2026-04-09T06:17:17.086Z</time></trkpt><trkpt lat="40.60049" lon="14.94549"><ele>36.0</ele><time>2026-04-09T06:17:18.086Z</time></trkpt><trkpt lat="40.60055" lon="14.9454567"><ele>36.00000000000001</ele><time>2026-04-09T06:17:19.086Z</time></trkpt><trkpt lat="40.6006133" lon="14.9454283"><ele>36.0</ele><time>2026-04-09T06:17:20.086Z</time></trkpt><trkpt lat="40.600685" lon="14.9453967"><ele>36.2</ele><time>2026-04-09T06:17:21.086Z</time></trkpt><trkpt lat="40.60077" lon="14.9453717"><ele>36.400000000000006</ele><time>2026-04-09T06:17:22.086Z</time></trkpt><trkpt lat="40.600855" lon="14.9453667"><ele>36.6</ele><time>2026-04-09T06:17:23.086Z</time></trkpt><trkpt lat="40.6009367" lon="14.945395"><ele>36.800000000000004</ele><time>2026-04-09T06:17:24.086Z</time></trkpt><trkpt lat="40.6010183" lon="14.945455"><ele>37.0</ele><time>2026-04-09T06:17:25.086Z</time></trkpt><trkpt lat="40.6010917" lon="14.945555"><ele>37.0</ele><time>2026-04-09T06:17:26.086Z</time></trkpt><trkpt lat="40.601165" lon="14.9456917"><ele>37.0</ele><time>2026-04-09T06:17:27.086Z</time></trkpt><trkpt lat="40.6012317" lon="14.945855"><ele>37.0</ele><time>2026-04-09T06:17:28.086Z</time></trkpt><trkpt lat="40.6013" lon="14.94601"><ele>37.0</ele><time>2026-04-09T06:17:29.086Z</time></trkpt><trkpt lat="40.6013717" lon="14.9461567"><ele>38.0</ele><time>2026-04-09T06:17:30.086Z</time></trkpt><trkpt lat="40.6014433" lon="14.94629"><ele>39.0</ele><time>2026-04-09T06:17:31.086Z</time></trkpt><trkpt lat="40.6015117" lon="14.9464183"><ele>40.0</ele><time>2026-04-09T06:17:32.086Z</time></trkpt><trkpt lat="40.601585" lon="14.9465483"><ele>41.0</ele><time>2026-04-09T06:17:33.086Z</time></trkpt><trkpt lat="40.6016517" lon="14.9466917"><ele>40.666666666666664</ele><time>2026-04-09T06:17:34.086Z</time></trkpt><trkpt lat="40.6017267" lon="14.9468567"><ele>40.333333333333336</ele><time>2026-04-09T06:17:35.086Z</time></trkpt><trkpt lat="40.6018017" lon="14.94703"><ele>40.0</ele><time>2026-04-09T06:17:36.086Z</time></trkpt><trkpt lat="40.601875" lon="14.9472133"><ele>40.0</ele><time>2026-04-09T06:17:37.086Z</time></trkpt><trkpt lat="40.6019633" lon="14.9474033"><ele>40.0</ele><time>2026-04-09T06:17:38.086Z</time></trkpt><trkpt lat="40.6020567" lon="14.9476033"><ele>40.0</ele><time>2026-04-09T06:17:39.086Z</time></trkpt><trkpt lat="40.60215" lon="14.9478133"><ele>39.66666666666667</ele><time>2026-04-09T06:17:40.086Z</time></trkpt><trkpt lat="40.6022467" lon="14.9480317"><ele>39.333333333333336</ele><time>2026-04-09T06:17:41.086Z</time></trkpt><trkpt lat="40.6023467" lon="14.94826"><ele>39.0</ele><time>2026-04-09T06:17:42.086Z</time></trkpt><trkpt lat="40.6024483" lon="14.9484917"><ele>39.666666666666664</ele><time>2026-04-09T06:17:43.086Z</time></trkpt><trkpt lat="40.6025533" lon="14.9487233"><ele>40.33333333333333</ele><time>2026-04-09T06:17:44.086Z</time></trkpt><trkpt lat="40.6026567" lon="14.9489517"><ele>41.0</ele><time>2026-04-09T06:17:45.086Z</time></trkpt><trkpt lat="40.602755" lon="14.9491733"><ele>41.0</ele><time>2026-04-09T06:17:46.086Z</time></trkpt><trkpt lat="40.6028533" lon="14.9493917"><ele>41.0</ele><time>2026-04-09T06:17:47.086Z</time></trkpt><trkpt lat="40.6029533" lon="14.949615"><ele>41.0</ele><time>2026-04-09T06:17:48.086Z</time></trkpt><trkpt lat="40.6030483" lon="14.949835"><ele>41.0</ele><time>2026-04-09T06:17:49.086Z</time></trkpt><trkpt lat="40.60314" lon="14.9500367"><ele>41.0</ele><time>2026-04-09T06:17:50.086Z</time></trkpt><trkpt lat="40.6032217" lon="14.9502183"><ele>41.0</ele><time>2026-04-09T06:17:51.086Z</time></trkpt><trkpt lat="40.6032917" lon="14.950385"><ele>41.0</ele><time>2026-04-09T06:17:52.086Z</time></trkpt><trkpt lat="40.6033567" lon="14.95054"><ele>41.0</ele><time>2026-04-09T06:17:53.086Z</time></trkpt><trkpt lat="40.6034283" lon="14.9506783"><ele>41.0</ele><time>2026-04-09T06:17:54.086Z</time></trkpt><trkpt lat="40.6035083" lon="14.9508033"><ele>41.0</ele><time>2026-04-09T06:17:55.086Z</time></trkpt><trkpt lat="40.6036067" lon="14.9509133"><ele>41.75</ele><time>2026-04-09T06:17:56.086Z</time></trkpt><trkpt lat="40.6037183" lon="14.9510117"><ele>42.5</ele><time>2026-04-09T06:17:57.086Z</time></trkpt><trkpt lat="40.6038433" lon="14.9511133"><ele>43.25</ele><time>2026-04-09T06:17:58.086Z</time></trkpt><trkpt lat="40.6039767" lon="14.951225"><ele>44.0</ele><time>2026-04-09T06:17:59.086Z</time></trkpt><trkpt lat="40.6041167" lon="14.9513433"><ele>44.0</ele><time>2026-04-09T06:18:00.086Z</time></trkpt><trkpt lat="40.6042667" lon="14.951475"><ele>44.0</ele><time>2026-04-09T06:18:01.086Z</time></trkpt><trkpt lat="40.604425" lon="14.95161"><ele>44.0</ele><time>2026-04-09T06:18:02.086Z</time></trkpt><trkpt lat="40.6045817" lon="14.95175"><ele>44.33333333333333</ele><time>2026-04-09T06:18:03.086Z</time></trkpt><trkpt lat="40.6047383" lon="14.9518783"><ele>44.666666666666664</ele><time>2026-04-09T06:18:04.086Z</time></trkpt><trkpt lat="40.6048883" lon="14.9520067"><ele>45.0</ele><time>2026-04-09T06:18:05.086Z</time></trkpt><trkpt lat="40.6050417" lon="14.9521283"><ele>45.0</ele><time>2026-04-09T06:18:06.086Z</time></trkpt><trkpt lat="40.6052083" lon="14.9522583"><ele>45.0</ele><time>2026-04-09T06:18:07.086Z</time></trkpt><trkpt lat="40.6053883" lon="14.9524"><ele>45.0</ele><time>2026-04-09T06:18:08.086Z</time></trkpt><trkpt lat="40.6055667" lon="14.95254"><ele>45.0</ele><time>2026-04-09T06:18:09.086Z</time></trkpt><trkpt lat="40.605735" lon="14.9526767"><ele>45.0</ele><time>2026-04-09T06:18:10.086Z</time></trkpt><trkpt lat="40.6059067" lon="14.9528067"><ele>45.0</ele><time>2026-04-09T06:18:11.086Z</time></trkpt><trkpt lat="40.6060833" lon="14.95294"><ele>45.333333333333336</ele><time>2026-04-09T06:18:12.086Z</time></trkpt><trkpt lat="40.6062617" lon="14.953075"><ele>45.66666666666667</ele><time>2026-04-09T06:18:13.086Z</time></trkpt><trkpt lat="40.6064317" lon="14.9532033"><ele>46.0</ele><time>2026-04-09T06:18:14.086Z</time></trkpt><trkpt lat="40.60659" lon="14.953325"><ele>46.333333333333336</ele><time>2026-04-09T06:18:15.086Z</time></trkpt><trkpt lat="40.6067433" lon="14.9534383"><ele>46.666666666666664</ele><time>2026-04-09T06:18:16.086Z</time></trkpt><trkpt lat="40.6068917" lon="14.9535483"><ele>47.0</ele><time>2026-04-09T06:18:17.086Z</time></trkpt><trkpt lat="40.6070333" lon="14.9536583"><ele>47.0</ele><time>2026-04-09T06:18:18.086Z</time></trkpt><trkpt lat="40.60717" lon="14.9537567"><ele>47.0</ele><time>2026-04-09T06:18:19.086Z</time></trkpt><trkpt lat="40.6073117" lon="14.9538617"><ele>47.0</ele><time>2026-04-09T06:18:20.086Z</time></trkpt><trkpt lat="40.6074517" lon="14.953965"><ele>47.0</ele><time>2026-04-09T06:18:21.086Z</time></trkpt><trkpt lat="40.6075967" lon="14.9540667"><ele>47.0</ele><time>2026-04-09T06:18:22.086Z</time></trkpt><trkpt lat="40.60774" lon="14.9541717"><ele>47.0</ele><time>2026-04-09T06:18:23.086Z</time></trkpt><trkpt lat="40.6078867" lon="14.9542767"><ele>47.33333333333333</ele><time>2026-04-09T06:18:24.086Z</time></trkpt><trkpt lat="40.6080383" lon="14.9543817"><ele>47.666666666666664</ele><time>2026-04-09T06:18:25.086Z</time></trkpt><trkpt lat="40.608185" lon="14.9545033"><ele>48.0</ele><time>2026-04-09T06:18:26.086Z</time></trkpt><trkpt lat="40.6083283" lon="14.954625"><ele>48.0</ele><time>2026-04-09T06:18:27.086Z</time></trkpt><trkpt lat="40.6084667" lon="14.9547483"><ele>48.0</ele><time>2026-04-09T06:18:28.086Z</time></trkpt><trkpt lat="40.6086" lon="14.95487"><ele>48.0</ele><time>2026-04-09T06:18:29.086Z</time></trkpt><trkpt lat="40.6087317" lon="14.9549967"><ele>48.25</ele><time>2026-04-09T06:18:30.086Z</time></trkpt><trkpt lat="40.6088517" lon="14.9551167"><ele>48.5</ele><time>2026-04-09T06:18:31.086Z</time></trkpt><trkpt lat="40.6089667" lon="14.9552233"><ele>48.75</ele><time>2026-04-09T06:18:32.086Z</time></trkpt><trkpt lat="40.60907" lon="14.9553233"><ele>49.0</ele><time>2026-04-09T06:18:33.086Z</time></trkpt><trkpt lat="40.60916" lon="14.955425"><ele>49.0</ele><time>2026-04-09T06:18:34.086Z</time></trkpt><trkpt lat="40.6092467" lon="14.9555367"><ele>49.0</ele><time>2026-04-09T06:18:35.086Z</time></trkpt><trkpt lat="40.609325" lon="14.9556533"><ele>49.0</ele><time>2026-04-09T06:18:36.086Z</time></trkpt><trkpt lat="40.6093917" lon="14.9557733"><ele>49.0</ele><time>2026-04-09T06:18:37.086Z</time></trkpt><trkpt lat="40.6094367" lon="14.9559017"><ele>49.0</ele><time>2026-04-09T06:18:38.086Z</time></trkpt><trkpt lat="40.6094733" lon="14.95605"><ele>49.0</ele><time>2026-04-09T06:18:39.086Z</time></trkpt><trkpt lat="40.6095" lon="14.9562267"><ele>49.0</ele><time>2026-04-09T06:18:40.086Z</time></trkpt><trkpt lat="40.6095217" lon="14.95642"><ele>49.0</ele><time>2026-04-09T06:18:41.086Z</time></trkpt><trkpt lat="40.6095517" lon="14.9566117"><ele>49.0</ele><time>2026-04-09T06:18:42.086Z</time></trkpt><trkpt lat="40.6095883" lon="14.9568033"><ele>49.0</ele><time>2026-04-09T06:18:43.086Z</time></trkpt><trkpt lat="40.60963" lon="14.9569917"><ele>49.0</ele><time>2026-04-09T06:18:44.086Z</time></trkpt><trkpt lat="40.60968" lon="14.9571633"><ele>49.0</ele><time>2026-04-09T06:18:45.086Z</time></trkpt><trkpt lat="40.60975" lon="14.95733"><ele>49.0</ele><time>2026-04-09T06:18:46.086Z</time></trkpt><trkpt lat="40.6098267" lon="14.9575"><ele>49.0</ele><time>2026-04-09T06:18:47.086Z</time></trkpt><trkpt lat="40.6099183" lon="14.9576767"><ele>49.0</ele><time>2026-04-09T06:18:48.086Z</time></trkpt><trkpt lat="40.61002" lon="14.9578533"><ele>49.33333333333333</ele><time>2026-04-09T06:18:49.086Z</time></trkpt><trkpt lat="40.6101167" lon="14.9580283"><ele>49.66666666666667</ele><time>2026-04-09T06:18:50.086Z</time></trkpt><trkpt lat="40.6102083" lon="14.958195"><ele>50.0</ele><time>2026-04-09T06:18:51.086Z</time></trkpt><trkpt lat="40.6102917" lon="14.958355"><ele>50.5</ele><time>2026-04-09T06:18:52.086Z</time></trkpt><trkpt lat="40.6103667" lon="14.95851"><ele>51.0</ele><time>2026-04-09T06:18:53.086Z</time></trkpt><trkpt lat="40.6104317" lon="14.9586717"><ele>51.5</ele><time>2026-04-09T06:18:54.086Z</time></trkpt><trkpt lat="40.610485" lon="14.958845"><ele>52.0</ele><time>2026-04-09T06:18:55.086Z</time></trkpt><trkpt lat="40.6105333" lon="14.9590283"><ele>51.666666666666664</ele><time>2026-04-09T06:18:56.086Z</time></trkpt><trkpt lat="40.6105733" lon="14.959215"><ele>51.33333333333333</ele><time>2026-04-09T06:18:57.086Z</time></trkpt><trkpt lat="40.6106017" lon="14.9594167"><ele>51.0</ele><time>2026-04-09T06:18:58.086Z</time></trkpt><trkpt lat="40.6106183" lon="14.9596367"><ele>51.0</ele><time>2026-04-09T06:18:59.086Z</time></trkpt><trkpt lat="40.6106333" lon="14.9598517"><ele>51.0</ele><time>2026-04-09T06:19:00.086Z</time></trkpt><trkpt lat="40.6106517" lon="14.9600683"><ele>51.0</ele><time>2026-04-09T06:19:01.086Z</time></trkpt><trkpt lat="40.6106683" lon="14.9602817"><ele>51.5</ele><time>2026-04-09T06:19:02.086Z</time></trkpt><trkpt lat="40.6106883" lon="14.9604867"><ele>52.0</ele><time>2026-04-09T06:19:03.086Z</time></trkpt><trkpt lat="40.6107017" lon="14.9606833"><ele>52.5</ele><time>2026-04-09T06:19:04.086Z</time></trkpt><trkpt lat="40.6107133" lon="14.96086"><ele>53.0</ele><time>2026-04-09T06:19:05.086Z</time></trkpt><trkpt lat="40.6107217" lon="14.9610467"><ele>53.0</ele><time>2026-04-09T06:19:06.086Z</time></trkpt><trkpt lat="40.6107167" lon="14.9612383"><ele>53.0</ele><time>2026-04-09T06:19:07.086Z</time></trkpt><trkpt lat="40.610715" lon="14.9614317"><ele>53.0</ele><time>2026-04-09T06:19:08.086Z</time></trkpt><trkpt lat="40.610705" lon="14.9616167"><ele>53.0</ele><time>2026-04-09T06:19:09.086Z</time></trkpt><trkpt lat="40.610695" lon="14.9618067"><ele>53.0</ele><time>2026-04-09T06:19:10.086Z</time></trkpt><trkpt lat="40.6106867" lon="14.962"><ele>53.0</ele><time>2026-04-09T06:19:11.086Z</time></trkpt><trkpt lat="40.6106767" lon="14.96219"><ele>53.0</ele><time>2026-04-09T06:19:12.086Z</time></trkpt><trkpt lat="40.6106717" lon="14.9623733"><ele>53.0</ele><time>2026-04-09T06:19:13.086Z</time></trkpt><trkpt lat="40.610665" lon="14.9625317"><ele>52.8</ele><time>2026-04-09T06:19:14.086Z</time></trkpt><trkpt lat="40.610665" lon="14.9626667"><ele>52.599999999999994</ele><time>2026-04-09T06:19:15.086Z</time></trkpt><trkpt lat="40.610665" lon="14.9627917"><ele>52.400000000000006</ele><time>2026-04-09T06:19:16.086Z</time></trkpt><trkpt lat="40.6106583" lon="14.9629017"><ele>52.2</ele><time>2026-04-09T06:19:17.086Z</time></trkpt><trkpt lat="40.6107067" lon="14.963035"><ele>52.0</ele><time>2026-04-09T06:19:19.086Z</time></trkpt><trkpt lat="40.6107683" lon="14.9630633"><ele>52.0</ele><time>2026-04-09T06:19:20.086Z</time></trkpt><trkpt lat="40.6108633" lon="14.9630717"><ele>52.0</ele><time>2026-04-09T06:19:21.086Z</time></trkpt><trkpt lat="40.610975" lon="14.9630967"><ele>52.0</ele><time>2026-04-09T06:19:22.086Z</time></trkpt><trkpt lat="40.6111133" lon="14.963145"><ele>52.0</ele><time>2026-04-09T06:19:23.086Z</time></trkpt><trkpt lat="40.6112667" lon="14.9632183"><ele>52.33333333333333</ele><time>2026-04-09T06:19:24.086Z</time></trkpt><trkpt lat="40.6114333" lon="14.9632933"><ele>52.66666666666667</ele><time>2026-04-09T06:19:25.086Z</time></trkpt><trkpt lat="40.6116" lon="14.9633767"><ele>53.0</ele><time>2026-04-09T06:19:26.086Z</time></trkpt><trkpt lat="40.6117733" lon="14.9634483"><ele>53.66666666666667</ele><time>2026-04-09T06:19:27.086Z</time></trkpt><trkpt lat="40.6119317" lon="14.9635267"><ele>54.33333333333333</ele><time>2026-04-09T06:19:28.086Z</time></trkpt><trkpt lat="40.6120967" lon="14.9636133"><ele>55.0</ele><time>2026-04-09T06:19:29.086Z</time></trkpt><trkpt lat="40.6122567" lon="14.9637017"><ele>55.0</ele><time>2026-04-09T06:19:30.086Z</time></trkpt><trkpt lat="40.6124" lon="14.9637833"><ele>55.0</ele><time>2026-04-09T06:19:31.086Z</time></trkpt><trkpt lat="40.6125333" lon="14.9638617"><ele>55.0</ele><time>2026-04-09T06:19:32.086Z</time></trkpt><trkpt lat="40.612655" lon="14.963955"><ele>55.0</ele><time>2026-04-09T06:19:33.086Z</time></trkpt><trkpt lat="40.6127567" lon="14.9640317"><ele>55.2</ele><time>2026-04-09T06:19:34.086Z</time></trkpt><trkpt lat="40.6128417" lon="14.9641033"><ele>55.4</ele><time>2026-04-09T06:19:35.086Z</time></trkpt><trkpt lat="40.6129183" lon="14.9641817"><ele>55.599999999999994</ele><time>2026-04-09T06:19:36.086Z</time></trkpt><trkpt lat="40.6130067" lon="14.964275"><ele>55.8</ele><time>2026-04-09T06:19:37.086Z</time></trkpt><trkpt lat="40.6130983" lon="14.96439"><ele>56.0</ele><time>2026-04-09T06:19:38.086Z</time></trkpt><trkpt lat="40.613185" lon="14.9645267"><ele>56.0</ele><time>2026-04-09T06:19:39.086Z</time></trkpt><trkpt lat="40.6132383" lon="14.96468"><ele>56.0</ele><time>2026-04-09T06:19:40.086Z</time></trkpt><trkpt lat="40.6132583" lon="14.9648333"><ele>56.0</ele><time>2026-04-09T06:19:41.086Z</time></trkpt><trkpt lat="40.6132483" lon="14.9649917"><ele>56.0</ele><time>2026-04-09T06:19:42.086Z</time></trkpt><trkpt lat="40.6132083" lon="14.96515"><ele>56.333333333333336</ele><time>2026-04-09T06:19:43.086Z</time></trkpt><trkpt lat="40.61315" lon="14.9653117"><ele>56.66666666666667</ele><time>2026-04-09T06:19:44.086Z</time></trkpt><trkpt lat="40.6130617" lon="14.965475"><ele>57.0</ele><time>2026-04-09T06:19:45.086Z</time></trkpt><trkpt lat="40.6129483" lon="14.9656417"><ele>57.33333333333333</ele><time>2026-04-09T06:19:46.086Z</time></trkpt><trkpt lat="40.612815" lon="14.965815"><ele>57.666666666666664</ele><time>2026-04-09T06:19:47.086Z</time></trkpt><trkpt lat="40.612675" lon="14.9660017"><ele>58.0</ele><time>2026-04-09T06:19:48.086Z</time></trkpt><trkpt lat="40.6125367" lon="14.9661767"><ele>58.0</ele><time>2026-04-09T06:19:49.086Z</time></trkpt><trkpt lat="40.612395" lon="14.9663267"><ele>58.0</ele><time>2026-04-09T06:19:50.086Z</time></trkpt><trkpt lat="40.612255" lon="14.96645"><ele>58.0</ele><time>2026-04-09T06:19:51.086Z</time></trkpt><trkpt lat="40.6121317" lon="14.966555"><ele>58.0</ele><time>2026-04-09T06:19:52.086Z</time></trkpt><trkpt lat="40.6120217" lon="14.966655"><ele>58.0</ele><time>2026-04-09T06:19:53.086Z</time></trkpt><trkpt lat="40.6119333" lon="14.966755"><ele>58.0</ele><time>2026-04-09T06:19:54.086Z</time></trkpt><trkpt lat="40.6118667" lon="14.9668617"><ele>58.0</ele><time>2026-04-09T06:19:55.086Z</time></trkpt><trkpt lat="40.61183" lon="14.966985"><ele>58.0</ele><time>2026-04-09T06:19:56.086Z</time></trkpt><trkpt lat="40.6118133" lon="14.9671267"><ele>58.0</ele><time>2026-04-09T06:19:57.086Z</time></trkpt><trkpt lat="40.6118083" lon="14.96728"><ele>58.0</ele><time>2026-04-09T06:19:58.086Z</time></trkpt><trkpt lat="40.61182" lon="14.967445"><ele>58.0</ele><time>2026-04-09T06:19:59.086Z</time></trkpt><trkpt lat="40.611835" lon="14.96762"><ele>58.0</ele><time>2026-04-09T06:20:00.086Z</time></trkpt><trkpt lat="40.61185" lon="14.9677967"><ele>58.0</ele><time>2026-04-09T06:20:01.086Z</time></trkpt><trkpt lat="40.6118667" lon="14.96796"><ele>58.0</ele><time>2026-04-09T06:20:02.086Z</time></trkpt><trkpt lat="40.6118767" lon="14.9680983"><ele>58.0</ele><time>2026-04-09T06:20:03.086Z</time></trkpt><trkpt lat="40.6118817" lon="14.968215"><ele>58.0</ele><time>2026-04-09T06:20:04.086Z</time></trkpt><trkpt lat="40.6118967" lon="14.96832"><ele>58.0</ele><time>2026-04-09T06:20:05.086Z</time></trkpt><trkpt lat="40.6119333" lon="14.9684133"><ele>58.0</ele><time>2026-04-09T06:20:06.086Z</time></trkpt><trkpt lat="40.61199" lon="14.968495"><ele>58.0</ele><time>2026-04-09T06:20:07.086Z</time></trkpt><trkpt lat="40.6120767" lon="14.9685817"><ele>58.0</ele><time>2026-04-09T06:20:08.086Z</time></trkpt><trkpt lat="40.6121867" lon="14.9686767"><ele>58.5</ele><time>2026-04-09T06:20:09.086Z</time></trkpt><trkpt lat="40.6123017" lon="14.968785"><ele>59.0</ele><time>2026-04-09T06:20:10.086Z</time></trkpt><trkpt lat="40.612415" lon="14.9688883"><ele>59.5</ele><time>2026-04-09T06:20:11.086Z</time></trkpt><trkpt lat="40.61253" lon="14.9689883"><ele>60.0</ele><time>2026-04-09T06:20:12.086Z</time></trkpt><trkpt lat="40.6126433" lon="14.969085"><ele>60.0</ele><time>2026-04-09T06:20:13.086Z</time></trkpt><trkpt lat="40.6127617" lon="14.969185"><ele>60.0</ele><time>2026-04-09T06:20:14.086Z</time></trkpt><trkpt lat="40.6128667" lon="14.9692883"><ele>60.0</ele><time>2026-04-09T06:20:15.086Z</time></trkpt><trkpt lat="40.61297" lon="14.9693867"><ele>60.0</ele><time>2026-04-09T06:20:16.086Z</time></trkpt><trkpt lat="40.6130633" lon="14.9694817"><ele>60.4</ele><time>2026-04-09T06:20:17.086Z</time></trkpt><trkpt lat="40.6131467" lon="14.96957"><ele>60.8</ele><time>2026-04-09T06:20:18.086Z</time></trkpt><trkpt lat="40.6132267" lon="14.9696567"><ele>61.2</ele><time>2026-04-09T06:20:19.086Z</time></trkpt><trkpt lat="40.613305" lon="14.9697383"><ele>61.6</ele><time>2026-04-09T06:20:20.086Z</time></trkpt><trkpt lat="40.6133717" lon="14.9698217"><ele>62.0</ele><time>2026-04-09T06:20:21.086Z</time></trkpt><trkpt lat="40.6134217" lon="14.9699033"><ele>62.00000000000001</ele><time>2026-04-09T06:20:22.086Z</time></trkpt><trkpt lat="40.6134567" lon="14.9699967"><ele>62.0</ele><time>2026-04-09T06:20:23.086Z</time></trkpt><trkpt lat="40.61347" lon="14.9700833"><ele>62.0</ele><time>2026-04-09T06:20:24.086Z</time></trkpt><trkpt lat="40.6134667" lon="14.9702333"><ele>62.0</ele><time>2026-04-09T06:20:26.086Z</time></trkpt><trkpt lat="40.613445" lon="14.9703117"><ele>62.00000000000001</ele><time>2026-04-09T06:20:27.086Z</time></trkpt><trkpt lat="40.61342" lon="14.97039"><ele>62.0</ele><time>2026-04-09T06:20:28.086Z</time></trkpt><trkpt lat="40.6133933" lon="14.9704667"><ele>61.833333333333336</ele><time>2026-04-09T06:20:29.086Z</time></trkpt><trkpt lat="40.61337" lon="14.97055"><ele>61.66666666666667</ele><time>2026-04-09T06:20:30.086Z</time></trkpt><trkpt lat="40.6133433" lon="14.9706467"><ele>61.5</ele><time>2026-04-09T06:20:31.086Z</time></trkpt><trkpt lat="40.61331" lon="14.970755"><ele>61.33333333333333</ele><time>2026-04-09T06:20:32.086Z</time></trkpt><trkpt lat="40.6132683" lon="14.9708667"><ele>61.166666666666664</ele><time>2026-04-09T06:20:33.086Z</time></trkpt><trkpt lat="40.613225" lon="14.9709817"><ele>61.0</ele><time>2026-04-09T06:20:34.086Z</time></trkpt><trkpt lat="40.6131833" lon="14.9711117"><ele>61.0</ele><time>2026-04-09T06:20:35.086Z</time></trkpt><trkpt lat="40.6131333" lon="14.971275"><ele>61.0</ele><time>2026-04-09T06:20:36.086Z</time></trkpt><trkpt lat="40.61307" lon="14.9714567"><ele>61.0</ele><time>2026-04-09T06:20:37.086Z</time></trkpt><trkpt lat="40.6130067" lon="14.971645"><ele>61.0</ele><time>2026-04-09T06:20:38.086Z</time></trkpt><trkpt lat="40.612965" lon="14.9718217"><ele>61.5</ele><time>2026-04-09T06:20:39.086Z</time></trkpt><trkpt lat="40.612925" lon="14.971985"><ele>62.0</ele><time>2026-04-09T06:20:40.086Z</time></trkpt><trkpt lat="40.6128933" lon="14.97214"><ele>62.5</ele><time>2026-04-09T06:20:41.086Z</time></trkpt><trkpt lat="40.6128633" lon="14.9722883"><ele>63.0</ele><time>2026-04-09T06:20:42.086Z</time></trkpt><trkpt lat="40.6128483" lon="14.9724283"><ele>63.333333333333336</ele><time>2026-04-09T06:20:43.086Z</time></trkpt><trkpt lat="40.6128433" lon="14.9725383"><ele>63.66666666666667</ele><time>2026-04-09T06:20:44.086Z</time></trkpt><trkpt lat="40.612855" lon="14.9726833"><ele>64.0</ele><time>2026-04-09T06:20:46.086Z</time></trkpt><trkpt lat="40.612885" lon="14.9727583"><ele>64.33333333333334</ele><time>2026-04-09T06:20:48.086Z</time></trkpt><trkpt lat="40.612935" lon="14.9728417"><ele>64.66666666666667</ele><time>2026-04-09T06:20:51.086Z</time></trkpt><trkpt lat="40.6130067" lon="14.972925"><ele>65.0</ele><time>2026-04-09T06:20:53.086Z</time></trkpt><trkpt lat="40.6131117" lon="14.973005"><ele>65.0</ele><time>2026-04-09T06:20:55.086Z</time></trkpt><trkpt lat="40.613175" lon="14.9730267"><ele>65.0</ele><time>2026-04-09T06:20:56.086Z</time></trkpt><trkpt lat="40.613245" lon="14.97303"><ele>65.0</ele><time>2026-04-09T06:20:57.086Z</time></trkpt><trkpt lat="40.61331" lon="14.9730167"><ele>65.0</ele><time>2026-04-09T06:20:58.086Z</time></trkpt><trkpt lat="40.613415" lon="14.972965"><ele>65.0</ele><time>2026-04-09T06:21:00.086Z</time></trkpt><trkpt lat="40.6134933" lon="14.9729117"><ele>65.0</ele><time>2026-04-09T06:21:02.086Z</time></trkpt><trkpt lat="40.613565" lon="14.9728217"><ele>65.0</ele><time>2026-04-09T06:21:04.086Z</time></trkpt><trkpt lat="40.6136" lon="14.9727433"><ele>65.0</ele><time>2026-04-09T06:21:05.086Z</time></trkpt><trkpt lat="40.6136517" lon="14.972625"><ele>65.0</ele><time>2026-04-09T06:21:06.086Z</time></trkpt><trkpt lat="40.6137217" lon="14.9724883"><ele>65.0</ele><time>2026-04-09T06:21:07.086Z</time></trkpt><trkpt lat="40.6137967" lon="14.972345"><ele>65.0</ele><time>2026-04-09T06:21:08.086Z</time></trkpt><trkpt lat="40.61387" lon="14.972195"><ele>65.25</ele><time>2026-04-09T06:21:09.086Z</time></trkpt><trkpt lat="40.61394" lon="14.97205"><ele>65.5</ele><time>2026-04-09T06:21:10.086Z</time></trkpt><trkpt lat="40.6140083" lon="14.9719017"><ele>65.75</ele><time>2026-04-09T06:21:11.086Z</time></trkpt><trkpt lat="40.6140733" lon="14.9717567"><ele>66.0</ele><time>2026-04-09T06:21:12.086Z</time></trkpt><trkpt lat="40.6141383" lon="14.9716233"><ele>65.5</ele><time>2026-04-09T06:21:13.086Z</time></trkpt><trkpt lat="40.614215" lon="14.97151"><ele>65.0</ele><time>2026-04-09T06:21:14.086Z</time></trkpt><trkpt lat="40.6143167" lon="14.9714167"><ele>64.5</ele><time>2026-04-09T06:21:15.086Z</time></trkpt><trkpt lat="40.614435" lon="14.9713333"><ele>64.0</ele><time>2026-04-09T06:21:16.086Z</time></trkpt><trkpt lat="40.6145817" lon="14.9712617"><ele>64.0</ele><time>2026-04-09T06:21:17.086Z</time></trkpt><trkpt lat="40.614745" lon="14.9711967"><ele>64.0</ele><time>2026-04-09T06:21:18.086Z</time></trkpt><trkpt lat="40.6149" lon="14.9711317"><ele>64.0</ele><time>2026-04-09T06:21:19.086Z</time></trkpt><trkpt lat="40.6150717" lon="14.9710867"><ele>64.0</ele><time>2026-04-09T06:21:20.086Z</time></trkpt><trkpt lat="40.6152533" lon="14.97106"><ele>64.0</ele><time>2026-04-09T06:21:21.086Z</time></trkpt><trkpt lat="40.6154183" lon="14.9710467"><ele>64.0</ele><time>2026-04-09T06:21:22.086Z</time></trkpt><trkpt lat="40.61558" lon="14.9710567"><ele>64.0</ele><time>2026-04-09T06:21:23.086Z</time></trkpt><trkpt lat="40.6157367" lon="14.971085"><ele>64.0</ele><time>2026-04-09T06:21:24.086Z</time></trkpt><trkpt lat="40.6158817" lon="14.971115"><ele>64.0</ele><time>2026-04-09T06:21:25.086Z</time></trkpt><trkpt lat="40.616035" lon="14.9711533"><ele>63.33333333333333</ele><time>2026-04-09T06:21:26.086Z</time></trkpt><trkpt lat="40.6161917" lon="14.971215"><ele>62.66666666666667</ele><time>2026-04-09T06:21:27.086Z</time></trkpt><trkpt lat="40.616345" lon="14.9712867"><ele>62.0</ele><time>2026-04-09T06:21:28.086Z</time></trkpt><trkpt lat="40.6165067" lon="14.9713667"><ele>62.0</ele><time>2026-04-09T06:21:29.086Z</time></trkpt><trkpt lat="40.61668" lon="14.9714483"><ele>62.0</ele><time>2026-04-09T06:21:30.086Z</time></trkpt><trkpt lat="40.61683" lon="14.9715317"><ele>62.0</ele><time>2026-04-09T06:21:31.086Z</time></trkpt><trkpt lat="40.616965" lon="14.9716033"><ele>62.25</ele><time>2026-04-09T06:21:32.086Z</time></trkpt><trkpt lat="40.61709" lon="14.9716617"><ele>62.5</ele><time>2026-04-09T06:21:33.086Z</time></trkpt><trkpt lat="40.6172167" lon="14.9717183"><ele>62.75</ele><time>2026-04-09T06:21:34.086Z</time></trkpt><trkpt lat="40.6173367" lon="14.9717767"><ele>63.0</ele><time>2026-04-09T06:21:35.086Z</time></trkpt><trkpt lat="40.61745" lon="14.9718417"><ele>63.0</ele><time>2026-04-09T06:21:36.086Z</time></trkpt><trkpt lat="40.6175633" lon="14.9719067"><ele>63.0</ele><time>2026-04-09T06:21:37.086Z</time></trkpt><trkpt lat="40.6176717" lon="14.9719683"><ele>63.0</ele><time>2026-04-09T06:21:38.086Z</time></trkpt><trkpt lat="40.6177883" lon="14.9720267"><ele>63.0</ele><time>2026-04-09T06:21:39.086Z</time></trkpt><trkpt lat="40.617915" lon="14.9720933"><ele>63.66666666666667</ele><time>2026-04-09T06:21:40.086Z</time></trkpt><trkpt lat="40.6180467" lon="14.9721583"><ele>64.33333333333334</ele><time>2026-04-09T06:21:41.086Z</time></trkpt><trkpt lat="40.6181883" lon="14.9722283"><ele>65.0</ele><time>2026-04-09T06:21:42.086Z</time></trkpt><trkpt lat="40.618355" lon="14.9723117"><ele>65.0</ele><time>2026-04-09T06:21:43.086Z</time></trkpt><trkpt lat="40.618525" lon="14.9724133"><ele>65.0</ele><time>2026-04-09T06:21:44.086Z</time></trkpt><trkpt lat="40.61869" lon="14.97251"><ele>65.0</ele><time>2026-04-09T06:21:45.086Z</time></trkpt><trkpt lat="40.6188417" lon="14.9726"><ele>66.0</ele><time>2026-04-09T06:21:46.086Z</time></trkpt><trkpt lat="40.618985" lon="14.972685"><ele>67.0</ele><time>2026-04-09T06:21:47.086Z</time></trkpt><trkpt lat="40.6191233" lon="14.9727683"><ele>68.0</ele><time>2026-04-09T06:21:48.086Z</time></trkpt><trkpt lat="40.6192533" lon="14.9728483"><ele>68.0</ele><time>2026-04-09T06:21:49.086Z</time></trkpt><trkpt lat="40.6193833" lon="14.972925"><ele>68.0</ele><time>2026-04-09T06:21:50.086Z</time></trkpt><trkpt lat="40.6195117" lon="14.9729967"><ele>68.0</ele><time>2026-04-09T06:21:51.086Z</time></trkpt><trkpt lat="40.6196433" lon="14.9730733"><ele>68.0</ele><time>2026-04-09T06:21:52.087Z</time></trkpt><trkpt lat="40.619775" lon="14.97314"><ele>68.5</ele><time>2026-04-09T06:21:53.087Z</time></trkpt><trkpt lat="40.61991" lon="14.973185"><ele>69.0</ele><time>2026-04-09T06:21:54.087Z</time></trkpt><trkpt lat="40.6200483" lon="14.9732117"><ele>69.5</ele><time>2026-04-09T06:21:55.087Z</time></trkpt><trkpt lat="40.6201733" lon="14.9732283"><ele>70.0</ele><time>2026-04-09T06:21:56.087Z</time></trkpt><trkpt lat="40.6202867" lon="14.9732467"><ele>69.8</ele><time>2026-04-09T06:21:57.087Z</time></trkpt><trkpt lat="40.620395" lon="14.973265"><ele>69.6</ele><time>2026-04-09T06:21:58.087Z</time></trkpt><trkpt lat="40.620495" lon="14.973285"><ele>69.4</ele><time>2026-04-09T06:21:59.087Z</time></trkpt><trkpt lat="40.6205983" lon="14.9732983"><ele>69.2</ele><time>2026-04-09T06:22:00.087Z</time></trkpt><trkpt lat="40.620705" lon="14.9733117"><ele>69.0</ele><time>2026-04-09T06:22:01.087Z</time></trkpt><trkpt lat="40.6208133" lon="14.9733283"><ele>69.0</ele><time>2026-04-09T06:22:02.087Z</time></trkpt><trkpt lat="40.6209117" lon="14.9733417"><ele>69.0</ele><time>2026-04-09T06:22:03.087Z</time></trkpt><trkpt lat="40.6209967" lon="14.9733567"><ele>69.0</ele><time>2026-04-09T06:22:04.087Z</time></trkpt><trkpt lat="40.6210833" lon="14.97337"><ele>69.0</ele><time>2026-04-09T06:22:05.087Z</time></trkpt><trkpt lat="40.621175" lon="14.97338"><ele>69.0</ele><time>2026-04-09T06:22:06.086Z</time></trkpt><trkpt lat="40.6212733" lon="14.97338"><ele>69.2</ele><time>2026-04-09T06:22:07.087Z</time></trkpt><trkpt lat="40.6213683" lon="14.97336"><ele>69.4</ele><time>2026-04-09T06:22:08.087Z</time></trkpt><trkpt lat="40.62147" lon="14.9733183"><ele>69.6</ele><time>2026-04-09T06:22:09.087Z</time></trkpt><trkpt lat="40.62156" lon="14.97326"><ele>69.8</ele><time>2026-04-09T06:22:10.087Z</time></trkpt><trkpt lat="40.62164" lon="14.9731767"><ele>70.0</ele><time>2026-04-09T06:22:11.087Z</time></trkpt><trkpt lat="40.6217117" lon="14.9730733"><ele>70.0</ele><time>2026-04-09T06:22:12.087Z</time></trkpt><trkpt lat="40.6217633" lon="14.972955"><ele>70.0</ele><time>2026-04-09T06:22:13.087Z</time></trkpt><trkpt lat="40.6218" lon="14.972825"><ele>70.0</ele><time>2026-04-09T06:22:14.087Z</time></trkpt><trkpt lat="40.6218117" lon="14.9726833"><ele>70.0</ele><time>2026-04-09T06:22:15.087Z</time></trkpt><trkpt lat="40.621805" lon="14.97254"><ele>70.0</ele><time>2026-04-09T06:22:16.087Z</time></trkpt><trkpt lat="40.62178" lon="14.9724"><ele>69.75</ele><time>2026-04-09T06:22:17.087Z</time></trkpt><trkpt lat="40.6217283" lon="14.9722583"><ele>69.5</ele><time>2026-04-09T06:22:18.087Z</time></trkpt><trkpt lat="40.6216617" lon="14.972135"><ele>69.25</ele><time>2026-04-09T06:22:19.087Z</time></trkpt><trkpt lat="40.621575" lon="14.9720283"><ele>69.0</ele><time>2026-04-09T06:22:20.087Z</time></trkpt><trkpt lat="40.6214767" lon="14.971945"><ele>69.0</ele><time>2026-04-09T06:22:21.087Z</time></trkpt><trkpt lat="40.6213767" lon="14.971865"><ele>69.0</ele><time>2026-04-09T06:22:22.087Z</time></trkpt><trkpt lat="40.6212733" lon="14.9717967"><ele>69.0</ele><time>2026-04-09T06:22:23.087Z</time></trkpt><trkpt lat="40.6211683" lon="14.9717233"><ele>69.0</ele><time>2026-04-09T06:22:24.087Z</time></trkpt><trkpt lat="40.6210733" lon="14.97164"><ele>68.0</ele><time>2026-04-09T06:22:25.087Z</time></trkpt><trkpt lat="40.62099" lon="14.9715467"><ele>67.0</ele><time>2026-04-09T06:22:26.087Z</time></trkpt><trkpt lat="40.620915" lon="14.9714417"><ele>66.0</ele><time>2026-04-09T06:22:27.087Z</time></trkpt><trkpt lat="40.6208567" lon="14.9713283"><ele>65.0</ele><time>2026-04-09T06:22:28.087Z</time></trkpt><trkpt lat="40.62081" lon="14.97121"><ele>64.0</ele><time>2026-04-09T06:22:29.087Z</time></trkpt><trkpt lat="40.6207767" lon="14.9710867"><ele>64.0</ele><time>2026-04-09T06:22:30.087Z</time></trkpt><trkpt lat="40.62075" lon="14.9709667"><ele>64.0</ele><time>2026-04-09T06:22:31.087Z</time></trkpt><trkpt lat="40.620725" lon="14.970845"><ele>64.0</ele><time>2026-04-09T06:22:32.087Z</time></trkpt><trkpt lat="40.620715" lon="14.9707133"><ele>64.0</ele><time>2026-04-09T06:22:33.087Z</time></trkpt><trkpt lat="40.6207033" lon="14.9705583"><ele>64.0</ele><time>2026-04-09T06:22:34.087Z</time></trkpt><trkpt lat="40.620695" lon="14.9703917"><ele>65.0</ele><time>2026-04-09T06:22:35.087Z</time></trkpt><trkpt lat="40.6206867" lon="14.970205"><ele>66.0</ele><time>2026-04-09T06:22:36.087Z</time></trkpt><trkpt lat="40.6206883" lon="14.9700117"><ele>67.0</ele><time>2026-04-09T06:22:37.087Z</time></trkpt><trkpt lat="40.620685" lon="14.9697967"><ele>67.0</ele><time>2026-04-09T06:22:38.087Z</time></trkpt><trkpt lat="40.620675" lon="14.9695517"><ele>67.0</ele><time>2026-04-09T06:22:39.087Z</time></trkpt><trkpt lat="40.6206733" lon="14.9692783"><ele>67.0</ele><time>2026-04-09T06:22:40.087Z</time></trkpt><trkpt lat="40.620675" lon="14.9689717"><ele>66.5</ele><time>2026-04-09T06:22:41.087Z</time></trkpt><trkpt lat="40.62068" lon="14.9686517"><ele>66.0</ele><time>2026-04-09T06:22:42.087Z</time></trkpt><trkpt lat="40.620695" lon="14.9683183"><ele>66.0</ele><time>2026-04-09T06:22:43.087Z</time></trkpt><trkpt lat="40.620715" lon="14.967975"><ele>66.0</ele><time>2026-04-09T06:22:44.087Z</time></trkpt><trkpt lat="40.6207317" lon="14.9676183"><ele>65.0</ele><time>2026-04-09T06:22:45.087Z</time></trkpt><trkpt lat="40.6207533" lon="14.9672483"><ele>64.0</ele><time>2026-04-09T06:22:46.087Z</time></trkpt><trkpt lat="40.6207783" lon="14.966875"><ele>63.5</ele><time>2026-04-09T06:22:47.087Z</time></trkpt><trkpt lat="40.6208117" lon="14.9664967"><ele>63.0</ele><time>2026-04-09T06:22:48.087Z</time></trkpt><trkpt lat="40.6208517" lon="14.9661083"><ele>62.0</ele><time>2026-04-09T06:22:49.087Z</time></trkpt><trkpt lat="40.6208967" lon="14.9657183"><ele>61.0</ele><time>2026-04-09T06:22:50.087Z</time></trkpt><trkpt lat="40.6209483" lon="14.9653267"><ele>60.0</ele><time>2026-04-09T06:22:51.087Z</time></trkpt><trkpt lat="40.62101" lon="14.9649383"><ele>59.0</ele><time>2026-04-09T06:22:52.087Z</time></trkpt><trkpt lat="40.62108" lon="14.9645483"><ele>60.0</ele><time>2026-04-09T06:22:53.087Z</time></trkpt><trkpt lat="40.6211567" lon="14.9641583"><ele>61.0</ele><time>2026-04-09T06:22:54.087Z</time></trkpt><trkpt lat="40.62124" lon="14.9637683"><ele>61.0</ele><time>2026-04-09T06:22:55.087Z</time></trkpt><trkpt lat="40.6213283" lon="14.96338"><ele>61.0</ele><time>2026-04-09T06:22:56.087Z</time></trkpt><trkpt lat="40.6214233" lon="14.9629933"><ele>60.0</ele><time>2026-04-09T06:22:57.087Z</time></trkpt><trkpt lat="40.6215233" lon="14.96261"><ele>59.0</ele><time>2026-04-09T06:22:58.087Z</time></trkpt><trkpt lat="40.62162" lon="14.9622283"><ele>58.5</ele><time>2026-04-09T06:22:59.087Z</time></trkpt><trkpt lat="40.62172" lon="14.9618383"><ele>58.0</ele><time>2026-04-09T06:23:00.087Z</time></trkpt><trkpt lat="40.6218267" lon="14.9614517"><ele>58.0</ele><time>2026-04-09T06:23:01.087Z</time></trkpt><trkpt lat="40.62193" lon="14.96106"><ele>58.0</ele><time>2026-04-09T06:23:02.087Z</time></trkpt><trkpt lat="40.6220333" lon="14.9606617"><ele>59.0</ele><time>2026-04-09T06:23:03.087Z</time></trkpt><trkpt lat="40.6221433" lon="14.96026"><ele>60.0</ele><time>2026-04-09T06:23:04.087Z</time></trkpt><trkpt lat="40.6222483" lon="14.9598617"><ele>60.5</ele><time>2026-04-09T06:23:05.087Z</time></trkpt><trkpt lat="40.6223567" lon="14.95946"><ele>61.0</ele><time>2026-04-09T06:23:06.087Z</time></trkpt><trkpt lat="40.6224667" lon="14.9590617"><ele>61.0</ele><time>2026-04-09T06:23:07.087Z</time></trkpt><trkpt lat="40.6225717" lon="14.95866"><ele>61.0</ele><time>2026-04-09T06:23:08.087Z</time></trkpt><trkpt lat="40.62268" lon="14.95826"><ele>61.5</ele><time>2026-04-09T06:23:09.087Z</time></trkpt><trkpt lat="40.622795" lon="14.95785"><ele>62.0</ele><time>2026-04-09T06:23:10.087Z</time></trkpt><trkpt lat="40.622915" lon="14.95743"><ele>63.5</ele><time>2026-04-09T06:23:11.087Z</time></trkpt><trkpt lat="40.62304" lon="14.9570133"><ele>65.0</ele><time>2026-04-09T06:23:12.087Z</time></trkpt><trkpt lat="40.6231717" lon="14.9566"><ele>65.0</ele><time>2026-04-09T06:23:13.087Z</time></trkpt><trkpt lat="40.623305" lon="14.9561933"><ele>65.0</ele><time>2026-04-09T06:23:14.087Z</time></trkpt><trkpt lat="40.62344" lon="14.9557983"><ele>65.0</ele><time>2026-04-09T06:23:15.087Z</time></trkpt><trkpt lat="40.6235733" lon="14.95541"><ele>65.0</ele><time>2026-04-09T06:23:16.087Z</time></trkpt><trkpt lat="40.62371" lon="14.9550267"><ele>67.0</ele><time>2026-04-09T06:23:17.087Z</time></trkpt><trkpt lat="40.6238517" lon="14.9546583"><ele>69.0</ele><time>2026-04-09T06:23:18.087Z</time></trkpt><trkpt lat="40.623985" lon="14.954285"><ele>67.5</ele><time>2026-04-09T06:23:19.087Z</time></trkpt><trkpt lat="40.62412" lon="14.9539217"><ele>66.0</ele><time>2026-04-09T06:23:20.087Z</time></trkpt><trkpt lat="40.624255" lon="14.9535617"><ele>66.0</ele><time>2026-04-09T06:23:21.087Z</time></trkpt><trkpt lat="40.6244017" lon="14.9531917"><ele>66.0</ele><time>2026-04-09T06:23:22.087Z</time></trkpt><trkpt lat="40.62455" lon="14.9528183"><ele>66.0</ele><time>2026-04-09T06:23:23.087Z</time></trkpt><trkpt lat="40.6247033" lon="14.952445"><ele>66.0</ele><time>2026-04-09T06:23:24.087Z</time></trkpt><trkpt lat="40.624855" lon="14.952055"><ele>64.0</ele><time>2026-04-09T06:23:25.087Z</time></trkpt><trkpt lat="40.6250133" lon="14.9516617"><ele>62.0</ele><time>2026-04-09T06:23:26.087Z</time></trkpt><trkpt lat="40.6251633" lon="14.9512683"><ele>62.5</ele><time>2026-04-09T06:23:27.087Z</time></trkpt><trkpt lat="40.62532" lon="14.950875"><ele>63.0</ele><time>2026-04-09T06:23:28.087Z</time></trkpt><trkpt lat="40.6254767" lon="14.9504733"><ele>61.5</ele><time>2026-04-09T06:23:29.087Z</time></trkpt><trkpt lat="40.6256317" lon="14.9500783"><ele>60.0</ele><time>2026-04-09T06:23:30.087Z</time></trkpt><trkpt lat="40.6257933" lon="14.9496883"><ele>60.0</ele><time>2026-04-09T06:23:31.087Z</time></trkpt><trkpt lat="40.625955" lon="14.9492833"><ele>60.0</ele><time>2026-04-09T06:23:32.088Z</time></trkpt><trkpt lat="40.62612" lon="14.9488733"><ele>60.5</ele><time>2026-04-09T06:23:33.087Z</time></trkpt><trkpt lat="40.626275" lon="14.9484683"><ele>61.0</ele><time>2026-04-09T06:23:34.087Z</time></trkpt><trkpt lat="40.62643" lon="14.948065"><ele>61.0</ele><time>2026-04-09T06:23:35.087Z</time></trkpt><trkpt lat="40.626585" lon="14.9476683"><ele>61.0</ele><time>2026-04-09T06:23:36.087Z</time></trkpt><trkpt lat="40.6267383" lon="14.9472733"><ele>61.0</ele><time>2026-04-09T06:23:37.087Z</time></trkpt><trkpt lat="40.6268833" lon="14.946875"><ele>61.0</ele><time>2026-04-09T06:23:38.087Z</time></trkpt><trkpt lat="40.6270317" lon="14.946475"><ele>61.5</ele><time>2026-04-09T06:23:39.087Z</time></trkpt><trkpt lat="40.627175" lon="14.9460733"><ele>62.0</ele><time>2026-04-09T06:23:40.087Z</time></trkpt><trkpt lat="40.627305" lon="14.9456833"><ele>62.0</ele><time>2026-04-09T06:23:41.087Z</time></trkpt><trkpt lat="40.62743" lon="14.9452883"><ele>62.0</ele><time>2026-04-09T06:23:42.087Z</time></trkpt><trkpt lat="40.62754" lon="14.9448967"><ele>62.5</ele><time>2026-04-09T06:23:43.087Z</time></trkpt><trkpt lat="40.6276433" lon="14.944505"><ele>63.0</ele><time>2026-04-09T06:23:44.087Z</time></trkpt><trkpt lat="40.627735" lon="14.94411"><ele>64.0</ele><time>2026-04-09T06:23:45.087Z</time></trkpt><trkpt lat="40.6278217" lon="14.94371"><ele>65.0</ele><time>2026-04-09T06:23:46.087Z</time></trkpt><trkpt lat="40.6279017" lon="14.943305"><ele>65.0</ele><time>2026-04-09T06:23:47.087Z</time></trkpt><trkpt lat="40.627975" lon="14.942895"><ele>65.0</ele><time>2026-04-09T06:23:48.087Z</time></trkpt><trkpt lat="40.6280383" lon="14.9424833"><ele>65.0</ele><time>2026-04-09T06:23:49.087Z</time></trkpt><trkpt lat="40.6280933" lon="14.94207"><ele>65.0</ele><time>2026-04-09T06:23:50.087Z</time></trkpt><trkpt lat="40.6281433" lon="14.9416567"><ele>65.0</ele><time>2026-04-09T06:23:51.087Z</time></trkpt><trkpt lat="40.6281883" lon="14.9412383"><ele>65.0</ele><time>2026-04-09T06:23:52.087Z</time></trkpt><trkpt lat="40.6282217" lon="14.940825"><ele>64.5</ele><time>2026-04-09T06:23:53.087Z</time></trkpt><trkpt lat="40.6282483" lon="14.9404083"><ele>64.0</ele><time>2026-04-09T06:23:54.087Z</time></trkpt><trkpt lat="40.6282767" lon="14.93999"><ele>64.0</ele><time>2026-04-09T06:23:55.087Z</time></trkpt><trkpt lat="40.628295" lon="14.939575"><ele>64.0</ele><time>2026-04-09T06:23:56.087Z</time></trkpt><trkpt lat="40.6283183" lon="14.939155"><ele>64.0</ele><time>2026-04-09T06:23:57.087Z</time></trkpt><trkpt lat="40.628335" lon="14.9387317"><ele>64.0</ele><time>2026-04-09T06:23:58.087Z</time></trkpt><trkpt lat="40.6283517" lon="14.9383017"><ele>63.5</ele><time>2026-04-09T06:23:59.087Z</time></trkpt><trkpt lat="40.6283683" lon="14.9378717"><ele>63.0</ele><time>2026-04-09T06:24:00.087Z</time></trkpt><trkpt lat="40.62839" lon="14.937445"><ele>61.5</ele><time>2026-04-09T06:24:01.087Z</time></trkpt><trkpt lat="40.6284167" lon="14.937025"><ele>60.0</ele><time>2026-04-09T06:24:02.087Z</time></trkpt><trkpt lat="40.6284467" lon="14.93661"><ele>60.0</ele><time>2026-04-09T06:24:03.087Z</time></trkpt><trkpt lat="40.62848" lon="14.9361967"><ele>60.0</ele><time>2026-04-09T06:24:04.087Z</time></trkpt><trkpt lat="40.6285167" lon="14.9357883"><ele>59.0</ele><time>2026-04-09T06:24:05.087Z</time></trkpt><trkpt lat="40.6285667" lon="14.9353783"><ele>58.0</ele><time>2026-04-09T06:24:06.087Z</time></trkpt><trkpt lat="40.6286217" lon="14.9349683"><ele>58.0</ele><time>2026-04-09T06:24:07.087Z</time></trkpt><trkpt lat="40.62868" lon="14.93456"><ele>58.0</ele><time>2026-04-09T06:24:08.087Z</time></trkpt><trkpt lat="40.6287483" lon="14.9341533"><ele>58.0</ele><time>2026-04-09T06:24:09.087Z</time></trkpt><trkpt lat="40.6288233" lon="14.933745"><ele>58.0</ele><time>2026-04-09T06:24:10.087Z</time></trkpt><trkpt lat="40.628905" lon="14.9333383"><ele>58.0</ele><time>2026-04-09T06:24:11.087Z</time></trkpt><trkpt lat="40.628995" lon="14.9329383"><ele>58.0</ele><time>2026-04-09T06:24:12.087Z</time></trkpt><trkpt lat="40.6290917" lon="14.9325433"><ele>58.5</ele><time>2026-04-09T06:24:13.087Z</time></trkpt><trkpt lat="40.6291917" lon="14.9321533"><ele>59.0</ele><time>2026-04-09T06:24:14.087Z</time></trkpt><trkpt lat="40.6293083" lon="14.9317617"><ele>59.0</ele><time>2026-04-09T06:24:15.087Z</time></trkpt><trkpt lat="40.6294283" lon="14.931375"><ele>59.0</ele><time>2026-04-09T06:24:16.087Z</time></trkpt><trkpt lat="40.6295417" lon="14.9309883"><ele>59.0</ele><time>2026-04-09T06:24:17.087Z</time></trkpt><trkpt lat="40.6296617" lon="14.9306067"><ele>59.0</ele><time>2026-04-09T06:24:18.087Z</time></trkpt><trkpt lat="40.6297833" lon="14.9302267"><ele>59.0</ele><time>2026-04-09T06:24:19.087Z</time></trkpt><trkpt lat="40.6299067" lon="14.9298433"><ele>59.0</ele><time>2026-04-09T06:24:20.087Z</time></trkpt><trkpt lat="40.630035" lon="14.9294617"><ele>58.0</ele><time>2026-04-09T06:24:21.087Z</time></trkpt><trkpt lat="40.63017" lon="14.9290733"><ele>57.0</ele><time>2026-04-09T06:24:22.087Z</time></trkpt><trkpt lat="40.6303067" lon="14.9286783"><ele>56.5</ele><time>2026-04-09T06:24:23.087Z</time></trkpt><trkpt lat="40.63044" lon="14.9282783"><ele>56.0</ele><time>2026-04-09T06:24:24.087Z</time></trkpt><trkpt lat="40.630575" lon="14.9278767"><ele>55.5</ele><time>2026-04-09T06:24:25.087Z</time></trkpt><trkpt lat="40.6307133" lon="14.92747"><ele>55.0</ele><time>2026-04-09T06:24:26.087Z</time></trkpt><trkpt lat="40.6308517" lon="14.927065"><ele>54.0</ele><time>2026-04-09T06:24:27.087Z</time></trkpt><trkpt lat="40.6309883" lon="14.9266583"><ele>53.0</ele><time>2026-04-09T06:24:28.087Z</time></trkpt><trkpt lat="40.631125" lon="14.92625"><ele>53.0</ele><time>2026-04-09T06:24:29.087Z</time></trkpt><trkpt lat="40.6312583" lon="14.9258317"><ele>53.0</ele><time>2026-04-09T06:24:30.087Z</time></trkpt><trkpt lat="40.6313983" lon="14.9254133"><ele>52.0</ele><time>2026-04-09T06:24:31.087Z</time></trkpt><trkpt lat="40.631535" lon="14.9249917"><ele>51.0</ele><time>2026-04-09T06:24:32.087Z</time></trkpt><trkpt lat="40.631675" lon="14.9245767"><ele>50.5</ele><time>2026-04-09T06:24:33.087Z</time></trkpt><trkpt lat="40.6318133" lon="14.9241633"><ele>50.0</ele><time>2026-04-09T06:24:34.087Z</time></trkpt><trkpt lat="40.631945" lon="14.9237533"><ele>51.0</ele><time>2026-04-09T06:24:35.087Z</time></trkpt><trkpt lat="40.632085" lon="14.92334"><ele>52.0</ele><time>2026-04-09T06:24:36.087Z</time></trkpt><trkpt lat="40.6322183" lon="14.9229317"><ele>51.0</ele><time>2026-04-09T06:24:37.087Z</time></trkpt><trkpt lat="40.63236" lon="14.9225283"><ele>50.0</ele><time>2026-04-09T06:24:38.087Z</time></trkpt><trkpt lat="40.632495" lon="14.9221283"><ele>49.0</ele><time>2026-04-09T06:24:39.087Z</time></trkpt><trkpt lat="40.6326267" lon="14.9217267"><ele>48.0</ele><time>2026-04-09T06:24:40.087Z</time></trkpt><trkpt lat="40.63276" lon="14.921325"><ele>48.5</ele><time>2026-04-09T06:24:41.087Z</time></trkpt><trkpt lat="40.63289" lon="14.92093"><ele>49.0</ele><time>2026-04-09T06:24:42.087Z</time></trkpt><trkpt lat="40.63302" lon="14.920535"><ele>49.0</ele><time>2026-04-09T06:24:43.087Z</time></trkpt><trkpt lat="40.63315" lon="14.9201433"><ele>49.0</ele><time>2026-04-09T06:24:44.087Z</time></trkpt><trkpt lat="40.63328" lon="14.9197467"><ele>48.5</ele><time>2026-04-09T06:24:45.087Z</time></trkpt><trkpt lat="40.6334167" lon="14.9193517"><ele>48.0</ele><time>2026-04-09T06:24:46.087Z</time></trkpt><trkpt lat="40.6335433" lon="14.9189583"><ele>47.5</ele><time>2026-04-09T06:24:47.087Z</time></trkpt><trkpt lat="40.6336783" lon="14.9185567"><ele>47.0</ele><time>2026-04-09T06:24:48.087Z</time></trkpt><trkpt lat="40.6338067" lon="14.9181617"><ele>46.0</ele><time>2026-04-09T06:24:49.087Z</time></trkpt><trkpt lat="40.63394" lon="14.9177717"><ele>45.0</ele><time>2026-04-09T06:24:50.087Z</time></trkpt><trkpt lat="40.6340717" lon="14.91738"><ele>44.5</ele><time>2026-04-09T06:24:51.087Z</time></trkpt><trkpt lat="40.6342017" lon="14.91699"><ele>44.0</ele><time>2026-04-09T06:24:52.087Z</time></trkpt><trkpt lat="40.634325" lon="14.9165933"><ele>43.0</ele><time>2026-04-09T06:24:53.087Z</time></trkpt><trkpt lat="40.6344583" lon="14.9161883"><ele>42.0</ele><time>2026-04-09T06:24:54.087Z</time></trkpt><trkpt lat="40.6345933" lon="14.915795"><ele>42.0</ele><time>2026-04-09T06:24:55.087Z</time></trkpt><trkpt lat="40.6347217" lon="14.915405"><ele>42.0</ele><time>2026-04-09T06:24:56.087Z</time></trkpt><trkpt lat="40.6348467" lon="14.9150267"><ele>42.0</ele><time>2026-04-09T06:24:57.087Z</time></trkpt><trkpt lat="40.63497" lon="14.9146467"><ele>42.0</ele><time>2026-04-09T06:24:58.087Z</time></trkpt><trkpt lat="40.6350983" lon="14.91427"><ele>41.0</ele><time>2026-04-09T06:24:59.087Z</time></trkpt><trkpt lat="40.63522" lon="14.9138933"><ele>40.0</ele><time>2026-04-09T06:25:00.087Z</time></trkpt><trkpt lat="40.6353433" lon="14.913525"><ele>39.0</ele><time>2026-04-09T06:25:01.087Z</time></trkpt><trkpt lat="40.6354683" lon="14.913155"><ele>38.0</ele><time>2026-04-09T06:25:02.087Z</time></trkpt><trkpt lat="40.6355917" lon="14.912785"><ele>38.5</ele><time>2026-04-09T06:25:03.087Z</time></trkpt><trkpt lat="40.6357183" lon="14.912415"><ele>39.0</ele><time>2026-04-09T06:25:04.087Z</time></trkpt><trkpt lat="40.6358483" lon="14.9120317"><ele>39.0</ele><time>2026-04-09T06:25:05.087Z</time></trkpt><trkpt lat="40.6359783" lon="14.91164"><ele>39.0</ele><time>2026-04-09T06:25:06.087Z</time></trkpt><trkpt lat="40.6361083" lon="14.9112517"><ele>38.0</ele><time>2026-04-09T06:25:07.087Z</time></trkpt><trkpt lat="40.63624" lon="14.9108667"><ele>37.0</ele><time>2026-04-09T06:25:08.087Z</time></trkpt><trkpt lat="40.6363683" lon="14.9104717"><ele>36.5</ele><time>2026-04-09T06:25:09.087Z</time></trkpt><trkpt lat="40.6364933" lon="14.9100717"><ele>36.0</ele><time>2026-04-09T06:25:10.087Z</time></trkpt><trkpt lat="40.6366283" lon="14.9096717"><ele>36.0</ele><time>2026-04-09T06:25:11.087Z</time></trkpt><trkpt lat="40.6367617" lon="14.9092717"><ele>36.0</ele><time>2026-04-09T06:25:12.087Z</time></trkpt><trkpt lat="40.6369" lon="14.9088717"><ele>37.5</ele><time>2026-04-09T06:25:13.087Z</time></trkpt><trkpt lat="40.63704" lon="14.9084783"><ele>39.0</ele><time>2026-04-09T06:25:14.087Z</time></trkpt><trkpt lat="40.6371817" lon="14.9080983"><ele>39.5</ele><time>2026-04-09T06:25:15.087Z</time></trkpt><trkpt lat="40.637325" lon="14.9077133"><ele>40.0</ele><time>2026-04-09T06:25:16.087Z</time></trkpt><trkpt lat="40.6374767" lon="14.90733"><ele>40.0</ele><time>2026-04-09T06:25:17.087Z</time></trkpt><trkpt lat="40.637635" lon="14.9069633"><ele>40.0</ele><time>2026-04-09T06:25:18.087Z</time></trkpt><trkpt lat="40.6377917" lon="14.9066"><ele>40.0</ele><time>2026-04-09T06:25:19.087Z</time></trkpt><trkpt lat="40.6379483" lon="14.9062383"><ele>40.0</ele><time>2026-04-09T06:25:20.087Z</time></trkpt><trkpt lat="40.6381133" lon="14.9058783"><ele>39.5</ele><time>2026-04-09T06:25:21.087Z</time></trkpt><trkpt lat="40.6382783" lon="14.9055217"><ele>39.0</ele><time>2026-04-09T06:25:22.087Z</time></trkpt><trkpt lat="40.6384383" lon="14.9051633"><ele>39.5</ele><time>2026-04-09T06:25:23.087Z</time></trkpt><trkpt lat="40.6386017" lon="14.9048083"><ele>40.0</ele><time>2026-04-09T06:25:24.087Z</time></trkpt><trkpt lat="40.6387667" lon="14.9044467"><ele>39.5</ele><time>2026-04-09T06:25:25.087Z</time></trkpt><trkpt lat="40.6389283" lon="14.90408"><ele>39.0</ele><time>2026-04-09T06:25:26.087Z</time></trkpt><trkpt lat="40.6390967" lon="14.9037133"><ele>39.5</ele><time>2026-04-09T06:25:27.087Z</time></trkpt><trkpt lat="40.6392633" lon="14.9033467"><ele>40.0</ele><time>2026-04-09T06:25:28.087Z</time></trkpt><trkpt lat="40.639435" lon="14.9029817"><ele>40.0</ele><time>2026-04-09T06:25:29.087Z</time></trkpt><trkpt lat="40.6396033" lon="14.9026167"><ele>40.0</ele><time>2026-04-09T06:25:30.087Z</time></trkpt><trkpt lat="40.63977" lon="14.90225"><ele>40.0</ele><time>2026-04-09T06:25:31.087Z</time></trkpt><trkpt lat="40.6399383" lon="14.9018883"><ele>40.0</ele><time>2026-04-09T06:25:32.087Z</time></trkpt><trkpt lat="40.6401" lon="14.9015283"><ele>40.0</ele><time>2026-04-09T06:25:33.087Z</time></trkpt><trkpt lat="40.6402633" lon="14.901165"><ele>40.0</ele><time>2026-04-09T06:25:34.087Z</time></trkpt><trkpt lat="40.6404317" lon="14.9008"><ele>40.0</ele><time>2026-04-09T06:25:35.087Z</time></trkpt><trkpt lat="40.6405983" lon="14.9004317"><ele>40.0</ele><time>2026-04-09T06:25:36.087Z</time></trkpt><trkpt lat="40.6407667" lon="14.9000667"><ele>39.5</ele><time>2026-04-09T06:25:37.087Z</time></trkpt><trkpt lat="40.640935" lon="14.899695"><ele>39.0</ele><time>2026-04-09T06:25:38.087Z</time></trkpt><trkpt lat="40.641105" lon="14.8993267"><ele>38.5</ele><time>2026-04-09T06:25:39.087Z</time></trkpt><trkpt lat="40.641275" lon="14.89896"><ele>38.0</ele><time>2026-04-09T06:25:40.087Z</time></trkpt><trkpt lat="40.64144" lon="14.8985983"><ele>37.5</ele><time>2026-04-09T06:25:41.087Z</time></trkpt><trkpt lat="40.6416067" lon="14.89824"><ele>37.0</ele><time>2026-04-09T06:25:42.087Z</time></trkpt><trkpt lat="40.6417717" lon="14.8978767"><ele>36.5</ele><time>2026-04-09T06:25:43.087Z</time></trkpt><trkpt lat="40.6419317" lon="14.8975233"><ele>36.0</ele><time>2026-04-09T06:25:44.087Z</time></trkpt><trkpt lat="40.642095" lon="14.89717"><ele>37.5</ele><time>2026-04-09T06:25:45.087Z</time></trkpt><trkpt lat="40.642255" lon="14.896815"><ele>39.0</ele><time>2026-04-09T06:25:46.087Z</time></trkpt><trkpt lat="40.642415" lon="14.8964633"><ele>39.0</ele><time>2026-04-09T06:25:47.087Z</time></trkpt><trkpt lat="40.6425833" lon="14.8960967"><ele>39.0</ele><time>2026-04-09T06:25:48.087Z</time></trkpt><trkpt lat="40.6427483" lon="14.8957367"><ele>40.0</ele><time>2026-04-09T06:25:49.087Z</time></trkpt><trkpt lat="40.64291" lon="14.8953817"><ele>41.0</ele><time>2026-04-09T06:25:50.087Z</time></trkpt><trkpt lat="40.6430733" lon="14.8950217"><ele>41.0</ele><time>2026-04-09T06:25:51.087Z</time></trkpt><trkpt lat="40.6432317" lon="14.89466"><ele>41.0</ele><time>2026-04-09T06:25:52.087Z</time></trkpt><trkpt lat="40.6433983" lon="14.894295"><ele>41.0</ele><time>2026-04-09T06:25:53.087Z</time></trkpt><trkpt lat="40.6435617" lon="14.893935"><ele>41.0</ele><time>2026-04-09T06:25:54.087Z</time></trkpt><trkpt lat="40.6437233" lon="14.8935783"><ele>42.0</ele><time>2026-04-09T06:25:55.087Z</time></trkpt><trkpt lat="40.6438817" lon="14.8932217"><ele>43.0</ele><time>2026-04-09T06:25:56.087Z</time></trkpt><trkpt lat="40.64405" lon="14.8928567"><ele>43.5</ele><time>2026-04-09T06:25:57.087Z</time></trkpt><trkpt lat="40.6442083" lon="14.8924967"><ele>44.0</ele><time>2026-04-09T06:25:58.087Z</time></trkpt><trkpt lat="40.644365" lon="14.89214"><ele>45.0</ele><time>2026-04-09T06:25:59.087Z</time></trkpt><trkpt lat="40.644525" lon="14.891785"><ele>46.0</ele><time>2026-04-09T06:26:00.087Z</time></trkpt><trkpt lat="40.6446883" lon="14.89142"><ele>46.0</ele><time>2026-04-09T06:26:01.087Z</time></trkpt><trkpt lat="40.6448433" lon="14.891055"><ele>46.0</ele><time>2026-04-09T06:26:02.087Z</time></trkpt><trkpt lat="40.6450033" lon="14.890695"><ele>46.5</ele><time>2026-04-09T06:26:03.087Z</time></trkpt><trkpt lat="40.645165" lon="14.8903317"><ele>47.0</ele><time>2026-04-09T06:26:04.087Z</time></trkpt><trkpt lat="40.6453283" lon="14.8899717"><ele>47.0</ele><time>2026-04-09T06:26:05.087Z</time></trkpt><trkpt lat="40.64549" lon="14.88961"><ele>47.0</ele><time>2026-04-09T06:26:06.087Z</time></trkpt><trkpt lat="40.6456483" lon="14.8892467"><ele>46.5</ele><time>2026-04-09T06:26:07.087Z</time></trkpt><trkpt lat="40.645815" lon="14.8888817"><ele>46.0</ele><time>2026-04-09T06:26:08.087Z</time></trkpt><trkpt lat="40.6459733" lon="14.888515"><ele>45.5</ele><time>2026-04-09T06:26:09.087Z</time></trkpt><trkpt lat="40.646135" lon="14.888145"><ele>45.0</ele><time>2026-04-09T06:26:10.087Z</time></trkpt><trkpt lat="40.6462983" lon="14.8877783"><ele>44.0</ele><time>2026-04-09T06:26:11.087Z</time></trkpt><trkpt lat="40.6464617" lon="14.8874083"><ele>43.0</ele><time>2026-04-09T06:26:12.087Z</time></trkpt><trkpt lat="40.6466283" lon="14.8870383"><ele>43.0</ele><time>2026-04-09T06:26:13.087Z</time></trkpt><trkpt lat="40.6467867" lon="14.8866717"><ele>43.0</ele><time>2026-04-09T06:26:14.087Z</time></trkpt><trkpt lat="40.64695" lon="14.886305"><ele>43.5</ele><time>2026-04-09T06:26:15.087Z</time></trkpt><trkpt lat="40.6471133" lon="14.8859317"><ele>44.0</ele><time>2026-04-09T06:26:16.087Z</time></trkpt><trkpt lat="40.647275" lon="14.88556"><ele>44.0</ele><time>2026-04-09T06:26:17.087Z</time></trkpt><trkpt lat="40.64744" lon="14.8851867"><ele>44.0</ele><time>2026-04-09T06:26:18.087Z</time></trkpt><trkpt lat="40.647605" lon="14.8848133"><ele>43.0</ele><time>2026-04-09T06:26:19.087Z</time></trkpt><trkpt lat="40.647775" lon="14.8844333"><ele>42.0</ele><time>2026-04-09T06:26:20.087Z</time></trkpt><trkpt lat="40.647945" lon="14.8840533"><ele>42.0</ele><time>2026-04-09T06:26:21.087Z</time></trkpt><trkpt lat="40.6481217" lon="14.8836667"><ele>42.0</ele><time>2026-04-09T06:26:22.087Z</time></trkpt><trkpt lat="40.6483017" lon="14.8832733"><ele>41.5</ele><time>2026-04-09T06:26:23.087Z</time></trkpt><trkpt lat="40.64847" lon="14.8828867"><ele>41.0</ele><time>2026-04-09T06:26:24.087Z</time></trkpt><trkpt lat="40.64864" lon="14.8825"><ele>41.0</ele><time>2026-04-09T06:26:25.087Z</time></trkpt><trkpt lat="40.6488083" lon="14.8821083"><ele>41.0</ele><time>2026-04-09T06:26:26.087Z</time></trkpt><trkpt lat="40.6489817" lon="14.8817167"><ele>40.5</ele><time>2026-04-09T06:26:27.087Z</time></trkpt><trkpt lat="40.6491533" lon="14.8813267"><ele>40.0</ele><time>2026-04-09T06:26:28.087Z</time></trkpt><trkpt lat="40.649325" lon="14.8809467"><ele>40.0</ele><time>2026-04-09T06:26:29.087Z</time></trkpt><trkpt lat="40.6494967" lon="14.88056"><ele>40.0</ele><time>2026-04-09T06:26:30.087Z</time></trkpt><trkpt lat="40.649665" lon="14.88018"><ele>39.0</ele><time>2026-04-09T06:26:31.087Z</time></trkpt><trkpt lat="40.6498367" lon="14.8797983"><ele>38.0</ele><time>2026-04-09T06:26:32.087Z</time></trkpt><trkpt lat="40.6500033" lon="14.8794233"><ele>38.0</ele><time>2026-04-09T06:26:33.087Z</time></trkpt><trkpt lat="40.6501717" lon="14.8790467"><ele>38.0</ele><time>2026-04-09T06:26:34.087Z</time></trkpt><trkpt lat="40.650335" lon="14.878675"><ele>37.0</ele><time>2026-04-09T06:26:35.087Z</time></trkpt><trkpt lat="40.6504983" lon="14.878305"><ele>36.0</ele><time>2026-04-09T06:26:36.087Z</time></trkpt><trkpt lat="40.65066" lon="14.8779333"><ele>35.5</ele><time>2026-04-09T06:26:37.087Z</time></trkpt><trkpt lat="40.6508217" lon="14.8775617"><ele>35.0</ele><time>2026-04-09T06:26:38.087Z</time></trkpt><trkpt lat="40.6509833" lon="14.8771967"><ele>35.5</ele><time>2026-04-09T06:26:39.087Z</time></trkpt><trkpt lat="40.6511533" lon="14.8768267"><ele>36.0</ele><time>2026-04-09T06:26:40.087Z</time></trkpt><trkpt lat="40.6513167" lon="14.8764533"><ele>36.0</ele><time>2026-04-09T06:26:41.087Z</time></trkpt><trkpt lat="40.6514833" lon="14.876085"><ele>36.0</ele><time>2026-04-09T06:26:42.087Z</time></trkpt><trkpt lat="40.6516367" lon="14.87573"><ele>36.0</ele><time>2026-04-09T06:26:43.087Z</time></trkpt><trkpt lat="40.6517917" lon="14.8753817"><ele>36.0</ele><time>2026-04-09T06:26:44.087Z</time></trkpt><trkpt lat="40.6519417" lon="14.8750333"><ele>35.0</ele><time>2026-04-09T06:26:45.087Z</time></trkpt><trkpt lat="40.6520967" lon="14.8746867"><ele>34.0</ele><time>2026-04-09T06:26:46.087Z</time></trkpt><trkpt lat="40.65225" lon="14.8743417"><ele>32.5</ele><time>2026-04-09T06:26:47.087Z</time></trkpt><trkpt lat="40.6523983" lon="14.8739983"><ele>31.0</ele><time>2026-04-09T06:26:48.087Z</time></trkpt><trkpt lat="40.6525517" lon="14.8736533"><ele>31.0</ele><time>2026-04-09T06:26:49.087Z</time></trkpt><trkpt lat="40.6527067" lon="14.8733"><ele>31.0</ele><time>2026-04-09T06:26:50.087Z</time></trkpt><trkpt lat="40.65286" lon="14.8729433"><ele>31.0</ele><time>2026-04-09T06:26:51.087Z</time></trkpt><trkpt lat="40.65301" lon="14.8725933"><ele>31.0</ele><time>2026-04-09T06:26:52.087Z</time></trkpt><trkpt lat="40.6531583" lon="14.872245"><ele>31.0</ele><time>2026-04-09T06:26:53.087Z</time></trkpt><trkpt lat="40.6533" lon="14.8718933"><ele>31.0</ele><time>2026-04-09T06:26:54.087Z</time></trkpt><trkpt lat="40.6534417" lon="14.871545"><ele>31.5</ele><time>2026-04-09T06:26:55.087Z</time></trkpt><trkpt lat="40.65358" lon="14.8712083"><ele>32.0</ele><time>2026-04-09T06:26:56.087Z</time></trkpt><trkpt lat="40.65372" lon="14.8708717"><ele>34.5</ele><time>2026-04-09T06:26:57.087Z</time></trkpt><trkpt lat="40.65386" lon="14.870535"><ele>37.0</ele><time>2026-04-09T06:26:58.087Z</time></trkpt><trkpt lat="40.653995" lon="14.8702033"><ele>38.5</ele><time>2026-04-09T06:26:59.087Z</time></trkpt><trkpt lat="40.6541233" lon="14.86988"><ele>40.0</ele><time>2026-04-09T06:27:00.087Z</time></trkpt><trkpt lat="40.654255" lon="14.8695583"><ele>40.0</ele><time>2026-04-09T06:27:01.087Z</time></trkpt><trkpt lat="40.6543917" lon="14.869225"><ele>40.0</ele><time>2026-04-09T06:27:02.087Z</time></trkpt><trkpt lat="40.6545333" lon="14.8688883"><ele>41.5</ele><time>2026-04-09T06:27:03.087Z</time></trkpt><trkpt lat="40.6546717" lon="14.8685533"><ele>43.0</ele><time>2026-04-09T06:27:04.087Z</time></trkpt><trkpt lat="40.65481" lon="14.8682117"><ele>43.0</ele><time>2026-04-09T06:27:05.087Z</time></trkpt><trkpt lat="40.654955" lon="14.8678683"><ele>43.0</ele><time>2026-04-09T06:27:06.087Z</time></trkpt><trkpt lat="40.65509" lon="14.8675217"><ele>43.0</ele><time>2026-04-09T06:27:07.087Z</time></trkpt><trkpt lat="40.6552367" lon="14.8671783"><ele>43.0</ele><time>2026-04-09T06:27:08.087Z</time></trkpt><trkpt lat="40.6553783" lon="14.8668333"><ele>45.5</ele><time>2026-04-09T06:27:09.087Z</time></trkpt><trkpt lat="40.6555167" lon="14.8664933"><ele>48.0</ele><time>2026-04-09T06:27:10.087Z</time></trkpt><trkpt lat="40.6556633" lon="14.8661667"><ele>47.0</ele><time>2026-04-09T06:27:11.087Z</time></trkpt><trkpt lat="40.655805" lon="14.8658333"><ele>46.0</ele><time>2026-04-09T06:27:12.087Z</time></trkpt><trkpt lat="40.6559633" lon="14.8655117"><ele>45.5</ele><time>2026-04-09T06:27:13.087Z</time></trkpt><trkpt lat="40.6561217" lon="14.8652033"><ele>45.0</ele><time>2026-04-09T06:27:14.087Z</time></trkpt><trkpt lat="40.6562867" lon="14.8649017"><ele>46.0</ele><time>2026-04-09T06:27:15.087Z</time></trkpt><trkpt lat="40.6564667" lon="14.8646017"><ele>47.0</ele><time>2026-04-09T06:27:16.087Z</time></trkpt><trkpt lat="40.6566567" lon="14.8643117"><ele>47.5</ele><time>2026-04-09T06:27:17.087Z</time></trkpt><trkpt lat="40.65685" lon="14.8640267"><ele>48.0</ele><time>2026-04-09T06:27:18.087Z</time></trkpt><trkpt lat="40.65705" lon="14.8637483"><ele>48.5</ele><time>2026-04-09T06:27:19.087Z</time></trkpt><trkpt lat="40.6572567" lon="14.8634883"><ele>49.0</ele><time>2026-04-09T06:27:20.087Z</time></trkpt><trkpt lat="40.6574667" lon="14.863245"><ele>49.0</ele><time>2026-04-09T06:27:21.087Z</time></trkpt><trkpt lat="40.6576783" lon="14.86301"><ele>49.0</ele><time>2026-04-09T06:27:22.087Z</time></trkpt><trkpt lat="40.6578917" lon="14.8627867"><ele>50.5</ele><time>2026-04-09T06:27:23.087Z</time></trkpt><trkpt lat="40.6580967" lon="14.86258"><ele>52.0</ele><time>2026-04-09T06:27:24.087Z</time></trkpt><trkpt lat="40.6582917" lon="14.8623933"><ele>52.0</ele><time>2026-04-09T06:27:25.087Z</time></trkpt><trkpt lat="40.65849" lon="14.86222"><ele>52.0</ele><time>2026-04-09T06:27:26.087Z</time></trkpt><trkpt lat="40.6586833" lon="14.8620583"><ele>54.5</ele><time>2026-04-09T06:27:27.087Z</time></trkpt><trkpt lat="40.65887" lon="14.8618983"><ele>57.0</ele><time>2026-04-09T06:27:28.087Z</time></trkpt><trkpt lat="40.6590633" lon="14.861735"><ele>57.0</ele><time>2026-04-09T06:27:29.087Z</time></trkpt><trkpt lat="40.65927" lon="14.86157"><ele>57.0</ele><time>2026-04-09T06:27:30.087Z</time></trkpt><trkpt lat="40.6594667" lon="14.861405"><ele>62.5</ele><time>2026-04-09T06:27:31.087Z</time></trkpt><trkpt lat="40.6596667" lon="14.86124"><ele>68.0</ele><time>2026-04-09T06:27:32.087Z</time></trkpt><trkpt lat="40.6598633" lon="14.86107"><ele>64.0</ele><time>2026-04-09T06:27:33.087Z</time></trkpt><trkpt lat="40.66006" lon="14.8609"><ele>60.0</ele><time>2026-04-09T06:27:34.087Z</time></trkpt><trkpt lat="40.6602617" lon="14.8607367"><ele>65.0</ele><time>2026-04-09T06:27:35.087Z</time></trkpt><trkpt lat="40.66047" lon="14.86058"><ele>70.0</ele><time>2026-04-09T06:27:36.087Z</time></trkpt><trkpt lat="40.6606883" lon="14.860435"><ele>70.0</ele><time>2026-04-09T06:27:37.087Z</time></trkpt><trkpt lat="40.6608967" lon="14.8602783"><ele>70.0</ele><time>2026-04-09T06:27:38.087Z</time></trkpt><trkpt lat="40.6611183" lon="14.8601233"><ele>70.0</ele><time>2026-04-09T06:27:39.087Z</time></trkpt><trkpt lat="40.66135" lon="14.8599783"><ele>70.0</ele><time>2026-04-09T06:27:40.087Z</time></trkpt><trkpt lat="40.66158" lon="14.8598417"><ele>70.0</ele><time>2026-04-09T06:27:41.087Z</time></trkpt><trkpt lat="40.6618183" lon="14.8597183"><ele>70.0</ele><time>2026-04-09T06:27:42.087Z</time></trkpt><trkpt lat="40.6620567" lon="14.8595933"><ele>74.5</ele><time>2026-04-09T06:27:43.087Z</time></trkpt><trkpt lat="40.66229" lon="14.8594767"><ele>79.0</ele><time>2026-04-09T06:27:44.087Z</time></trkpt><trkpt lat="40.6625183" lon="14.859375"><ele>79.0</ele><time>2026-04-09T06:27:45.087Z</time></trkpt><trkpt lat="40.6627583" lon="14.8592867"><ele>79.0</ele><time>2026-04-09T06:27:46.087Z</time></trkpt><trkpt lat="40.6630017" lon="14.859205"><ele>86.0</ele><time>2026-04-09T06:27:47.087Z</time></trkpt><trkpt lat="40.6632483" lon="14.8591217"><ele>93.0</ele><time>2026-04-09T06:27:48.087Z</time></trkpt><trkpt lat="40.6635" lon="14.8590317"><ele>112.0</ele><time>2026-04-09T06:27:49.087Z</time></trkpt><trkpt lat="40.66375" lon="14.85895"><ele>131.0</ele><time>2026-04-09T06:27:50.087Z</time></trkpt><trkpt lat="40.664" lon="14.8588767"><ele>131.0</ele><time>2026-04-09T06:27:51.087Z</time></trkpt><trkpt lat="40.66425" lon="14.858795"><ele>131.0</ele><time>2026-04-09T06:27:52.087Z</time></trkpt><trkpt lat="40.670075" lon="14.8583567"><ele>135.5</ele><time>2026-04-09T06:28:12.085Z</time></trkpt><trkpt lat="40.6703767" lon="14.858335"><ele>140.0</ele><time>2026-04-09T06:28:13.085Z</time></trkpt><trkpt lat="40.6706983" lon="14.85831"><ele>140.0</ele><time>2026-04-09T06:28:14.085Z</time></trkpt><trkpt lat="40.67101" lon="14.8582967"><ele>140.0</ele><time>2026-04-09T06:28:15.085Z</time></trkpt><trkpt lat="40.671315" lon="14.858285"><ele>117.0</ele><time>2026-04-09T06:28:16.085Z</time></trkpt><trkpt lat="40.678055" lon="14.85759"><ele>117.0</ele><time>2026-04-09T06:28:39.083Z</time></trkpt><trkpt lat="40.6783783" lon="14.857555"><ele>117.0</ele><time>2026-04-09T06:28:40.083Z</time></trkpt><trkpt lat="40.678685" lon="14.8575083"><ele>115.5</ele><time>2026-04-09T06:28:41.083Z</time></trkpt><trkpt lat="40.6789933" lon="14.8574617"><ele>114.0</ele><time>2026-04-09T06:28:42.083Z</time></trkpt><trkpt lat="40.6792967" lon="14.8574067"><ele>114.0</ele><time>2026-04-09T06:28:43.083Z</time></trkpt><trkpt lat="40.6795917" lon="14.8573433"><ele>114.0</ele><time>2026-04-09T06:28:44.083Z</time></trkpt><trkpt lat="40.679885" lon="14.85727"><ele>114.0</ele><time>2026-04-09T06:28:45.083Z</time></trkpt><trkpt lat="40.680175" lon="14.8571933"><ele>114.0</ele><time>2026-04-09T06:28:46.083Z</time></trkpt><trkpt lat="40.68046" lon="14.8571067"><ele>114.0</ele><time>2026-04-09T06:28:47.083Z</time></trkpt><trkpt lat="40.6807317" lon="14.85701"><ele>114.0</ele><time>2026-04-09T06:28:48.083Z</time></trkpt><trkpt lat="40.6809983" lon="14.8569067"><ele>114.5</ele><time>2026-04-09T06:28:49.083Z</time></trkpt><trkpt lat="40.681255" lon="14.8567933"><ele>115.0</ele><time>2026-04-09T06:28:50.083Z</time></trkpt><trkpt lat="40.6815083" lon="14.8566617"><ele>115.0</ele><time>2026-04-09T06:28:51.083Z</time></trkpt><trkpt lat="40.6817617" lon="14.85652"><ele>115.0</ele><time>2026-04-09T06:28:52.083Z</time></trkpt><trkpt lat="40.6820167" lon="14.856365"><ele>115.5</ele><time>2026-04-09T06:28:53.083Z</time></trkpt><trkpt lat="40.6822633" lon="14.8561983"><ele>116.0</ele><time>2026-04-09T06:28:54.083Z</time></trkpt><trkpt lat="40.6824967" lon="14.8560267"><ele>114.5</ele><time>2026-04-09T06:28:55.083Z</time></trkpt><trkpt lat="40.6827233" lon="14.8558383"><ele>113.0</ele><time>2026-04-09T06:28:56.083Z</time></trkpt><trkpt lat="40.68295" lon="14.855645"><ele>113.0</ele><time>2026-04-09T06:28:57.083Z</time></trkpt><trkpt lat="40.6831767" lon="14.8554317"><ele>113.0</ele><time>2026-04-09T06:28:58.083Z</time></trkpt><trkpt lat="40.6833967" lon="14.8552117"><ele>113.0</ele><time>2026-04-09T06:28:59.083Z</time></trkpt><trkpt lat="40.6836133" lon="14.8549817"><ele>113.0</ele><time>2026-04-09T06:29:00.083Z</time></trkpt><trkpt lat="40.6838217" lon="14.8547367"><ele>113.0</ele><time>2026-04-09T06:29:01.083Z</time></trkpt><trkpt lat="40.68402" lon="14.8544833"><ele>113.0</ele><time>2026-04-09T06:29:02.083Z</time></trkpt><trkpt lat="40.6842133" lon="14.8542083"><ele>113.0</ele><time>2026-04-09T06:29:03.083Z</time></trkpt><trkpt lat="40.6844033" lon="14.8539333"><ele>113.0</ele><time>2026-04-09T06:29:04.083Z</time></trkpt><trkpt lat="40.6845933" lon="14.853655"><ele>114.0</ele><time>2026-04-09T06:29:05.083Z</time></trkpt><trkpt lat="40.68477" lon="14.8533683"><ele>115.0</ele><time>2026-04-09T06:29:06.083Z</time></trkpt><trkpt lat="40.6849433" lon="14.8530767"><ele>115.0</ele><time>2026-04-09T06:29:07.083Z</time></trkpt><trkpt lat="40.6851083" lon="14.8527683"><ele>115.0</ele><time>2026-04-09T06:29:08.083Z</time></trkpt><trkpt lat="40.6852583" lon="14.8524483"><ele>115.5</ele><time>2026-04-09T06:29:09.083Z</time></trkpt><trkpt lat="40.6853967" lon="14.8521217"><ele>116.0</ele><time>2026-04-09T06:29:10.083Z</time></trkpt><trkpt lat="40.68552" lon="14.8517967"><ele>114.0</ele><time>2026-04-09T06:29:11.083Z</time></trkpt><trkpt lat="40.68564" lon="14.8514683"><ele>112.0</ele><time>2026-04-09T06:29:12.083Z</time></trkpt><trkpt lat="40.68576" lon="14.8511283"><ele>110.5</ele><time>2026-04-09T06:29:13.083Z</time></trkpt><trkpt lat="40.68587" lon="14.8507883"><ele>109.0</ele><time>2026-04-09T06:29:14.083Z</time></trkpt><trkpt lat="40.6859783" lon="14.8504383"><ele>109.5</ele><time>2026-04-09T06:29:15.083Z</time></trkpt><trkpt lat="40.6860817" lon="14.850085"><ele>110.0</ele><time>2026-04-09T06:29:16.083Z</time></trkpt><trkpt lat="40.6861867" lon="14.8497167"><ele>110.5</ele><time>2026-04-09T06:29:17.083Z</time></trkpt><trkpt lat="40.686285" lon="14.84934"><ele>111.0</ele><time>2026-04-09T06:29:18.083Z</time></trkpt><trkpt lat="40.686385" lon="14.84896"><ele>111.0</ele><time>2026-04-09T06:29:19.083Z</time></trkpt><trkpt lat="40.686485" lon="14.8485733"><ele>111.0</ele><time>2026-04-09T06:29:20.083Z</time></trkpt><trkpt lat="40.6865833" lon="14.848185"><ele>111.5</ele><time>2026-04-09T06:29:21.083Z</time></trkpt><trkpt lat="40.68668" lon="14.847795"><ele>112.0</ele><time>2026-04-09T06:29:22.083Z</time></trkpt><trkpt lat="40.6867767" lon="14.8474133"><ele>115.5</ele><time>2026-04-09T06:29:23.083Z</time></trkpt><trkpt lat="40.6868733" lon="14.847035"><ele>119.0</ele><time>2026-04-09T06:29:24.083Z</time></trkpt><trkpt lat="40.6869717" lon="14.84666"><ele>120.5</ele><time>2026-04-09T06:29:25.083Z</time></trkpt><trkpt lat="40.6870733" lon="14.8462883"><ele>122.0</ele><time>2026-04-09T06:29:26.083Z</time></trkpt><trkpt lat="40.68717" lon="14.8459083"><ele>123.0</ele><time>2026-04-09T06:29:27.083Z</time></trkpt><trkpt lat="40.6872783" lon="14.845525"><ele>124.0</ele><time>2026-04-09T06:29:28.083Z</time></trkpt><trkpt lat="40.6873783" lon="14.8451483"><ele>125.0</ele><time>2026-04-09T06:29:29.083Z</time></trkpt><trkpt lat="40.68748" lon="14.8447717"><ele>126.0</ele><time>2026-04-09T06:29:30.083Z</time></trkpt><trkpt lat="40.6875817" lon="14.8443883"><ele>126.5</ele><time>2026-04-09T06:29:31.083Z</time></trkpt><trkpt lat="40.68769" lon="14.8440117"><ele>127.0</ele><time>2026-04-09T06:29:32.083Z</time></trkpt><trkpt lat="40.6877967" lon="14.8436317"><ele>128.0</ele><time>2026-04-09T06:29:33.083Z</time></trkpt><trkpt lat="40.68791" lon="14.8432583"><ele>129.0</ele><time>2026-04-09T06:29:34.083Z</time></trkpt><trkpt lat="40.6880267" lon="14.842885"><ele>129.5</ele><time>2026-04-09T06:29:35.083Z</time></trkpt><trkpt lat="40.688155" lon="14.84252"><ele>130.0</ele><time>2026-04-09T06:29:36.083Z</time></trkpt><trkpt lat="40.6882883" lon="14.8421517"><ele>130.5</ele><time>2026-04-09T06:29:37.084Z</time></trkpt><trkpt lat="40.6884267" lon="14.8417817"><ele>131.0</ele><time>2026-04-09T06:29:38.084Z</time></trkpt><trkpt lat="40.6885583" lon="14.841415"><ele>133.5</ele><time>2026-04-09T06:29:39.084Z</time></trkpt><trkpt lat="40.6887067" lon="14.8410583"><ele>136.0</ele><time>2026-04-09T06:29:40.084Z</time></trkpt><trkpt lat="40.6888567" lon="14.8407083"><ele>136.5</ele><time>2026-04-09T06:29:41.084Z</time></trkpt><trkpt lat="40.6890133" lon="14.8403583"><ele>137.0</ele><time>2026-04-09T06:29:42.084Z</time></trkpt><trkpt lat="40.689175" lon="14.8400067"><ele>137.5</ele><time>2026-04-09T06:29:43.084Z</time></trkpt><trkpt lat="40.6893317" lon="14.8396667"><ele>138.0</ele><time>2026-04-09T06:29:44.084Z</time></trkpt><trkpt lat="40.6895" lon="14.83935"><ele>140.0</ele><time>2026-04-09T06:29:45.084Z</time></trkpt><trkpt lat="40.6896683" lon="14.8390233"><ele>142.0</ele><time>2026-04-09T06:29:46.084Z</time></trkpt><trkpt lat="40.6898417" lon="14.8387067"><ele>142.5</ele><time>2026-04-09T06:29:47.084Z</time></trkpt><trkpt lat="40.6900217" lon="14.8383967"><ele>143.0</ele><time>2026-04-09T06:29:48.084Z</time></trkpt><trkpt lat="40.6902033" lon="14.8380867"><ele>145.0</ele><time>2026-04-09T06:29:49.084Z</time></trkpt><trkpt lat="40.6904" lon="14.837775"><ele>147.0</ele><time>2026-04-09T06:29:50.084Z</time></trkpt><trkpt lat="40.690605" lon="14.8374617"><ele>148.5</ele><time>2026-04-09T06:29:51.084Z</time></trkpt><trkpt lat="40.6908167" lon="14.8371533"><ele>150.0</ele><time>2026-04-09T06:29:52.084Z</time></trkpt><trkpt lat="40.691035" lon="14.83684"><ele>150.5</ele><time>2026-04-09T06:29:53.084Z</time></trkpt><trkpt lat="40.6912517" lon="14.836535"><ele>151.0</ele><time>2026-04-09T06:29:54.084Z</time></trkpt><trkpt lat="40.6914667" lon="14.8362267"><ele>151.5</ele><time>2026-04-09T06:29:55.084Z</time></trkpt><trkpt lat="40.6916983" lon="14.8359133"><ele>152.0</ele><time>2026-04-09T06:29:56.084Z</time></trkpt><trkpt lat="40.691935" lon="14.8356033"><ele>153.5</ele><time>2026-04-09T06:29:57.084Z</time></trkpt><trkpt lat="40.6921717" lon="14.8352933"><ele>155.0</ele><time>2026-04-09T06:29:58.084Z</time></trkpt><trkpt lat="40.6924133" lon="14.8349783"><ele>155.5</ele><time>2026-04-09T06:29:59.084Z</time></trkpt><trkpt lat="40.69265" lon="14.8346717"><ele>156.0</ele><time>2026-04-09T06:30:00.084Z</time></trkpt><trkpt lat="40.692885" lon="14.834365"><ele>157.0</ele><time>2026-04-09T06:30:01.084Z</time></trkpt><trkpt lat="40.6931233" lon="14.83406"><ele>158.0</ele><time>2026-04-09T06:30:02.084Z</time></trkpt><trkpt lat="40.6933567" lon="14.833755"><ele>159.0</ele><time>2026-04-09T06:30:03.084Z</time></trkpt><trkpt lat="40.6935783" lon="14.8334533"><ele>160.0</ele><time>2026-04-09T06:30:04.084Z</time></trkpt><trkpt lat="40.6938083" lon="14.8331567"><ele>160.5</ele><time>2026-04-09T06:30:05.084Z</time></trkpt><trkpt lat="40.6940317" lon="14.832855"><ele>161.0</ele><time>2026-04-09T06:30:06.084Z</time></trkpt><trkpt lat="40.6942517" lon="14.8325517"><ele>163.5</ele><time>2026-04-09T06:30:07.084Z</time></trkpt><trkpt lat="40.6944683" lon="14.8322517"><ele>166.0</ele><time>2026-04-09T06:30:08.084Z</time></trkpt><trkpt lat="40.694685" lon="14.8319483"><ele>166.0</ele><time>2026-04-09T06:30:09.084Z</time></trkpt><trkpt lat="40.6948983" lon="14.8316467"><ele>166.0</ele><time>2026-04-09T06:30:10.084Z</time></trkpt><trkpt lat="40.69511" lon="14.8313383"><ele>168.5</ele><time>2026-04-09T06:30:11.084Z</time></trkpt><trkpt lat="40.695315" lon="14.831035"><ele>171.0</ele><time>2026-04-09T06:30:12.084Z</time></trkpt><trkpt lat="40.6955133" lon="14.8307183"><ele>172.5</ele><time>2026-04-09T06:30:13.084Z</time></trkpt><trkpt lat="40.6957083" lon="14.8304"><ele>174.0</ele><time>2026-04-09T06:30:14.084Z</time></trkpt><trkpt lat="40.6958967" lon="14.8300733"><ele>174.5</ele><time>2026-04-09T06:30:15.084Z</time></trkpt><trkpt lat="40.6960783" lon="14.8297417"><ele>175.0</ele><time>2026-04-09T06:30:16.084Z</time></trkpt><trkpt lat="40.6962517" lon="14.8293967"><ele>177.0</ele><time>2026-04-09T06:30:17.084Z</time></trkpt><trkpt lat="40.6964183" lon="14.8290483"><ele>179.0</ele><time>2026-04-09T06:30:18.084Z</time></trkpt><trkpt lat="40.696585" lon="14.828705"><ele>178.0</ele><time>2026-04-09T06:30:19.084Z</time></trkpt><trkpt lat="40.6967483" lon="14.8283467"><ele>177.0</ele><time>2026-04-09T06:30:20.084Z</time></trkpt><trkpt lat="40.6969067" lon="14.8279783"><ele>178.0</ele><time>2026-04-09T06:30:21.084Z</time></trkpt><trkpt lat="40.6970567" lon="14.8276083"><ele>179.0</ele><time>2026-04-09T06:30:22.084Z</time></trkpt><trkpt lat="40.6971967" lon="14.82724"><ele>179.0</ele><time>2026-04-09T06:30:23.084Z</time></trkpt><trkpt lat="40.6973333" lon="14.8268667"><ele>179.0</ele><time>2026-04-09T06:30:24.084Z</time></trkpt><trkpt lat="40.697465" lon="14.8264917"><ele>177.5</ele><time>2026-04-09T06:30:25.084Z</time></trkpt><trkpt lat="40.6975883" lon="14.8261133"><ele>176.0</ele><time>2026-04-09T06:30:26.084Z</time></trkpt><trkpt lat="40.6977033" lon="14.825735"><ele>175.5</ele><time>2026-04-09T06:30:27.084Z</time></trkpt><trkpt lat="40.6978167" lon="14.8253533"><ele>175.0</ele><time>2026-04-09T06:30:28.084Z</time></trkpt><trkpt lat="40.6979183" lon="14.8249683"><ele>175.0</ele><time>2026-04-09T06:30:29.084Z</time></trkpt><trkpt lat="40.698015" lon="14.8245767"><ele>175.0</ele><time>2026-04-09T06:30:30.084Z</time></trkpt><trkpt lat="40.698105" lon="14.8241917"><ele>175.0</ele><time>2026-04-09T06:30:31.084Z</time></trkpt><trkpt lat="40.6981883" lon="14.823805"><ele>175.0</ele><time>2026-04-09T06:30:32.084Z</time></trkpt><trkpt lat="40.6982583" lon="14.823425"><ele>175.5</ele><time>2026-04-09T06:30:33.084Z</time></trkpt><trkpt lat="40.69833" lon="14.823045"><ele>176.0</ele><time>2026-04-09T06:30:34.084Z</time></trkpt><trkpt lat="40.6983983" lon="14.82266"><ele>176.5</ele><time>2026-04-09T06:30:35.084Z</time></trkpt><trkpt lat="40.69846" lon="14.8222717"><ele>177.0</ele><time>2026-04-09T06:30:36.084Z</time></trkpt><trkpt lat="40.6985167" lon="14.821875"><ele>176.5</ele><time>2026-04-09T06:30:37.084Z</time></trkpt><trkpt lat="40.6985667" lon="14.8214733"><ele>176.0</ele><time>2026-04-09T06:30:38.084Z</time></trkpt><trkpt lat="40.698615" lon="14.8210617"><ele>178.0</ele><time>2026-04-09T06:30:39.084Z</time></trkpt><trkpt lat="40.6986533" lon="14.8206517"><ele>180.0</ele><time>2026-04-09T06:30:40.084Z</time></trkpt><trkpt lat="40.6986933" lon="14.82023"><ele>180.5</ele><time>2026-04-09T06:30:41.084Z</time></trkpt><trkpt lat="40.6987317" lon="14.8198083"><ele>181.0</ele><time>2026-04-09T06:30:42.084Z</time></trkpt><trkpt lat="40.6987733" lon="14.8193717"><ele>182.0</ele><time>2026-04-09T06:30:43.084Z</time></trkpt><trkpt lat="40.69881" lon="14.8189383"><ele>183.0</ele><time>2026-04-09T06:30:44.084Z</time></trkpt><trkpt lat="40.6988433" lon="14.8185117"><ele>184.5</ele><time>2026-04-09T06:30:45.084Z</time></trkpt><trkpt lat="40.69888" lon="14.8180783"><ele>186.0</ele><time>2026-04-09T06:30:46.084Z</time></trkpt><trkpt lat="40.698915" lon="14.817645"><ele>187.0</ele><time>2026-04-09T06:30:47.084Z</time></trkpt><trkpt lat="40.69895" lon="14.8172083"><ele>188.0</ele><time>2026-04-09T06:30:48.084Z</time></trkpt><trkpt lat="40.6994683" lon="14.811235"><ele>182.0</ele><time>2026-04-09T06:31:02.084Z</time></trkpt><trkpt lat="40.69946" lon="14.81082"><ele>176.0</ele><time>2026-04-09T06:31:03.084Z</time></trkpt><trkpt lat="40.6994533" lon="14.8104017"><ele>177.0</ele><time>2026-04-09T06:31:04.084Z</time></trkpt><trkpt lat="40.6994383" lon="14.80998"><ele>178.0</ele><time>2026-04-09T06:31:05.084Z</time></trkpt><trkpt lat="40.699415" lon="14.8095617"><ele>173.0</ele><time>2026-04-09T06:31:06.084Z</time></trkpt><trkpt lat="40.69938" lon="14.8091467"><ele>168.0</ele><time>2026-04-09T06:31:07.084Z</time></trkpt><trkpt lat="40.6993367" lon="14.8087217"><ele>164.0</ele><time>2026-04-09T06:31:08.084Z</time></trkpt><trkpt lat="40.6992783" lon="14.8083"><ele>160.0</ele><time>2026-04-09T06:31:09.084Z</time></trkpt><trkpt lat="40.6992183" lon="14.807875"><ele>156.5</ele><time>2026-04-09T06:31:10.084Z</time></trkpt><trkpt lat="40.6991517" lon="14.8074567"><ele>153.0</ele><time>2026-04-09T06:31:11.084Z</time></trkpt><trkpt lat="40.6990783" lon="14.807035"><ele>154.0</ele><time>2026-04-09T06:31:12.084Z</time></trkpt><trkpt lat="40.6989967" lon="14.8066217"><ele>155.0</ele><time>2026-04-09T06:31:13.084Z</time></trkpt><trkpt lat="40.6989117" lon="14.8062067"><ele>156.0</ele><time>2026-04-09T06:31:14.084Z</time></trkpt><trkpt lat="40.6988233" lon="14.805795"><ele>157.0</ele><time>2026-04-09T06:31:15.084Z</time></trkpt><trkpt lat="40.6987333" lon="14.805385"><ele>153.5</ele><time>2026-04-09T06:31:16.084Z</time></trkpt><trkpt lat="40.69864" lon="14.8049833"><ele>150.0</ele><time>2026-04-09T06:31:17.084Z</time></trkpt><trkpt lat="40.6985533" lon="14.8045767"><ele>144.0</ele><time>2026-04-09T06:31:18.084Z</time></trkpt><trkpt lat="40.698465" lon="14.8041783"><ele>138.0</ele><time>2026-04-09T06:31:19.084Z</time></trkpt><trkpt lat="40.6983817" lon="14.8037767"><ele>139.5</ele><time>2026-04-09T06:31:20.084Z</time></trkpt><trkpt lat="40.6982967" lon="14.803375"><ele>141.0</ele><time>2026-04-09T06:31:21.084Z</time></trkpt><trkpt lat="40.6982083" lon="14.8029767"><ele>142.5</ele><time>2026-04-09T06:31:22.084Z</time></trkpt><trkpt lat="40.69812" lon="14.8025817"><ele>144.0</ele><time>2026-04-09T06:31:23.084Z</time></trkpt><trkpt lat="40.698025" lon="14.8021917"><ele>143.5</ele><time>2026-04-09T06:31:24.084Z</time></trkpt><trkpt lat="40.6979317" lon="14.801805"><ele>143.0</ele><time>2026-04-09T06:31:25.084Z</time></trkpt><trkpt lat="40.69784" lon="14.801415"><ele>143.0</ele><time>2026-04-09T06:31:26.084Z</time></trkpt><trkpt lat="40.697755" lon="14.8010283"><ele>143.0</ele><time>2026-04-09T06:31:27.084Z</time></trkpt><trkpt lat="40.6976783" lon="14.8006417"><ele>134.0</ele><time>2026-04-09T06:31:28.084Z</time></trkpt><trkpt lat="40.697605" lon="14.8002583"><ele>125.0</ele><time>2026-04-09T06:31:29.084Z</time></trkpt><trkpt lat="40.6975283" lon="14.7998667"><ele>125.0</ele><time>2026-04-09T06:31:30.084Z</time></trkpt><trkpt lat="40.697455" lon="14.7994717"><ele>125.0</ele><time>2026-04-09T06:31:31.084Z</time></trkpt><trkpt lat="40.6973883" lon="14.7990767"><ele>125.0</ele><time>2026-04-09T06:31:32.084Z</time></trkpt><trkpt lat="40.6973283" lon="14.7986717"><ele>125.0</ele><time>2026-04-09T06:31:33.084Z</time></trkpt><trkpt lat="40.69728" lon="14.7982683"><ele>122.5</ele><time>2026-04-09T06:31:34.084Z</time></trkpt><trkpt lat="40.69724" lon="14.797875"><ele>120.0</ele><time>2026-04-09T06:31:35.084Z</time></trkpt><trkpt lat="40.697205" lon="14.79749"><ele>118.0</ele><time>2026-04-09T06:31:36.084Z</time></trkpt><trkpt lat="40.6971733" lon="14.7971017"><ele>116.0</ele><time>2026-04-09T06:31:37.084Z</time></trkpt><trkpt lat="40.6971483" lon="14.7967183"><ele>114.0</ele><time>2026-04-09T06:31:38.084Z</time></trkpt><trkpt lat="40.6971317" lon="14.7963383"><ele>112.0</ele><time>2026-04-09T06:31:39.084Z</time></trkpt><trkpt lat="40.69712" lon="14.795945"><ele>112.5</ele><time>2026-04-09T06:31:40.084Z</time></trkpt><trkpt lat="40.697115" lon="14.7955433"><ele>113.0</ele><time>2026-04-09T06:31:41.084Z</time></trkpt><trkpt lat="40.6971167" lon="14.7951433"><ele>113.0</ele><time>2026-04-09T06:31:42.084Z</time></trkpt><trkpt lat="40.6971267" lon="14.794745"><ele>113.0</ele><time>2026-04-09T06:31:43.084Z</time></trkpt><trkpt lat="40.6971433" lon="14.7943483"><ele>114.0</ele><time>2026-04-09T06:31:44.084Z</time></trkpt><trkpt lat="40.697165" lon="14.7939533"><ele>115.0</ele><time>2026-04-09T06:31:45.084Z</time></trkpt><trkpt lat="40.6971883" lon="14.7935517"><ele>115.0</ele><time>2026-04-09T06:31:46.084Z</time></trkpt><trkpt lat="40.6972183" lon="14.793155"><ele>115.0</ele><time>2026-04-09T06:31:47.084Z</time></trkpt><trkpt lat="40.6972517" lon="14.7927633"><ele>112.5</ele><time>2026-04-09T06:31:48.084Z</time></trkpt><trkpt lat="40.69729" lon="14.7923717"><ele>110.0</ele><time>2026-04-09T06:31:49.084Z</time></trkpt><trkpt lat="40.697325" lon="14.7919883"><ele>107.5</ele><time>2026-04-09T06:31:50.084Z</time></trkpt><trkpt lat="40.6973583" lon="14.7916067"><ele>105.0</ele><time>2026-04-09T06:31:51.084Z</time></trkpt><trkpt lat="40.6973867" lon="14.7912283"><ele>103.0</ele><time>2026-04-09T06:31:52.084Z</time></trkpt><trkpt lat="40.69741" lon="14.79085"><ele>101.0</ele><time>2026-04-09T06:31:53.084Z</time></trkpt><trkpt lat="40.6974317" lon="14.7904667"><ele>99.0</ele><time>2026-04-09T06:31:54.084Z</time></trkpt><trkpt lat="40.6974333" lon="14.7900917"><ele>97.0</ele><time>2026-04-09T06:31:55.084Z</time></trkpt><trkpt lat="40.6974333" lon="14.7897183"><ele>96.5</ele><time>2026-04-09T06:31:56.084Z</time></trkpt><trkpt lat="40.6974233" lon="14.78934"><ele>96.0</ele><time>2026-04-09T06:31:57.084Z</time></trkpt><trkpt lat="40.6974033" lon="14.7889767"><ele>96.0</ele><time>2026-04-09T06:31:58.084Z</time></trkpt><trkpt lat="40.6973717" lon="14.7886317"><ele>96.0</ele><time>2026-04-09T06:31:59.084Z</time></trkpt><trkpt lat="40.6973417" lon="14.788285"><ele>93.0</ele><time>2026-04-09T06:32:00.084Z</time></trkpt><trkpt lat="40.697305" lon="14.787945"><ele>90.0</ele><time>2026-04-09T06:32:01.084Z</time></trkpt><trkpt lat="40.697255" lon="14.7876083"><ele>87.5</ele><time>2026-04-09T06:32:02.084Z</time></trkpt><trkpt lat="40.697195" lon="14.7872633"><ele>85.0</ele><time>2026-04-09T06:32:03.084Z</time></trkpt><trkpt lat="40.6971433" lon="14.7869067"><ele>85.0</ele><time>2026-04-09T06:32:04.084Z</time></trkpt><trkpt lat="40.6970817" lon="14.7865567"><ele>85.0</ele><time>2026-04-09T06:32:05.084Z</time></trkpt><trkpt lat="40.6970133" lon="14.786195"><ele>84.0</ele><time>2026-04-09T06:32:06.084Z</time></trkpt><trkpt lat="40.696945" lon="14.7858283"><ele>83.0</ele><time>2026-04-09T06:32:07.084Z</time></trkpt><trkpt lat="40.6968817" lon="14.785465"><ele>77.0</ele><time>2026-04-09T06:32:08.084Z</time></trkpt><trkpt lat="40.6968183" lon="14.7851117"><ele>71.0</ele><time>2026-04-09T06:32:09.084Z</time></trkpt><trkpt lat="40.69675" lon="14.784775"><ele>71.0</ele><time>2026-04-09T06:32:10.084Z</time></trkpt><trkpt lat="40.6966883" lon="14.7844483"><ele>71.0</ele><time>2026-04-09T06:32:11.084Z</time></trkpt><trkpt lat="40.696635" lon="14.7841233"><ele>71.0</ele><time>2026-04-09T06:32:12.084Z</time></trkpt><trkpt lat="40.6965767" lon="14.7838083"><ele>71.0</ele><time>2026-04-09T06:32:13.084Z</time></trkpt><trkpt lat="40.696525" lon="14.7835"><ele>72.0</ele><time>2026-04-09T06:32:14.084Z</time></trkpt><trkpt lat="40.696485" lon="14.7831883"><ele>73.0</ele><time>2026-04-09T06:32:15.084Z</time></trkpt><trkpt lat="40.69646" lon="14.78289"><ele>72.33333333333333</ele><time>2026-04-09T06:32:16.084Z</time></trkpt><trkpt lat="40.6964467" lon="14.7826083"><ele>71.66666666666667</ele><time>2026-04-09T06:32:17.084Z</time></trkpt><trkpt lat="40.6964633" lon="14.782325"><ele>71.0</ele><time>2026-04-09T06:32:18.084Z</time></trkpt><trkpt lat="40.6965033" lon="14.7820533"><ele>70.33333333333334</ele><time>2026-04-09T06:32:19.084Z</time></trkpt><trkpt lat="40.69656" lon="14.7817883"><ele>69.66666666666667</ele><time>2026-04-09T06:32:20.084Z</time></trkpt><trkpt lat="40.69664" lon="14.781525"><ele>69.0</ele><time>2026-04-09T06:32:21.084Z</time></trkpt><trkpt lat="40.6967467" lon="14.7812633"><ele>69.0</ele><time>2026-04-09T06:32:22.084Z</time></trkpt><trkpt lat="40.6968617" lon="14.7810283"><ele>69.0</ele><time>2026-04-09T06:32:23.084Z</time></trkpt><trkpt lat="40.696995" lon="14.7808117"><ele>69.0</ele><time>2026-04-09T06:32:24.084Z</time></trkpt><trkpt lat="40.6971433" lon="14.7806067"><ele>71.66666666666667</ele><time>2026-04-09T06:32:25.084Z</time></trkpt><trkpt lat="40.6973" lon="14.7804083"><ele>74.33333333333334</ele><time>2026-04-09T06:32:26.084Z</time></trkpt><trkpt lat="40.6974833" lon="14.7802283"><ele>77.0</ele><time>2026-04-09T06:32:27.084Z</time></trkpt><trkpt lat="40.6976733" lon="14.7800483"><ele>80.0</ele><time>2026-04-09T06:32:28.084Z</time></trkpt><trkpt lat="40.6978717" lon="14.7798783"><ele>83.0</ele><time>2026-04-09T06:32:29.084Z</time></trkpt><trkpt lat="40.698075" lon="14.7797317"><ele>83.0</ele><time>2026-04-09T06:32:30.084Z</time></trkpt><trkpt lat="40.69829" lon="14.77958"><ele>83.0</ele><time>2026-04-09T06:32:31.084Z</time></trkpt><trkpt lat="40.6985067" lon="14.779445"><ele>76.0</ele><time>2026-04-09T06:32:32.084Z</time></trkpt><trkpt lat="40.698725" lon="14.7793317"><ele>69.0</ele><time>2026-04-09T06:32:33.084Z</time></trkpt><trkpt lat="40.69895" lon="14.7792333"><ele>69.0</ele><time>2026-04-09T06:32:34.084Z</time></trkpt><trkpt lat="40.6991783" lon="14.7791467"><ele>69.0</ele><time>2026-04-09T06:32:35.084Z</time></trkpt><trkpt lat="40.6994133" lon="14.779075"><ele>68.5</ele><time>2026-04-09T06:32:36.084Z</time></trkpt><trkpt lat="40.6996533" lon="14.77901"><ele>68.0</ele><time>2026-04-09T06:32:37.084Z</time></trkpt><trkpt lat="40.6999017" lon="14.77895"><ele>68.0</ele><time>2026-04-09T06:32:38.084Z</time></trkpt><trkpt lat="40.700165" lon="14.7788917"><ele>68.0</ele><time>2026-04-09T06:32:39.084Z</time></trkpt><trkpt lat="40.7004367" lon="14.778845"><ele>70.5</ele><time>2026-04-09T06:32:40.084Z</time></trkpt><trkpt lat="40.700725" lon="14.7788033"><ele>73.0</ele><time>2026-04-09T06:32:41.084Z</time></trkpt><trkpt lat="40.70101" lon="14.778765"><ele>76.0</ele><time>2026-04-09T06:32:42.084Z</time></trkpt><trkpt lat="40.701295" lon="14.7787417"><ele>79.0</ele><time>2026-04-09T06:32:43.084Z</time></trkpt><trkpt lat="40.7015883" lon="14.7787217"><ele>79.0</ele><time>2026-04-09T06:32:44.084Z</time></trkpt><trkpt lat="40.7018867" lon="14.7786933"><ele>79.0</ele><time>2026-04-09T06:32:45.084Z</time></trkpt><trkpt lat="40.702185" lon="14.7786667"><ele>81.5</ele><time>2026-04-09T06:32:46.084Z</time></trkpt><trkpt lat="40.7024917" lon="14.7786367"><ele>84.0</ele><time>2026-04-09T06:32:47.084Z</time></trkpt><trkpt lat="40.7027833" lon="14.7786017"><ele>86.0</ele><time>2026-04-09T06:32:48.084Z</time></trkpt><trkpt lat="40.7030633" lon="14.7785717"><ele>88.0</ele><time>2026-04-09T06:32:49.084Z</time></trkpt><trkpt lat="40.7033267" lon="14.7785417"><ele>84.5</ele><time>2026-04-09T06:32:50.084Z</time></trkpt><trkpt lat="40.7035817" lon="14.7785167"><ele>81.0</ele><time>2026-04-09T06:32:51.084Z</time></trkpt><trkpt lat="40.7038317" lon="14.7784967"><ele>81.0</ele><time>2026-04-09T06:32:52.084Z</time></trkpt><trkpt lat="40.704075" lon="14.7784717"><ele>81.0</ele><time>2026-04-09T06:32:53.084Z</time></trkpt><trkpt lat="40.7043133" lon="14.77845"><ele>83.0</ele><time>2026-04-09T06:32:54.084Z</time></trkpt><trkpt lat="40.7045533" lon="14.7784383"><ele>85.0</ele><time>2026-04-09T06:32:55.084Z</time></trkpt><trkpt lat="40.704785" lon="14.7784417"><ele>85.0</ele><time>2026-04-09T06:32:56.084Z</time></trkpt><trkpt lat="40.7050117" lon="14.7784567"><ele>85.0</ele><time>2026-04-09T06:32:57.084Z</time></trkpt><trkpt lat="40.7052333" lon="14.7785"><ele>87.5</ele><time>2026-04-09T06:32:58.084Z</time></trkpt><trkpt lat="40.7054567" lon="14.77856"><ele>90.0</ele><time>2026-04-09T06:32:59.084Z</time></trkpt><trkpt lat="40.7056783" lon="14.7786333"><ele>90.0</ele><time>2026-04-09T06:33:00.084Z</time></trkpt><trkpt lat="40.7058983" lon="14.7787267"><ele>90.0</ele><time>2026-04-09T06:33:01.084Z</time></trkpt><trkpt lat="40.7061183" lon="14.778825"><ele>91.0</ele><time>2026-04-09T06:33:02.084Z</time></trkpt><trkpt lat="40.7063433" lon="14.7789417"><ele>92.0</ele><time>2026-04-09T06:33:03.084Z</time></trkpt><trkpt lat="40.7065717" lon="14.7790667"><ele>92.0</ele><time>2026-04-09T06:33:04.084Z</time></trkpt><trkpt lat="40.7067917" lon="14.7791967"><ele>92.0</ele><time>2026-04-09T06:33:05.084Z</time></trkpt><trkpt lat="40.70702" lon="14.779325"><ele>98.0</ele><time>2026-04-09T06:33:06.084Z</time></trkpt><trkpt lat="40.7072433" lon="14.77945"><ele>104.0</ele><time>2026-04-09T06:33:07.084Z</time></trkpt><trkpt lat="40.7074517" lon="14.7795683"><ele>104.0</ele><time>2026-04-09T06:33:08.084Z</time></trkpt><trkpt lat="40.7076567" lon="14.77969"><ele>104.0</ele><time>2026-04-09T06:33:09.084Z</time></trkpt><trkpt lat="40.70786" lon="14.7798083"><ele>104.0</ele><time>2026-04-09T06:33:10.084Z</time></trkpt><trkpt lat="40.708065" lon="14.7799167"><ele>104.0</ele><time>2026-04-09T06:33:11.084Z</time></trkpt><trkpt lat="40.708275" lon="14.7800133"><ele>104.0</ele><time>2026-04-09T06:33:12.084Z</time></trkpt><trkpt lat="40.70849" lon="14.7800983"><ele>104.0</ele><time>2026-04-09T06:33:13.084Z</time></trkpt><trkpt lat="40.70871" lon="14.7801733"><ele>112.5</ele><time>2026-04-09T06:33:14.084Z</time></trkpt><trkpt lat="40.7089367" lon="14.78023"><ele>121.0</ele><time>2026-04-09T06:33:15.084Z</time></trkpt><trkpt lat="40.7091683" lon="14.7802717"><ele>121.0</ele><time>2026-04-09T06:33:16.084Z</time></trkpt><trkpt lat="40.7093933" lon="14.780285"><ele>121.0</ele><time>2026-04-09T06:33:17.084Z</time></trkpt><trkpt lat="40.7096217" lon="14.7802983"><ele>122.0</ele><time>2026-04-09T06:33:18.084Z</time></trkpt><trkpt lat="40.7098583" lon="14.7802967"><ele>123.0</ele><time>2026-04-09T06:33:19.084Z</time></trkpt><trkpt lat="40.7101" lon="14.7802783"><ele>126.0</ele><time>2026-04-09T06:33:20.084Z</time></trkpt><trkpt lat="40.7103317" lon="14.7802367"><ele>129.0</ele><time>2026-04-09T06:33:21.084Z</time></trkpt><trkpt lat="40.710565" lon="14.780185"><ele>120.0</ele><time>2026-04-09T06:33:22.084Z</time></trkpt><trkpt lat="40.7107983" lon="14.7800983"><ele>111.0</ele><time>2026-04-09T06:33:23.084Z</time></trkpt><trkpt lat="40.71103" lon="14.78001"><ele>112.5</ele><time>2026-04-09T06:33:24.084Z</time></trkpt><trkpt lat="40.71125" lon="14.7799083"><ele>114.0</ele><time>2026-04-09T06:33:25.084Z</time></trkpt><trkpt lat="40.7114733" lon="14.7798067"><ele>114.0</ele><time>2026-04-09T06:33:26.084Z</time></trkpt><trkpt lat="40.7116917" lon="14.77971"><ele>114.0</ele><time>2026-04-09T06:33:27.084Z</time></trkpt><trkpt lat="40.71191" lon="14.7796167"><ele>116.66666666666666</ele><time>2026-04-09T06:33:28.084Z</time></trkpt><trkpt lat="40.7121217" lon="14.7795267"><ele>119.33333333333333</ele><time>2026-04-09T06:33:29.084Z</time></trkpt><trkpt lat="40.7123233" lon="14.7794417"><ele>122.0</ele><time>2026-04-09T06:33:30.084Z</time></trkpt><trkpt lat="40.7125133" lon="14.7793683"><ele>121.0</ele><time>2026-04-09T06:33:31.084Z</time></trkpt><trkpt lat="40.7127017" lon="14.7793083"><ele>120.0</ele><time>2026-04-09T06:33:32.084Z</time></trkpt><trkpt lat="40.7128867" lon="14.7792617"><ele>119.0</ele><time>2026-04-09T06:33:33.084Z</time></trkpt><trkpt lat="40.7130567" lon="14.7792183"><ele>119.0</ele><time>2026-04-09T06:33:34.084Z</time></trkpt><trkpt lat="40.713225" lon="14.77918"><ele>119.0</ele><time>2026-04-09T06:33:35.084Z</time></trkpt><trkpt lat="40.7133867" lon="14.7791383"><ele>119.0</ele><time>2026-04-09T06:33:36.084Z</time></trkpt><trkpt lat="40.7135267" lon="14.7791033"><ele>118.6</ele><time>2026-04-09T06:33:37.084Z</time></trkpt><trkpt lat="40.71365" lon="14.7790783"><ele>118.2</ele><time>2026-04-09T06:33:38.084Z</time></trkpt><trkpt lat="40.7137533" lon="14.7790633"><ele>117.79999999999998</ele><time>2026-04-09T06:33:39.084Z</time></trkpt><trkpt lat="40.7138433" lon="14.7790517"><ele>117.39999999999999</ele><time>2026-04-09T06:33:40.084Z</time></trkpt><trkpt lat="40.71393" lon="14.7790367"><ele>117.0</ele><time>2026-04-09T06:33:41.084Z</time></trkpt><trkpt lat="40.7140183" lon="14.7790217"><ele>117.0</ele><time>2026-04-09T06:33:42.084Z</time></trkpt><trkpt lat="40.714105" lon="14.7790067"><ele>116.99999999999999</ele><time>2026-04-09T06:33:43.084Z</time></trkpt><trkpt lat="40.7141883" lon="14.77899"><ele>116.99999999999999</ele><time>2026-04-09T06:33:44.084Z</time></trkpt><trkpt lat="40.7142817" lon="14.7789733"><ele>117.0</ele><time>2026-04-09T06:33:45.084Z</time></trkpt><trkpt lat="40.7143933" lon="14.7789467"><ele>117.0</ele><time>2026-04-09T06:33:46.084Z</time></trkpt><trkpt lat="40.71453" lon="14.7789233"><ele>121.0</ele><time>2026-04-09T06:33:47.084Z</time></trkpt><trkpt lat="40.7146783" lon="14.7788967"><ele>125.0</ele><time>2026-04-09T06:33:48.084Z</time></trkpt><trkpt lat="40.71484" lon="14.7788683"><ele>129.0</ele><time>2026-04-09T06:33:49.084Z</time></trkpt><trkpt lat="40.7150033" lon="14.7788367"><ele>129.0</ele><time>2026-04-09T06:33:50.084Z</time></trkpt><trkpt lat="40.7151717" lon="14.7788083"><ele>129.0</ele><time>2026-04-09T06:33:51.084Z</time></trkpt><trkpt lat="40.7153467" lon="14.7787783"><ele>129.0</ele><time>2026-04-09T06:33:52.084Z</time></trkpt><trkpt lat="40.7155067" lon="14.7787467"><ele>132.66666666666666</ele><time>2026-04-09T06:33:53.084Z</time></trkpt><trkpt lat="40.7156583" lon="14.7787083"><ele>136.33333333333331</ele><time>2026-04-09T06:33:54.084Z</time></trkpt><trkpt lat="40.715815" lon="14.7786817"><ele>140.0</ele><time>2026-04-09T06:33:55.084Z</time></trkpt><trkpt lat="40.71597" lon="14.7786533"><ele>145.66666666666666</ele><time>2026-04-09T06:33:56.084Z</time></trkpt><trkpt lat="40.7161383" lon="14.77862"><ele>151.33333333333334</ele><time>2026-04-09T06:33:57.084Z</time></trkpt><trkpt lat="40.716315" lon="14.77859"><ele>157.0</ele><time>2026-04-09T06:33:58.084Z</time></trkpt><trkpt lat="40.7164917" lon="14.7785617"><ele>157.0</ele><time>2026-04-09T06:33:59.084Z</time></trkpt><trkpt lat="40.7166683" lon="14.77853"><ele>157.0</ele><time>2026-04-09T06:34:00.084Z</time></trkpt><trkpt lat="40.7168333" lon="14.7785067"><ele>157.0</ele><time>2026-04-09T06:34:01.084Z</time></trkpt><trkpt lat="40.7169967" lon="14.778495"><ele>150.66666666666669</ele><time>2026-04-09T06:34:02.084Z</time></trkpt><trkpt lat="40.7171567" lon="14.7784717"><ele>144.33333333333334</ele><time>2026-04-09T06:34:03.084Z</time></trkpt><trkpt lat="40.7173233" lon="14.7784483"><ele>138.0</ele><time>2026-04-09T06:34:04.084Z</time></trkpt><trkpt lat="40.7174867" lon="14.7784233"><ele>138.0</ele><time>2026-04-09T06:34:05.084Z</time></trkpt><trkpt lat="40.717655" lon="14.7784"><ele>138.0</ele><time>2026-04-09T06:34:06.084Z</time></trkpt><trkpt lat="40.71784" lon="14.7783733"><ele>138.0</ele><time>2026-04-09T06:34:07.084Z</time></trkpt><trkpt lat="40.7180367" lon="14.7783417"><ele>138.33333333333334</ele><time>2026-04-09T06:34:08.084Z</time></trkpt><trkpt lat="40.7182383" lon="14.778315"><ele>138.66666666666669</ele><time>2026-04-09T06:34:09.084Z</time></trkpt><trkpt lat="40.7184417" lon="14.77828"><ele>139.0</ele><time>2026-04-09T06:34:10.084Z</time></trkpt><trkpt lat="40.7186517" lon="14.7782367"><ele>138.33333333333334</ele><time>2026-04-09T06:34:11.084Z</time></trkpt><trkpt lat="40.7188567" lon="14.778205"><ele>137.66666666666666</ele><time>2026-04-09T06:34:12.084Z</time></trkpt><trkpt lat="40.71905" lon="14.778165"><ele>137.0</ele><time>2026-04-09T06:34:13.084Z</time></trkpt><trkpt lat="40.7192483" lon="14.7781333"><ele>138.33333333333331</ele><time>2026-04-09T06:34:14.084Z</time></trkpt><trkpt lat="40.7194467" lon="14.778095"><ele>139.66666666666666</ele><time>2026-04-09T06:34:15.084Z</time></trkpt><trkpt lat="40.7196317" lon="14.77806"><ele>141.0</ele><time>2026-04-09T06:34:16.084Z</time></trkpt><trkpt lat="40.71982" lon="14.77802"><ele>141.0</ele><time>2026-04-09T06:34:17.084Z</time></trkpt><trkpt lat="40.72001" lon="14.777985"><ele>141.0</ele><time>2026-04-09T06:34:18.084Z</time></trkpt><trkpt lat="40.7201967" lon="14.7779483"><ele>141.0</ele><time>2026-04-09T06:34:19.084Z</time></trkpt><trkpt lat="40.72038" lon="14.77791"><ele>141.66666666666666</ele><time>2026-04-09T06:34:20.084Z</time></trkpt><trkpt lat="40.72056" lon="14.7778567"><ele>142.33333333333331</ele><time>2026-04-09T06:34:21.084Z</time></trkpt><trkpt lat="40.7207367" lon="14.777795"><ele>143.0</ele><time>2026-04-09T06:34:22.084Z</time></trkpt><trkpt lat="40.7209133" lon="14.7777317"><ele>144.33333333333331</ele><time>2026-04-09T06:34:23.084Z</time></trkpt><trkpt lat="40.7210933" lon="14.777655"><ele>145.66666666666666</ele><time>2026-04-09T06:34:24.084Z</time></trkpt><trkpt lat="40.7212783" lon="14.7775617"><ele>147.0</ele><time>2026-04-09T06:34:25.084Z</time></trkpt><trkpt lat="40.7214617" lon="14.77746"><ele>147.0</ele><time>2026-04-09T06:34:26.084Z</time></trkpt><trkpt lat="40.7216267" lon="14.777365"><ele>147.0</ele><time>2026-04-09T06:34:27.084Z</time></trkpt><trkpt lat="40.7217967" lon="14.777265"><ele>147.0</ele><time>2026-04-09T06:34:28.084Z</time></trkpt><trkpt lat="40.7219733" lon="14.77717"><ele>156.33333333333334</ele><time>2026-04-09T06:34:29.084Z</time></trkpt><trkpt lat="40.72215" lon="14.77707"><ele>165.66666666666669</ele><time>2026-04-09T06:34:30.084Z</time></trkpt><trkpt lat="40.7223267" lon="14.7769683"><ele>175.0</ele><time>2026-04-09T06:34:31.084Z</time></trkpt><trkpt lat="40.7225083" lon="14.7768633"><ele>162.0</ele><time>2026-04-09T06:34:32.084Z</time></trkpt><trkpt lat="40.723235" lon="14.7763733"><ele>162.0</ele><time>2026-04-09T06:34:36.084Z</time></trkpt><trkpt lat="40.7234033" lon="14.7762617"><ele>162.0</ele><time>2026-04-09T06:34:37.084Z</time></trkpt><trkpt lat="40.7235967" lon="14.776195"><ele>162.0</ele><time>2026-04-09T06:34:38.084Z</time></trkpt><trkpt lat="40.7237833" lon="14.7761067"><ele>159.33333333333334</ele><time>2026-04-09T06:34:39.084Z</time></trkpt><trkpt lat="40.72398" lon="14.776025"><ele>156.66666666666669</ele><time>2026-04-09T06:34:40.084Z</time></trkpt><trkpt lat="40.72418" lon="14.775955"><ele>154.0</ele><time>2026-04-09T06:34:41.084Z</time></trkpt><trkpt lat="40.7243783" lon="14.7758983"><ele>152.33333333333334</ele><time>2026-04-09T06:34:42.084Z</time></trkpt><trkpt lat="40.724575" lon="14.7758533"><ele>150.66666666666666</ele><time>2026-04-09T06:34:43.084Z</time></trkpt><trkpt lat="40.72477" lon="14.7758183"><ele>149.0</ele><time>2026-04-09T06:34:44.084Z</time></trkpt><trkpt lat="40.7249617" lon="14.7757933"><ele>149.0</ele><time>2026-04-09T06:34:45.084Z</time></trkpt><trkpt lat="40.7251567" lon="14.77578"><ele>149.0</ele><time>2026-04-09T06:34:46.084Z</time></trkpt><trkpt lat="40.7253567" lon="14.77576"><ele>149.0</ele><time>2026-04-09T06:34:47.084Z</time></trkpt><trkpt lat="40.7255533" lon="14.77574"><ele>151.0</ele><time>2026-04-09T06:34:48.084Z</time></trkpt><trkpt lat="40.7257483" lon="14.775725"><ele>153.0</ele><time>2026-04-09T06:34:49.084Z</time></trkpt><trkpt lat="40.7259383" lon="14.7757167"><ele>155.0</ele><time>2026-04-09T06:34:50.084Z</time></trkpt><trkpt lat="40.7261333" lon="14.7757017"><ele>155.66666666666666</ele><time>2026-04-09T06:34:51.084Z</time></trkpt><trkpt lat="40.7263183" lon="14.775685"><ele>156.33333333333334</ele><time>2026-04-09T06:34:52.084Z</time></trkpt><trkpt lat="40.726495" lon="14.7756767"><ele>157.0</ele><time>2026-04-09T06:34:53.084Z</time></trkpt><trkpt lat="40.7266717" lon="14.7756617"><ele>157.0</ele><time>2026-04-09T06:34:54.084Z</time></trkpt><trkpt lat="40.7268367" lon="14.77565"><ele>157.0</ele><time>2026-04-09T06:34:55.084Z</time></trkpt><trkpt lat="40.726995" lon="14.7756417"><ele>157.0</ele><time>2026-04-09T06:34:56.084Z</time></trkpt><trkpt lat="40.72716" lon="14.7756317"><ele>158.33333333333334</ele><time>2026-04-09T06:34:57.084Z</time></trkpt><trkpt lat="40.7273283" lon="14.7756217"><ele>159.66666666666666</ele><time>2026-04-09T06:34:58.084Z</time></trkpt><trkpt lat="40.7274983" lon="14.7756067"><ele>161.0</ele><time>2026-04-09T06:34:59.084Z</time></trkpt><trkpt lat="40.7276683" lon="14.7755917"><ele>161.66666666666666</ele><time>2026-04-09T06:35:00.084Z</time></trkpt><trkpt lat="40.72784" lon="14.7755817"><ele>162.33333333333334</ele><time>2026-04-09T06:35:01.084Z</time></trkpt><trkpt lat="40.7280217" lon="14.775565"><ele>163.0</ele><time>2026-04-09T06:35:02.084Z</time></trkpt><trkpt lat="40.7282067" lon="14.7755533"><ele>163.0</ele><time>2026-04-09T06:35:03.084Z</time></trkpt><trkpt lat="40.7283933" lon="14.7755433"><ele>163.0</ele><time>2026-04-09T06:35:04.084Z</time></trkpt><trkpt lat="40.7285767" lon="14.77553"><ele>163.0</ele><time>2026-04-09T06:35:05.084Z</time></trkpt><trkpt lat="40.7287667" lon="14.775515"><ele>164.33333333333334</ele><time>2026-04-09T06:35:06.084Z</time></trkpt><trkpt lat="40.728955" lon="14.7755083"><ele>165.66666666666666</ele><time>2026-04-09T06:35:07.084Z</time></trkpt><trkpt lat="40.7291517" lon="14.77549"><ele>167.0</ele><time>2026-04-09T06:35:08.084Z</time></trkpt><trkpt lat="40.72936" lon="14.7754767"><ele>168.66666666666666</ele><time>2026-04-09T06:35:09.084Z</time></trkpt><trkpt lat="40.7295717" lon="14.7754633"><ele>170.33333333333334</ele><time>2026-04-09T06:35:10.084Z</time></trkpt><trkpt lat="40.7297817" lon="14.775445"><ele>172.0</ele><time>2026-04-09T06:35:11.084Z</time></trkpt><trkpt lat="40.7299817" lon="14.7754267"><ele>172.0</ele><time>2026-04-09T06:35:12.084Z</time></trkpt><trkpt lat="40.730185" lon="14.7754117"><ele>172.0</ele><time>2026-04-09T06:35:13.084Z</time></trkpt><trkpt lat="40.7303917" lon="14.7754017"><ele>172.0</ele><time>2026-04-09T06:35:14.084Z</time></trkpt><trkpt lat="40.73061" lon="14.77539"><ele>172.33333333333334</ele><time>2026-04-09T06:35:15.084Z</time></trkpt><trkpt lat="40.7308267" lon="14.7753783"><ele>172.66666666666666</ele><time>2026-04-09T06:35:16.084Z</time></trkpt><trkpt lat="40.7310483" lon="14.775365"><ele>173.0</ele><time>2026-04-09T06:35:17.084Z</time></trkpt><trkpt lat="40.7312783" lon="14.7753667"><ele>171.0</ele><time>2026-04-09T06:35:18.084Z</time></trkpt><trkpt lat="40.7315117" lon="14.7753733"><ele>169.0</ele><time>2026-04-09T06:35:19.084Z</time></trkpt><trkpt lat="40.7317467" lon="14.7753867"><ele>168.5</ele><time>2026-04-09T06:35:20.084Z</time></trkpt><trkpt lat="40.731985" lon="14.7754"><ele>168.0</ele><time>2026-04-09T06:35:21.084Z</time></trkpt><trkpt lat="40.7322267" lon="14.7754167"><ele>168.0</ele><time>2026-04-09T06:35:22.084Z</time></trkpt><trkpt lat="40.732475" lon="14.7754417"><ele>168.0</ele><time>2026-04-09T06:35:23.084Z</time></trkpt><trkpt lat="40.7327267" lon="14.7754767"><ele>170.0</ele><time>2026-04-09T06:35:24.084Z</time></trkpt><trkpt lat="40.7329817" lon="14.7755217"><ele>172.0</ele><time>2026-04-09T06:35:25.084Z</time></trkpt><trkpt lat="40.7332367" lon="14.7755883"><ele>172.0</ele><time>2026-04-09T06:35:26.084Z</time></trkpt><trkpt lat="40.7334983" lon="14.7756783"><ele>172.0</ele><time>2026-04-09T06:35:27.084Z</time></trkpt><trkpt lat="40.7337683" lon="14.7757817"><ele>171.5</ele><time>2026-04-09T06:35:28.084Z</time></trkpt><trkpt lat="40.734045" lon="14.7758883"><ele>171.0</ele><time>2026-04-09T06:35:29.084Z</time></trkpt><trkpt lat="40.7343233" lon="14.776"><ele>173.5</ele><time>2026-04-09T06:35:30.084Z</time></trkpt><trkpt lat="40.7346033" lon="14.77612"><ele>176.0</ele><time>2026-04-09T06:35:31.084Z</time></trkpt><trkpt lat="40.73487" lon="14.7762483"><ele>176.0</ele><time>2026-04-09T06:35:32.084Z</time></trkpt><trkpt lat="40.7351317" lon="14.7763933"><ele>176.0</ele><time>2026-04-09T06:35:33.084Z</time></trkpt><trkpt lat="40.735385" lon="14.7765517"><ele>175.5</ele><time>2026-04-09T06:35:34.084Z</time></trkpt><trkpt lat="40.7356333" lon="14.776715"><ele>175.0</ele><time>2026-04-09T06:35:35.084Z</time></trkpt><trkpt lat="40.7358783" lon="14.77689"><ele>178.0</ele><time>2026-04-09T06:35:36.084Z</time></trkpt><trkpt lat="40.7361183" lon="14.7770717"><ele>181.0</ele><time>2026-04-09T06:35:37.084Z</time></trkpt><trkpt lat="40.7363567" lon="14.777265"><ele>181.0</ele><time>2026-04-09T06:35:38.084Z</time></trkpt><trkpt lat="40.73659" lon="14.7774683"><ele>181.0</ele><time>2026-04-09T06:35:39.084Z</time></trkpt><trkpt lat="40.736815" lon="14.777675"><ele>184.0</ele><time>2026-04-09T06:35:40.084Z</time></trkpt><trkpt lat="40.7370333" lon="14.7778817"><ele>187.0</ele><time>2026-04-09T06:35:41.084Z</time></trkpt><trkpt lat="40.7372467" lon="14.7781067"><ele>187.0</ele><time>2026-04-09T06:35:42.084Z</time></trkpt><trkpt lat="40.7374533" lon="14.7783367"><ele>187.0</ele><time>2026-04-09T06:35:43.084Z</time></trkpt><trkpt lat="40.7376617" lon="14.7785733"><ele>189.5</ele><time>2026-04-09T06:35:44.084Z</time></trkpt><trkpt lat="40.7378717" lon="14.7788217"><ele>192.0</ele><time>2026-04-09T06:35:45.084Z</time></trkpt><trkpt lat="40.738085" lon="14.7790767"><ele>192.0</ele><time>2026-04-09T06:35:46.084Z</time></trkpt><trkpt lat="40.7383067" lon="14.7793317"><ele>192.0</ele><time>2026-04-09T06:35:47.084Z</time></trkpt><trkpt lat="40.738525" lon="14.779575"><ele>195.0</ele><time>2026-04-09T06:35:48.084Z</time></trkpt><trkpt lat="40.738755" lon="14.7798183"><ele>198.0</ele><time>2026-04-09T06:35:49.084Z</time></trkpt><trkpt lat="40.7389833" lon="14.7800617"><ele>201.0</ele><time>2026-04-09T06:35:50.084Z</time></trkpt><trkpt lat="40.7392167" lon="14.7803167"><ele>204.0</ele><time>2026-04-09T06:35:51.084Z</time></trkpt><trkpt lat="40.739445" lon="14.7805583"><ele>206.0</ele><time>2026-04-09T06:35:52.084Z</time></trkpt><trkpt lat="40.7396667" lon="14.7808133"><ele>208.0</ele><time>2026-04-09T06:35:53.084Z</time></trkpt><trkpt lat="40.7398817" lon="14.78106"><ele>209.0</ele><time>2026-04-09T06:35:54.084Z</time></trkpt><trkpt lat="40.7401083" lon="14.7813083"><ele>210.0</ele><time>2026-04-09T06:35:55.084Z</time></trkpt><trkpt lat="40.7403167" lon="14.78155"><ele>210.0</ele><time>2026-04-09T06:35:56.084Z</time></trkpt><trkpt lat="40.7405317" lon="14.7817883"><ele>210.0</ele><time>2026-04-09T06:35:57.084Z</time></trkpt><trkpt lat="40.7407533" lon="14.7820283"><ele>211.0</ele><time>2026-04-09T06:35:58.084Z</time></trkpt><trkpt lat="40.7409767" lon="14.7822583"><ele>212.0</ele><time>2026-04-09T06:35:59.084Z</time></trkpt><trkpt lat="40.7412033" lon="14.7824767"><ele>216.5</ele><time>2026-04-09T06:36:00.084Z</time></trkpt><trkpt lat="40.74143" lon="14.7826933"><ele>221.0</ele><time>2026-04-09T06:36:01.084Z</time></trkpt><trkpt lat="40.7416667" lon="14.7828967"><ele>221.5</ele><time>2026-04-09T06:36:02.084Z</time></trkpt><trkpt lat="40.7419067" lon="14.7831083"><ele>222.0</ele><time>2026-04-09T06:36:03.084Z</time></trkpt><trkpt lat="40.7421567" lon="14.783315"><ele>224.0</ele><time>2026-04-09T06:36:04.084Z</time></trkpt><trkpt lat="40.742405" lon="14.7835167"><ele>226.0</ele><time>2026-04-09T06:36:05.084Z</time></trkpt><trkpt lat="40.74266" lon="14.7837083"><ele>222.5</ele><time>2026-04-09T06:36:06.085Z</time></trkpt><trkpt lat="40.74292" lon="14.7838933"><ele>219.0</ele><time>2026-04-09T06:36:07.084Z</time></trkpt><trkpt lat="40.743175" lon="14.7840667"><ele>219.0</ele><time>2026-04-09T06:36:08.084Z</time></trkpt><trkpt lat="40.7434333" lon="14.7842317"><ele>219.0</ele><time>2026-04-09T06:36:09.084Z</time></trkpt><trkpt lat="40.7436917" lon="14.7843833"><ele>221.0</ele><time>2026-04-09T06:36:10.084Z</time></trkpt><trkpt lat="40.74395" lon="14.7845267"><ele>223.0</ele><time>2026-04-09T06:36:11.084Z</time></trkpt><trkpt lat="40.744215" lon="14.7846683"><ele>221.5</ele><time>2026-04-09T06:36:12.084Z</time></trkpt><trkpt lat="40.7444817" lon="14.7848"><ele>220.0</ele><time>2026-04-09T06:36:13.084Z</time></trkpt><trkpt lat="40.74475" lon="14.7849233"><ele>220.0</ele><time>2026-04-09T06:36:14.084Z</time></trkpt><trkpt lat="40.7450217" lon="14.7850417"><ele>220.0</ele><time>2026-04-09T06:36:15.084Z</time></trkpt><trkpt lat="40.7452817" lon="14.7851483"><ele>223.5</ele><time>2026-04-09T06:36:16.084Z</time></trkpt><trkpt lat="40.7455433" lon="14.78525"><ele>227.0</ele><time>2026-04-09T06:36:17.084Z</time></trkpt><trkpt lat="40.7457983" lon="14.7853383"><ele>230.0</ele><time>2026-04-09T06:36:18.084Z</time></trkpt><trkpt lat="40.746055" lon="14.78543"><ele>233.0</ele><time>2026-04-09T06:36:19.084Z</time></trkpt><trkpt lat="40.7463167" lon="14.7855083"><ele>233.0</ele><time>2026-04-09T06:36:20.083Z</time></trkpt><trkpt lat="40.7465817" lon="14.785585"><ele>233.0</ele><time>2026-04-09T06:36:21.084Z</time></trkpt><trkpt lat="40.746845" lon="14.785655"><ele>229.5</ele><time>2026-04-09T06:36:22.084Z</time></trkpt><trkpt lat="40.747115" lon="14.785725"><ele>226.0</ele><time>2026-04-09T06:36:23.084Z</time></trkpt><trkpt lat="40.74739" lon="14.785795"><ele>226.0</ele><time>2026-04-09T06:36:24.084Z</time></trkpt><trkpt lat="40.74768" lon="14.78586"><ele>226.0</ele><time>2026-04-09T06:36:25.084Z</time></trkpt><trkpt lat="40.747965" lon="14.78592"><ele>225.0</ele><time>2026-04-09T06:36:26.084Z</time></trkpt><trkpt lat="40.7482533" lon="14.78598"><ele>224.0</ele><time>2026-04-09T06:36:27.084Z</time></trkpt><trkpt lat="40.7485583" lon="14.7860367"><ele>224.0</ele><time>2026-04-09T06:36:28.084Z</time></trkpt><trkpt lat="40.7488633" lon="14.7860933"><ele>224.0</ele><time>2026-04-09T06:36:29.084Z</time></trkpt><trkpt lat="40.7491583" lon="14.786155"><ele>223.5</ele><time>2026-04-09T06:36:30.084Z</time></trkpt><trkpt lat="40.74944" lon="14.7862067"><ele>223.0</ele><time>2026-04-09T06:36:31.084Z</time></trkpt><trkpt lat="40.7497067" lon="14.7862633"><ele>223.0</ele><time>2026-04-09T06:36:32.084Z</time></trkpt><trkpt lat="40.7499733" lon="14.7863167"><ele>223.0</ele><time>2026-04-09T06:36:33.084Z</time></trkpt><trkpt lat="40.7502367" lon="14.7863667"><ele>223.5</ele><time>2026-04-09T06:36:34.084Z</time></trkpt><trkpt lat="40.7504883" lon="14.786415"><ele>224.0</ele><time>2026-04-09T06:36:35.084Z</time></trkpt><trkpt lat="40.7507433" lon="14.7864683"><ele>224.0</ele><time>2026-04-09T06:36:36.084Z</time></trkpt><trkpt lat="40.7509967" lon="14.78652"><ele>224.0</ele><time>2026-04-09T06:36:37.084Z</time></trkpt><trkpt lat="40.7512533" lon="14.78657"><ele>223.5</ele><time>2026-04-09T06:36:38.084Z</time></trkpt><trkpt lat="40.751505" lon="14.78663"><ele>223.0</ele><time>2026-04-09T06:36:39.084Z</time></trkpt><trkpt lat="40.75177" lon="14.7866783"><ele>222.5</ele><time>2026-04-09T06:36:40.084Z</time></trkpt><trkpt lat="40.7520417" lon="14.7867317"><ele>222.0</ele><time>2026-04-09T06:36:41.084Z</time></trkpt><trkpt lat="40.752305" lon="14.7867867"><ele>222.0</ele><time>2026-04-09T06:36:42.084Z</time></trkpt><trkpt lat="40.7525633" lon="14.7868417"><ele>222.0</ele><time>2026-04-09T06:36:43.084Z</time></trkpt><trkpt lat="40.7528267" lon="14.7869"><ele>223.5</ele><time>2026-04-09T06:36:44.084Z</time></trkpt><trkpt lat="40.753095" lon="14.78696"><ele>225.0</ele><time>2026-04-09T06:36:45.084Z</time></trkpt><trkpt lat="40.75336" lon="14.7870133"><ele>226.0</ele><time>2026-04-09T06:36:46.084Z</time></trkpt><trkpt lat="40.7536233" lon="14.7870633"><ele>227.0</ele><time>2026-04-09T06:36:47.084Z</time></trkpt><trkpt lat="40.7538833" lon="14.7871133"><ele>227.0</ele><time>2026-04-09T06:36:48.084Z</time></trkpt><trkpt lat="40.7541367" lon="14.78717"><ele>227.0</ele><time>2026-04-09T06:36:49.084Z</time></trkpt><trkpt lat="40.75438" lon="14.78722"><ele>229.0</ele><time>2026-04-09T06:36:50.084Z</time></trkpt><trkpt lat="40.75462" lon="14.7872617"><ele>231.0</ele><time>2026-04-09T06:36:51.084Z</time></trkpt><trkpt lat="40.7548533" lon="14.7873067"><ele>231.0</ele><time>2026-04-09T06:36:52.084Z</time></trkpt><trkpt lat="40.7550867" lon="14.7873533"><ele>231.0</ele><time>2026-04-09T06:36:53.084Z</time></trkpt><trkpt lat="40.7553183" lon="14.787395"><ele>233.0</ele><time>2026-04-09T06:36:54.084Z</time></trkpt><trkpt lat="40.7555417" lon="14.7874367"><ele>235.0</ele><time>2026-04-09T06:36:55.084Z</time></trkpt><trkpt lat="40.755765" lon="14.7874817"><ele>235.0</ele><time>2026-04-09T06:36:56.084Z</time></trkpt><trkpt lat="40.7559933" lon="14.7875217"><ele>235.0</ele><time>2026-04-09T06:36:57.084Z</time></trkpt><trkpt lat="40.756215" lon="14.7875633"><ele>235.33333333333331</ele><time>2026-04-09T06:36:58.084Z</time></trkpt><trkpt lat="40.756425" lon="14.7876133"><ele>235.66666666666669</ele><time>2026-04-09T06:36:59.084Z</time></trkpt><trkpt lat="40.75663" lon="14.7876517"><ele>236.0</ele><time>2026-04-09T06:37:00.084Z</time></trkpt><trkpt lat="40.7568517" lon="14.7876983"><ele>237.33333333333334</ele><time>2026-04-09T06:37:01.084Z</time></trkpt><trkpt lat="40.7570617" lon="14.7877383"><ele>238.66666666666669</ele><time>2026-04-09T06:37:02.084Z</time></trkpt><trkpt lat="40.75727" lon="14.7877817"><ele>240.0</ele><time>2026-04-09T06:37:03.084Z</time></trkpt><trkpt lat="40.7574717" lon="14.7878217"><ele>240.0</ele><time>2026-04-09T06:37:04.084Z</time></trkpt><trkpt lat="40.7576633" lon="14.78786"><ele>240.0</ele><time>2026-04-09T06:37:05.084Z</time></trkpt><trkpt lat="40.7578667" lon="14.787905"><ele>240.0</ele><time>2026-04-09T06:37:06.084Z</time></trkpt><trkpt lat="40.7580683" lon="14.7879483"><ele>240.66666666666669</ele><time>2026-04-09T06:37:07.084Z</time></trkpt><trkpt lat="40.7582683" lon="14.7879867"><ele>241.33333333333334</ele><time>2026-04-09T06:37:08.085Z</time></trkpt><trkpt lat="40.75846" lon="14.7880233"><ele>242.0</ele><time>2026-04-09T06:37:09.084Z</time></trkpt><trkpt lat="40.7586517" lon="14.78806"><ele>242.0</ele><time>2026-04-09T06:37:10.084Z</time></trkpt><trkpt lat="40.7588433" lon="14.7881017"><ele>242.0</ele><time>2026-04-09T06:37:11.084Z</time></trkpt><trkpt lat="40.7590317" lon="14.7881417"><ele>242.0</ele><time>2026-04-09T06:37:12.084Z</time></trkpt><trkpt lat="40.75922" lon="14.7881833"><ele>241.0</ele><time>2026-04-09T06:37:13.084Z</time></trkpt><trkpt lat="40.7594233" lon="14.788225"><ele>240.0</ele><time>2026-04-09T06:37:14.084Z</time></trkpt><trkpt lat="40.7596267" lon="14.7882567"><ele>239.0</ele><time>2026-04-09T06:37:15.084Z</time></trkpt><trkpt lat="40.759835" lon="14.7883"><ele>239.0</ele><time>2026-04-09T06:37:16.084Z</time></trkpt><trkpt lat="40.7600517" lon="14.7883417"><ele>239.0</ele><time>2026-04-09T06:37:17.084Z</time></trkpt><trkpt lat="40.7602733" lon="14.78838"><ele>239.0</ele><time>2026-04-09T06:37:18.084Z</time></trkpt><trkpt lat="40.7604983" lon="14.7884233"><ele>238.5</ele><time>2026-04-09T06:37:19.084Z</time></trkpt><trkpt lat="40.7607417" lon="14.7884717"><ele>238.0</ele><time>2026-04-09T06:37:20.084Z</time></trkpt><trkpt lat="40.7609883" lon="14.7885217"><ele>239.0</ele><time>2026-04-09T06:37:21.084Z</time></trkpt><trkpt lat="40.7612283" lon="14.7885717"><ele>240.0</ele><time>2026-04-09T06:37:22.084Z</time></trkpt><trkpt lat="40.76147" lon="14.7886233"><ele>240.0</ele><time>2026-04-09T06:37:23.084Z</time></trkpt><trkpt lat="40.7617033" lon="14.788665"><ele>240.0</ele><time>2026-04-09T06:37:24.084Z</time></trkpt><trkpt lat="40.7619283" lon="14.7887017"><ele>239.0</ele><time>2026-04-09T06:37:25.084Z</time></trkpt><trkpt lat="40.7621533" lon="14.7887367"><ele>238.0</ele><time>2026-04-09T06:37:26.084Z</time></trkpt><trkpt lat="40.762385" lon="14.7887717"><ele>238.0</ele><time>2026-04-09T06:37:27.084Z</time></trkpt><trkpt lat="40.7626133" lon="14.7888017"><ele>238.0</ele><time>2026-04-09T06:37:28.084Z</time></trkpt><trkpt lat="40.7628383" lon="14.7888317"><ele>237.5</ele><time>2026-04-09T06:37:29.084Z</time></trkpt><trkpt lat="40.7630767" lon="14.788855"><ele>237.0</ele><time>2026-04-09T06:37:30.084Z</time></trkpt><trkpt lat="40.7633" lon="14.788875"><ele>237.0</ele><time>2026-04-09T06:37:31.084Z</time></trkpt><trkpt lat="40.76352" lon="14.7888883"><ele>237.0</ele><time>2026-04-09T06:37:32.084Z</time></trkpt><trkpt lat="40.7637333" lon="14.7889"><ele>237.0</ele><time>2026-04-09T06:37:33.084Z</time></trkpt><trkpt lat="40.7639567" lon="14.7889"><ele>235.66666666666669</ele><time>2026-04-09T06:37:34.084Z</time></trkpt><trkpt lat="40.76418" lon="14.7888983"><ele>234.33333333333334</ele><time>2026-04-09T06:37:35.084Z</time></trkpt><trkpt lat="40.7644" lon="14.7888883"><ele>233.0</ele><time>2026-04-09T06:37:36.084Z</time></trkpt><trkpt lat="40.7646217" lon="14.7888783"><ele>232.66666666666669</ele><time>2026-04-09T06:37:37.084Z</time></trkpt><trkpt lat="40.7648283" lon="14.78886"><ele>232.33333333333331</ele><time>2026-04-09T06:37:38.084Z</time></trkpt><trkpt lat="40.7650333" lon="14.7888433"><ele>232.0</ele><time>2026-04-09T06:37:39.084Z</time></trkpt><trkpt lat="40.76524" lon="14.7888183"><ele>233.0</ele><time>2026-04-09T06:37:40.084Z</time></trkpt><trkpt lat="40.7654467" lon="14.78879"><ele>234.0</ele><time>2026-04-09T06:37:41.084Z</time></trkpt><trkpt lat="40.7656483" lon="14.7887617"><ele>235.0</ele><time>2026-04-09T06:37:42.084Z</time></trkpt><trkpt lat="40.7658417" lon="14.7887233"><ele>235.0</ele><time>2026-04-09T06:37:43.084Z</time></trkpt><trkpt lat="40.7660333" lon="14.7886833"><ele>235.0</ele><time>2026-04-09T06:37:44.084Z</time></trkpt><trkpt lat="40.7662233" lon="14.788645"><ele>235.0</ele><time>2026-04-09T06:37:45.084Z</time></trkpt><trkpt lat="40.766405" lon="14.788605"><ele>235.0</ele><time>2026-04-09T06:37:46.084Z</time></trkpt><trkpt lat="40.7665917" lon="14.78857"><ele>235.0</ele><time>2026-04-09T06:37:47.084Z</time></trkpt><trkpt lat="40.7667733" lon="14.7885233"><ele>235.0</ele><time>2026-04-09T06:37:48.084Z</time></trkpt><trkpt lat="40.7669617" lon="14.7884783"><ele>235.0</ele><time>2026-04-09T06:37:49.084Z</time></trkpt><trkpt lat="40.7671417" lon="14.788425"><ele>235.0</ele><time>2026-04-09T06:37:50.085Z</time></trkpt><trkpt lat="40.7673117" lon="14.78837"><ele>235.0</ele><time>2026-04-09T06:37:51.085Z</time></trkpt><trkpt lat="40.7674783" lon="14.78832"><ele>235.0</ele><time>2026-04-09T06:37:52.085Z</time></trkpt><trkpt lat="40.767645" lon="14.78826"><ele>235.0</ele><time>2026-04-09T06:37:53.085Z</time></trkpt><trkpt lat="40.7678233" lon="14.7881983"><ele>235.0</ele><time>2026-04-09T06:37:54.085Z</time></trkpt><trkpt lat="40.76801" lon="14.7881267"><ele>235.33333333333331</ele><time>2026-04-09T06:37:55.085Z</time></trkpt><trkpt lat="40.7682" lon="14.788045"><ele>235.66666666666669</ele><time>2026-04-09T06:37:56.085Z</time></trkpt><trkpt lat="40.7683817" lon="14.78796"><ele>236.0</ele><time>2026-04-09T06:37:57.085Z</time></trkpt><trkpt lat="40.768565" lon="14.7878667"><ele>236.0</ele><time>2026-04-09T06:37:58.085Z</time></trkpt><trkpt lat="40.7687533" lon="14.7877667"><ele>236.0</ele><time>2026-04-09T06:37:59.085Z</time></trkpt><trkpt lat="40.7689483" lon="14.7876667"><ele>236.0</ele><time>2026-04-09T06:38:00.085Z</time></trkpt><trkpt lat="40.7691483" lon="14.78757"><ele>237.0</ele><time>2026-04-09T06:38:01.085Z</time></trkpt><trkpt lat="40.76936" lon="14.78746"><ele>238.0</ele><time>2026-04-09T06:38:02.085Z</time></trkpt><trkpt lat="40.7695833" lon="14.78735"><ele>238.0</ele><time>2026-04-09T06:38:03.085Z</time></trkpt><trkpt lat="40.7698167" lon="14.7872367"><ele>238.0</ele><time>2026-04-09T06:38:04.085Z</time></trkpt><trkpt lat="40.7700667" lon="14.7871167"><ele>240.0</ele><time>2026-04-09T06:38:05.085Z</time></trkpt><trkpt lat="40.7703283" lon="14.7870017"><ele>242.0</ele><time>2026-04-09T06:38:06.085Z</time></trkpt><trkpt lat="40.7705817" lon="14.78688"><ele>242.0</ele><time>2026-04-09T06:38:07.085Z</time></trkpt><trkpt lat="40.7708433" lon="14.78676"><ele>242.0</ele><time>2026-04-09T06:38:08.085Z</time></trkpt><trkpt lat="40.7711133" lon="14.7866333"><ele>242.0</ele><time>2026-04-09T06:38:09.085Z</time></trkpt><trkpt lat="40.771385" lon="14.7865033"><ele>242.0</ele><time>2026-04-09T06:38:10.085Z</time></trkpt><trkpt lat="40.7716583" lon="14.7863683"><ele>243.0</ele><time>2026-04-09T06:38:11.085Z</time></trkpt><trkpt lat="40.7719233" lon="14.786235"><ele>244.0</ele><time>2026-04-09T06:38:12.085Z</time></trkpt><trkpt lat="40.772185" lon="14.7861033"><ele>244.0</ele><time>2026-04-09T06:38:13.085Z</time></trkpt><trkpt lat="40.7724417" lon="14.785975"><ele>244.0</ele><time>2026-04-09T06:38:14.085Z</time></trkpt><trkpt lat="40.7726933" lon="14.78585"><ele>244.0</ele><time>2026-04-09T06:38:15.085Z</time></trkpt><trkpt lat="40.7729467" lon="14.7857267"><ele>244.0</ele><time>2026-04-09T06:38:16.085Z</time></trkpt><trkpt lat="40.7731883" lon="14.7856067"><ele>244.0</ele><time>2026-04-09T06:38:17.085Z</time></trkpt><trkpt lat="40.77343" lon="14.7854867"><ele>244.0</ele><time>2026-04-09T06:38:18.085Z</time></trkpt><trkpt lat="40.7736833" lon="14.7853667"><ele>243.5</ele><time>2026-04-09T06:38:19.085Z</time></trkpt><trkpt lat="40.7739333" lon="14.7852467"><ele>243.0</ele><time>2026-04-09T06:38:20.085Z</time></trkpt><trkpt lat="40.7741717" lon="14.7851267"><ele>241.0</ele><time>2026-04-09T06:38:21.085Z</time></trkpt><trkpt lat="40.7744083" lon="14.785015"><ele>239.0</ele><time>2026-04-09T06:38:22.085Z</time></trkpt><trkpt lat="40.77465" lon="14.7849083"><ele>239.0</ele><time>2026-04-09T06:38:23.085Z</time></trkpt><trkpt lat="40.7748883" lon="14.7847933"><ele>239.0</ele><time>2026-04-09T06:38:24.085Z</time></trkpt><trkpt lat="40.7751217" lon="14.78469"><ele>239.0</ele><time>2026-04-09T06:38:25.085Z</time></trkpt><trkpt lat="40.77536" lon="14.7845833"><ele>239.0</ele><time>2026-04-09T06:38:26.085Z</time></trkpt><trkpt lat="40.7756033" lon="14.7844717"><ele>239.0</ele><time>2026-04-09T06:38:27.085Z</time></trkpt><trkpt lat="40.7758483" lon="14.7843583"><ele>239.0</ele><time>2026-04-09T06:38:28.085Z</time></trkpt><trkpt lat="40.7760917" lon="14.7842367"><ele>238.0</ele><time>2026-04-09T06:38:29.085Z</time></trkpt><trkpt lat="40.7763367" lon="14.7841183"><ele>237.0</ele><time>2026-04-09T06:38:30.085Z</time></trkpt><trkpt lat="40.7765817" lon="14.7840033"><ele>237.0</ele><time>2026-04-09T06:38:31.085Z</time></trkpt><trkpt lat="40.77683" lon="14.78389"><ele>237.0</ele><time>2026-04-09T06:38:32.085Z</time></trkpt><trkpt lat="40.7770783" lon="14.7837767"><ele>237.5</ele><time>2026-04-09T06:38:33.085Z</time></trkpt><trkpt lat="40.7773233" lon="14.78367"><ele>238.0</ele><time>2026-04-09T06:38:34.085Z</time></trkpt><trkpt lat="40.7775667" lon="14.7835533"><ele>236.0</ele><time>2026-04-09T06:38:35.085Z</time></trkpt><trkpt lat="40.7778017" lon="14.783445"><ele>234.0</ele><time>2026-04-09T06:38:36.085Z</time></trkpt><trkpt lat="40.7780367" lon="14.7833367"><ele>234.0</ele><time>2026-04-09T06:38:37.085Z</time></trkpt><trkpt lat="40.77827" lon="14.7832283"><ele>234.0</ele><time>2026-04-09T06:38:38.085Z</time></trkpt><trkpt lat="40.7785033" lon="14.7831267"><ele>234.0</ele><time>2026-04-09T06:38:39.085Z</time></trkpt><trkpt lat="40.7787367" lon="14.7830217"><ele>234.0</ele><time>2026-04-09T06:38:40.085Z</time></trkpt><trkpt lat="40.7789667" lon="14.7829183"><ele>234.0</ele><time>2026-04-09T06:38:41.085Z</time></trkpt><trkpt lat="40.7791917" lon="14.78282"><ele>234.0</ele><time>2026-04-09T06:38:42.085Z</time></trkpt><trkpt lat="40.7794083" lon="14.782715"><ele>230.5</ele><time>2026-04-09T06:38:43.085Z</time></trkpt><trkpt lat="40.7796267" lon="14.7826183"><ele>227.0</ele><time>2026-04-09T06:38:44.085Z</time></trkpt><trkpt lat="40.779835" lon="14.7825167"><ele>227.0</ele><time>2026-04-09T06:38:45.085Z</time></trkpt><trkpt lat="40.7800483" lon="14.7824183"><ele>227.0</ele><time>2026-04-09T06:38:46.085Z</time></trkpt><trkpt lat="40.7802633" lon="14.7823233"><ele>226.33333333333334</ele><time>2026-04-09T06:38:47.085Z</time></trkpt><trkpt lat="40.78047" lon="14.782225"><ele>225.66666666666669</ele><time>2026-04-09T06:38:48.085Z</time></trkpt><trkpt lat="40.7806817" lon="14.7821217"><ele>225.0</ele><time>2026-04-09T06:38:49.085Z</time></trkpt><trkpt lat="40.78089" lon="14.7820283"><ele>224.66666666666669</ele><time>2026-04-09T06:38:50.085Z</time></trkpt><trkpt lat="40.7810967" lon="14.7819283"><ele>224.33333333333334</ele><time>2026-04-09T06:38:51.085Z</time></trkpt><trkpt lat="40.7813083" lon="14.781835"><ele>224.0</ele><time>2026-04-09T06:38:52.085Z</time></trkpt><trkpt lat="40.7815133" lon="14.7817367"><ele>223.33333333333334</ele><time>2026-04-09T06:38:53.085Z</time></trkpt><trkpt lat="40.7817233" lon="14.78164"><ele>222.66666666666669</ele><time>2026-04-09T06:38:54.085Z</time></trkpt><trkpt lat="40.7819317" lon="14.781545"><ele>222.0</ele><time>2026-04-09T06:38:55.085Z</time></trkpt><trkpt lat="40.782135" lon="14.781445"><ele>221.33333333333331</ele><time>2026-04-09T06:38:56.085Z</time></trkpt><trkpt lat="40.7823383" lon="14.78134"><ele>220.66666666666666</ele><time>2026-04-09T06:38:57.085Z</time></trkpt><trkpt lat="40.7825417" lon="14.7812283"><ele>220.0</ele><time>2026-04-09T06:38:58.085Z</time></trkpt><trkpt lat="40.7827467" lon="14.7811117"><ele>219.0</ele><time>2026-04-09T06:38:59.085Z</time></trkpt><trkpt lat="40.782945" lon="14.7809933"><ele>218.0</ele><time>2026-04-09T06:39:00.085Z</time></trkpt><trkpt lat="40.7831417" lon="14.7808667"><ele>217.0</ele><time>2026-04-09T06:39:01.085Z</time></trkpt><trkpt lat="40.7833367" lon="14.78074"><ele>217.33333333333331</ele><time>2026-04-09T06:39:02.085Z</time></trkpt><trkpt lat="40.783525" lon="14.7806"><ele>217.66666666666669</ele><time>2026-04-09T06:39:03.085Z</time></trkpt><trkpt lat="40.7837117" lon="14.7804483"><ele>218.0</ele><time>2026-04-09T06:39:04.085Z</time></trkpt><trkpt lat="40.7838933" lon="14.7802917"><ele>216.33333333333334</ele><time>2026-04-09T06:39:05.085Z</time></trkpt><trkpt lat="40.7840783" lon="14.7801317"><ele>214.66666666666669</ele><time>2026-04-09T06:39:06.085Z</time></trkpt><trkpt lat="40.78426" lon="14.7799667"><ele>213.0</ele><time>2026-04-09T06:39:07.085Z</time></trkpt><trkpt lat="40.7844417" lon="14.7797883"><ele>212.0</ele><time>2026-04-09T06:39:08.085Z</time></trkpt><trkpt lat="40.7846267" lon="14.7796067"><ele>211.0</ele><time>2026-04-09T06:39:09.085Z</time></trkpt><trkpt lat="40.7848" lon="14.7794233"><ele>208.5</ele><time>2026-04-09T06:39:10.085Z</time></trkpt><trkpt lat="40.784985" lon="14.779235"><ele>206.0</ele><time>2026-04-09T06:39:11.085Z</time></trkpt><trkpt lat="40.78517" lon="14.77905"><ele>205.5</ele><time>2026-04-09T06:39:12.085Z</time></trkpt><trkpt lat="40.7853533" lon="14.7788683"><ele>205.0</ele><time>2026-04-09T06:39:13.085Z</time></trkpt><trkpt lat="40.7855367" lon="14.7786783"><ele>204.0</ele><time>2026-04-09T06:39:14.085Z</time></trkpt><trkpt lat="40.7857217" lon="14.7784867"><ele>203.0</ele><time>2026-04-09T06:39:15.085Z</time></trkpt><trkpt lat="40.78591" lon="14.778295"><ele>202.0</ele><time>2026-04-09T06:39:16.085Z</time></trkpt><trkpt lat="40.7860983" lon="14.7781017"><ele>201.0</ele><time>2026-04-09T06:39:17.085Z</time></trkpt><trkpt lat="40.7862883" lon="14.77791"><ele>201.0</ele><time>2026-04-09T06:39:18.085Z</time></trkpt><trkpt lat="40.786475" lon="14.7777233"><ele>201.0</ele><time>2026-04-09T06:39:19.085Z</time></trkpt><trkpt lat="40.78666" lon="14.77753"><ele>199.0</ele><time>2026-04-09T06:39:20.085Z</time></trkpt><trkpt lat="40.7868467" lon="14.777335"><ele>197.0</ele><time>2026-04-09T06:39:21.085Z</time></trkpt><trkpt lat="40.7870367" lon="14.77714"><ele>197.0</ele><time>2026-04-09T06:39:22.085Z</time></trkpt><trkpt lat="40.787225" lon="14.776945"><ele>197.0</ele><time>2026-04-09T06:39:23.085Z</time></trkpt><trkpt lat="40.7874117" lon="14.7767517"><ele>196.5</ele><time>2026-04-09T06:39:24.085Z</time></trkpt><trkpt lat="40.7876033" lon="14.7765517"><ele>196.0</ele><time>2026-04-09T06:39:25.085Z</time></trkpt><trkpt lat="40.787795" lon="14.7763517"><ele>195.5</ele><time>2026-04-09T06:39:26.085Z</time></trkpt><trkpt lat="40.787985" lon="14.7761617"><ele>195.0</ele><time>2026-04-09T06:39:27.085Z</time></trkpt><trkpt lat="40.7881667" lon="14.7759717"><ele>191.5</ele><time>2026-04-09T06:39:28.085Z</time></trkpt><trkpt lat="40.7883517" lon="14.7757867"><ele>188.0</ele><time>2026-04-09T06:39:29.085Z</time></trkpt><trkpt lat="40.788535" lon="14.7756"><ele>187.5</ele><time>2026-04-09T06:39:30.085Z</time></trkpt><trkpt lat="40.7887183" lon="14.7754133"><ele>187.0</ele><time>2026-04-09T06:39:31.085Z</time></trkpt><trkpt lat="40.7888983" lon="14.77523"><ele>184.5</ele><time>2026-04-09T06:39:32.085Z</time></trkpt><trkpt lat="40.7890833" lon="14.7750367"><ele>182.0</ele><time>2026-04-09T06:39:33.085Z</time></trkpt><trkpt lat="40.7892733" lon="14.77484"><ele>181.0</ele><time>2026-04-09T06:39:34.085Z</time></trkpt><trkpt lat="40.7894683" lon="14.7746533"><ele>180.0</ele><time>2026-04-09T06:39:35.085Z</time></trkpt><trkpt lat="40.7896717" lon="14.7744767"><ele>178.5</ele><time>2026-04-09T06:39:36.085Z</time></trkpt><trkpt lat="40.789875" lon="14.7743083"><ele>177.0</ele><time>2026-04-09T06:39:37.085Z</time></trkpt><trkpt lat="40.7900883" lon="14.774145"><ele>177.0</ele><time>2026-04-09T06:39:38.085Z</time></trkpt><trkpt lat="40.7903117" lon="14.773985"><ele>177.0</ele><time>2026-04-09T06:39:39.085Z</time></trkpt><trkpt lat="40.7905333" lon="14.77383"><ele>177.0</ele><time>2026-04-09T06:39:40.085Z</time></trkpt><trkpt lat="40.7907617" lon="14.7736867"><ele>177.0</ele><time>2026-04-09T06:39:41.085Z</time></trkpt><trkpt lat="40.7909883" lon="14.7735483"><ele>174.5</ele><time>2026-04-09T06:39:42.085Z</time></trkpt><trkpt lat="40.7912217" lon="14.77342"><ele>172.0</ele><time>2026-04-09T06:39:43.085Z</time></trkpt><trkpt lat="40.7914517" lon="14.7733033"><ele>172.0</ele><time>2026-04-09T06:39:44.085Z</time></trkpt><trkpt lat="40.791675" lon="14.773195"><ele>172.0</ele><time>2026-04-09T06:39:45.085Z</time></trkpt><trkpt lat="40.7918967" lon="14.7730967"><ele>172.0</ele><time>2026-04-09T06:39:46.085Z</time></trkpt><trkpt lat="40.7921233" lon="14.7730183"><ele>172.0</ele><time>2026-04-09T06:39:47.085Z</time></trkpt><trkpt lat="40.79235" lon="14.7729367"><ele>172.0</ele><time>2026-04-09T06:39:48.085Z</time></trkpt><trkpt lat="40.7925767" lon="14.7728633"><ele>172.0</ele><time>2026-04-09T06:39:49.085Z</time></trkpt><trkpt lat="40.7928083" lon="14.7727883"><ele>172.0</ele><time>2026-04-09T06:39:50.085Z</time></trkpt><trkpt lat="40.7930433" lon="14.7727283"><ele>172.0</ele><time>2026-04-09T06:39:51.085Z</time></trkpt><trkpt lat="40.7932833" lon="14.7726783"><ele>171.0</ele><time>2026-04-09T06:39:52.085Z</time></trkpt><trkpt lat="40.7935217" lon="14.7726267"><ele>170.0</ele><time>2026-04-09T06:39:53.085Z</time></trkpt><trkpt lat="40.7937683" lon="14.7725783"><ele>170.0</ele><time>2026-04-09T06:39:54.085Z</time></trkpt><trkpt lat="40.794015" lon="14.7725317"><ele>170.0</ele><time>2026-04-09T06:39:55.085Z</time></trkpt><trkpt lat="40.7942617" lon="14.772475"><ele>171.5</ele><time>2026-04-09T06:39:56.085Z</time></trkpt><trkpt lat="40.7945083" lon="14.7724233"><ele>173.0</ele><time>2026-04-09T06:39:57.085Z</time></trkpt><trkpt lat="40.794755" lon="14.772365"><ele>173.0</ele><time>2026-04-09T06:39:58.085Z</time></trkpt><trkpt lat="40.7950017" lon="14.7723117"><ele>173.0</ele><time>2026-04-09T06:39:59.085Z</time></trkpt><trkpt lat="40.7952517" lon="14.772255"><ele>172.5</ele><time>2026-04-09T06:40:00.085Z</time></trkpt><trkpt lat="40.795505" lon="14.7722"><ele>172.0</ele><time>2026-04-09T06:40:01.085Z</time></trkpt><trkpt lat="40.7957583" lon="14.7721567"><ele>172.0</ele><time>2026-04-09T06:40:02.085Z</time></trkpt><trkpt lat="40.7960117" lon="14.7721"><ele>172.0</ele><time>2026-04-09T06:40:03.085Z</time></trkpt><trkpt lat="40.79626" lon="14.7720483"><ele>172.0</ele><time>2026-04-09T06:40:04.085Z</time></trkpt><trkpt lat="40.7965183" lon="14.7720017"><ele>172.0</ele><time>2026-04-09T06:40:05.085Z</time></trkpt><trkpt lat="40.7967683" lon="14.7719533"><ele>170.5</ele><time>2026-04-09T06:40:06.085Z</time></trkpt><trkpt lat="40.7970217" lon="14.7718983"><ele>169.0</ele><time>2026-04-09T06:40:07.085Z</time></trkpt><trkpt lat="40.7972783" lon="14.77186"><ele>166.5</ele><time>2026-04-09T06:40:08.085Z</time></trkpt><trkpt lat="40.797515" lon="14.7717983"><ele>164.0</ele><time>2026-04-09T06:40:09.085Z</time></trkpt><trkpt lat="40.7977517" lon="14.77175"><ele>164.0</ele><time>2026-04-09T06:40:10.085Z</time></trkpt><trkpt lat="40.7979883" lon="14.771705"><ele>164.0</ele><time>2026-04-09T06:40:11.085Z</time></trkpt><trkpt lat="40.7982217" lon="14.77166"><ele>164.0</ele><time>2026-04-09T06:40:12.085Z</time></trkpt><trkpt lat="40.7984567" lon="14.7716083"><ele>164.0</ele><time>2026-04-09T06:40:13.085Z</time></trkpt><trkpt lat="40.7986933" lon="14.7715633"><ele>164.0</ele><time>2026-04-09T06:40:14.085Z</time></trkpt><trkpt lat="40.7989233" lon="14.7715117"><ele>164.0</ele><time>2026-04-09T06:40:15.085Z</time></trkpt><trkpt lat="40.799155" lon="14.7714583"><ele>164.5</ele><time>2026-04-09T06:40:16.085Z</time></trkpt><trkpt lat="40.7993867" lon="14.7714133"><ele>165.0</ele><time>2026-04-09T06:40:17.085Z</time></trkpt><trkpt lat="40.7996083" lon="14.77136"><ele>165.0</ele><time>2026-04-09T06:40:18.085Z</time></trkpt><trkpt lat="40.7998267" lon="14.77131"><ele>165.0</ele><time>2026-04-09T06:40:19.085Z</time></trkpt><trkpt lat="40.8000383" lon="14.7712667"><ele>165.0</ele><time>2026-04-09T06:40:20.085Z</time></trkpt><trkpt lat="40.8002467" lon="14.7712233"><ele>165.33333333333334</ele><time>2026-04-09T06:40:21.085Z</time></trkpt><trkpt lat="40.8004517" lon="14.7711783"><ele>165.66666666666669</ele><time>2026-04-09T06:40:22.085Z</time></trkpt><trkpt lat="40.8006683" lon="14.7711333"><ele>166.0</ele><time>2026-04-09T06:40:23.085Z</time></trkpt><trkpt lat="40.800885" lon="14.7710867"><ele>166.0</ele><time>2026-04-09T06:40:24.085Z</time></trkpt><trkpt lat="40.8011067" lon="14.7710317"><ele>166.0</ele><time>2026-04-09T06:40:25.085Z</time></trkpt><trkpt lat="40.8013333" lon="14.7709833"><ele>165.5</ele><time>2026-04-09T06:40:26.085Z</time></trkpt><trkpt lat="40.8015683" lon="14.7709283"><ele>165.0</ele><time>2026-04-09T06:40:27.085Z</time></trkpt><trkpt lat="40.80181" lon="14.77087"><ele>166.0</ele><time>2026-04-09T06:40:28.085Z</time></trkpt><trkpt lat="40.802055" lon="14.7708167"><ele>167.0</ele><time>2026-04-09T06:40:29.085Z</time></trkpt><trkpt lat="40.8023017" lon="14.7707667"><ele>167.0</ele><time>2026-04-09T06:40:30.085Z</time></trkpt><trkpt lat="40.802545" lon="14.7707283"><ele>167.0</ele><time>2026-04-09T06:40:31.085Z</time></trkpt><trkpt lat="40.802795" lon="14.770705"><ele>167.0</ele><time>2026-04-09T06:40:32.085Z</time></trkpt><trkpt lat="40.80305" lon="14.7706933"><ele>167.0</ele><time>2026-04-09T06:40:33.085Z</time></trkpt><trkpt lat="40.8033033" lon="14.77069"><ele>167.0</ele><time>2026-04-09T06:40:34.085Z</time></trkpt><trkpt lat="40.803565" lon="14.7707017"><ele>167.0</ele><time>2026-04-09T06:40:35.085Z</time></trkpt><trkpt lat="40.8038267" lon="14.7707233"><ele>167.0</ele><time>2026-04-09T06:40:36.085Z</time></trkpt><trkpt lat="40.80409" lon="14.770745"><ele>167.0</ele><time>2026-04-09T06:40:37.085Z</time></trkpt><trkpt lat="40.804355" lon="14.770785"><ele>168.5</ele><time>2026-04-09T06:40:38.085Z</time></trkpt><trkpt lat="40.804615" lon="14.77083"><ele>170.0</ele><time>2026-04-09T06:40:39.085Z</time></trkpt><trkpt lat="40.804875" lon="14.7708883"><ele>170.0</ele><time>2026-04-09T06:40:40.085Z</time></trkpt><trkpt lat="40.8051367" lon="14.7709417"><ele>170.0</ele><time>2026-04-09T06:40:41.085Z</time></trkpt><trkpt lat="40.8053917" lon="14.7709967"><ele>172.0</ele><time>2026-04-09T06:40:42.085Z</time></trkpt><trkpt lat="40.805645" lon="14.77105"><ele>174.0</ele><time>2026-04-09T06:40:43.085Z</time></trkpt><trkpt lat="40.8058967" lon="14.7711033"><ele>174.5</ele><time>2026-04-09T06:40:44.085Z</time></trkpt><trkpt lat="40.8061483" lon="14.7711617"><ele>175.0</ele><time>2026-04-09T06:40:45.085Z</time></trkpt><trkpt lat="40.8063967" lon="14.7712183"><ele>175.0</ele><time>2026-04-09T06:40:46.085Z</time></trkpt><trkpt lat="40.8066517" lon="14.7712717"><ele>175.0</ele><time>2026-04-09T06:40:47.085Z</time></trkpt><trkpt lat="40.8068933" lon="14.7713333"><ele>175.0</ele><time>2026-04-09T06:40:48.085Z</time></trkpt><trkpt lat="40.8071433" lon="14.7713817"><ele>175.0</ele><time>2026-04-09T06:40:49.085Z</time></trkpt><trkpt lat="40.8073917" lon="14.7714383"><ele>175.0</ele><time>2026-04-09T06:40:50.085Z</time></trkpt><trkpt lat="40.8076367" lon="14.7714867"><ele>175.0</ele><time>2026-04-09T06:40:51.085Z</time></trkpt><trkpt lat="40.8078817" lon="14.7715433"><ele>175.0</ele><time>2026-04-09T06:40:52.085Z</time></trkpt><trkpt lat="40.8081267" lon="14.7715983"><ele>175.0</ele><time>2026-04-09T06:40:53.085Z</time></trkpt><trkpt lat="40.8083817" lon="14.7716517"><ele>175.5</ele><time>2026-04-09T06:40:54.085Z</time></trkpt><trkpt lat="40.8086467" lon="14.7717083"><ele>176.0</ele><time>2026-04-09T06:40:55.085Z</time></trkpt><trkpt lat="40.80892" lon="14.7717633"><ele>176.0</ele><time>2026-04-09T06:40:56.085Z</time></trkpt><trkpt lat="40.8091917" lon="14.771825"><ele>176.0</ele><time>2026-04-09T06:40:57.085Z</time></trkpt><trkpt lat="40.80945" lon="14.77189"><ele>178.0</ele><time>2026-04-09T06:40:58.085Z</time></trkpt><trkpt lat="40.8097117" lon="14.7719633"><ele>180.0</ele><time>2026-04-09T06:40:59.085Z</time></trkpt><trkpt lat="40.8099767" lon="14.7720533"><ele>181.0</ele><time>2026-04-09T06:41:00.085Z</time></trkpt><trkpt lat="40.81024" lon="14.7721433"><ele>182.0</ele><time>2026-04-09T06:41:01.085Z</time></trkpt><trkpt lat="40.8104983" lon="14.772255"><ele>182.0</ele><time>2026-04-09T06:41:02.085Z</time></trkpt><trkpt lat="40.810755" lon="14.77238"><ele>182.0</ele><time>2026-04-09T06:41:03.085Z</time></trkpt><trkpt lat="40.8110117" lon="14.7725233"><ele>182.5</ele><time>2026-04-09T06:41:04.085Z</time></trkpt><trkpt lat="40.81127" lon="14.772675"><ele>183.0</ele><time>2026-04-09T06:41:05.085Z</time></trkpt><trkpt lat="40.8115317" lon="14.7728433"><ele>184.5</ele><time>2026-04-09T06:41:06.085Z</time></trkpt><trkpt lat="40.8117967" lon="14.77302"><ele>186.0</ele><time>2026-04-09T06:41:07.085Z</time></trkpt><trkpt lat="40.812055" lon="14.7732083"><ele>186.0</ele><time>2026-04-09T06:41:08.085Z</time></trkpt><trkpt lat="40.8123167" lon="14.7734133"><ele>186.0</ele><time>2026-04-09T06:41:09.085Z</time></trkpt><trkpt lat="40.8125733" lon="14.7736233"><ele>187.5</ele><time>2026-04-09T06:41:10.085Z</time></trkpt><trkpt lat="40.8128267" lon="14.773845"><ele>189.0</ele><time>2026-04-09T06:41:11.085Z</time></trkpt><trkpt lat="40.8130683" lon="14.77407"><ele>189.0</ele><time>2026-04-09T06:41:12.085Z</time></trkpt><trkpt lat="40.81331" lon="14.7743083"><ele>189.0</ele><time>2026-04-09T06:41:13.085Z</time></trkpt><trkpt lat="40.81354" lon="14.7745517"><ele>189.5</ele><time>2026-04-09T06:41:14.085Z</time></trkpt><trkpt lat="40.8137617" lon="14.774795"><ele>190.0</ele><time>2026-04-09T06:41:15.085Z</time></trkpt><trkpt lat="40.8139633" lon="14.7750383"><ele>190.0</ele><time>2026-04-09T06:41:16.085Z</time></trkpt><trkpt lat="40.8141583" lon="14.7752833"><ele>190.0</ele><time>2026-04-09T06:41:17.085Z</time></trkpt><trkpt lat="40.81435" lon="14.7755333"><ele>190.0</ele><time>2026-04-09T06:41:18.085Z</time></trkpt><trkpt lat="40.81453" lon="14.7757883"><ele>190.0</ele><time>2026-04-09T06:41:19.085Z</time></trkpt><trkpt lat="40.814705" lon="14.776055"><ele>191.5</ele><time>2026-04-09T06:41:20.085Z</time></trkpt><trkpt lat="40.8148783" lon="14.7763333"><ele>193.0</ele><time>2026-04-09T06:41:21.085Z</time></trkpt><trkpt lat="40.815045" lon="14.7766217"><ele>193.5</ele><time>2026-04-09T06:41:22.085Z</time></trkpt><trkpt lat="40.815205" lon="14.7769117"><ele>194.0</ele><time>2026-04-09T06:41:23.085Z</time></trkpt><trkpt lat="40.8153533" lon="14.777205"><ele>194.0</ele><time>2026-04-09T06:41:24.085Z</time></trkpt><trkpt lat="40.8154917" lon="14.77749"><ele>194.0</ele><time>2026-04-09T06:41:25.085Z</time></trkpt><trkpt lat="40.81562" lon="14.7777617"><ele>196.0</ele><time>2026-04-09T06:41:26.085Z</time></trkpt><trkpt lat="40.8157383" lon="14.7780333"><ele>198.0</ele><time>2026-04-09T06:41:27.085Z</time></trkpt><trkpt lat="40.8158467" lon="14.7783033"><ele>198.0</ele><time>2026-04-09T06:41:28.085Z</time></trkpt><trkpt lat="40.8159433" lon="14.7785833"><ele>198.0</ele><time>2026-04-09T06:41:29.085Z</time></trkpt><trkpt lat="40.8160367" lon="14.7788733"><ele>198.0</ele><time>2026-04-09T06:41:30.085Z</time></trkpt><trkpt lat="40.8161117" lon="14.7791583"><ele>198.0</ele><time>2026-04-09T06:41:31.085Z</time></trkpt><trkpt lat="40.8161767" lon="14.77944"><ele>199.0</ele><time>2026-04-09T06:41:32.085Z</time></trkpt><trkpt lat="40.8162433" lon="14.7797233"><ele>200.0</ele><time>2026-04-09T06:41:33.085Z</time></trkpt><trkpt lat="40.8163083" lon="14.78002"><ele>202.5</ele><time>2026-04-09T06:41:34.085Z</time></trkpt><trkpt lat="40.8163717" lon="14.7803283"><ele>205.0</ele><time>2026-04-09T06:41:35.085Z</time></trkpt><trkpt lat="40.816435" lon="14.7806433"><ele>205.0</ele><time>2026-04-09T06:41:36.085Z</time></trkpt><trkpt lat="40.8164833" lon="14.7809583"><ele>205.0</ele><time>2026-04-09T06:41:37.085Z</time></trkpt><trkpt lat="40.81653" lon="14.7812883"><ele>207.0</ele><time>2026-04-09T06:41:38.085Z</time></trkpt><trkpt lat="40.8165733" lon="14.7816233"><ele>209.0</ele><time>2026-04-09T06:41:39.085Z</time></trkpt><trkpt lat="40.8166167" lon="14.7819717"><ele>210.5</ele><time>2026-04-09T06:41:40.085Z</time></trkpt><trkpt lat="40.8166533" lon="14.78233"><ele>212.0</ele><time>2026-04-09T06:41:41.085Z</time></trkpt><trkpt lat="40.8166883" lon="14.7826983"><ele>213.0</ele><time>2026-04-09T06:41:42.085Z</time></trkpt><trkpt lat="40.8167267" lon="14.7830733"><ele>214.0</ele><time>2026-04-09T06:41:43.085Z</time></trkpt><trkpt lat="40.8167633" lon="14.78344"><ele>213.5</ele><time>2026-04-09T06:41:44.085Z</time></trkpt><trkpt lat="40.8167983" lon="14.78379"><ele>213.0</ele><time>2026-04-09T06:41:45.085Z</time></trkpt><trkpt lat="40.8168333" lon="14.7841333"><ele>214.0</ele><time>2026-04-09T06:41:46.085Z</time></trkpt><trkpt lat="40.816865" lon="14.784475"><ele>215.0</ele><time>2026-04-09T06:41:47.085Z</time></trkpt><trkpt lat="40.8168933" lon="14.7848017"><ele>215.0</ele><time>2026-04-09T06:41:48.085Z</time></trkpt><trkpt lat="40.8169217" lon="14.7851283"><ele>215.0</ele><time>2026-04-09T06:41:49.085Z</time></trkpt><trkpt lat="40.816955" lon="14.7854533"><ele>215.0</ele><time>2026-04-09T06:41:50.085Z</time></trkpt><trkpt lat="40.8169833" lon="14.7857833"><ele>215.0</ele><time>2026-04-09T06:41:51.085Z</time></trkpt><trkpt lat="40.8170133" lon="14.78611"><ele>216.0</ele><time>2026-04-09T06:41:52.085Z</time></trkpt><trkpt lat="40.817045" lon="14.786415"><ele>217.0</ele><time>2026-04-09T06:41:53.085Z</time></trkpt><trkpt lat="40.81707" lon="14.7867033"><ele>218.0</ele><time>2026-04-09T06:41:54.085Z</time></trkpt><trkpt lat="40.8170917" lon="14.7869917"><ele>219.0</ele><time>2026-04-09T06:41:55.085Z</time></trkpt><trkpt lat="40.8171183" lon="14.7872633"><ele>220.0</ele><time>2026-04-09T06:41:56.085Z</time></trkpt><trkpt lat="40.8171433" lon="14.7875333"><ele>220.0</ele><time>2026-04-09T06:41:57.085Z</time></trkpt><trkpt lat="40.817165" lon="14.7877983"><ele>220.0</ele><time>2026-04-09T06:41:58.085Z</time></trkpt><trkpt lat="40.8171883" lon="14.7880633"><ele>220.0</ele><time>2026-04-09T06:41:59.085Z</time></trkpt><trkpt lat="40.8172117" lon="14.7883333"><ele>219.66666666666666</ele><time>2026-04-09T06:42:00.085Z</time></trkpt><trkpt lat="40.81724" lon="14.788595"><ele>219.33333333333331</ele><time>2026-04-09T06:42:01.085Z</time></trkpt><trkpt lat="40.8172617" lon="14.78885"><ele>219.0</ele><time>2026-04-09T06:42:02.085Z</time></trkpt><trkpt lat="40.8172833" lon="14.7890983"><ele>220.66666666666669</ele><time>2026-04-09T06:42:03.085Z</time></trkpt><trkpt lat="40.8173067" lon="14.7893483"><ele>222.33333333333334</ele><time>2026-04-09T06:42:04.085Z</time></trkpt><trkpt lat="40.8173367" lon="14.789605"><ele>224.0</ele><time>2026-04-09T06:42:05.085Z</time></trkpt><trkpt lat="40.81736" lon="14.78986"><ele>224.0</ele><time>2026-04-09T06:42:06.085Z</time></trkpt><trkpt lat="40.817385" lon="14.7901167"><ele>224.0</ele><time>2026-04-09T06:42:07.085Z</time></trkpt><trkpt lat="40.8174067" lon="14.7903617"><ele>224.0</ele><time>2026-04-09T06:42:08.085Z</time></trkpt><trkpt lat="40.8174317" lon="14.7905933"><ele>224.66666666666669</ele><time>2026-04-09T06:42:09.085Z</time></trkpt><trkpt lat="40.8174567" lon="14.7908233"><ele>225.33333333333331</ele><time>2026-04-09T06:42:10.085Z</time></trkpt><trkpt lat="40.8174783" lon="14.7910533"><ele>226.0</ele><time>2026-04-09T06:42:11.085Z</time></trkpt><trkpt lat="40.8175033" lon="14.7912867"><ele>226.33333333333331</ele><time>2026-04-09T06:42:12.085Z</time></trkpt><trkpt lat="40.8175233" lon="14.7915183"><ele>226.66666666666669</ele><time>2026-04-09T06:42:13.085Z</time></trkpt><trkpt lat="40.8175467" lon="14.7917567"><ele>227.0</ele><time>2026-04-09T06:42:14.085Z</time></trkpt><trkpt lat="40.81757" lon="14.791995"><ele>227.33333333333334</ele><time>2026-04-09T06:42:15.085Z</time></trkpt><trkpt lat="40.8175917" lon="14.7922333"><ele>227.66666666666669</ele><time>2026-04-09T06:42:16.085Z</time></trkpt><trkpt lat="40.81762" lon="14.7924667"><ele>228.0</ele><time>2026-04-09T06:42:17.085Z</time></trkpt><trkpt lat="40.8176433" lon="14.7926983"><ele>228.33333333333331</ele><time>2026-04-09T06:42:18.085Z</time></trkpt><trkpt lat="40.8176783" lon="14.7929267"><ele>228.66666666666666</ele><time>2026-04-09T06:42:19.085Z</time></trkpt><trkpt lat="40.8177183" lon="14.7931417"><ele>229.0</ele><time>2026-04-09T06:42:20.085Z</time></trkpt><trkpt lat="40.8177633" lon="14.7933617"><ele>228.66666666666666</ele><time>2026-04-09T06:42:21.085Z</time></trkpt><trkpt lat="40.8178083" lon="14.7935883"><ele>228.33333333333331</ele><time>2026-04-09T06:42:22.085Z</time></trkpt><trkpt lat="40.8178533" lon="14.79381"><ele>228.0</ele><time>2026-04-09T06:42:23.085Z</time></trkpt><trkpt lat="40.8179033" lon="14.794035"><ele>228.0</ele><time>2026-04-09T06:42:24.085Z</time></trkpt><trkpt lat="40.8179517" lon="14.79425"><ele>228.0</ele><time>2026-04-09T06:42:25.085Z</time></trkpt><trkpt lat="40.8180033" lon="14.7944467"><ele>228.0</ele><time>2026-04-09T06:42:26.085Z</time></trkpt><trkpt lat="40.8180567" lon="14.7946417"><ele>229.33333333333331</ele><time>2026-04-09T06:42:27.085Z</time></trkpt><trkpt lat="40.8181167" lon="14.7948517"><ele>230.66666666666666</ele><time>2026-04-09T06:42:28.085Z</time></trkpt><trkpt lat="40.818185" lon="14.7950583"><ele>232.0</ele><time>2026-04-09T06:42:29.085Z</time></trkpt><trkpt lat="40.8182483" lon="14.7952617"><ele>234.33333333333331</ele><time>2026-04-09T06:42:30.085Z</time></trkpt><trkpt lat="40.8183117" lon="14.7954717"><ele>236.66666666666669</ele><time>2026-04-09T06:42:31.085Z</time></trkpt><trkpt lat="40.8183767" lon="14.79569"><ele>239.0</ele><time>2026-04-09T06:42:32.085Z</time></trkpt><trkpt lat="40.8184383" lon="14.79591"><ele>238.33333333333334</ele><time>2026-04-09T06:42:33.085Z</time></trkpt><trkpt lat="40.8185067" lon="14.796115"><ele>237.66666666666669</ele><time>2026-04-09T06:42:34.085Z</time></trkpt><trkpt lat="40.8185733" lon="14.7963117"><ele>237.0</ele><time>2026-04-09T06:42:35.085Z</time></trkpt><trkpt lat="40.8186383" lon="14.796515"><ele>237.0</ele><time>2026-04-09T06:42:36.085Z</time></trkpt><trkpt lat="40.8187017" lon="14.7967067"><ele>237.0</ele><time>2026-04-09T06:42:37.085Z</time></trkpt><trkpt lat="40.818765" lon="14.7969017"><ele>237.0</ele><time>2026-04-09T06:42:38.085Z</time></trkpt><trkpt lat="40.818835" lon="14.797105"><ele>239.33333333333331</ele><time>2026-04-09T06:42:39.085Z</time></trkpt><trkpt lat="40.8189" lon="14.7973017"><ele>241.66666666666666</ele><time>2026-04-09T06:42:40.085Z</time></trkpt><trkpt lat="40.8189617" lon="14.797495"><ele>244.0</ele><time>2026-04-09T06:42:41.085Z</time></trkpt><trkpt lat="40.819025" lon="14.7976817"><ele>244.66666666666666</ele><time>2026-04-09T06:42:42.085Z</time></trkpt><trkpt lat="40.8190867" lon="14.797875"><ele>245.33333333333331</ele><time>2026-04-09T06:42:43.085Z</time></trkpt><trkpt lat="40.8191467" lon="14.798065"><ele>246.0</ele><time>2026-04-09T06:42:44.085Z</time></trkpt><trkpt lat="40.8192117" lon="14.798255"><ele>246.0</ele><time>2026-04-09T06:42:45.085Z</time></trkpt><trkpt lat="40.819275" lon="14.7984483"><ele>246.0</ele><time>2026-04-09T06:42:46.085Z</time></trkpt><trkpt lat="40.8193383" lon="14.7986333"><ele>246.0</ele><time>2026-04-09T06:42:47.085Z</time></trkpt><trkpt lat="40.8194" lon="14.7988133"><ele>245.66666666666669</ele><time>2026-04-09T06:42:48.085Z</time></trkpt><trkpt lat="40.8194567" lon="14.7990033"><ele>245.33333333333334</ele><time>2026-04-09T06:42:49.085Z</time></trkpt><trkpt lat="40.819525" lon="14.7991867"><ele>245.0</ele><time>2026-04-09T06:42:50.085Z</time></trkpt><trkpt lat="40.8195867" lon="14.7993733"><ele>245.66666666666669</ele><time>2026-04-09T06:42:51.085Z</time></trkpt><trkpt lat="40.8196517" lon="14.799565"><ele>246.33333333333331</ele><time>2026-04-09T06:42:52.085Z</time></trkpt><trkpt lat="40.8197183" lon="14.7997533"><ele>247.0</ele><time>2026-04-09T06:42:53.085Z</time></trkpt><trkpt lat="40.819785" lon="14.7999483"><ele>247.0</ele><time>2026-04-09T06:42:54.085Z</time></trkpt><trkpt lat="40.8198483" lon="14.800145"><ele>247.0</ele><time>2026-04-09T06:42:55.085Z</time></trkpt><trkpt lat="40.8199117" lon="14.8003367"><ele>247.0</ele><time>2026-04-09T06:42:56.085Z</time></trkpt><trkpt lat="40.8199717" lon="14.8005217"><ele>247.33333333333331</ele><time>2026-04-09T06:42:57.085Z</time></trkpt><trkpt lat="40.82003" lon="14.8007033"><ele>247.66666666666669</ele><time>2026-04-09T06:42:58.085Z</time></trkpt><trkpt lat="40.82009" lon="14.8008817"><ele>248.0</ele><time>2026-04-09T06:42:59.085Z</time></trkpt><trkpt lat="40.8201517" lon="14.8010667"><ele>248.66666666666669</ele><time>2026-04-09T06:43:00.085Z</time></trkpt><trkpt lat="40.820215" lon="14.8012583"><ele>249.33333333333331</ele><time>2026-04-09T06:43:01.085Z</time></trkpt><trkpt lat="40.8202767" lon="14.80145"><ele>250.0</ele><time>2026-04-09T06:43:02.085Z</time></trkpt><trkpt lat="40.820335" lon="14.8016383"><ele>250.0</ele><time>2026-04-09T06:43:03.085Z</time></trkpt><trkpt lat="40.8204" lon="14.80183"><ele>250.0</ele><time>2026-04-09T06:43:04.085Z</time></trkpt><trkpt lat="40.820465" lon="14.8020217"><ele>250.0</ele><time>2026-04-09T06:43:05.085Z</time></trkpt><trkpt lat="40.8205283" lon="14.8022117"><ele>250.66666666666666</ele><time>2026-04-09T06:43:06.085Z</time></trkpt><trkpt lat="40.8205883" lon="14.8023967"><ele>251.33333333333331</ele><time>2026-04-09T06:43:07.085Z</time></trkpt><trkpt lat="40.8206567" lon="14.8025883"><ele>252.0</ele><time>2026-04-09T06:43:08.085Z</time></trkpt><trkpt lat="40.82072" lon="14.8027817"><ele>253.66666666666669</ele><time>2026-04-09T06:43:09.085Z</time></trkpt><trkpt lat="40.8207833" lon="14.80298"><ele>255.33333333333334</ele><time>2026-04-09T06:43:10.085Z</time></trkpt><trkpt lat="40.820855" lon="14.8031833"><ele>257.0</ele><time>2026-04-09T06:43:11.085Z</time></trkpt><trkpt lat="40.8209333" lon="14.8033933"><ele>257.33333333333337</ele><time>2026-04-09T06:43:12.085Z</time></trkpt><trkpt lat="40.821015" lon="14.80363"><ele>257.6666666666667</ele><time>2026-04-09T06:43:13.085Z</time></trkpt><trkpt lat="40.8211067" lon="14.803875"><ele>258.0</ele><time>2026-04-09T06:43:14.085Z</time></trkpt><trkpt lat="40.8212" lon="14.8041383"><ele>260.0</ele><time>2026-04-09T06:43:15.085Z</time></trkpt><trkpt lat="40.8212933" lon="14.8044067"><ele>262.0</ele><time>2026-04-09T06:43:16.085Z</time></trkpt><trkpt lat="40.82139" lon="14.8046717"><ele>264.0</ele><time>2026-04-09T06:43:17.085Z</time></trkpt><trkpt lat="40.82149" lon="14.80493"><ele>265.0</ele><time>2026-04-09T06:43:18.085Z</time></trkpt><trkpt lat="40.8215967" lon="14.8051783"><ele>266.0</ele><time>2026-04-09T06:43:19.085Z</time></trkpt><trkpt lat="40.8217067" lon="14.805425"><ele>267.0</ele><time>2026-04-09T06:43:20.084Z</time></trkpt><trkpt lat="40.821815" lon="14.80567"><ele>266.3333333333333</ele><time>2026-04-09T06:43:21.085Z</time></trkpt><trkpt lat="40.8219217" lon="14.8059017"><ele>265.66666666666663</ele><time>2026-04-09T06:43:22.085Z</time></trkpt><trkpt lat="40.82203" lon="14.80613"><ele>265.0</ele><time>2026-04-09T06:43:23.085Z</time></trkpt><trkpt lat="40.8221333" lon="14.8063617"><ele>265.0</ele><time>2026-04-09T06:43:24.085Z</time></trkpt><trkpt lat="40.82225" lon="14.80659"><ele>265.0</ele><time>2026-04-09T06:43:25.085Z</time></trkpt><trkpt lat="40.8223667" lon="14.8068183"><ele>265.0</ele><time>2026-04-09T06:43:26.085Z</time></trkpt><trkpt lat="40.82249" lon="14.8070433"><ele>266.0</ele><time>2026-04-09T06:43:27.085Z</time></trkpt><trkpt lat="40.8226183" lon="14.8072667"><ele>267.0</ele><time>2026-04-09T06:43:28.085Z</time></trkpt><trkpt lat="40.8227417" lon="14.8074933"><ele>268.0</ele><time>2026-04-09T06:43:29.085Z</time></trkpt><trkpt lat="40.8228733" lon="14.80772"><ele>269.0</ele><time>2026-04-09T06:43:30.085Z</time></trkpt><trkpt lat="40.8230117" lon="14.807945"><ele>270.0</ele><time>2026-04-09T06:43:31.085Z</time></trkpt><trkpt lat="40.8231533" lon="14.8081633"><ele>271.0</ele><time>2026-04-09T06:43:32.085Z</time></trkpt><trkpt lat="40.823305" lon="14.8083733"><ele>273.5</ele><time>2026-04-09T06:43:33.085Z</time></trkpt><trkpt lat="40.8234733" lon="14.8085983"><ele>276.0</ele><time>2026-04-09T06:43:34.085Z</time></trkpt><trkpt lat="40.8236433" lon="14.8088367"><ele>276.0</ele><time>2026-04-09T06:43:35.085Z</time></trkpt><trkpt lat="40.8238183" lon="14.8090767"><ele>276.0</ele><time>2026-04-09T06:43:36.085Z</time></trkpt><trkpt lat="40.824" lon="14.809325"><ele>275.5</ele><time>2026-04-09T06:43:37.085Z</time></trkpt><trkpt lat="40.8241783" lon="14.8095717"><ele>275.0</ele><time>2026-04-09T06:43:38.085Z</time></trkpt><trkpt lat="40.8243583" lon="14.8098233"><ele>275.0</ele><time>2026-04-09T06:43:39.085Z</time></trkpt><trkpt lat="40.824535" lon="14.8100717"><ele>275.0</ele><time>2026-04-09T06:43:40.085Z</time></trkpt><trkpt lat="40.8247117" lon="14.810315"><ele>276.0</ele><time>2026-04-09T06:43:41.085Z</time></trkpt><trkpt lat="40.8248867" lon="14.8105633"><ele>277.0</ele><time>2026-04-09T06:43:42.085Z</time></trkpt><trkpt lat="40.8250633" lon="14.8108083"><ele>275.5</ele><time>2026-04-09T06:43:43.085Z</time></trkpt><trkpt lat="40.82524" lon="14.8110567"><ele>274.0</ele><time>2026-04-09T06:43:44.085Z</time></trkpt><trkpt lat="40.825415" lon="14.8112883"><ele>274.0</ele><time>2026-04-09T06:43:45.085Z</time></trkpt><trkpt lat="40.825595" lon="14.81152"><ele>274.0</ele><time>2026-04-09T06:43:46.085Z</time></trkpt><trkpt lat="40.8257617" lon="14.8117483"><ele>274.0</ele><time>2026-04-09T06:43:47.085Z</time></trkpt><trkpt lat="40.8259283" lon="14.8119783"><ele>274.0</ele><time>2026-04-09T06:43:48.085Z</time></trkpt><trkpt lat="40.8260917" lon="14.8122033"><ele>274.0</ele><time>2026-04-09T06:43:49.085Z</time></trkpt><trkpt lat="40.82625" lon="14.8124233"><ele>274.0</ele><time>2026-04-09T06:43:50.085Z</time></trkpt><trkpt lat="40.8264083" lon="14.8126333"><ele>274.3333333333333</ele><time>2026-04-09T06:43:51.085Z</time></trkpt><trkpt lat="40.826565" lon="14.8128367"><ele>274.6666666666667</ele><time>2026-04-09T06:43:52.085Z</time></trkpt><trkpt lat="40.8267167" lon="14.813045"><ele>275.0</ele><time>2026-04-09T06:43:53.085Z</time></trkpt><trkpt lat="40.8268667" lon="14.8132533"><ele>275.0</ele><time>2026-04-09T06:43:54.085Z</time></trkpt><trkpt lat="40.8270167" lon="14.8134667"><ele>275.0</ele><time>2026-04-09T06:43:55.085Z</time></trkpt><trkpt lat="40.827165" lon="14.81368"><ele>275.0</ele><time>2026-04-09T06:43:56.085Z</time></trkpt><trkpt lat="40.8273083" lon="14.8139"><ele>275.6666666666667</ele><time>2026-04-09T06:43:57.085Z</time></trkpt><trkpt lat="40.82745" lon="14.8141"><ele>276.3333333333333</ele><time>2026-04-09T06:43:58.085Z</time></trkpt><trkpt lat="40.8275867" lon="14.8142867"><ele>277.0</ele><time>2026-04-09T06:43:59.085Z</time></trkpt><trkpt lat="40.8277117" lon="14.8144633"><ele>278.3333333333333</ele><time>2026-04-09T06:44:00.086Z</time></trkpt><trkpt lat="40.8278317" lon="14.8146333"><ele>279.6666666666667</ele><time>2026-04-09T06:44:01.085Z</time></trkpt><trkpt lat="40.82795" lon="14.8148033"><ele>281.0</ele><time>2026-04-09T06:44:02.085Z</time></trkpt><trkpt lat="40.8280733" lon="14.8149683"><ele>281.0</ele><time>2026-04-09T06:44:03.085Z</time></trkpt><trkpt lat="40.8281983" lon="14.81513"><ele>281.0</ele><time>2026-04-09T06:44:04.085Z</time></trkpt><trkpt lat="40.82833" lon="14.8152983"><ele>281.0</ele><time>2026-04-09T06:44:05.085Z</time></trkpt><trkpt lat="40.8284583" lon="14.815465"><ele>282.0</ele><time>2026-04-09T06:44:06.085Z</time></trkpt><trkpt lat="40.8285917" lon="14.8156417"><ele>283.0</ele><time>2026-04-09T06:44:07.085Z</time></trkpt><trkpt lat="40.8287283" lon="14.8158183"><ele>284.0</ele><time>2026-04-09T06:44:08.085Z</time></trkpt><trkpt lat="40.8288583" lon="14.815995"><ele>284.33333333333337</ele><time>2026-04-09T06:44:09.085Z</time></trkpt><trkpt lat="40.8289867" lon="14.8161717"><ele>284.6666666666667</ele><time>2026-04-09T06:44:10.085Z</time></trkpt><trkpt lat="40.8291167" lon="14.81635"><ele>285.0</ele><time>2026-04-09T06:44:11.085Z</time></trkpt><trkpt lat="40.8292433" lon="14.8165317"><ele>285.3333333333333</ele><time>2026-04-09T06:44:12.085Z</time></trkpt><trkpt lat="40.8293717" lon="14.8167033"><ele>285.66666666666663</ele><time>2026-04-09T06:44:13.085Z</time></trkpt><trkpt lat="40.8295017" lon="14.8168783"><ele>286.0</ele><time>2026-04-09T06:44:14.085Z</time></trkpt><trkpt lat="40.82963" lon="14.817055"><ele>286.0</ele><time>2026-04-09T06:44:15.085Z</time></trkpt><trkpt lat="40.8297583" lon="14.81723"><ele>286.0</ele><time>2026-04-09T06:44:16.085Z</time></trkpt><trkpt lat="40.8298967" lon="14.81741"><ele>286.0</ele><time>2026-04-09T06:44:17.085Z</time></trkpt><trkpt lat="40.8300367" lon="14.8175917"><ele>286.3333333333333</ele><time>2026-04-09T06:44:18.085Z</time></trkpt><trkpt lat="40.830175" lon="14.8177883"><ele>286.6666666666667</ele><time>2026-04-09T06:44:19.085Z</time></trkpt><trkpt lat="40.83033" lon="14.81799"><ele>287.0</ele><time>2026-04-09T06:44:20.085Z</time></trkpt><trkpt lat="40.830485" lon="14.8182117"><ele>287.0</ele><time>2026-04-09T06:44:21.085Z</time></trkpt><trkpt lat="40.8306467" lon="14.81845"><ele>287.0</ele><time>2026-04-09T06:44:22.085Z</time></trkpt><trkpt lat="40.8308167" lon="14.8187"><ele>288.5</ele><time>2026-04-09T06:44:23.085Z</time></trkpt><trkpt lat="40.8309983" lon="14.8189367"><ele>290.0</ele><time>2026-04-09T06:44:24.085Z</time></trkpt><trkpt lat="40.8311867" lon="14.8191883"><ele>292.0</ele><time>2026-04-09T06:44:25.085Z</time></trkpt><trkpt lat="40.8313767" lon="14.8194417"><ele>294.0</ele><time>2026-04-09T06:44:26.085Z</time></trkpt><trkpt lat="40.8315633" lon="14.8196967"><ele>294.0</ele><time>2026-04-09T06:44:27.085Z</time></trkpt><trkpt lat="40.8317417" lon="14.8199567"><ele>294.0</ele><time>2026-04-09T06:44:28.085Z</time></trkpt><trkpt lat="40.83191" lon="14.82023"><ele>295.0</ele><time>2026-04-09T06:44:29.085Z</time></trkpt><trkpt lat="40.83207" lon="14.8205033"><ele>296.0</ele><time>2026-04-09T06:44:30.085Z</time></trkpt><trkpt lat="40.8322233" lon="14.8207767"><ele>296.5</ele><time>2026-04-09T06:44:31.085Z</time></trkpt><trkpt lat="40.83237" lon="14.8210567"><ele>297.0</ele><time>2026-04-09T06:44:32.085Z</time></trkpt><trkpt lat="40.8325133" lon="14.8213367"><ele>298.0</ele><time>2026-04-09T06:44:33.085Z</time></trkpt><trkpt lat="40.8326533" lon="14.821625"><ele>299.0</ele><time>2026-04-09T06:44:34.085Z</time></trkpt><trkpt lat="40.8327767" lon="14.8219133"><ele>300.5</ele><time>2026-04-09T06:44:35.085Z</time></trkpt><trkpt lat="40.8329017" lon="14.8222233"><ele>302.0</ele><time>2026-04-09T06:44:36.085Z</time></trkpt><trkpt lat="40.8330217" lon="14.8225383"><ele>303.5</ele><time>2026-04-09T06:44:37.085Z</time></trkpt><trkpt lat="40.8331417" lon="14.8228667"><ele>305.0</ele><time>2026-04-09T06:44:38.085Z</time></trkpt><trkpt lat="40.8332517" lon="14.8231983"><ele>306.0</ele><time>2026-04-09T06:44:39.085Z</time></trkpt><trkpt lat="40.83335" lon="14.823535"><ele>307.0</ele><time>2026-04-09T06:44:40.085Z</time></trkpt><trkpt lat="40.8334467" lon="14.8238717"><ele>308.5</ele><time>2026-04-09T06:44:41.085Z</time></trkpt><trkpt lat="40.83353" lon="14.82421"><ele>310.0</ele><time>2026-04-09T06:44:42.085Z</time></trkpt><trkpt lat="40.833605" lon="14.8245433"><ele>310.5</ele><time>2026-04-09T06:44:43.085Z</time></trkpt><trkpt lat="40.8336717" lon="14.82488"><ele>311.0</ele><time>2026-04-09T06:44:44.085Z</time></trkpt><trkpt lat="40.8337333" lon="14.82522"><ele>311.0</ele><time>2026-04-09T06:44:45.085Z</time></trkpt><trkpt lat="40.8337867" lon="14.8255633"><ele>311.0</ele><time>2026-04-09T06:44:46.085Z</time></trkpt><trkpt lat="40.8338283" lon="14.8259167"><ele>313.0</ele><time>2026-04-09T06:44:47.085Z</time></trkpt><trkpt lat="40.8338617" lon="14.82627"><ele>315.0</ele><time>2026-04-09T06:44:48.085Z</time></trkpt><trkpt lat="40.8338867" lon="14.826625"><ele>315.5</ele><time>2026-04-09T06:44:49.085Z</time></trkpt><trkpt lat="40.8339083" lon="14.8269867"><ele>316.0</ele><time>2026-04-09T06:44:50.085Z</time></trkpt><trkpt lat="40.8339217" lon="14.8273467"><ele>317.5</ele><time>2026-04-09T06:44:51.085Z</time></trkpt><trkpt lat="40.833935" lon="14.827705"><ele>319.0</ele><time>2026-04-09T06:44:52.085Z</time></trkpt><trkpt lat="40.8339333" lon="14.8280683"><ele>319.0</ele><time>2026-04-09T06:44:53.085Z</time></trkpt><trkpt lat="40.8339217" lon="14.8284267"><ele>319.0</ele><time>2026-04-09T06:44:54.085Z</time></trkpt><trkpt lat="40.8338983" lon="14.828775"><ele>320.0</ele><time>2026-04-09T06:44:55.085Z</time></trkpt><trkpt lat="40.83387" lon="14.8291233"><ele>321.0</ele><time>2026-04-09T06:44:56.085Z</time></trkpt><trkpt lat="40.833845" lon="14.8294583"><ele>321.5</ele><time>2026-04-09T06:44:57.085Z</time></trkpt><trkpt lat="40.8338217" lon="14.82978"><ele>322.0</ele><time>2026-04-09T06:44:58.085Z</time></trkpt><trkpt lat="40.8338" lon="14.830095"><ele>323.0</ele><time>2026-04-09T06:44:59.085Z</time></trkpt><trkpt lat="40.8337733" lon="14.8304167"><ele>324.0</ele><time>2026-04-09T06:45:00.086Z</time></trkpt><trkpt lat="40.8337517" lon="14.8307367"><ele>326.0</ele><time>2026-04-09T06:45:01.085Z</time></trkpt><trkpt lat="40.8337283" lon="14.831055"><ele>328.0</ele><time>2026-04-09T06:45:02.085Z</time></trkpt><trkpt lat="40.833705" lon="14.83137"><ele>328.0</ele><time>2026-04-09T06:45:03.085Z</time></trkpt><trkpt lat="40.833685" lon="14.8316767"><ele>328.0</ele><time>2026-04-09T06:45:04.085Z</time></trkpt><trkpt lat="40.833665" lon="14.8319817"><ele>329.0</ele><time>2026-04-09T06:45:05.085Z</time></trkpt><trkpt lat="40.8336433" lon="14.832285"><ele>330.0</ele><time>2026-04-09T06:45:06.085Z</time></trkpt><trkpt lat="40.833625" lon="14.832595"><ele>331.5</ele><time>2026-04-09T06:45:07.085Z</time></trkpt><trkpt lat="40.8336083" lon="14.8329033"><ele>333.0</ele><time>2026-04-09T06:45:08.085Z</time></trkpt><trkpt lat="40.8335917" lon="14.8332167"><ele>336.5</ele><time>2026-04-09T06:45:09.085Z</time></trkpt><trkpt lat="40.8335817" lon="14.8335133"><ele>340.0</ele><time>2026-04-09T06:45:10.085Z</time></trkpt><trkpt lat="40.833575" lon="14.8338117"><ele>340.0</ele><time>2026-04-09T06:45:11.085Z</time></trkpt><trkpt lat="40.8335783" lon="14.8341067"><ele>340.0</ele><time>2026-04-09T06:45:12.085Z</time></trkpt><trkpt lat="40.8335917" lon="14.834395"><ele>340.0</ele><time>2026-04-09T06:45:13.085Z</time></trkpt><trkpt lat="40.83361" lon="14.8346717"><ele>343.0</ele><time>2026-04-09T06:45:14.085Z</time></trkpt><trkpt lat="40.8336367" lon="14.8349483"><ele>346.0</ele><time>2026-04-09T06:45:15.085Z</time></trkpt><trkpt lat="40.8336717" lon="14.8352083"><ele>349.0</ele><time>2026-04-09T06:45:16.085Z</time></trkpt><trkpt lat="40.8337133" lon="14.835455"><ele>349.0</ele><time>2026-04-09T06:45:17.085Z</time></trkpt><trkpt lat="40.8337633" lon="14.8357017"><ele>349.0</ele><time>2026-04-09T06:45:18.085Z</time></trkpt><trkpt lat="40.8338067" lon="14.8359533"><ele>349.0</ele><time>2026-04-09T06:45:19.085Z</time></trkpt><trkpt lat="40.8338567" lon="14.8362017"><ele>348.3333333333333</ele><time>2026-04-09T06:45:20.085Z</time></trkpt><trkpt lat="40.8339167" lon="14.836445"><ele>347.6666666666667</ele><time>2026-04-09T06:45:21.085Z</time></trkpt><trkpt lat="40.8339833" lon="14.8366733"><ele>347.0</ele><time>2026-04-09T06:45:22.085Z</time></trkpt><trkpt lat="40.8340517" lon="14.83689"><ele>348.33333333333337</ele><time>2026-04-09T06:45:23.085Z</time></trkpt><trkpt lat="40.83412" lon="14.8370967"><ele>349.6666666666667</ele><time>2026-04-09T06:45:24.085Z</time></trkpt><trkpt lat="40.8341967" lon="14.8373"><ele>351.0</ele><time>2026-04-09T06:45:25.085Z</time></trkpt><trkpt lat="40.8342783" lon="14.8375067"><ele>351.6666666666667</ele><time>2026-04-09T06:45:26.085Z</time></trkpt><trkpt lat="40.834365" lon="14.837705"><ele>352.33333333333337</ele><time>2026-04-09T06:45:27.085Z</time></trkpt><trkpt lat="40.834455" lon="14.8378967"><ele>353.0</ele><time>2026-04-09T06:45:28.085Z</time></trkpt><trkpt lat="40.834545" lon="14.8380817"><ele>353.0</ele><time>2026-04-09T06:45:29.085Z</time></trkpt><trkpt lat="40.8346417" lon="14.8382683"><ele>353.0</ele><time>2026-04-09T06:45:30.085Z</time></trkpt><trkpt lat="40.834735" lon="14.8384483"><ele>353.0</ele><time>2026-04-09T06:45:31.085Z</time></trkpt><trkpt lat="40.834835" lon="14.8386283"><ele>354.33333333333337</ele><time>2026-04-09T06:45:32.085Z</time></trkpt><trkpt lat="40.834945" lon="14.8388033"><ele>355.6666666666667</ele><time>2026-04-09T06:45:33.085Z</time></trkpt><trkpt lat="40.8350467" lon="14.8389633"><ele>357.0</ele><time>2026-04-09T06:45:34.085Z</time></trkpt><trkpt lat="40.8351433" lon="14.839105"><ele>357.75</ele><time>2026-04-09T06:45:35.085Z</time></trkpt><trkpt lat="40.8352367" lon="14.8392433"><ele>358.5</ele><time>2026-04-09T06:45:36.085Z</time></trkpt><trkpt lat="40.8353267" lon="14.8393767"><ele>359.25</ele><time>2026-04-09T06:45:37.085Z</time></trkpt><trkpt lat="40.8354233" lon="14.8395017"><ele>360.0</ele><time>2026-04-09T06:45:38.085Z</time></trkpt><trkpt lat="40.83552" lon="14.83962"><ele>360.0</ele><time>2026-04-09T06:45:39.085Z</time></trkpt><trkpt lat="40.8356083" lon="14.8397417"><ele>360.0</ele><time>2026-04-09T06:45:40.085Z</time></trkpt><trkpt lat="40.8356933" lon="14.8398483"><ele>360.0</ele><time>2026-04-09T06:45:41.085Z</time></trkpt><trkpt lat="40.8357717" lon="14.8399567"><ele>360.0</ele><time>2026-04-09T06:45:42.085Z</time></trkpt><trkpt lat="40.8358567" lon="14.8400667"><ele>360.0</ele><time>2026-04-09T06:45:43.085Z</time></trkpt><trkpt lat="40.8359433" lon="14.8401783"><ele>360.0</ele><time>2026-04-09T06:45:44.085Z</time></trkpt><trkpt lat="40.8360283" lon="14.84028"><ele>360.0</ele><time>2026-04-09T06:45:45.085Z</time></trkpt><trkpt lat="40.83611" lon="14.84038"><ele>360.0</ele><time>2026-04-09T06:45:46.085Z</time></trkpt><trkpt lat="40.8361933" lon="14.8404783"><ele>360.5</ele><time>2026-04-09T06:45:47.085Z</time></trkpt><trkpt lat="40.8362683" lon="14.8405633"><ele>361.0</ele><time>2026-04-09T06:45:48.085Z</time></trkpt><trkpt lat="40.8363367" lon="14.84064"><ele>361.5</ele><time>2026-04-09T06:45:49.085Z</time></trkpt><trkpt lat="40.836395" lon="14.8407067"><ele>362.0</ele><time>2026-04-09T06:45:50.085Z</time></trkpt><trkpt lat="40.8364483" lon="14.840765"><ele>362.5</ele><time>2026-04-09T06:45:51.085Z</time></trkpt><trkpt lat="40.8365367" lon="14.8408583"><ele>363.0</ele><time>2026-04-09T06:45:53.085Z</time></trkpt><trkpt lat="40.8366267" lon="14.8409617"><ele>364.2857142857143</ele><time>2026-04-09T06:45:55.085Z</time></trkpt><trkpt lat="40.83668" lon="14.84101"><ele>365.57142857142856</ele><time>2026-04-09T06:45:56.085Z</time></trkpt><trkpt lat="40.8367333" lon="14.8410633"><ele>366.8571428571429</ele><time>2026-04-09T06:45:57.085Z</time></trkpt><trkpt lat="40.836785" lon="14.8411183"><ele>368.1428571428571</ele><time>2026-04-09T06:45:58.085Z</time></trkpt><trkpt lat="40.8368433" lon="14.8411733"><ele>369.42857142857144</ele><time>2026-04-09T06:45:59.085Z</time></trkpt><trkpt lat="40.8369067" lon="14.8412317"><ele>370.7142857142857</ele><time>2026-04-09T06:46:00.085Z</time></trkpt><trkpt lat="40.8369733" lon="14.841295"><ele>372.0</ele><time>2026-04-09T06:46:01.085Z</time></trkpt><trkpt lat="40.8370383" lon="14.8413567"><ele>374.0</ele><time>2026-04-09T06:46:02.085Z</time></trkpt><trkpt lat="40.8371017" lon="14.8414267"><ele>376.0</ele><time>2026-04-09T06:46:03.085Z</time></trkpt><trkpt lat="40.837165" lon="14.8414883"><ele>378.0</ele><time>2026-04-09T06:46:04.085Z</time></trkpt><trkpt lat="40.83724" lon="14.8415517"><ele>380.0</ele><time>2026-04-09T06:46:05.085Z</time></trkpt><trkpt lat="40.83731" lon="14.8416217"><ele>382.0</ele><time>2026-04-09T06:46:06.085Z</time></trkpt><trkpt lat="40.8373767" lon="14.84169"><ele>384.0</ele><time>2026-04-09T06:46:07.085Z</time></trkpt><trkpt lat="40.8374483" lon="14.841765"><ele>387.4</ele><time>2026-04-09T06:46:08.085Z</time></trkpt><trkpt lat="40.8375267" lon="14.8418417"><ele>390.79999999999995</ele><time>2026-04-09T06:46:09.085Z</time></trkpt><trkpt lat="40.8376" lon="14.841925"><ele>394.20000000000005</ele><time>2026-04-09T06:46:10.085Z</time></trkpt><trkpt lat="40.8376733" lon="14.8419933"><ele>397.6</ele><time>2026-04-09T06:46:11.085Z</time></trkpt><trkpt lat="40.8377483" lon="14.8420667"><ele>401.0</ele><time>2026-04-09T06:46:12.085Z</time></trkpt><trkpt lat="40.85441" lon="14.8565817"><ele>400.25</ele><time>2026-04-09T06:48:42.084Z</time></trkpt><trkpt lat="40.854475" lon="14.85682"><ele>399.5</ele><time>2026-04-09T06:48:43.084Z</time></trkpt><trkpt lat="40.8545683" lon="14.856915"><ele>398.75</ele><time>2026-04-09T06:48:44.084Z</time></trkpt><trkpt lat="40.8546683" lon="14.8569883"><ele>398.0</ele><time>2026-04-09T06:48:45.084Z</time></trkpt><trkpt lat="40.8547733" lon="14.8570583"><ele>398.0</ele><time>2026-04-09T06:48:46.084Z</time></trkpt><trkpt lat="40.85488" lon="14.85713"><ele>398.0</ele><time>2026-04-09T06:48:47.084Z</time></trkpt><trkpt lat="40.8549883" lon="14.8571967"><ele>398.0</ele><time>2026-04-09T06:48:48.084Z</time></trkpt><trkpt lat="40.8551033" lon="14.8572617"><ele>398.0</ele><time>2026-04-09T06:48:49.084Z</time></trkpt><trkpt lat="40.8552183" lon="14.8573283"><ele>397.25</ele><time>2026-04-09T06:48:50.084Z</time></trkpt><trkpt lat="40.85534" lon="14.8574033"><ele>396.5</ele><time>2026-04-09T06:48:51.084Z</time></trkpt><trkpt lat="40.855475" lon="14.8574617"><ele>395.75</ele><time>2026-04-09T06:48:52.084Z</time></trkpt><trkpt lat="40.8556133" lon="14.8575283"><ele>395.0</ele><time>2026-04-09T06:48:53.084Z</time></trkpt><trkpt lat="40.85576" lon="14.8575933"><ele>393.25</ele><time>2026-04-09T06:48:54.084Z</time></trkpt><trkpt lat="40.8559033" lon="14.8576433"><ele>391.5</ele><time>2026-04-09T06:48:55.084Z</time></trkpt><trkpt lat="40.8560467" lon="14.8577017"><ele>389.75</ele><time>2026-04-09T06:48:56.084Z</time></trkpt><trkpt lat="40.8561883" lon="14.8577583"><ele>388.0</ele><time>2026-04-09T06:48:57.084Z</time></trkpt><trkpt lat="40.8563367" lon="14.8578083"><ele>388.0</ele><time>2026-04-09T06:48:58.084Z</time></trkpt><trkpt lat="40.8564767" lon="14.8578667"><ele>388.0</ele><time>2026-04-09T06:48:59.084Z</time></trkpt><trkpt lat="40.8566083" lon="14.8579283"><ele>388.0</ele><time>2026-04-09T06:49:00.084Z</time></trkpt><trkpt lat="40.8567467" lon="14.8579833"><ele>388.0</ele><time>2026-04-09T06:49:01.084Z</time></trkpt><trkpt lat="40.8568933" lon="14.85804"><ele>387.0</ele><time>2026-04-09T06:49:02.084Z</time></trkpt><trkpt lat="40.85704" lon="14.8580983"><ele>386.0</ele><time>2026-04-09T06:49:03.084Z</time></trkpt><trkpt lat="40.85719" lon="14.8581583"><ele>385.0</ele><time>2026-04-09T06:49:04.084Z</time></trkpt><trkpt lat="40.857335" lon="14.8582183"><ele>385.0</ele><time>2026-04-09T06:49:05.084Z</time></trkpt><trkpt lat="40.8574767" lon="14.8582783"><ele>385.0</ele><time>2026-04-09T06:49:06.084Z</time></trkpt><trkpt lat="40.857615" lon="14.858335"><ele>385.0</ele><time>2026-04-09T06:49:07.084Z</time></trkpt><trkpt lat="40.8577517" lon="14.85839"><ele>385.0</ele><time>2026-04-09T06:49:08.084Z</time></trkpt><trkpt lat="40.8578867" lon="14.858445"><ele>386.0</ele><time>2026-04-09T06:49:09.084Z</time></trkpt><trkpt lat="40.85803" lon="14.8585"><ele>387.0</ele><time>2026-04-09T06:49:10.084Z</time></trkpt><trkpt lat="40.8581783" lon="14.8585583"><ele>388.0</ele><time>2026-04-09T06:49:11.084Z</time></trkpt><trkpt lat="40.8583383" lon="14.8586217"><ele>385.6666666666667</ele><time>2026-04-09T06:49:12.084Z</time></trkpt><trkpt lat="40.858505" lon="14.8586833"><ele>383.33333333333337</ele><time>2026-04-09T06:49:13.084Z</time></trkpt><trkpt lat="40.8586717" lon="14.85875"><ele>381.0</ele><time>2026-04-09T06:49:14.084Z</time></trkpt><trkpt lat="40.8588383" lon="14.8588217"><ele>381.0</ele><time>2026-04-09T06:49:15.084Z</time></trkpt><trkpt lat="40.8590033" lon="14.85889"><ele>381.0</ele><time>2026-04-09T06:49:16.084Z</time></trkpt><trkpt lat="40.859165" lon="14.8589517"><ele>381.0</ele><time>2026-04-09T06:49:17.084Z</time></trkpt><trkpt lat="40.8593267" lon="14.8590167"><ele>379.6666666666667</ele><time>2026-04-09T06:49:18.084Z</time></trkpt><trkpt lat="40.8594883" lon="14.8590833"><ele>378.33333333333337</ele><time>2026-04-09T06:49:19.084Z</time></trkpt><trkpt lat="40.85965" lon="14.8591533"><ele>377.0</ele><time>2026-04-09T06:49:20.084Z</time></trkpt><trkpt lat="40.8598083" lon="14.859215"><ele>377.0</ele><time>2026-04-09T06:49:21.084Z</time></trkpt><trkpt lat="40.8599633" lon="14.8592767"><ele>377.0</ele><time>2026-04-09T06:49:22.084Z</time></trkpt><trkpt lat="40.8601233" lon="14.8593417"><ele>377.0</ele><time>2026-04-09T06:49:23.084Z</time></trkpt><trkpt lat="40.860285" lon="14.8593933"><ele>376.6666666666667</ele><time>2026-04-09T06:49:24.084Z</time></trkpt><trkpt lat="40.8604383" lon="14.85944"><ele>376.3333333333333</ele><time>2026-04-09T06:49:25.084Z</time></trkpt><trkpt lat="40.8605917" lon="14.8594783"><ele>376.0</ele><time>2026-04-09T06:49:26.084Z</time></trkpt><trkpt lat="40.860745" lon="14.8595133"><ele>376.0</ele><time>2026-04-09T06:49:27.084Z</time></trkpt><trkpt lat="40.8609083" lon="14.8595433"><ele>376.0</ele><time>2026-04-09T06:49:28.084Z</time></trkpt><trkpt lat="40.8610633" lon="14.8595683"><ele>376.0</ele><time>2026-04-09T06:49:29.084Z</time></trkpt><trkpt lat="40.8612233" lon="14.85959"><ele>375.0</ele><time>2026-04-09T06:49:30.084Z</time></trkpt><trkpt lat="40.8613917" lon="14.8596083"><ele>374.0</ele><time>2026-04-09T06:49:31.084Z</time></trkpt><trkpt lat="40.86156" lon="14.8596183"><ele>373.0</ele><time>2026-04-09T06:49:32.084Z</time></trkpt><trkpt lat="40.86173" lon="14.85962"><ele>373.0</ele><time>2026-04-09T06:49:33.084Z</time></trkpt><trkpt lat="40.861895" lon="14.859615"><ele>373.0</ele><time>2026-04-09T06:49:34.084Z</time></trkpt><trkpt lat="40.86206" lon="14.8596033"><ele>373.0</ele><time>2026-04-09T06:49:35.084Z</time></trkpt><trkpt lat="40.862225" lon="14.8595917"><ele>373.0</ele><time>2026-04-09T06:49:36.084Z</time></trkpt><trkpt lat="40.86239" lon="14.8595783"><ele>373.0</ele><time>2026-04-09T06:49:37.084Z</time></trkpt><trkpt lat="40.8625517" lon="14.85956"><ele>373.0</ele><time>2026-04-09T06:49:38.084Z</time></trkpt><trkpt lat="40.862715" lon="14.8595217"><ele>373.66666666666663</ele><time>2026-04-09T06:49:39.084Z</time></trkpt><trkpt lat="40.8628817" lon="14.8594767"><ele>374.3333333333333</ele><time>2026-04-09T06:49:40.084Z</time></trkpt><trkpt lat="40.86305" lon="14.8594217"><ele>375.0</ele><time>2026-04-09T06:49:41.084Z</time></trkpt><trkpt lat="40.8632083" lon="14.8593633"><ele>375.0</ele><time>2026-04-09T06:49:42.084Z</time></trkpt><trkpt lat="40.8633633" lon="14.8592933"><ele>375.0</ele><time>2026-04-09T06:49:43.084Z</time></trkpt><trkpt lat="40.8635217" lon="14.8592267"><ele>375.0</ele><time>2026-04-09T06:49:44.084Z</time></trkpt><trkpt lat="40.863685" lon="14.8591633"><ele>375.0</ele><time>2026-04-09T06:49:45.084Z</time></trkpt><trkpt lat="40.8638467" lon="14.8590867"><ele>375.0</ele><time>2026-04-09T06:49:46.084Z</time></trkpt><trkpt lat="40.8640067" lon="14.859"><ele>375.0</ele><time>2026-04-09T06:49:47.084Z</time></trkpt><trkpt lat="40.8641583" lon="14.8589067"><ele>375.0</ele><time>2026-04-09T06:49:48.084Z</time></trkpt><trkpt lat="40.8643117" lon="14.8588017"><ele>375.0</ele><time>2026-04-09T06:49:49.084Z</time></trkpt><trkpt lat="40.8644617" lon="14.858695"><ele>375.0</ele><time>2026-04-09T06:49:50.084Z</time></trkpt><trkpt lat="40.8646167" lon="14.8585867"><ele>375.0</ele><time>2026-04-09T06:49:51.084Z</time></trkpt><trkpt lat="40.8647767" lon="14.8584817"><ele>375.0</ele><time>2026-04-09T06:49:52.084Z</time></trkpt><trkpt lat="40.8649383" lon="14.8583717"><ele>375.0</ele><time>2026-04-09T06:49:53.084Z</time></trkpt><trkpt lat="40.8651067" lon="14.85826"><ele>373.0</ele><time>2026-04-09T06:49:54.084Z</time></trkpt><trkpt lat="40.8652767" lon="14.8581417"><ele>371.0</ele><time>2026-04-09T06:49:55.084Z</time></trkpt><trkpt lat="40.86544" lon="14.8580217"><ele>369.0</ele><time>2026-04-09T06:49:56.084Z</time></trkpt><trkpt lat="40.865605" lon="14.8579117"><ele>369.0</ele><time>2026-04-09T06:49:57.084Z</time></trkpt><trkpt lat="40.865775" lon="14.857805"><ele>369.0</ele><time>2026-04-09T06:49:58.084Z</time></trkpt><trkpt lat="40.86594" lon="14.8576867"><ele>369.0</ele><time>2026-04-09T06:49:59.084Z</time></trkpt><trkpt lat="40.86611" lon="14.8575717"><ele>367.0</ele><time>2026-04-09T06:50:00.084Z</time></trkpt><trkpt lat="40.8662733" lon="14.85746"><ele>365.0</ele><time>2026-04-09T06:50:01.084Z</time></trkpt><trkpt lat="40.8664267" lon="14.8573517"><ele>363.0</ele><time>2026-04-09T06:50:02.084Z</time></trkpt><trkpt lat="40.8665717" lon="14.8572517"><ele>363.0</ele><time>2026-04-09T06:50:03.084Z</time></trkpt><trkpt lat="40.8667183" lon="14.8571533"><ele>363.0</ele><time>2026-04-09T06:50:04.084Z</time></trkpt><trkpt lat="40.8668683" lon="14.8570433"><ele>363.0</ele><time>2026-04-09T06:50:05.084Z</time></trkpt><trkpt lat="40.8670283" lon="14.8569317"><ele>363.0</ele><time>2026-04-09T06:50:06.084Z</time></trkpt><trkpt lat="40.8671933" lon="14.8568133"><ele>363.0</ele><time>2026-04-09T06:50:07.084Z</time></trkpt><trkpt lat="40.86736" lon="14.8566933"><ele>363.0</ele><time>2026-04-09T06:50:08.084Z</time></trkpt><trkpt lat="40.86753" lon="14.8565817"><ele>362.0</ele><time>2026-04-09T06:50:09.084Z</time></trkpt><trkpt lat="40.8677017" lon="14.8564683"><ele>361.0</ele><time>2026-04-09T06:50:10.084Z</time></trkpt><trkpt lat="40.8678683" lon="14.8563517"><ele>360.0</ele><time>2026-04-09T06:50:11.084Z</time></trkpt><trkpt lat="40.868035" lon="14.8562367"><ele>360.0</ele><time>2026-04-09T06:50:12.084Z</time></trkpt><trkpt lat="40.8682217" lon="14.85611"><ele>360.0</ele><time>2026-04-09T06:50:13.084Z</time></trkpt><trkpt lat="40.8684017" lon="14.8559867"><ele>360.0</ele><time>2026-04-09T06:50:14.084Z</time></trkpt><trkpt lat="40.8685733" lon="14.85587"><ele>359.3333333333333</ele><time>2026-04-09T06:50:15.084Z</time></trkpt><trkpt lat="40.8687367" lon="14.8557567"><ele>358.66666666666663</ele><time>2026-04-09T06:50:16.084Z</time></trkpt><trkpt lat="40.8689033" lon="14.85564"><ele>358.0</ele><time>2026-04-09T06:50:17.084Z</time></trkpt><trkpt lat="40.8690683" lon="14.8555233"><ele>358.0</ele><time>2026-04-09T06:50:18.084Z</time></trkpt><trkpt lat="40.869225" lon="14.8554167"><ele>358.0</ele><time>2026-04-09T06:50:19.084Z</time></trkpt><trkpt lat="40.8693733" lon="14.8553117"><ele>358.0</ele><time>2026-04-09T06:50:20.084Z</time></trkpt><trkpt lat="40.86952" lon="14.8552183"><ele>358.3333333333333</ele><time>2026-04-09T06:50:21.084Z</time></trkpt><trkpt lat="40.8696667" lon="14.8551167"><ele>358.6666666666667</ele><time>2026-04-09T06:50:22.084Z</time></trkpt><trkpt lat="40.869815" lon="14.8550133"><ele>359.0</ele><time>2026-04-09T06:50:23.084Z</time></trkpt><trkpt lat="40.8699667" lon="14.854905"><ele>359.0</ele><time>2026-04-09T06:50:24.084Z</time></trkpt><trkpt lat="40.8701217" lon="14.8547967"><ele>359.0</ele><time>2026-04-09T06:50:25.084Z</time></trkpt><trkpt lat="40.870275" lon="14.85469"><ele>359.0</ele><time>2026-04-09T06:50:26.084Z</time></trkpt><trkpt lat="40.8704317" lon="14.8545883"><ele>359.0</ele><time>2026-04-09T06:50:27.084Z</time></trkpt><trkpt lat="40.8705833" lon="14.8544867"><ele>359.0</ele><time>2026-04-09T06:50:28.084Z</time></trkpt><trkpt lat="40.8707367" lon="14.85438"><ele>359.0</ele><time>2026-04-09T06:50:29.084Z</time></trkpt><trkpt lat="40.8708917" lon="14.8542783"><ele>358.6666666666667</ele><time>2026-04-09T06:50:30.084Z</time></trkpt><trkpt lat="40.8710467" lon="14.8541717"><ele>358.3333333333333</ele><time>2026-04-09T06:50:31.084Z</time></trkpt><trkpt lat="40.871195" lon="14.8540717"><ele>358.0</ele><time>2026-04-09T06:50:32.084Z</time></trkpt><trkpt lat="40.8713417" lon="14.853965"><ele>358.0</ele><time>2026-04-09T06:50:33.084Z</time></trkpt><trkpt lat="40.8714883" lon="14.85386"><ele>358.0</ele><time>2026-04-09T06:50:34.084Z</time></trkpt><trkpt lat="40.87163" lon="14.853765"><ele>358.0</ele><time>2026-04-09T06:50:35.084Z</time></trkpt><trkpt lat="40.8717717" lon="14.8536617"><ele>358.0</ele><time>2026-04-09T06:50:36.084Z</time></trkpt><trkpt lat="40.8719183" lon="14.8535617"><ele>358.0</ele><time>2026-04-09T06:50:37.084Z</time></trkpt><trkpt lat="40.872065" lon="14.8534567"><ele>358.0</ele><time>2026-04-09T06:50:38.084Z</time></trkpt><trkpt lat="40.8722133" lon="14.85336"><ele>358.0</ele><time>2026-04-09T06:50:39.084Z</time></trkpt><trkpt lat="40.87236" lon="14.85326"><ele>358.0</ele><time>2026-04-09T06:50:40.084Z</time></trkpt><trkpt lat="40.8725033" lon="14.8531567"><ele>358.0</ele><time>2026-04-09T06:50:41.084Z</time></trkpt><trkpt lat="40.8726433" lon="14.8530667"><ele>358.0</ele><time>2026-04-09T06:50:42.084Z</time></trkpt><trkpt lat="40.8727717" lon="14.85298"><ele>358.0</ele><time>2026-04-09T06:50:43.084Z</time></trkpt><trkpt lat="40.8728983" lon="14.8528883"><ele>358.0</ele><time>2026-04-09T06:50:44.084Z</time></trkpt><trkpt lat="40.8730283" lon="14.8528"><ele>358.0</ele><time>2026-04-09T06:50:45.084Z</time></trkpt><trkpt lat="40.8731617" lon="14.85271"><ele>356.66666666666663</ele><time>2026-04-09T06:50:46.084Z</time></trkpt><trkpt lat="40.8733" lon="14.8526133"><ele>355.3333333333333</ele><time>2026-04-09T06:50:47.084Z</time></trkpt><trkpt lat="40.873435" lon="14.852515"><ele>354.0</ele><time>2026-04-09T06:50:48.084Z</time></trkpt><trkpt lat="40.87358" lon="14.85242"><ele>354.0</ele><time>2026-04-09T06:50:49.084Z</time></trkpt><trkpt lat="40.873725" lon="14.85232"><ele>354.0</ele><time>2026-04-09T06:50:50.084Z</time></trkpt><trkpt lat="40.873875" lon="14.85221"><ele>354.0</ele><time>2026-04-09T06:50:51.084Z</time></trkpt><trkpt lat="40.8740317" lon="14.8521033"><ele>354.0</ele><time>2026-04-09T06:50:52.084Z</time></trkpt><trkpt lat="40.87419" lon="14.8519967"><ele>354.0</ele><time>2026-04-09T06:50:53.084Z</time></trkpt><trkpt lat="40.8743533" lon="14.8518867"><ele>354.0</ele><time>2026-04-09T06:50:54.084Z</time></trkpt><trkpt lat="40.8745217" lon="14.8517717"><ele>353.3333333333333</ele><time>2026-04-09T06:50:55.084Z</time></trkpt><trkpt lat="40.8747" lon="14.851655"><ele>352.66666666666663</ele><time>2026-04-09T06:50:56.084Z</time></trkpt><trkpt lat="40.8748817" lon="14.85154"><ele>352.0</ele><time>2026-04-09T06:50:57.084Z</time></trkpt><trkpt lat="40.8750667" lon="14.8514367"><ele>352.3333333333333</ele><time>2026-04-09T06:50:58.084Z</time></trkpt><trkpt lat="40.875245" lon="14.85134"><ele>352.6666666666667</ele><time>2026-04-09T06:50:59.084Z</time></trkpt><trkpt lat="40.8754267" lon="14.8512533"><ele>353.0</ele><time>2026-04-09T06:51:00.084Z</time></trkpt><trkpt lat="40.875605" lon="14.8511733"><ele>353.0</ele><time>2026-04-09T06:51:01.084Z</time></trkpt><trkpt lat="40.875785" lon="14.8511033"><ele>353.0</ele><time>2026-04-09T06:51:02.084Z</time></trkpt><trkpt lat="40.8759633" lon="14.851045"><ele>353.0</ele><time>2026-04-09T06:51:03.084Z</time></trkpt><trkpt lat="40.8761383" lon="14.8509933"><ele>352.0</ele><time>2026-04-09T06:51:04.084Z</time></trkpt><trkpt lat="40.8763167" lon="14.8509433"><ele>351.0</ele><time>2026-04-09T06:51:05.084Z</time></trkpt><trkpt lat="40.876495" lon="14.8509083"><ele>350.0</ele><time>2026-04-09T06:51:06.084Z</time></trkpt><trkpt lat="40.8766767" lon="14.8508717"><ele>350.0</ele><time>2026-04-09T06:51:07.084Z</time></trkpt><trkpt lat="40.87686" lon="14.8508367"><ele>350.0</ele><time>2026-04-09T06:51:08.084Z</time></trkpt><trkpt lat="40.8770417" lon="14.8507983"><ele>350.0</ele><time>2026-04-09T06:51:09.084Z</time></trkpt><trkpt lat="40.877215" lon="14.85076"><ele>350.0</ele><time>2026-04-09T06:51:10.084Z</time></trkpt><trkpt lat="40.877375" lon="14.8507267"><ele>350.0</ele><time>2026-04-09T06:51:11.084Z</time></trkpt><trkpt lat="40.877545" lon="14.850695"><ele>350.0</ele><time>2026-04-09T06:51:12.084Z</time></trkpt><trkpt lat="40.8777083" lon="14.85066"><ele>349.0</ele><time>2026-04-09T06:51:13.084Z</time></trkpt><trkpt lat="40.877875" lon="14.8506267"><ele>348.0</ele><time>2026-04-09T06:51:14.084Z</time></trkpt><trkpt lat="40.8780317" lon="14.8505833"><ele>347.0</ele><time>2026-04-09T06:51:15.084Z</time></trkpt><trkpt lat="40.8781867" lon="14.8505417"><ele>347.0</ele><time>2026-04-09T06:51:16.084Z</time></trkpt><trkpt lat="40.8783433" lon="14.8504883"><ele>347.0</ele><time>2026-04-09T06:51:17.084Z</time></trkpt><trkpt lat="40.8785083" lon="14.85043"><ele>347.0</ele><time>2026-04-09T06:51:18.084Z</time></trkpt><trkpt lat="40.8786717" lon="14.850365"><ele>346.6666666666667</ele><time>2026-04-09T06:51:19.084Z</time></trkpt><trkpt lat="40.878835" lon="14.8502933"><ele>346.3333333333333</ele><time>2026-04-09T06:51:20.084Z</time></trkpt><trkpt lat="40.8789917" lon="14.8502167"><ele>346.0</ele><time>2026-04-09T06:51:21.084Z</time></trkpt><trkpt lat="40.87914" lon="14.85014"><ele>345.3333333333333</ele><time>2026-04-09T06:51:22.084Z</time></trkpt><trkpt lat="40.87928" lon="14.8500583"><ele>344.6666666666667</ele><time>2026-04-09T06:51:23.084Z</time></trkpt><trkpt lat="40.8794283" lon="14.8499783"><ele>344.0</ele><time>2026-04-09T06:51:24.084Z</time></trkpt><trkpt lat="40.879575" lon="14.8498817"><ele>344.0</ele><time>2026-04-09T06:51:25.084Z</time></trkpt><trkpt lat="40.87972" lon="14.8497783"><ele>344.0</ele><time>2026-04-09T06:51:26.084Z</time></trkpt><trkpt lat="40.8798667" lon="14.8496733"><ele>344.0</ele><time>2026-04-09T06:51:27.084Z</time></trkpt><trkpt lat="40.880015" lon="14.8495517"><ele>344.0</ele><time>2026-04-09T06:51:28.084Z</time></trkpt><trkpt lat="40.8801683" lon="14.8494133"><ele>344.0</ele><time>2026-04-09T06:51:29.084Z</time></trkpt><trkpt lat="40.8803317" lon="14.8492567"><ele>344.0</ele><time>2026-04-09T06:51:30.084Z</time></trkpt><trkpt lat="40.880505" lon="14.8490783"><ele>344.0</ele><time>2026-04-09T06:51:31.084Z</time></trkpt><trkpt lat="40.880695" lon="14.848895"><ele>344.0</ele><time>2026-04-09T06:51:32.084Z</time></trkpt><trkpt lat="40.8808967" lon="14.848705"><ele>344.5</ele><time>2026-04-09T06:51:33.084Z</time></trkpt><trkpt lat="40.88111" lon="14.8485083"><ele>345.0</ele><time>2026-04-09T06:51:34.084Z</time></trkpt><trkpt lat="40.8813267" lon="14.8483133"><ele>344.0</ele><time>2026-04-09T06:51:35.084Z</time></trkpt><trkpt lat="40.8815467" lon="14.8481067"><ele>343.0</ele><time>2026-04-09T06:51:36.084Z</time></trkpt><trkpt lat="40.88177" lon="14.8479"><ele>342.0</ele><time>2026-04-09T06:51:37.084Z</time></trkpt><trkpt lat="40.8819983" lon="14.8476867"><ele>341.0</ele><time>2026-04-09T06:51:38.084Z</time></trkpt><trkpt lat="40.8822267" lon="14.8474717"><ele>341.0</ele><time>2026-04-09T06:51:39.084Z</time></trkpt><trkpt lat="40.8824567" lon="14.8472667"><ele>341.0</ele><time>2026-04-09T06:51:40.084Z</time></trkpt><trkpt lat="40.88268" lon="14.8470533"><ele>339.0</ele><time>2026-04-09T06:51:41.084Z</time></trkpt><trkpt lat="40.88291" lon="14.8468417"><ele>337.0</ele><time>2026-04-09T06:51:42.084Z</time></trkpt><trkpt lat="40.88314" lon="14.8466317"><ele>337.0</ele><time>2026-04-09T06:51:43.084Z</time></trkpt><trkpt lat="40.8833617" lon="14.8464283"><ele>337.0</ele><time>2026-04-09T06:51:44.084Z</time></trkpt><trkpt lat="40.8835867" lon="14.84623"><ele>337.0</ele><time>2026-04-09T06:51:45.084Z</time></trkpt><trkpt lat="40.8838133" lon="14.8460433"><ele>337.0</ele><time>2026-04-09T06:51:46.084Z</time></trkpt><trkpt lat="40.8840417" lon="14.84586"><ele>336.0</ele><time>2026-04-09T06:51:47.084Z</time></trkpt><trkpt lat="40.8842783" lon="14.845675"><ele>335.0</ele><time>2026-04-09T06:51:48.084Z</time></trkpt><trkpt lat="40.8845233" lon="14.8454983"><ele>335.0</ele><time>2026-04-09T06:51:49.084Z</time></trkpt><trkpt lat="40.8847733" lon="14.84533"><ele>335.0</ele><time>2026-04-09T06:51:50.084Z</time></trkpt><trkpt lat="40.885015" lon="14.8451733"><ele>335.5</ele><time>2026-04-09T06:51:51.084Z</time></trkpt><trkpt lat="40.88525" lon="14.845025"><ele>336.0</ele><time>2026-04-09T06:51:52.084Z</time></trkpt><trkpt lat="40.8854933" lon="14.8448917"><ele>336.0</ele><time>2026-04-09T06:51:53.084Z</time></trkpt><trkpt lat="40.8857433" lon="14.84476"><ele>336.0</ele><time>2026-04-09T06:51:54.084Z</time></trkpt><trkpt lat="40.885995" lon="14.8446433"><ele>335.5</ele><time>2026-04-09T06:51:55.084Z</time></trkpt><trkpt lat="40.8862467" lon="14.844535"><ele>335.0</ele><time>2026-04-09T06:51:56.084Z</time></trkpt><trkpt lat="40.8864917" lon="14.8444367"><ele>335.0</ele><time>2026-04-09T06:51:57.084Z</time></trkpt><trkpt lat="40.8867417" lon="14.8443567"><ele>335.0</ele><time>2026-04-09T06:51:58.084Z</time></trkpt><trkpt lat="40.88699" lon="14.844285"><ele>333.5</ele><time>2026-04-09T06:51:59.084Z</time></trkpt><trkpt lat="40.8872433" lon="14.8442267"><ele>332.0</ele><time>2026-04-09T06:52:00.084Z</time></trkpt><trkpt lat="40.8875017" lon="14.84417"><ele>331.0</ele><time>2026-04-09T06:52:01.084Z</time></trkpt><trkpt lat="40.88777" lon="14.84412"><ele>330.0</ele><time>2026-04-09T06:52:02.084Z</time></trkpt><trkpt lat="40.8880333" lon="14.8440717"><ele>330.0</ele><time>2026-04-09T06:52:03.084Z</time></trkpt><trkpt lat="40.8882917" lon="14.844015"><ele>330.0</ele><time>2026-04-09T06:52:04.084Z</time></trkpt><trkpt lat="40.8885383" lon="14.843965"><ele>329.0</ele><time>2026-04-09T06:52:05.084Z</time></trkpt><trkpt lat="40.888775" lon="14.843915"><ele>328.0</ele><time>2026-04-09T06:52:06.084Z</time></trkpt><trkpt lat="40.8890083" lon="14.8438667"><ele>328.0</ele><time>2026-04-09T06:52:07.084Z</time></trkpt><trkpt lat="40.8892417" lon="14.8438183"><ele>328.0</ele><time>2026-04-09T06:52:08.084Z</time></trkpt><trkpt lat="40.8894717" lon="14.84377"><ele>329.0</ele><time>2026-04-09T06:52:09.084Z</time></trkpt><trkpt lat="40.8896917" lon="14.84372"><ele>330.0</ele><time>2026-04-09T06:52:10.084Z</time></trkpt><trkpt lat="40.889905" lon="14.8436717"><ele>331.0</ele><time>2026-04-09T06:52:11.084Z</time></trkpt><trkpt lat="40.8901117" lon="14.8436333"><ele>331.0</ele><time>2026-04-09T06:52:12.084Z</time></trkpt><trkpt lat="40.8903183" lon="14.84358"><ele>331.0</ele><time>2026-04-09T06:52:13.084Z</time></trkpt><trkpt lat="40.890525" lon="14.8435333"><ele>331.0</ele><time>2026-04-09T06:52:14.084Z</time></trkpt><trkpt lat="40.8907417" lon="14.8434933"><ele>330.3333333333333</ele><time>2026-04-09T06:52:15.084Z</time></trkpt><trkpt lat="40.8909533" lon="14.8434483"><ele>329.6666666666667</ele><time>2026-04-09T06:52:16.084Z</time></trkpt><trkpt lat="40.8911633" lon="14.8433967"><ele>329.0</ele><time>2026-04-09T06:52:17.084Z</time></trkpt><trkpt lat="40.8913783" lon="14.8433483"><ele>329.0</ele><time>2026-04-09T06:52:18.084Z</time></trkpt><trkpt lat="40.89158" lon="14.8433017"><ele>329.0</ele><time>2026-04-09T06:52:19.084Z</time></trkpt><trkpt lat="40.891755" lon="14.8432667"><ele>329.0</ele><time>2026-04-09T06:52:20.084Z</time></trkpt><trkpt lat="40.891925" lon="14.8432383"><ele>328.33333333333337</ele><time>2026-04-09T06:52:21.084Z</time></trkpt><trkpt lat="40.89209" lon="14.8432033"><ele>327.6666666666667</ele><time>2026-04-09T06:52:22.084Z</time></trkpt><trkpt lat="40.892245" lon="14.843165"><ele>327.0</ele><time>2026-04-09T06:52:23.084Z</time></trkpt><trkpt lat="40.8923967" lon="14.84314"><ele>327.0</ele><time>2026-04-09T06:52:24.084Z</time></trkpt><trkpt lat="40.8925433" lon="14.8431083"><ele>327.0</ele><time>2026-04-09T06:52:25.084Z</time></trkpt><trkpt lat="40.89269" lon="14.843075"><ele>327.0</ele><time>2026-04-09T06:52:26.084Z</time></trkpt><trkpt lat="40.8928483" lon="14.8430483"><ele>326.6666666666667</ele><time>2026-04-09T06:52:27.084Z</time></trkpt><trkpt lat="40.8930217" lon="14.8430183"><ele>326.33333333333337</ele><time>2026-04-09T06:52:28.084Z</time></trkpt><trkpt lat="40.893205" lon="14.84299"><ele>326.0</ele><time>2026-04-09T06:52:29.084Z</time></trkpt><trkpt lat="40.8934017" lon="14.8429667"><ele>325.6666666666667</ele><time>2026-04-09T06:52:30.084Z</time></trkpt><trkpt lat="40.893615" lon="14.8429467"><ele>325.3333333333333</ele><time>2026-04-09T06:52:31.084Z</time></trkpt><trkpt lat="40.8938383" lon="14.8429267"><ele>325.0</ele><time>2026-04-09T06:52:32.084Z</time></trkpt><trkpt lat="40.8940733" lon="14.8429183"><ele>324.5</ele><time>2026-04-09T06:52:33.084Z</time></trkpt><trkpt lat="40.8943233" lon="14.8429183"><ele>324.0</ele><time>2026-04-09T06:52:34.084Z</time></trkpt><trkpt lat="40.8945833" lon="14.842925"><ele>324.0</ele><time>2026-04-09T06:52:35.084Z</time></trkpt><trkpt lat="40.8948533" lon="14.8429467"><ele>324.0</ele><time>2026-04-09T06:52:36.084Z</time></trkpt><trkpt lat="40.89511" lon="14.842985"><ele>323.5</ele><time>2026-04-09T06:52:37.084Z</time></trkpt><trkpt lat="40.8953617" lon="14.8430167"><ele>323.0</ele><time>2026-04-09T06:52:38.084Z</time></trkpt><trkpt lat="40.8956033" lon="14.8430483"><ele>323.0</ele><time>2026-04-09T06:52:39.084Z</time></trkpt><trkpt lat="40.895835" lon="14.8430733"><ele>323.0</ele><time>2026-04-09T06:52:40.084Z</time></trkpt><trkpt lat="40.8960533" lon="14.8430967"><ele>323.0</ele><time>2026-04-09T06:52:41.084Z</time></trkpt><trkpt lat="40.896275" lon="14.843105"><ele>323.0</ele><time>2026-04-09T06:52:42.084Z</time></trkpt><trkpt lat="40.8965" lon="14.8431033"><ele>323.0</ele><time>2026-04-09T06:52:43.084Z</time></trkpt><trkpt lat="40.8967283" lon="14.843085"><ele>324.0</ele><time>2026-04-09T06:52:44.084Z</time></trkpt><trkpt lat="40.8969517" lon="14.8430517"><ele>325.0</ele><time>2026-04-09T06:52:45.084Z</time></trkpt><trkpt lat="40.8971717" lon="14.8430083"><ele>326.0</ele><time>2026-04-09T06:52:46.084Z</time></trkpt><trkpt lat="40.897385" lon="14.842955"><ele>327.5</ele><time>2026-04-09T06:52:47.084Z</time></trkpt><trkpt lat="40.8976033" lon="14.8428933"><ele>329.0</ele><time>2026-04-09T06:52:48.084Z</time></trkpt><trkpt lat="40.8978217" lon="14.8428133"><ele>329.0</ele><time>2026-04-09T06:52:49.084Z</time></trkpt><trkpt lat="40.8980367" lon="14.842725"><ele>329.0</ele><time>2026-04-09T06:52:50.084Z</time></trkpt><trkpt lat="40.89824" lon="14.84262"><ele>329.0</ele><time>2026-04-09T06:52:51.084Z</time></trkpt><trkpt lat="40.898445" lon="14.842495"><ele>330.5</ele><time>2026-04-09T06:52:52.084Z</time></trkpt><trkpt lat="40.8986467" lon="14.8423517"><ele>332.0</ele><time>2026-04-09T06:52:53.084Z</time></trkpt><trkpt lat="40.89884" lon="14.842205"><ele>332.0</ele><time>2026-04-09T06:52:54.084Z</time></trkpt><trkpt lat="40.89903" lon="14.8420433"><ele>332.0</ele><time>2026-04-09T06:52:55.084Z</time></trkpt><trkpt lat="40.899215" lon="14.8418617"><ele>331.0</ele><time>2026-04-09T06:52:56.084Z</time></trkpt><trkpt lat="40.8994033" lon="14.8416533"><ele>330.0</ele><time>2026-04-09T06:52:57.084Z</time></trkpt><trkpt lat="40.8996033" lon="14.8414317"><ele>330.0</ele><time>2026-04-09T06:52:58.084Z</time></trkpt><trkpt lat="40.8998033" lon="14.841205"><ele>330.0</ele><time>2026-04-09T06:52:59.084Z</time></trkpt><trkpt lat="40.9000067" lon="14.8409667"><ele>327.0</ele><time>2026-04-09T06:53:00.084Z</time></trkpt><trkpt lat="40.9002083" lon="14.8407383"><ele>324.0</ele><time>2026-04-09T06:53:01.084Z</time></trkpt><trkpt lat="40.9004167" lon="14.840505"><ele>324.0</ele><time>2026-04-09T06:53:02.084Z</time></trkpt><trkpt lat="40.9006317" lon="14.8402633"><ele>324.0</ele><time>2026-04-09T06:53:03.084Z</time></trkpt><trkpt lat="40.900845" lon="14.8400233"><ele>322.0</ele><time>2026-04-09T06:53:04.084Z</time></trkpt><trkpt lat="40.9010583" lon="14.8397933"><ele>320.0</ele><time>2026-04-09T06:53:05.084Z</time></trkpt><trkpt lat="40.9012833" lon="14.8395617"><ele>320.0</ele><time>2026-04-09T06:53:06.084Z</time></trkpt><trkpt lat="40.9015" lon="14.8393433"><ele>320.0</ele><time>2026-04-09T06:53:07.084Z</time></trkpt><trkpt lat="40.901715" lon="14.8391417"><ele>323.0</ele><time>2026-04-09T06:53:08.084Z</time></trkpt><trkpt lat="40.9019233" lon="14.8389517"><ele>326.0</ele><time>2026-04-09T06:53:09.084Z</time></trkpt><trkpt lat="40.9021233" lon="14.8387733"><ele>326.0</ele><time>2026-04-09T06:53:10.084Z</time></trkpt><trkpt lat="40.9023217" lon="14.838605"><ele>326.0</ele><time>2026-04-09T06:53:11.084Z</time></trkpt><trkpt lat="40.9025183" lon="14.8384417"><ele>328.0</ele><time>2026-04-09T06:53:12.084Z</time></trkpt><trkpt lat="40.9027083" lon="14.8382883"><ele>330.0</ele><time>2026-04-09T06:53:13.084Z</time></trkpt><trkpt lat="40.9028967" lon="14.8381533"><ele>332.0</ele><time>2026-04-09T06:53:14.084Z</time></trkpt><trkpt lat="40.9030867" lon="14.83803"><ele>332.0</ele><time>2026-04-09T06:53:15.084Z</time></trkpt><trkpt lat="40.9032617" lon="14.837915"><ele>332.0</ele><time>2026-04-09T06:53:16.084Z</time></trkpt><trkpt lat="40.90343" lon="14.8378033"><ele>332.0</ele><time>2026-04-09T06:53:17.084Z</time></trkpt><trkpt lat="40.9035983" lon="14.8376917"><ele>328.33333333333337</ele><time>2026-04-09T06:53:18.084Z</time></trkpt><trkpt lat="40.9037633" lon="14.8375783"><ele>324.6666666666667</ele><time>2026-04-09T06:53:19.084Z</time></trkpt><trkpt lat="40.9039233" lon="14.83747"><ele>321.0</ele><time>2026-04-09T06:53:20.084Z</time></trkpt><trkpt lat="40.904075" lon="14.837365"><ele>321.0</ele><time>2026-04-09T06:53:21.084Z</time></trkpt><trkpt lat="40.90423" lon="14.8372617"><ele>321.0</ele><time>2026-04-09T06:53:22.084Z</time></trkpt><trkpt lat="40.9043833" lon="14.8371583"><ele>321.0</ele><time>2026-04-09T06:53:23.084Z</time></trkpt><trkpt lat="40.90453" lon="14.837055"><ele>321.0</ele><time>2026-04-09T06:53:24.084Z</time></trkpt><trkpt lat="40.904675" lon="14.8369517"><ele>321.0</ele><time>2026-04-09T06:53:25.084Z</time></trkpt><trkpt lat="40.90482" lon="14.8368483"><ele>321.0</ele><time>2026-04-09T06:53:26.084Z</time></trkpt><trkpt lat="40.90497" lon="14.8367367"><ele>319.0</ele><time>2026-04-09T06:53:27.084Z</time></trkpt><trkpt lat="40.90513" lon="14.8366233"><ele>317.0</ele><time>2026-04-09T06:53:28.084Z</time></trkpt><trkpt lat="40.90528" lon="14.8364967"><ele>315.0</ele><time>2026-04-09T06:53:29.084Z</time></trkpt><trkpt lat="40.905425" lon="14.8363667"><ele>315.0</ele><time>2026-04-09T06:53:30.084Z</time></trkpt><trkpt lat="40.9055833" lon="14.83623"><ele>315.0</ele><time>2026-04-09T06:53:31.084Z</time></trkpt><trkpt lat="40.9057467" lon="14.8360833"><ele>315.0</ele><time>2026-04-09T06:53:32.084Z</time></trkpt><trkpt lat="40.9059183" lon="14.83592"><ele>315.0</ele><time>2026-04-09T06:53:33.084Z</time></trkpt><trkpt lat="40.9061" lon="14.8357383"><ele>315.0</ele><time>2026-04-09T06:53:34.084Z</time></trkpt><trkpt lat="40.9062867" lon="14.8355417"><ele>315.0</ele><time>2026-04-09T06:53:35.084Z</time></trkpt><trkpt lat="40.9064833" lon="14.8353267"><ele>315.0</ele><time>2026-04-09T06:53:36.084Z</time></trkpt><trkpt lat="40.906685" lon="14.835105"><ele>318.0</ele><time>2026-04-09T06:53:37.084Z</time></trkpt><trkpt lat="40.9068867" lon="14.8348817"><ele>321.0</ele><time>2026-04-09T06:53:38.084Z</time></trkpt><trkpt lat="40.9070833" lon="14.834655"><ele>321.0</ele><time>2026-04-09T06:53:39.084Z</time></trkpt><trkpt lat="40.9072783" lon="14.834445"><ele>321.0</ele><time>2026-04-09T06:53:40.084Z</time></trkpt><trkpt lat="40.90747" lon="14.8342333"><ele>318.5</ele><time>2026-04-09T06:53:41.084Z</time></trkpt><trkpt lat="40.90766" lon="14.8340167"><ele>316.0</ele><time>2026-04-09T06:53:42.084Z</time></trkpt><trkpt lat="40.9078367" lon="14.8338067"><ele>316.0</ele><time>2026-04-09T06:53:43.084Z</time></trkpt><trkpt lat="40.9080083" lon="14.8336067"><ele>316.0</ele><time>2026-04-09T06:53:44.084Z</time></trkpt><trkpt lat="40.9081817" lon="14.833405"><ele>316.3333333333333</ele><time>2026-04-09T06:53:45.084Z</time></trkpt><trkpt lat="40.908345" lon="14.833205"><ele>316.6666666666667</ele><time>2026-04-09T06:53:46.084Z</time></trkpt><trkpt lat="40.9085067" lon="14.8330033"><ele>317.0</ele><time>2026-04-09T06:53:47.084Z</time></trkpt><trkpt lat="40.9086633" lon="14.8327933"><ele>314.5</ele><time>2026-04-09T06:53:48.084Z</time></trkpt><trkpt lat="40.908815" lon="14.8325683"><ele>312.0</ele><time>2026-04-09T06:53:49.084Z</time></trkpt><trkpt lat="40.9089617" lon="14.8323383"><ele>312.0</ele><time>2026-04-09T06:53:50.084Z</time></trkpt><trkpt lat="40.9091083" lon="14.8321"><ele>312.0</ele><time>2026-04-09T06:53:51.084Z</time></trkpt><trkpt lat="40.9092417" lon="14.83185"><ele>310.6666666666667</ele><time>2026-04-09T06:53:52.084Z</time></trkpt><trkpt lat="40.9093567" lon="14.8316133"><ele>309.33333333333337</ele><time>2026-04-09T06:53:53.084Z</time></trkpt><trkpt lat="40.9094583" lon="14.831375"><ele>308.0</ele><time>2026-04-09T06:53:54.084Z</time></trkpt><trkpt lat="40.9095617" lon="14.8311267"><ele>306.6666666666667</ele><time>2026-04-09T06:53:55.084Z</time></trkpt><trkpt lat="40.909655" lon="14.83087"><ele>305.3333333333333</ele><time>2026-04-09T06:53:56.084Z</time></trkpt><trkpt lat="40.90974" lon="14.8306067"><ele>304.0</ele><time>2026-04-09T06:53:57.084Z</time></trkpt><trkpt lat="40.9098233" lon="14.8303417"><ele>304.3333333333333</ele><time>2026-04-09T06:53:58.084Z</time></trkpt><trkpt lat="40.9098967" lon="14.8300733"><ele>304.6666666666667</ele><time>2026-04-09T06:53:59.084Z</time></trkpt><trkpt lat="40.9099733" lon="14.82981"><ele>305.0</ele><time>2026-04-09T06:54:00.084Z</time></trkpt><trkpt lat="40.9100483" lon="14.829545"><ele>304.0</ele><time>2026-04-09T06:54:01.084Z</time></trkpt><trkpt lat="40.910125" lon="14.8292817"><ele>303.0</ele><time>2026-04-09T06:54:02.084Z</time></trkpt><trkpt lat="40.910195" lon="14.829035"><ele>302.0</ele><time>2026-04-09T06:54:03.084Z</time></trkpt><trkpt lat="40.9102633" lon="14.8287917"><ele>302.0</ele><time>2026-04-09T06:54:04.084Z</time></trkpt><trkpt lat="40.9103333" lon="14.8285483"><ele>302.0</ele><time>2026-04-09T06:54:05.084Z</time></trkpt><trkpt lat="40.9104083" lon="14.8283117"><ele>302.0</ele><time>2026-04-09T06:54:06.084Z</time></trkpt><trkpt lat="40.9104817" lon="14.8280833"><ele>303.0</ele><time>2026-04-09T06:54:07.084Z</time></trkpt><trkpt lat="40.9105717" lon="14.8278667"><ele>304.0</ele><time>2026-04-09T06:54:08.084Z</time></trkpt><trkpt lat="40.910665" lon="14.827665"><ele>305.0</ele><time>2026-04-09T06:54:09.084Z</time></trkpt><trkpt lat="40.91077" lon="14.8274717"><ele>305.33333333333337</ele><time>2026-04-09T06:54:10.084Z</time></trkpt><trkpt lat="40.9108817" lon="14.8272783"><ele>305.6666666666667</ele><time>2026-04-09T06:54:11.084Z</time></trkpt><trkpt lat="40.9109933" lon="14.8270883"><ele>306.0</ele><time>2026-04-09T06:54:12.084Z</time></trkpt><trkpt lat="40.9111067" lon="14.826905"><ele>309.3333333333333</ele><time>2026-04-09T06:54:13.084Z</time></trkpt><trkpt lat="40.9112233" lon="14.8267233"><ele>312.66666666666663</ele><time>2026-04-09T06:54:14.084Z</time></trkpt><trkpt lat="40.9113317" lon="14.82655"><ele>316.0</ele><time>2026-04-09T06:54:15.084Z</time></trkpt><trkpt lat="40.91144" lon="14.82638"><ele>316.0</ele><time>2026-04-09T06:54:16.084Z</time></trkpt><trkpt lat="40.9115433" lon="14.8262133"><ele>316.0</ele><time>2026-04-09T06:54:17.084Z</time></trkpt><trkpt lat="40.91165" lon="14.8260433"><ele>316.0</ele><time>2026-04-09T06:54:18.084Z</time></trkpt><trkpt lat="40.91175" lon="14.8258883"><ele>316.25</ele><time>2026-04-09T06:54:19.084Z</time></trkpt><trkpt lat="40.9118417" lon="14.8257383"><ele>316.5</ele><time>2026-04-09T06:54:20.084Z</time></trkpt><trkpt lat="40.9119283" lon="14.82559"><ele>316.75</ele><time>2026-04-09T06:54:21.084Z</time></trkpt><trkpt lat="40.9120183" lon="14.8254467"><ele>317.0</ele><time>2026-04-09T06:54:22.084Z</time></trkpt><trkpt lat="40.9121017" lon="14.825305"><ele>317.0</ele><time>2026-04-09T06:54:23.084Z</time></trkpt><trkpt lat="40.9121817" lon="14.825155"><ele>317.0</ele><time>2026-04-09T06:54:24.084Z</time></trkpt><trkpt lat="40.9122667" lon="14.825"><ele>317.0</ele><time>2026-04-09T06:54:25.084Z</time></trkpt><trkpt lat="40.9123567" lon="14.82484"><ele>317.0</ele><time>2026-04-09T06:54:26.084Z</time></trkpt><trkpt lat="40.912455" lon="14.8246867"><ele>317.25</ele><time>2026-04-09T06:54:27.084Z</time></trkpt><trkpt lat="40.9125483" lon="14.8245367"><ele>317.5</ele><time>2026-04-09T06:54:28.084Z</time></trkpt><trkpt lat="40.9126383" lon="14.824385"><ele>317.75</ele><time>2026-04-09T06:54:29.084Z</time></trkpt><trkpt lat="40.9127283" lon="14.8242367"><ele>318.0</ele><time>2026-04-09T06:54:30.084Z</time></trkpt><trkpt lat="40.9128133" lon="14.8240917"><ele>318.75</ele><time>2026-04-09T06:54:31.084Z</time></trkpt><trkpt lat="40.9128983" lon="14.8239617"><ele>319.5</ele><time>2026-04-09T06:54:32.084Z</time></trkpt><trkpt lat="40.9129833" lon="14.8238333"><ele>320.25</ele><time>2026-04-09T06:54:33.084Z</time></trkpt><trkpt lat="40.9130633" lon="14.82372"><ele>321.0</ele><time>2026-04-09T06:54:34.084Z</time></trkpt><trkpt lat="40.9131383" lon="14.8236083"><ele>321.0</ele><time>2026-04-09T06:54:35.084Z</time></trkpt><trkpt lat="40.9132117" lon="14.8235017"><ele>321.0</ele><time>2026-04-09T06:54:36.084Z</time></trkpt><trkpt lat="40.9132783" lon="14.8234017"><ele>321.0</ele><time>2026-04-09T06:54:37.084Z</time></trkpt><trkpt lat="40.913345" lon="14.8233183"><ele>321.0</ele><time>2026-04-09T06:54:38.084Z</time></trkpt><trkpt lat="40.9133967" lon="14.8232467"><ele>321.0</ele><time>2026-04-09T06:54:39.084Z</time></trkpt><trkpt lat="40.913485" lon="14.8231433"><ele>320.8333333333333</ele><time>2026-04-09T06:54:41.084Z</time></trkpt><trkpt lat="40.9135467" lon="14.8230867"><ele>320.6666666666667</ele><time>2026-04-09T06:54:43.084Z</time></trkpt><trkpt lat="40.9136217" lon="14.8230417"><ele>320.5</ele><time>2026-04-09T06:54:49.084Z</time></trkpt><trkpt lat="40.9136983" lon="14.8230317"><ele>320.33333333333337</ele><time>2026-04-09T06:54:51.084Z</time></trkpt><trkpt lat="40.9138167" lon="14.8230833"><ele>320.1666666666667</ele><time>2026-04-09T06:54:53.084Z</time></trkpt><trkpt lat="40.9138867" lon="14.82314"><ele>320.0</ele><time>2026-04-09T06:54:54.084Z</time></trkpt><trkpt lat="40.9139617" lon="14.82322"><ele>320.0</ele><time>2026-04-09T06:54:55.084Z</time></trkpt><trkpt lat="40.9140367" lon="14.8233117"><ele>320.0</ele><time>2026-04-09T06:54:56.084Z</time></trkpt><trkpt lat="40.9141117" lon="14.8234117"><ele>320.0</ele><time>2026-04-09T06:54:57.084Z</time></trkpt><trkpt lat="40.91419" lon="14.8235083"><ele>320.0</ele><time>2026-04-09T06:54:58.084Z</time></trkpt><trkpt lat="40.91428" lon="14.8236067"><ele>320.0</ele><time>2026-04-09T06:54:59.084Z</time></trkpt><trkpt lat="40.9143767" lon="14.8237167"><ele>319.25</ele><time>2026-04-09T06:55:00.084Z</time></trkpt><trkpt lat="40.9144783" lon="14.8238283"><ele>318.5</ele><time>2026-04-09T06:55:01.084Z</time></trkpt><trkpt lat="40.914585" lon="14.8239417"><ele>317.75</ele><time>2026-04-09T06:55:02.084Z</time></trkpt><trkpt lat="40.9146967" lon="14.824065"><ele>317.0</ele><time>2026-04-09T06:55:03.084Z</time></trkpt><trkpt lat="40.914815" lon="14.8241933"><ele>316.33333333333337</ele><time>2026-04-09T06:55:04.084Z</time></trkpt><trkpt lat="40.9149333" lon="14.8243133"><ele>315.6666666666667</ele><time>2026-04-09T06:55:05.084Z</time></trkpt><trkpt lat="40.91505" lon="14.8244417"><ele>315.0</ele><time>2026-04-09T06:55:06.084Z</time></trkpt><trkpt lat="40.9151767" lon="14.8245667"><ele>314.3333333333333</ele><time>2026-04-09T06:55:07.084Z</time></trkpt><trkpt lat="40.9153083" lon="14.8246917"><ele>313.66666666666663</ele><time>2026-04-09T06:55:08.084Z</time></trkpt><trkpt lat="40.915445" lon="14.82481"><ele>313.0</ele><time>2026-04-09T06:55:09.084Z</time></trkpt><trkpt lat="40.9155883" lon="14.8249283"><ele>313.0</ele><time>2026-04-09T06:55:10.084Z</time></trkpt><trkpt lat="40.9157367" lon="14.82505"><ele>313.0</ele><time>2026-04-09T06:55:11.084Z</time></trkpt><trkpt lat="40.91589" lon="14.8251683"><ele>313.0</ele><time>2026-04-09T06:55:12.084Z</time></trkpt><trkpt lat="40.916055" lon="14.82527"><ele>310.66666666666663</ele><time>2026-04-09T06:55:13.084Z</time></trkpt><trkpt lat="40.9162283" lon="14.8253667"><ele>308.3333333333333</ele><time>2026-04-09T06:55:14.084Z</time></trkpt><trkpt lat="40.91642" lon="14.8254617"><ele>306.0</ele><time>2026-04-09T06:55:15.084Z</time></trkpt><trkpt lat="40.9166267" lon="14.8255433"><ele>305.0</ele><time>2026-04-09T06:55:16.084Z</time></trkpt><trkpt lat="40.9168433" lon="14.8256367"><ele>304.0</ele><time>2026-04-09T06:55:17.084Z</time></trkpt><trkpt lat="40.9170667" lon="14.8257267"><ele>304.0</ele><time>2026-04-09T06:55:18.084Z</time></trkpt><trkpt lat="40.9172867" lon="14.82581"><ele>304.0</ele><time>2026-04-09T06:55:19.084Z</time></trkpt><trkpt lat="40.91752" lon="14.8258933"><ele>304.0</ele><time>2026-04-09T06:55:20.084Z</time></trkpt><trkpt lat="40.9177667" lon="14.825975"><ele>304.0</ele><time>2026-04-09T06:55:21.084Z</time></trkpt><trkpt lat="40.9179983" lon="14.8260633"><ele>304.0</ele><time>2026-04-09T06:55:22.084Z</time></trkpt><trkpt lat="40.9182317" lon="14.8261467"><ele>304.0</ele><time>2026-04-09T06:55:23.084Z</time></trkpt><trkpt lat="40.9184617" lon="14.8262217"><ele>303.66666666666663</ele><time>2026-04-09T06:55:24.084Z</time></trkpt><trkpt lat="40.918685" lon="14.8262883"><ele>303.3333333333333</ele><time>2026-04-09T06:55:25.084Z</time></trkpt><trkpt lat="40.9188983" lon="14.826345"><ele>303.0</ele><time>2026-04-09T06:55:26.084Z</time></trkpt><trkpt lat="40.9191133" lon="14.826385"><ele>303.6666666666667</ele><time>2026-04-09T06:55:27.084Z</time></trkpt><trkpt lat="40.9193267" lon="14.8264183"><ele>304.33333333333337</ele><time>2026-04-09T06:55:28.084Z</time></trkpt><trkpt lat="40.9195433" lon="14.826435"><ele>305.0</ele><time>2026-04-09T06:55:29.084Z</time></trkpt><trkpt lat="40.9197517" lon="14.8264417"><ele>305.0</ele><time>2026-04-09T06:55:30.084Z</time></trkpt><trkpt lat="40.91996" lon="14.8264367"><ele>305.0</ele><time>2026-04-09T06:55:31.084Z</time></trkpt><trkpt lat="40.920165" lon="14.8264183"><ele>305.0</ele><time>2026-04-09T06:55:32.084Z</time></trkpt><trkpt lat="40.9203683" lon="14.82639"><ele>306.33333333333337</ele><time>2026-04-09T06:55:33.084Z</time></trkpt><trkpt lat="40.9205767" lon="14.82635"><ele>307.6666666666667</ele><time>2026-04-09T06:55:34.084Z</time></trkpt><trkpt lat="40.9207933" lon="14.8262983"><ele>309.0</ele><time>2026-04-09T06:55:35.084Z</time></trkpt><trkpt lat="40.921025" lon="14.8262383"><ele>310.0</ele><time>2026-04-09T06:55:36.084Z</time></trkpt><trkpt lat="40.9212633" lon="14.82618"><ele>311.0</ele><time>2026-04-09T06:55:37.084Z</time></trkpt><trkpt lat="40.9214933" lon="14.8261233"><ele>311.0</ele><time>2026-04-09T06:55:38.084Z</time></trkpt><trkpt lat="40.9217283" lon="14.82608"><ele>311.0</ele><time>2026-04-09T06:55:39.084Z</time></trkpt><trkpt lat="40.9219667" lon="14.8260433"><ele>311.0</ele><time>2026-04-09T06:55:40.084Z</time></trkpt><trkpt lat="40.9222067" lon="14.8260133"><ele>311.0</ele><time>2026-04-09T06:55:41.084Z</time></trkpt><trkpt lat="40.92244" lon="14.8260067"><ele>311.0</ele><time>2026-04-09T06:55:42.084Z</time></trkpt><trkpt lat="40.9226717" lon="14.826015"><ele>311.0</ele><time>2026-04-09T06:55:43.084Z</time></trkpt><trkpt lat="40.9229033" lon="14.82605"><ele>311.0</ele><time>2026-04-09T06:55:44.084Z</time></trkpt><trkpt lat="40.9231283" lon="14.82611"><ele>311.0</ele><time>2026-04-09T06:55:45.084Z</time></trkpt><trkpt lat="40.9233467" lon="14.8261883"><ele>309.6666666666667</ele><time>2026-04-09T06:55:46.084Z</time></trkpt><trkpt lat="40.9235517" lon="14.8262867"><ele>308.3333333333333</ele><time>2026-04-09T06:55:47.084Z</time></trkpt><trkpt lat="40.923745" lon="14.826395"><ele>307.0</ele><time>2026-04-09T06:55:48.084Z</time></trkpt><trkpt lat="40.9239267" lon="14.8265183"><ele>307.0</ele><time>2026-04-09T06:55:49.084Z</time></trkpt><trkpt lat="40.924105" lon="14.826655"><ele>307.0</ele><time>2026-04-09T06:55:50.084Z</time></trkpt><trkpt lat="40.9242733" lon="14.8267967"><ele>307.0</ele><time>2026-04-09T06:55:51.084Z</time></trkpt><trkpt lat="40.9244317" lon="14.8269433"><ele>307.0</ele><time>2026-04-09T06:55:52.084Z</time></trkpt><trkpt lat="40.9245833" lon="14.8270983"><ele>307.0</ele><time>2026-04-09T06:55:53.084Z</time></trkpt><trkpt lat="40.9247233" lon="14.8272467"><ele>307.0</ele><time>2026-04-09T06:55:54.084Z</time></trkpt><trkpt lat="40.924855" lon="14.8273933"><ele>307.0</ele><time>2026-04-09T06:55:55.084Z</time></trkpt><trkpt lat="40.924985" lon="14.8275417"><ele>307.0</ele><time>2026-04-09T06:55:56.085Z</time></trkpt><trkpt lat="40.92512" lon="14.8276883"><ele>307.0</ele><time>2026-04-09T06:55:57.085Z</time></trkpt><trkpt lat="40.92525" lon="14.8278417"><ele>303.66666666666663</ele><time>2026-04-09T06:55:58.085Z</time></trkpt><trkpt lat="40.925385" lon="14.8279867"><ele>300.3333333333333</ele><time>2026-04-09T06:55:59.085Z</time></trkpt><trkpt lat="40.9255233" lon="14.82813"><ele>297.0</ele><time>2026-04-09T06:56:00.085Z</time></trkpt><trkpt lat="40.9256533" lon="14.82827"><ele>297.0</ele><time>2026-04-09T06:56:01.085Z</time></trkpt><trkpt lat="40.9257867" lon="14.828395"><ele>297.0</ele><time>2026-04-09T06:56:02.085Z</time></trkpt><trkpt lat="40.925925" lon="14.8285217"><ele>297.0</ele><time>2026-04-09T06:56:03.085Z</time></trkpt><trkpt lat="40.9260633" lon="14.8286433"><ele>295.6666666666667</ele><time>2026-04-09T06:56:04.085Z</time></trkpt><trkpt lat="40.926205" lon="14.828765"><ele>294.33333333333337</ele><time>2026-04-09T06:56:05.085Z</time></trkpt><trkpt lat="40.9263467" lon="14.8288833"><ele>293.0</ele><time>2026-04-09T06:56:06.085Z</time></trkpt><trkpt lat="40.9264833" lon="14.8289967"><ele>293.0</ele><time>2026-04-09T06:56:07.085Z</time></trkpt><trkpt lat="40.926625" lon="14.829105"><ele>293.0</ele><time>2026-04-09T06:56:08.085Z</time></trkpt><trkpt lat="40.9267667" lon="14.8292133"><ele>293.0</ele><time>2026-04-09T06:56:09.085Z</time></trkpt><trkpt lat="40.9269267" lon="14.829325"><ele>291.33333333333337</ele><time>2026-04-09T06:56:10.085Z</time></trkpt><trkpt lat="40.9271" lon="14.8294367"><ele>289.6666666666667</ele><time>2026-04-09T06:56:11.085Z</time></trkpt><trkpt lat="40.92728" lon="14.829545"><ele>288.0</ele><time>2026-04-09T06:56:12.085Z</time></trkpt><trkpt lat="40.9274633" lon="14.8296617"><ele>287.6666666666667</ele><time>2026-04-09T06:56:13.085Z</time></trkpt><trkpt lat="40.9276583" lon="14.829775"><ele>287.33333333333337</ele><time>2026-04-09T06:56:14.085Z</time></trkpt><trkpt lat="40.9278633" lon="14.82988"><ele>287.0</ele><time>2026-04-09T06:56:15.085Z</time></trkpt><trkpt lat="40.9280633" lon="14.8299733"><ele>287.0</ele><time>2026-04-09T06:56:16.085Z</time></trkpt><trkpt lat="40.9282683" lon="14.83006"><ele>287.0</ele><time>2026-04-09T06:56:17.085Z</time></trkpt><trkpt lat="40.928475" lon="14.8301383"><ele>287.0</ele><time>2026-04-09T06:56:18.085Z</time></trkpt><trkpt lat="40.9286917" lon="14.83022"><ele>287.0</ele><time>2026-04-09T06:56:19.085Z</time></trkpt><trkpt lat="40.9289183" lon="14.8302933"><ele>287.0</ele><time>2026-04-09T06:56:20.085Z</time></trkpt><trkpt lat="40.9291467" lon="14.830365"><ele>287.0</ele><time>2026-04-09T06:56:21.085Z</time></trkpt><trkpt lat="40.929385" lon="14.8304317"><ele>287.0</ele><time>2026-04-09T06:56:22.085Z</time></trkpt><trkpt lat="40.929635" lon="14.8304967"><ele>287.0</ele><time>2026-04-09T06:56:23.085Z</time></trkpt><trkpt lat="40.92989" lon="14.8305517"><ele>287.0</ele><time>2026-04-09T06:56:24.085Z</time></trkpt><trkpt lat="40.93015" lon="14.830595"><ele>287.5</ele><time>2026-04-09T06:56:25.085Z</time></trkpt><trkpt lat="40.9304133" lon="14.8306417"><ele>288.0</ele><time>2026-04-09T06:56:26.085Z</time></trkpt><trkpt lat="40.9306817" lon="14.830685"><ele>289.0</ele><time>2026-04-09T06:56:27.085Z</time></trkpt><trkpt lat="40.93095" lon="14.830735"><ele>290.0</ele><time>2026-04-09T06:56:28.085Z</time></trkpt><trkpt lat="40.93122" lon="14.8307817"><ele>290.0</ele><time>2026-04-09T06:56:29.085Z</time></trkpt><trkpt lat="40.93149" lon="14.830825"><ele>290.0</ele><time>2026-04-09T06:56:30.085Z</time></trkpt><trkpt lat="40.93176" lon="14.83087"><ele>291.0</ele><time>2026-04-09T06:56:31.085Z</time></trkpt><trkpt lat="40.932025" lon="14.8309133"><ele>292.0</ele><time>2026-04-09T06:56:32.085Z</time></trkpt><trkpt lat="40.9322883" lon="14.8309567"><ele>295.0</ele><time>2026-04-09T06:56:33.085Z</time></trkpt><trkpt lat="40.9325533" lon="14.8310067"><ele>298.0</ele><time>2026-04-09T06:56:34.085Z</time></trkpt><trkpt lat="40.9328133" lon="14.8310567"><ele>298.0</ele><time>2026-04-09T06:56:35.085Z</time></trkpt><trkpt lat="40.933075" lon="14.8311033"><ele>298.0</ele><time>2026-04-09T06:56:36.085Z</time></trkpt><trkpt lat="40.93334" lon="14.831145"><ele>296.5</ele><time>2026-04-09T06:56:37.085Z</time></trkpt><trkpt lat="40.933615" lon="14.8311917"><ele>295.0</ele><time>2026-04-09T06:56:38.085Z</time></trkpt><trkpt lat="40.933895" lon="14.831245"><ele>295.0</ele><time>2026-04-09T06:56:39.085Z</time></trkpt><trkpt lat="40.9341833" lon="14.83129"><ele>295.0</ele><time>2026-04-09T06:56:40.085Z</time></trkpt><trkpt lat="40.9344683" lon="14.8313433"><ele>295.0</ele><time>2026-04-09T06:56:41.085Z</time></trkpt><trkpt lat="40.93476" lon="14.8314"><ele>295.0</ele><time>2026-04-09T06:56:42.085Z</time></trkpt><trkpt lat="40.9350567" lon="14.83145"><ele>295.0</ele><time>2026-04-09T06:56:43.085Z</time></trkpt><trkpt lat="40.935345" lon="14.8314967"><ele>295.0</ele><time>2026-04-09T06:56:44.085Z</time></trkpt><trkpt lat="40.9356283" lon="14.83155"><ele>294.0</ele><time>2026-04-09T06:56:45.085Z</time></trkpt><trkpt lat="40.9359083" lon="14.8316017"><ele>293.0</ele><time>2026-04-09T06:56:46.085Z</time></trkpt><trkpt lat="40.9361867" lon="14.8316467"><ele>293.0</ele><time>2026-04-09T06:56:47.085Z</time></trkpt><trkpt lat="40.9364667" lon="14.83169"><ele>293.0</ele><time>2026-04-09T06:56:48.085Z</time></trkpt><trkpt lat="40.9367417" lon="14.8317383"><ele>293.0</ele><time>2026-04-09T06:56:49.085Z</time></trkpt><trkpt lat="40.937015" lon="14.831785"><ele>293.0</ele><time>2026-04-09T06:56:50.085Z</time></trkpt><trkpt lat="40.9372833" lon="14.8318267"><ele>296.0</ele><time>2026-04-09T06:56:51.085Z</time></trkpt><trkpt lat="40.9378183" lon="14.83192"><ele>296.0</ele><time>2026-04-09T06:56:53.085Z</time></trkpt><trkpt lat="40.9380867" lon="14.8319683"><ele>296.0</ele><time>2026-04-09T06:56:54.085Z</time></trkpt><trkpt lat="40.9383483" lon="14.83201"><ele>297.5</ele><time>2026-04-09T06:56:55.085Z</time></trkpt><trkpt lat="40.9386133" lon="14.83205"><ele>299.0</ele><time>2026-04-09T06:56:56.085Z</time></trkpt><trkpt lat="40.9388733" lon="14.8320933"><ele>299.0</ele><time>2026-04-09T06:56:57.085Z</time></trkpt><trkpt lat="40.9391317" lon="14.8321333"><ele>299.0</ele><time>2026-04-09T06:56:58.085Z</time></trkpt><trkpt lat="40.9393867" lon="14.8321717"><ele>299.0</ele><time>2026-04-09T06:56:59.085Z</time></trkpt><trkpt lat="40.9396433" lon="14.8322183"><ele>299.0</ele><time>2026-04-09T06:57:00.085Z</time></trkpt><trkpt lat="40.9398967" lon="14.8322617"><ele>297.0</ele><time>2026-04-09T06:57:01.085Z</time></trkpt><trkpt lat="40.9401383" lon="14.8323017"><ele>295.0</ele><time>2026-04-09T06:57:02.085Z</time></trkpt><trkpt lat="40.94038" lon="14.8323417"><ele>295.0</ele><time>2026-04-09T06:57:03.085Z</time></trkpt><trkpt lat="40.9406233" lon="14.83238"><ele>295.0</ele><time>2026-04-09T06:57:04.085Z</time></trkpt><trkpt lat="40.9408683" lon="14.83242"><ele>294.5</ele><time>2026-04-09T06:57:05.085Z</time></trkpt><trkpt lat="40.94111" lon="14.8324633"><ele>294.0</ele><time>2026-04-09T06:57:06.085Z</time></trkpt><trkpt lat="40.9413533" lon="14.8325017"><ele>294.0</ele><time>2026-04-09T06:57:07.085Z</time></trkpt><trkpt lat="40.9416017" lon="14.8325383"><ele>294.0</ele><time>2026-04-09T06:57:08.085Z</time></trkpt><trkpt lat="40.941845" lon="14.83258"><ele>293.0</ele><time>2026-04-09T06:57:09.085Z</time></trkpt><trkpt lat="40.9420933" lon="14.832625"><ele>292.0</ele><time>2026-04-09T06:57:10.085Z</time></trkpt><trkpt lat="40.942355" lon="14.8326767"><ele>292.0</ele><time>2026-04-09T06:57:11.085Z</time></trkpt><trkpt lat="40.9426233" lon="14.8327283"><ele>292.0</ele><time>2026-04-09T06:57:12.085Z</time></trkpt><trkpt lat="40.9428817" lon="14.8327783"><ele>292.0</ele><time>2026-04-09T06:57:13.085Z</time></trkpt><trkpt lat="40.9431333" lon="14.832825"><ele>292.0</ele><time>2026-04-09T06:57:14.085Z</time></trkpt><trkpt lat="40.94338" lon="14.8328683"><ele>290.0</ele><time>2026-04-09T06:57:15.085Z</time></trkpt><trkpt lat="40.94363" lon="14.83291"><ele>288.0</ele><time>2026-04-09T06:57:16.085Z</time></trkpt><trkpt lat="40.9438833" lon="14.8329533"><ele>288.0</ele><time>2026-04-09T06:57:17.085Z</time></trkpt><trkpt lat="40.944125" lon="14.832995"><ele>288.0</ele><time>2026-04-09T06:57:18.085Z</time></trkpt><trkpt lat="40.9443583" lon="14.8330333"><ele>286.5</ele><time>2026-04-09T06:57:19.085Z</time></trkpt><trkpt lat="40.9445883" lon="14.8330717"><ele>285.0</ele><time>2026-04-09T06:57:20.085Z</time></trkpt><trkpt lat="40.9448183" lon="14.8331183"><ele>285.0</ele><time>2026-04-09T06:57:21.085Z</time></trkpt><trkpt lat="40.9450433" lon="14.8331783"><ele>285.0</ele><time>2026-04-09T06:57:22.085Z</time></trkpt><trkpt lat="40.94527" lon="14.8332517"><ele>284.0</ele><time>2026-04-09T06:57:23.085Z</time></trkpt><trkpt lat="40.9454917" lon="14.8333233"><ele>283.0</ele><time>2026-04-09T06:57:24.085Z</time></trkpt><trkpt lat="40.9456967" lon="14.8333967"><ele>282.0</ele><time>2026-04-09T06:57:25.085Z</time></trkpt><trkpt lat="40.9458917" lon="14.8334683"><ele>282.3333333333333</ele><time>2026-04-09T06:57:26.085Z</time></trkpt><trkpt lat="40.9460783" lon="14.83354"><ele>282.66666666666663</ele><time>2026-04-09T06:57:27.085Z</time></trkpt><trkpt lat="40.9462617" lon="14.8336117"><ele>283.0</ele><time>2026-04-09T06:57:28.085Z</time></trkpt><trkpt lat="40.9464317" lon="14.8336783"><ele>283.0</ele><time>2026-04-09T06:57:29.085Z</time></trkpt><trkpt lat="40.9465983" lon="14.8337433"><ele>283.0</ele><time>2026-04-09T06:57:30.085Z</time></trkpt><trkpt lat="40.94675" lon="14.83383"><ele>283.0</ele><time>2026-04-09T06:57:31.085Z</time></trkpt><trkpt lat="40.946895" lon="14.833925"><ele>282.0</ele><time>2026-04-09T06:57:32.085Z</time></trkpt><trkpt lat="40.94704" lon="14.8340117"><ele>281.0</ele><time>2026-04-09T06:57:33.085Z</time></trkpt><trkpt lat="40.9471817" lon="14.8340833"><ele>280.0</ele><time>2026-04-09T06:57:34.085Z</time></trkpt><trkpt lat="40.9473267" lon="14.8341267"><ele>280.0</ele><time>2026-04-09T06:57:35.085Z</time></trkpt><trkpt lat="40.94748" lon="14.8341383"><ele>280.0</ele><time>2026-04-09T06:57:36.085Z</time></trkpt><trkpt lat="40.94765" lon="14.8341567"><ele>280.0</ele><time>2026-04-09T06:57:37.085Z</time></trkpt><trkpt lat="40.9478267" lon="14.8341933"><ele>280.0</ele><time>2026-04-09T06:57:38.085Z</time></trkpt><trkpt lat="40.9480167" lon="14.8342533"><ele>280.0</ele><time>2026-04-09T06:57:39.085Z</time></trkpt><trkpt lat="40.948215" lon="14.8343233"><ele>280.0</ele><time>2026-04-09T06:57:40.085Z</time></trkpt><trkpt lat="40.9484117" lon="14.83439"><ele>281.0</ele><time>2026-04-09T06:57:41.085Z</time></trkpt><trkpt lat="40.9486033" lon="14.8344517"><ele>282.0</ele><time>2026-04-09T06:57:42.085Z</time></trkpt><trkpt lat="40.948805" lon="14.8345183"><ele>283.0</ele><time>2026-04-09T06:57:43.085Z</time></trkpt><trkpt lat="40.9490017" lon="14.83459"><ele>283.0</ele><time>2026-04-09T06:57:44.085Z</time></trkpt><trkpt lat="40.9492" lon="14.8346733"><ele>283.0</ele><time>2026-04-09T06:57:45.085Z</time></trkpt><trkpt lat="40.9494117" lon="14.8347483"><ele>283.0</ele><time>2026-04-09T06:57:46.085Z</time></trkpt><trkpt lat="40.9496083" lon="14.8348183"><ele>281.66666666666663</ele><time>2026-04-09T06:57:47.085Z</time></trkpt><trkpt lat="40.9498083" lon="14.8348767"><ele>280.3333333333333</ele><time>2026-04-09T06:57:48.085Z</time></trkpt><trkpt lat="40.9500017" lon="14.83494"><ele>279.0</ele><time>2026-04-09T06:57:49.085Z</time></trkpt><trkpt lat="40.9501983" lon="14.835"><ele>279.0</ele><time>2026-04-09T06:57:50.085Z</time></trkpt><trkpt lat="40.9504033" lon="14.8350717"><ele>279.0</ele><time>2026-04-09T06:57:51.085Z</time></trkpt><trkpt lat="40.9506083" lon="14.8351433"><ele>279.0</ele><time>2026-04-09T06:57:52.085Z</time></trkpt><trkpt lat="40.950815" lon="14.8352117"><ele>278.0</ele><time>2026-04-09T06:57:53.085Z</time></trkpt><trkpt lat="40.9510217" lon="14.83528"><ele>277.0</ele><time>2026-04-09T06:57:54.085Z</time></trkpt><trkpt lat="40.95122" lon="14.8353483"><ele>276.0</ele><time>2026-04-09T06:57:55.085Z</time></trkpt><trkpt lat="40.9514217" lon="14.8354067"><ele>276.0</ele><time>2026-04-09T06:57:56.085Z</time></trkpt><trkpt lat="40.951615" lon="14.835455"><ele>276.0</ele><time>2026-04-09T06:57:57.085Z</time></trkpt><trkpt lat="40.9518133" lon="14.835495"><ele>276.0</ele><time>2026-04-09T06:57:58.085Z</time></trkpt><trkpt lat="40.9520133" lon="14.83553"><ele>275.0</ele><time>2026-04-09T06:57:59.085Z</time></trkpt><trkpt lat="40.952215" lon="14.8355583"><ele>274.0</ele><time>2026-04-09T06:58:00.085Z</time></trkpt><trkpt lat="40.9524117" lon="14.83558"><ele>273.0</ele><time>2026-04-09T06:58:01.085Z</time></trkpt><trkpt lat="40.9526167" lon="14.8355933"><ele>273.0</ele><time>2026-04-09T06:58:02.085Z</time></trkpt><trkpt lat="40.9528267" lon="14.8356017"><ele>273.0</ele><time>2026-04-09T06:58:03.085Z</time></trkpt><trkpt lat="40.953035" lon="14.8356083"><ele>273.0</ele><time>2026-04-09T06:58:04.085Z</time></trkpt><trkpt lat="40.9532417" lon="14.83561"><ele>272.6666666666667</ele><time>2026-04-09T06:58:05.085Z</time></trkpt><trkpt lat="40.9534567" lon="14.8356017"><ele>272.33333333333337</ele><time>2026-04-09T06:58:06.085Z</time></trkpt><trkpt lat="40.9536783" lon="14.83558"><ele>272.0</ele><time>2026-04-09T06:58:07.085Z</time></trkpt><trkpt lat="40.9539117" lon="14.8355667"><ele>272.0</ele><time>2026-04-09T06:58:08.085Z</time></trkpt><trkpt lat="40.9541533" lon="14.835555"><ele>272.0</ele><time>2026-04-09T06:58:09.085Z</time></trkpt><trkpt lat="40.954385" lon="14.8355517"><ele>271.6666666666667</ele><time>2026-04-09T06:58:10.085Z</time></trkpt><trkpt lat="40.9546" lon="14.835545"><ele>271.3333333333333</ele><time>2026-04-09T06:58:11.085Z</time></trkpt><trkpt lat="40.9548" lon="14.8355383"><ele>271.0</ele><time>2026-04-09T06:58:12.085Z</time></trkpt><trkpt lat="40.9549933" lon="14.8355367"><ele>270.66666666666663</ele><time>2026-04-09T06:58:13.085Z</time></trkpt><trkpt lat="40.95518" lon="14.83553"><ele>270.3333333333333</ele><time>2026-04-09T06:58:14.085Z</time></trkpt><trkpt lat="40.9553683" lon="14.8355117"><ele>270.0</ele><time>2026-04-09T06:58:15.085Z</time></trkpt><trkpt lat="40.9555733" lon="14.8355"><ele>270.0</ele><time>2026-04-09T06:58:16.085Z</time></trkpt><trkpt lat="40.95579" lon="14.8354833"><ele>270.0</ele><time>2026-04-09T06:58:17.085Z</time></trkpt><trkpt lat="40.9560167" lon="14.835475"><ele>270.0</ele><time>2026-04-09T06:58:18.085Z</time></trkpt><trkpt lat="40.9562517" lon="14.83546"><ele>270.0</ele><time>2026-04-09T06:58:19.085Z</time></trkpt><trkpt lat="40.9565067" lon="14.8354517"><ele>270.0</ele><time>2026-04-09T06:58:20.085Z</time></trkpt><trkpt lat="40.9567667" lon="14.83544"><ele>270.0</ele><time>2026-04-09T06:58:21.085Z</time></trkpt><trkpt lat="40.9570283" lon="14.8354367"><ele>270.0</ele><time>2026-04-09T06:58:22.085Z</time></trkpt><trkpt lat="40.957295" lon="14.8354333"><ele>270.0</ele><time>2026-04-09T06:58:23.085Z</time></trkpt><trkpt lat="40.9575667" lon="14.8354333"><ele>270.0</ele><time>2026-04-09T06:58:24.085Z</time></trkpt><trkpt lat="40.9578417" lon="14.8354267"><ele>270.0</ele><time>2026-04-09T06:58:25.085Z</time></trkpt><trkpt lat="40.95812" lon="14.8354083"><ele>270.0</ele><time>2026-04-09T06:58:26.085Z</time></trkpt><trkpt lat="40.9583967" lon="14.8353917"><ele>271.5</ele><time>2026-04-09T06:58:27.085Z</time></trkpt><trkpt lat="40.9586567" lon="14.8353767"><ele>273.0</ele><time>2026-04-09T06:58:28.085Z</time></trkpt><trkpt lat="40.9589033" lon="14.835375"><ele>273.0</ele><time>2026-04-09T06:58:29.085Z</time></trkpt><trkpt lat="40.95914" lon="14.8353717"><ele>273.0</ele><time>2026-04-09T06:58:30.085Z</time></trkpt><trkpt lat="40.9593683" lon="14.8353733"><ele>274.6666666666667</ele><time>2026-04-09T06:58:31.085Z</time></trkpt><trkpt lat="40.9595867" lon="14.8353917"><ele>276.33333333333337</ele><time>2026-04-09T06:58:32.085Z</time></trkpt><trkpt lat="40.9597967" lon="14.8354217"><ele>278.0</ele><time>2026-04-09T06:58:33.085Z</time></trkpt><trkpt lat="40.9600017" lon="14.8354683"><ele>278.6666666666667</ele><time>2026-04-09T06:58:34.085Z</time></trkpt><trkpt lat="40.960195" lon="14.8355233"><ele>279.3333333333333</ele><time>2026-04-09T06:58:35.085Z</time></trkpt><trkpt lat="40.960385" lon="14.8355867"><ele>280.0</ele><time>2026-04-09T06:58:36.085Z</time></trkpt><trkpt lat="40.9605767" lon="14.8356533"><ele>280.0</ele><time>2026-04-09T06:58:37.085Z</time></trkpt><trkpt lat="40.96076" lon="14.8357167"><ele>280.0</ele><time>2026-04-09T06:58:38.085Z</time></trkpt><trkpt lat="40.960935" lon="14.8357883"><ele>280.0</ele><time>2026-04-09T06:58:39.085Z</time></trkpt><trkpt lat="40.9610967" lon="14.8358567"><ele>281.3333333333333</ele><time>2026-04-09T06:58:40.085Z</time></trkpt><trkpt lat="40.96127" lon="14.8359317"><ele>282.6666666666667</ele><time>2026-04-09T06:58:41.085Z</time></trkpt><trkpt lat="40.9614467" lon="14.8360017"><ele>284.0</ele><time>2026-04-09T06:58:42.085Z</time></trkpt><trkpt lat="40.9616333" lon="14.8360733"><ele>281.33333333333337</ele><time>2026-04-09T06:58:43.085Z</time></trkpt><trkpt lat="40.9618333" lon="14.83616"><ele>278.6666666666667</ele><time>2026-04-09T06:58:44.085Z</time></trkpt><trkpt lat="40.962045" lon="14.8362533"><ele>276.0</ele><time>2026-04-09T06:58:45.085Z</time></trkpt><trkpt lat="40.9622667" lon="14.836345"><ele>276.0</ele><time>2026-04-09T06:58:46.085Z</time></trkpt><trkpt lat="40.96249" lon="14.8364383"><ele>276.0</ele><time>2026-04-09T06:58:47.085Z</time></trkpt><trkpt lat="40.9627133" lon="14.8365267"><ele>273.5</ele><time>2026-04-09T06:58:48.085Z</time></trkpt><trkpt lat="40.9629333" lon="14.8366067"><ele>271.0</ele><time>2026-04-09T06:58:49.085Z</time></trkpt><trkpt lat="40.963155" lon="14.8366883"><ele>269.66666666666663</ele><time>2026-04-09T06:58:50.085Z</time></trkpt><trkpt lat="40.9633717" lon="14.8367667"><ele>268.3333333333333</ele><time>2026-04-09T06:58:51.085Z</time></trkpt><trkpt lat="40.9635817" lon="14.8368483"><ele>267.0</ele><time>2026-04-09T06:58:52.085Z</time></trkpt><trkpt lat="40.9637983" lon="14.83693"><ele>268.5</ele><time>2026-04-09T06:58:53.085Z</time></trkpt><trkpt lat="40.964015" lon="14.8370083"><ele>270.0</ele><time>2026-04-09T06:58:54.085Z</time></trkpt><trkpt lat="40.964455" lon="14.8371683"><ele>270.0</ele><time>2026-04-09T06:58:56.085Z</time></trkpt><trkpt lat="40.9646933" lon="14.83725"><ele>270.0</ele><time>2026-04-09T06:58:57.085Z</time></trkpt><trkpt lat="40.96494" lon="14.83734"><ele>269.0</ele><time>2026-04-09T06:58:58.085Z</time></trkpt><trkpt lat="40.9651833" lon="14.8374283"><ele>268.0</ele><time>2026-04-09T06:58:59.085Z</time></trkpt><trkpt lat="40.9654167" lon="14.83751"><ele>268.0</ele><time>2026-04-09T06:59:00.085Z</time></trkpt><trkpt lat="40.9656417" lon="14.8375917"><ele>268.0</ele><time>2026-04-09T06:59:01.085Z</time></trkpt><trkpt lat="40.965865" lon="14.8376683"><ele>270.3333333333333</ele><time>2026-04-09T06:59:02.085Z</time></trkpt><trkpt lat="40.9660817" lon="14.83774"><ele>272.6666666666667</ele><time>2026-04-09T06:59:03.085Z</time></trkpt><trkpt lat="40.9662883" lon="14.8378017"><ele>275.0</ele><time>2026-04-09T06:59:04.085Z</time></trkpt><trkpt lat="40.9664933" lon="14.8378733"><ele>275.0</ele><time>2026-04-09T06:59:05.085Z</time></trkpt><trkpt lat="40.96669" lon="14.8379383"><ele>275.0</ele><time>2026-04-09T06:59:06.085Z</time></trkpt><trkpt lat="40.96687" lon="14.838005"><ele>275.0</ele><time>2026-04-09T06:59:07.085Z</time></trkpt><trkpt lat="40.9670483" lon="14.8380717"><ele>272.33333333333337</ele><time>2026-04-09T06:59:08.085Z</time></trkpt><trkpt lat="40.9672167" lon="14.83813"><ele>269.6666666666667</ele><time>2026-04-09T06:59:09.085Z</time></trkpt><trkpt lat="40.9673817" lon="14.838185"><ele>267.0</ele><time>2026-04-09T06:59:10.085Z</time></trkpt><trkpt lat="40.9675417" lon="14.8382517"><ele>265.3333333333333</ele><time>2026-04-09T06:59:11.085Z</time></trkpt><trkpt lat="40.967695" lon="14.8383083"><ele>263.66666666666663</ele><time>2026-04-09T06:59:12.085Z</time></trkpt><trkpt lat="40.9678483" lon="14.8383717"><ele>262.0</ele><time>2026-04-09T06:59:13.085Z</time></trkpt><trkpt lat="40.9679983" lon="14.83843"><ele>262.5</ele><time>2026-04-09T06:59:14.085Z</time></trkpt><trkpt lat="40.9681333" lon="14.8384817"><ele>263.0</ele><time>2026-04-09T06:59:15.085Z</time></trkpt><trkpt lat="40.96825" lon="14.8385383"><ele>263.5</ele><time>2026-04-09T06:59:16.085Z</time></trkpt><trkpt lat="40.968345" lon="14.8385983"><ele>264.0</ele><time>2026-04-09T06:59:17.085Z</time></trkpt><trkpt lat="40.9684233" lon="14.838675"><ele>264.0</ele><time>2026-04-09T06:59:18.085Z</time></trkpt><trkpt lat="40.968495" lon="14.8387583"><ele>264.0</ele><time>2026-04-09T06:59:19.085Z</time></trkpt><trkpt lat="40.968565" lon="14.8388267"><ele>264.0</ele><time>2026-04-09T06:59:20.085Z</time></trkpt><trkpt lat="40.96863" lon="14.8388833"><ele>264.0</ele><time>2026-04-09T06:59:21.085Z</time></trkpt><trkpt lat="40.9686933" lon="14.83894"><ele>264.0</ele><time>2026-04-09T06:59:22.085Z</time></trkpt><trkpt lat="40.9687483" lon="14.8389967"><ele>264.0</ele><time>2026-04-09T06:59:23.085Z</time></trkpt><trkpt lat="40.9687983" lon="14.839115"><ele>264.0</ele><time>2026-04-09T06:59:25.085Z</time></trkpt><trkpt lat="40.9688083" lon="14.83921"><ele>264.0</ele><time>2026-04-09T07:12:25.087Z</time></trkpt><trkpt lat="40.9688833" lon="14.8392583"><ele>264.0</ele><time>2026-04-09T07:12:27.087Z</time></trkpt><trkpt lat="40.9690017" lon="14.8392583"><ele>264.0</ele><time>2026-04-09T07:12:29.087Z</time></trkpt><trkpt lat="40.9690667" lon="14.839245"><ele>264.0</ele><time>2026-04-09T07:12:30.087Z</time></trkpt><trkpt lat="40.9691317" lon="14.83922"><ele>264.0</ele><time>2026-04-09T07:12:31.087Z</time></trkpt><trkpt lat="40.96925" lon="14.83918"><ele>264.0</ele><time>2026-04-09T07:12:33.087Z</time></trkpt><trkpt lat="40.9693467" lon="14.8391433"><ele>264.0</ele><time>2026-04-09T07:12:35.087Z</time></trkpt><trkpt lat="40.9694267" lon="14.8391517"><ele>264.0</ele><time>2026-04-09T07:12:37.087Z</time></trkpt><trkpt lat="40.9695" lon="14.83915"><ele>264.0</ele><time>2026-04-09T07:12:39.087Z</time></trkpt><trkpt lat="40.9695733" lon="14.839155"><ele>264.0</ele><time>2026-04-09T07:12:41.087Z</time></trkpt><trkpt lat="40.9696833" lon="14.8391833"><ele>264.0</ele><time>2026-04-09T07:12:43.087Z</time></trkpt><trkpt lat="40.9697533" lon="14.839215"><ele>264.0</ele><time>2026-04-09T07:12:44.087Z</time></trkpt><trkpt lat="40.9698333" lon="14.8392583"><ele>264.0</ele><time>2026-04-09T07:12:45.087Z</time></trkpt><trkpt lat="40.9699133" lon="14.8393033"><ele>264.0</ele><time>2026-04-09T07:12:46.087Z</time></trkpt><trkpt lat="40.97" lon="14.8393633"><ele>264.0</ele><time>2026-04-09T07:12:47.087Z</time></trkpt><trkpt lat="40.9700917" lon="14.8394517"><ele>264.0</ele><time>2026-04-09T07:12:48.087Z</time></trkpt><trkpt lat="40.9701917" lon="14.8395533"><ele>264.2</ele><time>2026-04-09T07:12:49.087Z</time></trkpt><trkpt lat="40.9702833" lon="14.8396467"><ele>264.4</ele><time>2026-04-09T07:12:50.087Z</time></trkpt><trkpt lat="40.97037" lon="14.8397317"><ele>264.6</ele><time>2026-04-09T07:12:51.087Z</time></trkpt><trkpt lat="40.9704517" lon="14.839815"><ele>264.8</ele><time>2026-04-09T07:12:52.087Z</time></trkpt><trkpt lat="40.97053" lon="14.8399017"><ele>265.0</ele><time>2026-04-09T07:12:53.087Z</time></trkpt><trkpt lat="40.9706133" lon="14.83999"><ele>265.0</ele><time>2026-04-09T07:12:54.087Z</time></trkpt><trkpt lat="40.970695" lon="14.8400817"><ele>265.0</ele><time>2026-04-09T07:12:55.087Z</time></trkpt><trkpt lat="40.9707783" lon="14.84018"><ele>265.0</ele><time>2026-04-09T07:12:56.087Z</time></trkpt><trkpt lat="40.9708533" lon="14.840275"><ele>265.0</ele><time>2026-04-09T07:12:57.087Z</time></trkpt><trkpt lat="40.970935" lon="14.840365"><ele>265.0</ele><time>2026-04-09T07:12:58.087Z</time></trkpt><trkpt lat="40.971015" lon="14.84045"><ele>265.4</ele><time>2026-04-09T07:12:59.087Z</time></trkpt><trkpt lat="40.9710833" lon="14.8405433"><ele>265.8</ele><time>2026-04-09T07:13:00.087Z</time></trkpt><trkpt lat="40.9711567" lon="14.8406283"><ele>266.2</ele><time>2026-04-09T07:13:01.087Z</time></trkpt><trkpt lat="40.9712283" lon="14.8407133"><ele>266.6</ele><time>2026-04-09T07:13:02.087Z</time></trkpt><trkpt lat="40.9712983" lon="14.8407967"><ele>267.0</ele><time>2026-04-09T07:13:03.087Z</time></trkpt><trkpt lat="40.9713733" lon="14.8408883"><ele>266.6</ele><time>2026-04-09T07:13:04.087Z</time></trkpt><trkpt lat="40.9714483" lon="14.840975"><ele>266.2</ele><time>2026-04-09T07:13:05.087Z</time></trkpt><trkpt lat="40.9715267" lon="14.841065"><ele>265.8</ele><time>2026-04-09T07:13:06.087Z</time></trkpt><trkpt lat="40.97162" lon="14.8411533"><ele>265.4</ele><time>2026-04-09T07:13:07.087Z</time></trkpt><trkpt lat="40.9717167" lon="14.8412417"><ele>265.0</ele><time>2026-04-09T07:13:08.087Z</time></trkpt><trkpt lat="40.9718167" lon="14.8413433"><ele>265.0</ele><time>2026-04-09T07:13:09.087Z</time></trkpt><trkpt lat="40.9719183" lon="14.841455"><ele>265.0</ele><time>2026-04-09T07:13:10.087Z</time></trkpt><trkpt lat="40.9720167" lon="14.8415533"><ele>265.0</ele><time>2026-04-09T07:13:11.087Z</time></trkpt><trkpt lat="40.9721117" lon="14.8416633"><ele>265.0</ele><time>2026-04-09T07:13:12.087Z</time></trkpt><trkpt lat="40.9722167" lon="14.8417717"><ele>264.75</ele><time>2026-04-09T07:13:13.087Z</time></trkpt><trkpt lat="40.9723267" lon="14.841875"><ele>264.5</ele><time>2026-04-09T07:13:14.087Z</time></trkpt><trkpt lat="40.97242" lon="14.8419783"><ele>264.25</ele><time>2026-04-09T07:13:15.087Z</time></trkpt><trkpt lat="40.9725167" lon="14.84208"><ele>264.0</ele><time>2026-04-09T07:13:16.087Z</time></trkpt><trkpt lat="40.97261" lon="14.8421767"><ele>264.0</ele><time>2026-04-09T07:13:17.087Z</time></trkpt><trkpt lat="40.97271" lon="14.8422767"><ele>264.0</ele><time>2026-04-09T07:13:18.087Z</time></trkpt><trkpt lat="40.97281" lon="14.8423683"><ele>264.0</ele><time>2026-04-09T07:13:19.087Z</time></trkpt><trkpt lat="40.9729017" lon="14.8424583"><ele>264.0</ele><time>2026-04-09T07:13:20.087Z</time></trkpt><trkpt lat="40.972995" lon="14.8425417"><ele>264.0</ele><time>2026-04-09T07:13:21.087Z</time></trkpt><trkpt lat="40.973085" lon="14.8426233"><ele>264.0</ele><time>2026-04-09T07:13:22.087Z</time></trkpt><trkpt lat="40.97318" lon="14.8427117"><ele>264.0</ele><time>2026-04-09T07:13:23.087Z</time></trkpt><trkpt lat="40.973275" lon="14.8427983"><ele>264.0</ele><time>2026-04-09T07:13:24.087Z</time></trkpt><trkpt lat="40.9733717" lon="14.842895"><ele>264.0</ele><time>2026-04-09T07:13:25.087Z</time></trkpt><trkpt lat="40.9734667" lon="14.8429933"><ele>264.0</ele><time>2026-04-09T07:13:26.087Z</time></trkpt><trkpt lat="40.9735733" lon="14.8430967"><ele>264.0</ele><time>2026-04-09T07:13:27.087Z</time></trkpt><trkpt lat="40.9736767" lon="14.8431983"><ele>264.0</ele><time>2026-04-09T07:13:28.087Z</time></trkpt><trkpt lat="40.97378" lon="14.8433"><ele>264.0</ele><time>2026-04-09T07:13:29.087Z</time></trkpt><trkpt lat="40.973885" lon="14.8433967"><ele>264.0</ele><time>2026-04-09T07:13:30.087Z</time></trkpt><trkpt lat="40.97399" lon="14.843495"><ele>264.0</ele><time>2026-04-09T07:13:31.087Z</time></trkpt><trkpt lat="40.974095" lon="14.84359"><ele>264.0</ele><time>2026-04-09T07:13:32.087Z</time></trkpt><trkpt lat="40.9742" lon="14.8436833"><ele>264.0</ele><time>2026-04-09T07:13:33.087Z</time></trkpt><trkpt lat="40.97431" lon="14.8437917"><ele>264.0</ele><time>2026-04-09T07:13:34.087Z</time></trkpt><trkpt lat="40.9744217" lon="14.8439"><ele>264.0</ele><time>2026-04-09T07:13:35.087Z</time></trkpt><trkpt lat="40.97453" lon="14.8440183"><ele>264.0</ele><time>2026-04-09T07:13:36.087Z</time></trkpt><trkpt lat="40.9746333" lon="14.844135"><ele>264.0</ele><time>2026-04-09T07:13:37.087Z</time></trkpt><trkpt lat="40.97473" lon="14.844245"><ele>264.0</ele><time>2026-04-09T07:13:38.087Z</time></trkpt><trkpt lat="40.9748217" lon="14.8443617"><ele>264.0</ele><time>2026-04-09T07:13:39.087Z</time></trkpt><trkpt lat="40.9749" lon="14.844475"><ele>264.0</ele><time>2026-04-09T07:13:40.087Z</time></trkpt><trkpt lat="40.974975" lon="14.8445883"><ele>264.5</ele><time>2026-04-09T07:13:41.087Z</time></trkpt><trkpt lat="40.9750433" lon="14.8446967"><ele>265.0</ele><time>2026-04-09T07:13:42.087Z</time></trkpt><trkpt lat="40.9751067" lon="14.8448083"><ele>265.5</ele><time>2026-04-09T07:13:43.087Z</time></trkpt><trkpt lat="40.9751633" lon="14.8449033"><ele>266.0</ele><time>2026-04-09T07:13:44.087Z</time></trkpt><trkpt lat="40.9752083" lon="14.8449917"><ele>266.5</ele><time>2026-04-09T07:13:45.087Z</time></trkpt><trkpt lat="40.975245" lon="14.8450633"><ele>267.0</ele><time>2026-04-09T07:13:46.087Z</time></trkpt><trkpt lat="40.97531" lon="14.8451683"><ele>267.0</ele><time>2026-04-09T07:13:48.087Z</time></trkpt><trkpt lat="40.9754067" lon="14.845195"><ele>267.0</ele><time>2026-04-09T07:13:50.087Z</time></trkpt><trkpt lat="40.975525" lon="14.8451183"><ele>267.0</ele><time>2026-04-09T07:13:52.087Z</time></trkpt><trkpt lat="40.9755783" lon="14.84505"><ele>267.0</ele><time>2026-04-09T07:13:53.087Z</time></trkpt><trkpt lat="40.975625" lon="14.8449667"><ele>267.0</ele><time>2026-04-09T07:13:54.087Z</time></trkpt><trkpt lat="40.975685" lon="14.8448733"><ele>267.0</ele><time>2026-04-09T07:13:55.087Z</time></trkpt><trkpt lat="40.97576" lon="14.8447917"><ele>267.0</ele><time>2026-04-09T07:13:56.087Z</time></trkpt><trkpt lat="40.9758467" lon="14.8447183"><ele>267.0</ele><time>2026-04-09T07:13:57.087Z</time></trkpt><trkpt lat="40.9759317" lon="14.8446767"><ele>267.0</ele><time>2026-04-09T07:13:58.087Z</time></trkpt><trkpt lat="40.975995" lon="14.8446517"><ele>267.0</ele><time>2026-04-09T07:13:59.087Z</time></trkpt><trkpt lat="40.976095" lon="14.8446083"><ele>266.8</ele><time>2026-04-09T07:14:00.087Z</time></trkpt><trkpt lat="40.976185" lon="14.8445467"><ele>266.6</ele><time>2026-04-09T07:14:01.087Z</time></trkpt><trkpt lat="40.9762533" lon="14.84447"><ele>266.40000000000003</ele><time>2026-04-09T07:14:02.087Z</time></trkpt><trkpt lat="40.97631" lon="14.8443633"><ele>266.2</ele><time>2026-04-09T07:14:03.087Z</time></trkpt><trkpt lat="40.97636" lon="14.8442333"><ele>266.0</ele><time>2026-04-09T07:14:04.087Z</time></trkpt><trkpt lat="40.9764033" lon="14.8440767"><ele>266.0</ele><time>2026-04-09T07:14:05.087Z</time></trkpt><trkpt lat="40.976445" lon="14.843905"><ele>266.0</ele><time>2026-04-09T07:14:06.087Z</time></trkpt><trkpt lat="40.9764867" lon="14.8437317"><ele>266.0</ele><time>2026-04-09T07:14:07.087Z</time></trkpt><trkpt lat="40.97653" lon="14.8435517"><ele>266.0</ele><time>2026-04-09T07:14:08.087Z</time></trkpt><trkpt lat="40.9765667" lon="14.8433733"><ele>265.75</ele><time>2026-04-09T07:14:09.087Z</time></trkpt><trkpt lat="40.9766067" lon="14.8432"><ele>265.5</ele><time>2026-04-09T07:14:10.087Z</time></trkpt><trkpt lat="40.9766467" lon="14.8430233"><ele>265.25</ele><time>2026-04-09T07:14:11.087Z</time></trkpt><trkpt lat="40.9766867" lon="14.8428533"><ele>265.0</ele><time>2026-04-09T07:14:12.087Z</time></trkpt><trkpt lat="40.9767233" lon="14.8426933"><ele>267.0</ele><time>2026-04-09T07:14:13.087Z</time></trkpt><trkpt lat="40.9767617" lon="14.842545"><ele>269.0</ele><time>2026-04-09T07:14:14.087Z</time></trkpt><trkpt lat="40.9767933" lon="14.8423983"><ele>271.0</ele><time>2026-04-09T07:14:15.087Z</time></trkpt><trkpt lat="40.9768267" lon="14.84225"><ele>273.0</ele><time>2026-04-09T07:14:16.087Z</time></trkpt><trkpt lat="40.9768667" lon="14.8421"><ele>273.0</ele><time>2026-04-09T07:14:17.087Z</time></trkpt><trkpt lat="40.976905" lon="14.8419417"><ele>273.0</ele><time>2026-04-09T07:14:18.087Z</time></trkpt><trkpt lat="40.976935" lon="14.84178"><ele>273.0</ele><time>2026-04-09T07:14:19.087Z</time></trkpt><trkpt lat="40.9769733" lon="14.8416167"><ele>273.0</ele><time>2026-04-09T07:14:20.087Z</time></trkpt><trkpt lat="40.97706" lon="14.8412567"><ele>271.3333333333333</ele><time>2026-04-09T07:14:22.087Z</time></trkpt><trkpt lat="40.97711" lon="14.8410683"><ele>269.66666666666663</ele><time>2026-04-09T07:14:23.087Z</time></trkpt><trkpt lat="40.9771517" lon="14.8408783"><ele>268.0</ele><time>2026-04-09T07:14:24.087Z</time></trkpt><trkpt lat="40.9771983" lon="14.8406867"><ele>265.5</ele><time>2026-04-09T07:14:25.087Z</time></trkpt><trkpt lat="40.9772433" lon="14.8405017"><ele>263.0</ele><time>2026-04-09T07:14:26.087Z</time></trkpt><trkpt lat="40.977295" lon="14.8403133"><ele>260.5</ele><time>2026-04-09T07:14:27.087Z</time></trkpt><trkpt lat="40.977345" lon="14.840125"><ele>258.0</ele><time>2026-04-09T07:14:28.087Z</time></trkpt><trkpt lat="40.9773917" lon="14.8399417"><ele>257.5</ele><time>2026-04-09T07:14:29.087Z</time></trkpt><trkpt lat="40.9774267" lon="14.8397717"><ele>257.0</ele><time>2026-04-09T07:14:30.087Z</time></trkpt><trkpt lat="40.9774483" lon="14.8395933"><ele>256.5</ele><time>2026-04-09T07:14:31.087Z</time></trkpt><trkpt lat="40.9774667" lon="14.8394167"><ele>256.0</ele><time>2026-04-09T07:14:32.087Z</time></trkpt><trkpt lat="40.9774783" lon="14.8392467"><ele>257.25</ele><time>2026-04-09T07:14:33.087Z</time></trkpt><trkpt lat="40.9774733" lon="14.83908"><ele>258.5</ele><time>2026-04-09T07:14:34.087Z</time></trkpt><trkpt lat="40.9774583" lon="14.8389133"><ele>259.75</ele><time>2026-04-09T07:14:35.087Z</time></trkpt><trkpt lat="40.9774367" lon="14.8387333"><ele>261.0</ele><time>2026-04-09T07:14:36.087Z</time></trkpt><trkpt lat="40.9774" lon="14.838555"><ele>261.25</ele><time>2026-04-09T07:14:37.087Z</time></trkpt><trkpt lat="40.97735" lon="14.83838"><ele>261.5</ele><time>2026-04-09T07:14:38.087Z</time></trkpt><trkpt lat="40.9772867" lon="14.83821"><ele>261.75</ele><time>2026-04-09T07:14:39.087Z</time></trkpt><trkpt lat="40.9772117" lon="14.83805"><ele>262.0</ele><time>2026-04-09T07:14:40.087Z</time></trkpt><trkpt lat="40.977125" lon="14.8378833"><ele>262.0</ele><time>2026-04-09T07:14:41.087Z</time></trkpt><trkpt lat="40.9770317" lon="14.8377183"><ele>262.0</ele><time>2026-04-09T07:14:42.087Z</time></trkpt><trkpt lat="40.976925" lon="14.8375767"><ele>262.0</ele><time>2026-04-09T07:14:43.087Z</time></trkpt><trkpt lat="40.9768117" lon="14.8374633"><ele>262.0</ele><time>2026-04-09T07:14:44.087Z</time></trkpt><trkpt lat="40.9766967" lon="14.8373633"><ele>262.0</ele><time>2026-04-09T07:14:45.087Z</time></trkpt><trkpt lat="40.976585" lon="14.8372767"><ele>262.0</ele><time>2026-04-09T07:14:46.087Z</time></trkpt><trkpt lat="40.9764817" lon="14.8372067"><ele>262.0</ele><time>2026-04-09T07:14:47.087Z</time></trkpt><trkpt lat="40.9763817" lon="14.8371583"><ele>262.0</ele><time>2026-04-09T07:14:48.087Z</time></trkpt><trkpt lat="40.9762883" lon="14.8371283"><ele>262.0</ele><time>2026-04-09T07:14:49.087Z</time></trkpt><trkpt lat="40.9762083" lon="14.8371"><ele>262.0</ele><time>2026-04-09T07:14:50.087Z</time></trkpt><trkpt lat="40.97614" lon="14.83706"><ele>262.0</ele><time>2026-04-09T07:14:51.087Z</time></trkpt><trkpt lat="40.9760833" lon="14.83701"><ele>262.0</ele><time>2026-04-09T07:14:52.087Z</time></trkpt><trkpt lat="40.9760433" lon="14.8369433"><ele>262.0</ele><time>2026-04-09T07:14:53.087Z</time></trkpt><trkpt lat="40.97598" lon="14.8368033"><ele>262.0</ele><time>2026-04-09T07:14:55.087Z</time></trkpt><trkpt lat="40.9759517" lon="14.836725"><ele>262.0</ele><time>2026-04-09T07:14:56.087Z</time></trkpt><trkpt lat="40.9759317" lon="14.8366383"><ele>277.0</ele><time>2026-04-09T07:14:57.087Z</time></trkpt><trkpt lat="40.976815" lon="14.8357733"><ele>277.0</ele><time>2026-04-09T07:15:06.085Z</time></trkpt><trkpt lat="40.9770433" lon="14.8358767"><ele>277.0</ele><time>2026-04-09T07:15:07.085Z</time></trkpt><trkpt lat="40.9771883" lon="14.8359617"><ele>277.0</ele><time>2026-04-09T07:15:08.085Z</time></trkpt><trkpt lat="40.9773017" lon="14.8360433"><ele>275.25</ele><time>2026-04-09T07:15:09.085Z</time></trkpt><trkpt lat="40.9774117" lon="14.8361383"><ele>273.5</ele><time>2026-04-09T07:15:10.085Z</time></trkpt><trkpt lat="40.97753" lon="14.8362367"><ele>271.75</ele><time>2026-04-09T07:15:11.085Z</time></trkpt><trkpt lat="40.9776583" lon="14.8363367"><ele>270.0</ele><time>2026-04-09T07:15:12.085Z</time></trkpt><trkpt lat="40.97778" lon="14.8364367"><ele>270.0</ele><time>2026-04-09T07:15:13.085Z</time></trkpt><trkpt lat="40.9778883" lon="14.8365283"><ele>270.0</ele><time>2026-04-09T07:15:14.085Z</time></trkpt><trkpt lat="40.977995" lon="14.8366233"><ele>270.0</ele><time>2026-04-09T07:15:15.085Z</time></trkpt><trkpt lat="40.9781083" lon="14.8367017"><ele>270.0</ele><time>2026-04-09T07:15:16.085Z</time></trkpt><trkpt lat="40.9782317" lon="14.8367617"><ele>273.75</ele><time>2026-04-09T07:15:17.085Z</time></trkpt><trkpt lat="40.978355" lon="14.8368033"><ele>277.5</ele><time>2026-04-09T07:15:18.085Z</time></trkpt><trkpt lat="40.9784883" lon="14.836815"><ele>281.25</ele><time>2026-04-09T07:15:19.085Z</time></trkpt><trkpt lat="40.97863" lon="14.8367933"><ele>285.0</ele><time>2026-04-09T07:15:20.085Z</time></trkpt><trkpt lat="40.9787633" lon="14.836745"><ele>285.0</ele><time>2026-04-09T07:15:21.085Z</time></trkpt><trkpt lat="40.9789033" lon="14.8366683"><ele>285.0</ele><time>2026-04-09T07:15:22.085Z</time></trkpt><trkpt lat="40.9790367" lon="14.8365683"><ele>285.0</ele><time>2026-04-09T07:15:23.085Z</time></trkpt><trkpt lat="40.9791717" lon="14.83645"><ele>292.3333333333333</ele><time>2026-04-09T07:15:24.085Z</time></trkpt><trkpt lat="40.97931" lon="14.8363267"><ele>299.66666666666663</ele><time>2026-04-09T07:15:25.085Z</time></trkpt><trkpt lat="40.9794383" lon="14.8361983"><ele>307.0</ele><time>2026-04-09T07:15:26.085Z</time></trkpt><trkpt lat="40.9795617" lon="14.8360783"><ele>302.75</ele><time>2026-04-09T07:15:27.085Z</time></trkpt><trkpt lat="40.9796767" lon="14.8359633"><ele>298.5</ele><time>2026-04-09T07:15:28.085Z</time></trkpt><trkpt lat="40.97978" lon="14.8358467"><ele>294.25</ele><time>2026-04-09T07:15:29.085Z</time></trkpt><trkpt lat="40.9798733" lon="14.83572"><ele>290.0</ele><time>2026-04-09T07:15:30.085Z</time></trkpt><trkpt lat="40.9799583" lon="14.8355833"><ele>293.75</ele><time>2026-04-09T07:15:31.085Z</time></trkpt><trkpt lat="40.9800367" lon="14.8354417"><ele>297.5</ele><time>2026-04-09T07:15:32.085Z</time></trkpt><trkpt lat="40.98012" lon="14.8352933"><ele>301.25</ele><time>2026-04-09T07:15:33.085Z</time></trkpt><trkpt lat="40.980215" lon="14.83517"><ele>305.0</ele><time>2026-04-09T07:15:34.085Z</time></trkpt><trkpt lat="40.9803117" lon="14.8350567"><ele>305.0</ele><time>2026-04-09T07:15:35.085Z</time></trkpt><trkpt lat="40.9804067" lon="14.83495"><ele>305.0</ele><time>2026-04-09T07:15:36.085Z</time></trkpt><trkpt lat="40.9805067" lon="14.8348533"><ele>305.0</ele><time>2026-04-09T07:15:37.085Z</time></trkpt><trkpt lat="40.9806117" lon="14.8347867"><ele>305.0</ele><time>2026-04-09T07:15:38.085Z</time></trkpt><trkpt lat="40.9807183" lon="14.834735"><ele>305.0</ele><time>2026-04-09T07:15:39.085Z</time></trkpt><trkpt lat="40.980835" lon="14.8346867"><ele>305.0</ele><time>2026-04-09T07:15:40.085Z</time></trkpt><trkpt lat="40.98094" lon="14.8346483"><ele>305.0</ele><time>2026-04-09T07:15:41.085Z</time></trkpt><trkpt lat="40.981055" lon="14.8346033"><ele>305.0</ele><time>2026-04-09T07:15:42.085Z</time></trkpt><trkpt lat="40.9811617" lon="14.83454"><ele>306.25</ele><time>2026-04-09T07:15:43.085Z</time></trkpt><trkpt lat="40.98127" lon="14.834465"><ele>307.5</ele><time>2026-04-09T07:15:44.085Z</time></trkpt><trkpt lat="40.9813733" lon="14.8343717"><ele>308.75</ele><time>2026-04-09T07:15:45.085Z</time></trkpt><trkpt lat="40.9814767" lon="14.83427"><ele>310.0</ele><time>2026-04-09T07:15:46.085Z</time></trkpt><trkpt lat="40.981585" lon="14.834175"><ele>313.5</ele><time>2026-04-09T07:15:47.085Z</time></trkpt><trkpt lat="40.9817" lon="14.8341067"><ele>317.0</ele><time>2026-04-09T07:15:48.085Z</time></trkpt><trkpt lat="40.9818183" lon="14.8340433"><ele>320.5</ele><time>2026-04-09T07:15:49.085Z</time></trkpt><trkpt lat="40.9819367" lon="14.83399"><ele>324.0</ele><time>2026-04-09T07:15:50.085Z</time></trkpt><trkpt lat="40.9820617" lon="14.83395"><ele>324.0</ele><time>2026-04-09T07:15:51.085Z</time></trkpt><trkpt lat="40.9821867" lon="14.833915"><ele>324.0</ele><time>2026-04-09T07:15:52.085Z</time></trkpt><trkpt lat="40.98231" lon="14.8338717"><ele>324.0</ele><time>2026-04-09T07:15:53.085Z</time></trkpt><trkpt lat="40.98243" lon="14.8338283"><ele>324.0</ele><time>2026-04-09T07:15:54.085Z</time></trkpt><trkpt lat="40.982555" lon="14.8338017"><ele>324.5</ele><time>2026-04-09T07:15:55.085Z</time></trkpt><trkpt lat="40.9826717" lon="14.833795"><ele>325.0</ele><time>2026-04-09T07:15:56.085Z</time></trkpt><trkpt lat="40.982785" lon="14.83381"><ele>325.5</ele><time>2026-04-09T07:15:57.085Z</time></trkpt><trkpt lat="40.9828983" lon="14.8338733"><ele>326.0</ele><time>2026-04-09T07:15:58.085Z</time></trkpt><trkpt lat="40.983" lon="14.8339233"><ele>326.0</ele><time>2026-04-09T07:15:59.085Z</time></trkpt><trkpt lat="40.983085" lon="14.8339917"><ele>326.0</ele><time>2026-04-09T07:16:00.085Z</time></trkpt><trkpt lat="40.9831583" lon="14.8340633"><ele>326.0</ele><time>2026-04-09T07:16:01.085Z</time></trkpt><trkpt lat="40.9832283" lon="14.8341367"><ele>326.0</ele><time>2026-04-09T07:16:02.085Z</time></trkpt><trkpt lat="40.9832817" lon="14.83421"><ele>326.0</ele><time>2026-04-09T07:16:03.085Z</time></trkpt><trkpt lat="40.9833317" lon="14.8342667"><ele>326.0</ele><time>2026-04-09T07:16:04.085Z</time></trkpt><trkpt lat="40.9834117" lon="14.834305"><ele>326.6</ele><time>2026-04-09T07:16:06.085Z</time></trkpt><trkpt lat="40.9835083" lon="14.834205"><ele>327.20000000000005</ele><time>2026-04-09T07:16:08.085Z</time></trkpt><trkpt lat="40.9835767" lon="14.8341083"><ele>327.79999999999995</ele><time>2026-04-09T07:16:09.085Z</time></trkpt><trkpt lat="40.98366" lon="14.834015"><ele>328.4</ele><time>2026-04-09T07:16:10.085Z</time></trkpt><trkpt lat="40.98375" lon="14.83393"><ele>329.0</ele><time>2026-04-09T07:16:11.085Z</time></trkpt><trkpt lat="40.9838483" lon="14.8338767"><ele>329.0</ele><time>2026-04-09T07:16:12.085Z</time></trkpt><trkpt lat="40.9839533" lon="14.83385"><ele>329.0</ele><time>2026-04-09T07:16:13.085Z</time></trkpt><trkpt lat="40.984065" lon="14.8338533"><ele>329.0</ele><time>2026-04-09T07:16:14.085Z</time></trkpt><trkpt lat="40.98419" lon="14.8338833"><ele>329.0</ele><time>2026-04-09T07:16:15.085Z</time></trkpt><trkpt lat="40.98432" lon="14.8339367"><ele>330.0</ele><time>2026-04-09T07:16:16.085Z</time></trkpt><trkpt lat="40.984455" lon="14.8340033"><ele>331.0</ele><time>2026-04-09T07:16:17.085Z</time></trkpt><trkpt lat="40.9845833" lon="14.834055"><ele>332.0</ele><time>2026-04-09T07:16:18.086Z</time></trkpt><trkpt lat="40.9847017" lon="14.834105"><ele>333.0</ele><time>2026-04-09T07:16:19.086Z</time></trkpt><trkpt lat="40.9848133" lon="14.83416"><ele>333.0</ele><time>2026-04-09T07:16:20.086Z</time></trkpt><trkpt lat="40.984925" lon="14.8342117"><ele>333.0</ele><time>2026-04-09T07:16:21.086Z</time></trkpt><trkpt lat="40.9850283" lon="14.8342567"><ele>333.0</ele><time>2026-04-09T07:16:22.086Z</time></trkpt><trkpt lat="40.9851333" lon="14.8342967"><ele>333.0</ele><time>2026-04-09T07:16:23.086Z</time></trkpt><trkpt lat="40.9852383" lon="14.834335"><ele>333.0</ele><time>2026-04-09T07:16:24.086Z</time></trkpt><trkpt lat="40.9853367" lon="14.83437"><ele>333.2</ele><time>2026-04-09T07:16:25.086Z</time></trkpt><trkpt lat="40.9854333" lon="14.8344033"><ele>333.4</ele><time>2026-04-09T07:16:26.086Z</time></trkpt><trkpt lat="40.9855333" lon="14.83444"><ele>333.59999999999997</ele><time>2026-04-09T07:16:27.086Z</time></trkpt><trkpt lat="40.9856383" lon="14.8344817"><ele>333.79999999999995</ele><time>2026-04-09T07:16:28.086Z</time></trkpt><trkpt lat="40.9857417" lon="14.83451"><ele>334.0</ele><time>2026-04-09T07:16:29.086Z</time></trkpt><trkpt lat="40.9858467" lon="14.8345083"><ele>335.5</ele><time>2026-04-09T07:16:30.086Z</time></trkpt><trkpt lat="40.9859533" lon="14.8344983"><ele>337.0</ele><time>2026-04-09T07:16:31.086Z</time></trkpt><trkpt lat="40.9860733" lon="14.83448"><ele>338.5</ele><time>2026-04-09T07:16:32.086Z</time></trkpt><trkpt lat="40.9861917" lon="14.8344533"><ele>340.0</ele><time>2026-04-09T07:16:33.086Z</time></trkpt><trkpt lat="40.986305" lon="14.8344233"><ele>340.0</ele><time>2026-04-09T07:16:34.086Z</time></trkpt><trkpt lat="40.9864" lon="14.8343933"><ele>340.0</ele><time>2026-04-09T07:16:35.086Z</time></trkpt><trkpt lat="40.9864833" lon="14.8343567"><ele>340.0</ele><time>2026-04-09T07:16:36.086Z</time></trkpt><trkpt lat="40.9865617" lon="14.834335"><ele>340.0</ele><time>2026-04-09T07:16:37.086Z</time></trkpt><trkpt lat="40.9866283" lon="14.83432"><ele>340.0</ele><time>2026-04-09T07:16:38.086Z</time></trkpt><trkpt lat="40.9867383" lon="14.8343467"><ele>340.0</ele><time>2026-04-09T07:16:40.086Z</time></trkpt><trkpt lat="40.986805" lon="14.8344333"><ele>339.5</ele><time>2026-04-09T07:16:42.086Z</time></trkpt><trkpt lat="40.98686" lon="14.8344883"><ele>339.0</ele><time>2026-04-09T07:16:44.086Z</time></trkpt><trkpt lat="40.9869483" lon="14.83449"><ele>338.5</ele><time>2026-04-09T07:16:46.086Z</time></trkpt><trkpt lat="40.9870433" lon="14.8344817"><ele>338.0</ele><time>2026-04-09T07:16:48.086Z</time></trkpt><trkpt lat="40.9871067" lon="14.834485"><ele>337.5</ele><time>2026-04-09T07:16:49.086Z</time></trkpt><trkpt lat="40.9871833" lon="14.834505"><ele>337.0</ele><time>2026-04-09T07:16:50.086Z</time></trkpt><trkpt lat="40.9872667" lon="14.8345383"><ele>337.0</ele><time>2026-04-09T07:16:51.086Z</time></trkpt><trkpt lat="40.9873633" lon="14.83457"><ele>337.0</ele><time>2026-04-09T07:16:52.086Z</time></trkpt><trkpt lat="40.98747" lon="14.8346183"><ele>337.0</ele><time>2026-04-09T07:16:53.086Z</time></trkpt><trkpt lat="40.987585" lon="14.8346517"><ele>337.0</ele><time>2026-04-09T07:16:54.086Z</time></trkpt><trkpt lat="40.9876967" lon="14.8346717"><ele>337.0</ele><time>2026-04-09T07:16:55.086Z</time></trkpt><trkpt lat="40.9878117" lon="14.8346767"><ele>332.5</ele><time>2026-04-09T07:16:56.086Z</time></trkpt><trkpt lat="40.9879283" lon="14.83467"><ele>328.0</ele><time>2026-04-09T07:16:57.086Z</time></trkpt><trkpt lat="40.9880417" lon="14.8346667"><ele>323.5</ele><time>2026-04-09T07:16:58.086Z</time></trkpt><trkpt lat="40.988155" lon="14.8346633"><ele>319.0</ele><time>2026-04-09T07:16:59.086Z</time></trkpt><trkpt lat="40.98827" lon="14.8346617"><ele>315.2</ele><time>2026-04-09T07:17:00.086Z</time></trkpt><trkpt lat="40.9883867" lon="14.83467"><ele>311.4</ele><time>2026-04-09T07:17:01.086Z</time></trkpt><trkpt lat="40.988495" lon="14.8346983"><ele>307.6</ele><time>2026-04-09T07:17:02.086Z</time></trkpt><trkpt lat="40.9886" lon="14.834745"><ele>303.8</ele><time>2026-04-09T07:17:03.086Z</time></trkpt><trkpt lat="40.988695" lon="14.834795"><ele>300.0</ele><time>2026-04-09T07:17:04.086Z</time></trkpt><trkpt lat="40.9887867" lon="14.83486"><ele>300.0</ele><time>2026-04-09T07:17:05.086Z</time></trkpt><trkpt lat="40.9888683" lon="14.8349333"><ele>300.0</ele><time>2026-04-09T07:17:06.086Z</time></trkpt><trkpt lat="40.98895" lon="14.8350283"><ele>300.0</ele><time>2026-04-09T07:17:07.086Z</time></trkpt><trkpt lat="40.989025" lon="14.835135"><ele>300.0</ele><time>2026-04-09T07:17:08.086Z</time></trkpt><trkpt lat="40.9890917" lon="14.83524"><ele>300.0</ele><time>2026-04-09T07:17:09.086Z</time></trkpt><trkpt lat="40.9891583" lon="14.83534"><ele>296.4</ele><time>2026-04-09T07:17:10.086Z</time></trkpt><trkpt lat="40.98922" lon="14.8354517"><ele>292.8</ele><time>2026-04-09T07:17:11.086Z</time></trkpt><trkpt lat="40.989285" lon="14.8355517"><ele>289.2</ele><time>2026-04-09T07:17:12.086Z</time></trkpt><trkpt lat="40.989345" lon="14.8356467"><ele>285.6</ele><time>2026-04-09T07:17:13.086Z</time></trkpt><trkpt lat="40.9894017" lon="14.8357333"><ele>282.0</ele><time>2026-04-09T07:17:14.086Z</time></trkpt><trkpt lat="40.989475" lon="14.8358067"><ele>282.0</ele><time>2026-04-09T07:17:15.086Z</time></trkpt><trkpt lat="40.9895417" lon="14.8358717"><ele>282.0</ele><time>2026-04-09T07:17:16.086Z</time></trkpt><trkpt lat="40.9895967" lon="14.8359183"><ele>282.0</ele><time>2026-04-09T07:17:17.086Z</time></trkpt><trkpt lat="40.98969" lon="14.83601"><ele>282.0</ele><time>2026-04-09T07:17:19.086Z</time></trkpt><trkpt lat="40.9897517" lon="14.8361167"><ele>282.0</ele><time>2026-04-09T07:17:21.086Z</time></trkpt><trkpt lat="40.9897467" lon="14.8362817"><ele>281.4</ele><time>2026-04-09T07:17:23.086Z</time></trkpt><trkpt lat="40.9897117" lon="14.836385"><ele>280.79999999999995</ele><time>2026-04-09T07:17:24.086Z</time></trkpt><trkpt lat="40.9896733" lon="14.836505"><ele>280.2</ele><time>2026-04-09T07:17:25.086Z</time></trkpt><trkpt lat="40.9896333" lon="14.8366283"><ele>279.59999999999997</ele><time>2026-04-09T07:17:26.086Z</time></trkpt><trkpt lat="40.9896017" lon="14.836735"><ele>279.0</ele><time>2026-04-09T07:17:27.086Z</time></trkpt><trkpt lat="40.98957" lon="14.8368333"><ele>278.6666666666667</ele><time>2026-04-09T07:17:28.086Z</time></trkpt><trkpt lat="40.9895333" lon="14.8369633"><ele>278.3333333333333</ele><time>2026-04-09T07:17:30.086Z</time></trkpt><trkpt lat="40.9895583" lon="14.8370933"><ele>278.0</ele><time>2026-04-09T07:17:32.086Z</time></trkpt><trkpt lat="40.9895967" lon="14.8371617"><ele>277.66666666666663</ele><time>2026-04-09T07:17:33.086Z</time></trkpt><trkpt lat="40.9896533" lon="14.83723"><ele>277.3333333333333</ele><time>2026-04-09T07:17:34.086Z</time></trkpt><trkpt lat="40.9897117" lon="14.8372917"><ele>277.0</ele><time>2026-04-09T07:17:35.086Z</time></trkpt><trkpt lat="40.98976" lon="14.8373483"><ele>277.0</ele><time>2026-04-09T07:17:36.086Z</time></trkpt><trkpt lat="40.98983" lon="14.8374583"><ele>277.0</ele><time>2026-04-09T07:17:38.086Z</time></trkpt><trkpt lat="40.9899067" lon="14.8375233"><ele>277.0</ele><time>2026-04-09T07:17:40.086Z</time></trkpt><trkpt lat="40.9899917" lon="14.83748"><ele>277.0</ele><time>2026-04-09T07:17:42.086Z</time></trkpt><trkpt lat="40.9900367" lon="14.837415"><ele>277.0</ele><time>2026-04-09T07:17:43.086Z</time></trkpt><trkpt lat="40.9900833" lon="14.8373167"><ele>277.0</ele><time>2026-04-09T07:17:44.086Z</time></trkpt><trkpt lat="40.990135" lon="14.8371983"><ele>275.6</ele><time>2026-04-09T07:17:45.086Z</time></trkpt><trkpt lat="40.9901817" lon="14.8370833"><ele>274.2</ele><time>2026-04-09T07:17:46.086Z</time></trkpt><trkpt lat="40.990235" lon="14.8369783"><ele>272.8</ele><time>2026-04-09T07:17:47.086Z</time></trkpt><trkpt lat="40.9902917" lon="14.8368867"><ele>271.4</ele><time>2026-04-09T07:17:48.086Z</time></trkpt><trkpt lat="40.9903367" lon="14.83678"><ele>270.0</ele><time>2026-04-09T07:17:49.086Z</time></trkpt><trkpt lat="40.9903833" lon="14.8366667"><ele>270.0</ele><time>2026-04-09T07:17:50.086Z</time></trkpt><trkpt lat="40.9904333" lon="14.836545"><ele>270.0</ele><time>2026-04-09T07:17:51.086Z</time></trkpt><trkpt lat="40.99048" lon="14.8364183"><ele>270.0</ele><time>2026-04-09T07:17:52.086Z</time></trkpt><trkpt lat="40.9905283" lon="14.8362683"><ele>270.0</ele><time>2026-04-09T07:17:53.086Z</time></trkpt><trkpt lat="40.9905783" lon="14.8361133"><ele>271.0</ele><time>2026-04-09T07:17:54.086Z</time></trkpt><trkpt lat="40.99063" lon="14.8359617"><ele>272.0</ele><time>2026-04-09T07:17:55.086Z</time></trkpt><trkpt lat="40.9906767" lon="14.8358233"><ele>273.0</ele><time>2026-04-09T07:17:56.086Z</time></trkpt><trkpt lat="40.9907233" lon="14.8356933"><ele>274.0</ele><time>2026-04-09T07:17:57.086Z</time></trkpt><trkpt lat="40.9907733" lon="14.8355783"><ele>275.0</ele><time>2026-04-09T07:17:58.086Z</time></trkpt><trkpt lat="40.990825" lon="14.835485"><ele>274.0</ele><time>2026-04-09T07:17:59.086Z</time></trkpt><trkpt lat="40.9908883" lon="14.835395"><ele>273.0</ele><time>2026-04-09T07:18:00.086Z</time></trkpt><trkpt lat="40.9909483" lon="14.8353067"><ele>272.0</ele><time>2026-04-09T07:18:01.086Z</time></trkpt><trkpt lat="40.9910667" lon="14.835115"><ele>271.0</ele><time>2026-04-09T07:18:03.086Z</time></trkpt><trkpt lat="40.9911267" lon="14.8350117"><ele>271.0</ele><time>2026-04-09T07:18:04.086Z</time></trkpt><trkpt lat="40.99118" lon="14.8348917"><ele>271.0</ele><time>2026-04-09T07:18:05.086Z</time></trkpt><trkpt lat="40.9912267" lon="14.8347633"><ele>271.0</ele><time>2026-04-09T07:18:06.086Z</time></trkpt><trkpt lat="40.99127" lon="14.83463"><ele>271.0</ele><time>2026-04-09T07:18:07.086Z</time></trkpt><trkpt lat="40.99132" lon="14.8344967"><ele>271.0</ele><time>2026-04-09T07:18:08.086Z</time></trkpt><trkpt lat="40.9913717" lon="14.8343633"><ele>272.0</ele><time>2026-04-09T07:18:09.086Z</time></trkpt><trkpt lat="40.9914167" lon="14.83422"><ele>273.0</ele><time>2026-04-09T07:18:10.086Z</time></trkpt><trkpt lat="40.99146" lon="14.834065"><ele>274.0</ele><time>2026-04-09T07:18:11.086Z</time></trkpt><trkpt lat="40.9915017" lon="14.8339133"><ele>275.0</ele><time>2026-04-09T07:18:12.086Z</time></trkpt><trkpt lat="40.99154" lon="14.833755"><ele>275.0</ele><time>2026-04-09T07:18:13.086Z</time></trkpt><trkpt lat="40.9915883" lon="14.8335933"><ele>275.0</ele><time>2026-04-09T07:18:14.086Z</time></trkpt><trkpt lat="40.9916333" lon="14.833415"><ele>275.0</ele><time>2026-04-09T07:18:15.086Z</time></trkpt><trkpt lat="40.9916783" lon="14.8332417"><ele>275.0</ele><time>2026-04-09T07:18:16.086Z</time></trkpt><trkpt lat="40.9917117" lon="14.8330783"><ele>274.6</ele><time>2026-04-09T07:18:17.086Z</time></trkpt><trkpt lat="40.9917433" lon="14.8329267"><ele>274.2</ele><time>2026-04-09T07:18:18.086Z</time></trkpt><trkpt lat="40.9917667" lon="14.832785"><ele>273.8</ele><time>2026-04-09T07:18:19.086Z</time></trkpt><trkpt lat="40.9917983" lon="14.8326567"><ele>273.4</ele><time>2026-04-09T07:18:20.086Z</time></trkpt><trkpt lat="40.9918517" lon="14.8325483"><ele>273.0</ele><time>2026-04-09T07:18:21.086Z</time></trkpt><trkpt lat="40.9919217" lon="14.8324533"><ele>273.0</ele><time>2026-04-09T07:18:22.086Z</time></trkpt><trkpt lat="40.9920083" lon="14.83237"><ele>273.0</ele><time>2026-04-09T07:18:23.086Z</time></trkpt><trkpt lat="40.9921183" lon="14.83229"><ele>273.0</ele><time>2026-04-09T07:18:24.086Z</time></trkpt><trkpt lat="40.9922383" lon="14.8322167"><ele>273.0</ele><time>2026-04-09T07:18:25.086Z</time></trkpt><trkpt lat="40.9923533" lon="14.8321433"><ele>273.0</ele><time>2026-04-09T07:18:26.086Z</time></trkpt><trkpt lat="40.9924583" lon="14.8320633"><ele>273.0</ele><time>2026-04-09T07:18:27.086Z</time></trkpt><trkpt lat="40.9925417" lon="14.8319667"><ele>273.0</ele><time>2026-04-09T07:18:28.086Z</time></trkpt><trkpt lat="40.9926117" lon="14.8318733"><ele>273.0</ele><time>2026-04-09T07:18:29.086Z</time></trkpt><trkpt lat="40.9926783" lon="14.8317783"><ele>273.0</ele><time>2026-04-09T07:18:30.086Z</time></trkpt><trkpt lat="40.9927433" lon="14.83172"><ele>273.6666666666667</ele><time>2026-04-09T07:18:31.086Z</time></trkpt><trkpt lat="40.9928133" lon="14.8316983"><ele>274.3333333333333</ele><time>2026-04-09T07:18:32.086Z</time></trkpt><trkpt lat="40.9928967" lon="14.8317183"><ele>275.0</ele><time>2026-04-09T07:18:33.086Z</time></trkpt><trkpt lat="40.992975" lon="14.83177"><ele>275.66666666666663</ele><time>2026-04-09T07:18:34.086Z</time></trkpt><trkpt lat="40.9930483" lon="14.831815"><ele>276.3333333333333</ele><time>2026-04-09T07:18:35.086Z</time></trkpt><trkpt lat="40.9931117" lon="14.8318267"><ele>277.0</ele><time>2026-04-09T07:18:36.086Z</time></trkpt><trkpt lat="40.993205" lon="14.8317433"><ele>277.8333333333333</ele><time>2026-04-09T07:18:38.086Z</time></trkpt><trkpt lat="40.9932367" lon="14.83167"><ele>278.66666666666663</ele><time>2026-04-09T07:18:39.086Z</time></trkpt><trkpt lat="40.9932633" lon="14.8315817"><ele>279.5</ele><time>2026-04-09T07:18:40.086Z</time></trkpt><trkpt lat="40.99327" lon="14.8314767"><ele>280.3333333333333</ele><time>2026-04-09T07:18:41.086Z</time></trkpt><trkpt lat="40.9932683" lon="14.8313517"><ele>281.1666666666667</ele><time>2026-04-09T07:18:42.086Z</time></trkpt><trkpt lat="40.993255" lon="14.8312117"><ele>282.0</ele><time>2026-04-09T07:18:43.086Z</time></trkpt><trkpt lat="40.99324" lon="14.8310783"><ele>283.0</ele><time>2026-04-09T07:18:44.086Z</time></trkpt><trkpt lat="40.993215" lon="14.83094"><ele>284.0</ele><time>2026-04-09T07:18:45.086Z</time></trkpt><trkpt lat="40.9931983" lon="14.830795"><ele>285.0</ele><time>2026-04-09T07:18:46.086Z</time></trkpt><trkpt lat="40.9931883" lon="14.8306467"><ele>286.0</ele><time>2026-04-09T07:18:47.086Z</time></trkpt><trkpt lat="40.99318" lon="14.8304983"><ele>287.0</ele><time>2026-04-09T07:18:48.086Z</time></trkpt><trkpt lat="40.9931817" lon="14.830365"><ele>287.0</ele><time>2026-04-09T07:18:49.086Z</time></trkpt><trkpt lat="40.993185" lon="14.83023"><ele>287.0</ele><time>2026-04-09T07:18:50.086Z</time></trkpt><trkpt lat="40.9932" lon="14.8300967"><ele>287.0</ele><time>2026-04-09T07:18:51.086Z</time></trkpt><trkpt lat="40.9932267" lon="14.8299583"><ele>287.0</ele><time>2026-04-09T07:18:52.086Z</time></trkpt><trkpt lat="40.9932683" lon="14.8298167"><ele>287.0</ele><time>2026-04-09T07:18:53.086Z</time></trkpt><trkpt lat="40.9933117" lon="14.8296833"><ele>285.5</ele><time>2026-04-09T07:18:54.086Z</time></trkpt><trkpt lat="40.9933683" lon="14.82955"><ele>284.0</ele><time>2026-04-09T07:18:55.086Z</time></trkpt><trkpt lat="40.9934233" lon="14.82941"><ele>282.5</ele><time>2026-04-09T07:18:56.086Z</time></trkpt><trkpt lat="40.993485" lon="14.8292767"><ele>281.0</ele><time>2026-04-09T07:18:57.086Z</time></trkpt><trkpt lat="40.9935433" lon="14.82914"><ele>281.0</ele><time>2026-04-09T07:18:58.086Z</time></trkpt><trkpt lat="40.9936" lon="14.8290133"><ele>281.0</ele><time>2026-04-09T07:18:59.086Z</time></trkpt><trkpt lat="40.9936567" lon="14.82889"><ele>281.0</ele><time>2026-04-09T07:19:00.086Z</time></trkpt><trkpt lat="40.9937133" lon="14.8287783"><ele>281.0</ele><time>2026-04-09T07:19:01.086Z</time></trkpt><trkpt lat="40.9937767" lon="14.8286567"><ele>281.0</ele><time>2026-04-09T07:19:02.086Z</time></trkpt><trkpt lat="40.993845" lon="14.82854"><ele>281.75</ele><time>2026-04-09T07:19:03.086Z</time></trkpt><trkpt lat="40.99392" lon="14.8284133"><ele>282.5</ele><time>2026-04-09T07:19:04.086Z</time></trkpt><trkpt lat="40.9940133" lon="14.8282917"><ele>283.25</ele><time>2026-04-09T07:19:05.086Z</time></trkpt><trkpt lat="40.9941083" lon="14.828165"><ele>284.0</ele><time>2026-04-09T07:19:06.086Z</time></trkpt><trkpt lat="40.9941967" lon="14.8280433"><ele>284.0</ele><time>2026-04-09T07:19:07.086Z</time></trkpt><trkpt lat="40.9942767" lon="14.827945"><ele>284.0</ele><time>2026-04-09T07:19:08.086Z</time></trkpt><trkpt lat="40.994345" lon="14.827855"><ele>284.0</ele><time>2026-04-09T07:19:09.086Z</time></trkpt><trkpt lat="40.9944017" lon="14.827745"><ele>284.0</ele><time>2026-04-09T07:19:10.086Z</time></trkpt><trkpt lat="40.99445" lon="14.8276133"><ele>284.0</ele><time>2026-04-09T07:19:11.086Z</time></trkpt><trkpt lat="40.99448" lon="14.8274617"><ele>287.2</ele><time>2026-04-09T07:19:12.086Z</time></trkpt><trkpt lat="40.9945083" lon="14.8273067"><ele>290.4</ele><time>2026-04-09T07:19:13.086Z</time></trkpt><trkpt lat="40.99454" lon="14.82717"><ele>293.6</ele><time>2026-04-09T07:19:14.086Z</time></trkpt><trkpt lat="40.9945733" lon="14.8270533"><ele>296.8</ele><time>2026-04-09T07:19:15.086Z</time></trkpt><trkpt lat="40.9946133" lon="14.8269333"><ele>300.0</ele><time>2026-04-09T07:19:16.086Z</time></trkpt><trkpt lat="40.9946483" lon="14.826815"><ele>302.6</ele><time>2026-04-09T07:19:17.086Z</time></trkpt><trkpt lat="40.99466" lon="14.826685"><ele>305.2</ele><time>2026-04-09T07:19:18.086Z</time></trkpt><trkpt lat="40.9946617" lon="14.8265533"><ele>307.8</ele><time>2026-04-09T07:19:19.086Z</time></trkpt><trkpt lat="40.9946683" lon="14.8264133"><ele>310.4</ele><time>2026-04-09T07:19:20.086Z</time></trkpt><trkpt lat="40.9946833" lon="14.8262717"><ele>313.0</ele><time>2026-04-09T07:19:21.086Z</time></trkpt><trkpt lat="40.994705" lon="14.8261333"><ele>313.0</ele><time>2026-04-09T07:19:22.086Z</time></trkpt><trkpt lat="40.9947383" lon="14.8260133"><ele>313.0</ele><time>2026-04-09T07:19:23.086Z</time></trkpt><trkpt lat="40.9947833" lon="14.8258967"><ele>313.0</ele><time>2026-04-09T07:19:24.086Z</time></trkpt><trkpt lat="40.994835" lon="14.8257883"><ele>313.0</ele><time>2026-04-09T07:19:25.086Z</time></trkpt><trkpt lat="40.9948933" lon="14.8256833"><ele>313.0</ele><time>2026-04-09T07:19:26.086Z</time></trkpt><trkpt lat="40.99495" lon="14.8255967"><ele>316.5</ele><time>2026-04-09T07:19:27.086Z</time></trkpt><trkpt lat="40.995005" lon="14.8255517"><ele>320.0</ele><time>2026-04-09T07:19:28.086Z</time></trkpt><trkpt lat="40.9950683" lon="14.82553"><ele>323.5</ele><time>2026-04-09T07:19:29.086Z</time></trkpt><trkpt lat="40.99514" lon="14.82555"><ele>327.0</ele><time>2026-04-09T07:19:30.086Z</time></trkpt><trkpt lat="40.9952167" lon="14.8255933"><ele>330.5</ele><time>2026-04-09T07:19:31.086Z</time></trkpt><trkpt lat="40.9953" lon="14.8256667"><ele>334.0</ele><time>2026-04-09T07:19:32.086Z</time></trkpt><trkpt lat="40.9953767" lon="14.8257617"><ele>334.0</ele><time>2026-04-09T07:19:33.086Z</time></trkpt><trkpt lat="40.995445" lon="14.82585"><ele>334.0</ele><time>2026-04-09T07:19:34.086Z</time></trkpt><trkpt lat="40.9955217" lon="14.825915"><ele>334.0</ele><time>2026-04-09T07:19:35.086Z</time></trkpt><trkpt lat="40.99561" lon="14.8259533"><ele>334.0</ele><time>2026-04-09T07:19:36.086Z</time></trkpt><trkpt lat="40.9957" lon="14.8259617"><ele>334.0</ele><time>2026-04-09T07:19:37.086Z</time></trkpt><trkpt lat="40.9957833" lon="14.8259483"><ele>335.0</ele><time>2026-04-09T07:19:38.086Z</time></trkpt><trkpt lat="40.9958583" lon="14.8258967"><ele>336.0</ele><time>2026-04-09T07:19:39.086Z</time></trkpt><trkpt lat="40.995915" lon="14.8258167"><ele>337.0</ele><time>2026-04-09T07:19:40.086Z</time></trkpt><trkpt lat="40.9959467" lon="14.825725"><ele>338.0</ele><time>2026-04-09T07:19:41.086Z</time></trkpt><trkpt lat="40.9959517" lon="14.82561"><ele>339.0</ele><time>2026-04-09T07:19:42.086Z</time></trkpt><trkpt lat="40.9959333" lon="14.8254733"><ele>340.0</ele><time>2026-04-09T07:19:43.086Z</time></trkpt><trkpt lat="40.9959" lon="14.8253183"><ele>340.0</ele><time>2026-04-09T07:19:44.086Z</time></trkpt><trkpt lat="40.9958683" lon="14.8251683"><ele>340.0</ele><time>2026-04-09T07:19:45.086Z</time></trkpt><trkpt lat="40.9958417" lon="14.8250333"><ele>340.0</ele><time>2026-04-09T07:19:46.086Z</time></trkpt><trkpt lat="40.9958167" lon="14.82491"><ele>340.0</ele><time>2026-04-09T07:19:47.086Z</time></trkpt><trkpt lat="40.9957767" lon="14.8248"><ele>340.0</ele><time>2026-04-09T07:19:48.086Z</time></trkpt><trkpt lat="40.9957317" lon="14.82469"><ele>340.5714285714286</ele><time>2026-04-09T07:19:49.086Z</time></trkpt><trkpt lat="40.9956833" lon="14.8246033"><ele>341.1428571428571</ele><time>2026-04-09T07:19:50.086Z</time></trkpt><trkpt lat="40.9956467" lon="14.8245317"><ele>341.7142857142857</ele><time>2026-04-09T07:19:51.086Z</time></trkpt><trkpt lat="40.9956217" lon="14.824445"><ele>342.28571428571433</ele><time>2026-04-09T07:19:52.086Z</time></trkpt><trkpt lat="40.9956133" lon="14.824355"><ele>342.8571428571429</ele><time>2026-04-09T07:19:53.086Z</time></trkpt><trkpt lat="40.9956283" lon="14.8242683"><ele>343.42857142857144</ele><time>2026-04-09T07:19:54.086Z</time></trkpt><trkpt lat="40.9956633" lon="14.824175"><ele>344.0</ele><time>2026-04-09T07:19:55.086Z</time></trkpt><trkpt lat="40.995725" lon="14.8240917"><ele>347.0</ele><time>2026-04-09T07:19:56.086Z</time></trkpt><trkpt lat="40.9958067" lon="14.8240117"><ele>350.0</ele><time>2026-04-09T07:19:57.086Z</time></trkpt><trkpt lat="40.9959083" lon="14.8239517"><ele>353.0</ele><time>2026-04-09T07:19:58.086Z</time></trkpt><trkpt lat="40.996015" lon="14.8239117"><ele>356.0</ele><time>2026-04-09T07:19:59.086Z</time></trkpt><trkpt lat="40.9961317" lon="14.8238867"><ele>359.0</ele><time>2026-04-09T07:20:00.086Z</time></trkpt><trkpt lat="40.99626" lon="14.82389"><ele>360.0</ele><time>2026-04-09T07:20:01.086Z</time></trkpt><trkpt lat="40.99638" lon="14.8239183"><ele>361.0</ele><time>2026-04-09T07:20:02.086Z</time></trkpt><trkpt lat="40.9964917" lon="14.8239367"><ele>362.0</ele><time>2026-04-09T07:20:03.086Z</time></trkpt><trkpt lat="40.9965983" lon="14.8239333"><ele>363.0</ele><time>2026-04-09T07:20:04.086Z</time></trkpt><trkpt lat="40.996695" lon="14.8239083"><ele>364.0</ele><time>2026-04-09T07:20:05.086Z</time></trkpt><trkpt lat="40.9968017" lon="14.82385"><ele>361.25</ele><time>2026-04-09T07:20:06.086Z</time></trkpt><trkpt lat="40.996915" lon="14.823775"><ele>358.5</ele><time>2026-04-09T07:20:07.086Z</time></trkpt><trkpt lat="40.99703" lon="14.8236833"><ele>355.75</ele><time>2026-04-09T07:20:08.086Z</time></trkpt><trkpt lat="40.9971383" lon="14.8235933"><ele>353.0</ele><time>2026-04-09T07:20:09.086Z</time></trkpt><trkpt lat="40.9972417" lon="14.8235083"><ele>352.79999999999995</ele><time>2026-04-09T07:20:10.086Z</time></trkpt><trkpt lat="40.9973383" lon="14.8234183"><ele>352.6</ele><time>2026-04-09T07:20:11.086Z</time></trkpt><trkpt lat="40.9974233" lon="14.8233283"><ele>352.4</ele><time>2026-04-09T07:20:12.086Z</time></trkpt><trkpt lat="40.9974933" lon="14.8232317"><ele>352.20000000000005</ele><time>2026-04-09T07:20:13.086Z</time></trkpt><trkpt lat="40.997545" lon="14.8231217"><ele>352.0</ele><time>2026-04-09T07:20:14.086Z</time></trkpt><trkpt lat="40.9975783" lon="14.8229917"><ele>352.0</ele><time>2026-04-09T07:20:15.086Z</time></trkpt><trkpt lat="40.9975967" lon="14.8228367"><ele>352.0</ele><time>2026-04-09T07:20:16.086Z</time></trkpt><trkpt lat="40.997615" lon="14.8226883"><ele>352.0</ele><time>2026-04-09T07:20:17.086Z</time></trkpt><trkpt lat="40.9976333" lon="14.8225367"><ele>352.0</ele><time>2026-04-09T07:20:18.086Z</time></trkpt><trkpt lat="40.997655" lon="14.8224"><ele>352.75</ele><time>2026-04-09T07:20:19.086Z</time></trkpt><trkpt lat="40.9976733" lon="14.8222517"><ele>353.5</ele><time>2026-04-09T07:20:20.086Z</time></trkpt><trkpt lat="40.9976933" lon="14.822105"><ele>354.25</ele><time>2026-04-09T07:20:21.086Z</time></trkpt><trkpt lat="40.99773" lon="14.8219517"><ele>355.0</ele><time>2026-04-09T07:20:22.086Z</time></trkpt><trkpt lat="40.9977783" lon="14.82179"><ele>357.5</ele><time>2026-04-09T07:20:23.086Z</time></trkpt><trkpt lat="40.9978317" lon="14.8216567"><ele>360.0</ele><time>2026-04-09T07:20:24.086Z</time></trkpt><trkpt lat="40.9978967" lon="14.8215367"><ele>362.5</ele><time>2026-04-09T07:20:25.086Z</time></trkpt><trkpt lat="40.997965" lon="14.8214117"><ele>365.0</ele><time>2026-04-09T07:20:26.086Z</time></trkpt><trkpt lat="40.9980367" lon="14.82128"><ele>365.0</ele><time>2026-04-09T07:20:27.086Z</time></trkpt><trkpt lat="40.99811" lon="14.8211467"><ele>365.0</ele><time>2026-04-09T07:20:28.086Z</time></trkpt><trkpt lat="40.998195" lon="14.821025"><ele>365.0</ele><time>2026-04-09T07:20:29.086Z</time></trkpt><trkpt lat="40.9982967" lon="14.820915"><ele>365.0</ele><time>2026-04-09T07:20:30.086Z</time></trkpt><trkpt lat="40.9983983" lon="14.8208033"><ele>366.6</ele><time>2026-04-09T07:20:31.086Z</time></trkpt><trkpt lat="40.99849" lon="14.8207"><ele>368.2</ele><time>2026-04-09T07:20:32.086Z</time></trkpt><trkpt lat="40.99857" lon="14.8206083"><ele>369.79999999999995</ele><time>2026-04-09T07:20:33.086Z</time></trkpt><trkpt lat="40.99865" lon="14.82053"><ele>371.4</ele><time>2026-04-09T07:20:34.086Z</time></trkpt><trkpt lat="40.9987267" lon="14.8204467"><ele>373.0</ele><time>2026-04-09T07:20:35.086Z</time></trkpt><trkpt lat="40.9987917" lon="14.8203667"><ele>373.0</ele><time>2026-04-09T07:20:36.086Z</time></trkpt><trkpt lat="40.9988567" lon="14.8202567"><ele>373.0</ele><time>2026-04-09T07:20:37.086Z</time></trkpt><trkpt lat="40.99892" lon="14.8201417"><ele>373.0</ele><time>2026-04-09T07:20:38.086Z</time></trkpt><trkpt lat="40.9989833" lon="14.8200167"><ele>373.0</ele><time>2026-04-09T07:20:39.086Z</time></trkpt><trkpt lat="40.9990383" lon="14.8198817"><ele>373.0</ele><time>2026-04-09T07:20:40.086Z</time></trkpt><trkpt lat="40.99909" lon="14.8197433"><ele>373.0</ele><time>2026-04-09T07:20:41.086Z</time></trkpt><trkpt lat="40.9991433" lon="14.81961"><ele>373.0</ele><time>2026-04-09T07:20:42.086Z</time></trkpt><trkpt lat="40.9992017" lon="14.8194867"><ele>373.0</ele><time>2026-04-09T07:20:43.086Z</time></trkpt><trkpt lat="40.9992617" lon="14.81936"><ele>373.0</ele><time>2026-04-09T07:20:44.086Z</time></trkpt><trkpt lat="40.9993217" lon="14.81923"><ele>373.0</ele><time>2026-04-09T07:20:45.086Z</time></trkpt><trkpt lat="40.999375" lon="14.8190983"><ele>373.0</ele><time>2026-04-09T07:20:46.086Z</time></trkpt><trkpt lat="40.9994117" lon="14.8189733"><ele>373.0</ele><time>2026-04-09T07:20:47.086Z</time></trkpt><trkpt lat="40.999435" lon="14.81885"><ele>373.0</ele><time>2026-04-09T07:20:48.086Z</time></trkpt><trkpt lat="40.9994533" lon="14.8187367"><ele>373.0</ele><time>2026-04-09T07:20:49.086Z</time></trkpt><trkpt lat="40.9994717" lon="14.8186233"><ele>373.0</ele><time>2026-04-09T07:20:50.086Z</time></trkpt><trkpt lat="40.9995" lon="14.8185033"><ele>373.0</ele><time>2026-04-09T07:20:51.086Z</time></trkpt><trkpt lat="40.9995383" lon="14.81837"><ele>373.0</ele><time>2026-04-09T07:20:52.086Z</time></trkpt><trkpt lat="40.9995767" lon="14.8182217"><ele>373.0</ele><time>2026-04-09T07:20:53.086Z</time></trkpt><trkpt lat="40.9996133" lon="14.818075"><ele>373.0</ele><time>2026-04-09T07:20:54.086Z</time></trkpt><trkpt lat="40.99965" lon="14.8179383"><ele>374.79999999999995</ele><time>2026-04-09T07:20:55.086Z</time></trkpt><trkpt lat="40.9996867" lon="14.8177983"><ele>376.6</ele><time>2026-04-09T07:20:56.086Z</time></trkpt><trkpt lat="40.9997317" lon="14.8176667"><ele>378.4</ele><time>2026-04-09T07:20:57.086Z</time></trkpt><trkpt lat="40.9997733" lon="14.81755"><ele>380.20000000000005</ele><time>2026-04-09T07:20:58.086Z</time></trkpt><trkpt lat="40.9998083" lon="14.817425"><ele>382.0</ele><time>2026-04-09T07:20:59.086Z</time></trkpt><trkpt lat="40.9998417" lon="14.8172967"><ele>383.40000000000003</ele><time>2026-04-09T07:21:00.086Z</time></trkpt><trkpt lat="40.9998667" lon="14.8171617"><ele>384.8</ele><time>2026-04-09T07:21:01.086Z</time></trkpt><trkpt lat="40.9998917" lon="14.8170367"><ele>386.2</ele><time>2026-04-09T07:21:02.086Z</time></trkpt><trkpt lat="40.9999167" lon="14.8169183"><ele>387.6</ele><time>2026-04-09T07:21:03.086Z</time></trkpt><trkpt lat="40.999945" lon="14.8167917"><ele>389.0</ele><time>2026-04-09T07:21:04.086Z</time></trkpt><trkpt lat="40.9999683" lon="14.8166467"><ele>389.79999999999995</ele><time>2026-04-09T07:21:05.086Z</time></trkpt><trkpt lat="40.9999817" lon="14.8164967"><ele>390.59999999999997</ele><time>2026-04-09T07:21:06.086Z</time></trkpt><trkpt lat="40.9999917" lon="14.8163483"><ele>391.4</ele><time>2026-04-09T07:21:07.086Z</time></trkpt><trkpt lat="41.0000033" lon="14.8162067"><ele>392.2</ele><time>2026-04-09T07:21:08.086Z</time></trkpt><trkpt lat="41.00001" lon="14.8160733"><ele>393.0</ele><time>2026-04-09T07:21:09.086Z</time></trkpt><trkpt lat="41.0000167" lon="14.81594"><ele>393.0</ele><time>2026-04-09T07:21:10.086Z</time></trkpt><trkpt lat="41.0000217" lon="14.8157917"><ele>393.0</ele><time>2026-04-09T07:21:11.086Z</time></trkpt><trkpt lat="41.0000317" lon="14.8156383"><ele>393.0</ele><time>2026-04-09T07:21:12.086Z</time></trkpt><trkpt lat="41.00004" lon="14.8154833"><ele>393.0</ele><time>2026-04-09T07:21:13.086Z</time></trkpt><trkpt lat="41.0000467" lon="14.815335"><ele>393.0</ele><time>2026-04-09T07:21:14.086Z</time></trkpt><trkpt lat="41.0000533" lon="14.8151867"><ele>393.0</ele><time>2026-04-09T07:21:15.086Z</time></trkpt><trkpt lat="41.0000583" lon="14.8150467"><ele>393.0</ele><time>2026-04-09T07:21:16.086Z</time></trkpt><trkpt lat="41.00007" lon="14.8149067"><ele>393.0</ele><time>2026-04-09T07:21:17.086Z</time></trkpt><trkpt lat="41.000095" lon="14.814775"><ele>393.0</ele><time>2026-04-09T07:21:18.086Z</time></trkpt><trkpt lat="41.000145" lon="14.8146367"><ele>393.0</ele><time>2026-04-09T07:21:19.086Z</time></trkpt><trkpt lat="41.000215" lon="14.81451"><ele>393.0</ele><time>2026-04-09T07:21:20.086Z</time></trkpt><trkpt lat="41.0002933" lon="14.814395"><ele>393.0</ele><time>2026-04-09T07:21:21.086Z</time></trkpt><trkpt lat="41.00038" lon="14.8142967"><ele>393.0</ele><time>2026-04-09T07:21:22.086Z</time></trkpt><trkpt lat="41.0004683" lon="14.8142067"><ele>391.25</ele><time>2026-04-09T07:21:23.086Z</time></trkpt><trkpt lat="41.0005633" lon="14.81412"><ele>389.5</ele><time>2026-04-09T07:21:24.086Z</time></trkpt><trkpt lat="41.0006783" lon="14.8140467"><ele>387.75</ele><time>2026-04-09T07:21:25.086Z</time></trkpt><trkpt lat="41.0008033" lon="14.81398"><ele>386.0</ele><time>2026-04-09T07:21:26.086Z</time></trkpt><trkpt lat="41.000925" lon="14.8139233"><ele>384.0</ele><time>2026-04-09T07:21:27.086Z</time></trkpt><trkpt lat="41.00105" lon="14.8138633"><ele>382.0</ele><time>2026-04-09T07:21:28.086Z</time></trkpt><trkpt lat="41.0011767" lon="14.8138083"><ele>380.0</ele><time>2026-04-09T07:21:29.086Z</time></trkpt><trkpt lat="41.0013033" lon="14.8137517"><ele>378.0</ele><time>2026-04-09T07:21:30.086Z</time></trkpt><trkpt lat="41.001415" lon="14.8136817"><ele>378.0</ele><time>2026-04-09T07:21:31.086Z</time></trkpt><trkpt lat="41.0015167" lon="14.8136"><ele>378.0</ele><time>2026-04-09T07:21:32.086Z</time></trkpt><trkpt lat="41.0016083" lon="14.81351"><ele>378.0</ele><time>2026-04-09T07:21:33.086Z</time></trkpt><trkpt lat="41.0016883" lon="14.8134083"><ele>378.0</ele><time>2026-04-09T07:21:34.086Z</time></trkpt><trkpt lat="41.0017483" lon="14.81329"><ele>375.0</ele><time>2026-04-09T07:21:35.086Z</time></trkpt><trkpt lat="41.0017983" lon="14.813145"><ele>372.0</ele><time>2026-04-09T07:21:36.086Z</time></trkpt><trkpt lat="41.0018267" lon="14.8129867"><ele>369.0</ele><time>2026-04-09T07:21:37.086Z</time></trkpt><trkpt lat="41.0018367" lon="14.81282"><ele>366.0</ele><time>2026-04-09T07:21:38.086Z</time></trkpt><trkpt lat="41.0018417" lon="14.81265"><ele>365.20000000000005</ele><time>2026-04-09T07:21:39.086Z</time></trkpt><trkpt lat="41.00185" lon="14.8124967"><ele>364.40000000000003</ele><time>2026-04-09T07:21:40.086Z</time></trkpt><trkpt lat="41.00186" lon="14.8123517"><ele>363.6</ele><time>2026-04-09T07:21:41.086Z</time></trkpt><trkpt lat="41.0018583" lon="14.8122267"><ele>362.8</ele><time>2026-04-09T07:21:42.086Z</time></trkpt><trkpt lat="41.001845" lon="14.812105"><ele>362.0</ele><time>2026-04-09T07:21:43.086Z</time></trkpt><trkpt lat="41.0018167" lon="14.8120067"><ele>362.0</ele><time>2026-04-09T07:21:44.086Z</time></trkpt><trkpt lat="41.00176" lon="14.8119417"><ele>362.0</ele><time>2026-04-09T07:21:45.086Z</time></trkpt><trkpt lat="41.00167" lon="14.8119133"><ele>362.0</ele><time>2026-04-09T07:21:46.086Z</time></trkpt><trkpt lat="41.001545" lon="14.8119017"><ele>362.0</ele><time>2026-04-09T07:21:47.086Z</time></trkpt><trkpt lat="41.0014067" lon="14.811895"><ele>362.0</ele><time>2026-04-09T07:21:48.086Z</time></trkpt><trkpt lat="41.0012717" lon="14.8118767"><ele>361.75</ele><time>2026-04-09T07:21:49.086Z</time></trkpt><trkpt lat="41.0011433" lon="14.8118567"><ele>361.5</ele><time>2026-04-09T07:21:50.086Z</time></trkpt><trkpt lat="41.0010233" lon="14.8118367"><ele>361.25</ele><time>2026-04-09T07:21:51.086Z</time></trkpt><trkpt lat="41.000905" lon="14.8118217"><ele>361.0</ele><time>2026-04-09T07:21:52.086Z</time></trkpt><trkpt lat="41.0007967" lon="14.8118033"><ele>360.8333333333333</ele><time>2026-04-09T07:21:53.086Z</time></trkpt><trkpt lat="41.0007" lon="14.811785"><ele>360.66666666666663</ele><time>2026-04-09T07:21:54.086Z</time></trkpt><trkpt lat="41.00061" lon="14.811765"><ele>360.5</ele><time>2026-04-09T07:21:55.086Z</time></trkpt><trkpt lat="41.00053" lon="14.8117367"><ele>360.3333333333333</ele><time>2026-04-09T07:21:56.086Z</time></trkpt><trkpt lat="41.0004617" lon="14.8116883"><ele>360.1666666666667</ele><time>2026-04-09T07:21:57.086Z</time></trkpt><trkpt lat="41.0004067" lon="14.8116217"><ele>360.0</ele><time>2026-04-09T07:21:58.086Z</time></trkpt><trkpt lat="41.0003667" lon="14.8115317"><ele>360.0</ele><time>2026-04-09T07:21:59.086Z</time></trkpt><trkpt lat="41.00036" lon="14.811415"><ele>360.0</ele><time>2026-04-09T07:22:00.086Z</time></trkpt><trkpt lat="41.0003717" lon="14.8112783"><ele>360.0</ele><time>2026-04-09T07:22:01.086Z</time></trkpt><trkpt lat="41.0003967" lon="14.81113"><ele>360.0</ele><time>2026-04-09T07:22:02.086Z</time></trkpt><trkpt lat="41.0004117" lon="14.8109583"><ele>360.0</ele><time>2026-04-09T07:22:03.086Z</time></trkpt><trkpt lat="41.000435" lon="14.81078"><ele>358.0</ele><time>2026-04-09T07:22:04.086Z</time></trkpt><trkpt lat="41.00045" lon="14.8106033"><ele>356.0</ele><time>2026-04-09T07:22:05.086Z</time></trkpt><trkpt lat="41.0004467" lon="14.8104167"><ele>354.0</ele><time>2026-04-09T07:22:06.086Z</time></trkpt><trkpt lat="41.0004333" lon="14.8102267"><ele>352.0</ele><time>2026-04-09T07:22:07.086Z</time></trkpt><trkpt lat="41.00041" lon="14.810045"><ele>351.75</ele><time>2026-04-09T07:22:08.086Z</time></trkpt><trkpt lat="41.0003717" lon="14.80987"><ele>351.5</ele><time>2026-04-09T07:22:09.086Z</time></trkpt><trkpt lat="41.0003333" lon="14.8096983"><ele>351.25</ele><time>2026-04-09T07:22:10.086Z</time></trkpt><trkpt lat="41.0002983" lon="14.80953"><ele>351.0</ele><time>2026-04-09T07:22:11.086Z</time></trkpt><trkpt lat="41.0002533" lon="14.8093733"><ele>352.5</ele><time>2026-04-09T07:22:12.086Z</time></trkpt><trkpt lat="41.0002" lon="14.8092183"><ele>354.0</ele><time>2026-04-09T07:22:13.086Z</time></trkpt><trkpt lat="41.00014" lon="14.80907"><ele>355.5</ele><time>2026-04-09T07:22:14.086Z</time></trkpt><trkpt lat="41.00007" lon="14.80893"><ele>357.0</ele><time>2026-04-09T07:22:15.086Z</time></trkpt><trkpt lat="41.0" lon="14.8087867"><ele>357.0</ele><time>2026-04-09T07:22:16.086Z</time></trkpt><trkpt lat="40.9999267" lon="14.8086483"><ele>357.0</ele><time>2026-04-09T07:22:17.086Z</time></trkpt><trkpt lat="40.99986" lon="14.80851"><ele>357.0</ele><time>2026-04-09T07:22:18.086Z</time></trkpt><trkpt lat="40.999785" lon="14.80837"><ele>357.0</ele><time>2026-04-09T07:22:19.086Z</time></trkpt><trkpt lat="40.9997067" lon="14.808235"><ele>358.8</ele><time>2026-04-09T07:22:20.086Z</time></trkpt><trkpt lat="40.999635" lon="14.8081117"><ele>360.6</ele><time>2026-04-09T07:22:21.086Z</time></trkpt><trkpt lat="40.99957" lon="14.8079933"><ele>362.40000000000003</ele><time>2026-04-09T07:22:22.086Z</time></trkpt><trkpt lat="40.9995133" lon="14.8078883"><ele>364.20000000000005</ele><time>2026-04-09T07:22:23.086Z</time></trkpt><trkpt lat="40.999475" lon="14.8077917"><ele>366.0</ele><time>2026-04-09T07:22:24.086Z</time></trkpt><trkpt lat="40.9994583" lon="14.8077"><ele>367.6666666666667</ele><time>2026-04-09T07:22:25.086Z</time></trkpt><trkpt lat="40.99947" lon="14.8076"><ele>369.3333333333333</ele><time>2026-04-09T07:22:26.086Z</time></trkpt><trkpt lat="40.9995067" lon="14.807515"><ele>371.0</ele><time>2026-04-09T07:22:27.086Z</time></trkpt><trkpt lat="40.9995667" lon="14.8074383"><ele>372.66666666666663</ele><time>2026-04-09T07:22:28.086Z</time></trkpt><trkpt lat="40.9996467" lon="14.8073883"><ele>374.3333333333333</ele><time>2026-04-09T07:22:29.086Z</time></trkpt><trkpt lat="40.9997383" lon="14.8073433"><ele>376.0</ele><time>2026-04-09T07:22:30.086Z</time></trkpt><trkpt lat="40.9998417" lon="14.8072867"><ele>376.0</ele><time>2026-04-09T07:22:31.086Z</time></trkpt><trkpt lat="40.9999433" lon="14.8072133"><ele>376.0</ele><time>2026-04-09T07:22:32.086Z</time></trkpt><trkpt lat="41.0000233" lon="14.807115"><ele>376.0</ele><time>2026-04-09T07:22:33.086Z</time></trkpt><trkpt lat="41.0000883" lon="14.8069983"><ele>376.0</ele><time>2026-04-09T07:22:34.086Z</time></trkpt><trkpt lat="41.0001517" lon="14.8068767"><ele>376.0</ele><time>2026-04-09T07:22:35.086Z</time></trkpt><trkpt lat="41.000215" lon="14.806745"><ele>378.0</ele><time>2026-04-09T07:22:36.086Z</time></trkpt><trkpt lat="41.0002867" lon="14.806595"><ele>380.0</ele><time>2026-04-09T07:22:37.086Z</time></trkpt><trkpt lat="41.0003533" lon="14.8064367"><ele>382.0</ele><time>2026-04-09T07:22:38.086Z</time></trkpt><trkpt lat="41.000415" lon="14.8062683"><ele>384.0</ele><time>2026-04-09T07:22:39.086Z</time></trkpt><trkpt lat="41.0004633" lon="14.806095"><ele>387.0</ele><time>2026-04-09T07:22:40.086Z</time></trkpt><trkpt lat="41.000505" lon="14.8059283"><ele>390.0</ele><time>2026-04-09T07:22:41.086Z</time></trkpt><trkpt lat="41.0005467" lon="14.80578"><ele>393.0</ele><time>2026-04-09T07:22:42.086Z</time></trkpt><trkpt lat="41.0005917" lon="14.8056383"><ele>396.0</ele><time>2026-04-09T07:22:43.086Z</time></trkpt><trkpt lat="41.0006367" lon="14.8055033"><ele>396.0</ele><time>2026-04-09T07:22:44.086Z</time></trkpt><trkpt lat="41.0006867" lon="14.80537"><ele>396.0</ele><time>2026-04-09T07:22:45.086Z</time></trkpt><trkpt lat="41.0007383" lon="14.8052517"><ele>396.0</ele><time>2026-04-09T07:22:46.086Z</time></trkpt><trkpt lat="41.0007883" lon="14.8051367"><ele>396.0</ele><time>2026-04-09T07:22:47.086Z</time></trkpt><trkpt lat="41.0008433" lon="14.8050183"><ele>396.0</ele><time>2026-04-09T07:22:48.086Z</time></trkpt><trkpt lat="41.0009167" lon="14.8048967"><ele>393.0</ele><time>2026-04-09T07:22:49.086Z</time></trkpt><trkpt lat="41.0009883" lon="14.8047667"><ele>390.0</ele><time>2026-04-09T07:22:50.086Z</time></trkpt><trkpt lat="41.0010567" lon="14.8046383"><ele>387.0</ele><time>2026-04-09T07:22:51.086Z</time></trkpt><trkpt lat="41.00113" lon="14.804505"><ele>384.0</ele><time>2026-04-09T07:22:52.086Z</time></trkpt><trkpt lat="41.0011983" lon="14.804365"><ele>383.5</ele><time>2026-04-09T07:22:53.086Z</time></trkpt><trkpt lat="41.0012633" lon="14.80422"><ele>383.0</ele><time>2026-04-09T07:22:54.086Z</time></trkpt><trkpt lat="41.0013317" lon="14.804075"><ele>382.5</ele><time>2026-04-09T07:22:55.086Z</time></trkpt><trkpt lat="41.0013983" lon="14.803925"><ele>382.0</ele><time>2026-04-09T07:22:56.086Z</time></trkpt><trkpt lat="41.0014667" lon="14.8037767"><ele>382.0</ele><time>2026-04-09T07:22:57.086Z</time></trkpt><trkpt lat="41.0015383" lon="14.8036233"><ele>382.0</ele><time>2026-04-09T07:22:58.086Z</time></trkpt><trkpt lat="41.00161" lon="14.80347"><ele>382.0</ele><time>2026-04-09T07:22:59.086Z</time></trkpt><trkpt lat="41.0016733" lon="14.8033183"><ele>382.0</ele><time>2026-04-09T07:23:00.086Z</time></trkpt><trkpt lat="41.0017383" lon="14.803165"><ele>383.0</ele><time>2026-04-09T07:23:01.086Z</time></trkpt><trkpt lat="41.00181" lon="14.80301"><ele>384.0</ele><time>2026-04-09T07:23:02.086Z</time></trkpt><trkpt lat="41.001885" lon="14.80286"><ele>385.0</ele><time>2026-04-09T07:23:03.086Z</time></trkpt><trkpt lat="41.0019617" lon="14.802725"><ele>386.0</ele><time>2026-04-09T07:23:04.086Z</time></trkpt><trkpt lat="41.0020483" lon="14.802605"><ele>386.0</ele><time>2026-04-09T07:23:05.086Z</time></trkpt><trkpt lat="41.00215" lon="14.8025017"><ele>386.0</ele><time>2026-04-09T07:23:06.086Z</time></trkpt><trkpt lat="41.00226" lon="14.8024067"><ele>386.0</ele><time>2026-04-09T07:23:07.086Z</time></trkpt><trkpt lat="41.002375" lon="14.802335"><ele>386.0</ele><time>2026-04-09T07:23:08.086Z</time></trkpt><trkpt lat="41.0024967" lon="14.8022917"><ele>384.20000000000005</ele><time>2026-04-09T07:23:09.086Z</time></trkpt><trkpt lat="41.0026083" lon="14.8022567"><ele>382.40000000000003</ele><time>2026-04-09T07:23:10.086Z</time></trkpt><trkpt lat="41.00271" lon="14.8022133"><ele>380.6</ele><time>2026-04-09T07:23:11.086Z</time></trkpt><trkpt lat="41.0028133" lon="14.8021583"><ele>378.8</ele><time>2026-04-09T07:23:12.086Z</time></trkpt><trkpt lat="41.0028933" lon="14.8020833"><ele>377.0</ele><time>2026-04-09T07:23:13.086Z</time></trkpt><trkpt lat="41.002975" lon="14.80198"><ele>377.0</ele><time>2026-04-09T07:23:14.086Z</time></trkpt><trkpt lat="41.0030483" lon="14.8018617"><ele>377.0</ele><time>2026-04-09T07:23:15.086Z</time></trkpt><trkpt lat="41.0031217" lon="14.801735"><ele>377.0</ele><time>2026-04-09T07:23:16.086Z</time></trkpt><trkpt lat="41.0031967" lon="14.80163"><ele>377.0</ele><time>2026-04-09T07:23:17.086Z</time></trkpt><trkpt lat="41.00327" lon="14.8015483"><ele>377.0</ele><time>2026-04-09T07:23:18.086Z</time></trkpt><trkpt lat="41.003345" lon="14.801485"><ele>379.0</ele><time>2026-04-09T07:23:19.086Z</time></trkpt><trkpt lat="41.0034333" lon="14.8014667"><ele>381.0</ele><time>2026-04-09T07:23:20.086Z</time></trkpt><trkpt lat="41.0035283" lon="14.80147"><ele>383.0</ele><time>2026-04-09T07:23:21.086Z</time></trkpt><trkpt lat="41.0036267" lon="14.8015017"><ele>385.0</ele><time>2026-04-09T07:23:22.086Z</time></trkpt><trkpt lat="41.0037283" lon="14.8015367"><ele>387.0</ele><time>2026-04-09T07:23:23.086Z</time></trkpt><trkpt lat="41.0038083" lon="14.8015617"><ele>387.0</ele><time>2026-04-09T07:23:24.086Z</time></trkpt><trkpt lat="41.0038783" lon="14.8015683"><ele>387.0</ele><time>2026-04-09T07:23:25.086Z</time></trkpt><trkpt lat="41.0039833" lon="14.8014533"><ele>387.0</ele><time>2026-04-09T07:23:27.086Z</time></trkpt><trkpt lat="41.004025" lon="14.80135"><ele>387.0</ele><time>2026-04-09T07:23:28.086Z</time></trkpt><trkpt lat="41.0040617" lon="14.8012183"><ele>387.0</ele><time>2026-04-09T07:23:29.086Z</time></trkpt><trkpt lat="41.0040917" lon="14.8010567"><ele>388.5</ele><time>2026-04-09T07:23:30.086Z</time></trkpt><trkpt lat="41.0041333" lon="14.8008933"><ele>390.0</ele><time>2026-04-09T07:23:31.086Z</time></trkpt><trkpt lat="41.004175" lon="14.800745"><ele>391.5</ele><time>2026-04-09T07:23:32.086Z</time></trkpt><trkpt lat="41.0042267" lon="14.8006083"><ele>393.0</ele><time>2026-04-09T07:23:33.086Z</time></trkpt><trkpt lat="41.0042833" lon="14.8004717"><ele>393.0</ele><time>2026-04-09T07:23:34.086Z</time></trkpt><trkpt lat="41.004345" lon="14.800345"><ele>393.0</ele><time>2026-04-09T07:23:35.086Z</time></trkpt><trkpt lat="41.0044117" lon="14.800225"><ele>393.0</ele><time>2026-04-09T07:23:36.086Z</time></trkpt><trkpt lat="41.004475" lon="14.8000983"><ele>393.0</ele><time>2026-04-09T07:23:37.086Z</time></trkpt><trkpt lat="41.0045333" lon="14.799975"><ele>393.0</ele><time>2026-04-09T07:23:38.086Z</time></trkpt><trkpt lat="41.00458" lon="14.7998467"><ele>393.0</ele><time>2026-04-09T07:23:39.086Z</time></trkpt><trkpt lat="41.004615" lon="14.7997233"><ele>393.0</ele><time>2026-04-09T07:23:40.086Z</time></trkpt><trkpt lat="41.0046367" lon="14.799595"><ele>393.0</ele><time>2026-04-09T07:23:41.086Z</time></trkpt><trkpt lat="41.0046467" lon="14.79946"><ele>393.0</ele><time>2026-04-09T07:23:42.086Z</time></trkpt><trkpt lat="41.0046417" lon="14.7993167"><ele>392.0</ele><time>2026-04-09T07:23:43.086Z</time></trkpt><trkpt lat="41.0046333" lon="14.7991733"><ele>391.0</ele><time>2026-04-09T07:23:44.086Z</time></trkpt><trkpt lat="41.00462" lon="14.7990417"><ele>390.0</ele><time>2026-04-09T07:23:45.086Z</time></trkpt><trkpt lat="41.004605" lon="14.7989033"><ele>389.0</ele><time>2026-04-09T07:23:46.086Z</time></trkpt><trkpt lat="41.0045933" lon="14.7987517"><ele>388.0</ele><time>2026-04-09T07:23:47.086Z</time></trkpt><trkpt lat="41.00459" lon="14.7985933"><ele>387.5</ele><time>2026-04-09T07:23:48.086Z</time></trkpt><trkpt lat="41.004595" lon="14.7984417"><ele>387.0</ele><time>2026-04-09T07:23:49.086Z</time></trkpt><trkpt lat="41.004615" lon="14.7982783"><ele>386.5</ele><time>2026-04-09T07:23:50.086Z</time></trkpt><trkpt lat="41.0046583" lon="14.798115"><ele>386.0</ele><time>2026-04-09T07:23:51.086Z</time></trkpt><trkpt lat="41.004705" lon="14.7979633"><ele>386.0</ele><time>2026-04-09T07:23:52.086Z</time></trkpt><trkpt lat="41.0047533" lon="14.7978183"><ele>386.0</ele><time>2026-04-09T07:23:53.086Z</time></trkpt><trkpt lat="41.0047967" lon="14.7976767"><ele>386.0</ele><time>2026-04-09T07:23:54.086Z</time></trkpt><trkpt lat="41.0048433" lon="14.7975233"><ele>386.0</ele><time>2026-04-09T07:23:55.086Z</time></trkpt><trkpt lat="41.0048817" lon="14.7973617"><ele>385.75</ele><time>2026-04-09T07:23:56.086Z</time></trkpt><trkpt lat="41.0049133" lon="14.7971983"><ele>385.5</ele><time>2026-04-09T07:23:57.086Z</time></trkpt><trkpt lat="41.004935" lon="14.7970333"><ele>385.25</ele><time>2026-04-09T07:23:58.086Z</time></trkpt><trkpt lat="41.0049467" lon="14.79687"><ele>385.0</ele><time>2026-04-09T07:23:59.086Z</time></trkpt><trkpt lat="41.0049533" lon="14.7967167"><ele>385.0</ele><time>2026-04-09T07:24:00.086Z</time></trkpt><trkpt lat="41.0049617" lon="14.7965733"><ele>385.0</ele><time>2026-04-09T07:24:01.086Z</time></trkpt><trkpt lat="41.0049867" lon="14.7964367"><ele>385.0</ele><time>2026-04-09T07:24:02.086Z</time></trkpt><trkpt lat="41.00503" lon="14.796305"><ele>385.0</ele><time>2026-04-09T07:24:03.086Z</time></trkpt><trkpt lat="41.005095" lon="14.7961817"><ele>385.0</ele><time>2026-04-09T07:24:04.086Z</time></trkpt><trkpt lat="41.005175" lon="14.7960633"><ele>384.6</ele><time>2026-04-09T07:24:05.086Z</time></trkpt><trkpt lat="41.0052583" lon="14.795955"><ele>384.2</ele><time>2026-04-09T07:24:06.086Z</time></trkpt><trkpt lat="41.0053367" lon="14.7958517"><ele>383.79999999999995</ele><time>2026-04-09T07:24:07.086Z</time></trkpt><trkpt lat="41.00541" lon="14.7957617"><ele>383.4</ele><time>2026-04-09T07:24:08.086Z</time></trkpt><trkpt lat="41.005475" lon="14.7956867"><ele>383.0</ele><time>2026-04-09T07:24:09.086Z</time></trkpt><trkpt lat="41.0055317" lon="14.79561"><ele>383.0</ele><time>2026-04-09T07:24:10.086Z</time></trkpt><trkpt lat="41.005585" lon="14.7955383"><ele>383.0</ele><time>2026-04-09T07:24:11.086Z</time></trkpt><trkpt lat="41.0056483" lon="14.79547"><ele>383.0</ele><time>2026-04-09T07:24:12.086Z</time></trkpt><trkpt lat="41.0057083" lon="14.7954"><ele>383.0</ele><time>2026-04-09T07:24:13.086Z</time></trkpt><trkpt lat="41.0057717" lon="14.7953317"><ele>383.0</ele><time>2026-04-09T07:24:14.086Z</time></trkpt><trkpt lat="41.005845" lon="14.795265"><ele>383.0</ele><time>2026-04-09T07:24:15.086Z</time></trkpt><trkpt lat="41.0059267" lon="14.7951983"><ele>380.75</ele><time>2026-04-09T07:24:16.086Z</time></trkpt><trkpt lat="41.0060133" lon="14.795125"><ele>378.5</ele><time>2026-04-09T07:24:17.086Z</time></trkpt><trkpt lat="41.0061117" lon="14.7950433"><ele>376.25</ele><time>2026-04-09T07:24:18.086Z</time></trkpt><trkpt lat="41.006215" lon="14.7949567"><ele>374.0</ele><time>2026-04-09T07:24:19.086Z</time></trkpt><trkpt lat="41.0063167" lon="14.7948617"><ele>374.0</ele><time>2026-04-09T07:24:20.086Z</time></trkpt><trkpt lat="41.0064133" lon="14.7947817"><ele>374.0</ele><time>2026-04-09T07:24:21.086Z</time></trkpt><trkpt lat="41.006515" lon="14.7947017"><ele>374.0</ele><time>2026-04-09T07:24:22.086Z</time></trkpt><trkpt lat="41.006615" lon="14.794615"><ele>374.0</ele><time>2026-04-09T07:24:23.086Z</time></trkpt><trkpt lat="41.0067067" lon="14.7945317"><ele>373.5</ele><time>2026-04-09T07:24:24.086Z</time></trkpt><trkpt lat="41.0067917" lon="14.7944533"><ele>373.0</ele><time>2026-04-09T07:24:25.086Z</time></trkpt><trkpt lat="41.0068633" lon="14.79438"><ele>372.5</ele><time>2026-04-09T07:24:26.086Z</time></trkpt><trkpt lat="41.0069167" lon="14.7943017"><ele>372.0</ele><time>2026-04-09T07:24:27.086Z</time></trkpt><trkpt lat="41.0069567" lon="14.7942133"><ele>371.5</ele><time>2026-04-09T07:24:28.086Z</time></trkpt><trkpt lat="41.0069783" lon="14.794115"><ele>371.0</ele><time>2026-04-09T07:24:29.086Z</time></trkpt><trkpt lat="41.00698" lon="14.794005"><ele>371.0</ele><time>2026-04-09T07:24:30.086Z</time></trkpt><trkpt lat="41.00696" lon="14.7939"><ele>371.0</ele><time>2026-04-09T07:24:31.086Z</time></trkpt><trkpt lat="41.006925" lon="14.79379"><ele>371.0</ele><time>2026-04-09T07:24:32.086Z</time></trkpt><trkpt lat="41.00688" lon="14.7936683"><ele>371.0</ele><time>2026-04-09T07:24:33.086Z</time></trkpt><trkpt lat="41.006845" lon="14.7935383"><ele>371.0</ele><time>2026-04-09T07:24:34.086Z</time></trkpt><trkpt lat="41.0068117" lon="14.7934133"><ele>371.0</ele><time>2026-04-09T07:24:35.086Z</time></trkpt><trkpt lat="41.0067783" lon="14.7932917"><ele>371.0</ele><time>2026-04-09T07:24:36.086Z</time></trkpt><trkpt lat="41.00674" lon="14.7931767"><ele>371.0</ele><time>2026-04-09T07:24:37.086Z</time></trkpt><trkpt lat="41.0066933" lon="14.7930783"><ele>371.0</ele><time>2026-04-09T07:24:38.086Z</time></trkpt><trkpt lat="41.0066533" lon="14.792975"><ele>371.0</ele><time>2026-04-09T07:24:39.086Z</time></trkpt><trkpt lat="41.0066217" lon="14.792865"><ele>371.0</ele><time>2026-04-09T07:24:40.086Z</time></trkpt><trkpt lat="41.00661" lon="14.7927467"><ele>371.0</ele><time>2026-04-09T07:24:41.086Z</time></trkpt><trkpt lat="41.006605" lon="14.7926267"><ele>371.0</ele><time>2026-04-09T07:24:42.086Z</time></trkpt><trkpt lat="41.0066067" lon="14.792505"><ele>371.0</ele><time>2026-04-09T07:24:43.086Z</time></trkpt><trkpt lat="41.0065967" lon="14.792395"><ele>371.0</ele><time>2026-04-09T07:24:44.086Z</time></trkpt><trkpt lat="41.0065883" lon="14.7923"><ele>371.0</ele><time>2026-04-09T07:24:45.086Z</time></trkpt><trkpt lat="41.0065733" lon="14.7922117"><ele>370.0</ele><time>2026-04-09T07:24:46.086Z</time></trkpt><trkpt lat="41.0065517" lon="14.7921333"><ele>369.0</ele><time>2026-04-09T07:24:47.086Z</time></trkpt><trkpt lat="41.006505" lon="14.7920117"><ele>368.0</ele><time>2026-04-09T07:24:49.086Z</time></trkpt><trkpt lat="41.0064967" lon="14.791905"><ele>367.0</ele><time>2026-04-09T07:24:51.086Z</time></trkpt><trkpt lat="41.0065517" lon="14.7918167"><ele>366.0</ele><time>2026-04-09T07:24:53.086Z</time></trkpt><trkpt lat="41.0066583" lon="14.7917517"><ele>365.0</ele><time>2026-04-09T07:24:55.086Z</time></trkpt><trkpt lat="41.006725" lon="14.79172"><ele>364.0</ele><time>2026-04-09T07:24:56.087Z</time></trkpt><trkpt lat="41.006805" lon="14.7916667"><ele>363.0</ele><time>2026-04-09T07:24:57.086Z</time></trkpt><trkpt lat="41.00688" lon="14.791615"><ele>362.0</ele><time>2026-04-09T07:24:58.086Z</time></trkpt><trkpt lat="41.006945" lon="14.7915683"><ele>361.0</ele><time>2026-04-09T07:24:59.086Z</time></trkpt><trkpt lat="41.0070067" lon="14.7915317"><ele>360.0</ele><time>2026-04-09T07:25:00.086Z</time></trkpt><trkpt lat="41.0071167" lon="14.7914617"><ele>360.0</ele><time>2026-04-09T07:25:02.086Z</time></trkpt><trkpt lat="41.0071833" lon="14.7914483"><ele>360.0</ele><time>2026-04-09T07:25:03.086Z</time></trkpt><trkpt lat="41.0072517" lon="14.7914467"><ele>360.0</ele><time>2026-04-09T07:25:04.086Z</time></trkpt><trkpt lat="41.0073183" lon="14.7914517"><ele>360.0</ele><time>2026-04-09T07:25:05.086Z</time></trkpt><trkpt lat="41.007445" lon="14.7914883"><ele>360.0</ele><time>2026-04-09T07:25:07.086Z</time></trkpt><trkpt lat="41.0075517" lon="14.791535"><ele>360.0</ele><time>2026-04-09T07:25:09.086Z</time></trkpt><trkpt lat="41.0076733" lon="14.791545"><ele>360.6666666666667</ele><time>2026-04-09T07:25:11.086Z</time></trkpt><trkpt lat="41.0077367" lon="14.791525"><ele>361.3333333333333</ele><time>2026-04-09T07:25:12.087Z</time></trkpt><trkpt lat="41.0078" lon="14.79149"><ele>362.0</ele><time>2026-04-09T07:25:13.086Z</time></trkpt><trkpt lat="41.0078583" lon="14.791445"><ele>362.66666666666663</ele><time>2026-04-09T07:25:14.086Z</time></trkpt><trkpt lat="41.0079133" lon="14.7914017"><ele>363.3333333333333</ele><time>2026-04-09T07:25:15.086Z</time></trkpt><trkpt lat="41.00802" lon="14.7913517"><ele>364.0</ele><time>2026-04-09T07:25:17.086Z</time></trkpt><trkpt lat="41.0081233" lon="14.7913717"><ele>364.0</ele><time>2026-04-09T07:25:19.086Z</time></trkpt><trkpt lat="41.0081783" lon="14.7914333"><ele>364.0</ele><time>2026-04-09T07:25:20.086Z</time></trkpt><trkpt lat="41.008235" lon="14.7915033"><ele>364.0</ele><time>2026-04-09T07:25:21.086Z</time></trkpt><trkpt lat="41.0082933" lon="14.7915717"><ele>364.0</ele><time>2026-04-09T07:25:22.086Z</time></trkpt><trkpt lat="41.0083567" lon="14.7916233"><ele>364.0</ele><time>2026-04-09T07:25:23.086Z</time></trkpt><trkpt lat="41.0084183" lon="14.7916633"><ele>364.0</ele><time>2026-04-09T07:25:24.086Z</time></trkpt><trkpt lat="41.00854" lon="14.79169"><ele>363.5</ele><time>2026-04-09T07:25:26.086Z</time></trkpt><trkpt lat="41.008605" lon="14.7916667"><ele>363.0</ele><time>2026-04-09T07:25:27.086Z</time></trkpt><trkpt lat="41.0086683" lon="14.7916167"><ele>362.5</ele><time>2026-04-09T07:25:28.086Z</time></trkpt><trkpt lat="41.00873" lon="14.7915517"><ele>362.0</ele><time>2026-04-09T07:25:29.086Z</time></trkpt><trkpt lat="41.0088033" lon="14.7914767"><ele>361.5</ele><time>2026-04-09T07:25:30.086Z</time></trkpt><trkpt lat="41.00888" lon="14.791405"><ele>361.0</ele><time>2026-04-09T07:25:31.086Z</time></trkpt><trkpt lat="41.00896" lon="14.7913483"><ele>361.0</ele><time>2026-04-09T07:25:32.086Z</time></trkpt><trkpt lat="41.009045" lon="14.7912833"><ele>361.0</ele><time>2026-04-09T07:25:33.086Z</time></trkpt><trkpt lat="41.009125" lon="14.7912233"><ele>361.0</ele><time>2026-04-09T07:25:34.086Z</time></trkpt><trkpt lat="41.0092033" lon="14.7911717"><ele>361.0</ele><time>2026-04-09T07:25:35.086Z</time></trkpt><trkpt lat="41.0092767" lon="14.79112"><ele>361.0</ele><time>2026-04-09T07:25:36.086Z</time></trkpt><trkpt lat="41.0093433" lon="14.7910767"><ele>361.0</ele><time>2026-04-09T07:25:37.086Z</time></trkpt><trkpt lat="41.0094033" lon="14.7910333"><ele>358.8</ele><time>2026-04-09T07:25:38.086Z</time></trkpt><trkpt lat="41.0094583" lon="14.7909883"><ele>356.6</ele><time>2026-04-09T07:25:39.086Z</time></trkpt><trkpt lat="41.0095567" lon="14.7909117"><ele>354.4</ele><time>2026-04-09T07:25:41.086Z</time></trkpt><trkpt lat="41.0096467" lon="14.7908083"><ele>352.2</ele><time>2026-04-09T07:25:43.086Z</time></trkpt><trkpt lat="41.0097233" lon="14.790695"><ele>350.0</ele><time>2026-04-09T07:25:45.086Z</time></trkpt><trkpt lat="41.00977" lon="14.7905867"><ele>350.0</ele><time>2026-04-09T07:25:47.086Z</time></trkpt><trkpt lat="41.00983" lon="14.7905067"><ele>350.0</ele><time>2026-04-09T07:25:49.086Z</time></trkpt><trkpt lat="41.00989" lon="14.7904717"><ele>350.0</ele><time>2026-04-09T07:25:51.086Z</time></trkpt><trkpt lat="41.0099683" lon="14.790455"><ele>350.0</ele><time>2026-04-09T07:25:54.086Z</time></trkpt><trkpt lat="41.0100517" lon="14.79046"><ele>350.0</ele><time>2026-04-09T07:25:57.086Z</time></trkpt><trkpt lat="41.01013" lon="14.79054"><ele>350.0</ele><time>2026-04-09T07:25:59.086Z</time></trkpt><trkpt lat="41.01023" lon="14.790615"><ele>344.0</ele><time>2026-04-09T07:26:01.086Z</time></trkpt><trkpt lat="41.01034" lon="14.7906467"><ele>338.0</ele><time>2026-04-09T07:26:03.086Z</time></trkpt><trkpt lat="41.010435" lon="14.79068"><ele>332.0</ele><time>2026-04-09T07:26:05.086Z</time></trkpt><trkpt lat="41.0105067" lon="14.7907133"><ele>326.0</ele><time>2026-04-09T07:26:07.086Z</time></trkpt><trkpt lat="41.0105883" lon="14.7907183"><ele>320.0</ele><time>2026-04-09T07:26:09.086Z</time></trkpt><trkpt lat="41.0106917" lon="14.7906667"><ele>320.0</ele><time>2026-04-09T07:26:11.086Z</time></trkpt><trkpt lat="41.0107467" lon="14.790625"><ele>320.0</ele><time>2026-04-09T07:26:12.086Z</time></trkpt><trkpt lat="41.0108033" lon="14.790575"><ele>320.0</ele><time>2026-04-09T07:26:13.086Z</time></trkpt><trkpt lat="41.0108617" lon="14.7905283"><ele>320.0</ele><time>2026-04-09T07:26:14.086Z</time></trkpt><trkpt lat="41.0109217" lon="14.7904867"><ele>320.0</ele><time>2026-04-09T07:26:15.086Z</time></trkpt><trkpt lat="41.0109817" lon="14.7904517"><ele>320.0</ele><time>2026-04-09T07:26:16.086Z</time></trkpt><trkpt lat="41.0110433" lon="14.7904167"><ele>320.0</ele><time>2026-04-09T07:26:17.086Z</time></trkpt><trkpt lat="41.0111067" lon="14.7903817"><ele>317.5</ele><time>2026-04-09T07:26:18.086Z</time></trkpt><trkpt lat="41.0111767" lon="14.7903383"><ele>315.0</ele><time>2026-04-09T07:26:19.086Z</time></trkpt><trkpt lat="41.01125" lon="14.7902833"><ele>312.5</ele><time>2026-04-09T07:26:20.086Z</time></trkpt><trkpt lat="41.0113217" lon="14.7902217"><ele>310.0</ele><time>2026-04-09T07:26:21.086Z</time></trkpt><trkpt lat="41.0113917" lon="14.790155"><ele>307.5</ele><time>2026-04-09T07:26:22.086Z</time></trkpt><trkpt lat="41.011455" lon="14.7900867"><ele>305.0</ele><time>2026-04-09T07:26:23.086Z</time></trkpt><trkpt lat="41.0115183" lon="14.79002"><ele>303.6666666666667</ele><time>2026-04-09T07:26:24.086Z</time></trkpt><trkpt lat="41.0115733" lon="14.78995"><ele>302.33333333333337</ele><time>2026-04-09T07:26:25.086Z</time></trkpt><trkpt lat="41.0116317" lon="14.7898817"><ele>301.0</ele><time>2026-04-09T07:26:26.086Z</time></trkpt><trkpt lat="41.0116917" lon="14.7898117"><ele>299.6666666666667</ele><time>2026-04-09T07:26:27.086Z</time></trkpt><trkpt lat="41.0117467" lon="14.7897433"><ele>298.3333333333333</ele><time>2026-04-09T07:26:28.086Z</time></trkpt><trkpt lat="41.0118" lon="14.78968"><ele>297.0</ele><time>2026-04-09T07:26:29.086Z</time></trkpt><trkpt lat="41.0118533" lon="14.789615"><ele>294.5</ele><time>2026-04-09T07:26:30.086Z</time></trkpt><trkpt lat="41.01194" lon="14.7895067"><ele>292.0</ele><time>2026-04-09T07:26:32.086Z</time></trkpt><trkpt lat="41.0119933" lon="14.7894533"><ele>289.5</ele><time>2026-04-09T07:26:33.086Z</time></trkpt><trkpt lat="41.012045" lon="14.7894017"><ele>287.0</ele><time>2026-04-09T07:26:34.086Z</time></trkpt><trkpt lat="41.0121017" lon="14.78935"><ele>284.5</ele><time>2026-04-09T07:26:35.086Z</time></trkpt><trkpt lat="41.0121633" lon="14.789305"><ele>282.0</ele><time>2026-04-09T07:26:36.086Z</time></trkpt><trkpt lat="41.012225" lon="14.7892583"><ele>281.0</ele><time>2026-04-09T07:26:37.086Z</time></trkpt><trkpt lat="41.012285" lon="14.789215"><ele>280.0</ele><time>2026-04-09T07:26:38.086Z</time></trkpt><trkpt lat="41.012335" lon="14.7891633"><ele>279.0</ele><time>2026-04-09T07:26:39.086Z</time></trkpt><trkpt lat="41.012435" lon="14.7890683"><ele>278.0</ele><time>2026-04-09T07:26:41.086Z</time></trkpt><trkpt lat="41.0124867" lon="14.789005"><ele>277.0</ele><time>2026-04-09T07:26:42.086Z</time></trkpt><trkpt lat="41.0125417" lon="14.7889317"><ele>276.0</ele><time>2026-04-09T07:26:43.086Z</time></trkpt><trkpt lat="41.0125983" lon="14.7888383"><ele>274.2</ele><time>2026-04-09T07:26:44.086Z</time></trkpt><trkpt lat="41.0126567" lon="14.7887383"><ele>272.40000000000003</ele><time>2026-04-09T07:26:45.086Z</time></trkpt><trkpt lat="41.0127183" lon="14.7886417"><ele>270.6</ele><time>2026-04-09T07:26:46.086Z</time></trkpt><trkpt lat="41.0127783" lon="14.7885533"><ele>268.8</ele><time>2026-04-09T07:26:47.086Z</time></trkpt><trkpt lat="41.012835" lon="14.7884717"><ele>267.0</ele><time>2026-04-09T07:26:48.086Z</time></trkpt><trkpt lat="41.0129017" lon="14.788395"><ele>266.0</ele><time>2026-04-09T07:26:49.086Z</time></trkpt><trkpt lat="41.012965" lon="14.788335"><ele>265.0</ele><time>2026-04-09T07:26:50.086Z</time></trkpt><trkpt lat="41.0130283" lon="14.7882933"><ele>264.0</ele><time>2026-04-09T07:26:51.086Z</time></trkpt><trkpt lat="41.0131417" lon="14.7882433"><ele>263.0</ele><time>2026-04-09T07:26:53.086Z</time></trkpt><trkpt lat="41.0132383" lon="14.7882217"><ele>262.0</ele><time>2026-04-09T07:26:55.086Z</time></trkpt><trkpt lat="41.0132967" lon="14.78819"><ele>261.0</ele><time>2026-04-09T07:26:57.086Z</time></trkpt><trkpt lat="41.01337" lon="14.78811"><ele>259.8</ele><time>2026-04-09T07:26:59.086Z</time></trkpt><trkpt lat="41.0134667" lon="14.7880283"><ele>258.6</ele><time>2026-04-09T07:27:01.086Z</time></trkpt><trkpt lat="41.013575" lon="14.78796"><ele>257.4</ele><time>2026-04-09T07:27:03.086Z</time></trkpt><trkpt lat="41.0136367" lon="14.7879317"><ele>256.2</ele><time>2026-04-09T07:27:04.086Z</time></trkpt><trkpt lat="41.01376" lon="14.7879083"><ele>255.0</ele><time>2026-04-09T07:27:06.086Z</time></trkpt><trkpt lat="41.0138267" lon="14.7879083"><ele>255.0</ele><time>2026-04-09T07:27:07.086Z</time></trkpt><trkpt lat="41.013945" lon="14.7879067"><ele>255.0</ele><time>2026-04-09T07:27:09.086Z</time></trkpt><trkpt lat="41.0140617" lon="14.7878567"><ele>255.0</ele><time>2026-04-09T07:27:11.086Z</time></trkpt><trkpt lat="41.0141583" lon="14.7877633"><ele>255.0</ele><time>2026-04-09T07:27:13.086Z</time></trkpt><trkpt lat="41.01423" lon="14.7876083"><ele>253.0</ele><time>2026-04-09T07:27:15.086Z</time></trkpt><trkpt lat="41.0142467" lon="14.7875167"><ele>251.0</ele><time>2026-04-09T07:27:16.086Z</time></trkpt><trkpt lat="41.0142567" lon="14.7874167"><ele>249.0</ele><time>2026-04-09T07:27:17.086Z</time></trkpt><trkpt lat="41.0142733" lon="14.787325"><ele>247.0</ele><time>2026-04-09T07:27:18.086Z</time></trkpt><trkpt lat="41.0143133" lon="14.78717"><ele>245.0</ele><time>2026-04-09T07:27:20.086Z</time></trkpt><trkpt lat="41.0143417" lon="14.7870933"><ele>243.0</ele><time>2026-04-09T07:27:21.086Z</time></trkpt><trkpt lat="41.0143817" lon="14.787005"><ele>243.0</ele><time>2026-04-09T07:27:22.086Z</time></trkpt><trkpt lat="41.014425" lon="14.786915"><ele>243.0</ele><time>2026-04-09T07:27:23.086Z</time></trkpt><trkpt lat="41.0144683" lon="14.7868183"><ele>243.0</ele><time>2026-04-09T07:27:24.086Z</time></trkpt><trkpt lat="41.0145183" lon="14.7867217"><ele>243.0</ele><time>2026-04-09T07:27:25.086Z</time></trkpt><trkpt lat="41.01456" lon="14.7866333"><ele>243.0</ele><time>2026-04-09T07:27:26.086Z</time></trkpt><trkpt lat="41.0145933" lon="14.786545"><ele>243.0</ele><time>2026-04-09T07:27:27.086Z</time></trkpt><trkpt lat="41.0146217" lon="14.7864467"><ele>242.2</ele><time>2026-04-09T07:27:28.086Z</time></trkpt><trkpt lat="41.0146483" lon="14.7863533"><ele>241.4</ele><time>2026-04-09T07:27:29.086Z</time></trkpt><trkpt lat="41.0146733" lon="14.7862717"><ele>240.59999999999997</ele><time>2026-04-09T07:27:30.086Z</time></trkpt><trkpt lat="41.014715" lon="14.78614"><ele>239.79999999999998</ele><time>2026-04-09T07:27:32.086Z</time></trkpt><trkpt lat="41.0147583" lon="14.786"><ele>239.0</ele><time>2026-04-09T07:27:34.086Z</time></trkpt><trkpt lat="41.014795" lon="14.785845"><ele>238.25</ele><time>2026-04-09T07:27:36.086Z</time></trkpt><trkpt lat="41.0148467" lon="14.785695"><ele>237.5</ele><time>2026-04-09T07:27:38.086Z</time></trkpt><trkpt lat="41.014895" lon="14.7855467"><ele>236.75</ele><time>2026-04-09T07:27:40.086Z</time></trkpt><trkpt lat="41.0149133" lon="14.785405"><ele>236.0</ele><time>2026-04-09T07:27:42.086Z</time></trkpt><trkpt lat="41.0149217" lon="14.7852717"><ele>236.25</ele><time>2026-04-09T07:27:44.086Z</time></trkpt><trkpt lat="41.0149183" lon="14.78513"><ele>236.5</ele><time>2026-04-09T07:27:46.086Z</time></trkpt><trkpt lat="41.0149033" lon="14.7849917"><ele>236.75</ele><time>2026-04-09T07:27:48.086Z</time></trkpt><trkpt lat="41.0148917" lon="14.7848283"><ele>237.0</ele><time>2026-04-09T07:27:50.086Z</time></trkpt><trkpt lat="41.0148833" lon="14.7846733"><ele>237.0</ele><time>2026-04-09T07:27:52.086Z</time></trkpt><trkpt lat="41.0148833" lon="14.78451"><ele>237.0</ele><time>2026-04-09T07:27:54.086Z</time></trkpt><trkpt lat="41.014885" lon="14.7844033"><ele>237.0</ele><time>2026-04-09T07:27:55.086Z</time></trkpt><trkpt lat="41.014885" lon="14.7843"><ele>237.0</ele><time>2026-04-09T07:27:56.086Z</time></trkpt><trkpt lat="41.01489" lon="14.784195"><ele>237.0</ele><time>2026-04-09T07:27:57.086Z</time></trkpt><trkpt lat="41.0148983" lon="14.7840867"><ele>237.0</ele><time>2026-04-09T07:27:58.086Z</time></trkpt><trkpt lat="41.014905" lon="14.783965"><ele>237.0</ele><time>2026-04-09T07:27:59.086Z</time></trkpt><trkpt lat="41.0149167" lon="14.783835"><ele>237.0</ele><time>2026-04-09T07:28:00.086Z</time></trkpt><trkpt lat="41.0149317" lon="14.7837083"><ele>237.0</ele><time>2026-04-09T07:28:01.086Z</time></trkpt><trkpt lat="41.01495" lon="14.7835983"><ele>237.0</ele><time>2026-04-09T07:28:02.086Z</time></trkpt><trkpt lat="41.014965" lon="14.783485"><ele>237.0</ele><time>2026-04-09T07:28:03.086Z</time></trkpt><trkpt lat="41.0149783" lon="14.7833833"><ele>237.0</ele><time>2026-04-09T07:28:04.086Z</time></trkpt><trkpt lat="41.0149967" lon="14.783285"><ele>233.66666666666666</ele><time>2026-04-09T07:28:05.086Z</time></trkpt><trkpt lat="41.0150183" lon="14.78319"><ele>230.33333333333331</ele><time>2026-04-09T07:28:06.086Z</time></trkpt><trkpt lat="41.0150383" lon="14.7830967"><ele>227.0</ele><time>2026-04-09T07:28:07.086Z</time></trkpt><trkpt lat="41.0150567" lon="14.783005"><ele>223.66666666666666</ele><time>2026-04-09T07:28:08.086Z</time></trkpt><trkpt lat="41.0150717" lon="14.7829233"><ele>220.33333333333331</ele><time>2026-04-09T07:28:09.086Z</time></trkpt><trkpt lat="41.0151217" lon="14.78281"><ele>217.0</ele><time>2026-04-09T07:28:11.086Z</time></trkpt><trkpt lat="41.015175" lon="14.7827217"><ele>216.99999999999997</ele><time>2026-04-09T07:28:13.086Z</time></trkpt><trkpt lat="41.015235" lon="14.7826817"><ele>217.0</ele><time>2026-04-09T07:28:15.086Z</time></trkpt><trkpt lat="41.015295" lon="14.782725"><ele>217.0</ele><time>2026-04-09T07:28:17.086Z</time></trkpt><trkpt lat="41.0153267" lon="14.7828567"><ele>217.0</ele><time>2026-04-09T07:28:19.086Z</time></trkpt><trkpt lat="41.015325" lon="14.7829517"><ele>216.99999999999997</ele><time>2026-04-09T07:28:20.086Z</time></trkpt><trkpt lat="41.0153067" lon="14.783065"><ele>217.0</ele><time>2026-04-09T07:28:21.086Z</time></trkpt><trkpt lat="41.01528" lon="14.7831767"><ele>216.99999999999997</ele><time>2026-04-09T07:28:22.086Z</time></trkpt><trkpt lat="41.015255" lon="14.7832867"><ele>217.0</ele><time>2026-04-09T07:28:23.086Z</time></trkpt><trkpt lat="41.0152333" lon="14.7833967"><ele>217.0</ele><time>2026-04-09T07:28:24.086Z</time></trkpt><trkpt lat="41.0152183" lon="14.7835"><ele>217.0</ele><time>2026-04-09T07:28:25.086Z</time></trkpt><trkpt lat="41.0152083" lon="14.783605"><ele>216.99999999999997</ele><time>2026-04-09T07:28:26.086Z</time></trkpt><trkpt lat="41.015205" lon="14.7837183"><ele>217.0</ele><time>2026-04-09T07:28:27.086Z</time></trkpt><trkpt lat="41.0152083" lon="14.783845"><ele>217.16666666666666</ele><time>2026-04-09T07:28:28.086Z</time></trkpt><trkpt lat="41.015215" lon="14.7839733"><ele>217.33333333333331</ele><time>2026-04-09T07:28:29.086Z</time></trkpt><trkpt lat="41.0152233" lon="14.7840867"><ele>217.5</ele><time>2026-04-09T07:28:30.086Z</time></trkpt><trkpt lat="41.0152317" lon="14.7841867"><ele>217.66666666666669</ele><time>2026-04-09T07:28:31.086Z</time></trkpt><trkpt lat="41.0152417" lon="14.7842767"><ele>217.83333333333334</ele><time>2026-04-09T07:28:32.086Z</time></trkpt><trkpt lat="41.0152467" lon="14.7843633"><ele>218.0</ele><time>2026-04-09T07:28:33.086Z</time></trkpt><trkpt lat="41.0152517" lon="14.7844517"><ele>218.16666666666669</ele><time>2026-04-09T07:28:34.086Z</time></trkpt><trkpt lat="41.0152583" lon="14.78454"><ele>218.33333333333334</ele><time>2026-04-09T07:28:35.086Z</time></trkpt><trkpt lat="41.0152917" lon="14.7846617"><ele>218.5</ele><time>2026-04-09T07:28:37.086Z</time></trkpt><trkpt lat="41.01536" lon="14.78467"><ele>218.66666666666669</ele><time>2026-04-09T07:28:39.086Z</time></trkpt><trkpt lat="41.0154317" lon="14.78455"><ele>218.83333333333334</ele><time>2026-04-09T07:28:41.086Z</time></trkpt><trkpt lat="41.0154517" lon="14.7844583"><ele>219.0</ele><time>2026-04-09T07:28:42.086Z</time></trkpt><trkpt lat="41.0154717" lon="14.78437"><ele>218.83333333333334</ele><time>2026-04-09T07:28:43.086Z</time></trkpt><trkpt lat="41.0154967" lon="14.7842767"><ele>218.66666666666669</ele><time>2026-04-09T07:28:44.086Z</time></trkpt><trkpt lat="41.0155183" lon="14.7841817"><ele>218.5</ele><time>2026-04-09T07:28:45.086Z</time></trkpt><trkpt lat="41.0155333" lon="14.7840933"><ele>218.33333333333334</ele><time>2026-04-09T07:28:46.086Z</time></trkpt><trkpt lat="41.01555" lon="14.7840083"><ele>218.16666666666669</ele><time>2026-04-09T07:28:47.086Z</time></trkpt><trkpt lat="41.0155433" lon="14.7838517"><ele>218.0</ele><time>2026-04-09T07:28:49.086Z</time></trkpt><trkpt lat="41.0155283" lon="14.7837583"><ele>218.0</ele><time>2026-04-09T07:28:50.086Z</time></trkpt><trkpt lat="41.0155167" lon="14.783645"><ele>218.0</ele><time>2026-04-09T07:28:51.086Z</time></trkpt><trkpt lat="41.0155083" lon="14.7835183"><ele>218.0</ele><time>2026-04-09T07:28:52.086Z</time></trkpt><trkpt lat="41.0155" lon="14.7833867"><ele>218.0</ele><time>2026-04-09T07:28:53.086Z</time></trkpt><trkpt lat="41.0154967" lon="14.78327"><ele>218.0</ele><time>2026-04-09T07:28:54.086Z</time></trkpt><trkpt lat="41.0154967" lon="14.78316"><ele>217.8</ele><time>2026-04-09T07:28:55.086Z</time></trkpt><trkpt lat="41.015505" lon="14.7830467"><ele>217.60000000000002</ele><time>2026-04-09T07:28:56.086Z</time></trkpt><trkpt lat="41.015525" lon="14.7829317"><ele>217.39999999999998</ele><time>2026-04-09T07:28:57.086Z</time></trkpt><trkpt lat="41.0155533" lon="14.7828067"><ele>217.2</ele><time>2026-04-09T07:28:58.086Z</time></trkpt><trkpt lat="41.0155933" lon="14.7826717"><ele>217.0</ele><time>2026-04-09T07:28:59.086Z</time></trkpt><trkpt lat="41.0156317" lon="14.78253"><ele>217.39999999999998</ele><time>2026-04-09T07:29:00.086Z</time></trkpt><trkpt lat="41.0156717" lon="14.7824"><ele>217.79999999999998</ele><time>2026-04-09T07:29:01.086Z</time></trkpt><trkpt lat="41.015715" lon="14.7822717"><ele>218.2</ele><time>2026-04-09T07:29:02.086Z</time></trkpt><trkpt lat="41.0157583" lon="14.782145"><ele>218.6</ele><time>2026-04-09T07:29:03.086Z</time></trkpt><trkpt lat="41.0157983" lon="14.7820233"><ele>219.0</ele><time>2026-04-09T07:29:04.086Z</time></trkpt><trkpt lat="41.0158267" lon="14.7819067"><ele>219.33333333333334</ele><time>2026-04-09T07:29:05.086Z</time></trkpt><trkpt lat="41.0158367" lon="14.7817917"><ele>219.66666666666669</ele><time>2026-04-09T07:29:06.086Z</time></trkpt><trkpt lat="41.0158283" lon="14.7816983"><ele>220.0</ele><time>2026-04-09T07:29:07.086Z</time></trkpt><trkpt lat="41.0158033" lon="14.7816133"><ele>220.33333333333334</ele><time>2026-04-09T07:29:08.086Z</time></trkpt><trkpt lat="41.0157617" lon="14.7815417"><ele>220.66666666666669</ele><time>2026-04-09T07:29:09.086Z</time></trkpt><trkpt lat="41.0156933" lon="14.7814467"><ele>221.0</ele><time>2026-04-09T07:29:11.086Z</time></trkpt><trkpt lat="41.01563" lon="14.7813733"><ele>221.0</ele><time>2026-04-09T07:29:13.086Z</time></trkpt><trkpt lat="41.0155267" lon="14.7813167"><ele>221.00000000000003</ele><time>2026-04-09T07:29:15.086Z</time></trkpt><trkpt lat="41.0154517" lon="14.7812967"><ele>221.00000000000003</ele><time>2026-04-09T07:29:16.086Z</time></trkpt><trkpt lat="41.0153567" lon="14.7812667"><ele>221.0</ele><time>2026-04-09T07:29:17.086Z</time></trkpt><trkpt lat="41.0152567" lon="14.7812283"><ele>221.0</ele><time>2026-04-09T07:29:18.086Z</time></trkpt><trkpt lat="41.0151733" lon="14.7811683"><ele>221.0</ele><time>2026-04-09T07:29:19.086Z</time></trkpt><trkpt lat="41.01509" lon="14.7810933"><ele>221.0</ele><time>2026-04-09T07:29:20.086Z</time></trkpt><trkpt lat="41.015" lon="14.780985"><ele>221.0</ele><time>2026-04-09T07:29:21.086Z</time></trkpt><trkpt lat="41.0149033" lon="14.7808617"><ele>221.0</ele><time>2026-04-09T07:29:22.086Z</time></trkpt><trkpt lat="41.014815" lon="14.78074"><ele>224.25</ele><time>2026-04-09T07:29:23.086Z</time></trkpt><trkpt lat="41.014735" lon="14.780615"><ele>227.5</ele><time>2026-04-09T07:29:24.086Z</time></trkpt><trkpt lat="41.0146517" lon="14.780485"><ele>230.75</ele><time>2026-04-09T07:29:25.086Z</time></trkpt><trkpt lat="41.0145617" lon="14.7803467"><ele>234.0</ele><time>2026-04-09T07:29:26.086Z</time></trkpt><trkpt lat="41.0144633" lon="14.7802067"><ele>230.75</ele><time>2026-04-09T07:29:27.086Z</time></trkpt><trkpt lat="41.0143817" lon="14.7800667"><ele>227.5</ele><time>2026-04-09T07:29:28.086Z</time></trkpt><trkpt lat="41.0142983" lon="14.77993"><ele>224.25</ele><time>2026-04-09T07:29:29.086Z</time></trkpt><trkpt lat="41.0142167" lon="14.7797883"><ele>221.0</ele><time>2026-04-09T07:29:30.086Z</time></trkpt><trkpt lat="41.0141383" lon="14.7796533"><ele>224.5</ele><time>2026-04-09T07:29:31.086Z</time></trkpt><trkpt lat="41.0140583" lon="14.7795217"><ele>228.0</ele><time>2026-04-09T07:29:32.086Z</time></trkpt><trkpt lat="41.0139817" lon="14.7793867"><ele>231.5</ele><time>2026-04-09T07:29:33.086Z</time></trkpt><trkpt lat="41.0139033" lon="14.77925"><ele>235.0</ele><time>2026-04-09T07:29:34.086Z</time></trkpt><trkpt lat="41.0138167" lon="14.7790983"><ele>235.0</ele><time>2026-04-09T07:29:35.086Z</time></trkpt><trkpt lat="41.0137267" lon="14.778945"><ele>235.0</ele><time>2026-04-09T07:29:36.086Z</time></trkpt><trkpt lat="41.013645" lon="14.7788"><ele>235.0</ele><time>2026-04-09T07:29:37.086Z</time></trkpt><trkpt lat="41.0135667" lon="14.7786717"><ele>235.0</ele><time>2026-04-09T07:29:38.086Z</time></trkpt><trkpt lat="41.01349" lon="14.7785267"><ele>232.75</ele><time>2026-04-09T07:29:39.086Z</time></trkpt><trkpt lat="41.0134133" lon="14.7783717"><ele>230.5</ele><time>2026-04-09T07:29:40.086Z</time></trkpt><trkpt lat="41.0133417" lon="14.7782183"><ele>228.25</ele><time>2026-04-09T07:29:41.086Z</time></trkpt><trkpt lat="41.0132633" lon="14.7780733"><ele>226.0</ele><time>2026-04-09T07:29:42.086Z</time></trkpt><trkpt lat="41.01318" lon="14.7779317"><ele>230.25</ele><time>2026-04-09T07:29:43.086Z</time></trkpt><trkpt lat="41.01309" lon="14.7778033"><ele>234.5</ele><time>2026-04-09T07:29:44.086Z</time></trkpt><trkpt lat="41.013" lon="14.7776667"><ele>238.75</ele><time>2026-04-09T07:29:45.086Z</time></trkpt><trkpt lat="41.012925" lon="14.7775217"><ele>243.0</ele><time>2026-04-09T07:29:46.086Z</time></trkpt><trkpt lat="41.01287" lon="14.7773717"><ele>243.0</ele><time>2026-04-09T07:29:47.086Z</time></trkpt><trkpt lat="41.0128183" lon="14.777215"><ele>243.0</ele><time>2026-04-09T07:29:48.086Z</time></trkpt><trkpt lat="41.0127517" lon="14.7770583"><ele>243.0</ele><time>2026-04-09T07:29:49.086Z</time></trkpt><trkpt lat="41.0126733" lon="14.776895"><ele>243.0</ele><time>2026-04-09T07:29:50.086Z</time></trkpt><trkpt lat="41.0125817" lon="14.7767317"><ele>244.75</ele><time>2026-04-09T07:29:51.086Z</time></trkpt><trkpt lat="41.0125017" lon="14.7765833"><ele>246.5</ele><time>2026-04-09T07:29:52.086Z</time></trkpt><trkpt lat="41.0124267" lon="14.7764433"><ele>248.25</ele><time>2026-04-09T07:29:53.086Z</time></trkpt><trkpt lat="41.0123583" lon="14.77631"><ele>250.0</ele><time>2026-04-09T07:29:54.086Z</time></trkpt><trkpt lat="41.0122883" lon="14.7761817"><ele>250.0</ele><time>2026-04-09T07:29:55.086Z</time></trkpt><trkpt lat="41.0122267" lon="14.77605"><ele>250.0</ele><time>2026-04-09T07:29:56.086Z</time></trkpt><trkpt lat="41.0121583" lon="14.7759183"><ele>250.0</ele><time>2026-04-09T07:29:57.086Z</time></trkpt><trkpt lat="41.0121033" lon="14.7757733"><ele>250.0</ele><time>2026-04-09T07:29:58.086Z</time></trkpt><trkpt lat="41.0120617" lon="14.7756117"><ele>249.0</ele><time>2026-04-09T07:29:59.086Z</time></trkpt><trkpt lat="41.0120233" lon="14.77543"><ele>248.0</ele><time>2026-04-09T07:30:00.086Z</time></trkpt><trkpt lat="41.0119933" lon="14.7752483"><ele>247.0</ele><time>2026-04-09T07:30:01.086Z</time></trkpt><trkpt lat="41.011975" lon="14.7750783"><ele>246.0</ele><time>2026-04-09T07:30:02.086Z</time></trkpt><trkpt lat="41.011955" lon="14.77492"><ele>245.0</ele><time>2026-04-09T07:30:03.086Z</time></trkpt><trkpt lat="41.0119367" lon="14.7747783"><ele>244.0</ele><time>2026-04-09T07:30:04.086Z</time></trkpt><trkpt lat="41.0119033" lon="14.7746417"><ele>243.0</ele><time>2026-04-09T07:30:05.086Z</time></trkpt><trkpt lat="41.01185" lon="14.7745117"><ele>242.0</ele><time>2026-04-09T07:30:06.086Z</time></trkpt><trkpt lat="41.0117667" lon="14.774385"><ele>243.0</ele><time>2026-04-09T07:30:07.086Z</time></trkpt><trkpt lat="41.0116783" lon="14.7742583"><ele>244.0</ele><time>2026-04-09T07:30:08.086Z</time></trkpt><trkpt lat="41.0115967" lon="14.7741367"><ele>245.0</ele><time>2026-04-09T07:30:09.086Z</time></trkpt><trkpt lat="41.0115167" lon="14.7740267"><ele>246.0</ele><time>2026-04-09T07:30:10.086Z</time></trkpt><trkpt lat="41.0114283" lon="14.77394"><ele>246.0</ele><time>2026-04-09T07:30:11.086Z</time></trkpt><trkpt lat="41.011325" lon="14.7738767"><ele>246.0</ele><time>2026-04-09T07:30:12.086Z</time></trkpt><trkpt lat="41.0112033" lon="14.77384"><ele>246.0</ele><time>2026-04-09T07:30:13.086Z</time></trkpt><trkpt lat="41.0110817" lon="14.7738367"><ele>246.0</ele><time>2026-04-09T07:30:14.086Z</time></trkpt><trkpt lat="41.0109567" lon="14.7738317"><ele>246.0</ele><time>2026-04-09T07:30:15.086Z</time></trkpt><trkpt lat="41.0108433" lon="14.773825"><ele>246.00000000000003</ele><time>2026-04-09T07:30:16.086Z</time></trkpt><trkpt lat="41.0107333" lon="14.773805"><ele>246.00000000000003</ele><time>2026-04-09T07:30:17.086Z</time></trkpt><trkpt lat="41.01063" lon="14.7737533"><ele>246.0</ele><time>2026-04-09T07:30:18.086Z</time></trkpt><trkpt lat="41.0105383" lon="14.773665"><ele>246.0</ele><time>2026-04-09T07:30:19.086Z</time></trkpt><trkpt lat="41.0104533" lon="14.7735367"><ele>247.5</ele><time>2026-04-09T07:30:20.086Z</time></trkpt><trkpt lat="41.0103717" lon="14.7734067"><ele>249.0</ele><time>2026-04-09T07:30:21.086Z</time></trkpt><trkpt lat="41.0102917" lon="14.7732733"><ele>250.5</ele><time>2026-04-09T07:30:22.086Z</time></trkpt><trkpt lat="41.0102167" lon="14.77315"><ele>252.0</ele><time>2026-04-09T07:30:23.086Z</time></trkpt><trkpt lat="41.0101483" lon="14.773045"><ele>252.0</ele><time>2026-04-09T07:30:24.086Z</time></trkpt><trkpt lat="41.010085" lon="14.7729483"><ele>252.0</ele><time>2026-04-09T07:30:25.086Z</time></trkpt><trkpt lat="41.0100283" lon="14.772865"><ele>252.0</ele><time>2026-04-09T07:30:26.086Z</time></trkpt><trkpt lat="41.009985" lon="14.7727733"><ele>252.0</ele><time>2026-04-09T07:30:27.086Z</time></trkpt><trkpt lat="41.0099567" lon="14.7726733"><ele>252.0</ele><time>2026-04-09T07:30:28.086Z</time></trkpt><trkpt lat="41.0099317" lon="14.77257"><ele>252.0</ele><time>2026-04-09T07:30:29.086Z</time></trkpt><trkpt lat="41.009915" lon="14.7724583"><ele>252.39999999999998</ele><time>2026-04-09T07:30:30.086Z</time></trkpt><trkpt lat="41.0098833" lon="14.772345"><ele>252.79999999999998</ele><time>2026-04-09T07:30:31.086Z</time></trkpt><trkpt lat="41.0098383" lon="14.77223"><ele>253.2</ele><time>2026-04-09T07:30:32.086Z</time></trkpt><trkpt lat="41.0097633" lon="14.772115"><ele>253.6</ele><time>2026-04-09T07:30:33.086Z</time></trkpt><trkpt lat="41.0096783" lon="14.772015"><ele>254.0</ele><time>2026-04-09T07:30:34.086Z</time></trkpt><trkpt lat="41.0095783" lon="14.7719217"><ele>254.0</ele><time>2026-04-09T07:30:35.086Z</time></trkpt><trkpt lat="41.0094617" lon="14.77182"><ele>254.0</ele><time>2026-04-09T07:30:36.086Z</time></trkpt><trkpt lat="41.0093467" lon="14.77172"><ele>254.0</ele><time>2026-04-09T07:30:37.086Z</time></trkpt><trkpt lat="41.009245" lon="14.7716267"><ele>254.0</ele><time>2026-04-09T07:30:38.086Z</time></trkpt><trkpt lat="41.0091417" lon="14.7715417"><ele>254.0</ele><time>2026-04-09T07:30:39.086Z</time></trkpt><trkpt lat="41.0090417" lon="14.7714633"><ele>253.99999999999997</ele><time>2026-04-09T07:30:40.086Z</time></trkpt><trkpt lat="41.00895" lon="14.77139"><ele>253.99999999999997</ele><time>2026-04-09T07:30:41.086Z</time></trkpt><trkpt lat="41.0088617" lon="14.7713167"><ele>254.0</ele><time>2026-04-09T07:30:42.086Z</time></trkpt><trkpt lat="41.008775" lon="14.7712433"><ele>254.0</ele><time>2026-04-09T07:30:43.086Z</time></trkpt><trkpt lat="41.0086967" lon="14.771165"><ele>254.0</ele><time>2026-04-09T07:30:44.086Z</time></trkpt><trkpt lat="41.0086267" lon="14.7710767"><ele>253.99999999999997</ele><time>2026-04-09T07:30:45.086Z</time></trkpt><trkpt lat="41.0085633" lon="14.7709833"><ele>253.99999999999997</ele><time>2026-04-09T07:30:46.086Z</time></trkpt><trkpt lat="41.0085033" lon="14.7708867"><ele>254.0</ele><time>2026-04-09T07:30:47.086Z</time></trkpt><trkpt lat="41.0084467" lon="14.7707867"><ele>254.0</ele><time>2026-04-09T07:30:48.086Z</time></trkpt><trkpt lat="41.008385" lon="14.7706683"><ele>254.39999999999998</ele><time>2026-04-09T07:30:49.086Z</time></trkpt><trkpt lat="41.0083317" lon="14.7705467"><ele>254.79999999999998</ele><time>2026-04-09T07:30:50.086Z</time></trkpt><trkpt lat="41.0082883" lon="14.770415"><ele>255.20000000000002</ele><time>2026-04-09T07:30:51.086Z</time></trkpt><trkpt lat="41.008265" lon="14.7702683"><ele>255.60000000000002</ele><time>2026-04-09T07:30:52.086Z</time></trkpt><trkpt lat="41.0082383" lon="14.770125"><ele>256.0</ele><time>2026-04-09T07:30:53.086Z</time></trkpt><trkpt lat="41.0082067" lon="14.76998"><ele>252.75</ele><time>2026-04-09T07:30:54.086Z</time></trkpt><trkpt lat="41.008155" lon="14.76984"><ele>249.5</ele><time>2026-04-09T07:30:55.086Z</time></trkpt><trkpt lat="41.008075" lon="14.769715"><ele>246.25</ele><time>2026-04-09T07:30:56.086Z</time></trkpt><trkpt lat="41.007995" lon="14.769595"><ele>243.0</ele><time>2026-04-09T07:30:57.086Z</time></trkpt><trkpt lat="41.007915" lon="14.7694733"><ele>243.0</ele><time>2026-04-09T07:30:58.086Z</time></trkpt><trkpt lat="41.0078367" lon="14.769365"><ele>243.0</ele><time>2026-04-09T07:30:59.086Z</time></trkpt><trkpt lat="41.0077733" lon="14.7692583"><ele>243.0</ele><time>2026-04-09T07:31:00.086Z</time></trkpt><trkpt lat="41.0077233" lon="14.7691517"><ele>243.0</ele><time>2026-04-09T07:31:01.086Z</time></trkpt><trkpt lat="41.0076917" lon="14.7690483"><ele>243.0</ele><time>2026-04-09T07:31:02.086Z</time></trkpt><trkpt lat="41.0076867" lon="14.7689417"><ele>240.60000000000002</ele><time>2026-04-09T07:31:03.086Z</time></trkpt><trkpt lat="41.0077133" lon="14.768835"><ele>238.20000000000002</ele><time>2026-04-09T07:31:04.086Z</time></trkpt><trkpt lat="41.0077633" lon="14.76874"><ele>235.8</ele><time>2026-04-09T07:31:05.086Z</time></trkpt><trkpt lat="41.0078333" lon="14.7686617"><ele>233.4</ele><time>2026-04-09T07:31:06.086Z</time></trkpt><trkpt lat="41.0079367" lon="14.7685883"><ele>231.0</ele><time>2026-04-09T07:31:07.086Z</time></trkpt><trkpt lat="41.00804" lon="14.7685267"><ele>229.0</ele><time>2026-04-09T07:31:08.086Z</time></trkpt><trkpt lat="41.0081617" lon="14.7684783"><ele>227.0</ele><time>2026-04-09T07:31:09.086Z</time></trkpt><trkpt lat="41.0082783" lon="14.76845"><ele>225.0</ele><time>2026-04-09T07:31:10.086Z</time></trkpt><trkpt lat="41.008395" lon="14.7684333"><ele>223.0</ele><time>2026-04-09T07:31:11.086Z</time></trkpt><trkpt lat="41.0085267" lon="14.768425"><ele>222.75</ele><time>2026-04-09T07:31:12.086Z</time></trkpt><trkpt lat="41.0086567" lon="14.7684233"><ele>222.5</ele><time>2026-04-09T07:31:13.086Z</time></trkpt><trkpt lat="41.0087717" lon="14.7684267"><ele>222.25</ele><time>2026-04-09T07:31:14.086Z</time></trkpt><trkpt lat="41.0088883" lon="14.7684367"><ele>222.0</ele><time>2026-04-09T07:31:15.086Z</time></trkpt><trkpt lat="41.008995" lon="14.7684333"><ele>222.0</ele><time>2026-04-09T07:31:16.086Z</time></trkpt><trkpt lat="41.0091067" lon="14.7684333"><ele>222.0</ele><time>2026-04-09T07:31:17.086Z</time></trkpt><trkpt lat="41.0092183" lon="14.7684283"><ele>222.0</ele><time>2026-04-09T07:31:18.086Z</time></trkpt><trkpt lat="41.0093183" lon="14.768395"><ele>222.0</ele><time>2026-04-09T07:31:19.086Z</time></trkpt><trkpt lat="41.0094183" lon="14.7683367"><ele>222.0</ele><time>2026-04-09T07:31:20.086Z</time></trkpt><trkpt lat="41.0095117" lon="14.7682617"><ele>221.75</ele><time>2026-04-09T07:31:21.086Z</time></trkpt><trkpt lat="41.0095967" lon="14.7681467"><ele>221.5</ele><time>2026-04-09T07:31:22.086Z</time></trkpt><trkpt lat="41.0096817" lon="14.7680283"><ele>221.25</ele><time>2026-04-09T07:31:23.087Z</time></trkpt><trkpt lat="41.009765" lon="14.7678917"><ele>221.0</ele><time>2026-04-09T07:31:24.087Z</time></trkpt><trkpt lat="41.0098467" lon="14.7677417"><ele>220.0</ele><time>2026-04-09T07:31:25.087Z</time></trkpt><trkpt lat="41.00993" lon="14.7675767"><ele>219.0</ele><time>2026-04-09T07:31:26.087Z</time></trkpt><trkpt lat="41.0100133" lon="14.7674017"><ele>218.0</ele><time>2026-04-09T07:31:27.087Z</time></trkpt><trkpt lat="41.0100917" lon="14.7672467"><ele>217.0</ele><time>2026-04-09T07:31:28.087Z</time></trkpt><trkpt lat="41.010165" lon="14.7670933"><ele>217.0</ele><time>2026-04-09T07:31:29.087Z</time></trkpt><trkpt lat="41.0102317" lon="14.7669417"><ele>217.0</ele><time>2026-04-09T07:31:30.087Z</time></trkpt><trkpt lat="41.0103033" lon="14.7667933"><ele>217.0</ele><time>2026-04-09T07:31:31.087Z</time></trkpt><trkpt lat="41.0103683" lon="14.766655"><ele>217.0</ele><time>2026-04-09T07:31:32.087Z</time></trkpt><trkpt lat="41.010425" lon="14.7665233"><ele>217.5</ele><time>2026-04-09T07:31:33.087Z</time></trkpt><trkpt lat="41.0104817" lon="14.7663933"><ele>218.0</ele><time>2026-04-09T07:31:34.087Z</time></trkpt><trkpt lat="41.0105433" lon="14.76626"><ele>218.5</ele><time>2026-04-09T07:31:35.087Z</time></trkpt><trkpt lat="41.0106" lon="14.7661217"><ele>219.0</ele><time>2026-04-09T07:31:36.087Z</time></trkpt><trkpt lat="41.010645" lon="14.7659917"><ele>218.75</ele><time>2026-04-09T07:31:37.087Z</time></trkpt><trkpt lat="41.0106917" lon="14.7658583"><ele>218.5</ele><time>2026-04-09T07:31:38.087Z</time></trkpt><trkpt lat="41.01074" lon="14.7657233"><ele>218.25</ele><time>2026-04-09T07:31:39.087Z</time></trkpt><trkpt lat="41.0107883" lon="14.7655817"><ele>218.0</ele><time>2026-04-09T07:31:40.087Z</time></trkpt><trkpt lat="41.010835" lon="14.7654417"><ele>218.0</ele><time>2026-04-09T07:31:41.087Z</time></trkpt><trkpt lat="41.0108767" lon="14.7652917"><ele>218.0</ele><time>2026-04-09T07:31:42.087Z</time></trkpt><trkpt lat="41.01092" lon="14.7651367"><ele>218.0</ele><time>2026-04-09T07:31:43.087Z</time></trkpt><trkpt lat="41.0109633" lon="14.7649833"><ele>218.0</ele><time>2026-04-09T07:31:44.087Z</time></trkpt><trkpt lat="41.011" lon="14.7648383"><ele>218.25</ele><time>2026-04-09T07:31:45.087Z</time></trkpt><trkpt lat="41.0110283" lon="14.7646867"><ele>218.5</ele><time>2026-04-09T07:31:46.087Z</time></trkpt><trkpt lat="41.0110633" lon="14.7645283"><ele>218.75</ele><time>2026-04-09T07:31:47.087Z</time></trkpt><trkpt lat="41.011095" lon="14.7643633"><ele>219.0</ele><time>2026-04-09T07:31:48.087Z</time></trkpt><trkpt lat="41.011125" lon="14.7641983"><ele>219.5</ele><time>2026-04-09T07:31:49.087Z</time></trkpt><trkpt lat="41.0111467" lon="14.7640367"><ele>220.0</ele><time>2026-04-09T07:31:50.087Z</time></trkpt><trkpt lat="41.0111667" lon="14.7638733"><ele>220.5</ele><time>2026-04-09T07:31:51.087Z</time></trkpt><trkpt lat="41.0111833" lon="14.7637"><ele>221.0</ele><time>2026-04-09T07:31:52.087Z</time></trkpt><trkpt lat="41.0112" lon="14.7635233"><ele>221.5</ele><time>2026-04-09T07:31:53.087Z</time></trkpt><trkpt lat="41.011215" lon="14.7633383"><ele>222.0</ele><time>2026-04-09T07:31:54.087Z</time></trkpt><trkpt lat="41.0112233" lon="14.76315"><ele>222.5</ele><time>2026-04-09T07:31:55.087Z</time></trkpt><trkpt lat="41.0112267" lon="14.762965"><ele>223.0</ele><time>2026-04-09T07:31:56.087Z</time></trkpt><trkpt lat="41.0112267" lon="14.76279"><ele>223.5</ele><time>2026-04-09T07:31:57.087Z</time></trkpt><trkpt lat="41.0112183" lon="14.7626133"><ele>224.0</ele><time>2026-04-09T07:31:58.087Z</time></trkpt><trkpt lat="41.0112183" lon="14.762435"><ele>224.5</ele><time>2026-04-09T07:31:59.087Z</time></trkpt><trkpt lat="41.011215" lon="14.7622617"><ele>225.0</ele><time>2026-04-09T07:32:00.087Z</time></trkpt><trkpt lat="41.0112067" lon="14.7620883"><ele>225.0</ele><time>2026-04-09T07:32:01.087Z</time></trkpt><trkpt lat="41.01119" lon="14.761915"><ele>225.0</ele><time>2026-04-09T07:32:02.087Z</time></trkpt><trkpt lat="41.011175" lon="14.761735"><ele>225.0</ele><time>2026-04-09T07:32:03.087Z</time></trkpt><trkpt lat="41.0111617" lon="14.7615617"><ele>225.0</ele><time>2026-04-09T07:32:04.087Z</time></trkpt><trkpt lat="41.0111417" lon="14.76139"><ele>225.25</ele><time>2026-04-09T07:32:05.087Z</time></trkpt><trkpt lat="41.0111217" lon="14.7612183"><ele>225.5</ele><time>2026-04-09T07:32:06.087Z</time></trkpt><trkpt lat="41.0110933" lon="14.7610483"><ele>225.75</ele><time>2026-04-09T07:32:07.087Z</time></trkpt><trkpt lat="41.011065" lon="14.7608683"><ele>226.0</ele><time>2026-04-09T07:32:08.087Z</time></trkpt><trkpt lat="41.0110367" lon="14.7606817"><ele>226.25</ele><time>2026-04-09T07:32:09.087Z</time></trkpt><trkpt lat="41.011005" lon="14.76051"><ele>226.5</ele><time>2026-04-09T07:32:10.087Z</time></trkpt><trkpt lat="41.0109767" lon="14.7603417"><ele>226.75</ele><time>2026-04-09T07:32:11.087Z</time></trkpt><trkpt lat="41.0109483" lon="14.7601683"><ele>227.0</ele><time>2026-04-09T07:32:12.087Z</time></trkpt><trkpt lat="41.0109167" lon="14.759995"><ele>227.5</ele><time>2026-04-09T07:32:13.087Z</time></trkpt><trkpt lat="41.010885" lon="14.7598183"><ele>228.0</ele><time>2026-04-09T07:32:14.087Z</time></trkpt><trkpt lat="41.010855" lon="14.7596417"><ele>228.5</ele><time>2026-04-09T07:32:15.087Z</time></trkpt><trkpt lat="41.010825" lon="14.7594717"><ele>229.0</ele><time>2026-04-09T07:32:16.087Z</time></trkpt><trkpt lat="41.0107983" lon="14.759325"><ele>229.0</ele><time>2026-04-09T07:32:17.087Z</time></trkpt><trkpt lat="41.010765" lon="14.7591883"><ele>228.99999999999997</ele><time>2026-04-09T07:32:18.087Z</time></trkpt><trkpt lat="41.01074" lon="14.7590683"><ele>228.99999999999997</ele><time>2026-04-09T07:32:19.087Z</time></trkpt><trkpt lat="41.01072" lon="14.7589617"><ele>229.0</ele><time>2026-04-09T07:32:20.087Z</time></trkpt><trkpt lat="41.0107017" lon="14.7588567"><ele>229.0</ele><time>2026-04-09T07:32:21.087Z</time></trkpt><trkpt lat="41.0106967" lon="14.758745"><ele>228.99999999999997</ele><time>2026-04-09T07:32:22.087Z</time></trkpt><trkpt lat="41.0107033" lon="14.7586417"><ele>229.0</ele><time>2026-04-09T07:32:23.087Z</time></trkpt><trkpt lat="41.01072" lon="14.7585483"><ele>229.0</ele><time>2026-04-09T07:32:24.087Z</time></trkpt><trkpt lat="41.0107533" lon="14.758455"><ele>229.0</ele><time>2026-04-09T07:32:25.087Z</time></trkpt><trkpt lat="41.0108017" lon="14.75835"><ele>228.99999999999997</ele><time>2026-04-09T07:32:26.087Z</time></trkpt><trkpt lat="41.0108533" lon="14.75825"><ele>229.0</ele><time>2026-04-09T07:32:27.087Z</time></trkpt><trkpt lat="41.01091" lon="14.7581517"><ele>231.79999999999998</ele><time>2026-04-09T07:32:28.087Z</time></trkpt><trkpt lat="41.0109733" lon="14.7580633"><ele>234.59999999999997</ele><time>2026-04-09T07:32:29.087Z</time></trkpt><trkpt lat="41.011045" lon="14.75799"><ele>237.4</ele><time>2026-04-09T07:32:30.087Z</time></trkpt><trkpt lat="41.011125" lon="14.757925"><ele>240.2</ele><time>2026-04-09T07:32:31.087Z</time></trkpt><trkpt lat="41.01121" lon="14.7578767"><ele>243.0</ele><time>2026-04-09T07:32:32.087Z</time></trkpt><trkpt lat="41.0112933" lon="14.7578417"><ele>243.0</ele><time>2026-04-09T07:32:33.087Z</time></trkpt><trkpt lat="41.01137" lon="14.7577933"><ele>243.0</ele><time>2026-04-09T07:32:34.087Z</time></trkpt><trkpt lat="41.0114367" lon="14.75772"><ele>243.0</ele><time>2026-04-09T07:32:35.087Z</time></trkpt><trkpt lat="41.01149" lon="14.7576333"><ele>243.0</ele><time>2026-04-09T07:32:36.087Z</time></trkpt><trkpt lat="41.0115333" lon="14.7575083"><ele>243.0</ele><time>2026-04-09T07:32:37.087Z</time></trkpt><trkpt lat="41.0115733" lon="14.7573583"><ele>243.5</ele><time>2026-04-09T07:32:38.087Z</time></trkpt><trkpt lat="41.011615" lon="14.7572"><ele>244.0</ele><time>2026-04-09T07:32:39.087Z</time></trkpt><trkpt lat="41.0116583" lon="14.757045"><ele>244.5</ele><time>2026-04-09T07:32:40.087Z</time></trkpt><trkpt lat="41.0116967" lon="14.75691"><ele>245.0</ele><time>2026-04-09T07:32:41.087Z</time></trkpt><trkpt lat="41.011745" lon="14.75679"><ele>248.0</ele><time>2026-04-09T07:32:42.087Z</time></trkpt><trkpt lat="41.0118017" lon="14.7566767"><ele>251.0</ele><time>2026-04-09T07:32:43.087Z</time></trkpt><trkpt lat="41.011865" lon="14.75656"><ele>254.0</ele><time>2026-04-09T07:32:44.087Z</time></trkpt><trkpt lat="41.0119283" lon="14.7564383"><ele>257.0</ele><time>2026-04-09T07:32:45.087Z</time></trkpt><trkpt lat="41.0119817" lon="14.7563"><ele>260.0</ele><time>2026-04-09T07:32:46.087Z</time></trkpt><trkpt lat="41.0120367" lon="14.7561433"><ele>260.25</ele><time>2026-04-09T07:32:47.087Z</time></trkpt><trkpt lat="41.0120883" lon="14.75598"><ele>260.5</ele><time>2026-04-09T07:32:48.087Z</time></trkpt><trkpt lat="41.0121367" lon="14.7558233"><ele>260.75</ele><time>2026-04-09T07:32:49.087Z</time></trkpt><trkpt lat="41.0121833" lon="14.7556733"><ele>261.0</ele><time>2026-04-09T07:32:50.087Z</time></trkpt><trkpt lat="41.01223" lon="14.7555283"><ele>261.0</ele><time>2026-04-09T07:32:51.087Z</time></trkpt><trkpt lat="41.0122817" lon="14.7553733"><ele>261.0</ele><time>2026-04-09T07:32:52.087Z</time></trkpt><trkpt lat="41.0123433" lon="14.7552183"><ele>261.0</ele><time>2026-04-09T07:32:53.087Z</time></trkpt><trkpt lat="41.012405" lon="14.755065"><ele>261.0</ele><time>2026-04-09T07:32:54.087Z</time></trkpt><trkpt lat="41.012465" lon="14.7549217"><ele>262.0</ele><time>2026-04-09T07:32:55.087Z</time></trkpt><trkpt lat="41.0125267" lon="14.7547767"><ele>263.0</ele><time>2026-04-09T07:32:56.087Z</time></trkpt><trkpt lat="41.0125867" lon="14.75464"><ele>264.0</ele><time>2026-04-09T07:32:57.087Z</time></trkpt><trkpt lat="41.01265" lon="14.7545183"><ele>265.0</ele><time>2026-04-09T07:32:58.087Z</time></trkpt><trkpt lat="41.0127183" lon="14.7543983"><ele>267.0</ele><time>2026-04-09T07:32:59.087Z</time></trkpt><trkpt lat="41.0127983" lon="14.7542867"><ele>269.0</ele><time>2026-04-09T07:33:00.087Z</time></trkpt><trkpt lat="41.01289" lon="14.754185"><ele>271.0</ele><time>2026-04-09T07:33:01.087Z</time></trkpt><trkpt lat="41.012985" lon="14.75409"><ele>273.0</ele><time>2026-04-09T07:33:02.087Z</time></trkpt><trkpt lat="41.0130817" lon="14.7539883"><ele>273.0</ele><time>2026-04-09T07:33:03.087Z</time></trkpt><trkpt lat="41.0131617" lon="14.7538733"><ele>273.0</ele><time>2026-04-09T07:33:04.087Z</time></trkpt><trkpt lat="41.0132317" lon="14.753735"><ele>273.0</ele><time>2026-04-09T07:33:05.087Z</time></trkpt><trkpt lat="41.013295" lon="14.7535717"><ele>273.0</ele><time>2026-04-09T07:33:06.087Z</time></trkpt><trkpt lat="41.0133567" lon="14.7534067"><ele>275.5</ele><time>2026-04-09T07:33:07.087Z</time></trkpt><trkpt lat="41.01342" lon="14.7532433"><ele>278.0</ele><time>2026-04-09T07:33:08.087Z</time></trkpt><trkpt lat="41.0134683" lon="14.7530817"><ele>280.5</ele><time>2026-04-09T07:33:09.087Z</time></trkpt><trkpt lat="41.0135017" lon="14.7529167"><ele>283.0</ele><time>2026-04-09T07:33:10.087Z</time></trkpt><trkpt lat="41.013525" lon="14.75276"><ele>286.0</ele><time>2026-04-09T07:33:11.087Z</time></trkpt><trkpt lat="41.0135417" lon="14.7526117"><ele>289.0</ele><time>2026-04-09T07:33:12.087Z</time></trkpt><trkpt lat="41.0135567" lon="14.7524583"><ele>292.0</ele><time>2026-04-09T07:33:13.087Z</time></trkpt><trkpt lat="41.0135567" lon="14.7523017"><ele>295.0</ele><time>2026-04-09T07:33:14.087Z</time></trkpt><trkpt lat="41.0135417" lon="14.7521517"><ele>295.0</ele><time>2026-04-09T07:33:15.087Z</time></trkpt><trkpt lat="41.0135183" lon="14.751995"><ele>295.0</ele><time>2026-04-09T07:33:16.087Z</time></trkpt><trkpt lat="41.0134817" lon="14.7518433"><ele>295.0</ele><time>2026-04-09T07:33:17.087Z</time></trkpt><trkpt lat="41.01345" lon="14.7516883"><ele>295.0</ele><time>2026-04-09T07:33:18.087Z</time></trkpt><trkpt lat="41.013425" lon="14.7515433"><ele>296.0</ele><time>2026-04-09T07:33:19.087Z</time></trkpt><trkpt lat="41.013415" lon="14.7514017"><ele>297.0</ele><time>2026-04-09T07:33:20.087Z</time></trkpt><trkpt lat="41.013415" lon="14.7512717"><ele>298.0</ele><time>2026-04-09T07:33:21.087Z</time></trkpt><trkpt lat="41.013425" lon="14.7511483"><ele>299.0</ele><time>2026-04-09T07:33:22.087Z</time></trkpt><trkpt lat="41.0134633" lon="14.7510183"><ele>300.0</ele><time>2026-04-09T07:33:23.087Z</time></trkpt><trkpt lat="41.013525" lon="14.75089"><ele>301.2</ele><time>2026-04-09T07:33:24.087Z</time></trkpt><trkpt lat="41.013595" lon="14.75077"><ele>302.4</ele><time>2026-04-09T07:33:25.087Z</time></trkpt><trkpt lat="41.0136617" lon="14.7506533"><ele>303.6</ele><time>2026-04-09T07:33:26.087Z</time></trkpt><trkpt lat="41.0137233" lon="14.7505367"><ele>304.8</ele><time>2026-04-09T07:33:27.087Z</time></trkpt><trkpt lat="41.0137767" lon="14.7504083"><ele>306.0</ele><time>2026-04-09T07:33:28.087Z</time></trkpt><trkpt lat="41.01383" lon="14.7502817"><ele>305.75</ele><time>2026-04-09T07:33:29.087Z</time></trkpt><trkpt lat="41.0138883" lon="14.7501417"><ele>305.5</ele><time>2026-04-09T07:33:30.087Z</time></trkpt><trkpt lat="41.013945" lon="14.7500017"><ele>305.25</ele><time>2026-04-09T07:33:31.087Z</time></trkpt><trkpt lat="41.014005" lon="14.74987"><ele>305.0</ele><time>2026-04-09T07:33:32.087Z</time></trkpt><trkpt lat="41.0140683" lon="14.749745"><ele>305.0</ele><time>2026-04-09T07:33:33.087Z</time></trkpt><trkpt lat="41.014145" lon="14.7496167"><ele>305.0</ele><time>2026-04-09T07:33:34.087Z</time></trkpt><trkpt lat="41.01423" lon="14.749505"><ele>305.0</ele><time>2026-04-09T07:33:35.087Z</time></trkpt><trkpt lat="41.0143233" lon="14.7494017"><ele>305.0</ele><time>2026-04-09T07:33:36.087Z</time></trkpt><trkpt lat="41.0144233" lon="14.7493033"><ele>307.75</ele><time>2026-04-09T07:33:37.087Z</time></trkpt><trkpt lat="41.01453" lon="14.749215"><ele>310.5</ele><time>2026-04-09T07:33:38.087Z</time></trkpt><trkpt lat="41.0146167" lon="14.74912"><ele>313.25</ele><time>2026-04-09T07:33:39.087Z</time></trkpt><trkpt lat="41.0147083" lon="14.7490067"><ele>316.0</ele><time>2026-04-09T07:33:40.087Z</time></trkpt><trkpt lat="41.0147883" lon="14.74887"><ele>316.0</ele><time>2026-04-09T07:33:41.087Z</time></trkpt><trkpt lat="41.0148667" lon="14.7487183"><ele>316.0</ele><time>2026-04-09T07:33:42.087Z</time></trkpt><trkpt lat="41.014945" lon="14.7485683"><ele>316.0</ele><time>2026-04-09T07:33:43.087Z</time></trkpt><trkpt lat="41.0150217" lon="14.7484183"><ele>316.0</ele><time>2026-04-09T07:33:44.087Z</time></trkpt><trkpt lat="41.01511" lon="14.7482733"><ele>318.0</ele><time>2026-04-09T07:33:45.087Z</time></trkpt><trkpt lat="41.0151967" lon="14.7481267"><ele>320.0</ele><time>2026-04-09T07:33:46.087Z</time></trkpt><trkpt lat="41.015275" lon="14.747995"><ele>322.0</ele><time>2026-04-09T07:33:47.087Z</time></trkpt><trkpt lat="41.015345" lon="14.7478717"><ele>324.0</ele><time>2026-04-09T07:33:48.087Z</time></trkpt><trkpt lat="41.0154133" lon="14.74777"><ele>323.79999999999995</ele><time>2026-04-09T07:33:49.087Z</time></trkpt><trkpt lat="41.0154867" lon="14.7476933"><ele>323.59999999999997</ele><time>2026-04-09T07:33:50.087Z</time></trkpt><trkpt lat="41.0155683" lon="14.7476583"><ele>323.4</ele><time>2026-04-09T07:33:51.087Z</time></trkpt><trkpt lat="41.0156583" lon="14.747655"><ele>323.2</ele><time>2026-04-09T07:33:52.087Z</time></trkpt><trkpt lat="41.0157517" lon="14.7476967"><ele>323.0</ele><time>2026-04-09T07:33:53.087Z</time></trkpt><trkpt lat="41.01584" lon="14.7477683"><ele>325.79999999999995</ele><time>2026-04-09T07:33:54.087Z</time></trkpt><trkpt lat="41.0159283" lon="14.7478667"><ele>328.6</ele><time>2026-04-09T07:33:55.087Z</time></trkpt><trkpt lat="41.0160183" lon="14.74797"><ele>331.4</ele><time>2026-04-09T07:33:56.087Z</time></trkpt><trkpt lat="41.0161" lon="14.7480533"><ele>334.20000000000005</ele><time>2026-04-09T07:33:57.087Z</time></trkpt><trkpt lat="41.016175" lon="14.7481367"><ele>337.0</ele><time>2026-04-09T07:33:58.087Z</time></trkpt><trkpt lat="41.0162367" lon="14.7482067"><ele>337.00000000000006</ele><time>2026-04-09T07:33:59.087Z</time></trkpt><trkpt lat="41.0162917" lon="14.7482667"><ele>337.0</ele><time>2026-04-09T07:34:00.087Z</time></trkpt><trkpt lat="41.01635" lon="14.74833"><ele>337.0</ele><time>2026-04-09T07:34:01.087Z</time></trkpt><trkpt lat="41.0164133" lon="14.7483833"><ele>337.0</ele><time>2026-04-09T07:34:02.087Z</time></trkpt><trkpt lat="41.0164717" lon="14.74842"><ele>337.0</ele><time>2026-04-09T07:34:03.087Z</time></trkpt><trkpt lat="41.0165433" lon="14.7484283"><ele>337.00000000000006</ele><time>2026-04-09T07:34:04.087Z</time></trkpt><trkpt lat="41.016625" lon="14.7484083"><ele>337.0</ele><time>2026-04-09T07:34:05.087Z</time></trkpt><trkpt lat="41.0167033" lon="14.7483633"><ele>339.20000000000005</ele><time>2026-04-09T07:34:06.087Z</time></trkpt><trkpt lat="41.0167767" lon="14.7483"><ele>341.4</ele><time>2026-04-09T07:34:07.087Z</time></trkpt><trkpt lat="41.0168333" lon="14.74823"><ele>343.6</ele><time>2026-04-09T07:34:08.087Z</time></trkpt><trkpt lat="41.016915" lon="14.74812"><ele>345.79999999999995</ele><time>2026-04-09T07:34:10.087Z</time></trkpt><trkpt lat="41.0169767" lon="14.74803"><ele>348.0</ele><time>2026-04-09T07:34:12.087Z</time></trkpt><trkpt lat="41.0170033" lon="14.74792"><ele>348.0</ele><time>2026-04-09T07:34:14.087Z</time></trkpt><trkpt lat="41.01697" lon="14.7477783"><ele>348.0</ele><time>2026-04-09T07:34:16.087Z</time></trkpt><trkpt lat="41.01692" lon="14.7476283"><ele>348.0</ele><time>2026-04-09T07:34:18.087Z</time></trkpt><trkpt lat="41.0168983" lon="14.747545"><ele>348.0</ele><time>2026-04-09T07:34:19.087Z</time></trkpt><trkpt lat="41.016895" lon="14.7474483"><ele>348.0</ele><time>2026-04-09T07:34:20.087Z</time></trkpt><trkpt lat="41.016905" lon="14.7473467"><ele>348.6666666666667</ele><time>2026-04-09T07:34:21.087Z</time></trkpt><trkpt lat="41.0169317" lon="14.7472467"><ele>349.3333333333333</ele><time>2026-04-09T07:34:22.087Z</time></trkpt><trkpt lat="41.01697" lon="14.7471617"><ele>350.0</ele><time>2026-04-09T07:34:23.087Z</time></trkpt><trkpt lat="41.0170283" lon="14.7470883"><ele>350.66666666666663</ele><time>2026-04-09T07:34:24.087Z</time></trkpt><trkpt lat="41.017105" lon="14.7470283"><ele>351.3333333333333</ele><time>2026-04-09T07:34:25.087Z</time></trkpt><trkpt lat="41.0171833" lon="14.7469667"><ele>352.0</ele><time>2026-04-09T07:34:26.087Z</time></trkpt><trkpt lat="41.0172717" lon="14.74691"><ele>352.6</ele><time>2026-04-09T07:34:27.087Z</time></trkpt><trkpt lat="41.017375" lon="14.7468533"><ele>353.20000000000005</ele><time>2026-04-09T07:34:28.087Z</time></trkpt><trkpt lat="41.0174733" lon="14.7468117"><ele>353.8</ele><time>2026-04-09T07:34:29.087Z</time></trkpt><trkpt lat="41.0175683" lon="14.7467783"><ele>354.4</ele><time>2026-04-09T07:34:30.087Z</time></trkpt><trkpt lat="41.0176683" lon="14.74674"><ele>355.0</ele><time>2026-04-09T07:34:31.087Z</time></trkpt><trkpt lat="41.017765" lon="14.7466817"><ele>359.25</ele><time>2026-04-09T07:34:32.087Z</time></trkpt><trkpt lat="41.0178567" lon="14.7466233"><ele>363.5</ele><time>2026-04-09T07:34:33.087Z</time></trkpt><trkpt lat="41.0179583" lon="14.74655"><ele>367.75</ele><time>2026-04-09T07:34:34.087Z</time></trkpt><trkpt lat="41.0180717" lon="14.7464833"><ele>372.0</ele><time>2026-04-09T07:34:35.087Z</time></trkpt><trkpt lat="41.0181883" lon="14.7464233"><ele>372.0</ele><time>2026-04-09T07:34:36.087Z</time></trkpt><trkpt lat="41.0183" lon="14.7463667"><ele>372.0</ele><time>2026-04-09T07:34:37.087Z</time></trkpt><trkpt lat="41.0184133" lon="14.74632"><ele>372.0</ele><time>2026-04-09T07:34:38.087Z</time></trkpt><trkpt lat="41.0185283" lon="14.7462633"><ele>372.0</ele><time>2026-04-09T07:34:39.087Z</time></trkpt><trkpt lat="41.0186367" lon="14.7461933"><ele>374.0</ele><time>2026-04-09T07:34:40.087Z</time></trkpt><trkpt lat="41.018735" lon="14.746115"><ele>376.0</ele><time>2026-04-09T07:34:41.087Z</time></trkpt><trkpt lat="41.0188333" lon="14.7460317"><ele>378.0</ele><time>2026-04-09T07:34:42.087Z</time></trkpt><trkpt lat="41.0189367" lon="14.745925"><ele>380.0</ele><time>2026-04-09T07:34:43.087Z</time></trkpt><trkpt lat="41.0190367" lon="14.7458067"><ele>381.0</ele><time>2026-04-09T07:34:44.087Z</time></trkpt><trkpt lat="41.0191283" lon="14.74567"><ele>382.0</ele><time>2026-04-09T07:34:45.087Z</time></trkpt><trkpt lat="41.01921" lon="14.7455217"><ele>383.0</ele><time>2026-04-09T07:34:46.087Z</time></trkpt><trkpt lat="41.0192917" lon="14.7453817"><ele>384.0</ele><time>2026-04-09T07:34:47.087Z</time></trkpt><trkpt lat="41.01937" lon="14.74525"><ele>387.5</ele><time>2026-04-09T07:34:48.087Z</time></trkpt><trkpt lat="41.01945" lon="14.7451083"><ele>391.0</ele><time>2026-04-09T07:34:49.087Z</time></trkpt><trkpt lat="41.01953" lon="14.74497"><ele>394.5</ele><time>2026-04-09T07:34:50.087Z</time></trkpt><trkpt lat="41.0196117" lon="14.74484"><ele>398.0</ele><time>2026-04-09T07:34:51.087Z</time></trkpt><trkpt lat="41.01969" lon="14.7447117"><ele>398.0</ele><time>2026-04-09T07:34:52.087Z</time></trkpt><trkpt lat="41.01976" lon="14.744575"><ele>398.0</ele><time>2026-04-09T07:34:53.087Z</time></trkpt><trkpt lat="41.0198467" lon="14.7444517"><ele>398.0</ele><time>2026-04-09T07:34:54.087Z</time></trkpt><trkpt lat="41.0199483" lon="14.7443417"><ele>398.0</ele><time>2026-04-09T07:34:55.087Z</time></trkpt><trkpt lat="41.0200517" lon="14.7442367"><ele>401.5</ele><time>2026-04-09T07:34:56.087Z</time></trkpt><trkpt lat="41.0201583" lon="14.7441283"><ele>405.0</ele><time>2026-04-09T07:34:57.087Z</time></trkpt><trkpt lat="41.0202617" lon="14.7440267"><ele>408.5</ele><time>2026-04-09T07:34:58.087Z</time></trkpt><trkpt lat="41.0203617" lon="14.7439317"><ele>412.0</ele><time>2026-04-09T07:34:59.087Z</time></trkpt><trkpt lat="41.0204583" lon="14.74384"><ele>412.0</ele><time>2026-04-09T07:35:00.087Z</time></trkpt><trkpt lat="41.0205517" lon="14.743745"><ele>412.0</ele><time>2026-04-09T07:35:01.087Z</time></trkpt><trkpt lat="41.0206617" lon="14.7436633"><ele>412.0</ele><time>2026-04-09T07:35:02.087Z</time></trkpt><trkpt lat="41.0207817" lon="14.7435967"><ele>412.0</ele><time>2026-04-09T07:35:03.087Z</time></trkpt><trkpt lat="41.0209033" lon="14.7435233"><ele>416.0</ele><time>2026-04-09T07:35:04.087Z</time></trkpt><trkpt lat="41.021025" lon="14.7434517"><ele>420.0</ele><time>2026-04-09T07:35:05.087Z</time></trkpt><trkpt lat="41.0211517" lon="14.743385"><ele>424.0</ele><time>2026-04-09T07:35:06.087Z</time></trkpt><trkpt lat="41.0212733" lon="14.7433117"><ele>428.0</ele><time>2026-04-09T07:35:07.087Z</time></trkpt><trkpt lat="41.0213817" lon="14.7432567"><ele>427.99999999999994</ele><time>2026-04-09T07:35:08.087Z</time></trkpt><trkpt lat="41.021485" lon="14.7431933"><ele>428.0</ele><time>2026-04-09T07:35:09.087Z</time></trkpt><trkpt lat="41.02158" lon="14.7431383"><ele>428.0</ele><time>2026-04-09T07:35:10.087Z</time></trkpt><trkpt lat="41.0216517" lon="14.7430883"><ele>428.0</ele><time>2026-04-09T07:35:11.087Z</time></trkpt><trkpt lat="41.0217033" lon="14.7430167"><ele>427.99999999999994</ele><time>2026-04-09T07:35:12.087Z</time></trkpt><trkpt lat="41.021725" lon="14.7429367"><ele>428.0</ele><time>2026-04-09T07:35:13.087Z</time></trkpt><trkpt lat="41.021665" lon="14.7428067"><ele>428.0</ele><time>2026-04-09T07:35:15.087Z</time></trkpt><trkpt lat="41.0216017" lon="14.7427717"><ele>427.99999999999994</ele><time>2026-04-09T07:35:16.087Z</time></trkpt><trkpt lat="41.021525" lon="14.74277"><ele>427.99999999999994</ele><time>2026-04-09T07:35:17.087Z</time></trkpt><trkpt lat="41.02142" lon="14.7427833"><ele>428.0</ele><time>2026-04-09T07:35:18.087Z</time></trkpt><trkpt lat="41.021305" lon="14.7427933"><ele>428.0</ele><time>2026-04-09T07:35:19.087Z</time></trkpt><trkpt lat="41.021195" lon="14.7427933"><ele>427.99999999999994</ele><time>2026-04-09T07:35:20.087Z</time></trkpt><trkpt lat="41.0211067" lon="14.7427983"><ele>428.0</ele><time>2026-04-09T07:35:21.087Z</time></trkpt><trkpt lat="41.021035" lon="14.74281"><ele>428.0</ele><time>2026-04-09T07:35:22.087Z</time></trkpt><trkpt lat="41.0209283" lon="14.742845"><ele>428.0</ele><time>2026-04-09T07:35:24.087Z</time></trkpt><trkpt lat="41.020845" lon="14.7428633"><ele>427.99999999999994</ele><time>2026-04-09T07:35:26.087Z</time></trkpt><trkpt lat="41.020795" lon="14.7427917"><ele>428.0</ele><time>2026-04-09T07:35:28.087Z</time></trkpt><trkpt lat="41.0208317" lon="14.7426833"><ele>430.4</ele><time>2026-04-09T07:35:30.087Z</time></trkpt><trkpt lat="41.0209067" lon="14.7425533"><ele>432.79999999999995</ele><time>2026-04-09T07:35:32.087Z</time></trkpt><trkpt lat="41.0209367" lon="14.7423917"><ele>435.2</ele><time>2026-04-09T07:35:34.087Z</time></trkpt><trkpt lat="41.02094" lon="14.7422883"><ele>437.6</ele><time>2026-04-09T07:35:35.087Z</time></trkpt><trkpt lat="41.02094" lon="14.7421617"><ele>440.0</ele><time>2026-04-09T07:35:36.087Z</time></trkpt><trkpt lat="41.020935" lon="14.742025"><ele>441.99999999999994</ele><time>2026-04-09T07:35:37.087Z</time></trkpt><trkpt lat="41.0209383" lon="14.7418767"><ele>444.0</ele><time>2026-04-09T07:35:38.087Z</time></trkpt><trkpt lat="41.0209417" lon="14.7417433"><ele>446.0</ele><time>2026-04-09T07:35:39.087Z</time></trkpt><trkpt lat="41.0209383" lon="14.7416283"><ele>448.0</ele><time>2026-04-09T07:35:40.087Z</time></trkpt><trkpt lat="41.02095" lon="14.7415267"><ele>449.99999999999994</ele><time>2026-04-09T07:35:41.087Z</time></trkpt><trkpt lat="41.0209667" lon="14.741435"><ele>452.0</ele><time>2026-04-09T07:35:42.087Z</time></trkpt><trkpt lat="41.0209867" lon="14.741355"><ele>451.99999999999994</ele><time>2026-04-09T07:35:43.087Z</time></trkpt><trkpt lat="41.0210283" lon="14.7412317"><ele>452.0</ele><time>2026-04-09T07:35:45.087Z</time></trkpt><trkpt lat="41.021095" lon="14.74116"><ele>452.0</ele><time>2026-04-09T07:35:47.087Z</time></trkpt><trkpt lat="41.021155" lon="14.7411317"><ele>452.0</ele><time>2026-04-09T07:35:48.087Z</time></trkpt><trkpt lat="41.0212483" lon="14.7411067"><ele>451.99999999999994</ele><time>2026-04-09T07:35:50.087Z</time></trkpt><trkpt lat="41.021325" lon="14.7411"><ele>452.0</ele><time>2026-04-09T07:35:53.087Z</time></trkpt><trkpt lat="41.021445" lon="14.7410467"><ele>453.8</ele><time>2026-04-09T07:36:55.087Z</time></trkpt><trkpt lat="41.0215233" lon="14.74101"><ele>455.6</ele><time>2026-04-09T07:36:56.087Z</time></trkpt><trkpt lat="41.02161" lon="14.7409533"><ele>457.40000000000003</ele><time>2026-04-09T07:36:57.087Z</time></trkpt><trkpt lat="41.02169" lon="14.7408783"><ele>459.20000000000005</ele><time>2026-04-09T07:36:58.087Z</time></trkpt><trkpt lat="41.0217767" lon="14.7407583"><ele>461.0</ele><time>2026-04-09T07:36:59.087Z</time></trkpt><trkpt lat="41.0218667" lon="14.7406283"><ele>462.0</ele><time>2026-04-09T07:37:00.087Z</time></trkpt><trkpt lat="41.0219583" lon="14.740495"><ele>463.0</ele><time>2026-04-09T07:37:01.087Z</time></trkpt><trkpt lat="41.0220617" lon="14.74039"><ele>464.0</ele><time>2026-04-09T07:37:02.087Z</time></trkpt><trkpt lat="41.0221567" lon="14.74031"><ele>465.0</ele><time>2026-04-09T07:37:03.087Z</time></trkpt><trkpt lat="41.0222567" lon="14.740245"><ele>465.0</ele><time>2026-04-09T07:37:04.087Z</time></trkpt><trkpt lat="41.0223617" lon="14.74022"><ele>465.0</ele><time>2026-04-09T07:37:05.087Z</time></trkpt><trkpt lat="41.0224783" lon="14.74021"><ele>465.0</ele><time>2026-04-09T07:37:06.087Z</time></trkpt><trkpt lat="41.0226083" lon="14.7402133"><ele>465.0</ele><time>2026-04-09T07:37:07.087Z</time></trkpt><trkpt lat="41.0227367" lon="14.7402067"><ele>467.25</ele><time>2026-04-09T07:37:08.087Z</time></trkpt><trkpt lat="41.0228667" lon="14.7401767"><ele>469.5</ele><time>2026-04-09T07:37:09.087Z</time></trkpt><trkpt lat="41.0229817" lon="14.7401383"><ele>471.75</ele><time>2026-04-09T07:37:10.087Z</time></trkpt><trkpt lat="41.02309" lon="14.7401033"><ele>474.0</ele><time>2026-04-09T07:37:11.087Z</time></trkpt><trkpt lat="41.0231917" lon="14.7400967"><ele>474.0</ele><time>2026-04-09T07:37:12.087Z</time></trkpt><trkpt lat="41.023285" lon="14.740125"><ele>474.0</ele><time>2026-04-09T07:37:13.087Z</time></trkpt><trkpt lat="41.0233817" lon="14.7401983"><ele>474.0</ele><time>2026-04-09T07:37:14.087Z</time></trkpt><trkpt lat="41.02347" lon="14.74031"><ele>474.0</ele><time>2026-04-09T07:37:15.087Z</time></trkpt><trkpt lat="41.0235567" lon="14.7404533"><ele>470.0</ele><time>2026-04-09T07:37:16.087Z</time></trkpt><trkpt lat="41.0236383" lon="14.7405917"><ele>466.0</ele><time>2026-04-09T07:37:17.087Z</time></trkpt><trkpt lat="41.0237167" lon="14.7407283"><ele>462.0</ele><time>2026-04-09T07:37:18.087Z</time></trkpt><trkpt lat="41.0238" lon="14.7408717"><ele>458.0</ele><time>2026-04-09T07:37:19.087Z</time></trkpt><trkpt lat="41.0238833" lon="14.7410133"><ele>460.25</ele><time>2026-04-09T07:37:20.087Z</time></trkpt><trkpt lat="41.0239567" lon="14.7411433"><ele>462.5</ele><time>2026-04-09T07:37:21.087Z</time></trkpt><trkpt lat="41.0240267" lon="14.7412833"><ele>464.75</ele><time>2026-04-09T07:37:22.087Z</time></trkpt><trkpt lat="41.0240917" lon="14.7414183"><ele>467.0</ele><time>2026-04-09T07:37:23.087Z</time></trkpt><trkpt lat="41.0241467" lon="14.7415483"><ele>467.0</ele><time>2026-04-09T07:37:24.087Z</time></trkpt><trkpt lat="41.0241983" lon="14.74167"><ele>467.00000000000006</ele><time>2026-04-09T07:37:25.087Z</time></trkpt><trkpt lat="41.0242433" lon="14.7417933"><ele>467.00000000000006</ele><time>2026-04-09T07:37:26.087Z</time></trkpt><trkpt lat="41.02428" lon="14.7419117"><ele>467.0</ele><time>2026-04-09T07:37:27.087Z</time></trkpt><trkpt lat="41.0243167" lon="14.7420167"><ele>467.0</ele><time>2026-04-09T07:37:28.087Z</time></trkpt><trkpt lat="41.0243467" lon="14.7421167"><ele>464.0</ele><time>2026-04-09T07:37:29.087Z</time></trkpt><trkpt lat="41.0243883" lon="14.742215"><ele>461.00000000000006</ele><time>2026-04-09T07:37:30.087Z</time></trkpt><trkpt lat="41.0244383" lon="14.7423133"><ele>458.00000000000006</ele><time>2026-04-09T07:37:31.087Z</time></trkpt><trkpt lat="41.0244933" lon="14.7424167"><ele>455.0</ele><time>2026-04-09T07:37:32.087Z</time></trkpt><trkpt lat="41.02456" lon="14.74251"><ele>452.0</ele><time>2026-04-09T07:37:33.087Z</time></trkpt><trkpt lat="41.0246317" lon="14.74259"><ele>451.99999999999994</ele><time>2026-04-09T07:37:34.087Z</time></trkpt><trkpt lat="41.0247017" lon="14.74266"><ele>452.0</ele><time>2026-04-09T07:37:35.087Z</time></trkpt><trkpt lat="41.024775" lon="14.742725"><ele>452.0</ele><time>2026-04-09T07:37:36.087Z</time></trkpt><trkpt lat="41.0248467" lon="14.7427867"><ele>452.0</ele><time>2026-04-09T07:37:37.087Z</time></trkpt><trkpt lat="41.0249183" lon="14.742845"><ele>451.99999999999994</ele><time>2026-04-09T07:37:38.087Z</time></trkpt><trkpt lat="41.024985" lon="14.7428983"><ele>452.0</ele><time>2026-04-09T07:37:39.087Z</time></trkpt><trkpt lat="41.025055" lon="14.74295"><ele>451.99999999999994</ele><time>2026-04-09T07:37:40.087Z</time></trkpt><trkpt lat="41.0251217" lon="14.7429967"><ele>452.0</ele><time>2026-04-09T07:37:41.087Z</time></trkpt><trkpt lat="41.02518" lon="14.7430433"><ele>452.0</ele><time>2026-04-09T07:37:42.087Z</time></trkpt><trkpt lat="41.0252383" lon="14.7430917"><ele>452.0</ele><time>2026-04-09T07:37:43.087Z</time></trkpt><trkpt lat="41.0253433" lon="14.74317"><ele>451.99999999999994</ele><time>2026-04-09T07:37:45.087Z</time></trkpt><trkpt lat="41.0254383" lon="14.743245"><ele>452.0</ele><time>2026-04-09T07:37:47.087Z</time></trkpt><trkpt lat="41.025515" lon="14.7433083"><ele>452.0</ele><time>2026-04-09T07:37:49.087Z</time></trkpt><trkpt lat="41.0255733" lon="14.7433633"><ele>452.00000000000006</ele><time>2026-04-09T07:37:51.087Z</time></trkpt><trkpt lat="41.0256333" lon="14.7433983"><ele>452.00000000000006</ele><time>2026-04-09T07:37:53.087Z</time></trkpt><trkpt lat="41.0256983" lon="14.74347"><ele>452.0</ele><time>2026-04-09T07:37:55.087Z</time></trkpt><trkpt lat="41.025795" lon="14.74355"><ele>452.0</ele><time>2026-04-09T07:37:57.087Z</time></trkpt><trkpt lat="41.0259167" lon="14.7435617"><ele>453.99999999999994</ele><time>2026-04-09T07:37:59.087Z</time></trkpt><trkpt lat="41.0259867" lon="14.743535"><ele>456.0</ele><time>2026-04-09T07:38:00.087Z</time></trkpt><trkpt lat="41.02606" lon="14.7434967"><ele>458.0</ele><time>2026-04-09T07:38:01.087Z</time></trkpt><trkpt lat="41.0261333" lon="14.7434517"><ele>460.0</ele><time>2026-04-09T07:38:02.087Z</time></trkpt><trkpt lat="41.0262067" lon="14.7434033"><ele>461.99999999999994</ele><time>2026-04-09T07:38:03.087Z</time></trkpt><trkpt lat="41.0262833" lon="14.7433567"><ele>464.0</ele><time>2026-04-09T07:38:04.087Z</time></trkpt><trkpt lat="41.0263533" lon="14.7433117"><ele>464.0</ele><time>2026-04-09T07:38:05.087Z</time></trkpt><trkpt lat="41.0264167" lon="14.74327"><ele>464.0</ele><time>2026-04-09T07:38:06.087Z</time></trkpt><trkpt lat="41.0265133" lon="14.74319"><ele>464.0</ele><time>2026-04-09T07:38:08.087Z</time></trkpt><trkpt lat="41.0265583" lon="14.7431083"><ele>464.0</ele><time>2026-04-09T07:38:10.087Z</time></trkpt><trkpt lat="41.02654" lon="14.7429867"><ele>464.0</ele><time>2026-04-09T07:38:12.087Z</time></trkpt><trkpt lat="41.0265033" lon="14.74287"><ele>464.0</ele><time>2026-04-09T07:38:14.087Z</time></trkpt><trkpt lat="41.02652" lon="14.74273"><ele>464.0</ele><time>2026-04-09T07:38:16.087Z</time></trkpt><trkpt lat="41.0266117" lon="14.7426383"><ele>464.0</ele><time>2026-04-09T07:38:18.087Z</time></trkpt><trkpt lat="41.0266833" lon="14.7426233"><ele>464.0</ele><time>2026-04-09T07:38:19.087Z</time></trkpt><trkpt lat="41.0267683" lon="14.742625"><ele>464.0</ele><time>2026-04-09T07:38:20.087Z</time></trkpt><trkpt lat="41.0268667" lon="14.7426383"><ele>461.0</ele><time>2026-04-09T07:38:21.087Z</time></trkpt><trkpt lat="41.0269633" lon="14.7426583"><ele>458.0</ele><time>2026-04-09T07:38:22.087Z</time></trkpt><trkpt lat="41.0270567" lon="14.7426733"><ele>455.0</ele><time>2026-04-09T07:38:23.087Z</time></trkpt><trkpt lat="41.0271533" lon="14.7426833"><ele>452.0</ele><time>2026-04-09T07:38:24.087Z</time></trkpt><trkpt lat="41.0272483" lon="14.742685"><ele>449.0</ele><time>2026-04-09T07:38:25.087Z</time></trkpt><trkpt lat="41.0273383" lon="14.7426783"><ele>449.0</ele><time>2026-04-09T07:38:26.087Z</time></trkpt><trkpt lat="41.0274383" lon="14.74268"><ele>449.0</ele><time>2026-04-09T07:38:27.087Z</time></trkpt><trkpt lat="41.02754" lon="14.7426817"><ele>449.0</ele><time>2026-04-09T07:38:28.087Z</time></trkpt><trkpt lat="41.0276567" lon="14.7426783"><ele>449.0</ele><time>2026-04-09T07:38:29.087Z</time></trkpt><trkpt lat="41.0277783" lon="14.74267"><ele>449.0</ele><time>2026-04-09T07:38:30.087Z</time></trkpt><trkpt lat="41.0278967" lon="14.7426617"><ele>445.6</ele><time>2026-04-09T07:38:31.087Z</time></trkpt><trkpt lat="41.028005" lon="14.74265"><ele>442.2</ele><time>2026-04-09T07:38:32.087Z</time></trkpt><trkpt lat="41.0281" lon="14.7426533"><ele>438.80000000000007</ele><time>2026-04-09T07:38:33.087Z</time></trkpt><trkpt lat="41.0281867" lon="14.7426467"><ele>435.40000000000003</ele><time>2026-04-09T07:38:34.087Z</time></trkpt><trkpt lat="41.0282717" lon="14.7426467"><ele>432.0</ele><time>2026-04-09T07:38:35.087Z</time></trkpt><trkpt lat="41.02836" lon="14.7426583"><ele>430.6</ele><time>2026-04-09T07:38:36.087Z</time></trkpt><trkpt lat="41.0284467" lon="14.7426733"><ele>429.20000000000005</ele><time>2026-04-09T07:38:37.087Z</time></trkpt><trkpt lat="41.0285433" lon="14.7427017"><ele>427.8</ele><time>2026-04-09T07:38:38.087Z</time></trkpt><trkpt lat="41.0286333" lon="14.7427233"><ele>426.4</ele><time>2026-04-09T07:38:39.087Z</time></trkpt><trkpt lat="41.028745" lon="14.7427383"><ele>425.0</ele><time>2026-04-09T07:38:40.087Z</time></trkpt><trkpt lat="41.028855" lon="14.7427567"><ele>425.0</ele><time>2026-04-09T07:38:41.087Z</time></trkpt><trkpt lat="41.0289717" lon="14.7427733"><ele>425.0</ele><time>2026-04-09T07:38:42.087Z</time></trkpt><trkpt lat="41.02909" lon="14.7427933"><ele>425.0</ele><time>2026-04-09T07:38:43.087Z</time></trkpt><trkpt lat="41.0291917" lon="14.7428033"><ele>425.0</ele><time>2026-04-09T07:38:44.087Z</time></trkpt><trkpt lat="41.0292733" lon="14.7428167"><ele>425.0</ele><time>2026-04-09T07:38:45.087Z</time></trkpt><trkpt lat="41.0293483" lon="14.7428233"><ele>424.0</ele><time>2026-04-09T07:38:46.087Z</time></trkpt><trkpt lat="41.0294117" lon="14.7428217"><ele>423.0</ele><time>2026-04-09T07:38:47.087Z</time></trkpt><trkpt lat="41.0295133" lon="14.7427483"><ele>422.0</ele><time>2026-04-09T07:38:49.087Z</time></trkpt><trkpt lat="41.0295483" lon="14.7426767"><ele>421.0</ele><time>2026-04-09T07:38:50.087Z</time></trkpt><trkpt lat="41.029585" lon="14.7426017"><ele>420.0</ele><time>2026-04-09T07:38:51.087Z</time></trkpt><trkpt lat="41.0296283" lon="14.74253"><ele>419.0</ele><time>2026-04-09T07:38:52.087Z</time></trkpt><trkpt lat="41.029675" lon="14.742465"><ele>418.0</ele><time>2026-04-09T07:38:53.087Z</time></trkpt><trkpt lat="41.02971" lon="14.742395"><ele>417.83333333333337</ele><time>2026-04-09T07:38:54.087Z</time></trkpt><trkpt lat="41.0297717" lon="14.7422583"><ele>417.6666666666667</ele><time>2026-04-09T07:38:56.087Z</time></trkpt><trkpt lat="41.0298133" lon="14.7421883"><ele>417.5</ele><time>2026-04-09T07:38:57.087Z</time></trkpt><trkpt lat="41.0298533" lon="14.74211"><ele>417.33333333333337</ele><time>2026-04-09T07:38:58.087Z</time></trkpt><trkpt lat="41.0299017" lon="14.7420267"><ele>417.1666666666667</ele><time>2026-04-09T07:38:59.087Z</time></trkpt><trkpt lat="41.0299533" lon="14.74194"><ele>417.0</ele><time>2026-04-09T07:39:00.087Z</time></trkpt><trkpt lat="41.03001" lon="14.74186"><ele>415.1666666666667</ele><time>2026-04-09T07:39:01.087Z</time></trkpt><trkpt lat="41.0300717" lon="14.741795"><ele>413.33333333333337</ele><time>2026-04-09T07:39:02.087Z</time></trkpt><trkpt lat="41.0301317" lon="14.7417333"><ele>411.5</ele><time>2026-04-09T07:39:03.087Z</time></trkpt><trkpt lat="41.0301867" lon="14.7416667"><ele>409.6666666666667</ele><time>2026-04-09T07:39:04.087Z</time></trkpt><trkpt lat="41.0302383" lon="14.7416033"><ele>407.83333333333337</ele><time>2026-04-09T07:39:05.087Z</time></trkpt><trkpt lat="41.0302983" lon="14.7415333"><ele>406.0</ele><time>2026-04-09T07:39:06.087Z</time></trkpt><trkpt lat="41.0303583" lon="14.741465"><ele>406.00000000000006</ele><time>2026-04-09T07:39:07.087Z</time></trkpt><trkpt lat="41.030425" lon="14.74141"><ele>406.0</ele><time>2026-04-09T07:39:08.087Z</time></trkpt><trkpt lat="41.0305033" lon="14.7413483"><ele>406.0</ele><time>2026-04-09T07:39:09.087Z</time></trkpt><trkpt lat="41.0305833" lon="14.741285"><ele>406.0</ele><time>2026-04-09T07:39:10.087Z</time></trkpt><trkpt lat="41.030655" lon="14.741235"><ele>406.00000000000006</ele><time>2026-04-09T07:39:11.087Z</time></trkpt><trkpt lat="41.0307217" lon="14.741185"><ele>406.0</ele><time>2026-04-09T07:39:12.087Z</time></trkpt><trkpt lat="41.0307783" lon="14.74113"><ele>405.50000000000006</ele><time>2026-04-09T07:39:13.087Z</time></trkpt><trkpt lat="41.03083" lon="14.7410767"><ele>405.0</ele><time>2026-04-09T07:39:14.087Z</time></trkpt><trkpt lat="41.0309217" lon="14.7409583"><ele>404.5</ele><time>2026-04-09T07:39:16.087Z</time></trkpt><trkpt lat="41.030965" lon="14.7408867"><ele>404.0</ele><time>2026-04-09T07:39:17.087Z</time></trkpt><trkpt lat="41.03101" lon="14.740805"><ele>403.50000000000006</ele><time>2026-04-09T07:39:18.087Z</time></trkpt><trkpt lat="41.03106" lon="14.7407217"><ele>403.0</ele><time>2026-04-09T07:39:19.087Z</time></trkpt><trkpt lat="41.031115" lon="14.74064"><ele>401.6666666666667</ele><time>2026-04-09T07:39:20.087Z</time></trkpt><trkpt lat="41.03118" lon="14.7405833"><ele>400.33333333333337</ele><time>2026-04-09T07:39:21.087Z</time></trkpt><trkpt lat="41.031255" lon="14.7405333"><ele>399.0</ele><time>2026-04-09T07:39:22.087Z</time></trkpt><trkpt lat="41.0313383" lon="14.740495"><ele>397.66666666666663</ele><time>2026-04-09T07:39:23.087Z</time></trkpt><trkpt lat="41.0314217" lon="14.7404667"><ele>396.3333333333333</ele><time>2026-04-09T07:39:24.087Z</time></trkpt><trkpt lat="41.0315033" lon="14.7404317"><ele>395.0</ele><time>2026-04-09T07:39:25.087Z</time></trkpt><trkpt lat="41.031585" lon="14.7404017"><ele>393.3333333333333</ele><time>2026-04-09T07:39:26.087Z</time></trkpt><trkpt lat="41.0316667" lon="14.7403633"><ele>391.66666666666663</ele><time>2026-04-09T07:39:27.087Z</time></trkpt><trkpt lat="41.0317367" lon="14.7403167"><ele>390.0</ele><time>2026-04-09T07:39:28.087Z</time></trkpt><trkpt lat="41.031795" lon="14.7402667"><ele>388.33333333333337</ele><time>2026-04-09T07:39:29.087Z</time></trkpt><trkpt lat="41.0318367" lon="14.7401983"><ele>386.6666666666667</ele><time>2026-04-09T07:39:30.087Z</time></trkpt><trkpt lat="41.0318667" lon="14.7401083"><ele>385.0</ele><time>2026-04-09T07:39:31.087Z</time></trkpt><trkpt lat="41.0318867" lon="14.7400083"><ele>385.00000000000006</ele><time>2026-04-09T07:39:32.087Z</time></trkpt><trkpt lat="41.0318933" lon="14.7399117"><ele>385.0</ele><time>2026-04-09T07:39:33.087Z</time></trkpt><trkpt lat="41.0318883" lon="14.7398167"><ele>385.0</ele><time>2026-04-09T07:39:34.087Z</time></trkpt><trkpt lat="41.03186" lon="14.73972"><ele>385.0</ele><time>2026-04-09T07:39:35.087Z</time></trkpt><trkpt lat="41.0318133" lon="14.73964"><ele>385.00000000000006</ele><time>2026-04-09T07:39:36.087Z</time></trkpt><trkpt lat="41.0317667" lon="14.7395683"><ele>385.0</ele><time>2026-04-09T07:39:37.087Z</time></trkpt><trkpt lat="41.0317333" lon="14.739415"><ele>385.00000000000006</ele><time>2026-04-09T07:39:39.087Z</time></trkpt><trkpt lat="41.03178" lon="14.7392767"><ele>385.0</ele><time>2026-04-09T07:39:41.087Z</time></trkpt><trkpt lat="41.031835" lon="14.7392217"><ele>385.0</ele><time>2026-04-09T07:39:42.087Z</time></trkpt><trkpt lat="41.0318983" lon="14.73917"><ele>385.0</ele><time>2026-04-09T07:39:43.087Z</time></trkpt><trkpt lat="41.0319767" lon="14.7391217"><ele>385.00000000000006</ele><time>2026-04-09T07:39:44.087Z</time></trkpt><trkpt lat="41.0320633" lon="14.7390917"><ele>385.0</ele><time>2026-04-09T07:39:45.087Z</time></trkpt><trkpt lat="41.03216" lon="14.7390717"><ele>385.0</ele><time>2026-04-09T07:39:46.087Z</time></trkpt><trkpt lat="41.0322633" lon="14.739065"><ele>385.0</ele><time>2026-04-09T07:39:47.087Z</time></trkpt><trkpt lat="41.0323717" lon="14.739065"><ele>385.0</ele><time>2026-04-09T07:39:48.087Z</time></trkpt><trkpt lat="41.0324767" lon="14.7390633"><ele>385.0</ele><time>2026-04-09T07:39:49.087Z</time></trkpt><trkpt lat="41.03257" lon="14.739065"><ele>385.0</ele><time>2026-04-09T07:39:50.087Z</time></trkpt><trkpt lat="41.0326567" lon="14.739045"><ele>383.4</ele><time>2026-04-09T07:39:51.087Z</time></trkpt><trkpt lat="41.032745" lon="14.73901"><ele>381.8</ele><time>2026-04-09T07:39:52.087Z</time></trkpt><trkpt lat="41.03282" lon="14.7389317"><ele>380.20000000000005</ele><time>2026-04-09T07:39:53.087Z</time></trkpt><trkpt lat="41.0328933" lon="14.738825"><ele>378.6</ele><time>2026-04-09T07:39:54.087Z</time></trkpt><trkpt lat="41.0329617" lon="14.7387117"><ele>377.0</ele><time>2026-04-09T07:39:55.087Z</time></trkpt><trkpt lat="41.03303" lon="14.7385867"><ele>377.5</ele><time>2026-04-09T07:39:56.087Z</time></trkpt><trkpt lat="41.0330967" lon="14.73847"><ele>378.0</ele><time>2026-04-09T07:39:57.087Z</time></trkpt><trkpt lat="41.0331617" lon="14.7383433"><ele>378.5</ele><time>2026-04-09T07:39:58.087Z</time></trkpt><trkpt lat="41.0332183" lon="14.738215"><ele>379.0</ele><time>2026-04-09T07:39:59.087Z</time></trkpt><trkpt lat="41.03328" lon="14.7380867"><ele>378.0</ele><time>2026-04-09T07:40:00.087Z</time></trkpt><trkpt lat="41.0333333" lon="14.7379583"><ele>377.0</ele><time>2026-04-09T07:40:01.087Z</time></trkpt><trkpt lat="41.0334067" lon="14.7378083"><ele>376.0</ele><time>2026-04-09T07:40:02.087Z</time></trkpt><trkpt lat="41.0334883" lon="14.737695"><ele>375.0</ele><time>2026-04-09T07:40:03.087Z</time></trkpt><trkpt lat="41.0335833" lon="14.7375667"><ele>375.0</ele><time>2026-04-09T07:40:04.087Z</time></trkpt><trkpt lat="41.0336817" lon="14.7374417"><ele>375.0</ele><time>2026-04-09T07:40:05.087Z</time></trkpt><trkpt lat="41.0337783" lon="14.7373133"><ele>375.0</ele><time>2026-04-09T07:40:06.087Z</time></trkpt><trkpt lat="41.03387" lon="14.7371883"><ele>375.0</ele><time>2026-04-09T07:40:07.087Z</time></trkpt><trkpt lat="41.0339533" lon="14.737065"><ele>375.0</ele><time>2026-04-09T07:40:08.087Z</time></trkpt><trkpt lat="41.03404" lon="14.7369567"><ele>375.0</ele><time>2026-04-09T07:40:09.087Z</time></trkpt><trkpt lat="41.03412" lon="14.7368567"><ele>375.0</ele><time>2026-04-09T07:40:10.087Z</time></trkpt><trkpt lat="41.0341967" lon="14.7367667"><ele>375.0</ele><time>2026-04-09T07:40:11.087Z</time></trkpt><trkpt lat="41.0342817" lon="14.7367033"><ele>375.0</ele><time>2026-04-09T07:40:12.087Z</time></trkpt><trkpt lat="41.0343733" lon="14.7366717"><ele>372.5</ele><time>2026-04-09T07:40:13.087Z</time></trkpt><trkpt lat="41.0345067" lon="14.736645"><ele>370.0</ele><time>2026-04-09T07:40:14.087Z</time></trkpt><trkpt lat="41.03464" lon="14.7366167"><ele>367.5</ele><time>2026-04-09T07:40:15.087Z</time></trkpt><trkpt lat="41.0347733" lon="14.736595"><ele>365.0</ele><time>2026-04-09T07:40:16.087Z</time></trkpt><trkpt lat="41.0348967" lon="14.7365717"><ele>364.0</ele><time>2026-04-09T07:40:17.087Z</time></trkpt><trkpt lat="41.0350133" lon="14.7365567"><ele>363.0</ele><time>2026-04-09T07:40:18.087Z</time></trkpt><trkpt lat="41.03512" lon="14.7365367"><ele>362.0</ele><time>2026-04-09T07:40:19.087Z</time></trkpt><trkpt lat="41.0352233" lon="14.7364983"><ele>361.0</ele><time>2026-04-09T07:40:20.087Z</time></trkpt><trkpt lat="41.0353217" lon="14.7364433"><ele>360.0</ele><time>2026-04-09T07:40:21.087Z</time></trkpt><trkpt lat="41.0354217" lon="14.7363583"><ele>360.0</ele><time>2026-04-09T07:40:22.087Z</time></trkpt><trkpt lat="41.0355267" lon="14.7362767"><ele>360.0</ele><time>2026-04-09T07:40:23.087Z</time></trkpt><trkpt lat="41.035625" lon="14.7362"><ele>360.0</ele><time>2026-04-09T07:40:24.087Z</time></trkpt><trkpt lat="41.03572" lon="14.7361283"><ele>360.0</ele><time>2026-04-09T07:40:25.087Z</time></trkpt><trkpt lat="41.03581" lon="14.7360517"><ele>359.4</ele><time>2026-04-09T07:40:26.087Z</time></trkpt><trkpt lat="41.0358967" lon="14.7359583"><ele>358.8</ele><time>2026-04-09T07:40:27.087Z</time></trkpt><trkpt lat="41.035965" lon="14.735845"><ele>358.20000000000005</ele><time>2026-04-09T07:40:28.087Z</time></trkpt><trkpt lat="41.03603" lon="14.7357367"><ele>357.6</ele><time>2026-04-09T07:40:29.087Z</time></trkpt><trkpt lat="41.0360917" lon="14.7356233"><ele>357.0</ele><time>2026-04-09T07:40:30.087Z</time></trkpt><trkpt lat="41.0361433" lon="14.735515"><ele>357.0</ele><time>2026-04-09T07:40:31.087Z</time></trkpt><trkpt lat="41.0362" lon="14.7354033"><ele>357.0</ele><time>2026-04-09T07:40:32.087Z</time></trkpt><trkpt lat="41.0362433" lon="14.735295"><ele>357.0</ele><time>2026-04-09T07:40:33.087Z</time></trkpt><trkpt lat="41.036285" lon="14.7352017"><ele>357.0</ele><time>2026-04-09T07:40:34.087Z</time></trkpt><trkpt lat="41.0363167" lon="14.7351067"><ele>357.0</ele><time>2026-04-09T07:40:35.087Z</time></trkpt><trkpt lat="41.0363533" lon="14.7350233"><ele>357.0</ele><time>2026-04-09T07:40:36.087Z</time></trkpt><trkpt lat="41.0363883" lon="14.7349467"><ele>356.0</ele><time>2026-04-09T07:40:37.087Z</time></trkpt><trkpt lat="41.0364683" lon="14.7348283"><ele>355.0</ele><time>2026-04-09T07:40:39.087Z</time></trkpt><trkpt lat="41.0365517" lon="14.734715"><ele>354.0</ele><time>2026-04-09T07:40:41.087Z</time></trkpt><trkpt lat="41.036615" lon="14.7345883"><ele>353.0</ele><time>2026-04-09T07:40:43.087Z</time></trkpt><trkpt lat="41.036655" lon="14.7345033"><ele>352.0</ele><time>2026-04-09T07:40:44.087Z</time></trkpt><trkpt lat="41.036695" lon="14.734415"><ele>350.3333333333333</ele><time>2026-04-09T07:40:45.087Z</time></trkpt><trkpt lat="41.0367333" lon="14.7343317"><ele>348.66666666666663</ele><time>2026-04-09T07:40:46.087Z</time></trkpt><trkpt lat="41.0367767" lon="14.7342633"><ele>347.0</ele><time>2026-04-09T07:40:47.087Z</time></trkpt><trkpt lat="41.0368383" lon="14.73421"><ele>345.3333333333333</ele><time>2026-04-09T07:40:48.087Z</time></trkpt><trkpt lat="41.0369183" lon="14.7341633"><ele>343.6666666666667</ele><time>2026-04-09T07:40:49.087Z</time></trkpt><trkpt lat="41.0370017" lon="14.7341333"><ele>342.0</ele><time>2026-04-09T07:40:50.087Z</time></trkpt><trkpt lat="41.0370967" lon="14.73411"><ele>342.0</ele><time>2026-04-09T07:40:51.087Z</time></trkpt><trkpt lat="41.0372" lon="14.7341017"><ele>342.0</ele><time>2026-04-09T07:40:52.087Z</time></trkpt><trkpt lat="41.0373017" lon="14.734095"><ele>342.0</ele><time>2026-04-09T07:40:53.087Z</time></trkpt><trkpt lat="41.0374067" lon="14.7340867"><ele>342.0</ele><time>2026-04-09T07:40:54.087Z</time></trkpt><trkpt lat="41.0375133" lon="14.7340733"><ele>342.0</ele><time>2026-04-09T07:40:55.087Z</time></trkpt><trkpt lat="41.03762" lon="14.73406"><ele>340.40000000000003</ele><time>2026-04-09T07:40:56.087Z</time></trkpt><trkpt lat="41.0377333" lon="14.7340533"><ele>338.8</ele><time>2026-04-09T07:40:57.087Z</time></trkpt><trkpt lat="41.0378333" lon="14.7340483"><ele>337.2</ele><time>2026-04-09T07:40:58.087Z</time></trkpt><trkpt lat="41.0379367" lon="14.7340383"><ele>335.6</ele><time>2026-04-09T07:40:59.087Z</time></trkpt><trkpt lat="41.038035" lon="14.7340317"><ele>334.0</ele><time>2026-04-09T07:41:00.087Z</time></trkpt><trkpt lat="41.0381367" lon="14.7340217"><ele>334.0</ele><time>2026-04-09T07:41:01.087Z</time></trkpt><trkpt lat="41.0382333" lon="14.7340167"><ele>334.0</ele><time>2026-04-09T07:41:02.087Z</time></trkpt><trkpt lat="41.0383333" lon="14.734005"><ele>334.0</ele><time>2026-04-09T07:41:03.087Z</time></trkpt><trkpt lat="41.0384333" lon="14.7339967"><ele>334.0</ele><time>2026-04-09T07:41:04.087Z</time></trkpt><trkpt lat="41.03853" lon="14.7339817"><ele>334.0</ele><time>2026-04-09T07:41:05.087Z</time></trkpt><trkpt lat="41.0386333" lon="14.73397"><ele>333.8333333333333</ele><time>2026-04-09T07:41:06.087Z</time></trkpt><trkpt lat="41.0387233" lon="14.7339633"><ele>333.66666666666663</ele><time>2026-04-09T07:41:07.087Z</time></trkpt><trkpt lat="41.0388133" lon="14.733955"><ele>333.5</ele><time>2026-04-09T07:41:08.087Z</time></trkpt><trkpt lat="41.0388933" lon="14.73393"><ele>333.3333333333333</ele><time>2026-04-09T07:41:09.087Z</time></trkpt><trkpt lat="41.0389717" lon="14.733895"><ele>333.1666666666667</ele><time>2026-04-09T07:41:10.087Z</time></trkpt><trkpt lat="41.039045" lon="14.7338383"><ele>333.0</ele><time>2026-04-09T07:41:11.087Z</time></trkpt><trkpt lat="41.03911" lon="14.7337567"><ele>331.0</ele><time>2026-04-09T07:41:12.087Z</time></trkpt><trkpt lat="41.0391683" lon="14.7336567"><ele>329.0</ele><time>2026-04-09T07:41:13.087Z</time></trkpt><trkpt lat="41.03923" lon="14.733545"><ele>327.0</ele><time>2026-04-09T07:41:14.087Z</time></trkpt><trkpt lat="41.0392933" lon="14.733445"><ele>325.0</ele><time>2026-04-09T07:41:15.087Z</time></trkpt><trkpt lat="41.03937" lon="14.7333417"><ele>323.0</ele><time>2026-04-09T07:41:16.087Z</time></trkpt><trkpt lat="41.0394383" lon="14.73324"><ele>322.4</ele><time>2026-04-09T07:41:17.087Z</time></trkpt><trkpt lat="41.0394983" lon="14.7331267"><ele>321.79999999999995</ele><time>2026-04-09T07:41:18.087Z</time></trkpt><trkpt lat="41.0395533" lon="14.7330017"><ele>321.2</ele><time>2026-04-09T07:41:19.087Z</time></trkpt><trkpt lat="41.0396" lon="14.73287"><ele>320.6</ele><time>2026-04-09T07:41:20.087Z</time></trkpt><trkpt lat="41.0396433" lon="14.73272"><ele>320.0</ele><time>2026-04-09T07:41:21.087Z</time></trkpt><trkpt lat="41.03968" lon="14.7325817"><ele>319.0</ele><time>2026-04-09T07:41:22.087Z</time></trkpt><trkpt lat="41.0397083" lon="14.73245"><ele>318.0</ele><time>2026-04-09T07:41:23.087Z</time></trkpt><trkpt lat="41.0397283" lon="14.73233"><ele>317.0</ele><time>2026-04-09T07:41:24.087Z</time></trkpt><trkpt lat="41.0397567" lon="14.7322233"><ele>316.0</ele><time>2026-04-09T07:41:25.087Z</time></trkpt><trkpt lat="41.03979" lon="14.7321217"><ele>315.0</ele><time>2026-04-09T07:41:26.087Z</time></trkpt><trkpt lat="41.0398333" lon="14.7320367"><ele>314.0</ele><time>2026-04-09T07:41:27.087Z</time></trkpt><trkpt lat="41.03989" lon="14.731975"><ele>314.0</ele><time>2026-04-09T07:41:28.087Z</time></trkpt><trkpt lat="41.0399633" lon="14.7319417"><ele>314.0</ele><time>2026-04-09T07:41:29.087Z</time></trkpt><trkpt lat="41.0400383" lon="14.7319433"><ele>314.0</ele><time>2026-04-09T07:41:30.087Z</time></trkpt><trkpt lat="41.0401167" lon="14.7319717"><ele>314.0</ele><time>2026-04-09T07:41:31.087Z</time></trkpt><trkpt lat="41.0401767" lon="14.73202"><ele>314.0</ele><time>2026-04-09T07:41:32.087Z</time></trkpt><trkpt lat="41.0402167" lon="14.732095"><ele>314.0</ele><time>2026-04-09T07:41:33.087Z</time></trkpt><trkpt lat="41.0402283" lon="14.7322"><ele>312.83333333333337</ele><time>2026-04-09T07:41:34.087Z</time></trkpt><trkpt lat="41.04022" lon="14.7323183"><ele>311.6666666666667</ele><time>2026-04-09T07:41:35.087Z</time></trkpt><trkpt lat="41.0402" lon="14.7324317"><ele>310.5</ele><time>2026-04-09T07:41:36.087Z</time></trkpt><trkpt lat="41.0401783" lon="14.7325383"><ele>309.3333333333333</ele><time>2026-04-09T07:41:37.087Z</time></trkpt><trkpt lat="41.0401617" lon="14.7326367"><ele>308.16666666666663</ele><time>2026-04-09T07:41:38.087Z</time></trkpt><trkpt lat="41.0401467" lon="14.7327417"><ele>307.0</ele><time>2026-04-09T07:41:39.087Z</time></trkpt><trkpt lat="41.04014" lon="14.73285"><ele>307.0</ele><time>2026-04-09T07:41:40.087Z</time></trkpt><trkpt lat="41.0401467" lon="14.73296"><ele>307.0</ele><time>2026-04-09T07:41:41.087Z</time></trkpt><trkpt lat="41.0401633" lon="14.7330683"><ele>307.0</ele><time>2026-04-09T07:41:42.087Z</time></trkpt><trkpt lat="41.0401883" lon="14.73318"><ele>307.0</ele><time>2026-04-09T07:41:43.087Z</time></trkpt><trkpt lat="41.0402433" lon="14.7332967"><ele>307.0</ele><time>2026-04-09T07:41:44.087Z</time></trkpt><trkpt lat="41.0402983" lon="14.7334083"><ele>307.0</ele><time>2026-04-09T07:41:45.087Z</time></trkpt><trkpt lat="41.0403517" lon="14.7335267"><ele>307.0</ele><time>2026-04-09T07:41:46.088Z</time></trkpt><trkpt lat="41.0404033" lon="14.733635"><ele>307.0</ele><time>2026-04-09T07:41:47.087Z</time></trkpt><trkpt lat="41.0404467" lon="14.73373"><ele>307.0</ele><time>2026-04-09T07:41:48.087Z</time></trkpt><trkpt lat="41.0404867" lon="14.73382"><ele>307.0</ele><time>2026-04-09T07:41:49.087Z</time></trkpt><trkpt lat="41.0405233" lon="14.7339117"><ele>307.0</ele><time>2026-04-09T07:41:50.087Z</time></trkpt><trkpt lat="41.0405617" lon="14.7339983"><ele>307.16666666666663</ele><time>2026-04-09T07:41:51.087Z</time></trkpt><trkpt lat="41.040615" lon="14.734075"><ele>307.3333333333333</ele><time>2026-04-09T07:41:52.087Z</time></trkpt><trkpt lat="41.040675" lon="14.734125"><ele>307.5</ele><time>2026-04-09T07:41:53.087Z</time></trkpt><trkpt lat="41.0407417" lon="14.73415"><ele>307.6666666666667</ele><time>2026-04-09T07:41:54.087Z</time></trkpt><trkpt lat="41.0408067" lon="14.7341433"><ele>307.83333333333337</ele><time>2026-04-09T07:41:55.087Z</time></trkpt><trkpt lat="41.0408717" lon="14.7340833"><ele>308.0</ele><time>2026-04-09T07:41:56.087Z</time></trkpt><trkpt lat="41.040935" lon="14.7340017"><ele>305.6666666666667</ele><time>2026-04-09T07:41:57.087Z</time></trkpt><trkpt lat="41.0409917" lon="14.733905"><ele>303.33333333333337</ele><time>2026-04-09T07:41:58.087Z</time></trkpt><trkpt lat="41.04105" lon="14.7337983"><ele>301.0</ele><time>2026-04-09T07:41:59.087Z</time></trkpt><trkpt lat="41.0411083" lon="14.7337133"><ele>298.6666666666667</ele><time>2026-04-09T07:42:00.087Z</time></trkpt><trkpt lat="41.04117" lon="14.7336367"><ele>296.3333333333333</ele><time>2026-04-09T07:42:01.087Z</time></trkpt><trkpt lat="41.0412383" lon="14.733585"><ele>294.0</ele><time>2026-04-09T07:42:02.087Z</time></trkpt><trkpt lat="41.0413333" lon="14.733565"><ele>294.0</ele><time>2026-04-09T07:42:03.087Z</time></trkpt><trkpt lat="41.0414333" lon="14.7335583"><ele>294.0</ele><time>2026-04-09T07:42:04.087Z</time></trkpt><trkpt lat="41.0415383" lon="14.7335633"><ele>294.0</ele><time>2026-04-09T07:42:05.087Z</time></trkpt><trkpt lat="41.04163" lon="14.73356"><ele>294.0</ele><time>2026-04-09T07:42:06.087Z</time></trkpt><trkpt lat="41.041705" lon="14.733515"><ele>294.0</ele><time>2026-04-09T07:42:07.087Z</time></trkpt><trkpt lat="41.041775" lon="14.73345"><ele>292.4</ele><time>2026-04-09T07:42:08.087Z</time></trkpt><trkpt lat="41.04183" lon="14.7333333"><ele>290.79999999999995</ele><time>2026-04-09T07:42:09.087Z</time></trkpt><trkpt lat="41.0418783" lon="14.7332083"><ele>289.20000000000005</ele><time>2026-04-09T07:42:10.087Z</time></trkpt><trkpt lat="41.0419133" lon="14.7330883"><ele>287.6</ele><time>2026-04-09T07:42:11.087Z</time></trkpt><trkpt lat="41.0419483" lon="14.7329717"><ele>286.0</ele><time>2026-04-09T07:42:12.087Z</time></trkpt><trkpt lat="41.04198" lon="14.7328667"><ele>286.0</ele><time>2026-04-09T07:42:13.087Z</time></trkpt><trkpt lat="41.042025" lon="14.7327517"><ele>286.0</ele><time>2026-04-09T07:42:14.087Z</time></trkpt><trkpt lat="41.0420833" lon="14.7326417"><ele>286.0</ele><time>2026-04-09T07:42:15.087Z</time></trkpt><trkpt lat="41.0421533" lon="14.7325267"><ele>286.0</ele><time>2026-04-09T07:42:16.087Z</time></trkpt><trkpt lat="41.0422417" lon="14.7324017"><ele>286.0</ele><time>2026-04-09T07:42:17.087Z</time></trkpt><trkpt lat="41.042335" lon="14.73227"><ele>285.3333333333333</ele><time>2026-04-09T07:42:18.087Z</time></trkpt><trkpt lat="41.0424617" lon="14.7321367"><ele>284.6666666666667</ele><time>2026-04-09T07:42:19.087Z</time></trkpt><trkpt lat="41.04259" lon="14.7320183"><ele>284.0</ele><time>2026-04-09T07:42:20.087Z</time></trkpt><trkpt lat="41.04272" lon="14.7319117"><ele>282.5</ele><time>2026-04-09T07:42:21.087Z</time></trkpt><trkpt lat="41.0428383" lon="14.7318133"><ele>281.0</ele><time>2026-04-09T07:42:22.087Z</time></trkpt><trkpt lat="41.0429433" lon="14.7317183"><ele>279.5</ele><time>2026-04-09T07:42:23.087Z</time></trkpt><trkpt lat="41.0430483" lon="14.731625"><ele>278.0</ele><time>2026-04-09T07:42:24.087Z</time></trkpt><trkpt lat="41.04315" lon="14.731535"><ele>278.0</ele><time>2026-04-09T07:42:25.087Z</time></trkpt><trkpt lat="41.0432467" lon="14.7314467"><ele>278.0</ele><time>2026-04-09T07:42:26.087Z</time></trkpt><trkpt lat="41.0433183" lon="14.731385"><ele>278.0</ele><time>2026-04-09T07:42:27.087Z</time></trkpt><trkpt lat="41.04338" lon="14.7313167"><ele>278.0</ele><time>2026-04-09T07:42:28.087Z</time></trkpt><trkpt lat="41.04345" lon="14.7312467"><ele>278.0</ele><time>2026-04-09T07:42:29.087Z</time></trkpt><trkpt lat="41.043525" lon="14.73117"><ele>278.4</ele><time>2026-04-09T07:42:30.087Z</time></trkpt><trkpt lat="41.043615" lon="14.7310933"><ele>278.8</ele><time>2026-04-09T07:42:31.087Z</time></trkpt><trkpt lat="41.04371" lon="14.7310317"><ele>279.2</ele><time>2026-04-09T07:42:32.087Z</time></trkpt><trkpt lat="41.0438067" lon="14.7309683"><ele>279.6</ele><time>2026-04-09T07:42:33.087Z</time></trkpt><trkpt lat="41.0439" lon="14.7308983"><ele>280.0</ele><time>2026-04-09T07:42:34.087Z</time></trkpt><trkpt lat="41.04398" lon="14.7308017"><ele>280.0</ele><time>2026-04-09T07:42:35.087Z</time></trkpt><trkpt lat="41.04404" lon="14.7306883"><ele>280.0</ele><time>2026-04-09T07:42:36.087Z</time></trkpt><trkpt lat="41.04408" lon="14.7305583"><ele>280.0</ele><time>2026-04-09T07:42:37.087Z</time></trkpt><trkpt lat="41.0441133" lon="14.7304333"><ele>280.0</ele><time>2026-04-09T07:42:38.087Z</time></trkpt><trkpt lat="41.0441467" lon="14.7303083"><ele>280.0</ele><time>2026-04-09T07:42:39.087Z</time></trkpt><trkpt lat="41.0441867" lon="14.7301983"><ele>279.4</ele><time>2026-04-09T07:42:40.087Z</time></trkpt><trkpt lat="41.0442367" lon="14.7300983"><ele>278.8</ele><time>2026-04-09T07:42:41.087Z</time></trkpt><trkpt lat="41.0443033" lon="14.730025"><ele>278.2</ele><time>2026-04-09T07:42:42.087Z</time></trkpt><trkpt lat="41.0443867" lon="14.72998"><ele>277.6</ele><time>2026-04-09T07:42:43.087Z</time></trkpt><trkpt lat="41.0444783" lon="14.7299567"><ele>277.0</ele><time>2026-04-09T07:42:44.087Z</time></trkpt><trkpt lat="41.0445667" lon="14.7299333"><ele>277.0</ele><time>2026-04-09T07:42:45.087Z</time></trkpt><trkpt lat="41.044665" lon="14.7299067"><ele>277.0</ele><time>2026-04-09T07:42:46.087Z</time></trkpt><trkpt lat="41.044765" lon="14.7298783"><ele>277.0</ele><time>2026-04-09T07:42:47.087Z</time></trkpt><trkpt lat="41.0448583" lon="14.729835"><ele>277.0</ele><time>2026-04-09T07:42:48.087Z</time></trkpt><trkpt lat="41.0449533" lon="14.7297633"><ele>277.0</ele><time>2026-04-09T07:42:49.087Z</time></trkpt><trkpt lat="41.045045" lon="14.7296917"><ele>277.75</ele><time>2026-04-09T07:42:50.087Z</time></trkpt><trkpt lat="41.0451483" lon="14.7296233"><ele>278.5</ele><time>2026-04-09T07:42:51.087Z</time></trkpt><trkpt lat="41.045255" lon="14.7295533"><ele>279.25</ele><time>2026-04-09T07:42:52.087Z</time></trkpt><trkpt lat="41.04537" lon="14.7294817"><ele>280.0</ele><time>2026-04-09T07:42:53.087Z</time></trkpt><trkpt lat="41.045475" lon="14.72941"><ele>278.2</ele><time>2026-04-09T07:42:54.087Z</time></trkpt><trkpt lat="41.0455783" lon="14.7293417"><ele>276.4</ele><time>2026-04-09T07:42:55.087Z</time></trkpt><trkpt lat="41.045675" lon="14.72927"><ele>274.6</ele><time>2026-04-09T07:42:56.087Z</time></trkpt><trkpt lat="41.0457683" lon="14.7291967"><ele>272.8</ele><time>2026-04-09T07:42:57.087Z</time></trkpt><trkpt lat="41.045845" lon="14.7291"><ele>271.0</ele><time>2026-04-09T07:42:58.087Z</time></trkpt><trkpt lat="41.0459083" lon="14.728995"><ele>271.0</ele><time>2026-04-09T07:42:59.087Z</time></trkpt><trkpt lat="41.0459683" lon="14.7288883"><ele>271.0</ele><time>2026-04-09T07:43:00.087Z</time></trkpt><trkpt lat="41.04602" lon="14.7287867"><ele>271.0</ele><time>2026-04-09T07:43:01.087Z</time></trkpt><trkpt lat="41.046065" lon="14.728665"><ele>271.0</ele><time>2026-04-09T07:43:02.087Z</time></trkpt><trkpt lat="41.0461217" lon="14.7285367"><ele>271.0</ele><time>2026-04-09T07:43:03.088Z</time></trkpt><trkpt lat="41.0461733" lon="14.7284217"><ele>269.0</ele><time>2026-04-09T07:43:04.087Z</time></trkpt><trkpt lat="41.04623" lon="14.7283233"><ele>267.0</ele><time>2026-04-09T07:43:05.087Z</time></trkpt><trkpt lat="41.0462917" lon="14.728245"><ele>265.0</ele><time>2026-04-09T07:43:06.087Z</time></trkpt><trkpt lat="41.0463717" lon="14.7281783"><ele>263.0</ele><time>2026-04-09T07:43:07.087Z</time></trkpt><trkpt lat="41.0464517" lon="14.72814"><ele>261.0</ele><time>2026-04-09T07:43:08.087Z</time></trkpt><trkpt lat="41.046535" lon="14.728115"><ele>259.0</ele><time>2026-04-09T07:43:09.087Z</time></trkpt><trkpt lat="41.0466233" lon="14.7281"><ele>260.75</ele><time>2026-04-09T07:43:10.087Z</time></trkpt><trkpt lat="41.0467117" lon="14.7280817"><ele>262.5</ele><time>2026-04-09T07:43:11.087Z</time></trkpt><trkpt lat="41.0468117" lon="14.728055"><ele>264.25</ele><time>2026-04-09T07:43:12.087Z</time></trkpt><trkpt lat="41.0469283" lon="14.7280017"><ele>266.0</ele><time>2026-04-09T07:43:13.087Z</time></trkpt><trkpt lat="41.0470483" lon="14.7279133"><ele>266.0</ele><time>2026-04-09T07:43:14.087Z</time></trkpt><trkpt lat="41.0471717" lon="14.7278167"><ele>266.0</ele><time>2026-04-09T07:43:15.087Z</time></trkpt><trkpt lat="41.0472883" lon="14.72773"><ele>266.0</ele><time>2026-04-09T07:43:16.087Z</time></trkpt><trkpt lat="41.047405" lon="14.72765"><ele>266.0</ele><time>2026-04-09T07:43:17.087Z</time></trkpt><trkpt lat="41.0475167" lon="14.727575"><ele>263.5</ele><time>2026-04-09T07:43:18.087Z</time></trkpt><trkpt lat="41.0476233" lon="14.7275017"><ele>261.0</ele><time>2026-04-09T07:43:19.087Z</time></trkpt><trkpt lat="41.04773" lon="14.7274433"><ele>258.5</ele><time>2026-04-09T07:43:20.087Z</time></trkpt><trkpt lat="41.0478333" lon="14.7273883"><ele>256.0</ele><time>2026-04-09T07:43:21.087Z</time></trkpt><trkpt lat="41.047935" lon="14.7273283"><ele>256.0</ele><time>2026-04-09T07:43:22.087Z</time></trkpt><trkpt lat="41.0480383" lon="14.72726"><ele>256.0</ele><time>2026-04-09T07:43:23.087Z</time></trkpt><trkpt lat="41.048125" lon="14.7272067"><ele>256.0</ele><time>2026-04-09T07:43:24.087Z</time></trkpt><trkpt lat="41.0482033" lon="14.7271167"><ele>256.0</ele><time>2026-04-09T07:43:25.087Z</time></trkpt><trkpt lat="41.0482783" lon="14.72699"><ele>256.0</ele><time>2026-04-09T07:43:26.087Z</time></trkpt><trkpt lat="41.0483367" lon="14.7268483"><ele>254.5</ele><time>2026-04-09T07:43:27.087Z</time></trkpt><trkpt lat="41.0483867" lon="14.72669"><ele>253.0</ele><time>2026-04-09T07:43:28.087Z</time></trkpt><trkpt lat="41.0484383" lon="14.72655"><ele>251.5</ele><time>2026-04-09T07:43:29.087Z</time></trkpt><trkpt lat="41.0484933" lon="14.72643"><ele>250.0</ele><time>2026-04-09T07:43:30.087Z</time></trkpt><trkpt lat="41.0485583" lon="14.7263233"><ele>250.0</ele><time>2026-04-09T07:43:31.087Z</time></trkpt><trkpt lat="41.0486283" lon="14.7262233"><ele>250.0</ele><time>2026-04-09T07:43:32.087Z</time></trkpt><trkpt lat="41.04872" lon="14.7261133"><ele>250.0</ele><time>2026-04-09T07:43:33.087Z</time></trkpt><trkpt lat="41.0488217" lon="14.7260033"><ele>250.0</ele><time>2026-04-09T07:43:34.087Z</time></trkpt><trkpt lat="41.0489333" lon="14.7258833"><ele>251.0</ele><time>2026-04-09T07:43:35.087Z</time></trkpt><trkpt lat="41.0490433" lon="14.72576"><ele>252.0</ele><time>2026-04-09T07:43:36.087Z</time></trkpt><trkpt lat="41.0491617" lon="14.7256267"><ele>253.0</ele><time>2026-04-09T07:43:37.087Z</time></trkpt><trkpt lat="41.0492833" lon="14.7254717"><ele>253.0</ele><time>2026-04-09T07:43:38.087Z</time></trkpt><trkpt lat="41.049395" lon="14.7253033"><ele>253.0</ele><time>2026-04-09T07:43:39.087Z</time></trkpt><trkpt lat="41.0495017" lon="14.7251233"><ele>253.0</ele><time>2026-04-09T07:43:40.087Z</time></trkpt><trkpt lat="41.0496033" lon="14.7249383"><ele>250.33333333333331</ele><time>2026-04-09T07:43:41.087Z</time></trkpt><trkpt lat="41.0497" lon="14.724755"><ele>247.66666666666669</ele><time>2026-04-09T07:43:42.087Z</time></trkpt><trkpt lat="41.0497917" lon="14.7245867"><ele>245.0</ele><time>2026-04-09T07:43:43.087Z</time></trkpt><trkpt lat="41.04987" lon="14.724425"><ele>245.75</ele><time>2026-04-09T07:43:44.087Z</time></trkpt><trkpt lat="41.0499333" lon="14.7242633"><ele>246.5</ele><time>2026-04-09T07:43:45.087Z</time></trkpt><trkpt lat="41.0499767" lon="14.7241067"><ele>247.25</ele><time>2026-04-09T07:43:46.087Z</time></trkpt><trkpt lat="41.0500317" lon="14.72398"><ele>248.0</ele><time>2026-04-09T07:43:47.087Z</time></trkpt><trkpt lat="41.0501" lon="14.7238833"><ele>248.0</ele><time>2026-04-09T07:43:48.087Z</time></trkpt><trkpt lat="41.0501967" lon="14.7238033"><ele>248.0</ele><time>2026-04-09T07:43:49.087Z</time></trkpt><trkpt lat="41.0502983" lon="14.7237367"><ele>248.0</ele><time>2026-04-09T07:43:50.087Z</time></trkpt><trkpt lat="41.0504033" lon="14.723665"><ele>248.0</ele><time>2026-04-09T07:43:51.087Z</time></trkpt><trkpt lat="41.0505033" lon="14.723605"><ele>247.2</ele><time>2026-04-09T07:43:52.087Z</time></trkpt><trkpt lat="41.0505983" lon="14.7235417"><ele>246.4</ele><time>2026-04-09T07:43:53.087Z</time></trkpt><trkpt lat="41.0506867" lon="14.7234733"><ele>245.59999999999997</ele><time>2026-04-09T07:43:54.087Z</time></trkpt><trkpt lat="41.0507717" lon="14.7234083"><ele>244.79999999999998</ele><time>2026-04-09T07:43:55.087Z</time></trkpt><trkpt lat="41.050855" lon="14.72334"><ele>244.0</ele><time>2026-04-09T07:43:56.087Z</time></trkpt><trkpt lat="41.05094" lon="14.72329"><ele>244.0</ele><time>2026-04-09T07:43:57.087Z</time></trkpt><trkpt lat="41.051025" lon="14.723245"><ele>243.99999999999997</ele><time>2026-04-09T07:43:58.087Z</time></trkpt><trkpt lat="41.0511083" lon="14.72319"><ele>243.99999999999997</ele><time>2026-04-09T07:43:59.087Z</time></trkpt><trkpt lat="41.0511983" lon="14.7231133"><ele>244.0</ele><time>2026-04-09T07:44:00.087Z</time></trkpt><trkpt lat="41.051305" lon="14.7230683"><ele>244.0</ele><time>2026-04-09T07:44:01.087Z</time></trkpt><trkpt lat="41.0514017" lon="14.7229417"><ele>244.0</ele><time>2026-04-09T07:44:02.087Z</time></trkpt><trkpt lat="41.0514833" lon="14.7227833"><ele>244.0</ele><time>2026-04-09T07:44:03.087Z</time></trkpt><trkpt lat="41.051565" lon="14.7225917"><ele>244.0</ele><time>2026-04-09T07:44:04.087Z</time></trkpt><trkpt lat="41.051625" lon="14.7223967"><ele>242.33333333333331</ele><time>2026-04-09T07:44:05.087Z</time></trkpt><trkpt lat="41.0516883" lon="14.722205"><ele>240.66666666666669</ele><time>2026-04-09T07:44:06.087Z</time></trkpt><trkpt lat="41.051765" lon="14.722025"><ele>239.0</ele><time>2026-04-09T07:44:07.087Z</time></trkpt><trkpt lat="41.0518633" lon="14.72187"><ele>236.33333333333334</ele><time>2026-04-09T07:44:08.087Z</time></trkpt><trkpt lat="41.05198" lon="14.7217183"><ele>233.66666666666669</ele><time>2026-04-09T07:44:09.087Z</time></trkpt><trkpt lat="41.0520933" lon="14.72157"><ele>231.0</ele><time>2026-04-09T07:44:10.087Z</time></trkpt><trkpt lat="41.0522" lon="14.7214"><ele>231.0</ele><time>2026-04-09T07:44:11.087Z</time></trkpt><trkpt lat="41.0522833" lon="14.7212367"><ele>231.0</ele><time>2026-04-09T07:44:12.087Z</time></trkpt><trkpt lat="41.0523533" lon="14.721075"><ele>231.0</ele><time>2026-04-09T07:44:13.087Z</time></trkpt><trkpt lat="41.0524167" lon="14.7209233"><ele>231.0</ele><time>2026-04-09T07:44:14.087Z</time></trkpt><trkpt lat="41.052475" lon="14.7207833"><ele>231.8</ele><time>2026-04-09T07:44:15.087Z</time></trkpt><trkpt lat="41.05253" lon="14.720655"><ele>232.60000000000002</ele><time>2026-04-09T07:44:16.087Z</time></trkpt><trkpt lat="41.0525883" lon="14.72054"><ele>233.4</ele><time>2026-04-09T07:44:17.087Z</time></trkpt><trkpt lat="41.0526417" lon="14.72042"><ele>234.2</ele><time>2026-04-09T07:44:18.087Z</time></trkpt><trkpt lat="41.052695" lon="14.72029"><ele>235.0</ele><time>2026-04-09T07:44:19.087Z</time></trkpt><trkpt lat="41.0527433" lon="14.7201467"><ele>233.0</ele><time>2026-04-09T07:44:20.087Z</time></trkpt><trkpt lat="41.052785" lon="14.7199917"><ele>231.0</ele><time>2026-04-09T07:44:21.087Z</time></trkpt><trkpt lat="41.0528233" lon="14.719835"><ele>229.0</ele><time>2026-04-09T07:44:22.087Z</time></trkpt><trkpt lat="41.0528633" lon="14.7196683"><ele>227.0</ele><time>2026-04-09T07:44:23.087Z</time></trkpt><trkpt lat="41.0529067" lon="14.7194917"><ele>225.5</ele><time>2026-04-09T07:44:24.087Z</time></trkpt><trkpt lat="41.05296" lon="14.71931"><ele>224.0</ele><time>2026-04-09T07:44:25.087Z</time></trkpt><trkpt lat="41.0530117" lon="14.7191267"><ele>222.5</ele><time>2026-04-09T07:44:26.087Z</time></trkpt><trkpt lat="41.0530583" lon="14.7189433"><ele>221.0</ele><time>2026-04-09T07:44:27.087Z</time></trkpt><trkpt lat="41.0531" lon="14.7187617"><ele>221.0</ele><time>2026-04-09T07:44:28.087Z</time></trkpt><trkpt lat="41.0531417" lon="14.7185783"><ele>221.0</ele><time>2026-04-09T07:44:29.087Z</time></trkpt><trkpt lat="41.053185" lon="14.7184067"><ele>221.0</ele><time>2026-04-09T07:44:30.087Z</time></trkpt><trkpt lat="41.0532317" lon="14.71825"><ele>221.0</ele><time>2026-04-09T07:44:31.087Z</time></trkpt><trkpt lat="41.0532817" lon="14.7181083"><ele>221.60000000000002</ele><time>2026-04-09T07:44:32.087Z</time></trkpt><trkpt lat="41.05334" lon="14.7179733"><ele>222.20000000000002</ele><time>2026-04-09T07:44:33.087Z</time></trkpt><trkpt lat="41.0533967" lon="14.7178467"><ele>222.79999999999998</ele><time>2026-04-09T07:44:34.087Z</time></trkpt><trkpt lat="41.05345" lon="14.7177183"><ele>223.39999999999998</ele><time>2026-04-09T07:44:35.087Z</time></trkpt><trkpt lat="41.0535083" lon="14.7176017"><ele>224.0</ele><time>2026-04-09T07:44:36.087Z</time></trkpt><trkpt lat="41.0535617" lon="14.7174933"><ele>222.5</ele><time>2026-04-09T07:44:37.087Z</time></trkpt><trkpt lat="41.0536167" lon="14.7173867"><ele>221.0</ele><time>2026-04-09T07:44:38.087Z</time></trkpt><trkpt lat="41.05368" lon="14.7172717"><ele>219.5</ele><time>2026-04-09T07:44:39.087Z</time></trkpt><trkpt lat="41.0537533" lon="14.71714"><ele>218.0</ele><time>2026-04-09T07:44:40.087Z</time></trkpt><trkpt lat="41.0538333" lon="14.716995"><ele>217.33333333333334</ele><time>2026-04-09T07:44:41.087Z</time></trkpt><trkpt lat="41.0539283" lon="14.7168367"><ele>216.66666666666669</ele><time>2026-04-09T07:44:42.087Z</time></trkpt><trkpt lat="41.0540167" lon="14.716665"><ele>216.0</ele><time>2026-04-09T07:44:43.087Z</time></trkpt><trkpt lat="41.054115" lon="14.7164983"><ele>216.66666666666669</ele><time>2026-04-09T07:44:44.087Z</time></trkpt><trkpt lat="41.0542133" lon="14.7163483"><ele>217.33333333333334</ele><time>2026-04-09T07:44:45.087Z</time></trkpt><trkpt lat="41.0543233" lon="14.7162067"><ele>218.0</ele><time>2026-04-09T07:44:46.087Z</time></trkpt><trkpt lat="41.054445" lon="14.716085"><ele>216.66666666666669</ele><time>2026-04-09T07:44:47.087Z</time></trkpt><trkpt lat="41.054575" lon="14.7159733"><ele>215.33333333333331</ele><time>2026-04-09T07:44:48.087Z</time></trkpt><trkpt lat="41.054715" lon="14.7158667"><ele>214.0</ele><time>2026-04-09T07:44:49.087Z</time></trkpt><trkpt lat="41.0548667" lon="14.71577"><ele>214.0</ele><time>2026-04-09T07:44:50.087Z</time></trkpt><trkpt lat="41.0550317" lon="14.715685"><ele>214.0</ele><time>2026-04-09T07:44:51.087Z</time></trkpt><trkpt lat="41.055215" lon="14.7156133"><ele>214.0</ele><time>2026-04-09T07:44:52.087Z</time></trkpt><trkpt lat="41.0553983" lon="14.7155567"><ele>214.0</ele><time>2026-04-09T07:44:53.087Z</time></trkpt><trkpt lat="41.0555817" lon="14.7155"><ele>214.0</ele><time>2026-04-09T07:44:54.087Z</time></trkpt><trkpt lat="41.0557533" lon="14.7154517"><ele>214.0</ele><time>2026-04-09T07:44:55.087Z</time></trkpt><trkpt lat="41.0559167" lon="14.7153983"><ele>214.33333333333331</ele><time>2026-04-09T07:44:56.087Z</time></trkpt><trkpt lat="41.0560817" lon="14.715335"><ele>214.66666666666669</ele><time>2026-04-09T07:44:57.087Z</time></trkpt><trkpt lat="41.0562433" lon="14.7152833"><ele>215.0</ele><time>2026-04-09T07:44:58.087Z</time></trkpt><trkpt lat="41.0564" lon="14.71523"><ele>213.0</ele><time>2026-04-09T07:44:59.087Z</time></trkpt><trkpt lat="41.056555" lon="14.7151733"><ele>211.0</ele><time>2026-04-09T07:45:00.087Z</time></trkpt><trkpt lat="41.0567033" lon="14.7151167"><ele>209.0</ele><time>2026-04-09T07:45:01.087Z</time></trkpt><trkpt lat="41.056835" lon="14.7150683"><ele>209.0</ele><time>2026-04-09T07:45:02.087Z</time></trkpt><trkpt lat="41.05697" lon="14.7150233"><ele>209.0</ele><time>2026-04-09T07:45:03.087Z</time></trkpt><trkpt lat="41.0570983" lon="14.71498"><ele>209.0</ele><time>2026-04-09T07:45:04.087Z</time></trkpt><trkpt lat="41.0572167" lon="14.7149367"><ele>209.0</ele><time>2026-04-09T07:45:05.087Z</time></trkpt><trkpt lat="41.0573267" lon="14.7148917"><ele>209.0</ele><time>2026-04-09T07:45:06.087Z</time></trkpt><trkpt lat="41.0574383" lon="14.71485"><ele>209.0</ele><time>2026-04-09T07:45:07.087Z</time></trkpt><trkpt lat="41.0575567" lon="14.714805"><ele>209.0</ele><time>2026-04-09T07:45:08.087Z</time></trkpt><trkpt lat="41.05769" lon="14.7147633"><ele>209.0</ele><time>2026-04-09T07:45:09.087Z</time></trkpt><trkpt lat="41.0578333" lon="14.7147217"><ele>211.0</ele><time>2026-04-09T07:45:10.087Z</time></trkpt><trkpt lat="41.0579833" lon="14.7146917"><ele>213.0</ele><time>2026-04-09T07:45:11.087Z</time></trkpt><trkpt lat="41.05814" lon="14.71466"><ele>215.0</ele><time>2026-04-09T07:45:12.087Z</time></trkpt><trkpt lat="41.0583117" lon="14.7146233"><ele>216.33333333333334</ele><time>2026-04-09T07:45:13.087Z</time></trkpt><trkpt lat="41.05849" lon="14.7145667"><ele>217.66666666666669</ele><time>2026-04-09T07:45:14.087Z</time></trkpt><trkpt lat="41.0586583" lon="14.7145033"><ele>219.0</ele><time>2026-04-09T07:45:15.087Z</time></trkpt><trkpt lat="41.058825" lon="14.7144283"><ele>214.66666666666669</ele><time>2026-04-09T07:45:16.087Z</time></trkpt><trkpt lat="41.0589817" lon="14.714355"><ele>210.33333333333334</ele><time>2026-04-09T07:45:17.087Z</time></trkpt><trkpt lat="41.059125" lon="14.7142867"><ele>206.0</ele><time>2026-04-09T07:45:18.087Z</time></trkpt><trkpt lat="41.0592617" lon="14.71423"><ele>206.0</ele><time>2026-04-09T07:45:19.087Z</time></trkpt><trkpt lat="41.059405" lon="14.7141717"><ele>206.0</ele><time>2026-04-09T07:45:20.087Z</time></trkpt><trkpt lat="41.0595433" lon="14.7141083"><ele>206.0</ele><time>2026-04-09T07:45:21.087Z</time></trkpt><trkpt lat="41.059675" lon="14.7140283"><ele>206.0</ele><time>2026-04-09T07:45:22.087Z</time></trkpt><trkpt lat="41.059795" lon="14.7139467"><ele>206.0</ele><time>2026-04-09T07:45:23.087Z</time></trkpt><trkpt lat="41.05991" lon="14.7138583"><ele>206.0</ele><time>2026-04-09T07:45:24.087Z</time></trkpt><trkpt lat="41.06003" lon="14.7137683"><ele>206.0</ele><time>2026-04-09T07:45:25.087Z</time></trkpt><trkpt lat="41.0601433" lon="14.713675"><ele>206.0</ele><time>2026-04-09T07:45:26.087Z</time></trkpt><trkpt lat="41.0602517" lon="14.7135817"><ele>204.5</ele><time>2026-04-09T07:45:27.087Z</time></trkpt><trkpt lat="41.0603567" lon="14.7134883"><ele>203.0</ele><time>2026-04-09T07:45:28.087Z</time></trkpt><trkpt lat="41.0604583" lon="14.7133967"><ele>201.5</ele><time>2026-04-09T07:45:29.087Z</time></trkpt><trkpt lat="41.0605567" lon="14.7133067"><ele>200.0</ele><time>2026-04-09T07:45:30.087Z</time></trkpt><trkpt lat="41.0606533" lon="14.713225"><ele>200.0</ele><time>2026-04-09T07:45:31.087Z</time></trkpt><trkpt lat="41.0607433" lon="14.7131533"><ele>200.0</ele><time>2026-04-09T07:45:32.087Z</time></trkpt><trkpt lat="41.0608333" lon="14.7130817"><ele>200.0</ele><time>2026-04-09T07:45:33.087Z</time></trkpt><trkpt lat="41.0609033" lon="14.7130083"><ele>200.0</ele><time>2026-04-09T07:45:34.087Z</time></trkpt><trkpt lat="41.0609767" lon="14.71294"><ele>200.0</ele><time>2026-04-09T07:45:35.087Z</time></trkpt><trkpt lat="41.06106" lon="14.71287"><ele>200.6</ele><time>2026-04-09T07:45:36.087Z</time></trkpt><trkpt lat="41.0611533" lon="14.7127867"><ele>201.2</ele><time>2026-04-09T07:45:37.087Z</time></trkpt><trkpt lat="41.0612467" lon="14.7126983"><ele>201.8</ele><time>2026-04-09T07:45:38.087Z</time></trkpt><trkpt lat="41.061335" lon="14.7126217"><ele>202.4</ele><time>2026-04-09T07:45:39.087Z</time></trkpt><trkpt lat="41.061425" lon="14.7125483"><ele>203.0</ele><time>2026-04-09T07:45:40.087Z</time></trkpt><trkpt lat="41.0615217" lon="14.712475"><ele>202.2</ele><time>2026-04-09T07:45:41.087Z</time></trkpt><trkpt lat="41.0616133" lon="14.712405"><ele>201.4</ele><time>2026-04-09T07:45:42.087Z</time></trkpt><trkpt lat="41.0617117" lon="14.71235"><ele>200.6</ele><time>2026-04-09T07:45:43.087Z</time></trkpt><trkpt lat="41.0617933" lon="14.7122917"><ele>199.79999999999998</ele><time>2026-04-09T07:45:44.087Z</time></trkpt><trkpt lat="41.0618733" lon="14.71224"><ele>199.0</ele><time>2026-04-09T07:45:45.087Z</time></trkpt><trkpt lat="41.0619517" lon="14.71219"><ele>198.99999999999997</ele><time>2026-04-09T07:45:46.087Z</time></trkpt><trkpt lat="41.06203" lon="14.712135"><ele>199.0</ele><time>2026-04-09T07:45:47.087Z</time></trkpt><trkpt lat="41.0621017" lon="14.7120783"><ele>199.0</ele><time>2026-04-09T07:45:48.087Z</time></trkpt><trkpt lat="41.0621683" lon="14.71203"><ele>199.0</ele><time>2026-04-09T07:45:49.087Z</time></trkpt><trkpt lat="41.0622283" lon="14.7119867"><ele>198.99999999999997</ele><time>2026-04-09T07:45:50.087Z</time></trkpt><trkpt lat="41.0622867" lon="14.7119467"><ele>199.0</ele><time>2026-04-09T07:45:51.087Z</time></trkpt><trkpt lat="41.0623733" lon="14.7118733"><ele>198.49999999999997</ele><time>2026-04-09T07:45:53.087Z</time></trkpt><trkpt lat="41.0624417" lon="14.71181"><ele>198.0</ele><time>2026-04-09T07:45:55.087Z</time></trkpt><trkpt lat="41.0625017" lon="14.7117683"><ele>197.5</ele><time>2026-04-09T07:45:57.087Z</time></trkpt><trkpt lat="41.062525" lon="14.7116317"><ele>197.0</ele><time>2026-04-09T07:46:10.087Z</time></trkpt><trkpt lat="41.0624467" lon="14.7115567"><ele>196.49999999999997</ele><time>2026-04-09T07:46:12.087Z</time></trkpt><trkpt lat="41.062375" lon="14.7115283"><ele>196.0</ele><time>2026-04-09T07:46:13.087Z</time></trkpt><trkpt lat="41.0622667" lon="14.7115067"><ele>195.75</ele><time>2026-04-09T07:46:14.087Z</time></trkpt><trkpt lat="41.0621283" lon="14.7114833"><ele>195.5</ele><time>2026-04-09T07:46:15.087Z</time></trkpt><trkpt lat="41.0619833" lon="14.7114567"><ele>195.25</ele><time>2026-04-09T07:46:16.087Z</time></trkpt><trkpt lat="41.061865" lon="14.7114267"><ele>195.0</ele><time>2026-04-09T07:46:17.087Z</time></trkpt><trkpt lat="41.0617583" lon="14.711405"><ele>195.0</ele><time>2026-04-09T07:46:18.087Z</time></trkpt><trkpt lat="41.0616617" lon="14.7113917"><ele>195.0</ele><time>2026-04-09T07:46:19.087Z</time></trkpt><trkpt lat="41.061555" lon="14.7113817"><ele>195.0</ele><time>2026-04-09T07:46:20.087Z</time></trkpt><trkpt lat="41.06143" lon="14.711355"><ele>195.0</ele><time>2026-04-09T07:46:21.087Z</time></trkpt><trkpt lat="41.0613083" lon="14.711325"><ele>194.75</ele><time>2026-04-09T07:46:22.087Z</time></trkpt><trkpt lat="41.0611917" lon="14.7112933"><ele>194.5</ele><time>2026-04-09T07:46:23.087Z</time></trkpt><trkpt lat="41.0610717" lon="14.711265"><ele>194.25</ele><time>2026-04-09T07:46:24.087Z</time></trkpt><trkpt lat="41.060945" lon="14.711235"><ele>194.0</ele><time>2026-04-09T07:46:25.087Z</time></trkpt><trkpt lat="41.060815" lon="14.7111883"><ele>195.0</ele><time>2026-04-09T07:46:26.087Z</time></trkpt><trkpt lat="41.0606917" lon="14.71112"><ele>196.0</ele><time>2026-04-09T07:46:27.087Z</time></trkpt><trkpt lat="41.0605833" lon="14.7110433"><ele>197.0</ele><time>2026-04-09T07:46:28.087Z</time></trkpt><trkpt lat="41.0604783" lon="14.7109517"><ele>198.0</ele><time>2026-04-09T07:46:29.087Z</time></trkpt><trkpt lat="41.0603783" lon="14.71084"><ele>198.25</ele><time>2026-04-09T07:46:30.087Z</time></trkpt><trkpt lat="41.0602867" lon="14.71071"><ele>198.5</ele><time>2026-04-09T07:46:31.087Z</time></trkpt><trkpt lat="41.0601917" lon="14.7105767"><ele>198.75</ele><time>2026-04-09T07:46:32.087Z</time></trkpt><trkpt lat="41.0601" lon="14.7104417"><ele>199.0</ele><time>2026-04-09T07:46:33.087Z</time></trkpt><trkpt lat="41.0600117" lon="14.7103133"><ele>200.25</ele><time>2026-04-09T07:46:34.087Z</time></trkpt><trkpt lat="41.0599217" lon="14.71018"><ele>201.5</ele><time>2026-04-09T07:46:35.087Z</time></trkpt><trkpt lat="41.0598267" lon="14.7100583"><ele>202.75</ele><time>2026-04-09T07:46:36.087Z</time></trkpt><trkpt lat="41.05973" lon="14.7099283"><ele>204.0</ele><time>2026-04-09T07:46:37.087Z</time></trkpt><trkpt lat="41.059635" lon="14.7097983"><ele>204.0</ele><time>2026-04-09T07:46:38.087Z</time></trkpt><trkpt lat="41.059555" lon="14.70968"><ele>204.0</ele><time>2026-04-09T07:46:39.087Z</time></trkpt><trkpt lat="41.05948" lon="14.709565"><ele>204.0</ele><time>2026-04-09T07:46:40.087Z</time></trkpt><trkpt lat="41.0594067" lon="14.7094683"><ele>204.0</ele><time>2026-04-09T07:46:41.087Z</time></trkpt><trkpt lat="41.059335" lon="14.709365"><ele>204.0</ele><time>2026-04-09T07:46:42.087Z</time></trkpt><trkpt lat="41.0592567" lon="14.7092617"><ele>204.25</ele><time>2026-04-09T07:46:43.087Z</time></trkpt><trkpt lat="41.059175" lon="14.7091383"><ele>204.5</ele><time>2026-04-09T07:46:44.087Z</time></trkpt><trkpt lat="41.05909" lon="14.70902"><ele>204.75</ele><time>2026-04-09T07:46:45.087Z</time></trkpt><trkpt lat="41.0590067" lon="14.7088967"><ele>205.0</ele><time>2026-04-09T07:46:46.087Z</time></trkpt><trkpt lat="41.0589183" lon="14.70876"><ele>205.0</ele><time>2026-04-09T07:46:47.087Z</time></trkpt><trkpt lat="41.058835" lon="14.7086233"><ele>205.0</ele><time>2026-04-09T07:46:48.087Z</time></trkpt><trkpt lat="41.0587533" lon="14.7084917"><ele>205.0</ele><time>2026-04-09T07:46:49.087Z</time></trkpt><trkpt lat="41.0586767" lon="14.7083633"><ele>205.0</ele><time>2026-04-09T07:46:50.087Z</time></trkpt><trkpt lat="41.0585967" lon="14.70824"><ele>204.0</ele><time>2026-04-09T07:46:51.087Z</time></trkpt><trkpt lat="41.058515" lon="14.70812"><ele>203.0</ele><time>2026-04-09T07:46:52.087Z</time></trkpt><trkpt lat="41.058435" lon="14.7079917"><ele>202.0</ele><time>2026-04-09T07:46:53.087Z</time></trkpt><trkpt lat="41.058355" lon="14.7078717"><ele>201.0</ele><time>2026-04-09T07:46:54.087Z</time></trkpt><trkpt lat="41.05828" lon="14.7077617"><ele>202.0</ele><time>2026-04-09T07:46:55.087Z</time></trkpt><trkpt lat="41.05821" lon="14.7076517"><ele>203.0</ele><time>2026-04-09T07:46:56.087Z</time></trkpt><trkpt lat="41.0581417" lon="14.7075367"><ele>204.0</ele><time>2026-04-09T07:46:57.087Z</time></trkpt><trkpt lat="41.0580683" lon="14.7074217"><ele>205.0</ele><time>2026-04-09T07:46:58.087Z</time></trkpt><trkpt lat="41.0579883" lon="14.707305"><ele>205.0</ele><time>2026-04-09T07:46:59.087Z</time></trkpt><trkpt lat="41.0579067" lon="14.7071867"><ele>205.0</ele><time>2026-04-09T07:47:00.087Z</time></trkpt><trkpt lat="41.057835" lon="14.7070683"><ele>205.0</ele><time>2026-04-09T07:47:01.087Z</time></trkpt><trkpt lat="41.0577683" lon="14.70695"><ele>205.0</ele><time>2026-04-09T07:47:02.087Z</time></trkpt><trkpt lat="41.057695" lon="14.7068533"><ele>205.0</ele><time>2026-04-09T07:47:03.087Z</time></trkpt><trkpt lat="41.0576367" lon="14.70676"><ele>205.0</ele><time>2026-04-09T07:47:04.087Z</time></trkpt><trkpt lat="41.0575733" lon="14.7066633"><ele>205.0</ele><time>2026-04-09T07:47:05.087Z</time></trkpt><trkpt lat="41.0575083" lon="14.706555"><ele>205.0</ele><time>2026-04-09T07:47:06.087Z</time></trkpt><trkpt lat="41.0574367" lon="14.7064433"><ele>205.0</ele><time>2026-04-09T07:47:07.087Z</time></trkpt><trkpt lat="41.0573567" lon="14.7063167"><ele>205.0</ele><time>2026-04-09T07:47:08.087Z</time></trkpt><trkpt lat="41.0572817" lon="14.70619"><ele>205.0</ele><time>2026-04-09T07:47:09.087Z</time></trkpt><trkpt lat="41.057205" lon="14.7060633"><ele>205.0</ele><time>2026-04-09T07:47:10.087Z</time></trkpt><trkpt lat="41.0571217" lon="14.7059367"><ele>205.0</ele><time>2026-04-09T07:47:11.087Z</time></trkpt><trkpt lat="41.0570433" lon="14.7058183"><ele>204.25</ele><time>2026-04-09T07:47:12.087Z</time></trkpt><trkpt lat="41.0569667" lon="14.705695"><ele>203.5</ele><time>2026-04-09T07:47:13.087Z</time></trkpt><trkpt lat="41.056895" lon="14.7055817"><ele>202.75</ele><time>2026-04-09T07:47:14.087Z</time></trkpt><trkpt lat="41.0568283" lon="14.705465"><ele>202.0</ele><time>2026-04-09T07:47:15.087Z</time></trkpt><trkpt lat="41.05676" lon="14.705355"><ele>202.2</ele><time>2026-04-09T07:47:16.087Z</time></trkpt><trkpt lat="41.0566883" lon="14.705245"><ele>202.39999999999998</ele><time>2026-04-09T07:47:17.087Z</time></trkpt><trkpt lat="41.0566233" lon="14.705135"><ele>202.60000000000002</ele><time>2026-04-09T07:47:18.087Z</time></trkpt><trkpt lat="41.056555" lon="14.7050317"><ele>202.8</ele><time>2026-04-09T07:47:19.087Z</time></trkpt><trkpt lat="41.0564883" lon="14.704925"><ele>203.0</ele><time>2026-04-09T07:47:20.087Z</time></trkpt><trkpt lat="41.0564183" lon="14.7048233"><ele>203.0</ele><time>2026-04-09T07:47:21.087Z</time></trkpt><trkpt lat="41.0563433" lon="14.7047133"><ele>203.0</ele><time>2026-04-09T07:47:22.087Z</time></trkpt><trkpt lat="41.05627" lon="14.7046067"><ele>203.0</ele><time>2026-04-09T07:47:23.087Z</time></trkpt><trkpt lat="41.0562017" lon="14.704495"><ele>203.0</ele><time>2026-04-09T07:47:24.087Z</time></trkpt><trkpt lat="41.056135" lon="14.7043983"><ele>203.0</ele><time>2026-04-09T07:47:25.087Z</time></trkpt><trkpt lat="41.0560783" lon="14.7042983"><ele>202.2</ele><time>2026-04-09T07:47:26.087Z</time></trkpt><trkpt lat="41.05602" lon="14.7041917"><ele>201.4</ele><time>2026-04-09T07:47:27.087Z</time></trkpt><trkpt lat="41.0559667" lon="14.7040767"><ele>200.6</ele><time>2026-04-09T07:47:28.087Z</time></trkpt><trkpt lat="41.0559083" lon="14.7039617"><ele>199.79999999999998</ele><time>2026-04-09T07:47:29.087Z</time></trkpt><trkpt lat="41.0558483" lon="14.703855"><ele>199.0</ele><time>2026-04-09T07:47:30.087Z</time></trkpt><trkpt lat="41.0557883" lon="14.703745"><ele>199.0</ele><time>2026-04-09T07:47:31.087Z</time></trkpt><trkpt lat="41.0557217" lon="14.7036367"><ele>199.0</ele><time>2026-04-09T07:47:32.087Z</time></trkpt><trkpt lat="41.055665" lon="14.7035183"><ele>199.0</ele><time>2026-04-09T07:47:33.087Z</time></trkpt><trkpt lat="41.05561" lon="14.703395"><ele>199.0</ele><time>2026-04-09T07:47:34.087Z</time></trkpt><trkpt lat="41.0555583" lon="14.70326"><ele>199.0</ele><time>2026-04-09T07:47:35.087Z</time></trkpt><trkpt lat="41.055515" lon="14.7031217"><ele>199.0</ele><time>2026-04-09T07:47:36.087Z</time></trkpt><trkpt lat="41.0554767" lon="14.7029633"><ele>199.0</ele><time>2026-04-09T07:47:37.087Z</time></trkpt><trkpt lat="41.0554433" lon="14.7028033"><ele>199.0</ele><time>2026-04-09T07:47:38.087Z</time></trkpt><trkpt lat="41.055415" lon="14.702655"><ele>199.0</ele><time>2026-04-09T07:47:39.087Z</time></trkpt><trkpt lat="41.0553933" lon="14.7024817"><ele>199.0</ele><time>2026-04-09T07:47:40.087Z</time></trkpt><trkpt lat="41.05537" lon="14.7023083"><ele>199.0</ele><time>2026-04-09T07:47:41.087Z</time></trkpt><trkpt lat="41.055345" lon="14.7021333"><ele>199.0</ele><time>2026-04-09T07:47:42.087Z</time></trkpt><trkpt lat="41.0553283" lon="14.7019633"><ele>199.0</ele><time>2026-04-09T07:47:43.087Z</time></trkpt><trkpt lat="41.05532" lon="14.7018067"><ele>198.0</ele><time>2026-04-09T07:47:44.087Z</time></trkpt><trkpt lat="41.055315" lon="14.70166"><ele>197.0</ele><time>2026-04-09T07:47:45.087Z</time></trkpt><trkpt lat="41.0553017" lon="14.701505"><ele>196.0</ele><time>2026-04-09T07:47:46.087Z</time></trkpt><trkpt lat="41.055285" lon="14.70134"><ele>195.0</ele><time>2026-04-09T07:47:47.087Z</time></trkpt><trkpt lat="41.0552683" lon="14.70116"><ele>195.25</ele><time>2026-04-09T07:47:48.087Z</time></trkpt><trkpt lat="41.0552517" lon="14.700975"><ele>195.5</ele><time>2026-04-09T07:47:49.087Z</time></trkpt><trkpt lat="41.055235" lon="14.70078"><ele>195.75</ele><time>2026-04-09T07:47:50.087Z</time></trkpt><trkpt lat="41.0552183" lon="14.7005817"><ele>196.0</ele><time>2026-04-09T07:47:51.087Z</time></trkpt><trkpt lat="41.0552067" lon="14.7003883"><ele>196.5</ele><time>2026-04-09T07:47:52.087Z</time></trkpt><trkpt lat="41.0551967" lon="14.7001983"><ele>197.0</ele><time>2026-04-09T07:47:53.087Z</time></trkpt><trkpt lat="41.0551933" lon="14.70003"><ele>197.5</ele><time>2026-04-09T07:47:54.087Z</time></trkpt><trkpt lat="41.0551817" lon="14.6998667"><ele>198.0</ele><time>2026-04-09T07:47:55.087Z</time></trkpt><trkpt lat="41.0551817" lon="14.6997033"><ele>198.0</ele><time>2026-04-09T07:47:56.087Z</time></trkpt><trkpt lat="41.0552017" lon="14.699535"><ele>198.0</ele><time>2026-04-09T07:47:57.087Z</time></trkpt><trkpt lat="41.0552317" lon="14.6993583"><ele>198.0</ele><time>2026-04-09T07:47:58.087Z</time></trkpt><trkpt lat="41.05527" lon="14.69918"><ele>198.0</ele><time>2026-04-09T07:47:59.087Z</time></trkpt><trkpt lat="41.0553133" lon="14.6990083"><ele>198.5</ele><time>2026-04-09T07:48:00.087Z</time></trkpt><trkpt lat="41.055345" lon="14.6988483"><ele>199.0</ele><time>2026-04-09T07:48:01.087Z</time></trkpt><trkpt lat="41.05538" lon="14.6986933"><ele>199.5</ele><time>2026-04-09T07:48:02.087Z</time></trkpt><trkpt lat="41.0554167" lon="14.6985317"><ele>200.0</ele><time>2026-04-09T07:48:03.087Z</time></trkpt><trkpt lat="41.0554617" lon="14.6983733"><ele>200.0</ele><time>2026-04-09T07:48:04.087Z</time></trkpt><trkpt lat="41.0554967" lon="14.69821"><ele>200.0</ele><time>2026-04-09T07:48:05.087Z</time></trkpt><trkpt lat="41.0555267" lon="14.69806"><ele>200.0</ele><time>2026-04-09T07:48:06.087Z</time></trkpt><trkpt lat="41.0555683" lon="14.6979133"><ele>200.0</ele><time>2026-04-09T07:48:07.087Z</time></trkpt><trkpt lat="41.05561" lon="14.697775"><ele>200.33333333333334</ele><time>2026-04-09T07:48:08.087Z</time></trkpt><trkpt lat="41.0556367" lon="14.6976433"><ele>200.66666666666669</ele><time>2026-04-09T07:48:09.087Z</time></trkpt><trkpt lat="41.0556617" lon="14.697525"><ele>201.0</ele><time>2026-04-09T07:48:10.087Z</time></trkpt><trkpt lat="41.0556817" lon="14.6974217"><ele>201.33333333333331</ele><time>2026-04-09T07:48:11.087Z</time></trkpt><trkpt lat="41.0557017" lon="14.6973283"><ele>201.66666666666666</ele><time>2026-04-09T07:48:12.087Z</time></trkpt><trkpt lat="41.0557117" lon="14.697235"><ele>202.0</ele><time>2026-04-09T07:48:13.087Z</time></trkpt><trkpt lat="41.0557267" lon="14.69709"><ele>201.99999999999997</ele><time>2026-04-09T07:48:15.087Z</time></trkpt><trkpt lat="41.05577" lon="14.6970283"><ele>202.0</ele><time>2026-04-09T07:48:17.087Z</time></trkpt><trkpt lat="41.05586" lon="14.69703"><ele>202.0</ele><time>2026-04-09T07:48:20.087Z</time></trkpt><trkpt lat="41.0559467" lon="14.697015"><ele>202.0</ele><time>2026-04-09T07:48:22.087Z</time></trkpt><trkpt lat="41.0560367" lon="14.6970183"><ele>201.99999999999997</ele><time>2026-04-09T07:48:24.087Z</time></trkpt><trkpt lat="41.05614" lon="14.6970367"><ele>202.0</ele><time>2026-04-09T07:48:26.087Z</time></trkpt><trkpt lat="41.0562117" lon="14.6970583"><ele>202.83333333333331</ele><time>2026-04-09T07:48:27.087Z</time></trkpt><trkpt lat="41.0562867" lon="14.6970667"><ele>203.66666666666666</ele><time>2026-04-09T07:48:28.087Z</time></trkpt><trkpt lat="41.0563667" lon="14.6970933"><ele>204.5</ele><time>2026-04-09T07:48:29.087Z</time></trkpt><trkpt lat="41.0564433" lon="14.6971167"><ele>205.33333333333331</ele><time>2026-04-09T07:48:30.087Z</time></trkpt><trkpt lat="41.0565217" lon="14.6971433"><ele>206.16666666666666</ele><time>2026-04-09T07:48:31.087Z</time></trkpt><trkpt lat="41.05661" lon="14.6971633"><ele>207.0</ele><time>2026-04-09T07:48:32.087Z</time></trkpt><trkpt lat="41.056695" lon="14.6971817"><ele>208.39999999999998</ele><time>2026-04-09T07:48:33.087Z</time></trkpt><trkpt lat="41.0567883" lon="14.6971983"><ele>209.79999999999998</ele><time>2026-04-09T07:48:34.087Z</time></trkpt><trkpt lat="41.0568767" lon="14.697225"><ele>211.2</ele><time>2026-04-09T07:48:35.087Z</time></trkpt><trkpt lat="41.0569633" lon="14.6972633"><ele>212.6</ele><time>2026-04-09T07:48:36.087Z</time></trkpt><trkpt lat="41.05705" lon="14.6973017"><ele>214.0</ele><time>2026-04-09T07:48:37.087Z</time></trkpt><trkpt lat="41.057125" lon="14.6973483"><ele>213.99999999999997</ele><time>2026-04-09T07:48:38.087Z</time></trkpt><trkpt lat="41.0572" lon="14.6973867"><ele>214.0</ele><time>2026-04-09T07:48:39.087Z</time></trkpt><trkpt lat="41.057275" lon="14.6974267"><ele>214.0</ele><time>2026-04-09T07:48:40.087Z</time></trkpt><trkpt lat="41.0573567" lon="14.697465"><ele>214.0</ele><time>2026-04-09T07:48:41.087Z</time></trkpt><trkpt lat="41.0574417" lon="14.697495"><ele>213.99999999999997</ele><time>2026-04-09T07:48:42.087Z</time></trkpt><trkpt lat="41.0575367" lon="14.697515"><ele>214.0</ele><time>2026-04-09T07:48:43.087Z</time></trkpt><trkpt lat="41.0576333" lon="14.6975317"><ele>215.79999999999998</ele><time>2026-04-09T07:48:44.087Z</time></trkpt><trkpt lat="41.0577417" lon="14.6975217"><ele>217.59999999999997</ele><time>2026-04-09T07:48:45.087Z</time></trkpt><trkpt lat="41.0578417" lon="14.6974933"><ele>219.4</ele><time>2026-04-09T07:48:46.087Z</time></trkpt><trkpt lat="41.05795" lon="14.6974533"><ele>221.2</ele><time>2026-04-09T07:48:47.087Z</time></trkpt><trkpt lat="41.0580617" lon="14.6974167"><ele>223.0</ele><time>2026-04-09T07:48:48.087Z</time></trkpt><trkpt lat="41.0581733" lon="14.6973933"><ele>223.0</ele><time>2026-04-09T07:48:49.087Z</time></trkpt><trkpt lat="41.0582833" lon="14.6973683"><ele>223.0</ele><time>2026-04-09T07:48:50.087Z</time></trkpt><trkpt lat="41.0583983" lon="14.6973417"><ele>223.0</ele><time>2026-04-09T07:48:51.087Z</time></trkpt><trkpt lat="41.05851" lon="14.69731"><ele>223.0</ele><time>2026-04-09T07:48:52.087Z</time></trkpt><trkpt lat="41.0586217" lon="14.697265"><ele>224.75</ele><time>2026-04-09T07:48:53.087Z</time></trkpt><trkpt lat="41.05873" lon="14.697205"><ele>226.5</ele><time>2026-04-09T07:48:54.087Z</time></trkpt><trkpt lat="41.0588367" lon="14.6971283"><ele>228.25</ele><time>2026-04-09T07:48:55.087Z</time></trkpt><trkpt lat="41.0589467" lon="14.69705"><ele>230.0</ele><time>2026-04-09T07:48:56.087Z</time></trkpt><trkpt lat="41.0590583" lon="14.6969783"><ele>234.0</ele><time>2026-04-09T07:48:57.087Z</time></trkpt><trkpt lat="41.05916" lon="14.696905"><ele>238.0</ele><time>2026-04-09T07:48:58.087Z</time></trkpt><trkpt lat="41.0592567" lon="14.6968417"><ele>242.0</ele><time>2026-04-09T07:48:59.087Z</time></trkpt><trkpt lat="41.0593583" lon="14.696765"><ele>246.0</ele><time>2026-04-09T07:49:00.087Z</time></trkpt><trkpt lat="41.059455" lon="14.69669"><ele>246.0</ele><time>2026-04-09T07:49:01.087Z</time></trkpt><trkpt lat="41.0595533" lon="14.6966083"><ele>246.00000000000003</ele><time>2026-04-09T07:49:02.087Z</time></trkpt><trkpt lat="41.059655" lon="14.6965433"><ele>246.00000000000003</ele><time>2026-04-09T07:49:03.087Z</time></trkpt><trkpt lat="41.0597433" lon="14.6964783"><ele>246.0</ele><time>2026-04-09T07:49:04.087Z</time></trkpt><trkpt lat="41.0598233" lon="14.6964017"><ele>246.0</ele><time>2026-04-09T07:49:05.087Z</time></trkpt><trkpt lat="41.05989" lon="14.69631"><ele>246.0</ele><time>2026-04-09T07:49:06.087Z</time></trkpt><trkpt lat="41.0599367" lon="14.6962067"><ele>246.00000000000003</ele><time>2026-04-09T07:49:07.087Z</time></trkpt><trkpt lat="41.0599667" lon="14.6960883"><ele>246.00000000000003</ele><time>2026-04-09T07:49:08.087Z</time></trkpt><trkpt lat="41.05999" lon="14.6959783"><ele>246.0</ele><time>2026-04-09T07:49:09.087Z</time></trkpt><trkpt lat="41.060015" lon="14.6958667"><ele>246.0</ele><time>2026-04-09T07:49:10.087Z</time></trkpt><trkpt lat="41.0600467" lon="14.6957517"><ele>249.0</ele><time>2026-04-09T07:49:11.087Z</time></trkpt><trkpt lat="41.060085" lon="14.695625"><ele>252.00000000000003</ele><time>2026-04-09T07:49:12.087Z</time></trkpt><trkpt lat="41.0601217" lon="14.6954883"><ele>255.00000000000003</ele><time>2026-04-09T07:49:13.087Z</time></trkpt><trkpt lat="41.0601633" lon="14.6953433"><ele>258.0</ele><time>2026-04-09T07:49:14.087Z</time></trkpt><trkpt lat="41.0602083" lon="14.6951983"><ele>261.0</ele><time>2026-04-09T07:49:15.087Z</time></trkpt><trkpt lat="41.0602483" lon="14.695045"><ele>262.5</ele><time>2026-04-09T07:49:16.087Z</time></trkpt><trkpt lat="41.0602917" lon="14.6949083"><ele>264.0</ele><time>2026-04-09T07:49:17.087Z</time></trkpt><trkpt lat="41.0603383" lon="14.694765"><ele>265.5</ele><time>2026-04-09T07:49:18.087Z</time></trkpt><trkpt lat="41.0603867" lon="14.694615"><ele>267.0</ele><time>2026-04-09T07:49:19.087Z</time></trkpt><trkpt lat="41.0604333" lon="14.69445"><ele>268.5</ele><time>2026-04-09T07:49:20.087Z</time></trkpt><trkpt lat="41.0604817" lon="14.6942883"><ele>270.0</ele><time>2026-04-09T07:49:21.087Z</time></trkpt><trkpt lat="41.0605317" lon="14.69413"><ele>271.5</ele><time>2026-04-09T07:49:22.087Z</time></trkpt><trkpt lat="41.0605783" lon="14.6939767"><ele>273.0</ele><time>2026-04-09T07:49:23.087Z</time></trkpt><trkpt lat="41.0606217" lon="14.6938333"><ele>273.0</ele><time>2026-04-09T07:49:24.087Z</time></trkpt><trkpt lat="41.0606617" lon="14.6937067"><ele>273.0</ele><time>2026-04-09T07:49:25.087Z</time></trkpt><trkpt lat="41.0607017" lon="14.6935767"><ele>273.0</ele><time>2026-04-09T07:49:26.087Z</time></trkpt><trkpt lat="41.0607433" lon="14.6934517"><ele>273.0</ele><time>2026-04-09T07:49:27.087Z</time></trkpt><trkpt lat="41.06078" lon="14.6933183"><ele>273.0</ele><time>2026-04-09T07:49:28.087Z</time></trkpt><trkpt lat="41.0608117" lon="14.693185"><ele>276.0</ele><time>2026-04-09T07:49:29.087Z</time></trkpt><trkpt lat="41.0608517" lon="14.6930483"><ele>279.0</ele><time>2026-04-09T07:49:30.087Z</time></trkpt><trkpt lat="41.06089" lon="14.6929117"><ele>282.0</ele><time>2026-04-09T07:49:31.087Z</time></trkpt><trkpt lat="41.060925" lon="14.69277"><ele>285.0</ele><time>2026-04-09T07:49:32.087Z</time></trkpt><trkpt lat="41.06096" lon="14.6926383"><ele>288.0</ele><time>2026-04-09T07:49:33.087Z</time></trkpt><trkpt lat="41.0610033" lon="14.6925083"><ele>290.25</ele><time>2026-04-09T07:49:34.087Z</time></trkpt><trkpt lat="41.0610517" lon="14.6923667"><ele>292.5</ele><time>2026-04-09T07:49:35.087Z</time></trkpt><trkpt lat="41.0611083" lon="14.69222"><ele>294.75</ele><time>2026-04-09T07:49:36.087Z</time></trkpt><trkpt lat="41.0611617" lon="14.69208"><ele>297.0</ele><time>2026-04-09T07:49:37.087Z</time></trkpt><trkpt lat="41.061225" lon="14.6919533"><ele>298.25</ele><time>2026-04-09T07:49:38.087Z</time></trkpt><trkpt lat="41.0612883" lon="14.69182"><ele>299.5</ele><time>2026-04-09T07:49:39.087Z</time></trkpt><trkpt lat="41.0613483" lon="14.691685"><ele>300.75</ele><time>2026-04-09T07:49:40.087Z</time></trkpt><trkpt lat="41.0613983" lon="14.6915533"><ele>302.0</ele><time>2026-04-09T07:49:41.087Z</time></trkpt><trkpt lat="41.0614517" lon="14.6914233"><ele>302.0</ele><time>2026-04-09T07:49:42.087Z</time></trkpt><trkpt lat="41.0615133" lon="14.6912817"><ele>302.0</ele><time>2026-04-09T07:49:43.087Z</time></trkpt><trkpt lat="41.061555" lon="14.6911417"><ele>302.0</ele><time>2026-04-09T07:49:44.087Z</time></trkpt><trkpt lat="41.0616" lon="14.6910067"><ele>302.0</ele><time>2026-04-09T07:49:45.087Z</time></trkpt><trkpt lat="41.0616583" lon="14.6908667"><ele>303.5</ele><time>2026-04-09T07:49:46.087Z</time></trkpt><trkpt lat="41.0617317" lon="14.6907467"><ele>305.0</ele><time>2026-04-09T07:49:47.087Z</time></trkpt><trkpt lat="41.0618017" lon="14.6906217"><ele>306.5</ele><time>2026-04-09T07:49:48.087Z</time></trkpt><trkpt lat="41.0618733" lon="14.6904967"><ele>308.0</ele><time>2026-04-09T07:49:49.087Z</time></trkpt><trkpt lat="41.061925" lon="14.6903817"><ele>308.0</ele><time>2026-04-09T07:49:50.087Z</time></trkpt><trkpt lat="41.0619783" lon="14.6902717"><ele>308.0</ele><time>2026-04-09T07:49:51.087Z</time></trkpt><trkpt lat="41.0620283" lon="14.6901733"><ele>308.0</ele><time>2026-04-09T07:49:52.087Z</time></trkpt><trkpt lat="41.062075" lon="14.6900667"><ele>308.0</ele><time>2026-04-09T07:49:53.087Z</time></trkpt><trkpt lat="41.0621283" lon="14.689965"><ele>308.0</ele><time>2026-04-09T07:49:54.088Z</time></trkpt><trkpt lat="41.0621883" lon="14.689845"><ele>307.6</ele><time>2026-04-09T07:49:55.087Z</time></trkpt><trkpt lat="41.0622467" lon="14.6897383"><ele>307.20000000000005</ele><time>2026-04-09T07:49:56.087Z</time></trkpt><trkpt lat="41.062315" lon="14.6896367"><ele>306.8</ele><time>2026-04-09T07:49:57.087Z</time></trkpt><trkpt lat="41.0623867" lon="14.689545"><ele>306.40000000000003</ele><time>2026-04-09T07:49:58.087Z</time></trkpt><trkpt lat="41.0624767" lon="14.689465"><ele>306.0</ele><time>2026-04-09T07:49:59.087Z</time></trkpt><trkpt lat="41.0625767" lon="14.6893817"><ele>308.8</ele><time>2026-04-09T07:50:00.087Z</time></trkpt><trkpt lat="41.0626833" lon="14.6893"><ele>311.6</ele><time>2026-04-09T07:50:01.087Z</time></trkpt><trkpt lat="41.0627833" lon="14.6892167"><ele>314.4</ele><time>2026-04-09T07:50:02.087Z</time></trkpt><trkpt lat="41.0628733" lon="14.689145"><ele>317.2</ele><time>2026-04-09T07:50:03.087Z</time></trkpt><trkpt lat="41.0629633" lon="14.6890817"><ele>320.0</ele><time>2026-04-09T07:50:04.087Z</time></trkpt><trkpt lat="41.0630567" lon="14.68902"><ele>320.0</ele><time>2026-04-09T07:50:05.087Z</time></trkpt><trkpt lat="41.06316" lon="14.6889633"><ele>320.0</ele><time>2026-04-09T07:50:06.087Z</time></trkpt><trkpt lat="41.0632467" lon="14.6889383"><ele>320.0</ele><time>2026-04-09T07:50:07.087Z</time></trkpt><trkpt lat="41.0633283" lon="14.68892"><ele>320.0</ele><time>2026-04-09T07:50:08.087Z</time></trkpt><trkpt lat="41.0634117" lon="14.6889233"><ele>320.0</ele><time>2026-04-09T07:50:09.087Z</time></trkpt><trkpt lat="41.0635017" lon="14.6889467"><ele>321.6666666666667</ele><time>2026-04-09T07:50:10.087Z</time></trkpt><trkpt lat="41.0635833" lon="14.68898"><ele>323.33333333333337</ele><time>2026-04-09T07:50:11.087Z</time></trkpt><trkpt lat="41.0636617" lon="14.689015"><ele>325.0</ele><time>2026-04-09T07:50:12.087Z</time></trkpt><trkpt lat="41.0637317" lon="14.6890417"><ele>326.6666666666667</ele><time>2026-04-09T07:50:13.087Z</time></trkpt><trkpt lat="41.0638017" lon="14.68905"><ele>328.3333333333333</ele><time>2026-04-09T07:50:14.087Z</time></trkpt><trkpt lat="41.0638733" lon="14.6890383"><ele>330.0</ele><time>2026-04-09T07:50:15.087Z</time></trkpt><trkpt lat="41.0639517" lon="14.6890133"><ele>330.0</ele><time>2026-04-09T07:50:16.087Z</time></trkpt><trkpt lat="41.0640433" lon="14.688975"><ele>330.0</ele><time>2026-04-09T07:50:17.087Z</time></trkpt><trkpt lat="41.0641333" lon="14.68893"><ele>330.0</ele><time>2026-04-09T07:50:18.087Z</time></trkpt><trkpt lat="41.0642083" lon="14.688895"><ele>330.0</ele><time>2026-04-09T07:50:19.087Z</time></trkpt><trkpt lat="41.0642683" lon="14.6888667"><ele>330.0</ele><time>2026-04-09T07:50:20.087Z</time></trkpt><trkpt lat="41.0643917" lon="14.6888133"><ele>330.5</ele><time>2026-04-09T07:50:22.087Z</time></trkpt><trkpt lat="41.06446" lon="14.6887733"><ele>331.0</ele><time>2026-04-09T07:50:23.087Z</time></trkpt><trkpt lat="41.06453" lon="14.6887317"><ele>331.5</ele><time>2026-04-09T07:50:24.087Z</time></trkpt><trkpt lat="41.0645983" lon="14.6886733"><ele>332.0</ele><time>2026-04-09T07:50:25.087Z</time></trkpt><trkpt lat="41.06465" lon="14.688595"><ele>332.5</ele><time>2026-04-09T07:50:26.087Z</time></trkpt><trkpt lat="41.0646817" lon="14.688505"><ele>333.0</ele><time>2026-04-09T07:50:27.087Z</time></trkpt><trkpt lat="41.0647067" lon="14.6884033"><ele>335.2</ele><time>2026-04-09T07:50:28.087Z</time></trkpt><trkpt lat="41.06472" lon="14.6882917"><ele>337.4</ele><time>2026-04-09T07:50:29.087Z</time></trkpt><trkpt lat="41.0647317" lon="14.6881567"><ele>339.59999999999997</ele><time>2026-04-09T07:50:30.087Z</time></trkpt><trkpt lat="41.06474" lon="14.6880117"><ele>341.79999999999995</ele><time>2026-04-09T07:50:31.087Z</time></trkpt><trkpt lat="41.06473" lon="14.6878817"><ele>344.0</ele><time>2026-04-09T07:50:32.087Z</time></trkpt><trkpt lat="41.06471" lon="14.6877617"><ele>345.5</ele><time>2026-04-09T07:50:33.087Z</time></trkpt><trkpt lat="41.0646867" lon="14.6876367"><ele>347.0</ele><time>2026-04-09T07:50:34.087Z</time></trkpt><trkpt lat="41.0646667" lon="14.6875267"><ele>348.5</ele><time>2026-04-09T07:50:35.087Z</time></trkpt><trkpt lat="41.0646583" lon="14.68742"><ele>350.0</ele><time>2026-04-09T07:50:36.087Z</time></trkpt><trkpt lat="41.0646583" lon="14.6873017"><ele>351.5</ele><time>2026-04-09T07:50:37.087Z</time></trkpt><trkpt lat="41.064665" lon="14.68719"><ele>353.0</ele><time>2026-04-09T07:50:38.087Z</time></trkpt><trkpt lat="41.0646883" lon="14.6870767"><ele>353.0</ele><time>2026-04-09T07:50:39.087Z</time></trkpt><trkpt lat="41.06473" lon="14.6869683"><ele>353.0</ele><time>2026-04-09T07:50:40.087Z</time></trkpt><trkpt lat="41.0647917" lon="14.6868717"><ele>353.0</ele><time>2026-04-09T07:50:41.087Z</time></trkpt><trkpt lat="41.0648567" lon="14.68678"><ele>353.0</ele><time>2026-04-09T07:50:42.087Z</time></trkpt><trkpt lat="41.0649183" lon="14.68671"><ele>353.0</ele><time>2026-04-09T07:50:43.087Z</time></trkpt><trkpt lat="41.064985" lon="14.6866533"><ele>353.0</ele><time>2026-04-09T07:50:44.087Z</time></trkpt><trkpt lat="41.0650617" lon="14.686595"><ele>356.59999999999997</ele><time>2026-04-09T07:50:45.087Z</time></trkpt><trkpt lat="41.0651433" lon="14.686545"><ele>360.2</ele><time>2026-04-09T07:50:46.087Z</time></trkpt><trkpt lat="41.06523" lon="14.6864867"><ele>363.8</ele><time>2026-04-09T07:50:47.087Z</time></trkpt><trkpt lat="41.06532" lon="14.686425"><ele>367.4</ele><time>2026-04-09T07:50:48.087Z</time></trkpt><trkpt lat="41.065405" lon="14.6863533"><ele>371.0</ele><time>2026-04-09T07:50:49.087Z</time></trkpt><trkpt lat="41.0654817" lon="14.6862783"><ele>371.0</ele><time>2026-04-09T07:50:50.087Z</time></trkpt><trkpt lat="41.0655483" lon="14.68619"><ele>371.0</ele><time>2026-04-09T07:50:51.087Z</time></trkpt><trkpt lat="41.06561" lon="14.6860883"><ele>371.0</ele><time>2026-04-09T07:50:52.087Z</time></trkpt><trkpt lat="41.06568" lon="14.68598"><ele>371.0</ele><time>2026-04-09T07:50:53.087Z</time></trkpt><trkpt lat="41.0657667" lon="14.6858683"><ele>371.0</ele><time>2026-04-09T07:50:54.087Z</time></trkpt><trkpt lat="41.0658583" lon="14.6857583"><ele>373.0</ele><time>2026-04-09T07:50:55.087Z</time></trkpt><trkpt lat="41.06594" lon="14.685665"><ele>375.0</ele><time>2026-04-09T07:50:56.087Z</time></trkpt><trkpt lat="41.06602" lon="14.685585"><ele>377.0</ele><time>2026-04-09T07:50:57.087Z</time></trkpt><trkpt lat="41.0661017" lon="14.6855083"><ele>379.0</ele><time>2026-04-09T07:50:58.087Z</time></trkpt><trkpt lat="41.066175" lon="14.6854317"><ele>381.0</ele><time>2026-04-09T07:50:59.087Z</time></trkpt><trkpt lat="41.066245" lon="14.685355"><ele>381.0</ele><time>2026-04-09T07:51:00.087Z</time></trkpt><trkpt lat="41.0663217" lon="14.6853"><ele>381.0</ele><time>2026-04-09T07:51:01.087Z</time></trkpt><trkpt lat="41.066405" lon="14.68525"><ele>381.0</ele><time>2026-04-09T07:51:02.087Z</time></trkpt><trkpt lat="41.0664933" lon="14.685195"><ele>381.0</ele><time>2026-04-09T07:51:03.087Z</time></trkpt><trkpt lat="41.0665833" lon="14.6851517"><ele>381.0</ele><time>2026-04-09T07:51:04.087Z</time></trkpt><trkpt lat="41.0666633" lon="14.68511"><ele>381.0</ele><time>2026-04-09T07:51:05.087Z</time></trkpt><trkpt lat="41.066735" lon="14.68507"><ele>381.0</ele><time>2026-04-09T07:51:06.087Z</time></trkpt><trkpt lat="41.066805" lon="14.6850333"><ele>381.0</ele><time>2026-04-09T07:51:07.087Z</time></trkpt><trkpt lat="41.0668733" lon="14.684995"><ele>381.0</ele><time>2026-04-09T07:51:08.087Z</time></trkpt><trkpt lat="41.066945" lon="14.6849533"><ele>381.0</ele><time>2026-04-09T07:51:09.087Z</time></trkpt><trkpt lat="41.067015" lon="14.6849117"><ele>381.0</ele><time>2026-04-09T07:51:10.087Z</time></trkpt><trkpt lat="41.06708" lon="14.6848767"><ele>381.0</ele><time>2026-04-09T07:51:11.087Z</time></trkpt><trkpt lat="41.0671467" lon="14.684835"><ele>381.0</ele><time>2026-04-09T07:51:12.087Z</time></trkpt><trkpt lat="41.0672217" lon="14.6847883"><ele>381.0</ele><time>2026-04-09T07:51:13.087Z</time></trkpt><trkpt lat="41.0673033" lon="14.6847383"><ele>381.0</ele><time>2026-04-09T07:51:14.087Z</time></trkpt><trkpt lat="41.0673867" lon="14.6846833"><ele>381.0</ele><time>2026-04-09T07:51:15.087Z</time></trkpt><trkpt lat="41.0674683" lon="14.6846367"><ele>381.0</ele><time>2026-04-09T07:51:16.087Z</time></trkpt><trkpt lat="41.0675483" lon="14.68458"><ele>381.20000000000005</ele><time>2026-04-09T07:51:17.087Z</time></trkpt><trkpt lat="41.0676167" lon="14.6845167"><ele>381.40000000000003</ele><time>2026-04-09T07:51:18.087Z</time></trkpt><trkpt lat="41.067695" lon="14.684455"><ele>381.6</ele><time>2026-04-09T07:51:19.087Z</time></trkpt><trkpt lat="41.067775" lon="14.68439"><ele>381.8</ele><time>2026-04-09T07:51:20.087Z</time></trkpt><trkpt lat="41.067855" lon="14.6843283"><ele>382.0</ele><time>2026-04-09T07:51:21.087Z</time></trkpt><trkpt lat="41.067935" lon="14.6842633"><ele>382.0</ele><time>2026-04-09T07:51:22.087Z</time></trkpt><trkpt lat="41.0680217" lon="14.68419"><ele>382.0</ele><time>2026-04-09T07:51:23.087Z</time></trkpt><trkpt lat="41.0681067" lon="14.6841233"><ele>382.0</ele><time>2026-04-09T07:51:24.087Z</time></trkpt><trkpt lat="41.0681833" lon="14.684065"><ele>382.0</ele><time>2026-04-09T07:51:25.087Z</time></trkpt><trkpt lat="41.0682567" lon="14.6840133"><ele>382.0</ele><time>2026-04-09T07:51:26.087Z</time></trkpt><trkpt lat="41.0683283" lon="14.6839717"><ele>382.7142857142857</ele><time>2026-04-09T07:51:27.087Z</time></trkpt><trkpt lat="41.0683967" lon="14.6839533"><ele>383.4285714285714</ele><time>2026-04-09T07:51:28.087Z</time></trkpt><trkpt lat="41.0684683" lon="14.6839367"><ele>384.1428571428571</ele><time>2026-04-09T07:51:29.087Z</time></trkpt><trkpt lat="41.0685367" lon="14.683935"><ele>384.8571428571429</ele><time>2026-04-09T07:51:30.087Z</time></trkpt><trkpt lat="41.068605" lon="14.6839517"><ele>385.57142857142856</ele><time>2026-04-09T07:51:31.087Z</time></trkpt><trkpt lat="41.0686717" lon="14.683975"><ele>386.2857142857143</ele><time>2026-04-09T07:51:32.087Z</time></trkpt><trkpt lat="41.068735" lon="14.683995"><ele>387.0</ele><time>2026-04-09T07:51:33.087Z</time></trkpt><trkpt lat="41.068805" lon="14.6840033"><ele>387.0</ele><time>2026-04-09T07:51:34.087Z</time></trkpt><trkpt lat="41.0688783" lon="14.683985"><ele>387.0</ele><time>2026-04-09T07:51:35.087Z</time></trkpt><trkpt lat="41.068955" lon="14.6839533"><ele>387.0</ele><time>2026-04-09T07:51:36.087Z</time></trkpt><trkpt lat="41.069035" lon="14.6839117"><ele>387.0</ele><time>2026-04-09T07:51:37.087Z</time></trkpt><trkpt lat="41.06912" lon="14.6838683"><ele>387.0</ele><time>2026-04-09T07:51:38.087Z</time></trkpt><trkpt lat="41.069195" lon="14.68381"><ele>387.0</ele><time>2026-04-09T07:51:39.087Z</time></trkpt><trkpt lat="41.0692767" lon="14.6837517"><ele>384.20000000000005</ele><time>2026-04-09T07:51:40.087Z</time></trkpt><trkpt lat="41.0693567" lon="14.6836933"><ele>381.4</ele><time>2026-04-09T07:51:41.087Z</time></trkpt><trkpt lat="41.0694467" lon="14.6836417"><ele>378.6</ele><time>2026-04-09T07:51:42.087Z</time></trkpt><trkpt lat="41.0695417" lon="14.6835867"><ele>375.79999999999995</ele><time>2026-04-09T07:51:43.087Z</time></trkpt><trkpt lat="41.0696283" lon="14.6835267"><ele>373.0</ele><time>2026-04-09T07:51:44.087Z</time></trkpt><trkpt lat="41.0697133" lon="14.683475"><ele>371.59999999999997</ele><time>2026-04-09T07:51:45.087Z</time></trkpt><trkpt lat="41.0698" lon="14.6834317"><ele>370.2</ele><time>2026-04-09T07:51:46.087Z</time></trkpt><trkpt lat="41.0699" lon="14.6833883"><ele>368.8</ele><time>2026-04-09T07:51:47.087Z</time></trkpt><trkpt lat="41.0699867" lon="14.6833483"><ele>367.4</ele><time>2026-04-09T07:51:48.087Z</time></trkpt><trkpt lat="41.0700833" lon="14.6833133"><ele>366.0</ele><time>2026-04-09T07:51:49.087Z</time></trkpt><trkpt lat="41.0701733" lon="14.6832783"><ele>365.8</ele><time>2026-04-09T07:51:50.087Z</time></trkpt><trkpt lat="41.0702617" lon="14.683245"><ele>365.6</ele><time>2026-04-09T07:51:51.087Z</time></trkpt><trkpt lat="41.0703633" lon="14.6832233"><ele>365.4</ele><time>2026-04-09T07:51:52.087Z</time></trkpt><trkpt lat="41.0704583" lon="14.6831917"><ele>365.2</ele><time>2026-04-09T07:51:53.087Z</time></trkpt><trkpt lat="41.0705433" lon="14.683165"><ele>365.0</ele><time>2026-04-09T07:51:54.087Z</time></trkpt><trkpt lat="41.070615" lon="14.6831433"><ele>365.0</ele><time>2026-04-09T07:51:55.087Z</time></trkpt><trkpt lat="41.0707317" lon="14.6830917"><ele>365.0</ele><time>2026-04-09T07:51:57.087Z</time></trkpt><trkpt lat="41.0708283" lon="14.68306"><ele>365.0</ele><time>2026-04-09T07:51:59.087Z</time></trkpt><trkpt lat="41.0708983" lon="14.68303"><ele>365.0</ele><time>2026-04-09T07:52:01.087Z</time></trkpt><trkpt lat="41.0709883" lon="14.682995"><ele>365.0</ele><time>2026-04-09T07:52:03.087Z</time></trkpt><trkpt lat="41.0710517" lon="14.6829717"><ele>365.5714285714286</ele><time>2026-04-09T07:52:04.087Z</time></trkpt><trkpt lat="41.07111" lon="14.6829383"><ele>366.14285714285717</ele><time>2026-04-09T07:52:05.087Z</time></trkpt><trkpt lat="41.0711733" lon="14.68291"><ele>366.7142857142857</ele><time>2026-04-09T07:52:06.087Z</time></trkpt><trkpt lat="41.07125" lon="14.68289"><ele>367.28571428571433</ele><time>2026-04-09T07:52:07.087Z</time></trkpt><trkpt lat="41.0713317" lon="14.6828683"><ele>367.85714285714283</ele><time>2026-04-09T07:52:08.087Z</time></trkpt><trkpt lat="41.07141" lon="14.6828467"><ele>368.42857142857144</ele><time>2026-04-09T07:52:09.087Z</time></trkpt><trkpt lat="41.071475" lon="14.6828333"><ele>369.0</ele><time>2026-04-09T07:52:10.087Z</time></trkpt><trkpt lat="41.0715383" lon="14.6828183"><ele>369.0</ele><time>2026-04-09T07:52:11.087Z</time></trkpt><trkpt lat="41.0716067" lon="14.6828083"><ele>369.0</ele><time>2026-04-09T07:52:12.087Z</time></trkpt><trkpt lat="41.0716767" lon="14.682795"><ele>369.0</ele><time>2026-04-09T07:52:13.087Z</time></trkpt><trkpt lat="41.0717417" lon="14.682785"><ele>369.0</ele><time>2026-04-09T07:52:14.087Z</time></trkpt><trkpt lat="41.0718067" lon="14.6827733"><ele>369.0</ele><time>2026-04-09T07:52:15.087Z</time></trkpt><trkpt lat="41.0719233" lon="14.6827683"><ele>369.0</ele><time>2026-04-09T07:52:17.087Z</time></trkpt><trkpt lat="41.07199" lon="14.6827567"><ele>368.8333333333333</ele><time>2026-04-09T07:52:18.087Z</time></trkpt><trkpt lat="41.072055" lon="14.68274"><ele>368.6666666666667</ele><time>2026-04-09T07:52:19.087Z</time></trkpt><trkpt lat="41.0721233" lon="14.6827383"><ele>368.5</ele><time>2026-04-09T07:52:20.087Z</time></trkpt><trkpt lat="41.0721967" lon="14.682735"><ele>368.33333333333337</ele><time>2026-04-09T07:52:21.087Z</time></trkpt><trkpt lat="41.07234" lon="14.682735"><ele>368.1666666666667</ele><time>2026-04-09T07:52:23.087Z</time></trkpt><trkpt lat="41.0724133" lon="14.682735"><ele>368.0</ele><time>2026-04-09T07:52:24.087Z</time></trkpt><trkpt lat="41.0724867" lon="14.682735"><ele>368.0</ele><time>2026-04-09T07:52:25.087Z</time></trkpt><trkpt lat="41.0725583" lon="14.6827367"><ele>368.0</ele><time>2026-04-09T07:52:26.087Z</time></trkpt><trkpt lat="41.0726217" lon="14.6827467"><ele>368.0</ele><time>2026-04-09T07:52:27.087Z</time></trkpt><trkpt lat="41.0727333" lon="14.682765"><ele>368.0</ele><time>2026-04-09T07:52:29.087Z</time></trkpt><trkpt lat="41.0728533" lon="14.6827717"><ele>368.0</ele><time>2026-04-09T07:52:31.087Z</time></trkpt><trkpt lat="41.0729183" lon="14.6827767"><ele>368.0</ele><time>2026-04-09T07:52:32.087Z</time></trkpt><trkpt lat="41.0729917" lon="14.6828"><ele>367.8571428571429</ele><time>2026-04-09T07:52:33.087Z</time></trkpt><trkpt lat="41.0730633" lon="14.6828233"><ele>367.71428571428567</ele><time>2026-04-09T07:52:34.087Z</time></trkpt><trkpt lat="41.0731383" lon="14.6828483"><ele>367.57142857142856</ele><time>2026-04-09T07:52:35.087Z</time></trkpt><trkpt lat="41.0732133" lon="14.682875"><ele>367.42857142857144</ele><time>2026-04-09T07:52:36.087Z</time></trkpt><trkpt lat="41.07329" lon="14.6829067"><ele>367.28571428571433</ele><time>2026-04-09T07:52:37.087Z</time></trkpt><trkpt lat="41.07336" lon="14.6829333"><ele>367.1428571428571</ele><time>2026-04-09T07:52:38.087Z</time></trkpt><trkpt lat="41.0734217" lon="14.6829567"><ele>367.0</ele><time>2026-04-09T07:52:39.087Z</time></trkpt><trkpt lat="41.073535" lon="14.682985"><ele>366.3333333333333</ele><time>2026-04-09T07:52:41.087Z</time></trkpt><trkpt lat="41.0736517" lon="14.6829867"><ele>365.66666666666663</ele><time>2026-04-09T07:52:43.087Z</time></trkpt><trkpt lat="41.0737133" lon="14.6829667"><ele>365.0</ele><time>2026-04-09T07:52:44.087Z</time></trkpt><trkpt lat="41.0737833" lon="14.6829333"><ele>364.3333333333333</ele><time>2026-04-09T07:52:45.087Z</time></trkpt><trkpt lat="41.07385" lon="14.6828883"><ele>363.6666666666667</ele><time>2026-04-09T07:52:46.087Z</time></trkpt><trkpt lat="41.0739317" lon="14.68283"><ele>363.0</ele><time>2026-04-09T07:52:47.087Z</time></trkpt><trkpt lat="41.0740267" lon="14.68277"><ele>363.59999999999997</ele><time>2026-04-09T07:52:48.087Z</time></trkpt><trkpt lat="41.0741217" lon="14.68271"><ele>364.2</ele><time>2026-04-09T07:52:49.087Z</time></trkpt><trkpt lat="41.074215" lon="14.6826583"><ele>364.8</ele><time>2026-04-09T07:52:50.087Z</time></trkpt><trkpt lat="41.0742967" lon="14.68261"><ele>365.4</ele><time>2026-04-09T07:52:51.087Z</time></trkpt><trkpt lat="41.0743817" lon="14.6825717"><ele>366.0</ele><time>2026-04-09T07:52:52.087Z</time></trkpt><trkpt lat="41.0744617" lon="14.68253"><ele>366.0</ele><time>2026-04-09T07:52:53.087Z</time></trkpt><trkpt lat="41.0745417" lon="14.682495"><ele>366.0</ele><time>2026-04-09T07:52:54.087Z</time></trkpt><trkpt lat="41.0746233" lon="14.68247"><ele>366.0</ele><time>2026-04-09T07:52:55.087Z</time></trkpt><trkpt lat="41.0747117" lon="14.68245"><ele>366.0</ele><time>2026-04-09T07:52:56.087Z</time></trkpt><trkpt lat="41.0748017" lon="14.682425"><ele>366.0</ele><time>2026-04-09T07:52:57.087Z</time></trkpt><trkpt lat="41.074895" lon="14.6823983"><ele>366.0</ele><time>2026-04-09T07:52:58.087Z</time></trkpt><trkpt lat="41.07499" lon="14.6823683"><ele>367.4</ele><time>2026-04-09T07:52:59.087Z</time></trkpt><trkpt lat="41.0750867" lon="14.6823333"><ele>368.8</ele><time>2026-04-09T07:53:00.087Z</time></trkpt><trkpt lat="41.0751933" lon="14.6823033"><ele>370.2</ele><time>2026-04-09T07:53:01.087Z</time></trkpt><trkpt lat="41.0753033" lon="14.68228"><ele>371.59999999999997</ele><time>2026-04-09T07:53:02.087Z</time></trkpt><trkpt lat="41.07541" lon="14.68226"><ele>373.0</ele><time>2026-04-09T07:53:03.087Z</time></trkpt><trkpt lat="41.0755267" lon="14.6822483"><ele>373.0</ele><time>2026-04-09T07:53:04.087Z</time></trkpt><trkpt lat="41.0756533" lon="14.68224"><ele>373.0</ele><time>2026-04-09T07:53:05.087Z</time></trkpt><trkpt lat="41.07578" lon="14.6822317"><ele>373.0</ele><time>2026-04-09T07:53:06.087Z</time></trkpt><trkpt lat="41.07591" lon="14.6822283"><ele>373.0</ele><time>2026-04-09T07:53:07.087Z</time></trkpt><trkpt lat="41.0760367" lon="14.6822217"><ele>373.5</ele><time>2026-04-09T07:53:08.087Z</time></trkpt><trkpt lat="41.07616" lon="14.6822117"><ele>374.0</ele><time>2026-04-09T07:53:09.087Z</time></trkpt><trkpt lat="41.07628" lon="14.6821833"><ele>374.5</ele><time>2026-04-09T07:53:10.087Z</time></trkpt><trkpt lat="41.0764017" lon="14.6821467"><ele>375.0</ele><time>2026-04-09T07:53:11.087Z</time></trkpt><trkpt lat="41.0765233" lon="14.682115"><ele>375.4</ele><time>2026-04-09T07:53:12.087Z</time></trkpt><trkpt lat="41.07664" lon="14.68208"><ele>375.8</ele><time>2026-04-09T07:53:13.087Z</time></trkpt><trkpt lat="41.0767383" lon="14.6820533"><ele>376.20000000000005</ele><time>2026-04-09T07:53:14.087Z</time></trkpt><trkpt lat="41.0768217" lon="14.6820283"><ele>376.6</ele><time>2026-04-09T07:53:15.087Z</time></trkpt><trkpt lat="41.0769" lon="14.6820083"><ele>377.0</ele><time>2026-04-09T07:53:16.087Z</time></trkpt><trkpt lat="41.0769833" lon="14.6819883"><ele>377.0</ele><time>2026-04-09T07:53:17.087Z</time></trkpt><trkpt lat="41.077075" lon="14.681965"><ele>377.0</ele><time>2026-04-09T07:53:18.087Z</time></trkpt><trkpt lat="41.0771667" lon="14.6819467"><ele>377.0</ele><time>2026-04-09T07:53:19.087Z</time></trkpt><trkpt lat="41.077265" lon="14.6819233"><ele>377.0</ele><time>2026-04-09T07:53:20.087Z</time></trkpt><trkpt lat="41.0773717" lon="14.681895"><ele>377.0</ele><time>2026-04-09T07:53:21.087Z</time></trkpt><trkpt lat="41.0774933" lon="14.6818733"><ele>377.0</ele><time>2026-04-09T07:53:22.087Z</time></trkpt><trkpt lat="41.077625" lon="14.6818667"><ele>377.0</ele><time>2026-04-09T07:53:23.087Z</time></trkpt><trkpt lat="41.0777617" lon="14.6818733"><ele>377.0</ele><time>2026-04-09T07:53:24.087Z</time></trkpt><trkpt lat="41.0779033" lon="14.681895"><ele>377.0</ele><time>2026-04-09T07:53:25.087Z</time></trkpt><trkpt lat="41.0780383" lon="14.6819183"><ele>376.75</ele><time>2026-04-09T07:53:26.087Z</time></trkpt><trkpt lat="41.078165" lon="14.6819433"><ele>376.5</ele><time>2026-04-09T07:53:27.087Z</time></trkpt><trkpt lat="41.078285" lon="14.6819633"><ele>376.25</ele><time>2026-04-09T07:53:28.087Z</time></trkpt><trkpt lat="41.0783933" lon="14.68196"><ele>376.0</ele><time>2026-04-09T07:53:29.087Z</time></trkpt><trkpt lat="41.0785067" lon="14.6819283"><ele>377.5</ele><time>2026-04-09T07:53:30.087Z</time></trkpt><trkpt lat="41.0786233" lon="14.6818767"><ele>379.0</ele><time>2026-04-09T07:53:31.087Z</time></trkpt><trkpt lat="41.0787367" lon="14.6818067"><ele>380.5</ele><time>2026-04-09T07:53:32.087Z</time></trkpt><trkpt lat="41.07884" lon="14.68173"><ele>382.0</ele><time>2026-04-09T07:53:33.087Z</time></trkpt><trkpt lat="41.0789367" lon="14.68165"><ele>382.0</ele><time>2026-04-09T07:53:34.087Z</time></trkpt><trkpt lat="41.0790367" lon="14.6815467"><ele>382.0</ele><time>2026-04-09T07:53:35.087Z</time></trkpt><trkpt lat="41.0791417" lon="14.6814383"><ele>382.0</ele><time>2026-04-09T07:53:36.087Z</time></trkpt><trkpt lat="41.0792567" lon="14.6813283"><ele>382.0</ele><time>2026-04-09T07:53:37.087Z</time></trkpt><trkpt lat="41.079375" lon="14.68122"><ele>383.75</ele><time>2026-04-09T07:53:38.087Z</time></trkpt><trkpt lat="41.0794917" lon="14.6811083"><ele>385.5</ele><time>2026-04-09T07:53:39.087Z</time></trkpt><trkpt lat="41.0796" lon="14.6810067"><ele>387.25</ele><time>2026-04-09T07:53:40.087Z</time></trkpt><trkpt lat="41.0796917" lon="14.6809233"><ele>389.0</ele><time>2026-04-09T07:53:41.087Z</time></trkpt><trkpt lat="41.07977" lon="14.6808617"><ele>388.99999999999994</ele><time>2026-04-09T07:53:42.087Z</time></trkpt><trkpt lat="41.0798483" lon="14.6808117"><ele>389.0</ele><time>2026-04-09T07:53:43.087Z</time></trkpt><trkpt lat="41.0799283" lon="14.68077"><ele>389.0</ele><time>2026-04-09T07:53:44.087Z</time></trkpt><trkpt lat="41.0800083" lon="14.6807367"><ele>389.0</ele><time>2026-04-09T07:53:45.087Z</time></trkpt><trkpt lat="41.0800933" lon="14.68073"><ele>388.99999999999994</ele><time>2026-04-09T07:53:46.087Z</time></trkpt><trkpt lat="41.0801883" lon="14.680735"><ele>389.0</ele><time>2026-04-09T07:53:47.087Z</time></trkpt><trkpt lat="41.0802933" lon="14.680765"><ele>394.25</ele><time>2026-04-09T07:53:48.087Z</time></trkpt><trkpt lat="41.0804117" lon="14.680815"><ele>399.5</ele><time>2026-04-09T07:53:49.087Z</time></trkpt><trkpt lat="41.080535" lon="14.680865"><ele>404.75</ele><time>2026-04-09T07:53:50.087Z</time></trkpt><trkpt lat="41.0806617" lon="14.680915"><ele>410.0</ele><time>2026-04-09T07:53:51.087Z</time></trkpt><trkpt lat="41.080775" lon="14.68096"><ele>410.8333333333333</ele><time>2026-04-09T07:53:52.087Z</time></trkpt><trkpt lat="41.0808767" lon="14.680995"><ele>411.66666666666663</ele><time>2026-04-09T07:53:53.087Z</time></trkpt><trkpt lat="41.08097" lon="14.6810233"><ele>412.5</ele><time>2026-04-09T07:53:54.087Z</time></trkpt><trkpt lat="41.0810533" lon="14.6810467"><ele>413.33333333333337</ele><time>2026-04-09T07:53:55.087Z</time></trkpt><trkpt lat="41.0811333" lon="14.681045"><ele>414.1666666666667</ele><time>2026-04-09T07:53:56.087Z</time></trkpt><trkpt lat="41.0812067" lon="14.68102"><ele>415.0</ele><time>2026-04-09T07:53:57.087Z</time></trkpt><trkpt lat="41.0812717" lon="14.6809517"><ele>415.0</ele><time>2026-04-09T07:53:58.087Z</time></trkpt><trkpt lat="41.08133" lon="14.6808433"><ele>415.0</ele><time>2026-04-09T07:53:59.087Z</time></trkpt><trkpt lat="41.0813833" lon="14.6807283"><ele>415.0</ele><time>2026-04-09T07:54:00.087Z</time></trkpt><trkpt lat="41.0814383" lon="14.6806"><ele>415.0</ele><time>2026-04-09T07:54:01.087Z</time></trkpt><trkpt lat="41.0814867" lon="14.6804783"><ele>415.0</ele><time>2026-04-09T07:54:02.087Z</time></trkpt><trkpt lat="41.0815367" lon="14.680365"><ele>414.6</ele><time>2026-04-09T07:54:03.087Z</time></trkpt><trkpt lat="41.0815917" lon="14.6802483"><ele>414.2</ele><time>2026-04-09T07:54:04.087Z</time></trkpt><trkpt lat="41.0816483" lon="14.680125"><ele>413.79999999999995</ele><time>2026-04-09T07:54:05.087Z</time></trkpt><trkpt lat="41.0817" lon="14.6799967"><ele>413.4</ele><time>2026-04-09T07:54:06.087Z</time></trkpt><trkpt lat="41.0817467" lon="14.6798883"><ele>413.0</ele><time>2026-04-09T07:54:07.087Z</time></trkpt><trkpt lat="41.081785" lon="14.6797967"><ele>415.49999999999994</ele><time>2026-04-09T07:54:08.087Z</time></trkpt><trkpt lat="41.0818283" lon="14.679715"><ele>418.0</ele><time>2026-04-09T07:54:09.087Z</time></trkpt><trkpt lat="41.0818767" lon="14.6796333"><ele>420.5</ele><time>2026-04-09T07:54:10.087Z</time></trkpt><trkpt lat="41.081935" lon="14.679555"><ele>423.0</ele><time>2026-04-09T07:54:11.087Z</time></trkpt><trkpt lat="41.0820133" lon="14.6794833"><ele>425.49999999999994</ele><time>2026-04-09T07:54:12.087Z</time></trkpt><trkpt lat="41.0821033" lon="14.67941"><ele>428.0</ele><time>2026-04-09T07:54:13.087Z</time></trkpt><trkpt lat="41.082195" lon="14.6793383"><ele>429.0</ele><time>2026-04-09T07:54:14.087Z</time></trkpt><trkpt lat="41.082295" lon="14.6792667"><ele>430.0</ele><time>2026-04-09T07:54:15.087Z</time></trkpt><trkpt lat="41.0824017" lon="14.6791983"><ele>431.0</ele><time>2026-04-09T07:54:16.087Z</time></trkpt><trkpt lat="41.082505" lon="14.6791283"><ele>432.0</ele><time>2026-04-09T07:54:17.087Z</time></trkpt><trkpt lat="41.0826183" lon="14.6790633"><ele>433.6</ele><time>2026-04-09T07:54:18.087Z</time></trkpt><trkpt lat="41.08273" lon="14.6790133"><ele>435.20000000000005</ele><time>2026-04-09T07:54:19.087Z</time></trkpt><trkpt lat="41.08283" lon="14.6789683"><ele>436.8</ele><time>2026-04-09T07:54:20.087Z</time></trkpt><trkpt lat="41.08292" lon="14.67892"><ele>438.4</ele><time>2026-04-09T07:54:21.087Z</time></trkpt><trkpt lat="41.0830117" lon="14.678885"><ele>440.0</ele><time>2026-04-09T07:54:22.087Z</time></trkpt><trkpt lat="41.0831067" lon="14.6788533"><ele>440.0</ele><time>2026-04-09T07:54:23.087Z</time></trkpt><trkpt lat="41.0831967" lon="14.67884"><ele>440.0</ele><time>2026-04-09T07:54:24.087Z</time></trkpt><trkpt lat="41.0832933" lon="14.6788283"><ele>440.0</ele><time>2026-04-09T07:54:25.087Z</time></trkpt><trkpt lat="41.0834033" lon="14.6788433"><ele>440.0</ele><time>2026-04-09T07:54:26.087Z</time></trkpt><trkpt lat="41.083525" lon="14.678865"><ele>440.0</ele><time>2026-04-09T07:54:27.087Z</time></trkpt><trkpt lat="41.0836433" lon="14.6788933"><ele>441.2</ele><time>2026-04-09T07:54:28.087Z</time></trkpt><trkpt lat="41.0837617" lon="14.6789183"><ele>442.4</ele><time>2026-04-09T07:54:29.087Z</time></trkpt><trkpt lat="41.0838733" lon="14.6789467"><ele>443.6</ele><time>2026-04-09T07:54:30.087Z</time></trkpt><trkpt lat="41.0839733" lon="14.678975"><ele>444.8</ele><time>2026-04-09T07:54:31.087Z</time></trkpt><trkpt lat="41.0840667" lon="14.6789933"><ele>446.0</ele><time>2026-04-09T07:54:32.087Z</time></trkpt><trkpt lat="41.08415" lon="14.6790133"><ele>445.99999999999994</ele><time>2026-04-09T07:54:33.087Z</time></trkpt><trkpt lat="41.0842333" lon="14.67904"><ele>446.0</ele><time>2026-04-09T07:54:34.087Z</time></trkpt><trkpt lat="41.0843133" lon="14.67906"><ele>446.0</ele><time>2026-04-09T07:54:35.087Z</time></trkpt><trkpt lat="41.0844" lon="14.6790767"><ele>446.0</ele><time>2026-04-09T07:54:36.087Z</time></trkpt><trkpt lat="41.0844867" lon="14.6790983"><ele>445.99999999999994</ele><time>2026-04-09T07:54:37.088Z</time></trkpt><trkpt lat="41.0845683" lon="14.6791117"><ele>446.0</ele><time>2026-04-09T07:54:38.087Z</time></trkpt><trkpt lat="41.0846467" lon="14.6791317"><ele>445.99999999999994</ele><time>2026-04-09T07:54:39.087Z</time></trkpt><trkpt lat="41.0847167" lon="14.6791433"><ele>446.0</ele><time>2026-04-09T07:54:40.087Z</time></trkpt><trkpt lat="41.08478" lon="14.679145"><ele>446.0</ele><time>2026-04-09T07:54:41.087Z</time></trkpt><trkpt lat="41.0848483" lon="14.6791367"><ele>446.0</ele><time>2026-04-09T07:54:42.087Z</time></trkpt><trkpt lat="41.0849283" lon="14.679115"><ele>445.99999999999994</ele><time>2026-04-09T07:54:43.087Z</time></trkpt><trkpt lat="41.0850167" lon="14.679075"><ele>446.0</ele><time>2026-04-09T07:54:44.087Z</time></trkpt><trkpt lat="41.0851067" lon="14.6790117"><ele>446.25</ele><time>2026-04-09T07:54:45.087Z</time></trkpt><trkpt lat="41.0852" lon="14.6789417"><ele>446.5</ele><time>2026-04-09T07:54:46.087Z</time></trkpt><trkpt lat="41.0853" lon="14.6788767"><ele>446.75</ele><time>2026-04-09T07:54:47.087Z</time></trkpt><trkpt lat="41.0854133" lon="14.6788067"><ele>447.0</ele><time>2026-04-09T07:54:48.087Z</time></trkpt><trkpt lat="41.0855417" lon="14.6787433"><ele>447.0</ele><time>2026-04-09T07:54:49.087Z</time></trkpt><trkpt lat="41.0856717" lon="14.678675"><ele>447.0</ele><time>2026-04-09T07:54:50.087Z</time></trkpt><trkpt lat="41.0858017" lon="14.6786133"><ele>447.0</ele><time>2026-04-09T07:54:51.087Z</time></trkpt><trkpt lat="41.0859283" lon="14.6785383"><ele>447.0</ele><time>2026-04-09T07:54:52.087Z</time></trkpt><trkpt lat="41.0860533" lon="14.678475"><ele>449.0</ele><time>2026-04-09T07:54:53.087Z</time></trkpt><trkpt lat="41.0861733" lon="14.6784083"><ele>451.0</ele><time>2026-04-09T07:54:54.087Z</time></trkpt><trkpt lat="41.08629" lon="14.6783533"><ele>453.0</ele><time>2026-04-09T07:54:55.087Z</time></trkpt><trkpt lat="41.0863983" lon="14.6783083"><ele>455.0</ele><time>2026-04-09T07:54:56.087Z</time></trkpt><trkpt lat="41.0864967" lon="14.6782783"><ele>456.0</ele><time>2026-04-09T07:54:57.087Z</time></trkpt><trkpt lat="41.0866117" lon="14.6782567"><ele>457.0</ele><time>2026-04-09T07:54:58.087Z</time></trkpt><trkpt lat="41.0867333" lon="14.6782233"><ele>458.0</ele><time>2026-04-09T07:54:59.087Z</time></trkpt><trkpt lat="41.0868583" lon="14.6781817"><ele>459.0</ele><time>2026-04-09T07:55:00.087Z</time></trkpt><trkpt lat="41.086975" lon="14.6781333"><ele>459.0</ele><time>2026-04-09T07:55:01.087Z</time></trkpt><trkpt lat="41.08708" lon="14.678095"><ele>459.0</ele><time>2026-04-09T07:55:02.087Z</time></trkpt><trkpt lat="41.0871867" lon="14.6780567"><ele>459.0</ele><time>2026-04-09T07:55:03.087Z</time></trkpt><trkpt lat="41.0872933" lon="14.6780217"><ele>459.0</ele><time>2026-04-09T07:55:04.087Z</time></trkpt><trkpt lat="41.0873917" lon="14.6779817"><ele>459.0</ele><time>2026-04-09T07:55:05.087Z</time></trkpt><trkpt lat="41.08749" lon="14.67791"><ele>458.2</ele><time>2026-04-09T07:55:06.087Z</time></trkpt><trkpt lat="41.087575" lon="14.67782"><ele>457.4</ele><time>2026-04-09T07:55:07.087Z</time></trkpt><trkpt lat="41.0876533" lon="14.6777367"><ele>456.6</ele><time>2026-04-09T07:55:08.087Z</time></trkpt><trkpt lat="41.08773" lon="14.67766"><ele>455.8</ele><time>2026-04-09T07:55:09.087Z</time></trkpt><trkpt lat="41.087815" lon="14.6776117"><ele>455.0</ele><time>2026-04-09T07:55:10.087Z</time></trkpt><trkpt lat="41.0878983" lon="14.6775933"><ele>455.0</ele><time>2026-04-09T07:55:11.087Z</time></trkpt><trkpt lat="41.0879967" lon="14.6775983"><ele>455.0</ele><time>2026-04-09T07:55:12.087Z</time></trkpt><trkpt lat="41.088095" lon="14.677625"><ele>455.0</ele><time>2026-04-09T07:55:13.087Z</time></trkpt><trkpt lat="41.0881883" lon="14.6776717"><ele>455.0</ele><time>2026-04-09T07:55:14.087Z</time></trkpt><trkpt lat="41.0882717" lon="14.6777367"><ele>455.0</ele><time>2026-04-09T07:55:15.087Z</time></trkpt><trkpt lat="41.0883533" lon="14.6778233"><ele>455.0</ele><time>2026-04-09T07:55:16.087Z</time></trkpt><trkpt lat="41.0884283" lon="14.6779283"><ele>455.0</ele><time>2026-04-09T07:55:17.087Z</time></trkpt><trkpt lat="41.0885067" lon="14.67803"><ele>455.0</ele><time>2026-04-09T07:55:18.087Z</time></trkpt><trkpt lat="41.0885817" lon="14.67813"><ele>455.0</ele><time>2026-04-09T07:55:19.087Z</time></trkpt><trkpt lat="41.08865" lon="14.6782367"><ele>455.0</ele><time>2026-04-09T07:55:20.087Z</time></trkpt><trkpt lat="41.0887067" lon="14.6783517"><ele>455.0</ele><time>2026-04-09T07:55:21.087Z</time></trkpt><trkpt lat="41.0887583" lon="14.6784883"><ele>455.0</ele><time>2026-04-09T07:55:22.087Z</time></trkpt><trkpt lat="41.0888117" lon="14.6786367"><ele>455.0</ele><time>2026-04-09T07:55:23.087Z</time></trkpt><trkpt lat="41.0888517" lon="14.6787917"><ele>455.0</ele><time>2026-04-09T07:55:24.087Z</time></trkpt><trkpt lat="41.0888917" lon="14.6789483"><ele>454.0</ele><time>2026-04-09T07:55:25.087Z</time></trkpt><trkpt lat="41.088945" lon="14.6791"><ele>453.0</ele><time>2026-04-09T07:55:26.087Z</time></trkpt><trkpt lat="41.0889933" lon="14.67925"><ele>452.0</ele><time>2026-04-09T07:55:27.087Z</time></trkpt><trkpt lat="41.08904" lon="14.6794033"><ele>451.0</ele><time>2026-04-09T07:55:28.087Z</time></trkpt><trkpt lat="41.08908" lon="14.679565"><ele>453.0</ele><time>2026-04-09T07:55:29.087Z</time></trkpt><trkpt lat="41.0891167" lon="14.67973"><ele>455.0</ele><time>2026-04-09T07:55:30.087Z</time></trkpt><trkpt lat="41.0891517" lon="14.6798967"><ele>457.0</ele><time>2026-04-09T07:55:31.087Z</time></trkpt><trkpt lat="41.0891833" lon="14.68005"><ele>459.0</ele><time>2026-04-09T07:55:32.087Z</time></trkpt><trkpt lat="41.0892183" lon="14.6802"><ele>457.5</ele><time>2026-04-09T07:55:33.087Z</time></trkpt><trkpt lat="41.089255" lon="14.6803533"><ele>456.0</ele><time>2026-04-09T07:55:34.087Z</time></trkpt><trkpt lat="41.089285" lon="14.6805117"><ele>454.5</ele><time>2026-04-09T07:55:35.087Z</time></trkpt><trkpt lat="41.0893067" lon="14.680655"><ele>453.0</ele><time>2026-04-09T07:55:36.087Z</time></trkpt><trkpt lat="41.0893133" lon="14.6808033"><ele>453.0</ele><time>2026-04-09T07:55:37.087Z</time></trkpt><trkpt lat="41.0893167" lon="14.6809467"><ele>453.0</ele><time>2026-04-09T07:55:38.087Z</time></trkpt><trkpt lat="41.0893167" lon="14.681095"><ele>453.0</ele><time>2026-04-09T07:55:39.087Z</time></trkpt><trkpt lat="41.0893167" lon="14.6812517"><ele>453.0</ele><time>2026-04-09T07:55:40.087Z</time></trkpt><trkpt lat="41.0893217" lon="14.6814183"><ele>452.25</ele><time>2026-04-09T07:55:41.087Z</time></trkpt><trkpt lat="41.0893367" lon="14.6815817"><ele>451.5</ele><time>2026-04-09T07:55:42.087Z</time></trkpt><trkpt lat="41.08936" lon="14.681745"><ele>450.75</ele><time>2026-04-09T07:55:43.087Z</time></trkpt><trkpt lat="41.0893683" lon="14.6819017"><ele>450.0</ele><time>2026-04-09T07:55:44.087Z</time></trkpt><trkpt lat="41.08937" lon="14.6820433"><ele>450.0</ele><time>2026-04-09T07:55:45.087Z</time></trkpt><trkpt lat="41.0893633" lon="14.6821683"><ele>450.0</ele><time>2026-04-09T07:55:46.087Z</time></trkpt><trkpt lat="41.08936" lon="14.6822767"><ele>450.0</ele><time>2026-04-09T07:55:47.087Z</time></trkpt><trkpt lat="41.0893583" lon="14.6823617"><ele>450.0</ele><time>2026-04-09T07:55:48.087Z</time></trkpt><trkpt lat="41.0893533" lon="14.6824683"><ele>450.0</ele><time>2026-04-09T07:55:50.087Z</time></trkpt><trkpt lat="41.0893917" lon="14.6825517"><ele>450.0</ele><time>2026-04-09T07:55:55.087Z</time></trkpt><trkpt lat="41.0894483" lon="14.6825083"><ele>450.0</ele><time>2026-04-09T07:55:57.087Z</time></trkpt><trkpt lat="41.0895067" lon="14.6823583"><ele>450.0</ele><time>2026-04-09T07:55:59.087Z</time></trkpt><trkpt lat="41.0895383" lon="14.68227"><ele>450.0</ele><time>2026-04-09T07:56:00.087Z</time></trkpt><trkpt lat="41.0895783" lon="14.6821633"><ele>450.0</ele><time>2026-04-09T07:56:01.087Z</time></trkpt><trkpt lat="41.0896283" lon="14.682035"><ele>450.0</ele><time>2026-04-09T07:56:02.087Z</time></trkpt><trkpt lat="41.0896817" lon="14.681905"><ele>449.75</ele><time>2026-04-09T07:56:03.087Z</time></trkpt><trkpt lat="41.08973" lon="14.6817717"><ele>449.5</ele><time>2026-04-09T07:56:04.087Z</time></trkpt><trkpt lat="41.0897917" lon="14.6816333"><ele>449.25</ele><time>2026-04-09T07:56:05.087Z</time></trkpt><trkpt lat="41.0898567" lon="14.6814867"><ele>449.0</ele><time>2026-04-09T07:56:06.087Z</time></trkpt><trkpt lat="41.0899183" lon="14.681335"><ele>450.5</ele><time>2026-04-09T07:56:07.087Z</time></trkpt><trkpt lat="41.08998" lon="14.6811783"><ele>452.0</ele><time>2026-04-09T07:56:08.087Z</time></trkpt><trkpt lat="41.0900383" lon="14.6810167"><ele>453.5</ele><time>2026-04-09T07:56:09.087Z</time></trkpt><trkpt lat="41.0900883" lon="14.6808717"><ele>455.0</ele><time>2026-04-09T07:56:10.087Z</time></trkpt><trkpt lat="41.090115" lon="14.680715"><ele>456.5</ele><time>2026-04-09T07:56:11.087Z</time></trkpt><trkpt lat="41.090125" lon="14.68055"><ele>458.0</ele><time>2026-04-09T07:56:12.087Z</time></trkpt><trkpt lat="41.0901183" lon="14.68037"><ele>459.5</ele><time>2026-04-09T07:56:13.087Z</time></trkpt><trkpt lat="41.090095" lon="14.6801767"><ele>461.0</ele><time>2026-04-09T07:56:14.087Z</time></trkpt><trkpt lat="41.0900583" lon="14.67998"><ele>462.0</ele><time>2026-04-09T07:56:15.087Z</time></trkpt><trkpt lat="41.090015" lon="14.6797817"><ele>463.0</ele><time>2026-04-09T07:56:16.087Z</time></trkpt><trkpt lat="41.0899633" lon="14.6795883"><ele>464.0</ele><time>2026-04-09T07:56:17.087Z</time></trkpt><trkpt lat="41.0898983" lon="14.67941"><ele>464.0</ele><time>2026-04-09T07:56:18.087Z</time></trkpt><trkpt lat="41.0898317" lon="14.6792417"><ele>464.0</ele><time>2026-04-09T07:56:19.087Z</time></trkpt><trkpt lat="41.089775" lon="14.679085"><ele>464.0</ele><time>2026-04-09T07:56:20.087Z</time></trkpt><trkpt lat="41.0897217" lon="14.6789467"><ele>464.0</ele><time>2026-04-09T07:56:21.087Z</time></trkpt><trkpt lat="41.0896867" lon="14.6787983"><ele>464.0</ele><time>2026-04-09T07:56:22.087Z</time></trkpt><trkpt lat="41.0896717" lon="14.6786467"><ele>464.0</ele><time>2026-04-09T07:56:23.087Z</time></trkpt><trkpt lat="41.08969" lon="14.6784833"><ele>464.0</ele><time>2026-04-09T07:56:24.087Z</time></trkpt><trkpt lat="41.0897283" lon="14.678325"><ele>464.0</ele><time>2026-04-09T07:56:25.087Z</time></trkpt><trkpt lat="41.089785" lon="14.6781817"><ele>465.25</ele><time>2026-04-09T07:56:26.087Z</time></trkpt><trkpt lat="41.08985" lon="14.6780583"><ele>466.5</ele><time>2026-04-09T07:56:27.087Z</time></trkpt><trkpt lat="41.0899367" lon="14.6779583"><ele>467.75</ele><time>2026-04-09T07:56:28.087Z</time></trkpt><trkpt lat="41.0900383" lon="14.6778483"><ele>469.0</ele><time>2026-04-09T07:56:29.087Z</time></trkpt><trkpt lat="41.09014" lon="14.6777217"><ele>473.25</ele><time>2026-04-09T07:56:30.087Z</time></trkpt><trkpt lat="41.090235" lon="14.6775733"><ele>477.5</ele><time>2026-04-09T07:56:31.087Z</time></trkpt><trkpt lat="41.09031" lon="14.6774183"><ele>481.75</ele><time>2026-04-09T07:56:32.087Z</time></trkpt><trkpt lat="41.0903767" lon="14.677255"><ele>486.0</ele><time>2026-04-09T07:56:33.087Z</time></trkpt><trkpt lat="41.0904383" lon="14.6770967"><ele>486.0</ele><time>2026-04-09T07:56:34.087Z</time></trkpt><trkpt lat="41.0905067" lon="14.676965"><ele>486.0</ele><time>2026-04-09T07:56:35.087Z</time></trkpt><trkpt lat="41.0906733" lon="14.676715"><ele>486.0</ele><time>2026-04-09T07:56:37.087Z</time></trkpt><trkpt lat="41.0907717" lon="14.6766"><ele>488.5</ele><time>2026-04-09T07:56:38.087Z</time></trkpt><trkpt lat="41.0908833" lon="14.6764967"><ele>491.0</ele><time>2026-04-09T07:56:39.087Z</time></trkpt><trkpt lat="41.0910083" lon="14.676395"><ele>493.5</ele><time>2026-04-09T07:56:40.087Z</time></trkpt><trkpt lat="41.0911183" lon="14.6763017"><ele>496.0</ele><time>2026-04-09T07:56:41.087Z</time></trkpt><trkpt lat="41.0912283" lon="14.6762167"><ele>496.0</ele><time>2026-04-09T07:56:42.087Z</time></trkpt><trkpt lat="41.0913367" lon="14.6761517"><ele>496.0</ele><time>2026-04-09T07:56:43.087Z</time></trkpt><trkpt lat="41.091445" lon="14.6760867"><ele>496.0</ele><time>2026-04-09T07:56:44.087Z</time></trkpt><trkpt lat="41.0915533" lon="14.6760183"><ele>496.0</ele><time>2026-04-09T07:56:45.087Z</time></trkpt><trkpt lat="41.09166" lon="14.67595"><ele>499.25</ele><time>2026-04-09T07:56:46.087Z</time></trkpt><trkpt lat="41.091755" lon="14.6758767"><ele>502.5</ele><time>2026-04-09T07:56:47.087Z</time></trkpt><trkpt lat="41.0918533" lon="14.675795"><ele>505.75</ele><time>2026-04-09T07:56:48.087Z</time></trkpt><trkpt lat="41.0919467" lon="14.675695"><ele>509.0</ele><time>2026-04-09T07:56:49.087Z</time></trkpt><trkpt lat="41.09203" lon="14.6755967"><ele>509.0</ele><time>2026-04-09T07:56:50.087Z</time></trkpt><trkpt lat="41.0921083" lon="14.6754817"><ele>509.0</ele><time>2026-04-09T07:56:51.087Z</time></trkpt><trkpt lat="41.0921767" lon="14.6753467"><ele>509.0</ele><time>2026-04-09T07:56:52.087Z</time></trkpt><trkpt lat="41.0922283" lon="14.6751917"><ele>509.0</ele><time>2026-04-09T07:56:53.087Z</time></trkpt><trkpt lat="41.0922867" lon="14.6750283"><ele>513.5</ele><time>2026-04-09T07:56:54.087Z</time></trkpt><trkpt lat="41.0923367" lon="14.6748717"><ele>518.0</ele><time>2026-04-09T07:56:55.087Z</time></trkpt><trkpt lat="41.0923717" lon="14.6746983"><ele>522.5</ele><time>2026-04-09T07:56:56.087Z</time></trkpt><trkpt lat="41.0923917" lon="14.6745117"><ele>527.0</ele><time>2026-04-09T07:56:57.087Z</time></trkpt><trkpt lat="41.0924033" lon="14.6743233"><ele>525.5</ele><time>2026-04-09T07:56:58.087Z</time></trkpt><trkpt lat="41.0924083" lon="14.67413"><ele>524.0</ele><time>2026-04-09T07:56:59.087Z</time></trkpt><trkpt lat="41.0924233" lon="14.6739483"><ele>522.5</ele><time>2026-04-09T07:57:00.087Z</time></trkpt><trkpt lat="41.09245" lon="14.6737767"><ele>521.0</ele><time>2026-04-09T07:57:01.087Z</time></trkpt><trkpt lat="41.0924867" lon="14.673625"><ele>522.5</ele><time>2026-04-09T07:57:02.087Z</time></trkpt><trkpt lat="41.09255" lon="14.6735067"><ele>524.0</ele><time>2026-04-09T07:57:03.087Z</time></trkpt><trkpt lat="41.0926367" lon="14.673415"><ele>525.5</ele><time>2026-04-09T07:57:04.087Z</time></trkpt><trkpt lat="41.09274" lon="14.6733417"><ele>527.0</ele><time>2026-04-09T07:57:05.087Z</time></trkpt><trkpt lat="41.0928467" lon="14.6732667"><ele>527.0</ele><time>2026-04-09T07:57:06.087Z</time></trkpt><trkpt lat="41.09294" lon="14.6731867"><ele>527.0</ele><time>2026-04-09T07:57:07.087Z</time></trkpt><trkpt lat="41.0930183" lon="14.6730917"><ele>527.0</ele><time>2026-04-09T07:57:08.087Z</time></trkpt><trkpt lat="41.0930833" lon="14.67297"><ele>527.0</ele><time>2026-04-09T07:57:09.087Z</time></trkpt><trkpt lat="41.0931283" lon="14.67282"><ele>529.5</ele><time>2026-04-09T07:57:10.087Z</time></trkpt><trkpt lat="41.093145" lon="14.672655"><ele>532.0</ele><time>2026-04-09T07:57:11.087Z</time></trkpt><trkpt lat="41.0931433" lon="14.6724967"><ele>534.5</ele><time>2026-04-09T07:57:12.087Z</time></trkpt><trkpt lat="41.0931167" lon="14.6723567"><ele>537.0</ele><time>2026-04-09T07:57:13.087Z</time></trkpt><trkpt lat="41.0930717" lon="14.6722267"><ele>537.0</ele><time>2026-04-09T07:57:14.087Z</time></trkpt><trkpt lat="41.092995" lon="14.6721167"><ele>537.0</ele><time>2026-04-09T07:57:15.087Z</time></trkpt><trkpt lat="41.0928933" lon="14.67204"><ele>537.0</ele><time>2026-04-09T07:57:16.087Z</time></trkpt><trkpt lat="41.0927783" lon="14.6719933"><ele>537.0</ele><time>2026-04-09T07:57:17.087Z</time></trkpt><trkpt lat="41.0926433" lon="14.671965"><ele>537.0</ele><time>2026-04-09T07:57:18.087Z</time></trkpt><trkpt lat="41.0924967" lon="14.6719667"><ele>537.0</ele><time>2026-04-09T07:57:19.087Z</time></trkpt><trkpt lat="41.0923417" lon="14.6719983"><ele>537.0</ele><time>2026-04-09T07:57:20.087Z</time></trkpt><trkpt lat="41.0921783" lon="14.6720383"><ele>538.25</ele><time>2026-04-09T07:57:21.087Z</time></trkpt><trkpt lat="41.0920267" lon="14.67206"><ele>539.5</ele><time>2026-04-09T07:57:22.087Z</time></trkpt><trkpt lat="41.091885" lon="14.67208"><ele>540.75</ele><time>2026-04-09T07:57:23.087Z</time></trkpt><trkpt lat="41.0917517" lon="14.6720917"><ele>542.0</ele><time>2026-04-09T07:57:24.087Z</time></trkpt><trkpt lat="41.091625" lon="14.672085"><ele>541.75</ele><time>2026-04-09T07:57:25.087Z</time></trkpt><trkpt lat="41.091505" lon="14.6720533"><ele>541.5</ele><time>2026-04-09T07:57:26.087Z</time></trkpt><trkpt lat="41.09139" lon="14.6720017"><ele>541.25</ele><time>2026-04-09T07:57:27.087Z</time></trkpt><trkpt lat="41.0912917" lon="14.6719417"><ele>541.0</ele><time>2026-04-09T07:57:28.087Z</time></trkpt><trkpt lat="41.0911983" lon="14.67187"><ele>543.2</ele><time>2026-04-09T07:57:29.087Z</time></trkpt><trkpt lat="41.0911" lon="14.6718067"><ele>545.4000000000001</ele><time>2026-04-09T07:57:30.087Z</time></trkpt><trkpt lat="41.09101" lon="14.67174"><ele>547.6</ele><time>2026-04-09T07:57:31.087Z</time></trkpt><trkpt lat="41.0909267" lon="14.671675"><ele>549.8000000000001</ele><time>2026-04-09T07:57:32.087Z</time></trkpt><trkpt lat="41.090845" lon="14.6716233"><ele>552.0</ele><time>2026-04-09T07:57:33.087Z</time></trkpt><trkpt lat="41.0907733" lon="14.6715767"><ele>552.0</ele><time>2026-04-09T07:57:34.087Z</time></trkpt><trkpt lat="41.0907167" lon="14.6715283"><ele>552.0</ele><time>2026-04-09T07:57:35.087Z</time></trkpt><trkpt lat="41.0906083" lon="14.67145"><ele>552.0</ele><time>2026-04-09T07:57:37.087Z</time></trkpt><trkpt lat="41.0905067" lon="14.67136"><ele>552.0</ele><time>2026-04-09T07:57:39.087Z</time></trkpt><trkpt lat="41.090445" lon="14.6712817"><ele>552.0</ele><time>2026-04-09T07:57:41.087Z</time></trkpt><trkpt lat="41.0903917" lon="14.67119"><ele>552.0</ele><time>2026-04-09T07:57:44.087Z</time></trkpt><trkpt lat="41.0903517" lon="14.6711083"><ele>552.0</ele><time>2026-04-09T07:57:47.087Z</time></trkpt><trkpt lat="41.090325" lon="14.6710283"><ele>552.0</ele><time>2026-04-09T07:57:52.087Z</time></trkpt><trkpt lat="41.0903067" lon="14.6711333"><ele>552.0</ele><time>2026-04-09T07:57:58.087Z</time></trkpt><trkpt lat="41.0903517" lon="14.671195"><ele>552.0</ele><time>2026-04-09T07:57:59.087Z</time></trkpt><trkpt lat="41.0904167" lon="14.671285"><ele>552.0</ele><time>2026-04-09T07:58:00.087Z</time></trkpt><trkpt lat="41.0904983" lon="14.67137"><ele>552.0</ele><time>2026-04-09T07:58:01.087Z</time></trkpt><trkpt lat="41.0905867" lon="14.6714417"><ele>552.0</ele><time>2026-04-09T07:58:02.087Z</time></trkpt><trkpt lat="41.0906933" lon="14.6715167"><ele>552.0</ele><time>2026-04-09T07:58:03.087Z</time></trkpt><trkpt lat="41.0907917" lon="14.671595"><ele>552.0</ele><time>2026-04-09T07:58:04.087Z</time></trkpt><trkpt lat="41.0908917" lon="14.6716683"><ele>552.0</ele><time>2026-04-09T07:58:05.087Z</time></trkpt><trkpt lat="41.0909983" lon="14.6717433"><ele>552.0</ele><time>2026-04-09T07:58:06.087Z</time></trkpt><trkpt lat="41.0911083" lon="14.6718183"><ele>552.0</ele><time>2026-04-09T07:58:07.087Z</time></trkpt><trkpt lat="41.0912133" lon="14.6718933"><ele>552.0</ele><time>2026-04-09T07:58:08.087Z</time></trkpt><trkpt lat="41.091315" lon="14.6719617"><ele>550.0</ele><time>2026-04-09T07:58:09.087Z</time></trkpt><trkpt lat="41.091415" lon="14.67202"><ele>548.0</ele><time>2026-04-09T07:58:10.087Z</time></trkpt><trkpt lat="41.0915167" lon="14.672065"><ele>546.0</ele><time>2026-04-09T07:58:11.087Z</time></trkpt><trkpt lat="41.0916233" lon="14.6720967"><ele>544.0</ele><time>2026-04-09T07:58:12.087Z</time></trkpt><trkpt lat="41.09174" lon="14.6721017"><ele>542.0</ele><time>2026-04-09T07:58:13.087Z</time></trkpt><trkpt lat="41.0918533" lon="14.6720917"><ele>542.0</ele><time>2026-04-09T07:58:14.087Z</time></trkpt><trkpt lat="41.0919617" lon="14.6720783"><ele>542.0</ele><time>2026-04-09T07:58:15.087Z</time></trkpt><trkpt lat="41.0920683" lon="14.6720683"><ele>542.0</ele><time>2026-04-09T07:58:16.087Z</time></trkpt><trkpt lat="41.0921667" lon="14.6720567"><ele>542.0</ele><time>2026-04-09T07:58:17.087Z</time></trkpt><trkpt lat="41.09226" lon="14.6720433"><ele>542.0</ele><time>2026-04-09T07:58:18.087Z</time></trkpt><trkpt lat="41.0923383" lon="14.6720317"><ele>542.0</ele><time>2026-04-09T07:58:19.087Z</time></trkpt><trkpt lat="41.09241" lon="14.67202"><ele>542.0</ele><time>2026-04-09T07:58:20.087Z</time></trkpt><trkpt lat="41.092475" lon="14.672"><ele>542.0</ele><time>2026-04-09T07:58:21.087Z</time></trkpt><trkpt lat="41.092535" lon="14.6719617"><ele>542.0</ele><time>2026-04-09T07:58:22.087Z</time></trkpt><trkpt lat="41.0926433" lon="14.6718783"><ele>542.0</ele><time>2026-04-09T07:58:24.087Z</time></trkpt><trkpt lat="41.0927067" lon="14.6718483"><ele>542.0</ele><time>2026-04-09T07:58:25.087Z</time></trkpt><trkpt lat="41.0927717" lon="14.6718167"><ele>541.5714285714286</ele><time>2026-04-09T07:58:26.087Z</time></trkpt><trkpt lat="41.0928333" lon="14.6717817"><ele>541.1428571428571</ele><time>2026-04-09T07:58:27.087Z</time></trkpt><trkpt lat="41.0929" lon="14.67175"><ele>540.7142857142858</ele><time>2026-04-09T07:58:28.087Z</time></trkpt><trkpt lat="41.0929617" lon="14.6717267"><ele>540.2857142857142</ele><time>2026-04-09T07:58:29.087Z</time></trkpt><trkpt lat="41.0930333" lon="14.6717"><ele>539.8571428571429</ele><time>2026-04-09T07:58:30.087Z</time></trkpt><trkpt lat="41.09311" lon="14.6716817"><ele>539.4285714285714</ele><time>2026-04-09T07:58:31.087Z</time></trkpt><trkpt lat="41.0931833" lon="14.671675"><ele>539.0</ele><time>2026-04-09T07:58:32.087Z</time></trkpt><trkpt lat="41.0932633" lon="14.67169"><ele>539.0</ele><time>2026-04-09T07:58:33.087Z</time></trkpt><trkpt lat="41.0933433" lon="14.6717233"><ele>539.0</ele><time>2026-04-09T07:58:34.087Z</time></trkpt><trkpt lat="41.0934183" lon="14.6717517"><ele>539.0</ele><time>2026-04-09T07:58:35.087Z</time></trkpt><trkpt lat="41.09349" lon="14.671785"><ele>539.0</ele><time>2026-04-09T07:58:36.087Z</time></trkpt><trkpt lat="41.0935617" lon="14.6718017"><ele>539.0</ele><time>2026-04-09T07:58:37.087Z</time></trkpt><trkpt lat="41.093645" lon="14.671795"><ele>539.0</ele><time>2026-04-09T07:58:38.087Z</time></trkpt><trkpt lat="41.09373" lon="14.67177"><ele>539.0</ele><time>2026-04-09T07:58:39.087Z</time></trkpt><trkpt lat="41.0938233" lon="14.67174"><ele>539.0</ele><time>2026-04-09T07:58:40.087Z</time></trkpt><trkpt lat="41.0939233" lon="14.6716983"><ele>539.0</ele><time>2026-04-09T07:58:41.087Z</time></trkpt><trkpt lat="41.0940183" lon="14.6716567"><ele>539.0</ele><time>2026-04-09T07:58:42.087Z</time></trkpt><trkpt lat="41.0941033" lon="14.671615"><ele>539.0</ele><time>2026-04-09T07:58:43.087Z</time></trkpt><trkpt lat="41.094175" lon="14.6715767"><ele>538.6</ele><time>2026-04-09T07:58:44.087Z</time></trkpt><trkpt lat="41.09425" lon="14.6715367"><ele>538.2</ele><time>2026-04-09T07:58:45.087Z</time></trkpt><trkpt lat="41.0943317" lon="14.6714933"><ele>537.8000000000001</ele><time>2026-04-09T07:58:46.087Z</time></trkpt><trkpt lat="41.0944183" lon="14.6714317"><ele>537.4</ele><time>2026-04-09T07:58:47.087Z</time></trkpt><trkpt lat="41.0945083" lon="14.67136"><ele>537.0</ele><time>2026-04-09T07:58:48.087Z</time></trkpt><trkpt lat="41.0945983" lon="14.6712967"><ele>537.0</ele><time>2026-04-09T07:58:49.087Z</time></trkpt><trkpt lat="41.09469" lon="14.6712383"><ele>537.0</ele><time>2026-04-09T07:58:50.087Z</time></trkpt><trkpt lat="41.09478" lon="14.6711767"><ele>537.0</ele><time>2026-04-09T07:58:51.087Z</time></trkpt><trkpt lat="41.0948717" lon="14.67111"><ele>537.0</ele><time>2026-04-09T07:58:52.087Z</time></trkpt><trkpt lat="41.0949717" lon="14.6710533"><ele>537.0</ele><time>2026-04-09T07:58:53.087Z</time></trkpt><trkpt lat="41.095065" lon="14.67101"><ele>538.3333333333334</ele><time>2026-04-09T07:58:54.087Z</time></trkpt><trkpt lat="41.0951533" lon="14.67098"><ele>539.6666666666666</ele><time>2026-04-09T07:58:55.087Z</time></trkpt><trkpt lat="41.0952317" lon="14.6709533"><ele>541.0</ele><time>2026-04-09T07:58:56.087Z</time></trkpt><trkpt lat="41.095305" lon="14.6709317"><ele>542.3333333333333</ele><time>2026-04-09T07:58:57.087Z</time></trkpt><trkpt lat="41.095375" lon="14.6708967"><ele>543.6666666666666</ele><time>2026-04-09T07:58:58.087Z</time></trkpt><trkpt lat="41.095445" lon="14.6708483"><ele>545.0</ele><time>2026-04-09T07:58:59.087Z</time></trkpt><trkpt lat="41.0955067" lon="14.6708067"><ele>545.0</ele><time>2026-04-09T07:59:00.087Z</time></trkpt><trkpt lat="41.0955667" lon="14.670775"><ele>545.0</ele><time>2026-04-09T07:59:01.087Z</time></trkpt><trkpt lat="41.09563" lon="14.6707567"><ele>545.0</ele><time>2026-04-09T07:59:02.087Z</time></trkpt><trkpt lat="41.0956967" lon="14.670765"><ele>545.0</ele><time>2026-04-09T07:59:03.087Z</time></trkpt><trkpt lat="41.0957667" lon="14.6707933"><ele>545.0</ele><time>2026-04-09T07:59:04.087Z</time></trkpt><trkpt lat="41.09584" lon="14.6708417"><ele>545.0</ele><time>2026-04-09T07:59:05.087Z</time></trkpt><trkpt lat="41.0959183" lon="14.67091"><ele>545.0</ele><time>2026-04-09T07:59:06.087Z</time></trkpt><trkpt lat="41.0960067" lon="14.67098"><ele>543.8</ele><time>2026-04-09T07:59:07.087Z</time></trkpt><trkpt lat="41.0960983" lon="14.67104"><ele>542.6</ele><time>2026-04-09T07:59:08.087Z</time></trkpt><trkpt lat="41.0961933" lon="14.6711"><ele>541.4</ele><time>2026-04-09T07:59:09.087Z</time></trkpt><trkpt lat="41.0962867" lon="14.671165"><ele>540.2</ele><time>2026-04-09T07:59:10.087Z</time></trkpt><trkpt lat="41.096385" lon="14.6712217"><ele>539.0</ele><time>2026-04-09T07:59:11.087Z</time></trkpt><trkpt lat="41.0964833" lon="14.6712667"><ele>537.4</ele><time>2026-04-09T07:59:12.087Z</time></trkpt><trkpt lat="41.09659" lon="14.6713067"><ele>535.8</ele><time>2026-04-09T07:59:13.087Z</time></trkpt><trkpt lat="41.09669" lon="14.6713383"><ele>534.2</ele><time>2026-04-09T07:59:14.087Z</time></trkpt><trkpt lat="41.09679" lon="14.6713567"><ele>532.6</ele><time>2026-04-09T07:59:15.087Z</time></trkpt><trkpt lat="41.0968783" lon="14.67137"><ele>531.0</ele><time>2026-04-09T07:59:16.087Z</time></trkpt><trkpt lat="41.0969683" lon="14.671395"><ele>531.0</ele><time>2026-04-09T07:59:17.087Z</time></trkpt><trkpt lat="41.0970717" lon="14.6714133"><ele>531.0</ele><time>2026-04-09T07:59:18.087Z</time></trkpt><trkpt lat="41.0971733" lon="14.6714417"><ele>531.0</ele><time>2026-04-09T07:59:19.087Z</time></trkpt><trkpt lat="41.097275" lon="14.6714883"><ele>531.0</ele><time>2026-04-09T07:59:20.087Z</time></trkpt><trkpt lat="41.0973767" lon="14.6715517"><ele>531.0</ele><time>2026-04-09T07:59:21.087Z</time></trkpt><trkpt lat="41.0974683" lon="14.6716317"><ele>529.5</ele><time>2026-04-09T07:59:22.087Z</time></trkpt><trkpt lat="41.0975667" lon="14.6717333"><ele>528.0</ele><time>2026-04-09T07:59:23.087Z</time></trkpt><trkpt lat="41.097665" lon="14.67184"><ele>526.5</ele><time>2026-04-09T07:59:24.087Z</time></trkpt><trkpt lat="41.0977683" lon="14.67194"><ele>525.0</ele><time>2026-04-09T07:59:25.087Z</time></trkpt><trkpt lat="41.0978717" lon="14.672025"><ele>524.6</ele><time>2026-04-09T07:59:26.087Z</time></trkpt><trkpt lat="41.0979667" lon="14.672095"><ele>524.2</ele><time>2026-04-09T07:59:27.087Z</time></trkpt><trkpt lat="41.0980733" lon="14.6721567"><ele>523.8</ele><time>2026-04-09T07:59:28.087Z</time></trkpt><trkpt lat="41.0981733" lon="14.6722067"><ele>523.4</ele><time>2026-04-09T07:59:29.087Z</time></trkpt><trkpt lat="41.0982717" lon="14.672235"><ele>523.0</ele><time>2026-04-09T07:59:30.087Z</time></trkpt><trkpt lat="41.09838" lon="14.672245"><ele>521.1999999999999</ele><time>2026-04-09T07:59:31.087Z</time></trkpt><trkpt lat="41.098485" lon="14.6722383"><ele>519.4</ele><time>2026-04-09T07:59:32.087Z</time></trkpt><trkpt lat="41.0985967" lon="14.67222"><ele>517.5999999999999</ele><time>2026-04-09T07:59:33.087Z</time></trkpt><trkpt lat="41.0987017" lon="14.6721983"><ele>515.8</ele><time>2026-04-09T07:59:34.087Z</time></trkpt><trkpt lat="41.0988033" lon="14.6721867"><ele>514.0</ele><time>2026-04-09T07:59:35.087Z</time></trkpt><trkpt lat="41.098905" lon="14.6721833"><ele>514.0</ele><time>2026-04-09T07:59:36.087Z</time></trkpt><trkpt lat="41.0990183" lon="14.6722033"><ele>514.0</ele><time>2026-04-09T07:59:37.087Z</time></trkpt><trkpt lat="41.0991333" lon="14.6722367"><ele>514.0</ele><time>2026-04-09T07:59:38.087Z</time></trkpt><trkpt lat="41.099245" lon="14.672275"><ele>514.0</ele><time>2026-04-09T07:59:39.087Z</time></trkpt><trkpt lat="41.0993583" lon="14.6723067"><ele>511.75</ele><time>2026-04-09T07:59:40.087Z</time></trkpt><trkpt lat="41.0994733" lon="14.67234"><ele>509.5</ele><time>2026-04-09T07:59:41.087Z</time></trkpt><trkpt lat="41.0995867" lon="14.672365"><ele>507.25</ele><time>2026-04-09T07:59:42.087Z</time></trkpt><trkpt lat="41.0997" lon="14.67238"><ele>505.0</ele><time>2026-04-09T07:59:43.087Z</time></trkpt><trkpt lat="41.0998117" lon="14.6723967"><ele>505.5</ele><time>2026-04-09T07:59:44.087Z</time></trkpt><trkpt lat="41.0999267" lon="14.6724183"><ele>506.0</ele><time>2026-04-09T07:59:45.087Z</time></trkpt><trkpt lat="41.10005" lon="14.6724467"><ele>506.5</ele><time>2026-04-09T07:59:46.087Z</time></trkpt><trkpt lat="41.10016" lon="14.6724783"><ele>507.0</ele><time>2026-04-09T07:59:47.087Z</time></trkpt><trkpt lat="41.10027" lon="14.6725067"><ele>507.0</ele><time>2026-04-09T07:59:48.087Z</time></trkpt><trkpt lat="41.1003767" lon="14.67252"><ele>507.00000000000006</ele><time>2026-04-09T07:59:49.087Z</time></trkpt><trkpt lat="41.1004733" lon="14.6725233"><ele>507.00000000000006</ele><time>2026-04-09T07:59:50.087Z</time></trkpt><trkpt lat="41.1005583" lon="14.6724967"><ele>507.0</ele><time>2026-04-09T07:59:51.087Z</time></trkpt><trkpt lat="41.100635" lon="14.6724533"><ele>507.0</ele><time>2026-04-09T07:59:52.087Z</time></trkpt><trkpt lat="41.1007117" lon="14.672395"><ele>507.40000000000003</ele><time>2026-04-09T07:59:53.087Z</time></trkpt><trkpt lat="41.10079" lon="14.6723333"><ele>507.80000000000007</ele><time>2026-04-09T07:59:54.087Z</time></trkpt><trkpt lat="41.1008783" lon="14.67229"><ele>508.2</ele><time>2026-04-09T07:59:55.087Z</time></trkpt><trkpt lat="41.1009717" lon="14.6722583"><ele>508.6</ele><time>2026-04-09T07:59:56.087Z</time></trkpt><trkpt lat="41.1010633" lon="14.6722333"><ele>509.0</ele><time>2026-04-09T07:59:57.087Z</time></trkpt><trkpt lat="41.1011567" lon="14.6722167"><ele>509.0</ele><time>2026-04-09T07:59:58.087Z</time></trkpt><trkpt lat="41.1012467" lon="14.6722"><ele>509.0</ele><time>2026-04-09T07:59:59.087Z</time></trkpt><trkpt lat="41.1013433" lon="14.6721883"><ele>509.0</ele><time>2026-04-09T08:00:00.087Z</time></trkpt><trkpt lat="41.10144" lon="14.6721817"><ele>509.0</ele><time>2026-04-09T08:00:01.087Z</time></trkpt><trkpt lat="41.101535" lon="14.672165"><ele>509.0</ele><time>2026-04-09T08:00:02.087Z</time></trkpt><trkpt lat="41.1016417" lon="14.6721483"><ele>506.5</ele><time>2026-04-09T08:00:03.087Z</time></trkpt><trkpt lat="41.1017483" lon="14.67213"><ele>504.0</ele><time>2026-04-09T08:00:04.087Z</time></trkpt><trkpt lat="41.1018617" lon="14.6721233"><ele>501.5</ele><time>2026-04-09T08:00:05.087Z</time></trkpt><trkpt lat="41.1019767" lon="14.67212"><ele>499.0</ele><time>2026-04-09T08:00:06.087Z</time></trkpt><trkpt lat="41.1020933" lon="14.6720983"><ele>499.0</ele><time>2026-04-09T08:00:07.087Z</time></trkpt><trkpt lat="41.1022067" lon="14.67208"><ele>499.0</ele><time>2026-04-09T08:00:08.087Z</time></trkpt><trkpt lat="41.1023133" lon="14.6720767"><ele>499.0</ele><time>2026-04-09T08:00:09.087Z</time></trkpt><trkpt lat="41.1024183" lon="14.6721017"><ele>499.0</ele><time>2026-04-09T08:00:10.087Z</time></trkpt><trkpt lat="41.10252" lon="14.6721567"><ele>499.0</ele><time>2026-04-09T08:00:11.087Z</time></trkpt><trkpt lat="41.1026217" lon="14.67223"><ele>498.25</ele><time>2026-04-09T08:00:12.087Z</time></trkpt><trkpt lat="41.10271" lon="14.6723133"><ele>497.5</ele><time>2026-04-09T08:00:13.087Z</time></trkpt><trkpt lat="41.102795" lon="14.672415"><ele>496.75</ele><time>2026-04-09T08:00:14.087Z</time></trkpt><trkpt lat="41.1028867" lon="14.6725133"><ele>496.0</ele><time>2026-04-09T08:00:15.087Z</time></trkpt><trkpt lat="41.102985" lon="14.672605"><ele>496.0</ele><time>2026-04-09T08:00:16.087Z</time></trkpt><trkpt lat="41.1030683" lon="14.6726883"><ele>496.0</ele><time>2026-04-09T08:00:17.087Z</time></trkpt><trkpt lat="41.1031467" lon="14.6727783"><ele>496.0</ele><time>2026-04-09T08:00:18.087Z</time></trkpt><trkpt lat="41.1032067" lon="14.6728767"><ele>496.0</ele><time>2026-04-09T08:00:19.087Z</time></trkpt><trkpt lat="41.1032567" lon="14.672975"><ele>496.0</ele><time>2026-04-09T08:00:20.087Z</time></trkpt><trkpt lat="41.1033033" lon="14.6730767"><ele>495.4</ele><time>2026-04-09T08:00:21.087Z</time></trkpt><trkpt lat="41.1033567" lon="14.6731917"><ele>494.8</ele><time>2026-04-09T08:00:22.087Z</time></trkpt><trkpt lat="41.1034167" lon="14.6733133"><ele>494.19999999999993</ele><time>2026-04-09T08:00:23.087Z</time></trkpt><trkpt lat="41.10348" lon="14.6734383"><ele>493.59999999999997</ele><time>2026-04-09T08:00:24.087Z</time></trkpt><trkpt lat="41.103535" lon="14.673565"><ele>493.0</ele><time>2026-04-09T08:00:25.087Z</time></trkpt><trkpt lat="41.1035883" lon="14.6736933"><ele>490.0</ele><time>2026-04-09T08:00:26.087Z</time></trkpt><trkpt lat="41.103645" lon="14.67381"><ele>486.99999999999994</ele><time>2026-04-09T08:00:27.087Z</time></trkpt><trkpt lat="41.103705" lon="14.6739217"><ele>483.99999999999994</ele><time>2026-04-09T08:00:28.087Z</time></trkpt><trkpt lat="41.1037683" lon="14.6740233"><ele>481.0</ele><time>2026-04-09T08:00:29.087Z</time></trkpt><trkpt lat="41.1038417" lon="14.6741117"><ele>478.0</ele><time>2026-04-09T08:00:30.087Z</time></trkpt><trkpt lat="41.1039233" lon="14.6741917"><ele>478.0</ele><time>2026-04-09T08:00:31.087Z</time></trkpt><trkpt lat="41.1040033" lon="14.6742517"><ele>477.99999999999994</ele><time>2026-04-09T08:00:32.087Z</time></trkpt><trkpt lat="41.1041017" lon="14.6742883"><ele>477.99999999999994</ele><time>2026-04-09T08:00:33.087Z</time></trkpt><trkpt lat="41.1042067" lon="14.674305"><ele>478.0</ele><time>2026-04-09T08:00:34.087Z</time></trkpt><trkpt lat="41.104325" lon="14.67431"><ele>478.0</ele><time>2026-04-09T08:00:35.087Z</time></trkpt><trkpt lat="41.10445" lon="14.674295"><ele>479.0</ele><time>2026-04-09T08:00:36.087Z</time></trkpt><trkpt lat="41.1045783" lon="14.67427"><ele>480.0</ele><time>2026-04-09T08:00:37.087Z</time></trkpt><trkpt lat="41.1047067" lon="14.6742383"><ele>481.0</ele><time>2026-04-09T08:00:38.087Z</time></trkpt><trkpt lat="41.104835" lon="14.6742067"><ele>482.0</ele><time>2026-04-09T08:00:39.087Z</time></trkpt><trkpt lat="41.1049617" lon="14.674165"><ele>479.5</ele><time>2026-04-09T08:00:40.087Z</time></trkpt><trkpt lat="41.1050817" lon="14.6741183"><ele>477.0</ele><time>2026-04-09T08:00:41.087Z</time></trkpt><trkpt lat="41.1052033" lon="14.6740717"><ele>474.5</ele><time>2026-04-09T08:00:42.087Z</time></trkpt><trkpt lat="41.1053333" lon="14.6740233"><ele>472.0</ele><time>2026-04-09T08:00:43.087Z</time></trkpt><trkpt lat="41.10546" lon="14.673975"><ele>472.0</ele><time>2026-04-09T08:00:44.087Z</time></trkpt><trkpt lat="41.1055817" lon="14.673935"><ele>472.0</ele><time>2026-04-09T08:00:45.087Z</time></trkpt><trkpt lat="41.10571" lon="14.673905"><ele>472.0</ele><time>2026-04-09T08:00:46.087Z</time></trkpt><trkpt lat="41.10582" lon="14.6738767"><ele>472.0</ele><time>2026-04-09T08:00:47.087Z</time></trkpt><trkpt lat="41.10593" lon="14.67385"><ele>469.20000000000005</ele><time>2026-04-09T08:00:48.087Z</time></trkpt><trkpt lat="41.106035" lon="14.673825"><ele>466.40000000000003</ele><time>2026-04-09T08:00:49.087Z</time></trkpt><trkpt lat="41.106135" lon="14.6738133"><ele>463.59999999999997</ele><time>2026-04-09T08:00:50.087Z</time></trkpt><trkpt lat="41.10624" lon="14.6737983"><ele>460.79999999999995</ele><time>2026-04-09T08:00:51.087Z</time></trkpt><trkpt lat="41.1063467" lon="14.673795"><ele>458.0</ele><time>2026-04-09T08:00:52.087Z</time></trkpt><trkpt lat="41.10645" lon="14.673805"><ele>458.0</ele><time>2026-04-09T08:00:53.087Z</time></trkpt><trkpt lat="41.10655" lon="14.6738233"><ele>457.99999999999994</ele><time>2026-04-09T08:00:54.087Z</time></trkpt><trkpt lat="41.106645" lon="14.6738567"><ele>457.99999999999994</ele><time>2026-04-09T08:00:55.087Z</time></trkpt><trkpt lat="41.1067433" lon="14.6738817"><ele>458.0</ele><time>2026-04-09T08:00:56.087Z</time></trkpt><trkpt lat="41.1068483" lon="14.6738883"><ele>458.0</ele><time>2026-04-09T08:00:57.087Z</time></trkpt><trkpt lat="41.1069583" lon="14.6738767"><ele>457.0</ele><time>2026-04-09T08:00:58.087Z</time></trkpt><trkpt lat="41.1070717" lon="14.67386"><ele>456.0</ele><time>2026-04-09T08:00:59.087Z</time></trkpt><trkpt lat="41.1071883" lon="14.673845"><ele>455.0</ele><time>2026-04-09T08:01:00.087Z</time></trkpt><trkpt lat="41.1073017" lon="14.6738383"><ele>454.0</ele><time>2026-04-09T08:01:01.087Z</time></trkpt><trkpt lat="41.1074233" lon="14.6738433"><ele>451.5</ele><time>2026-04-09T08:01:02.087Z</time></trkpt><trkpt lat="41.1075433" lon="14.673855"><ele>449.0</ele><time>2026-04-09T08:01:03.087Z</time></trkpt><trkpt lat="41.107665" lon="14.6738517"><ele>446.5</ele><time>2026-04-09T08:01:04.087Z</time></trkpt><trkpt lat="41.1077883" lon="14.6738467"><ele>444.0</ele><time>2026-04-09T08:01:05.087Z</time></trkpt><trkpt lat="41.1079133" lon="14.6738417"><ele>444.0</ele><time>2026-04-09T08:01:06.087Z</time></trkpt><trkpt lat="41.1080433" lon="14.6738467"><ele>444.0</ele><time>2026-04-09T08:01:07.087Z</time></trkpt><trkpt lat="41.108165" lon="14.673865"><ele>444.0</ele><time>2026-04-09T08:01:08.087Z</time></trkpt><trkpt lat="41.1082783" lon="14.6738917"><ele>444.0</ele><time>2026-04-09T08:01:09.087Z</time></trkpt><trkpt lat="41.1083917" lon="14.673925"><ele>442.0</ele><time>2026-04-09T08:01:10.087Z</time></trkpt><trkpt lat="41.108505" lon="14.6739583"><ele>440.0</ele><time>2026-04-09T08:01:11.087Z</time></trkpt><trkpt lat="41.108615" lon="14.6739817"><ele>438.0</ele><time>2026-04-09T08:01:12.087Z</time></trkpt><trkpt lat="41.1087133" lon="14.673995"><ele>436.0</ele><time>2026-04-09T08:01:13.087Z</time></trkpt><trkpt lat="41.108815" lon="14.674"><ele>434.0</ele><time>2026-04-09T08:01:14.087Z</time></trkpt><trkpt lat="41.10891" lon="14.6739917"><ele>434.0</ele><time>2026-04-09T08:01:15.087Z</time></trkpt><trkpt lat="41.109005" lon="14.6739733"><ele>434.0</ele><time>2026-04-09T08:01:16.087Z</time></trkpt><trkpt lat="41.1091083" lon="14.6739433"><ele>434.0</ele><time>2026-04-09T08:01:17.087Z</time></trkpt><trkpt lat="41.10921" lon="14.6739133"><ele>434.0</ele><time>2026-04-09T08:01:18.087Z</time></trkpt><trkpt lat="41.1093117" lon="14.6739017"><ele>434.0</ele><time>2026-04-09T08:01:19.087Z</time></trkpt><trkpt lat="41.10941" lon="14.6739017"><ele>433.6</ele><time>2026-04-09T08:01:20.087Z</time></trkpt><trkpt lat="41.1095033" lon="14.6739117"><ele>433.2</ele><time>2026-04-09T08:01:21.087Z</time></trkpt><trkpt lat="41.1095967" lon="14.6739267"><ele>432.80000000000007</ele><time>2026-04-09T08:01:22.087Z</time></trkpt><trkpt lat="41.1097033" lon="14.6739683"><ele>432.40000000000003</ele><time>2026-04-09T08:01:23.087Z</time></trkpt><trkpt lat="41.1098183" lon="14.6740133"><ele>432.0</ele><time>2026-04-09T08:01:24.087Z</time></trkpt><trkpt lat="41.1099283" lon="14.67407"><ele>431.0</ele><time>2026-04-09T08:01:25.087Z</time></trkpt><trkpt lat="41.1100367" lon="14.6741267"><ele>430.0</ele><time>2026-04-09T08:01:26.087Z</time></trkpt><trkpt lat="41.1101433" lon="14.6741883"><ele>429.0</ele><time>2026-04-09T08:01:27.087Z</time></trkpt><trkpt lat="41.110245" lon="14.67425"><ele>428.0</ele><time>2026-04-09T08:01:28.087Z</time></trkpt><trkpt lat="41.11035" lon="14.6743117"><ele>428.0</ele><time>2026-04-09T08:01:29.087Z</time></trkpt><trkpt lat="41.1104617" lon="14.6743717"><ele>428.0</ele><time>2026-04-09T08:01:30.087Z</time></trkpt><trkpt lat="41.1105667" lon="14.674435"><ele>428.0</ele><time>2026-04-09T08:01:31.087Z</time></trkpt><trkpt lat="41.1106683" lon="14.6744917"><ele>428.0</ele><time>2026-04-09T08:01:32.087Z</time></trkpt><trkpt lat="41.110765" lon="14.6745517"><ele>427.59999999999997</ele><time>2026-04-09T08:01:33.087Z</time></trkpt><trkpt lat="41.110855" lon="14.6746117"><ele>427.19999999999993</ele><time>2026-04-09T08:01:34.087Z</time></trkpt><trkpt lat="41.11095" lon="14.6746767"><ele>426.8</ele><time>2026-04-09T08:01:35.087Z</time></trkpt><trkpt lat="41.1110467" lon="14.67476"><ele>426.4</ele><time>2026-04-09T08:01:36.087Z</time></trkpt><trkpt lat="41.1111417" lon="14.6748467"><ele>426.0</ele><time>2026-04-09T08:01:37.087Z</time></trkpt><trkpt lat="41.11123" lon="14.674925"><ele>426.0</ele><time>2026-04-09T08:01:38.087Z</time></trkpt><trkpt lat="41.111315" lon="14.6750033"><ele>426.0</ele><time>2026-04-09T08:01:39.087Z</time></trkpt><trkpt lat="41.1114033" lon="14.6750783"><ele>426.0</ele><time>2026-04-09T08:01:40.087Z</time></trkpt><trkpt lat="41.11148" lon="14.6751533"><ele>426.0</ele><time>2026-04-09T08:01:41.087Z</time></trkpt><trkpt lat="41.1115617" lon="14.675245"><ele>426.0</ele><time>2026-04-09T08:01:42.087Z</time></trkpt><trkpt lat="41.1116333" lon="14.6753533"><ele>425.20000000000005</ele><time>2026-04-09T08:01:43.087Z</time></trkpt><trkpt lat="41.1116933" lon="14.675475"><ele>424.40000000000003</ele><time>2026-04-09T08:01:44.087Z</time></trkpt><trkpt lat="41.1117433" lon="14.675595"><ele>423.6</ele><time>2026-04-09T08:01:45.087Z</time></trkpt><trkpt lat="41.1117867" lon="14.6757183"><ele>422.8</ele><time>2026-04-09T08:01:46.087Z</time></trkpt><trkpt lat="41.1118183" lon="14.6758383"><ele>422.0</ele><time>2026-04-09T08:01:47.087Z</time></trkpt><trkpt lat="41.1118467" lon="14.675965"><ele>421.99999999999994</ele><time>2026-04-09T08:01:48.087Z</time></trkpt><trkpt lat="41.111875" lon="14.676095"><ele>422.0</ele><time>2026-04-09T08:01:49.087Z</time></trkpt><trkpt lat="41.1118967" lon="14.676225"><ele>422.0</ele><time>2026-04-09T08:01:50.087Z</time></trkpt><trkpt lat="41.11191" lon="14.6763333"><ele>422.0</ele><time>2026-04-09T08:01:51.087Z</time></trkpt><trkpt lat="41.1119217" lon="14.6764467"><ele>421.99999999999994</ele><time>2026-04-09T08:01:52.087Z</time></trkpt><trkpt lat="41.1119417" lon="14.676545"><ele>422.0</ele><time>2026-04-09T08:01:53.087Z</time></trkpt><trkpt lat="41.1119617" lon="14.6766333"><ele>421.3333333333333</ele><time>2026-04-09T08:01:54.087Z</time></trkpt><trkpt lat="41.1119933" lon="14.6767233"><ele>420.66666666666663</ele><time>2026-04-09T08:01:55.087Z</time></trkpt><trkpt lat="41.1120317" lon="14.6767983"><ele>420.0</ele><time>2026-04-09T08:01:56.087Z</time></trkpt><trkpt lat="41.1120867" lon="14.676865"><ele>419.33333333333337</ele><time>2026-04-09T08:01:57.087Z</time></trkpt><trkpt lat="41.1121517" lon="14.6769117"><ele>418.6666666666667</ele><time>2026-04-09T08:01:58.087Z</time></trkpt><trkpt lat="41.1122217" lon="14.6769483"><ele>418.0</ele><time>2026-04-09T08:01:59.087Z</time></trkpt><trkpt lat="41.1123033" lon="14.6769783"><ele>416.83333333333337</ele><time>2026-04-09T08:02:00.087Z</time></trkpt><trkpt lat="41.11238" lon="14.6770067"><ele>415.6666666666667</ele><time>2026-04-09T08:02:01.087Z</time></trkpt><trkpt lat="41.1124583" lon="14.6770367"><ele>414.5</ele><time>2026-04-09T08:02:02.087Z</time></trkpt><trkpt lat="41.1125383" lon="14.6770617"><ele>413.33333333333337</ele><time>2026-04-09T08:02:03.087Z</time></trkpt><trkpt lat="41.1126233" lon="14.6770733"><ele>412.1666666666667</ele><time>2026-04-09T08:02:04.087Z</time></trkpt><trkpt lat="41.112705" lon="14.6770767"><ele>411.0</ele><time>2026-04-09T08:02:05.087Z</time></trkpt><trkpt lat="41.1127967" lon="14.6770583"><ele>411.0</ele><time>2026-04-09T08:02:06.087Z</time></trkpt><trkpt lat="41.1128967" lon="14.6770317"><ele>411.0</ele><time>2026-04-09T08:02:07.087Z</time></trkpt><trkpt lat="41.113005" lon="14.6770017"><ele>411.0</ele><time>2026-04-09T08:02:08.087Z</time></trkpt><trkpt lat="41.1131133" lon="14.6769933"><ele>411.0</ele><time>2026-04-09T08:02:09.087Z</time></trkpt><trkpt lat="41.113225" lon="14.6769783"><ele>411.0</ele><time>2026-04-09T08:02:10.087Z</time></trkpt><trkpt lat="41.1133233" lon="14.6769733"><ele>411.20000000000005</ele><time>2026-04-09T08:02:11.087Z</time></trkpt><trkpt lat="41.11342" lon="14.6769867"><ele>411.40000000000003</ele><time>2026-04-09T08:02:12.087Z</time></trkpt><trkpt lat="41.1135217" lon="14.6770217"><ele>411.6</ele><time>2026-04-09T08:02:13.087Z</time></trkpt><trkpt lat="41.113625" lon="14.6770717"><ele>411.8</ele><time>2026-04-09T08:02:14.087Z</time></trkpt><trkpt lat="41.1137317" lon="14.6771217"><ele>412.0</ele><time>2026-04-09T08:02:15.087Z</time></trkpt><trkpt lat="41.1138417" lon="14.677175"><ele>412.0</ele><time>2026-04-09T08:02:16.087Z</time></trkpt><trkpt lat="41.1139517" lon="14.67723"><ele>412.0</ele><time>2026-04-09T08:02:17.087Z</time></trkpt><trkpt lat="41.114065" lon="14.6772833"><ele>412.0</ele><time>2026-04-09T08:02:18.087Z</time></trkpt><trkpt lat="41.114175" lon="14.67733"><ele>412.0</ele><time>2026-04-09T08:02:19.087Z</time></trkpt><trkpt lat="41.1142767" lon="14.6773683"><ele>412.5</ele><time>2026-04-09T08:02:20.087Z</time></trkpt><trkpt lat="41.1143733" lon="14.6774067"><ele>413.0</ele><time>2026-04-09T08:02:21.087Z</time></trkpt><trkpt lat="41.1144833" lon="14.6774333"><ele>413.5</ele><time>2026-04-09T08:02:22.087Z</time></trkpt><trkpt lat="41.1146017" lon="14.6774467"><ele>414.0</ele><time>2026-04-09T08:02:23.087Z</time></trkpt><trkpt lat="41.11472" lon="14.6774567"><ele>414.0</ele><time>2026-04-09T08:02:24.087Z</time></trkpt><trkpt lat="41.11484" lon="14.6774617"><ele>414.0</ele><time>2026-04-09T08:02:25.087Z</time></trkpt><trkpt lat="41.1149567" lon="14.6774683"><ele>414.0</ele><time>2026-04-09T08:02:26.087Z</time></trkpt><trkpt lat="41.115075" lon="14.6774733"><ele>414.0</ele><time>2026-04-09T08:02:27.087Z</time></trkpt><trkpt lat="41.115195" lon="14.6774733"><ele>412.25</ele><time>2026-04-09T08:02:28.087Z</time></trkpt><trkpt lat="41.11531" lon="14.6774783"><ele>410.5</ele><time>2026-04-09T08:02:29.087Z</time></trkpt><trkpt lat="41.1154283" lon="14.677485"><ele>408.75</ele><time>2026-04-09T08:02:30.087Z</time></trkpt><trkpt lat="41.1155367" lon="14.6775133"><ele>407.0</ele><time>2026-04-09T08:02:31.087Z</time></trkpt><trkpt lat="41.1156433" lon="14.6775517"><ele>406.20000000000005</ele><time>2026-04-09T08:02:32.087Z</time></trkpt><trkpt lat="41.1157417" lon="14.6776083"><ele>405.4</ele><time>2026-04-09T08:02:33.087Z</time></trkpt><trkpt lat="41.1158333" lon="14.67768"><ele>404.6</ele><time>2026-04-09T08:02:34.087Z</time></trkpt><trkpt lat="41.11592" lon="14.6777533"><ele>403.79999999999995</ele><time>2026-04-09T08:02:35.087Z</time></trkpt><trkpt lat="41.1160017" lon="14.6778483"><ele>403.0</ele><time>2026-04-09T08:02:36.087Z</time></trkpt><trkpt lat="41.1160933" lon="14.6779433"><ele>401.59999999999997</ele><time>2026-04-09T08:02:37.087Z</time></trkpt><trkpt lat="41.1161817" lon="14.6780233"><ele>400.2</ele><time>2026-04-09T08:02:38.087Z</time></trkpt><trkpt lat="41.1162717" lon="14.678105"><ele>398.8</ele><time>2026-04-09T08:02:39.087Z</time></trkpt><trkpt lat="41.1163683" lon="14.6781867"><ele>397.4</ele><time>2026-04-09T08:02:40.087Z</time></trkpt><trkpt lat="41.1164667" lon="14.6782633"><ele>396.0</ele><time>2026-04-09T08:02:41.087Z</time></trkpt><trkpt lat="41.1165683" lon="14.6783333"><ele>395.8</ele><time>2026-04-09T08:02:42.087Z</time></trkpt><trkpt lat="41.11667" lon="14.678395"><ele>395.6</ele><time>2026-04-09T08:02:43.087Z</time></trkpt><trkpt lat="41.1167617" lon="14.6784483"><ele>395.4</ele><time>2026-04-09T08:02:44.087Z</time></trkpt><trkpt lat="41.1168667" lon="14.6785017"><ele>395.2</ele><time>2026-04-09T08:02:45.087Z</time></trkpt><trkpt lat="41.1169717" lon="14.6785617"><ele>395.0</ele><time>2026-04-09T08:02:46.087Z</time></trkpt><trkpt lat="41.117075" lon="14.6786067"><ele>395.0</ele><time>2026-04-09T08:02:47.087Z</time></trkpt><trkpt lat="41.117175" lon="14.67864"><ele>395.0</ele><time>2026-04-09T08:02:48.087Z</time></trkpt><trkpt lat="41.1172683" lon="14.678675"><ele>395.0</ele><time>2026-04-09T08:02:49.087Z</time></trkpt><trkpt lat="41.11736" lon="14.678715"><ele>395.0</ele><time>2026-04-09T08:02:50.087Z</time></trkpt><trkpt lat="41.1174533" lon="14.6787567"><ele>395.0</ele><time>2026-04-09T08:02:51.087Z</time></trkpt><trkpt lat="41.1175433" lon="14.6787783"><ele>394.99999999999994</ele><time>2026-04-09T08:02:52.087Z</time></trkpt><trkpt lat="41.11763" lon="14.6787933"><ele>395.0</ele><time>2026-04-09T08:02:53.087Z</time></trkpt><trkpt lat="41.117715" lon="14.6787983"><ele>395.0</ele><time>2026-04-09T08:02:54.087Z</time></trkpt><trkpt lat="41.1178033" lon="14.678805"><ele>395.0</ele><time>2026-04-09T08:02:55.087Z</time></trkpt><trkpt lat="41.11789" lon="14.6788067"><ele>394.99999999999994</ele><time>2026-04-09T08:02:56.087Z</time></trkpt><trkpt lat="41.1179817" lon="14.67881"><ele>395.0</ele><time>2026-04-09T08:02:57.087Z</time></trkpt><trkpt lat="41.1180817" lon="14.6787983"><ele>394.99999999999994</ele><time>2026-04-09T08:02:58.087Z</time></trkpt><trkpt lat="41.1181783" lon="14.6787783"><ele>395.0</ele><time>2026-04-09T08:02:59.087Z</time></trkpt><trkpt lat="41.1182633" lon="14.6787517"><ele>395.0</ele><time>2026-04-09T08:03:00.087Z</time></trkpt><trkpt lat="41.1183417" lon="14.6787333"><ele>395.0</ele><time>2026-04-09T08:03:01.087Z</time></trkpt><trkpt lat="41.1184217" lon="14.67872"><ele>394.99999999999994</ele><time>2026-04-09T08:03:02.087Z</time></trkpt><trkpt lat="41.1185" lon="14.6787133"><ele>395.0</ele><time>2026-04-09T08:03:03.087Z</time></trkpt><trkpt lat="41.11858" lon="14.6787233"><ele>395.99999999999994</ele><time>2026-04-09T08:03:04.088Z</time></trkpt><trkpt lat="41.1186633" lon="14.678755"><ele>397.0</ele><time>2026-04-09T08:03:05.087Z</time></trkpt><trkpt lat="41.1187417" lon="14.6788017"><ele>398.0</ele><time>2026-04-09T08:03:06.087Z</time></trkpt><trkpt lat="41.1188083" lon="14.67887"><ele>399.0</ele><time>2026-04-09T08:03:07.087Z</time></trkpt><trkpt lat="41.11888" lon="14.6789433"><ele>399.99999999999994</ele><time>2026-04-09T08:03:08.087Z</time></trkpt><trkpt lat="41.1189433" lon="14.6790133"><ele>401.0</ele><time>2026-04-09T08:03:09.087Z</time></trkpt><trkpt lat="41.1190033" lon="14.6790817"><ele>400.99999999999994</ele><time>2026-04-09T08:03:10.087Z</time></trkpt><trkpt lat="41.119065" lon="14.679155"><ele>401.0</ele><time>2026-04-09T08:03:11.087Z</time></trkpt><trkpt lat="41.119125" lon="14.6792333"><ele>401.0</ele><time>2026-04-09T08:03:12.087Z</time></trkpt><trkpt lat="41.119185" lon="14.6793117"><ele>401.0</ele><time>2026-04-09T08:03:13.087Z</time></trkpt><trkpt lat="41.119245" lon="14.6793917"><ele>400.99999999999994</ele><time>2026-04-09T08:03:14.087Z</time></trkpt><trkpt lat="41.1193083" lon="14.6794817"><ele>401.0</ele><time>2026-04-09T08:03:15.087Z</time></trkpt><trkpt lat="41.1193783" lon="14.6795683"><ele>399.8</ele><time>2026-04-09T08:03:16.087Z</time></trkpt><trkpt lat="41.119445" lon="14.6796667"><ele>398.6</ele><time>2026-04-09T08:03:17.087Z</time></trkpt><trkpt lat="41.1195133" lon="14.6797733"><ele>397.4</ele><time>2026-04-09T08:03:18.087Z</time></trkpt><trkpt lat="41.1195817" lon="14.67988"><ele>396.2</ele><time>2026-04-09T08:03:19.087Z</time></trkpt><trkpt lat="41.1196433" lon="14.6799867"><ele>395.0</ele><time>2026-04-09T08:03:20.087Z</time></trkpt><trkpt lat="41.1196967" lon="14.68009"><ele>395.0</ele><time>2026-04-09T08:03:21.087Z</time></trkpt><trkpt lat="41.119745" lon="14.6802017"><ele>395.0</ele><time>2026-04-09T08:03:22.087Z</time></trkpt><trkpt lat="41.1198017" lon="14.6803133"><ele>395.0</ele><time>2026-04-09T08:03:23.087Z</time></trkpt><trkpt lat="41.1198617" lon="14.6804417"><ele>395.0</ele><time>2026-04-09T08:03:24.087Z</time></trkpt><trkpt lat="41.1199217" lon="14.6805667"><ele>395.0</ele><time>2026-04-09T08:03:25.087Z</time></trkpt><trkpt lat="41.1199967" lon="14.680695"><ele>393.5</ele><time>2026-04-09T08:03:26.087Z</time></trkpt><trkpt lat="41.1200733" lon="14.6808333"><ele>392.0</ele><time>2026-04-09T08:03:27.087Z</time></trkpt><trkpt lat="41.1201533" lon="14.680965"><ele>390.5</ele><time>2026-04-09T08:03:28.087Z</time></trkpt><trkpt lat="41.120235" lon="14.68109"><ele>389.0</ele><time>2026-04-09T08:03:29.087Z</time></trkpt><trkpt lat="41.1203167" lon="14.6812167"><ele>387.5</ele><time>2026-04-09T08:03:30.087Z</time></trkpt><trkpt lat="41.120405" lon="14.6813267"><ele>386.0</ele><time>2026-04-09T08:03:31.087Z</time></trkpt><trkpt lat="41.1204983" lon="14.6814317"><ele>384.5</ele><time>2026-04-09T08:03:32.087Z</time></trkpt><trkpt lat="41.1206067" lon="14.6815333"><ele>383.0</ele><time>2026-04-09T08:03:33.087Z</time></trkpt><trkpt lat="41.1207267" lon="14.6816267"><ele>382.0</ele><time>2026-04-09T08:03:34.087Z</time></trkpt><trkpt lat="41.1208467" lon="14.6817183"><ele>381.0</ele><time>2026-04-09T08:03:35.087Z</time></trkpt><trkpt lat="41.12097" lon="14.681805"><ele>380.0</ele><time>2026-04-09T08:03:36.087Z</time></trkpt><trkpt lat="41.1210933" lon="14.681885"><ele>379.0</ele><time>2026-04-09T08:03:37.087Z</time></trkpt><trkpt lat="41.1212217" lon="14.6819617"><ele>376.75</ele><time>2026-04-09T08:03:38.087Z</time></trkpt><trkpt lat="41.1213517" lon="14.6820367"><ele>374.5</ele><time>2026-04-09T08:03:39.087Z</time></trkpt><trkpt lat="41.1214667" lon="14.68209"><ele>372.25</ele><time>2026-04-09T08:03:40.087Z</time></trkpt><trkpt lat="41.1215733" lon="14.6821317"><ele>370.0</ele><time>2026-04-09T08:03:41.087Z</time></trkpt><trkpt lat="41.1216683" lon="14.682165"><ele>370.0</ele><time>2026-04-09T08:03:42.087Z</time></trkpt><trkpt lat="41.12176" lon="14.6821933"><ele>370.0</ele><time>2026-04-09T08:03:43.087Z</time></trkpt><trkpt lat="41.1218433" lon="14.6822233"><ele>370.0</ele><time>2026-04-09T08:03:44.087Z</time></trkpt><trkpt lat="41.1219133" lon="14.6822483"><ele>370.0</ele><time>2026-04-09T08:03:45.087Z</time></trkpt><trkpt lat="41.1220183" lon="14.682255"><ele>370.0</ele><time>2026-04-09T08:03:47.087Z</time></trkpt><trkpt lat="41.1220983" lon="14.6821767"><ele>370.0</ele><time>2026-04-09T08:03:49.087Z</time></trkpt><trkpt lat="41.1221917" lon="14.6820717"><ele>370.0</ele><time>2026-04-09T08:03:51.087Z</time></trkpt><trkpt lat="41.12226" lon="14.6820133"><ele>370.0</ele><time>2026-04-09T08:03:52.087Z</time></trkpt><trkpt lat="41.122335" lon="14.68195"><ele>370.0</ele><time>2026-04-09T08:03:53.087Z</time></trkpt><trkpt lat="41.12242" lon="14.681885"><ele>370.0</ele><time>2026-04-09T08:03:54.087Z</time></trkpt><trkpt lat="41.1225033" lon="14.6818367"><ele>369.3333333333333</ele><time>2026-04-09T08:03:55.087Z</time></trkpt><trkpt lat="41.1225817" lon="14.6817867"><ele>368.66666666666663</ele><time>2026-04-09T08:03:56.087Z</time></trkpt><trkpt lat="41.1226517" lon="14.6817367"><ele>368.0</ele><time>2026-04-09T08:03:57.087Z</time></trkpt><trkpt lat="41.1227233" lon="14.6816867"><ele>367.3333333333333</ele><time>2026-04-09T08:03:58.087Z</time></trkpt><trkpt lat="41.1227867" lon="14.68162"><ele>366.6666666666667</ele><time>2026-04-09T08:03:59.087Z</time></trkpt><trkpt lat="41.1228417" lon="14.68153"><ele>366.0</ele><time>2026-04-09T08:04:00.087Z</time></trkpt><trkpt lat="41.122895" lon="14.681435"><ele>366.0</ele><time>2026-04-09T08:04:01.087Z</time></trkpt><trkpt lat="41.1229467" lon="14.6813267"><ele>366.0</ele><time>2026-04-09T08:04:02.087Z</time></trkpt><trkpt lat="41.1229967" lon="14.6812167"><ele>366.0</ele><time>2026-04-09T08:04:03.087Z</time></trkpt><trkpt lat="41.1230417" lon="14.6811167"><ele>366.0</ele><time>2026-04-09T08:04:04.087Z</time></trkpt><trkpt lat="41.123085" lon="14.6810267"><ele>366.0</ele><time>2026-04-09T08:04:05.087Z</time></trkpt><trkpt lat="41.123115" lon="14.6809283"><ele>366.0</ele><time>2026-04-09T08:04:06.087Z</time></trkpt><trkpt lat="41.1231233" lon="14.68083"><ele>365.0</ele><time>2026-04-09T08:04:07.087Z</time></trkpt><trkpt lat="41.1231233" lon="14.68072"><ele>364.0</ele><time>2026-04-09T08:04:08.087Z</time></trkpt><trkpt lat="41.12312" lon="14.680615"><ele>363.0</ele><time>2026-04-09T08:04:09.087Z</time></trkpt><trkpt lat="41.12311" lon="14.6805133"><ele>362.0</ele><time>2026-04-09T08:04:10.087Z</time></trkpt><trkpt lat="41.1231033" lon="14.6804233"><ele>361.0</ele><time>2026-04-09T08:04:11.087Z</time></trkpt><trkpt lat="41.1231333" lon="14.6802733"><ele>360.0</ele><time>2026-04-09T08:04:13.087Z</time></trkpt><trkpt lat="41.1231817" lon="14.6802117"><ele>357.4</ele><time>2026-04-09T08:04:14.087Z</time></trkpt><trkpt lat="41.1232367" lon="14.6801683"><ele>354.8</ele><time>2026-04-09T08:04:15.087Z</time></trkpt><trkpt lat="41.1233233" lon="14.680145"><ele>352.20000000000005</ele><time>2026-04-09T08:04:16.087Z</time></trkpt><trkpt lat="41.1234233" lon="14.68011"><ele>349.6</ele><time>2026-04-09T08:04:17.087Z</time></trkpt><trkpt lat="41.1235267" lon="14.6800617"><ele>347.0</ele><time>2026-04-09T08:04:18.087Z</time></trkpt><trkpt lat="41.12362" lon="14.6800033"><ele>347.0</ele><time>2026-04-09T08:04:19.087Z</time></trkpt><trkpt lat="41.1237117" lon="14.6799367"><ele>347.0</ele><time>2026-04-09T08:04:20.087Z</time></trkpt><trkpt lat="41.12381" lon="14.679875"><ele>347.0</ele><time>2026-04-09T08:04:21.087Z</time></trkpt><trkpt lat="41.1239" lon="14.6798117"><ele>347.0</ele><time>2026-04-09T08:04:22.087Z</time></trkpt><trkpt lat="41.123985" lon="14.67976"><ele>347.0</ele><time>2026-04-09T08:04:23.087Z</time></trkpt><trkpt lat="41.1240617" lon="14.679715"><ele>346.1666666666667</ele><time>2026-04-09T08:04:24.087Z</time></trkpt><trkpt lat="41.1241283" lon="14.6796683"><ele>345.33333333333337</ele><time>2026-04-09T08:04:25.087Z</time></trkpt><trkpt lat="41.1241817" lon="14.679615"><ele>344.5</ele><time>2026-04-09T08:04:26.087Z</time></trkpt><trkpt lat="41.1242333" lon="14.6795633"><ele>343.6666666666667</ele><time>2026-04-09T08:04:27.087Z</time></trkpt><trkpt lat="41.1243167" lon="14.679445"><ele>342.8333333333333</ele><time>2026-04-09T08:04:29.087Z</time></trkpt><trkpt lat="41.1243683" lon="14.6793917"><ele>342.0</ele><time>2026-04-09T08:04:30.087Z</time></trkpt><trkpt lat="41.1244133" lon="14.67933"><ele>342.0</ele><time>2026-04-09T08:04:31.087Z</time></trkpt><trkpt lat="41.1244667" lon="14.6792633"><ele>342.0</ele><time>2026-04-09T08:04:32.087Z</time></trkpt><trkpt lat="41.1245283" lon="14.679205"><ele>342.0</ele><time>2026-04-09T08:04:33.087Z</time></trkpt><trkpt lat="41.1245983" lon="14.6791533"><ele>342.0</ele><time>2026-04-09T08:04:34.087Z</time></trkpt><trkpt lat="41.12466" lon="14.6790983"><ele>342.0</ele><time>2026-04-09T08:04:35.087Z</time></trkpt><trkpt lat="41.1247333" lon="14.6789667"><ele>342.0</ele><time>2026-04-09T08:04:37.087Z</time></trkpt><trkpt lat="41.12475" lon="14.6788833"><ele>342.0</ele><time>2026-04-09T08:04:38.087Z</time></trkpt><trkpt lat="41.1247567" lon="14.67879"><ele>342.0</ele><time>2026-04-09T08:04:39.087Z</time></trkpt><trkpt lat="41.1247533" lon="14.6786783"><ele>342.0</ele><time>2026-04-09T08:04:40.087Z</time></trkpt><trkpt lat="41.1247367" lon="14.6785567"><ele>342.0</ele><time>2026-04-09T08:04:41.087Z</time></trkpt><trkpt lat="41.1247217" lon="14.67842"><ele>342.0</ele><time>2026-04-09T08:04:42.087Z</time></trkpt><trkpt lat="41.1247133" lon="14.6782917"><ele>342.0</ele><time>2026-04-09T08:04:43.087Z</time></trkpt><trkpt lat="41.1247117" lon="14.6781783"><ele>342.6666666666667</ele><time>2026-04-09T08:04:44.087Z</time></trkpt><trkpt lat="41.1247117" lon="14.6780617"><ele>343.3333333333333</ele><time>2026-04-09T08:04:45.087Z</time></trkpt><trkpt lat="41.1247083" lon="14.6779567"><ele>344.0</ele><time>2026-04-09T08:04:46.087Z</time></trkpt><trkpt lat="41.12472" lon="14.67785"><ele>344.66666666666663</ele><time>2026-04-09T08:04:47.087Z</time></trkpt><trkpt lat="41.1247433" lon="14.6777517"><ele>345.3333333333333</ele><time>2026-04-09T08:04:48.087Z</time></trkpt><trkpt lat="41.1247767" lon="14.677665"><ele>346.0</ele><time>2026-04-09T08:04:49.087Z</time></trkpt><trkpt lat="41.124815" lon="14.677595"><ele>344.0</ele><time>2026-04-09T08:04:50.087Z</time></trkpt><trkpt lat="41.1248883" lon="14.6774917"><ele>342.0</ele><time>2026-04-09T08:04:52.087Z</time></trkpt><trkpt lat="41.1249317" lon="14.6774067"><ele>340.0</ele><time>2026-04-09T08:04:55.087Z</time></trkpt><trkpt lat="41.1249067" lon="14.677325"><ele>338.0</ele><time>2026-04-09T08:05:03.087Z</time></trkpt><trkpt lat="41.1248983" lon="14.6774133"><ele>336.0</ele><time>2026-04-09T08:05:13.087Z</time></trkpt><trkpt lat="41.1248717" lon="14.6775183"><ele>334.0</ele><time>2026-04-09T08:05:15.087Z</time></trkpt><trkpt lat="41.1247983" lon="14.677645"><ele>334.0</ele><time>2026-04-09T08:05:17.087Z</time></trkpt><trkpt lat="41.1247583" lon="14.6777217"><ele>334.0</ele><time>2026-04-09T08:05:18.087Z</time></trkpt><trkpt lat="41.1247283" lon="14.67781"><ele>334.0</ele><time>2026-04-09T08:05:19.087Z</time></trkpt><trkpt lat="41.1247017" lon="14.6779017"><ele>334.0</ele><time>2026-04-09T08:05:20.087Z</time></trkpt><trkpt lat="41.1247" lon="14.67801"><ele>334.0</ele><time>2026-04-09T08:05:21.087Z</time></trkpt><trkpt lat="41.1246983" lon="14.67813"><ele>334.0</ele><time>2026-04-09T08:05:22.087Z</time></trkpt><trkpt lat="41.1247033" lon="14.6782633"><ele>335.6</ele><time>2026-04-09T08:05:23.087Z</time></trkpt><trkpt lat="41.124715" lon="14.6784067"><ele>337.2</ele><time>2026-04-09T08:05:24.087Z</time></trkpt><trkpt lat="41.12473" lon="14.6785417"><ele>338.8</ele><time>2026-04-09T08:05:25.087Z</time></trkpt><trkpt lat="41.1247433" lon="14.67868"><ele>340.40000000000003</ele><time>2026-04-09T08:05:26.087Z</time></trkpt><trkpt lat="41.124755" lon="14.6787967"><ele>342.0</ele><time>2026-04-09T08:05:27.087Z</time></trkpt><trkpt lat="41.1247567" lon="14.6788883"><ele>341.99999999999994</ele><time>2026-04-09T08:05:28.087Z</time></trkpt><trkpt lat="41.1247517" lon="14.6789733"><ele>342.0</ele><time>2026-04-09T08:05:29.087Z</time></trkpt><trkpt lat="41.124715" lon="14.6790467"><ele>342.0</ele><time>2026-04-09T08:05:30.087Z</time></trkpt><trkpt lat="41.12466" lon="14.6791133"><ele>342.0</ele><time>2026-04-09T08:05:31.087Z</time></trkpt><trkpt lat="41.12459" lon="14.679185"><ele>342.0</ele><time>2026-04-09T08:05:32.087Z</time></trkpt><trkpt lat="41.1245233" lon="14.67924"><ele>341.99999999999994</ele><time>2026-04-09T08:05:33.087Z</time></trkpt><trkpt lat="41.1244667" lon="14.679285"><ele>342.0</ele><time>2026-04-09T08:05:34.087Z</time></trkpt><trkpt lat="41.1243917" lon="14.679355"><ele>341.99999999999994</ele><time>2026-04-09T08:05:36.087Z</time></trkpt><trkpt lat="41.1244483" lon="14.67941"><ele>342.0</ele><time>2026-04-09T08:05:39.087Z</time></trkpt><trkpt lat="41.1245483" lon="14.6793983"><ele>342.0</ele><time>2026-04-09T08:05:41.087Z</time></trkpt><trkpt lat="41.1246133" lon="14.6793967"><ele>342.0</ele><time>2026-04-09T08:05:42.087Z</time></trkpt><trkpt lat="41.124685" lon="14.6793983"><ele>342.0</ele><time>2026-04-09T08:05:43.087Z</time></trkpt><trkpt lat="41.124755" lon="14.6794083"><ele>341.99999999999994</ele><time>2026-04-09T08:05:44.087Z</time></trkpt><trkpt lat="41.12482" lon="14.6794033"><ele>342.0</ele><time>2026-04-09T08:05:45.087Z</time></trkpt><trkpt lat="41.1248867" lon="14.679385"><ele>339.3333333333333</ele><time>2026-04-09T08:05:46.087Z</time></trkpt><trkpt lat="41.1249483" lon="14.679365"><ele>336.6666666666667</ele><time>2026-04-09T08:05:47.087Z</time></trkpt><trkpt lat="41.12507" lon="14.6793217"><ele>334.0</ele><time>2026-04-09T08:05:49.087Z</time></trkpt><trkpt lat="41.12514" lon="14.679295"><ele>331.33333333333337</ele><time>2026-04-09T08:05:50.087Z</time></trkpt><trkpt lat="41.1252117" lon="14.679275"><ele>328.6666666666667</ele><time>2026-04-09T08:05:51.087Z</time></trkpt><trkpt lat="41.12528" lon="14.6792633"><ele>326.0</ele><time>2026-04-09T08:05:52.087Z</time></trkpt><trkpt lat="41.12535" lon="14.6792533"><ele>326.0</ele><time>2026-04-09T08:05:53.087Z</time></trkpt><trkpt lat="41.125415" lon="14.6792517"><ele>326.0</ele><time>2026-04-09T08:05:54.087Z</time></trkpt><trkpt lat="41.1255383" lon="14.679255"><ele>326.0</ele><time>2026-04-09T08:05:56.087Z</time></trkpt><trkpt lat="41.1256017" lon="14.67925"><ele>326.0</ele><time>2026-04-09T08:05:57.087Z</time></trkpt><trkpt lat="41.1256733" lon="14.6792467"><ele>326.0</ele><time>2026-04-09T08:05:58.087Z</time></trkpt><trkpt lat="41.12579" lon="14.679215"><ele>326.0</ele><time>2026-04-09T08:06:00.087Z</time></trkpt><trkpt lat="41.125895" lon="14.6791383"><ele>323.6666666666667</ele><time>2026-04-09T08:06:02.087Z</time></trkpt><trkpt lat="41.1259717" lon="14.6790783"><ele>321.33333333333337</ele><time>2026-04-09T08:06:04.087Z</time></trkpt><trkpt lat="41.126035" lon="14.6790167"><ele>319.0</ele><time>2026-04-09T08:06:06.087Z</time></trkpt><trkpt lat="41.1260983" lon="14.67895"><ele>316.6666666666667</ele><time>2026-04-09T08:06:09.087Z</time></trkpt><trkpt lat="41.1261767" lon="14.6788733"><ele>314.3333333333333</ele><time>2026-04-09T08:06:12.087Z</time></trkpt><trkpt lat="41.12625" lon="14.6788233"><ele>312.0</ele><time>2026-04-09T08:06:15.087Z</time></trkpt><trkpt lat="41.126335" lon="14.6788183"><ele>312.0</ele><time>2026-04-09T08:06:19.087Z</time></trkpt><trkpt lat="41.12641" lon="14.6788217"><ele>312.0</ele><time>2026-04-09T08:06:22.087Z</time></trkpt><trkpt lat="41.1264733" lon="14.6788217"><ele>312.0</ele><time>2026-04-09T08:06:25.087Z</time></trkpt><trkpt lat="41.1265617" lon="14.67881"><ele>312.0</ele><time>2026-04-09T08:06:29.087Z</time></trkpt><trkpt lat="41.1266383" lon="14.6788117"><ele>312.0</ele><time>2026-04-09T08:06:33.087Z</time></trkpt><trkpt lat="41.1267017" lon="14.6788083"><ele>312.0</ele><time>2026-04-09T08:06:37.087Z</time></trkpt><trkpt lat="41.12678" lon="14.67879"><ele>312.0</ele><time>2026-04-09T08:06:40.087Z</time></trkpt><trkpt lat="41.1268867" lon="14.678745"><ele>309.8333333333333</ele><time>2026-04-09T08:06:53.087Z</time></trkpt><trkpt lat="41.1269733" lon="14.6787117"><ele>307.6666666666667</ele><time>2026-04-09T08:06:56.087Z</time></trkpt><trkpt lat="41.1270583" lon="14.6786483"><ele>305.5</ele><time>2026-04-09T08:06:58.087Z</time></trkpt><trkpt lat="41.127115" lon="14.6786117"><ele>303.33333333333337</ele><time>2026-04-09T08:06:59.087Z</time></trkpt><trkpt lat="41.1271733" lon="14.6785783"><ele>301.1666666666667</ele><time>2026-04-09T08:07:00.087Z</time></trkpt><trkpt lat="41.1272867" lon="14.6785033"><ele>299.0</ele><time>2026-04-09T08:07:02.087Z</time></trkpt><trkpt lat="41.1273917" lon="14.678445"><ele>297.33333333333337</ele><time>2026-04-09T08:07:04.087Z</time></trkpt><trkpt lat="41.1274883" lon="14.67838"><ele>295.6666666666667</ele><time>2026-04-09T08:07:06.087Z</time></trkpt><trkpt lat="41.127595" lon="14.6783183"><ele>294.0</ele><time>2026-04-09T08:07:08.087Z</time></trkpt><trkpt lat="41.127655" lon="14.6782917"><ele>292.3333333333333</ele><time>2026-04-09T08:07:09.087Z</time></trkpt><trkpt lat="41.1277217" lon="14.6782717"><ele>290.66666666666663</ele><time>2026-04-09T08:07:10.087Z</time></trkpt><trkpt lat="41.127785" lon="14.6782467"><ele>289.0</ele><time>2026-04-09T08:07:11.087Z</time></trkpt><trkpt lat="41.1278467" lon="14.6782233"><ele>289.0</ele><time>2026-04-09T08:07:12.087Z</time></trkpt><trkpt lat="41.1279117" lon="14.67821"><ele>289.0</ele><time>2026-04-09T08:07:13.087Z</time></trkpt><trkpt lat="41.1279733" lon="14.6781917"><ele>289.0</ele><time>2026-04-09T08:07:14.087Z</time></trkpt><trkpt lat="41.128035" lon="14.6781717"><ele>289.0</ele><time>2026-04-09T08:07:15.087Z</time></trkpt><trkpt lat="41.1281417" lon="14.67812"><ele>289.0</ele><time>2026-04-09T08:07:17.087Z</time></trkpt><trkpt lat="41.1282283" lon="14.6780267"><ele>289.0</ele><time>2026-04-09T08:07:19.087Z</time></trkpt><trkpt lat="41.1283033" lon="14.6779283"><ele>289.0</ele><time>2026-04-09T08:07:21.087Z</time></trkpt><trkpt lat="41.1283767" lon="14.6778433"><ele>289.0</ele><time>2026-04-09T08:07:23.087Z</time></trkpt><trkpt lat="41.1284467" lon="14.6777933"><ele>289.0</ele><time>2026-04-09T08:07:25.087Z</time></trkpt><trkpt lat="41.1285033" lon="14.6777567"><ele>289.0</ele><time>2026-04-09T08:07:27.087Z</time></trkpt><trkpt lat="41.1285917" lon="14.67771"><ele>289.0</ele><time>2026-04-09T08:07:30.087Z</time></trkpt><trkpt lat="41.1286617" lon="14.67768"><ele>289.0</ele><time>2026-04-09T08:07:32.087Z</time></trkpt><trkpt lat="41.1287283" lon="14.6776633"><ele>287.14285714285717</ele><time>2026-04-09T08:07:34.087Z</time></trkpt><trkpt lat="41.1287933" lon="14.677645"><ele>285.2857142857143</ele><time>2026-04-09T08:07:36.087Z</time></trkpt><trkpt lat="41.1288617" lon="14.677625"><ele>283.42857142857144</ele><time>2026-04-09T08:07:38.087Z</time></trkpt><trkpt lat="41.1289267" lon="14.677595"><ele>281.57142857142856</ele><time>2026-04-09T08:07:40.087Z</time></trkpt><trkpt lat="41.1289933" lon="14.6775433"><ele>279.7142857142857</ele><time>2026-04-09T08:07:42.087Z</time></trkpt><trkpt lat="41.1290533" lon="14.6774983"><ele>277.8571428571429</ele><time>2026-04-09T08:07:44.087Z</time></trkpt><trkpt lat="41.1291083" lon="14.677455"><ele>276.0</ele><time>2026-04-09T08:07:46.087Z</time></trkpt><trkpt lat="41.1291733" lon="14.67742"><ele>276.0</ele><time>2026-04-09T08:07:48.087Z</time></trkpt><trkpt lat="41.12924" lon="14.6773783"><ele>276.0</ele><time>2026-04-09T08:07:50.087Z</time></trkpt><trkpt lat="41.1293183" lon="14.6773467"><ele>276.0</ele><time>2026-04-09T08:07:53.087Z</time></trkpt><trkpt lat="41.1294083" lon="14.6773217"><ele>276.0</ele><time>2026-04-09T08:07:56.087Z</time></trkpt><trkpt lat="41.1294733" lon="14.6772867"><ele>276.0</ele><time>2026-04-09T08:07:58.087Z</time></trkpt><trkpt lat="41.1295533" lon="14.67722"><ele>276.0</ele><time>2026-04-09T08:08:01.087Z</time></trkpt><trkpt lat="41.12961" lon="14.67718"><ele>276.0</ele><time>2026-04-09T08:08:03.087Z</time></trkpt><trkpt lat="41.1296733" lon="14.6771317"><ele>276.0</ele><time>2026-04-09T08:08:05.087Z</time></trkpt><trkpt lat="41.1297333" lon="14.6770933"><ele>276.0</ele><time>2026-04-09T08:08:07.087Z</time></trkpt><trkpt lat="41.1297983" lon="14.6770583"><ele>276.0</ele><time>2026-04-09T08:08:09.087Z</time></trkpt><trkpt lat="41.1298783" lon="14.67703"><ele>276.0</ele><time>2026-04-09T08:08:11.087Z</time></trkpt><trkpt lat="41.1299667" lon="14.6770267"><ele>276.0</ele><time>2026-04-09T08:08:14.087Z</time></trkpt><trkpt lat="41.1300433" lon="14.6770383"><ele>275.5</ele><time>2026-04-09T08:08:16.087Z</time></trkpt><trkpt lat="41.1301517" lon="14.67706"><ele>275.0</ele><time>2026-04-09T08:08:18.087Z</time></trkpt><trkpt lat="41.1302483" lon="14.6770533"><ele>274.5</ele><time>2026-04-09T08:08:20.087Z</time></trkpt><trkpt lat="41.1303333" lon="14.6770217"><ele>274.0</ele><time>2026-04-09T08:08:22.087Z</time></trkpt><trkpt lat="41.1303967" lon="14.6769917"><ele>273.5</ele><time>2026-04-09T08:08:24.087Z</time></trkpt><trkpt lat="41.1304617" lon="14.67693"><ele>273.0</ele><time>2026-04-09T08:08:27.087Z</time></trkpt><trkpt lat="41.130505" lon="14.676845"><ele>271.3333333333333</ele><time>2026-04-09T08:08:30.087Z</time></trkpt><trkpt lat="41.13054" lon="14.6767583"><ele>269.6666666666667</ele><time>2026-04-09T08:08:32.087Z</time></trkpt><trkpt lat="41.130575" lon="14.676645"><ele>268.0</ele><time>2026-04-09T08:08:34.087Z</time></trkpt><trkpt lat="41.1306083" lon="14.6765217"><ele>266.33333333333337</ele><time>2026-04-09T08:08:36.087Z</time></trkpt><trkpt lat="41.1306483" lon="14.676415"><ele>264.6666666666667</ele><time>2026-04-09T08:08:38.087Z</time></trkpt><trkpt lat="41.13071" lon="14.6763233"><ele>263.0</ele><time>2026-04-09T08:08:40.087Z</time></trkpt><trkpt lat="41.1307967" lon="14.67624"><ele>261.25</ele><time>2026-04-09T08:08:42.087Z</time></trkpt><trkpt lat="41.1308967" lon="14.6761633"><ele>259.5</ele><time>2026-04-09T08:08:44.087Z</time></trkpt><trkpt lat="41.1309967" lon="14.67608"><ele>257.75</ele><time>2026-04-09T08:08:46.087Z</time></trkpt><trkpt lat="41.1311" lon="14.6759983"><ele>256.0</ele><time>2026-04-09T08:08:48.087Z</time></trkpt><trkpt lat="41.131205" lon="14.675905"><ele>254.49999999999997</ele><time>2026-04-09T08:08:50.087Z</time></trkpt><trkpt lat="41.1312633" lon="14.6758533"><ele>253.0</ele><time>2026-04-09T08:08:51.087Z</time></trkpt><trkpt lat="41.1313183" lon="14.6758083"><ele>251.5</ele><time>2026-04-09T08:08:52.087Z</time></trkpt><trkpt lat="41.1314117" lon="14.6757067"><ele>250.0</ele><time>2026-04-09T08:08:54.087Z</time></trkpt><trkpt lat="41.1314783" lon="14.6755933"><ele>248.49999999999997</ele><time>2026-04-09T08:08:56.087Z</time></trkpt><trkpt lat="41.131515" lon="14.6755117"><ele>247.0</ele><time>2026-04-09T08:08:58.087Z</time></trkpt><trkpt lat="41.1315617" lon="14.6754133"><ele>246.16666666666666</ele><time>2026-04-09T08:09:01.087Z</time></trkpt><trkpt lat="41.131615" lon="14.6753283"><ele>245.33333333333331</ele><time>2026-04-09T08:09:04.087Z</time></trkpt><trkpt lat="41.1316917" lon="14.6752633"><ele>244.5</ele><time>2026-04-09T08:09:07.087Z</time></trkpt><trkpt lat="41.131755" lon="14.675225"><ele>243.66666666666669</ele><time>2026-04-09T08:09:09.087Z</time></trkpt><trkpt lat="41.131825" lon="14.6752083"><ele>242.83333333333334</ele><time>2026-04-09T08:09:11.087Z</time></trkpt><trkpt lat="41.1318933" lon="14.675195"><ele>242.0</ele><time>2026-04-09T08:09:13.087Z</time></trkpt><trkpt lat="41.1319833" lon="14.67519"><ele>242.00000000000003</ele><time>2026-04-09T08:09:16.087Z</time></trkpt><trkpt lat="41.1320517" lon="14.67521"><ele>242.0</ele><time>2026-04-09T08:09:18.087Z</time></trkpt><trkpt lat="41.1321233" lon="14.6752367"><ele>242.0</ele><time>2026-04-09T08:09:20.087Z</time></trkpt><trkpt lat="41.1322017" lon="14.6752783"><ele>242.0</ele><time>2026-04-09T08:09:22.087Z</time></trkpt><trkpt lat="41.13229" lon="14.6753083"><ele>242.00000000000003</ele><time>2026-04-09T08:09:24.087Z</time></trkpt><trkpt lat="41.1323683" lon="14.6753233"><ele>242.0</ele><time>2026-04-09T08:09:26.087Z</time></trkpt><trkpt lat="41.132435" lon="14.67533"><ele>241.83333333333334</ele><time>2026-04-09T08:09:28.087Z</time></trkpt><trkpt lat="41.1325117" lon="14.67534"><ele>241.66666666666669</ele><time>2026-04-09T08:09:31.087Z</time></trkpt><trkpt lat="41.1326067" lon="14.6753467"><ele>241.5</ele><time>2026-04-09T08:09:37.087Z</time></trkpt><trkpt lat="41.1327" lon="14.6753117"><ele>241.33333333333331</ele><time>2026-04-09T08:09:40.087Z</time></trkpt><trkpt lat="41.1327783" lon="14.675275"><ele>241.16666666666666</ele><time>2026-04-09T08:09:42.087Z</time></trkpt><trkpt lat="41.1328667" lon="14.6752267"><ele>241.0</ele><time>2026-04-09T08:09:44.087Z</time></trkpt><trkpt lat="41.1329683" lon="14.67519"><ele>240.49999999999997</ele><time>2026-04-09T08:09:46.087Z</time></trkpt><trkpt lat="41.1330383" lon="14.67517"><ele>240.0</ele><time>2026-04-09T08:09:48.087Z</time></trkpt><trkpt lat="41.1331083" lon="14.675155"><ele>239.5</ele><time>2026-04-09T08:09:50.087Z</time></trkpt><trkpt lat="41.1331783" lon="14.67514"><ele>239.0</ele><time>2026-04-09T08:09:52.087Z</time></trkpt><trkpt lat="41.1332583" lon="14.6751467"><ele>238.49999999999997</ele><time>2026-04-09T08:09:54.087Z</time></trkpt><trkpt lat="41.133375" lon="14.6751183"><ele>238.0</ele><time>2026-04-09T08:09:56.087Z</time></trkpt><trkpt lat="41.1334383" lon="14.6750983"><ele>238.0</ele><time>2026-04-09T08:09:57.087Z</time></trkpt><trkpt lat="41.1335533" lon="14.6750683"><ele>238.0</ele><time>2026-04-09T08:09:59.087Z</time></trkpt><trkpt lat="41.133665" lon="14.6750433"><ele>238.0</ele><time>2026-04-09T08:10:01.087Z</time></trkpt><trkpt lat="41.133755" lon="14.6750333"><ele>238.0</ele><time>2026-04-09T08:10:03.087Z</time></trkpt><trkpt lat="41.13384" lon="14.6750233"><ele>238.0</ele><time>2026-04-09T08:10:05.087Z</time></trkpt><trkpt lat="41.133925" lon="14.67502"><ele>238.0</ele><time>2026-04-09T08:10:07.087Z</time></trkpt><trkpt lat="41.1340133" lon="14.6750083"><ele>238.0</ele><time>2026-04-09T08:10:09.087Z</time></trkpt><trkpt lat="41.13411" lon="14.6750067"><ele>238.0</ele><time>2026-04-09T08:10:11.088Z</time></trkpt><trkpt lat="41.13421" lon="14.6750017"><ele>238.0</ele><time>2026-04-09T08:10:13.088Z</time></trkpt><trkpt lat="41.1342867" lon="14.67499"><ele>238.0</ele><time>2026-04-09T08:10:15.088Z</time></trkpt><trkpt lat="41.1343733" lon="14.67494"><ele>238.4</ele><time>2026-04-09T08:10:26.088Z</time></trkpt><trkpt lat="41.1343883" lon="14.674815"><ele>238.8</ele><time>2026-04-09T08:10:28.088Z</time></trkpt><trkpt lat="41.134375" lon="14.6746417"><ele>239.2</ele><time>2026-04-09T08:10:30.088Z</time></trkpt><trkpt lat="41.1343733" lon="14.67448"><ele>239.6</ele><time>2026-04-09T08:10:32.088Z</time></trkpt><trkpt lat="41.13438" lon="14.67439"><ele>240.0</ele><time>2026-04-09T08:10:33.088Z</time></trkpt><trkpt lat="41.1343917" lon="14.6742967"><ele>240.0</ele><time>2026-04-09T08:10:34.088Z</time></trkpt><trkpt lat="41.1344167" lon="14.6741967"><ele>240.0</ele><time>2026-04-09T08:10:35.088Z</time></trkpt><trkpt lat="41.134445" lon="14.674085"><ele>240.0</ele><time>2026-04-09T08:10:36.088Z</time></trkpt><trkpt lat="41.1344667" lon="14.67398"><ele>240.0</ele><time>2026-04-09T08:10:37.088Z</time></trkpt><trkpt lat="41.13449" lon="14.6738867"><ele>240.0</ele><time>2026-04-09T08:10:38.088Z</time></trkpt><trkpt lat="41.1345083" lon="14.6738067"><ele>240.0</ele><time>2026-04-09T08:10:39.088Z</time></trkpt><trkpt lat="41.1345183" lon="14.6737233"><ele>238.0</ele><time>2026-04-09T08:10:40.088Z</time></trkpt><trkpt lat="41.134545" lon="14.6735817"><ele>236.0</ele><time>2026-04-09T08:10:42.088Z</time></trkpt><trkpt lat="41.134565" lon="14.6734633"><ele>234.0</ele><time>2026-04-09T08:10:44.088Z</time></trkpt><trkpt lat="41.134625" lon="14.673335"><ele>232.0</ele><time>2026-04-09T08:10:46.088Z</time></trkpt><trkpt lat="41.1346867" lon="14.6732967"><ele>230.0</ele><time>2026-04-09T08:10:47.088Z</time></trkpt><trkpt lat="41.1347633" lon="14.6732867"><ele>230.00000000000003</ele><time>2026-04-09T08:10:48.088Z</time></trkpt><trkpt lat="41.134855" lon="14.6732883"><ele>230.0</ele><time>2026-04-09T08:10:49.088Z</time></trkpt><trkpt lat="41.1349433" lon="14.67329"><ele>230.0</ele><time>2026-04-09T08:10:50.088Z</time></trkpt><trkpt lat="41.1350167" lon="14.67327"><ele>230.0</ele><time>2026-04-09T08:10:51.088Z</time></trkpt><trkpt lat="41.1350933" lon="14.6732183"><ele>230.00000000000003</ele><time>2026-04-09T08:10:52.088Z</time></trkpt><trkpt lat="41.1351683" lon="14.6731333"><ele>230.0</ele><time>2026-04-09T08:10:53.088Z</time></trkpt><trkpt lat="41.1352333" lon="14.6730333"><ele>229.2</ele><time>2026-04-09T08:10:54.088Z</time></trkpt><trkpt lat="41.1353033" lon="14.6729233"><ele>228.4</ele><time>2026-04-09T08:10:55.088Z</time></trkpt><trkpt lat="41.1353817" lon="14.6728217"><ele>227.60000000000002</ele><time>2026-04-09T08:10:56.088Z</time></trkpt><trkpt lat="41.1354633" lon="14.6727217"><ele>226.8</ele><time>2026-04-09T08:10:57.088Z</time></trkpt><trkpt lat="41.1355433" lon="14.6726383"><ele>226.0</ele><time>2026-04-09T08:10:58.088Z</time></trkpt><trkpt lat="41.1356133" lon="14.6725683"><ele>225.49999999999997</ele><time>2026-04-09T08:10:59.088Z</time></trkpt><trkpt lat="41.135675" lon="14.6725033"><ele>225.0</ele><time>2026-04-09T08:11:00.088Z</time></trkpt><trkpt lat="41.135735" lon="14.6724367"><ele>224.5</ele><time>2026-04-09T08:11:01.088Z</time></trkpt><trkpt lat="41.1358" lon="14.672375"><ele>224.0</ele><time>2026-04-09T08:11:02.088Z</time></trkpt><trkpt lat="41.1358767" lon="14.672325"><ele>223.49999999999997</ele><time>2026-04-09T08:11:03.088Z</time></trkpt><trkpt lat="41.1359717" lon="14.6722767"><ele>223.0</ele><time>2026-04-09T08:11:04.088Z</time></trkpt><trkpt lat="41.136075" lon="14.6722283"><ele>223.0</ele><time>2026-04-09T08:11:05.088Z</time></trkpt><trkpt lat="41.13618" lon="14.67218"><ele>223.0</ele><time>2026-04-09T08:11:06.088Z</time></trkpt><trkpt lat="41.13629" lon="14.67214"><ele>223.0</ele><time>2026-04-09T08:11:07.088Z</time></trkpt><trkpt lat="41.136395" lon="14.6721033"><ele>223.0</ele><time>2026-04-09T08:11:08.088Z</time></trkpt><trkpt lat="41.1365" lon="14.67207"><ele>223.0</ele><time>2026-04-09T08:11:09.088Z</time></trkpt><trkpt lat="41.1365967" lon="14.6720117"><ele>222.4</ele><time>2026-04-09T08:11:10.088Z</time></trkpt><trkpt lat="41.13669" lon="14.6719583"><ele>221.8</ele><time>2026-04-09T08:11:11.088Z</time></trkpt><trkpt lat="41.1367767" lon="14.6718917"><ele>221.2</ele><time>2026-04-09T08:11:12.088Z</time></trkpt><trkpt lat="41.13686" lon="14.6718183"><ele>220.6</ele><time>2026-04-09T08:11:13.088Z</time></trkpt><trkpt lat="41.1369433" lon="14.6717367"><ele>220.0</ele><time>2026-04-09T08:11:14.088Z</time></trkpt><trkpt lat="41.1370283" lon="14.671675"><ele>218.2</ele><time>2026-04-09T08:11:15.088Z</time></trkpt><trkpt lat="41.137115" lon="14.671625"><ele>216.4</ele><time>2026-04-09T08:11:16.088Z</time></trkpt><trkpt lat="41.1372083" lon="14.67158"><ele>214.60000000000002</ele><time>2026-04-09T08:11:17.088Z</time></trkpt><trkpt lat="41.1373033" lon="14.671525"><ele>212.8</ele><time>2026-04-09T08:11:18.088Z</time></trkpt><trkpt lat="41.1374017" lon="14.671455"><ele>211.0</ele><time>2026-04-09T08:11:19.088Z</time></trkpt><trkpt lat="41.1375" lon="14.671365"><ele>210.20000000000002</ele><time>2026-04-09T08:11:20.088Z</time></trkpt><trkpt lat="41.137595" lon="14.6712683"><ele>209.4</ele><time>2026-04-09T08:11:21.088Z</time></trkpt><trkpt lat="41.1376817" lon="14.6711767"><ele>208.6</ele><time>2026-04-09T08:11:22.088Z</time></trkpt><trkpt lat="41.1377667" lon="14.6710983"><ele>207.8</ele><time>2026-04-09T08:11:23.088Z</time></trkpt><trkpt lat="41.1378567" lon="14.6710383"><ele>207.0</ele><time>2026-04-09T08:11:24.088Z</time></trkpt><trkpt lat="41.1379467" lon="14.6709667"><ele>205.39999999999998</ele><time>2026-04-09T08:11:25.088Z</time></trkpt><trkpt lat="41.1380383" lon="14.6708983"><ele>203.79999999999998</ele><time>2026-04-09T08:11:26.088Z</time></trkpt><trkpt lat="41.1381233" lon="14.6708417"><ele>202.2</ele><time>2026-04-09T08:11:27.088Z</time></trkpt><trkpt lat="41.1382133" lon="14.6707917"><ele>200.6</ele><time>2026-04-09T08:11:28.088Z</time></trkpt><trkpt lat="41.138295" lon="14.67075"><ele>199.0</ele><time>2026-04-09T08:11:29.088Z</time></trkpt><trkpt lat="41.1383717" lon="14.67071"><ele>198.28571428571428</ele><time>2026-04-09T08:11:30.088Z</time></trkpt><trkpt lat="41.138435" lon="14.670655"><ele>197.57142857142856</ele><time>2026-04-09T08:11:31.088Z</time></trkpt><trkpt lat="41.138485" lon="14.6705783"><ele>196.85714285714283</ele><time>2026-04-09T08:11:32.088Z</time></trkpt><trkpt lat="41.1385317" lon="14.6705"><ele>196.14285714285714</ele><time>2026-04-09T08:11:33.088Z</time></trkpt><trkpt lat="41.1385783" lon="14.6704233"><ele>195.42857142857144</ele><time>2026-04-09T08:11:34.088Z</time></trkpt><trkpt lat="41.1386333" lon="14.6703583"><ele>194.7142857142857</ele><time>2026-04-09T08:11:35.088Z</time></trkpt><trkpt lat="41.138695" lon="14.6703083"><ele>194.0</ele><time>2026-04-09T08:11:36.088Z</time></trkpt><trkpt lat="41.13876" lon="14.670265"><ele>192.83333333333334</ele><time>2026-04-09T08:11:37.088Z</time></trkpt><trkpt lat="41.13883" lon="14.6702217"><ele>191.66666666666669</ele><time>2026-04-09T08:11:38.088Z</time></trkpt><trkpt lat="41.138895" lon="14.6701817"><ele>190.5</ele><time>2026-04-09T08:11:39.088Z</time></trkpt><trkpt lat="41.1389533" lon="14.6701417"><ele>189.33333333333334</ele><time>2026-04-09T08:11:40.088Z</time></trkpt><trkpt lat="41.1390683" lon="14.670075"><ele>188.16666666666669</ele><time>2026-04-09T08:11:42.088Z</time></trkpt><trkpt lat="41.1391267" lon="14.670035"><ele>187.0</ele><time>2026-04-09T08:11:43.088Z</time></trkpt><trkpt lat="41.13919" lon="14.6699917"><ele>186.0</ele><time>2026-04-09T08:11:44.088Z</time></trkpt><trkpt lat="41.1392467" lon="14.66994"><ele>185.0</ele><time>2026-04-09T08:11:45.088Z</time></trkpt><trkpt lat="41.13931" lon="14.6698817"><ele>184.0</ele><time>2026-04-09T08:11:46.088Z</time></trkpt><trkpt lat="41.1393817" lon="14.669825"><ele>183.0</ele><time>2026-04-09T08:11:47.088Z</time></trkpt><trkpt lat="41.1394633" lon="14.6697567"><ele>182.0</ele><time>2026-04-09T08:11:48.088Z</time></trkpt><trkpt lat="41.1395633" lon="14.6696717"><ele>181.0</ele><time>2026-04-09T08:11:49.088Z</time></trkpt><trkpt lat="41.1396683" lon="14.6695717"><ele>181.0</ele><time>2026-04-09T08:11:50.088Z</time></trkpt><trkpt lat="41.1397767" lon="14.66948"><ele>181.0</ele><time>2026-04-09T08:11:51.088Z</time></trkpt><trkpt lat="41.13989" lon="14.6693933"><ele>181.0</ele><time>2026-04-09T08:11:52.088Z</time></trkpt><trkpt lat="41.1400017" lon="14.6692933"><ele>181.0</ele><time>2026-04-09T08:11:53.088Z</time></trkpt><trkpt lat="41.1401033" lon="14.6691883"><ele>177.25</ele><time>2026-04-09T08:11:54.088Z</time></trkpt><trkpt lat="41.1401933" lon="14.6690883"><ele>173.5</ele><time>2026-04-09T08:11:55.088Z</time></trkpt><trkpt lat="41.1402833" lon="14.6689917"><ele>169.75</ele><time>2026-04-09T08:11:56.088Z</time></trkpt><trkpt lat="41.140375" lon="14.6688967"><ele>166.0</ele><time>2026-04-09T08:11:57.088Z</time></trkpt><trkpt lat="41.1404717" lon="14.6688217"><ele>166.0</ele><time>2026-04-09T08:11:58.088Z</time></trkpt><trkpt lat="41.140585" lon="14.668775"><ele>166.0</ele><time>2026-04-09T08:11:59.088Z</time></trkpt><trkpt lat="41.1407117" lon="14.6687467"><ele>166.0</ele><time>2026-04-09T08:12:00.088Z</time></trkpt><trkpt lat="41.1408467" lon="14.668735"><ele>166.0</ele><time>2026-04-09T08:12:01.088Z</time></trkpt><trkpt lat="41.1409817" lon="14.6687233"><ele>165.0</ele><time>2026-04-09T08:12:02.088Z</time></trkpt><trkpt lat="41.141115" lon="14.6687167"><ele>164.0</ele><time>2026-04-09T08:12:03.088Z</time></trkpt><trkpt lat="41.14125" lon="14.668725"><ele>163.0</ele><time>2026-04-09T08:12:04.088Z</time></trkpt><trkpt lat="41.1413883" lon="14.668725"><ele>162.0</ele><time>2026-04-09T08:12:05.088Z</time></trkpt><trkpt lat="41.1415167" lon="14.6687317"><ele>162.25</ele><time>2026-04-09T08:12:06.088Z</time></trkpt><trkpt lat="41.1416283" lon="14.6687283"><ele>162.5</ele><time>2026-04-09T08:12:07.088Z</time></trkpt><trkpt lat="41.1417367" lon="14.6686983"><ele>162.75</ele><time>2026-04-09T08:12:08.088Z</time></trkpt><trkpt lat="41.141855" lon="14.6686417"><ele>163.0</ele><time>2026-04-09T08:12:09.088Z</time></trkpt><trkpt lat="41.14197" lon="14.6685667"><ele>164.75</ele><time>2026-04-09T08:12:10.088Z</time></trkpt><trkpt lat="41.142075" lon="14.66847"><ele>166.5</ele><time>2026-04-09T08:12:11.088Z</time></trkpt><trkpt lat="41.142175" lon="14.6683767"><ele>168.25</ele><time>2026-04-09T08:12:12.088Z</time></trkpt><trkpt lat="41.1422767" lon="14.6682883"><ele>170.0</ele><time>2026-04-09T08:12:13.088Z</time></trkpt><trkpt lat="41.1423917" lon="14.6682133"><ele>170.25</ele><time>2026-04-09T08:12:14.088Z</time></trkpt><trkpt lat="41.142515" lon="14.668155"><ele>170.5</ele><time>2026-04-09T08:12:15.088Z</time></trkpt><trkpt lat="41.1426317" lon="14.66811"><ele>170.75</ele><time>2026-04-09T08:12:16.088Z</time></trkpt><trkpt lat="41.1427517" lon="14.668085"><ele>171.0</ele><time>2026-04-09T08:12:17.088Z</time></trkpt><trkpt lat="41.142875" lon="14.6680567"><ele>171.0</ele><time>2026-04-09T08:12:18.088Z</time></trkpt><trkpt lat="41.1429967" lon="14.6680317"><ele>171.0</ele><time>2026-04-09T08:12:19.088Z</time></trkpt><trkpt lat="41.1431083" lon="14.6680183"><ele>171.0</ele><time>2026-04-09T08:12:20.088Z</time></trkpt><trkpt lat="41.143215" lon="14.668015"><ele>171.0</ele><time>2026-04-09T08:12:21.088Z</time></trkpt><trkpt lat="41.1433033" lon="14.6680317"><ele>171.0</ele><time>2026-04-09T08:12:22.088Z</time></trkpt><trkpt lat="41.1433933" lon="14.66807"><ele>170.0</ele><time>2026-04-09T08:12:23.088Z</time></trkpt><trkpt lat="41.1434817" lon="14.6681467"><ele>169.0</ele><time>2026-04-09T08:12:24.088Z</time></trkpt><trkpt lat="41.1435733" lon="14.6682367"><ele>168.0</ele><time>2026-04-09T08:12:25.088Z</time></trkpt><trkpt lat="41.1436683" lon="14.6683367"><ele>167.0</ele><time>2026-04-09T08:12:26.088Z</time></trkpt><trkpt lat="41.1437567" lon="14.6684467"><ele>167.0</ele><time>2026-04-09T08:12:27.088Z</time></trkpt><trkpt lat="41.1438517" lon="14.66856"><ele>167.0</ele><time>2026-04-09T08:12:28.088Z</time></trkpt><trkpt lat="41.1439433" lon="14.668675"><ele>167.0</ele><time>2026-04-09T08:12:29.088Z</time></trkpt><trkpt lat="41.1440367" lon="14.6687917"><ele>167.0</ele><time>2026-04-09T08:12:30.088Z</time></trkpt><trkpt lat="41.1441317" lon="14.668905"><ele>167.5</ele><time>2026-04-09T08:12:31.088Z</time></trkpt><trkpt lat="41.1442383" lon="14.6690317"><ele>168.0</ele><time>2026-04-09T08:12:32.088Z</time></trkpt><trkpt lat="41.1443417" lon="14.6691467"><ele>168.5</ele><time>2026-04-09T08:12:33.088Z</time></trkpt><trkpt lat="41.144435" lon="14.6692367"><ele>169.0</ele><time>2026-04-09T08:12:34.088Z</time></trkpt><trkpt lat="41.144515" lon="14.669315"><ele>169.0</ele><time>2026-04-09T08:12:35.088Z</time></trkpt><trkpt lat="41.1445983" lon="14.6693667"><ele>169.0</ele><time>2026-04-09T08:12:36.088Z</time></trkpt><trkpt lat="41.1446867" lon="14.66939"><ele>169.0</ele><time>2026-04-09T08:12:37.088Z</time></trkpt><trkpt lat="41.144775" lon="14.6693833"><ele>169.0</ele><time>2026-04-09T08:12:38.088Z</time></trkpt><trkpt lat="41.1448717" lon="14.669365"><ele>169.0</ele><time>2026-04-09T08:12:39.088Z</time></trkpt><trkpt lat="41.1449733" lon="14.669345"><ele>170.0</ele><time>2026-04-09T08:12:40.088Z</time></trkpt><trkpt lat="41.1450767" lon="14.66933"><ele>171.0</ele><time>2026-04-09T08:12:41.088Z</time></trkpt><trkpt lat="41.14518" lon="14.66931"><ele>172.0</ele><time>2026-04-09T08:12:42.088Z</time></trkpt><trkpt lat="41.1452917" lon="14.6692883"><ele>173.0</ele><time>2026-04-09T08:12:43.088Z</time></trkpt><trkpt lat="41.145405" lon="14.66927"><ele>174.0</ele><time>2026-04-09T08:12:44.088Z</time></trkpt><trkpt lat="41.1455167" lon="14.6692533"><ele>174.0</ele><time>2026-04-09T08:12:45.088Z</time></trkpt><trkpt lat="41.1456183" lon="14.66924"><ele>174.0</ele><time>2026-04-09T08:12:46.088Z</time></trkpt><trkpt lat="41.1457117" lon="14.6692267"><ele>174.0</ele><time>2026-04-09T08:12:47.088Z</time></trkpt><trkpt lat="41.145825" lon="14.66922"><ele>174.0</ele><time>2026-04-09T08:12:48.088Z</time></trkpt><trkpt lat="41.1459467" lon="14.6692117"><ele>174.0</ele><time>2026-04-09T08:12:49.088Z</time></trkpt><trkpt lat="41.1460817" lon="14.6692133"><ele>177.0</ele><time>2026-04-09T08:12:50.088Z</time></trkpt><trkpt lat="41.1462367" lon="14.6692283"><ele>180.0</ele><time>2026-04-09T08:12:51.088Z</time></trkpt><trkpt lat="41.1463917" lon="14.6692567"><ele>183.0</ele><time>2026-04-09T08:12:52.088Z</time></trkpt><trkpt lat="41.1465517" lon="14.6692967"><ele>184.5</ele><time>2026-04-09T08:12:53.088Z</time></trkpt><trkpt lat="41.1466967" lon="14.669335"><ele>186.0</ele><time>2026-04-09T08:12:54.088Z</time></trkpt><trkpt lat="41.1468383" lon="14.66937"><ele>187.5</ele><time>2026-04-09T08:12:55.088Z</time></trkpt><trkpt lat="41.1469617" lon="14.6694"><ele>189.0</ele><time>2026-04-09T08:12:56.088Z</time></trkpt><trkpt lat="41.1470733" lon="14.66942"><ele>188.75</ele><time>2026-04-09T08:12:57.088Z</time></trkpt><trkpt lat="41.1472017" lon="14.669445"><ele>188.5</ele><time>2026-04-09T08:12:58.088Z</time></trkpt><trkpt lat="41.147335" lon="14.6694717"><ele>188.25</ele><time>2026-04-09T08:12:59.088Z</time></trkpt><trkpt lat="41.1474667" lon="14.669485"><ele>188.0</ele><time>2026-04-09T08:13:00.088Z</time></trkpt><trkpt lat="41.1476033" lon="14.669495"><ele>191.25</ele><time>2026-04-09T08:13:01.088Z</time></trkpt><trkpt lat="41.1477383" lon="14.6695017"><ele>194.5</ele><time>2026-04-09T08:13:02.088Z</time></trkpt><trkpt lat="41.147865" lon="14.66951"><ele>197.75</ele><time>2026-04-09T08:13:03.088Z</time></trkpt><trkpt lat="41.14799" lon="14.6695267"><ele>201.0</ele><time>2026-04-09T08:13:04.088Z</time></trkpt><trkpt lat="41.148105" lon="14.6695383"><ele>203.60000000000002</ele><time>2026-04-09T08:13:05.088Z</time></trkpt><trkpt lat="41.14821" lon="14.6695583"><ele>206.2</ele><time>2026-04-09T08:13:06.088Z</time></trkpt><trkpt lat="41.1482967" lon="14.669575"><ele>208.79999999999998</ele><time>2026-04-09T08:13:07.088Z</time></trkpt><trkpt lat="41.1483883" lon="14.6695867"><ele>211.39999999999998</ele><time>2026-04-09T08:13:08.088Z</time></trkpt><trkpt lat="41.1484833" lon="14.6696"><ele>214.0</ele><time>2026-04-09T08:13:09.088Z</time></trkpt><trkpt lat="41.1485767" lon="14.66962"><ele>214.0</ele><time>2026-04-09T08:13:10.088Z</time></trkpt><trkpt lat="41.1486783" lon="14.669635"><ele>213.99999999999997</ele><time>2026-04-09T08:13:11.088Z</time></trkpt><trkpt lat="41.1487733" lon="14.66965"><ele>213.99999999999997</ele><time>2026-04-09T08:13:12.088Z</time></trkpt><trkpt lat="41.1488767" lon="14.6696667"><ele>214.0</ele><time>2026-04-09T08:13:13.088Z</time></trkpt><trkpt lat="41.1489833" lon="14.6696833"><ele>214.0</ele><time>2026-04-09T08:13:14.088Z</time></trkpt><trkpt lat="41.1490917" lon="14.6697"><ele>216.39999999999998</ele><time>2026-04-09T08:13:15.088Z</time></trkpt><trkpt lat="41.1492" lon="14.6697167"><ele>218.79999999999998</ele><time>2026-04-09T08:13:16.088Z</time></trkpt><trkpt lat="41.1493067" lon="14.66974"><ele>221.20000000000002</ele><time>2026-04-09T08:13:17.088Z</time></trkpt><trkpt lat="41.1494167" lon="14.6697567"><ele>223.60000000000002</ele><time>2026-04-09T08:13:18.088Z</time></trkpt><trkpt lat="41.149525" lon="14.6697733"><ele>226.0</ele><time>2026-04-09T08:13:19.088Z</time></trkpt><trkpt lat="41.1496317" lon="14.669795"><ele>226.0</ele><time>2026-04-09T08:13:20.088Z</time></trkpt><trkpt lat="41.1497417" lon="14.66982"><ele>226.00000000000003</ele><time>2026-04-09T08:13:21.088Z</time></trkpt><trkpt lat="41.1498533" lon="14.6698433"><ele>226.00000000000003</ele><time>2026-04-09T08:13:22.088Z</time></trkpt><trkpt lat="41.1499633" lon="14.669865"><ele>226.0</ele><time>2026-04-09T08:13:23.088Z</time></trkpt><trkpt lat="41.1500733" lon="14.669885"><ele>226.0</ele><time>2026-04-09T08:13:24.088Z</time></trkpt><trkpt lat="41.1501883" lon="14.669905"><ele>228.8</ele><time>2026-04-09T08:13:25.088Z</time></trkpt><trkpt lat="41.1502967" lon="14.6699267"><ele>231.60000000000002</ele><time>2026-04-09T08:13:26.088Z</time></trkpt><trkpt lat="41.1503967" lon="14.6699517"><ele>234.4</ele><time>2026-04-09T08:13:27.088Z</time></trkpt><trkpt lat="41.1504883" lon="14.6699667"><ele>237.2</ele><time>2026-04-09T08:13:28.088Z</time></trkpt><trkpt lat="41.1505767" lon="14.669985"><ele>240.0</ele><time>2026-04-09T08:13:29.088Z</time></trkpt><trkpt lat="41.150655" lon="14.6700033"><ele>242.0</ele><time>2026-04-09T08:13:30.088Z</time></trkpt><trkpt lat="41.15072" lon="14.6700133"><ele>244.0</ele><time>2026-04-09T08:13:31.088Z</time></trkpt><trkpt lat="41.1508433" lon="14.6700533"><ele>246.0</ele><time>2026-04-09T08:13:33.088Z</time></trkpt><trkpt lat="41.1509283" lon="14.6701317"><ele>248.0</ele><time>2026-04-09T08:13:35.088Z</time></trkpt><trkpt lat="41.1509867" lon="14.6702"><ele>250.0</ele><time>2026-04-09T08:13:37.088Z</time></trkpt><trkpt lat="41.151065" lon="14.6702567"><ele>249.99999999999997</ele><time>2026-04-09T08:13:39.088Z</time></trkpt><trkpt lat="41.15115" lon="14.6702483"><ele>250.0</ele><time>2026-04-09T08:13:42.088Z</time></trkpt><trkpt lat="41.1512033" lon="14.6701867"><ele>250.0</ele><time>2026-04-09T08:13:44.088Z</time></trkpt><trkpt lat="41.1512183" lon="14.6700933"><ele>250.0</ele><time>2026-04-09T08:13:46.088Z</time></trkpt><trkpt lat="41.151215" lon="14.6699883"><ele>249.99999999999997</ele><time>2026-04-09T08:13:48.088Z</time></trkpt><trkpt lat="41.1512233" lon="14.6698667"><ele>250.0</ele><time>2026-04-09T08:13:50.088Z</time></trkpt><trkpt lat="41.1512583" lon="14.6697217"><ele>250.0</ele><time>2026-04-09T08:13:52.088Z</time></trkpt><trkpt lat="41.1513283" lon="14.6695817"><ele>250.0</ele><time>2026-04-09T08:13:54.088Z</time></trkpt><trkpt lat="41.1513783" lon="14.6695017"><ele>250.0</ele><time>2026-04-09T08:13:55.089Z</time></trkpt><trkpt lat="41.1514367" lon="14.6694117"><ele>250.0</ele><time>2026-04-09T08:13:56.088Z</time></trkpt><trkpt lat="41.151495" lon="14.6693317"><ele>250.0</ele><time>2026-04-09T08:13:57.088Z</time></trkpt><trkpt lat="41.1515533" lon="14.669255"><ele>250.8</ele><time>2026-04-09T08:13:58.088Z</time></trkpt><trkpt lat="41.1516183" lon="14.6691683"><ele>251.6</ele><time>2026-04-09T08:13:59.088Z</time></trkpt><trkpt lat="41.1516833" lon="14.6690883"><ele>252.39999999999998</ele><time>2026-04-09T08:14:00.088Z</time></trkpt><trkpt lat="41.15174" lon="14.669005"><ele>253.2</ele><time>2026-04-09T08:14:01.088Z</time></trkpt><trkpt lat="41.1518017" lon="14.6689117"><ele>254.0</ele><time>2026-04-09T08:14:02.088Z</time></trkpt><trkpt lat="41.1518633" lon="14.6688067"><ele>254.0</ele><time>2026-04-09T08:14:03.088Z</time></trkpt><trkpt lat="41.1519217" lon="14.6686783"><ele>254.0</ele><time>2026-04-09T08:14:04.088Z</time></trkpt><trkpt lat="41.15197" lon="14.6685333"><ele>254.0</ele><time>2026-04-09T08:14:05.088Z</time></trkpt><trkpt lat="41.1520017" lon="14.6683833"><ele>254.0</ele><time>2026-04-09T08:14:06.088Z</time></trkpt><trkpt lat="41.1520217" lon="14.6682167"><ele>251.75</ele><time>2026-04-09T08:14:07.088Z</time></trkpt><trkpt lat="41.1520367" lon="14.6680517"><ele>249.5</ele><time>2026-04-09T08:14:08.088Z</time></trkpt><trkpt lat="41.152045" lon="14.667865"><ele>247.25</ele><time>2026-04-09T08:14:09.088Z</time></trkpt><trkpt lat="41.1520517" lon="14.66768"><ele>245.0</ele><time>2026-04-09T08:14:10.088Z</time></trkpt><trkpt lat="41.15206" lon="14.6675033"><ele>243.5</ele><time>2026-04-09T08:14:11.088Z</time></trkpt><trkpt lat="41.152075" lon="14.6673333"><ele>242.0</ele><time>2026-04-09T08:14:12.088Z</time></trkpt><trkpt lat="41.1520783" lon="14.6671683"><ele>240.5</ele><time>2026-04-09T08:14:13.088Z</time></trkpt><trkpt lat="41.1520867" lon="14.667"><ele>239.0</ele><time>2026-04-09T08:14:14.088Z</time></trkpt><trkpt lat="41.1521017" lon="14.6668383"><ele>237.75</ele><time>2026-04-09T08:14:15.088Z</time></trkpt><trkpt lat="41.15211" lon="14.6666817"><ele>236.5</ele><time>2026-04-09T08:14:16.088Z</time></trkpt><trkpt lat="41.1521183" lon="14.6665183"><ele>235.25</ele><time>2026-04-09T08:14:17.088Z</time></trkpt><trkpt lat="41.1521183" lon="14.666365"><ele>234.0</ele><time>2026-04-09T08:14:18.088Z</time></trkpt><trkpt lat="41.152105" lon="14.6662017"><ele>232.25</ele><time>2026-04-09T08:14:19.088Z</time></trkpt><trkpt lat="41.1520917" lon="14.6660467"><ele>230.5</ele><time>2026-04-09T08:14:20.088Z</time></trkpt><trkpt lat="41.1520683" lon="14.6658883"><ele>228.75</ele><time>2026-04-09T08:14:21.088Z</time></trkpt><trkpt lat="41.1520383" lon="14.66574"><ele>227.0</ele><time>2026-04-09T08:14:22.088Z</time></trkpt><trkpt lat="41.1520133" lon="14.66559"><ele>227.0</ele><time>2026-04-09T08:14:23.088Z</time></trkpt><trkpt lat="41.1519967" lon="14.6654333"><ele>227.0</ele><time>2026-04-09T08:14:24.088Z</time></trkpt><trkpt lat="41.151985" lon="14.66528"><ele>227.0</ele><time>2026-04-09T08:14:25.088Z</time></trkpt><trkpt lat="41.1519867" lon="14.6651383"><ele>227.0</ele><time>2026-04-09T08:14:26.088Z</time></trkpt><trkpt lat="41.1520117" lon="14.6649933"><ele>225.0</ele><time>2026-04-09T08:14:27.088Z</time></trkpt><trkpt lat="41.1520533" lon="14.6648533"><ele>223.0</ele><time>2026-04-09T08:14:28.088Z</time></trkpt><trkpt lat="41.1521217" lon="14.66471"><ele>221.0</ele><time>2026-04-09T08:14:29.088Z</time></trkpt><trkpt lat="41.1522" lon="14.6645633"><ele>219.0</ele><time>2026-04-09T08:14:30.088Z</time></trkpt><trkpt lat="41.152285" lon="14.66442"><ele>218.75</ele><time>2026-04-09T08:14:31.088Z</time></trkpt><trkpt lat="41.15238" lon="14.664285"><ele>218.5</ele><time>2026-04-09T08:14:32.088Z</time></trkpt><trkpt lat="41.1524817" lon="14.6641517"><ele>218.25</ele><time>2026-04-09T08:14:33.088Z</time></trkpt><trkpt lat="41.152585" lon="14.6640117"><ele>218.0</ele><time>2026-04-09T08:14:34.088Z</time></trkpt><trkpt lat="41.152695" lon="14.66388"><ele>218.0</ele><time>2026-04-09T08:14:35.088Z</time></trkpt><trkpt lat="41.1527967" lon="14.663755"><ele>218.0</ele><time>2026-04-09T08:14:36.088Z</time></trkpt><trkpt lat="41.1528967" lon="14.6636583"><ele>218.0</ele><time>2026-04-09T08:14:37.088Z</time></trkpt><trkpt lat="41.1529967" lon="14.6635733"><ele>218.0</ele><time>2026-04-09T08:14:38.088Z</time></trkpt><trkpt lat="41.1531133" lon="14.663515"><ele>219.25</ele><time>2026-04-09T08:14:39.088Z</time></trkpt><trkpt lat="41.1532367" lon="14.6634817"><ele>220.5</ele><time>2026-04-09T08:14:40.088Z</time></trkpt><trkpt lat="41.15336" lon="14.6634667"><ele>221.75</ele><time>2026-04-09T08:14:41.088Z</time></trkpt><trkpt lat="41.1534783" lon="14.6634667"><ele>223.0</ele><time>2026-04-09T08:14:42.088Z</time></trkpt><trkpt lat="41.1536117" lon="14.6634883"><ele>223.0</ele><time>2026-04-09T08:14:43.088Z</time></trkpt><trkpt lat="41.1537533" lon="14.6635183"><ele>223.0</ele><time>2026-04-09T08:14:44.088Z</time></trkpt><trkpt lat="41.1538967" lon="14.6635517"><ele>223.0</ele><time>2026-04-09T08:14:45.088Z</time></trkpt><trkpt lat="41.1540333" lon="14.6635783"><ele>223.0</ele><time>2026-04-09T08:14:46.088Z</time></trkpt><trkpt lat="41.1541783" lon="14.6636"><ele>224.25</ele><time>2026-04-09T08:14:47.088Z</time></trkpt><trkpt lat="41.1543217" lon="14.66361"><ele>225.5</ele><time>2026-04-09T08:14:48.088Z</time></trkpt><trkpt lat="41.1544683" lon="14.6636"><ele>226.75</ele><time>2026-04-09T08:14:49.088Z</time></trkpt><trkpt lat="41.15462" lon="14.6635733"><ele>228.0</ele><time>2026-04-09T08:14:50.088Z</time></trkpt><trkpt lat="41.1547767" lon="14.6635217"><ele>228.33333333333331</ele><time>2026-04-09T08:14:51.088Z</time></trkpt><trkpt lat="41.1549267" lon="14.6634567"><ele>228.66666666666666</ele><time>2026-04-09T08:14:52.088Z</time></trkpt><trkpt lat="41.15507" lon="14.6633983"><ele>229.0</ele><time>2026-04-09T08:14:53.088Z</time></trkpt><trkpt lat="41.1552067" lon="14.66333"><ele>229.0</ele><time>2026-04-09T08:14:54.088Z</time></trkpt><trkpt lat="41.1553433" lon="14.66326"><ele>229.0</ele><time>2026-04-09T08:14:55.088Z</time></trkpt><trkpt lat="41.1554767" lon="14.6631867"><ele>229.0</ele><time>2026-04-09T08:14:56.088Z</time></trkpt><trkpt lat="41.1556183" lon="14.6631183"><ele>229.0</ele><time>2026-04-09T08:14:57.088Z</time></trkpt><trkpt lat="41.1557583" lon="14.6630483"><ele>229.0</ele><time>2026-04-09T08:14:58.088Z</time></trkpt><trkpt lat="41.1558933" lon="14.66296"><ele>229.0</ele><time>2026-04-09T08:14:59.088Z</time></trkpt><trkpt lat="41.1560267" lon="14.66287"><ele>229.0</ele><time>2026-04-09T08:15:00.088Z</time></trkpt><trkpt lat="41.1561583" lon="14.6627383"><ele>227.33333333333331</ele><time>2026-04-09T08:15:01.088Z</time></trkpt><trkpt lat="41.1562817" lon="14.6625967"><ele>225.66666666666669</ele><time>2026-04-09T08:15:02.088Z</time></trkpt><trkpt lat="41.1564067" lon="14.662445"><ele>224.0</ele><time>2026-04-09T08:15:03.088Z</time></trkpt><trkpt lat="41.1565267" lon="14.66228"><ele>224.66666666666669</ele><time>2026-04-09T08:15:04.088Z</time></trkpt><trkpt lat="41.15664" lon="14.6621167"><ele>225.33333333333331</ele><time>2026-04-09T08:15:05.088Z</time></trkpt><trkpt lat="41.1567567" lon="14.661935"><ele>226.0</ele><time>2026-04-09T08:15:06.088Z</time></trkpt><trkpt lat="41.156865" lon="14.661765"><ele>227.33333333333331</ele><time>2026-04-09T08:15:07.088Z</time></trkpt><trkpt lat="41.156965" lon="14.6616083"><ele>228.66666666666669</ele><time>2026-04-09T08:15:08.088Z</time></trkpt><trkpt lat="41.1570667" lon="14.6614583"><ele>230.0</ele><time>2026-04-09T08:15:09.088Z</time></trkpt><trkpt lat="41.1571683" lon="14.6613117"><ele>230.0</ele><time>2026-04-09T08:15:10.088Z</time></trkpt><trkpt lat="41.1572633" lon="14.6611633"><ele>230.0</ele><time>2026-04-09T08:15:11.088Z</time></trkpt><trkpt lat="41.15735" lon="14.6610317"><ele>230.0</ele><time>2026-04-09T08:15:12.088Z</time></trkpt><trkpt lat="41.1574333" lon="14.6609083"><ele>230.0</ele><time>2026-04-09T08:15:13.088Z</time></trkpt><trkpt lat="41.15752" lon="14.6607733"><ele>233.5</ele><time>2026-04-09T08:15:14.088Z</time></trkpt><trkpt lat="41.1576083" lon="14.66064"><ele>237.0</ele><time>2026-04-09T08:15:15.088Z</time></trkpt><trkpt lat="41.157695" lon="14.6605083"><ele>240.5</ele><time>2026-04-09T08:15:16.088Z</time></trkpt><trkpt lat="41.1577783" lon="14.660375"><ele>244.0</ele><time>2026-04-09T08:15:17.088Z</time></trkpt><trkpt lat="41.1578633" lon="14.6602267"><ele>245.5</ele><time>2026-04-09T08:15:18.088Z</time></trkpt><trkpt lat="41.157945" lon="14.6600783"><ele>247.0</ele><time>2026-04-09T08:15:19.088Z</time></trkpt><trkpt lat="41.1580317" lon="14.6599333"><ele>248.5</ele><time>2026-04-09T08:15:20.088Z</time></trkpt><trkpt lat="41.1581167" lon="14.6597967"><ele>250.0</ele><time>2026-04-09T08:15:21.088Z</time></trkpt><trkpt lat="41.15819" lon="14.6596617"><ele>250.75</ele><time>2026-04-09T08:15:22.088Z</time></trkpt><trkpt lat="41.1582767" lon="14.65954"><ele>251.5</ele><time>2026-04-09T08:15:23.088Z</time></trkpt><trkpt lat="41.1583717" lon="14.6594317"><ele>252.25</ele><time>2026-04-09T08:15:24.088Z</time></trkpt><trkpt lat="41.158475" lon="14.6593267"><ele>253.0</ele><time>2026-04-09T08:15:25.088Z</time></trkpt><trkpt lat="41.1585867" lon="14.6592083"><ele>253.5</ele><time>2026-04-09T08:15:26.088Z</time></trkpt><trkpt lat="41.1586917" lon="14.659095"><ele>254.0</ele><time>2026-04-09T08:15:27.088Z</time></trkpt><trkpt lat="41.15879" lon="14.6589883"><ele>254.5</ele><time>2026-04-09T08:15:28.088Z</time></trkpt><trkpt lat="41.1588817" lon="14.65889"><ele>255.0</ele><time>2026-04-09T08:15:29.088Z</time></trkpt><trkpt lat="41.1589683" lon="14.6587967"><ele>255.2</ele><time>2026-04-09T08:15:30.088Z</time></trkpt><trkpt lat="41.1590433" lon="14.6587117"><ele>255.4</ele><time>2026-04-09T08:15:31.088Z</time></trkpt><trkpt lat="41.1591117" lon="14.6586333"><ele>255.60000000000002</ele><time>2026-04-09T08:15:32.088Z</time></trkpt><trkpt lat="41.15917" lon="14.6585717"><ele>255.8</ele><time>2026-04-09T08:15:33.088Z</time></trkpt><trkpt lat="41.1592567" lon="14.6584767"><ele>256.0</ele><time>2026-04-09T08:15:35.088Z</time></trkpt><trkpt lat="41.1593467" lon="14.658405"><ele>255.99999999999997</ele><time>2026-04-09T08:15:37.088Z</time></trkpt><trkpt lat="41.1594733" lon="14.6583817"><ele>256.0</ele><time>2026-04-09T08:15:39.088Z</time></trkpt><trkpt lat="41.1595433" lon="14.6583867"><ele>256.0</ele><time>2026-04-09T08:15:40.088Z</time></trkpt><trkpt lat="41.1596217" lon="14.65841"><ele>256.0</ele><time>2026-04-09T08:15:41.088Z</time></trkpt><trkpt lat="41.1596983" lon="14.6584433"><ele>255.99999999999997</ele><time>2026-04-09T08:15:42.088Z</time></trkpt><trkpt lat="41.1597717" lon="14.65848"><ele>256.0</ele><time>2026-04-09T08:15:43.088Z</time></trkpt><trkpt lat="41.1598383" lon="14.6585183"><ele>256.8</ele><time>2026-04-09T08:15:44.088Z</time></trkpt><trkpt lat="41.1599117" lon="14.658545"><ele>257.6</ele><time>2026-04-09T08:15:45.088Z</time></trkpt><trkpt lat="41.1599883" lon="14.6585483"><ele>258.4</ele><time>2026-04-09T08:15:46.088Z</time></trkpt><trkpt lat="41.16008" lon="14.6585283"><ele>259.2</ele><time>2026-04-09T08:15:47.088Z</time></trkpt><trkpt lat="41.1601833" lon="14.658485"><ele>260.0</ele><time>2026-04-09T08:15:48.088Z</time></trkpt><trkpt lat="41.1602917" lon="14.6584333"><ele>260.0</ele><time>2026-04-09T08:15:49.088Z</time></trkpt><trkpt lat="41.1604133" lon="14.6583717"><ele>260.0</ele><time>2026-04-09T08:15:50.088Z</time></trkpt><trkpt lat="41.1605333" lon="14.6583117"><ele>260.0</ele><time>2026-04-09T08:15:51.088Z</time></trkpt><trkpt lat="41.1606567" lon="14.6582533"><ele>260.0</ele><time>2026-04-09T08:15:52.088Z</time></trkpt><trkpt lat="41.160795" lon="14.6581983"><ele>261.6666666666667</ele><time>2026-04-09T08:15:53.088Z</time></trkpt><trkpt lat="41.16094" lon="14.65813"><ele>263.3333333333333</ele><time>2026-04-09T08:15:54.088Z</time></trkpt><trkpt lat="41.1610817" lon="14.65806"><ele>265.0</ele><time>2026-04-09T08:15:55.088Z</time></trkpt><trkpt lat="41.161225" lon="14.6579917"><ele>265.0</ele><time>2026-04-09T08:15:56.088Z</time></trkpt><trkpt lat="41.16137" lon="14.657925"><ele>265.0</ele><time>2026-04-09T08:15:57.088Z</time></trkpt><trkpt lat="41.1615167" lon="14.6578583"><ele>265.0</ele><time>2026-04-09T08:15:58.088Z</time></trkpt><trkpt lat="41.161665" lon="14.65779"><ele>266.5</ele><time>2026-04-09T08:15:59.088Z</time></trkpt><trkpt lat="41.1618" lon="14.6577317"><ele>268.0</ele><time>2026-04-09T08:16:00.088Z</time></trkpt><trkpt lat="41.16193" lon="14.6576717"><ele>269.5</ele><time>2026-04-09T08:16:01.088Z</time></trkpt><trkpt lat="41.1620633" lon="14.65761"><ele>271.0</ele><time>2026-04-09T08:16:02.088Z</time></trkpt><trkpt lat="41.1621967" lon="14.65754"><ele>271.0</ele><time>2026-04-09T08:16:03.088Z</time></trkpt><trkpt lat="41.1623383" lon="14.65748"><ele>271.0</ele><time>2026-04-09T08:16:04.088Z</time></trkpt><trkpt lat="41.1624883" lon="14.6574217"><ele>271.0</ele><time>2026-04-09T08:16:05.088Z</time></trkpt><trkpt lat="41.162645" lon="14.6573567"><ele>273.0</ele><time>2026-04-09T08:16:06.088Z</time></trkpt><trkpt lat="41.1627967" lon="14.6572933"><ele>275.0</ele><time>2026-04-09T08:16:07.088Z</time></trkpt><trkpt lat="41.162955" lon="14.6572467"><ele>277.0</ele><time>2026-04-09T08:16:08.088Z</time></trkpt><trkpt lat="41.16311" lon="14.6571883"><ele>279.0</ele><time>2026-04-09T08:16:09.088Z</time></trkpt><trkpt lat="41.1632667" lon="14.65714"><ele>281.0</ele><time>2026-04-09T08:16:10.088Z</time></trkpt><trkpt lat="41.163425" lon="14.6570883"><ele>283.0</ele><time>2026-04-09T08:16:11.088Z</time></trkpt><trkpt lat="41.1635867" lon="14.6570383"><ele>283.0</ele><time>2026-04-09T08:16:12.088Z</time></trkpt><trkpt lat="41.163745" lon="14.6569867"><ele>283.0</ele><time>2026-04-09T08:16:13.088Z</time></trkpt><trkpt lat="41.1639033" lon="14.65694"><ele>283.0</ele><time>2026-04-09T08:16:14.088Z</time></trkpt><trkpt lat="41.1640583" lon="14.6568933"><ele>286.0</ele><time>2026-04-09T08:16:15.088Z</time></trkpt><trkpt lat="41.1642117" lon="14.656845"><ele>289.0</ele><time>2026-04-09T08:16:16.088Z</time></trkpt><trkpt lat="41.1643733" lon="14.6567867"><ele>292.0</ele><time>2026-04-09T08:16:17.088Z</time></trkpt><trkpt lat="41.1645217" lon="14.656735"><ele>292.0</ele><time>2026-04-09T08:16:18.088Z</time></trkpt><trkpt lat="41.1646583" lon="14.6567"><ele>292.0</ele><time>2026-04-09T08:16:19.088Z</time></trkpt><trkpt lat="41.1647867" lon="14.6566617"><ele>292.0</ele><time>2026-04-09T08:16:20.088Z</time></trkpt><trkpt lat="41.1649217" lon="14.6566233"><ele>292.0</ele><time>2026-04-09T08:16:21.088Z</time></trkpt><trkpt lat="41.16506" lon="14.656585"><ele>293.75</ele><time>2026-04-09T08:16:22.088Z</time></trkpt><trkpt lat="41.165195" lon="14.6565533"><ele>295.5</ele><time>2026-04-09T08:16:23.088Z</time></trkpt><trkpt lat="41.1653233" lon="14.6565033"><ele>297.25</ele><time>2026-04-09T08:16:24.088Z</time></trkpt><trkpt lat="41.1654483" lon="14.6564517"><ele>299.0</ele><time>2026-04-09T08:16:25.088Z</time></trkpt><trkpt lat="41.1655567" lon="14.6564033"><ele>299.0</ele><time>2026-04-09T08:16:26.088Z</time></trkpt><trkpt lat="41.1656617" lon="14.65635"><ele>299.0</ele><time>2026-04-09T08:16:27.088Z</time></trkpt><trkpt lat="41.1657633" lon="14.6563033"><ele>299.0</ele><time>2026-04-09T08:16:28.088Z</time></trkpt><trkpt lat="41.1658567" lon="14.656265"><ele>299.0</ele><time>2026-04-09T08:16:29.088Z</time></trkpt><trkpt lat="41.165955" lon="14.656215"><ele>299.0</ele><time>2026-04-09T08:16:30.088Z</time></trkpt><trkpt lat="41.1660617" lon="14.656175"><ele>300.0</ele><time>2026-04-09T08:16:31.088Z</time></trkpt><trkpt lat="41.1661617" lon="14.65613"><ele>301.0</ele><time>2026-04-09T08:16:32.088Z</time></trkpt><trkpt lat="41.1662683" lon="14.6560733"><ele>302.0</ele><time>2026-04-09T08:16:33.088Z</time></trkpt><trkpt lat="41.166375" lon="14.6560183"><ele>303.0</ele><time>2026-04-09T08:16:34.088Z</time></trkpt><trkpt lat="41.166485" lon="14.6559617"><ele>305.5</ele><time>2026-04-09T08:16:35.088Z</time></trkpt><trkpt lat="41.1665967" lon="14.6559017"><ele>308.0</ele><time>2026-04-09T08:16:36.088Z</time></trkpt><trkpt lat="41.1667117" lon="14.6558467"><ele>310.5</ele><time>2026-04-09T08:16:37.088Z</time></trkpt><trkpt lat="41.1668233" lon="14.655785"><ele>313.0</ele><time>2026-04-09T08:16:38.088Z</time></trkpt><trkpt lat="41.1669283" lon="14.6557283"><ele>313.0</ele><time>2026-04-09T08:16:39.088Z</time></trkpt><trkpt lat="41.1670283" lon="14.655675"><ele>313.0</ele><time>2026-04-09T08:16:40.088Z</time></trkpt><trkpt lat="41.1671283" lon="14.6556217"><ele>313.0</ele><time>2026-04-09T08:16:41.088Z</time></trkpt><trkpt lat="41.167225" lon="14.655575"><ele>313.0</ele><time>2026-04-09T08:16:42.088Z</time></trkpt><trkpt lat="41.1673217" lon="14.6555233"><ele>313.0</ele><time>2026-04-09T08:16:43.088Z</time></trkpt><trkpt lat="41.16742" lon="14.655475"><ele>314.66666666666663</ele><time>2026-04-09T08:16:44.088Z</time></trkpt><trkpt lat="41.16751" lon="14.65543"><ele>316.3333333333333</ele><time>2026-04-09T08:16:45.088Z</time></trkpt><trkpt lat="41.1675967" lon="14.655395"><ele>318.0</ele><time>2026-04-09T08:16:46.088Z</time></trkpt><trkpt lat="41.1676783" lon="14.6553667"><ele>319.6666666666667</ele><time>2026-04-09T08:16:47.088Z</time></trkpt><trkpt lat="41.1677583" lon="14.6553533"><ele>321.33333333333337</ele><time>2026-04-09T08:16:48.088Z</time></trkpt><trkpt lat="41.16784" lon="14.6553717"><ele>323.0</ele><time>2026-04-09T08:16:49.088Z</time></trkpt><trkpt lat="41.1679183" lon="14.6554083"><ele>323.0</ele><time>2026-04-09T08:16:50.088Z</time></trkpt><trkpt lat="41.16799" lon="14.6554817"><ele>323.0</ele><time>2026-04-09T08:16:51.088Z</time></trkpt><trkpt lat="41.1680667" lon="14.6555717"><ele>323.0</ele><time>2026-04-09T08:16:52.088Z</time></trkpt><trkpt lat="41.1681367" lon="14.6556817"><ele>323.0</ele><time>2026-04-09T08:16:53.088Z</time></trkpt><trkpt lat="41.16821" lon="14.65578"><ele>323.0</ele><time>2026-04-09T08:16:54.088Z</time></trkpt><trkpt lat="41.1682767" lon="14.6558683"><ele>324.6666666666667</ele><time>2026-04-09T08:16:55.088Z</time></trkpt><trkpt lat="41.1683283" lon="14.6559433"><ele>326.33333333333337</ele><time>2026-04-09T08:16:56.088Z</time></trkpt><trkpt lat="41.168375" lon="14.65601"><ele>328.0</ele><time>2026-04-09T08:16:57.088Z</time></trkpt><trkpt lat="41.1684267" lon="14.656065"><ele>329.6666666666667</ele><time>2026-04-09T08:16:58.088Z</time></trkpt><trkpt lat="41.1685333" lon="14.6560967"><ele>331.3333333333333</ele><time>2026-04-09T08:17:00.088Z</time></trkpt><trkpt lat="41.168615" lon="14.6560467"><ele>333.0</ele><time>2026-04-09T08:17:02.088Z</time></trkpt><trkpt lat="41.1686633" lon="14.655985"><ele>333.0</ele><time>2026-04-09T08:17:04.088Z</time></trkpt><trkpt lat="41.1687117" lon="14.6559017"><ele>333.0</ele><time>2026-04-09T08:17:07.088Z</time></trkpt><trkpt lat="41.168755" lon="14.655835"><ele>333.0</ele><time>2026-04-09T08:17:09.088Z</time></trkpt><trkpt lat="41.1688333" lon="14.6557333"><ele>333.0</ele><time>2026-04-09T08:17:11.088Z</time></trkpt><trkpt lat="41.1689133" lon="14.6555917"><ele>333.0</ele><time>2026-04-09T08:17:13.088Z</time></trkpt><trkpt lat="41.1689683" lon="14.6555033"><ele>334.59999999999997</ele><time>2026-04-09T08:17:14.088Z</time></trkpt><trkpt lat="41.1690333" lon="14.6553967"><ele>336.2</ele><time>2026-04-09T08:17:15.088Z</time></trkpt><trkpt lat="41.1691033" lon="14.65529"><ele>337.8</ele><time>2026-04-09T08:17:16.088Z</time></trkpt><trkpt lat="41.169175" lon="14.6551783"><ele>339.4</ele><time>2026-04-09T08:17:17.088Z</time></trkpt><trkpt lat="41.169245" lon="14.655075"><ele>341.0</ele><time>2026-04-09T08:17:18.088Z</time></trkpt><trkpt lat="41.1693133" lon="14.6549617"><ele>341.25</ele><time>2026-04-09T08:17:19.088Z</time></trkpt><trkpt lat="41.169385" lon="14.65483"><ele>341.5</ele><time>2026-04-09T08:17:20.088Z</time></trkpt><trkpt lat="41.1694517" lon="14.654685"><ele>341.75</ele><time>2026-04-09T08:17:21.088Z</time></trkpt><trkpt lat="41.1695017" lon="14.6545383"><ele>342.0</ele><time>2026-04-09T08:17:22.088Z</time></trkpt><trkpt lat="41.16955" lon="14.6543833"><ele>342.0</ele><time>2026-04-09T08:17:23.088Z</time></trkpt><trkpt lat="41.169595" lon="14.654225"><ele>342.0</ele><time>2026-04-09T08:17:24.088Z</time></trkpt><trkpt lat="41.1696433" lon="14.6540683"><ele>342.0</ele><time>2026-04-09T08:17:25.088Z</time></trkpt><trkpt lat="41.1696917" lon="14.6539067"><ele>342.0</ele><time>2026-04-09T08:17:26.088Z</time></trkpt><trkpt lat="41.169745" lon="14.653745"><ele>342.5</ele><time>2026-04-09T08:17:27.088Z</time></trkpt><trkpt lat="41.1698083" lon="14.653585"><ele>343.0</ele><time>2026-04-09T08:17:28.088Z</time></trkpt><trkpt lat="41.16988" lon="14.653415"><ele>343.5</ele><time>2026-04-09T08:17:29.088Z</time></trkpt><trkpt lat="41.1699567" lon="14.6532667"><ele>344.0</ele><time>2026-04-09T08:17:30.088Z</time></trkpt><trkpt lat="41.17004" lon="14.6531183"><ele>346.2</ele><time>2026-04-09T08:17:31.088Z</time></trkpt><trkpt lat="41.1701183" lon="14.652975"><ele>348.4</ele><time>2026-04-09T08:17:32.088Z</time></trkpt><trkpt lat="41.1701933" lon="14.65285"><ele>350.6</ele><time>2026-04-09T08:17:33.088Z</time></trkpt><trkpt lat="41.17026" lon="14.65275"><ele>352.8</ele><time>2026-04-09T08:17:34.088Z</time></trkpt><trkpt lat="41.1703233" lon="14.6526683"><ele>355.0</ele><time>2026-04-09T08:17:35.088Z</time></trkpt><trkpt lat="41.17039" lon="14.6526133"><ele>355.0</ele><time>2026-04-09T08:17:36.088Z</time></trkpt><trkpt lat="41.1704667" lon="14.652595"><ele>355.0</ele><time>2026-04-09T08:17:37.088Z</time></trkpt><trkpt lat="41.1705383" lon="14.6526067"><ele>355.0</ele><time>2026-04-09T08:17:38.088Z</time></trkpt><trkpt lat="41.1706117" lon="14.6526433"><ele>355.0</ele><time>2026-04-09T08:17:39.088Z</time></trkpt><trkpt lat="41.1706833" lon="14.6527183"><ele>355.0</ele><time>2026-04-09T08:17:40.088Z</time></trkpt><trkpt lat="41.170745" lon="14.6528167"><ele>355.0</ele><time>2026-04-09T08:17:41.088Z</time></trkpt><trkpt lat="41.1707817" lon="14.6529517"><ele>359.75</ele><time>2026-04-09T08:17:42.088Z</time></trkpt><trkpt lat="41.170815" lon="14.653105"><ele>364.5</ele><time>2026-04-09T08:17:43.088Z</time></trkpt><trkpt lat="41.17085" lon="14.6532683"><ele>369.25</ele><time>2026-04-09T08:17:44.088Z</time></trkpt><trkpt lat="41.1708917" lon="14.653435"><ele>374.0</ele><time>2026-04-09T08:17:45.088Z</time></trkpt><trkpt lat="41.1709433" lon="14.6536117"><ele>374.0</ele><time>2026-04-09T08:17:46.088Z</time></trkpt><trkpt lat="41.1710083" lon="14.6537833"><ele>374.0</ele><time>2026-04-09T08:17:47.088Z</time></trkpt><trkpt lat="41.1710817" lon="14.6539367"><ele>374.0</ele><time>2026-04-09T08:17:48.088Z</time></trkpt><trkpt lat="41.171165" lon="14.6540833"><ele>374.0</ele><time>2026-04-09T08:17:49.088Z</time></trkpt><trkpt lat="41.1712583" lon="14.6542217"><ele>374.0</ele><time>2026-04-09T08:17:50.088Z</time></trkpt><trkpt lat="41.1713667" lon="14.65436"><ele>374.0</ele><time>2026-04-09T08:17:51.088Z</time></trkpt><trkpt lat="41.171465" lon="14.6544783"><ele>374.0</ele><time>2026-04-09T08:17:52.088Z</time></trkpt><trkpt lat="41.17155" lon="14.6545833"><ele>374.0</ele><time>2026-04-09T08:17:53.088Z</time></trkpt><trkpt lat="41.1716267" lon="14.6546733"><ele>376.6</ele><time>2026-04-09T08:17:54.088Z</time></trkpt><trkpt lat="41.1717017" lon="14.6547517"><ele>379.2</ele><time>2026-04-09T08:17:55.088Z</time></trkpt><trkpt lat="41.1717767" lon="14.65482"><ele>381.8</ele><time>2026-04-09T08:17:56.088Z</time></trkpt><trkpt lat="41.171845" lon="14.654875"><ele>384.40000000000003</ele><time>2026-04-09T08:17:57.088Z</time></trkpt><trkpt lat="41.1719017" lon="14.654915"><ele>387.0</ele><time>2026-04-09T08:17:58.088Z</time></trkpt><trkpt lat="41.172015" lon="14.6549867"><ele>387.0</ele><time>2026-04-09T08:18:00.088Z</time></trkpt><trkpt lat="41.1720783" lon="14.65502"><ele>387.0</ele><time>2026-04-09T08:18:01.088Z</time></trkpt><trkpt lat="41.1721983" lon="14.6550267"><ele>387.0</ele><time>2026-04-09T08:18:03.088Z</time></trkpt><trkpt lat="41.1722617" lon="14.6549917"><ele>387.0</ele><time>2026-04-09T08:18:04.088Z</time></trkpt><trkpt lat="41.172315" lon="14.654935"><ele>387.0</ele><time>2026-04-09T08:18:05.088Z</time></trkpt><trkpt lat="41.1723617" lon="14.6548617"><ele>387.0</ele><time>2026-04-09T08:18:06.088Z</time></trkpt><trkpt lat="41.1724033" lon="14.6547633"><ele>390.20000000000005</ele><time>2026-04-09T08:18:07.088Z</time></trkpt><trkpt lat="41.1724533" lon="14.6546467"><ele>393.4</ele><time>2026-04-09T08:18:08.088Z</time></trkpt><trkpt lat="41.1724983" lon="14.6545117"><ele>396.6</ele><time>2026-04-09T08:18:09.088Z</time></trkpt><trkpt lat="41.1725383" lon="14.65437"><ele>399.79999999999995</ele><time>2026-04-09T08:18:10.088Z</time></trkpt><trkpt lat="41.1725833" lon="14.6542283"><ele>403.0</ele><time>2026-04-09T08:18:11.088Z</time></trkpt><trkpt lat="41.1726267" lon="14.65408"><ele>403.75</ele><time>2026-04-09T08:18:12.088Z</time></trkpt><trkpt lat="41.172685" lon="14.6539283"><ele>404.5</ele><time>2026-04-09T08:18:13.088Z</time></trkpt><trkpt lat="41.172735" lon="14.6537667"><ele>405.25</ele><time>2026-04-09T08:18:14.088Z</time></trkpt><trkpt lat="41.1727983" lon="14.6536067"><ele>406.0</ele><time>2026-04-09T08:18:15.088Z</time></trkpt><trkpt lat="41.1728533" lon="14.6534517"><ele>406.25</ele><time>2026-04-09T08:18:16.088Z</time></trkpt><trkpt lat="41.1729083" lon="14.653305"><ele>406.5</ele><time>2026-04-09T08:18:17.088Z</time></trkpt><trkpt lat="41.1729583" lon="14.6531567"><ele>406.75</ele><time>2026-04-09T08:18:18.088Z</time></trkpt><trkpt lat="41.17301" lon="14.6530083"><ele>407.0</ele><time>2026-04-09T08:18:19.088Z</time></trkpt><trkpt lat="41.173055" lon="14.652855"><ele>407.0</ele><time>2026-04-09T08:18:20.088Z</time></trkpt><trkpt lat="41.1731067" lon="14.65269"><ele>407.0</ele><time>2026-04-09T08:18:21.088Z</time></trkpt><trkpt lat="41.1731417" lon="14.6525133"><ele>407.0</ele><time>2026-04-09T08:18:22.088Z</time></trkpt><trkpt lat="41.17317" lon="14.6523417"><ele>407.0</ele><time>2026-04-09T08:18:23.088Z</time></trkpt><trkpt lat="41.1731883" lon="14.6521633"><ele>410.25</ele><time>2026-04-09T08:18:24.088Z</time></trkpt><trkpt lat="41.1732033" lon="14.651985"><ele>413.5</ele><time>2026-04-09T08:18:25.088Z</time></trkpt><trkpt lat="41.1732217" lon="14.6518217"><ele>416.75</ele><time>2026-04-09T08:18:26.088Z</time></trkpt><trkpt lat="41.1732417" lon="14.6516717"><ele>420.0</ele><time>2026-04-09T08:18:27.088Z</time></trkpt><trkpt lat="41.1732633" lon="14.6515283"><ele>420.0</ele><time>2026-04-09T08:18:28.088Z</time></trkpt><trkpt lat="41.1732933" lon="14.6514083"><ele>420.0</ele><time>2026-04-09T08:18:29.088Z</time></trkpt><trkpt lat="41.173345" lon="14.6513"><ele>420.0</ele><time>2026-04-09T08:18:30.088Z</time></trkpt><trkpt lat="41.173415" lon="14.651205"><ele>420.0</ele><time>2026-04-09T08:18:31.088Z</time></trkpt><trkpt lat="41.173505" lon="14.6511483"><ele>420.0</ele><time>2026-04-09T08:18:32.088Z</time></trkpt><trkpt lat="41.1736" lon="14.6511317"><ele>420.0</ele><time>2026-04-09T08:18:33.088Z</time></trkpt><trkpt lat="41.1736933" lon="14.65115"><ele>420.0</ele><time>2026-04-09T08:18:34.088Z</time></trkpt><trkpt lat="41.1737833" lon="14.6512067"><ele>420.0</ele><time>2026-04-09T08:18:35.088Z</time></trkpt><trkpt lat="41.17386" lon="14.6513033"><ele>420.0</ele><time>2026-04-09T08:18:36.088Z</time></trkpt><trkpt lat="41.1739167" lon="14.6514167"><ele>420.0</ele><time>2026-04-09T08:18:37.088Z</time></trkpt><trkpt lat="41.17396" lon="14.6515583"><ele>420.0</ele><time>2026-04-09T08:18:38.088Z</time></trkpt><trkpt lat="41.1739867" lon="14.6517217"><ele>420.0</ele><time>2026-04-09T08:18:39.088Z</time></trkpt><trkpt lat="41.1740067" lon="14.6519117"><ele>420.0</ele><time>2026-04-09T08:18:40.088Z</time></trkpt><trkpt lat="41.174025" lon="14.6521017"><ele>420.0</ele><time>2026-04-09T08:18:41.088Z</time></trkpt><trkpt lat="41.1740433" lon="14.65228"><ele>426.25</ele><time>2026-04-09T08:18:42.088Z</time></trkpt><trkpt lat="41.1740633" lon="14.652445"><ele>432.5</ele><time>2026-04-09T08:18:43.088Z</time></trkpt><trkpt lat="41.1740767" lon="14.65261"><ele>438.75</ele><time>2026-04-09T08:18:44.088Z</time></trkpt><trkpt lat="41.17409" lon="14.652775"><ele>445.0</ele><time>2026-04-09T08:18:45.088Z</time></trkpt><trkpt lat="41.1741033" lon="14.6529533"><ele>445.0</ele><time>2026-04-09T08:18:46.088Z</time></trkpt><trkpt lat="41.1741167" lon="14.6531483"><ele>445.0</ele><time>2026-04-09T08:18:47.088Z</time></trkpt><trkpt lat="41.17413" lon="14.6533367"><ele>445.0</ele><time>2026-04-09T08:18:48.088Z</time></trkpt><trkpt lat="41.17413" lon="14.65351"><ele>445.0</ele><time>2026-04-09T08:18:49.088Z</time></trkpt><trkpt lat="41.174125" lon="14.6536733"><ele>445.0</ele><time>2026-04-09T08:18:50.088Z</time></trkpt><trkpt lat="41.1741217" lon="14.6538367"><ele>445.0</ele><time>2026-04-09T08:18:51.088Z</time></trkpt><trkpt lat="41.1741333" lon="14.6539867"><ele>445.0</ele><time>2026-04-09T08:18:52.088Z</time></trkpt><trkpt lat="41.1741567" lon="14.6541317"><ele>445.0</ele><time>2026-04-09T08:18:53.088Z</time></trkpt><trkpt lat="41.174205" lon="14.6542533"><ele>445.0</ele><time>2026-04-09T08:18:54.088Z</time></trkpt><trkpt lat="41.1742717" lon="14.6543483"><ele>445.0</ele><time>2026-04-09T08:18:55.088Z</time></trkpt><trkpt lat="41.1743633" lon="14.6544117"><ele>445.0</ele><time>2026-04-09T08:18:56.088Z</time></trkpt><trkpt lat="41.1744583" lon="14.654425"><ele>445.0</ele><time>2026-04-09T08:18:57.088Z</time></trkpt><trkpt lat="41.17456" lon="14.6543933"><ele>445.0</ele><time>2026-04-09T08:18:58.088Z</time></trkpt><trkpt lat="41.174645" lon="14.6543283"><ele>445.0</ele><time>2026-04-09T08:18:59.088Z</time></trkpt><trkpt lat="41.1747183" lon="14.6542333"><ele>445.0</ele><time>2026-04-09T08:19:00.088Z</time></trkpt><trkpt lat="41.174765" lon="14.6541067"><ele>445.0</ele><time>2026-04-09T08:19:01.088Z</time></trkpt><trkpt lat="41.1747917" lon="14.65396"><ele>445.0</ele><time>2026-04-09T08:19:02.088Z</time></trkpt><trkpt lat="41.1748" lon="14.6537983"><ele>445.0</ele><time>2026-04-09T08:19:03.088Z</time></trkpt><trkpt lat="41.17481" lon="14.6536167"><ele>445.0</ele><time>2026-04-09T08:19:04.088Z</time></trkpt><trkpt lat="41.1748217" lon="14.6534133"><ele>445.0</ele><time>2026-04-09T08:19:05.088Z</time></trkpt><trkpt lat="41.174835" lon="14.6532"><ele>445.0</ele><time>2026-04-09T08:19:06.088Z</time></trkpt><trkpt lat="41.1748517" lon="14.652995"><ele>449.25</ele><time>2026-04-09T08:19:07.088Z</time></trkpt><trkpt lat="41.17487" lon="14.6528083"><ele>453.5</ele><time>2026-04-09T08:19:08.088Z</time></trkpt><trkpt lat="41.1748867" lon="14.6526383"><ele>457.75</ele><time>2026-04-09T08:19:09.088Z</time></trkpt><trkpt lat="41.1749083" lon="14.6524767"><ele>462.0</ele><time>2026-04-09T08:19:10.088Z</time></trkpt><trkpt lat="41.1749417" lon="14.6523233"><ele>461.5</ele><time>2026-04-09T08:19:11.088Z</time></trkpt><trkpt lat="41.1750067" lon="14.6521767"><ele>461.0</ele><time>2026-04-09T08:19:12.088Z</time></trkpt><trkpt lat="41.1750933" lon="14.652035"><ele>460.5</ele><time>2026-04-09T08:19:13.088Z</time></trkpt><trkpt lat="41.1751983" lon="14.6518967"><ele>460.0</ele><time>2026-04-09T08:19:14.088Z</time></trkpt><trkpt lat="41.1753033" lon="14.651755"><ele>460.0</ele><time>2026-04-09T08:19:15.088Z</time></trkpt><trkpt lat="41.17541" lon="14.65162"><ele>460.0</ele><time>2026-04-09T08:19:16.088Z</time></trkpt><trkpt lat="41.1755067" lon="14.6514817"><ele>460.0</ele><time>2026-04-09T08:19:17.088Z</time></trkpt><trkpt lat="41.1756017" lon="14.6513467"><ele>460.0</ele><time>2026-04-09T08:19:18.088Z</time></trkpt><trkpt lat="41.1756883" lon="14.6512017"><ele>465.6666666666667</ele><time>2026-04-09T08:19:19.088Z</time></trkpt><trkpt lat="41.1757717" lon="14.6510367"><ele>471.33333333333337</ele><time>2026-04-09T08:19:20.088Z</time></trkpt><trkpt lat="41.1758667" lon="14.650855"><ele>477.0</ele><time>2026-04-09T08:19:21.088Z</time></trkpt><trkpt lat="41.1759567" lon="14.6506733"><ele>477.0</ele><time>2026-04-09T08:19:22.088Z</time></trkpt><trkpt lat="41.1760433" lon="14.6504867"><ele>477.0</ele><time>2026-04-09T08:19:23.088Z</time></trkpt><trkpt lat="41.1761233" lon="14.6503067"><ele>477.0</ele><time>2026-04-09T08:19:24.088Z</time></trkpt><trkpt lat="41.176195" lon="14.6501333"><ele>475.25</ele><time>2026-04-09T08:19:25.088Z</time></trkpt><trkpt lat="41.17626" lon="14.649965"><ele>473.5</ele><time>2026-04-09T08:19:26.088Z</time></trkpt><trkpt lat="41.1763267" lon="14.649795"><ele>471.75</ele><time>2026-04-09T08:19:27.088Z</time></trkpt><trkpt lat="41.17639" lon="14.6496283"><ele>470.0</ele><time>2026-04-09T08:19:28.088Z</time></trkpt><trkpt lat="41.1764617" lon="14.6494583"><ele>474.25</ele><time>2026-04-09T08:19:29.088Z</time></trkpt><trkpt lat="41.1765217" lon="14.6493"><ele>478.5</ele><time>2026-04-09T08:19:30.088Z</time></trkpt><trkpt lat="41.17657" lon="14.6491417"><ele>482.75</ele><time>2026-04-09T08:19:31.088Z</time></trkpt><trkpt lat="41.1766067" lon="14.6489767"><ele>487.0</ele><time>2026-04-09T08:19:32.088Z</time></trkpt><trkpt lat="41.1766283" lon="14.6488117"><ele>487.0</ele><time>2026-04-09T08:19:33.088Z</time></trkpt><trkpt lat="41.1766333" lon="14.648645"><ele>487.0</ele><time>2026-04-09T08:19:34.088Z</time></trkpt><trkpt lat="41.17663" lon="14.6484783"><ele>487.0</ele><time>2026-04-09T08:19:35.088Z</time></trkpt><trkpt lat="41.176625" lon="14.648305"><ele>487.0</ele><time>2026-04-09T08:19:36.088Z</time></trkpt><trkpt lat="41.1766183" lon="14.6481417"><ele>487.40000000000003</ele><time>2026-04-09T08:19:37.088Z</time></trkpt><trkpt lat="41.1766067" lon="14.64799"><ele>487.80000000000007</ele><time>2026-04-09T08:19:38.088Z</time></trkpt><trkpt lat="41.1765967" lon="14.6478517"><ele>488.2</ele><time>2026-04-09T08:19:39.088Z</time></trkpt><trkpt lat="41.176585" lon="14.64771"><ele>488.6</ele><time>2026-04-09T08:19:40.088Z</time></trkpt><trkpt lat="41.1765767" lon="14.6475633"><ele>489.0</ele><time>2026-04-09T08:19:41.088Z</time></trkpt><trkpt lat="41.17657" lon="14.6474017"><ele>490.5</ele><time>2026-04-09T08:19:42.088Z</time></trkpt><trkpt lat="41.176565" lon="14.647245"><ele>492.0</ele><time>2026-04-09T08:19:43.088Z</time></trkpt><trkpt lat="41.1765567" lon="14.6470833"><ele>493.5</ele><time>2026-04-09T08:19:44.088Z</time></trkpt><trkpt lat="41.176545" lon="14.6469317"><ele>495.0</ele><time>2026-04-09T08:19:45.088Z</time></trkpt><trkpt lat="41.1765233" lon="14.64678"><ele>491.75</ele><time>2026-04-09T08:19:46.088Z</time></trkpt><trkpt lat="41.1765033" lon="14.6466217"><ele>488.5</ele><time>2026-04-09T08:19:47.088Z</time></trkpt><trkpt lat="41.1764817" lon="14.64646"><ele>485.25</ele><time>2026-04-09T08:19:48.088Z</time></trkpt><trkpt lat="41.176455" lon="14.64629"><ele>482.0</ele><time>2026-04-09T08:19:49.088Z</time></trkpt><trkpt lat="41.1764283" lon="14.64613"><ele>483.5</ele><time>2026-04-09T08:19:50.088Z</time></trkpt><trkpt lat="41.1763983" lon="14.6459683"><ele>485.0</ele><time>2026-04-09T08:19:51.088Z</time></trkpt><trkpt lat="41.1763683" lon="14.6457917"><ele>486.5</ele><time>2026-04-09T08:19:52.088Z</time></trkpt><trkpt lat="41.17634" lon="14.64561"><ele>488.0</ele><time>2026-04-09T08:19:53.088Z</time></trkpt><trkpt lat="41.1763117" lon="14.6454367"><ele>489.5</ele><time>2026-04-09T08:19:54.088Z</time></trkpt><trkpt lat="41.176285" lon="14.6452817"><ele>491.0</ele><time>2026-04-09T08:19:55.088Z</time></trkpt><trkpt lat="41.1762533" lon="14.6451317"><ele>492.5</ele><time>2026-04-09T08:19:56.088Z</time></trkpt><trkpt lat="41.1762283" lon="14.6449783"><ele>494.0</ele><time>2026-04-09T08:19:57.088Z</time></trkpt><trkpt lat="41.176205" lon="14.644825"><ele>494.0</ele><time>2026-04-09T08:19:58.088Z</time></trkpt><trkpt lat="41.176185" lon="14.6446583"><ele>494.0</ele><time>2026-04-09T08:19:59.088Z</time></trkpt><trkpt lat="41.1761633" lon="14.6445083"><ele>494.0</ele><time>2026-04-09T08:20:00.088Z</time></trkpt><trkpt lat="41.176145" lon="14.6443633"><ele>494.0</ele><time>2026-04-09T08:20:01.088Z</time></trkpt><trkpt lat="41.17612" lon="14.6442217"><ele>495.5</ele><time>2026-04-09T08:20:02.088Z</time></trkpt><trkpt lat="41.1760983" lon="14.644075"><ele>497.0</ele><time>2026-04-09T08:20:03.088Z</time></trkpt><trkpt lat="41.1760767" lon="14.6439267"><ele>498.5</ele><time>2026-04-09T08:20:04.088Z</time></trkpt><trkpt lat="41.1760567" lon="14.643775"><ele>500.0</ele><time>2026-04-09T08:20:05.088Z</time></trkpt><trkpt lat="41.1760383" lon="14.6436133"><ele>500.75</ele><time>2026-04-09T08:20:06.088Z</time></trkpt><trkpt lat="41.1760283" lon="14.6434383"><ele>501.5</ele><time>2026-04-09T08:20:07.088Z</time></trkpt><trkpt lat="41.17602" lon="14.64326"><ele>502.25</ele><time>2026-04-09T08:20:08.088Z</time></trkpt><trkpt lat="41.1760133" lon="14.643085"><ele>503.0</ele><time>2026-04-09T08:20:09.088Z</time></trkpt><trkpt lat="41.1760083" lon="14.6429117"><ele>504.0</ele><time>2026-04-09T08:20:10.088Z</time></trkpt><trkpt lat="41.1760033" lon="14.6427533"><ele>504.99999999999994</ele><time>2026-04-09T08:20:11.088Z</time></trkpt><trkpt lat="41.1760033" lon="14.6426183"><ele>505.99999999999994</ele><time>2026-04-09T08:20:12.088Z</time></trkpt><trkpt lat="41.1760017" lon="14.6424983"><ele>507.0</ele><time>2026-04-09T08:20:13.088Z</time></trkpt><trkpt lat="41.1759967" lon="14.642395"><ele>508.0</ele><time>2026-04-09T08:20:14.088Z</time></trkpt><trkpt lat="41.17599" lon="14.6422867"><ele>508.0</ele><time>2026-04-09T08:20:15.088Z</time></trkpt><trkpt lat="41.175985" lon="14.6421783"><ele>507.99999999999994</ele><time>2026-04-09T08:20:16.088Z</time></trkpt><trkpt lat="41.1759817" lon="14.642055"><ele>507.99999999999994</ele><time>2026-04-09T08:20:17.088Z</time></trkpt><trkpt lat="41.17598" lon="14.6419283"><ele>508.0</ele><time>2026-04-09T08:20:18.088Z</time></trkpt><trkpt lat="41.1759767" lon="14.6417933"><ele>508.0</ele><time>2026-04-09T08:20:19.088Z</time></trkpt><trkpt lat="41.17597" lon="14.64165"><ele>508.59999999999997</ele><time>2026-04-09T08:20:20.088Z</time></trkpt><trkpt lat="41.1759633" lon="14.6415133"><ele>509.19999999999993</ele><time>2026-04-09T08:20:21.088Z</time></trkpt><trkpt lat="41.1759533" lon="14.64139"><ele>509.8</ele><time>2026-04-09T08:20:22.088Z</time></trkpt><trkpt lat="41.1759583" lon="14.6412767"><ele>510.4</ele><time>2026-04-09T08:20:23.088Z</time></trkpt><trkpt lat="41.175955" lon="14.6411633"><ele>511.0</ele><time>2026-04-09T08:20:24.088Z</time></trkpt><trkpt lat="41.1759517" lon="14.641045"><ele>511.6666666666667</ele><time>2026-04-09T08:20:25.088Z</time></trkpt><trkpt lat="41.1759433" lon="14.640935"><ele>512.3333333333334</ele><time>2026-04-09T08:20:26.088Z</time></trkpt><trkpt lat="41.1759367" lon="14.640835"><ele>513.0</ele><time>2026-04-09T08:20:27.088Z</time></trkpt><trkpt lat="41.1759333" lon="14.640695"><ele>513.6666666666666</ele><time>2026-04-09T08:20:29.088Z</time></trkpt><trkpt lat="41.175935" lon="14.6406067"><ele>514.3333333333333</ele><time>2026-04-09T08:20:31.088Z</time></trkpt><trkpt lat="41.1759167" lon="14.6404917"><ele>515.0</ele><time>2026-04-09T08:20:34.088Z</time></trkpt><trkpt lat="41.175855" lon="14.6404383"><ele>515.0</ele><time>2026-04-09T08:20:36.088Z</time></trkpt><trkpt lat="41.1757633" lon="14.6404433"><ele>515.0</ele><time>2026-04-09T08:20:38.088Z</time></trkpt><trkpt lat="41.1756517" lon="14.6404933"><ele>515.0</ele><time>2026-04-09T08:20:40.088Z</time></trkpt><trkpt lat="41.1755317" lon="14.6404767"><ele>515.0</ele><time>2026-04-09T08:20:42.088Z</time></trkpt><trkpt lat="41.1754767" lon="14.6404183"><ele>515.0</ele><time>2026-04-09T08:20:43.088Z</time></trkpt><trkpt lat="41.1754283" lon="14.6403467"><ele>513.3333333333333</ele><time>2026-04-09T08:20:44.088Z</time></trkpt><trkpt lat="41.1753583" lon="14.640245"><ele>511.66666666666663</ele><time>2026-04-09T08:20:46.088Z</time></trkpt><trkpt lat="41.1752783" lon="14.6402083"><ele>510.0</ele><time>2026-04-09T08:20:49.088Z</time></trkpt><trkpt lat="41.1752067" lon="14.64021"><ele>508.33333333333337</ele><time>2026-04-09T08:20:53.088Z</time></trkpt><trkpt lat="41.1751417" lon="14.6402833"><ele>506.6666666666667</ele><time>2026-04-09T08:20:57.088Z</time></trkpt><trkpt lat="41.1751633" lon="14.640385"><ele>505.0</ele><time>2026-04-09T08:20:59.088Z</time></trkpt><trkpt lat="41.175215" lon="14.640495"><ele>504.2</ele><time>2026-04-09T08:21:01.088Z</time></trkpt><trkpt lat="41.1752733" lon="14.6406383"><ele>503.4</ele><time>2026-04-09T08:21:03.088Z</time></trkpt><trkpt lat="41.17534" lon="14.6407817"><ele>502.6</ele><time>2026-04-09T08:21:05.088Z</time></trkpt><trkpt lat="41.175385" lon="14.6408883"><ele>501.8</ele><time>2026-04-09T08:21:07.088Z</time></trkpt><trkpt lat="41.175415" lon="14.64097"><ele>501.0</ele><time>2026-04-09T08:21:09.088Z</time></trkpt><trkpt lat="41.1754433" lon="14.6410483"><ele>501.0</ele><time>2026-04-09T08:21:11.088Z</time></trkpt><trkpt lat="41.1754633" lon="14.64117"><ele>501.0</ele><time>2026-04-09T08:21:14.088Z</time></trkpt><trkpt lat="41.1754712" lon="14.6410029"><ele>501.0</ele><time>2026-04-09T08:24:40.121Z</time></trkpt><trkpt lat="41.1754448" lon="14.641092"><ele>501.0</ele><time>2026-04-09T08:25:03.148Z</time></trkpt><trkpt lat="41.1754666" lon="14.6411726"><ele>501.0</ele><time>2026-04-09T08:25:21.131Z</time></trkpt><trkpt lat="41.1755643" lon="14.6411529"><ele>501.0</ele><time>2026-04-09T08:27:33.103Z</time></trkpt><trkpt lat="41.175485" lon="14.6411469"><ele>501.0</ele><time>2026-04-09T08:27:53.12Z</time></trkpt><trkpt lat="41.1754017" lon="14.6411289"><ele>501.0</ele><time>2026-04-09T08:30:11.172Z</time></trkpt><trkpt lat="41.1754124" lon="14.6410449"><ele>501.0</ele><time>2026-04-09T08:30:29.156Z</time></trkpt><trkpt lat="41.1754682" lon="14.6410914"><ele>501.0</ele><time>2026-04-09T08:31:02.12Z</time></trkpt><trkpt lat="41.175527" lon="14.6410097"><ele>501.0</ele><time>2026-04-09T08:31:28.153Z</time></trkpt><trkpt lat="41.1755556" lon="14.6409323"><ele>501.0</ele><time>2026-04-09T08:31:31.12Z</time></trkpt><trkpt lat="41.1756368" lon="14.6407757"><ele>501.0</ele><time>2026-04-09T08:31:47.125Z</time></trkpt><trkpt lat="41.1756922" lon="14.6406746"><ele>501.0</ele><time>2026-04-09T08:31:48.12Z</time></trkpt><trkpt lat="41.1757186" lon="14.6405926"><ele>501.0</ele><time>2026-04-09T08:31:51.12Z</time></trkpt><trkpt lat="41.1756634" lon="14.6406433"><ele>501.0</ele><time>2026-04-09T08:32:06.12Z</time></trkpt><trkpt lat="41.1756322" lon="14.6407217"><ele>501.0</ele><time>2026-04-09T08:32:16.12Z</time></trkpt><trkpt lat="41.1755886" lon="14.6407858"><ele>501.0</ele><time>2026-04-09T08:32:28.139Z</time></trkpt><trkpt lat="41.175525" lon="14.6407879"><ele>501.0</ele><time>2026-04-09T08:33:14.12Z</time></trkpt><trkpt lat="41.1754671" lon="14.6408295"><ele>501.0</ele><time>2026-04-09T08:33:51.154Z</time></trkpt><trkpt lat="41.1754734" lon="14.6409168"><ele>501.0</ele><time>2026-04-09T08:33:58.12Z</time></trkpt><trkpt lat="41.1754666" lon="14.6410002"><ele>501.0</ele><time>2026-04-09T08:34:25.15Z</time></trkpt><trkpt lat="41.1754149" lon="14.641086"><ele>501.0</ele><time>2026-04-09T08:37:53.12Z</time></trkpt><trkpt lat="41.17536" lon="14.6410333"><ele>501.0</ele><time>2026-04-09T08:41:00.087Z</time></trkpt><trkpt lat="41.1753183" lon="14.64089"><ele>501.0</ele><time>2026-04-09T08:41:02.087Z</time></trkpt><trkpt lat="41.1752867" lon="14.6408"><ele>501.0</ele><time>2026-04-09T08:41:03.087Z</time></trkpt><trkpt lat="41.1752533" lon="14.6406983"><ele>501.0</ele><time>2026-04-09T08:41:04.087Z</time></trkpt><trkpt lat="41.1752183" lon="14.640605"><ele>501.0</ele><time>2026-04-09T08:41:05.087Z</time></trkpt><trkpt lat="41.1751967" lon="14.64052"><ele>501.0</ele><time>2026-04-09T08:41:06.087Z</time></trkpt><trkpt lat="41.1752033" lon="14.6403817"><ele>501.0</ele><time>2026-04-09T08:41:08.087Z</time></trkpt><trkpt lat="41.1752583" lon="14.64027"><ele>501.0</ele><time>2026-04-09T08:41:10.087Z</time></trkpt><trkpt lat="41.17535" lon="14.64028"><ele>501.0</ele><time>2026-04-09T08:41:12.087Z</time></trkpt><trkpt lat="41.175435" lon="14.6403733"><ele>501.0</ele><time>2026-04-09T08:41:14.087Z</time></trkpt><trkpt lat="41.1755183" lon="14.6404817"><ele>501.0</ele><time>2026-04-09T08:41:16.087Z</time></trkpt><trkpt lat="41.1756367" lon="14.64052"><ele>501.0</ele><time>2026-04-09T08:41:18.087Z</time></trkpt><trkpt lat="41.175705" lon="14.6405033"><ele>501.0</ele><time>2026-04-09T08:41:19.087Z</time></trkpt><trkpt lat="41.1757767" lon="14.6404617"><ele>503.8</ele><time>2026-04-09T08:41:20.087Z</time></trkpt><trkpt lat="41.175845" lon="14.6404083"><ele>506.6</ele><time>2026-04-09T08:41:21.087Z</time></trkpt><trkpt lat="41.17591" lon="14.6403267"><ele>509.4</ele><time>2026-04-09T08:41:22.087Z</time></trkpt><trkpt lat="41.1759767" lon="14.640225"><ele>512.2</ele><time>2026-04-09T08:41:23.087Z</time></trkpt><trkpt lat="41.1760433" lon="14.6401117"><ele>515.0</ele><time>2026-04-09T08:41:24.087Z</time></trkpt><trkpt lat="41.1761033" lon="14.6400117"><ele>516.6</ele><time>2026-04-09T08:41:25.087Z</time></trkpt><trkpt lat="41.1761683" lon="14.63991"><ele>518.2</ele><time>2026-04-09T08:41:26.087Z</time></trkpt><trkpt lat="41.1762417" lon="14.6398"><ele>519.8</ele><time>2026-04-09T08:41:27.087Z</time></trkpt><trkpt lat="41.176315" lon="14.6396783"><ele>521.4</ele><time>2026-04-09T08:41:28.087Z</time></trkpt><trkpt lat="41.1763883" lon="14.639565"><ele>523.0</ele><time>2026-04-09T08:41:29.087Z</time></trkpt><trkpt lat="41.1764633" lon="14.639445"><ele>527.0</ele><time>2026-04-09T08:41:30.087Z</time></trkpt><trkpt lat="41.1765333" lon="14.6393183"><ele>531.0</ele><time>2026-04-09T08:41:31.087Z</time></trkpt><trkpt lat="41.1765983" lon="14.639185"><ele>535.0</ele><time>2026-04-09T08:41:32.087Z</time></trkpt><trkpt lat="41.1766617" lon="14.6390533"><ele>539.0</ele><time>2026-04-09T08:41:33.087Z</time></trkpt><trkpt lat="41.1767267" lon="14.6389267"><ele>539.0</ele><time>2026-04-09T08:41:34.087Z</time></trkpt><trkpt lat="41.1767933" lon="14.6388083"><ele>539.0</ele><time>2026-04-09T08:41:35.087Z</time></trkpt><trkpt lat="41.17685" lon="14.638695"><ele>539.0</ele><time>2026-04-09T08:41:36.087Z</time></trkpt><trkpt lat="41.1768967" lon="14.6385867"><ele>539.0</ele><time>2026-04-09T08:41:37.087Z</time></trkpt><trkpt lat="41.176935" lon="14.638465"><ele>539.0</ele><time>2026-04-09T08:41:38.087Z</time></trkpt><trkpt lat="41.176965" lon="14.6383383"><ele>539.1666666666666</ele><time>2026-04-09T08:41:39.087Z</time></trkpt><trkpt lat="41.17699" lon="14.63821"><ele>539.3333333333333</ele><time>2026-04-09T08:41:40.087Z</time></trkpt><trkpt lat="41.1770133" lon="14.6380867"><ele>539.5</ele><time>2026-04-09T08:41:41.087Z</time></trkpt><trkpt lat="41.1770283" lon="14.637975"><ele>539.6666666666666</ele><time>2026-04-09T08:41:42.087Z</time></trkpt><trkpt lat="41.17704" lon="14.637875"><ele>539.8333333333334</ele><time>2026-04-09T08:41:43.087Z</time></trkpt><trkpt lat="41.1770617" lon="14.63779"><ele>540.0</ele><time>2026-04-09T08:41:44.087Z</time></trkpt><trkpt lat="41.1771517" lon="14.6377183"><ele>539.0</ele><time>2026-04-09T08:41:46.087Z</time></trkpt><trkpt lat="41.1772517" lon="14.63781"><ele>538.0</ele><time>2026-04-09T08:41:48.087Z</time></trkpt><trkpt lat="41.1772917" lon="14.6379083"><ele>537.0</ele><time>2026-04-09T08:41:49.087Z</time></trkpt><trkpt lat="41.177315" lon="14.6380267"><ele>536.0</ele><time>2026-04-09T08:41:50.087Z</time></trkpt><trkpt lat="41.177335" lon="14.6381617"><ele>535.0</ele><time>2026-04-09T08:41:51.087Z</time></trkpt><trkpt lat="41.1773583" lon="14.6382917"><ele>539.6</ele><time>2026-04-09T08:41:52.087Z</time></trkpt><trkpt lat="41.1773733" lon="14.6384367"><ele>544.2</ele><time>2026-04-09T08:41:53.087Z</time></trkpt><trkpt lat="41.17739" lon="14.6385833"><ele>548.8</ele><time>2026-04-09T08:41:54.087Z</time></trkpt><trkpt lat="41.1774067" lon="14.638715"><ele>553.4</ele><time>2026-04-09T08:41:55.087Z</time></trkpt><trkpt lat="41.1774367" lon="14.6388217"><ele>558.0</ele><time>2026-04-09T08:41:56.087Z</time></trkpt><trkpt lat="41.17745" lon="14.6389217"><ele>558.0</ele><time>2026-04-09T08:41:57.087Z</time></trkpt><trkpt lat="41.177485" lon="14.639"><ele>558.0</ele><time>2026-04-09T08:41:58.087Z</time></trkpt><trkpt lat="41.1775917" lon="14.63903"><ele>558.0</ele><time>2026-04-09T08:42:00.087Z</time></trkpt><trkpt lat="41.1776433" lon="14.6389817"><ele>558.0</ele><time>2026-04-09T08:42:01.087Z</time></trkpt><trkpt lat="41.1776767" lon="14.6388867"><ele>558.0</ele><time>2026-04-09T08:42:02.087Z</time></trkpt><trkpt lat="41.1776883" lon="14.6387767"><ele>558.0</ele><time>2026-04-09T08:42:03.087Z</time></trkpt><trkpt lat="41.1776883" lon="14.6386433"><ele>560.0</ele><time>2026-04-09T08:42:04.087Z</time></trkpt><trkpt lat="41.1776767" lon="14.6385"><ele>562.0</ele><time>2026-04-09T08:42:05.087Z</time></trkpt><trkpt lat="41.177665" lon="14.6383583"><ele>564.0</ele><time>2026-04-09T08:42:06.087Z</time></trkpt><trkpt lat="41.17765" lon="14.6382017"><ele>566.0</ele><time>2026-04-09T08:42:07.087Z</time></trkpt><trkpt lat="41.1776383" lon="14.6380367"><ele>566.0</ele><time>2026-04-09T08:42:08.087Z</time></trkpt><trkpt lat="41.1776317" lon="14.63786"><ele>566.0</ele><time>2026-04-09T08:42:09.087Z</time></trkpt><trkpt lat="41.1776267" lon="14.6376817"><ele>566.0</ele><time>2026-04-09T08:42:10.087Z</time></trkpt><trkpt lat="41.1776267" lon="14.6375017"><ele>566.0</ele><time>2026-04-09T08:42:11.087Z</time></trkpt><trkpt lat="41.17763" lon="14.637315"><ele>568.0</ele><time>2026-04-09T08:42:12.087Z</time></trkpt><trkpt lat="41.1776367" lon="14.637125"><ele>570.0</ele><time>2026-04-09T08:42:13.087Z</time></trkpt><trkpt lat="41.1776433" lon="14.6369383"><ele>572.0</ele><time>2026-04-09T08:42:14.087Z</time></trkpt><trkpt lat="41.177645" lon="14.63675"><ele>574.0</ele><time>2026-04-09T08:42:15.087Z</time></trkpt><trkpt lat="41.1776567" lon="14.6365617"><ele>576.0</ele><time>2026-04-09T08:42:16.087Z</time></trkpt><trkpt lat="41.1776733" lon="14.636365"><ele>578.0</ele><time>2026-04-09T08:42:17.087Z</time></trkpt><trkpt lat="41.177695" lon="14.6361767"><ele>580.0</ele><time>2026-04-09T08:42:18.087Z</time></trkpt><trkpt lat="41.17772" lon="14.63599"><ele>582.0</ele><time>2026-04-09T08:42:19.087Z</time></trkpt><trkpt lat="41.1777417" lon="14.6357983"><ele>583.5</ele><time>2026-04-09T08:42:20.087Z</time></trkpt><trkpt lat="41.1777617" lon="14.6356033"><ele>585.0</ele><time>2026-04-09T08:42:21.087Z</time></trkpt><trkpt lat="41.1777833" lon="14.6354117"><ele>586.5</ele><time>2026-04-09T08:42:22.087Z</time></trkpt><trkpt lat="41.1778033" lon="14.6352333"><ele>588.0</ele><time>2026-04-09T08:42:23.087Z</time></trkpt><trkpt lat="41.1778183" lon="14.63506"><ele>588.4</ele><time>2026-04-09T08:42:24.087Z</time></trkpt><trkpt lat="41.177835" lon="14.6348983"><ele>588.8</ele><time>2026-04-09T08:42:25.087Z</time></trkpt><trkpt lat="41.1778467" lon="14.6347517"><ele>589.2</ele><time>2026-04-09T08:42:26.087Z</time></trkpt><trkpt lat="41.1778533" lon="14.63463"><ele>589.6</ele><time>2026-04-09T08:42:27.087Z</time></trkpt><trkpt lat="41.177865" lon="14.63452"><ele>590.0</ele><time>2026-04-09T08:42:28.087Z</time></trkpt><trkpt lat="41.1778733" lon="14.6344167"><ele>590.0</ele><time>2026-04-09T08:42:29.087Z</time></trkpt><trkpt lat="41.1778867" lon="14.6343283"><ele>590.0</ele><time>2026-04-09T08:42:30.087Z</time></trkpt><trkpt lat="41.1779617" lon="14.63422"><ele>590.0</ele><time>2026-04-09T08:42:32.087Z</time></trkpt><trkpt lat="41.17805" lon="14.6342867"><ele>590.0</ele><time>2026-04-09T08:42:34.087Z</time></trkpt><trkpt lat="41.1780783" lon="14.63446"><ele>590.0</ele><time>2026-04-09T08:42:36.087Z</time></trkpt><trkpt lat="41.178065" lon="14.63459"><ele>590.0</ele><time>2026-04-09T08:42:37.087Z</time></trkpt><trkpt lat="41.1780483" lon="14.6347483"><ele>590.0</ele><time>2026-04-09T08:42:38.087Z</time></trkpt><trkpt lat="41.17804" lon="14.6349033"><ele>590.0</ele><time>2026-04-09T08:42:39.087Z</time></trkpt><trkpt lat="41.17803" lon="14.6350633"><ele>590.0</ele><time>2026-04-09T08:42:40.087Z</time></trkpt><trkpt lat="41.17803" lon="14.6352333"><ele>589.5</ele><time>2026-04-09T08:42:41.087Z</time></trkpt><trkpt lat="41.178025" lon="14.6354167"><ele>589.0</ele><time>2026-04-09T08:42:42.087Z</time></trkpt><trkpt lat="41.1780283" lon="14.6355983"><ele>588.5</ele><time>2026-04-09T08:42:43.087Z</time></trkpt><trkpt lat="41.1780367" lon="14.6357817"><ele>588.0</ele><time>2026-04-09T08:42:44.087Z</time></trkpt><trkpt lat="41.1780383" lon="14.6359717"><ele>586.5</ele><time>2026-04-09T08:42:45.087Z</time></trkpt><trkpt lat="41.17805" lon="14.6361633"><ele>585.0</ele><time>2026-04-09T08:42:46.087Z</time></trkpt><trkpt lat="41.1780667" lon="14.6363467"><ele>583.5</ele><time>2026-04-09T08:42:47.087Z</time></trkpt><trkpt lat="41.17808" lon="14.6365317"><ele>582.0</ele><time>2026-04-09T08:42:48.087Z</time></trkpt><trkpt lat="41.1781" lon="14.6367167"><ele>582.0</ele><time>2026-04-09T08:42:49.087Z</time></trkpt><trkpt lat="41.17813" lon="14.6369033"><ele>582.0</ele><time>2026-04-09T08:42:50.087Z</time></trkpt><trkpt lat="41.1781733" lon="14.6370883"><ele>582.0</ele><time>2026-04-09T08:42:51.087Z</time></trkpt><trkpt lat="41.1782233" lon="14.637265"><ele>582.0</ele><time>2026-04-09T08:42:52.087Z</time></trkpt><trkpt lat="41.1782767" lon="14.637435"><ele>586.75</ele><time>2026-04-09T08:42:53.087Z</time></trkpt><trkpt lat="41.1783467" lon="14.637595"><ele>591.5</ele><time>2026-04-09T08:42:54.087Z</time></trkpt><trkpt lat="41.178425" lon="14.6377533"><ele>596.25</ele><time>2026-04-09T08:42:55.087Z</time></trkpt><trkpt lat="41.1785017" lon="14.63789"><ele>601.0</ele><time>2026-04-09T08:42:56.087Z</time></trkpt><trkpt lat="41.1785733" lon="14.638005"><ele>601.0</ele><time>2026-04-09T08:42:57.087Z</time></trkpt><trkpt lat="41.1786417" lon="14.6381083"><ele>601.0</ele><time>2026-04-09T08:42:58.087Z</time></trkpt><trkpt lat="41.178705" lon="14.6381983"><ele>601.0</ele><time>2026-04-09T08:42:59.087Z</time></trkpt><trkpt lat="41.1787667" lon="14.638265"><ele>601.0</ele><time>2026-04-09T08:43:00.087Z</time></trkpt><trkpt lat="41.17883" lon="14.6383017"><ele>601.0</ele><time>2026-04-09T08:43:01.087Z</time></trkpt><trkpt lat="41.1789267" lon="14.63824"><ele>601.0</ele><time>2026-04-09T08:43:03.087Z</time></trkpt><trkpt lat="41.17892" lon="14.6380867"><ele>601.0</ele><time>2026-04-09T08:43:05.087Z</time></trkpt><trkpt lat="41.17887" lon="14.638015"><ele>601.0</ele><time>2026-04-09T08:43:06.087Z</time></trkpt><trkpt lat="41.1788033" lon="14.6379333"><ele>601.0</ele><time>2026-04-09T08:43:07.087Z</time></trkpt><trkpt lat="41.1787383" lon="14.6378267"><ele>601.0</ele><time>2026-04-09T08:43:08.087Z</time></trkpt><trkpt lat="41.1786933" lon="14.6376983"><ele>605.5</ele><time>2026-04-09T08:43:09.087Z</time></trkpt><trkpt lat="41.17866" lon="14.6375633"><ele>610.0</ele><time>2026-04-09T08:43:10.087Z</time></trkpt><trkpt lat="41.1786317" lon="14.637405"><ele>614.5</ele><time>2026-04-09T08:43:11.087Z</time></trkpt><trkpt lat="41.17861" lon="14.6372233"><ele>619.0</ele><time>2026-04-09T08:43:12.087Z</time></trkpt><trkpt lat="41.178595" lon="14.6370417"><ele>621.25</ele><time>2026-04-09T08:43:13.087Z</time></trkpt><trkpt lat="41.1785933" lon="14.6368767"><ele>623.5</ele><time>2026-04-09T08:43:14.087Z</time></trkpt><trkpt lat="41.178595" lon="14.636725"><ele>625.75</ele><time>2026-04-09T08:43:15.087Z</time></trkpt><trkpt lat="41.1785983" lon="14.6365783"><ele>628.0</ele><time>2026-04-09T08:43:16.087Z</time></trkpt><trkpt lat="41.1786067" lon="14.6364267"><ele>628.0</ele><time>2026-04-09T08:43:17.087Z</time></trkpt><trkpt lat="41.178615" lon="14.6362733"><ele>628.0</ele><time>2026-04-09T08:43:18.087Z</time></trkpt><trkpt lat="41.1786233" lon="14.63612"><ele>628.0</ele><time>2026-04-09T08:43:19.087Z</time></trkpt><trkpt lat="41.178635" lon="14.6359717"><ele>628.0</ele><time>2026-04-09T08:43:20.087Z</time></trkpt><trkpt lat="41.17865" lon="14.6358183"><ele>629.25</ele><time>2026-04-09T08:43:21.087Z</time></trkpt><trkpt lat="41.1786717" lon="14.6356517"><ele>630.5</ele><time>2026-04-09T08:43:22.086Z</time></trkpt><trkpt lat="41.1786967" lon="14.635475"><ele>631.75</ele><time>2026-04-09T08:43:23.087Z</time></trkpt><trkpt lat="41.17872" lon="14.6352967"><ele>633.0</ele><time>2026-04-09T08:43:24.087Z</time></trkpt><trkpt lat="41.178745" lon="14.635125"><ele>632.75</ele><time>2026-04-09T08:43:25.087Z</time></trkpt><trkpt lat="41.1787717" lon="14.63497"><ele>632.5</ele><time>2026-04-09T08:43:26.087Z</time></trkpt><trkpt lat="41.1788" lon="14.6347983"><ele>632.25</ele><time>2026-04-09T08:43:27.087Z</time></trkpt><trkpt lat="41.178835" lon="14.6346333"><ele>632.0</ele><time>2026-04-09T08:43:28.087Z</time></trkpt><trkpt lat="41.178865" lon="14.6344567"><ele>632.0</ele><time>2026-04-09T08:43:29.087Z</time></trkpt><trkpt lat="41.1788983" lon="14.6342767"><ele>632.0</ele><time>2026-04-09T08:43:30.087Z</time></trkpt><trkpt lat="41.1789333" lon="14.6340917"><ele>632.0</ele><time>2026-04-09T08:43:31.087Z</time></trkpt><trkpt lat="41.1789683" lon="14.6339133"><ele>632.0</ele><time>2026-04-09T08:43:32.087Z</time></trkpt><trkpt lat="41.1790033" lon="14.6337383"><ele>644.5</ele><time>2026-04-09T08:43:33.087Z</time></trkpt><trkpt lat="41.179045" lon="14.6335533"><ele>657.0</ele><time>2026-04-09T08:43:34.087Z</time></trkpt><trkpt lat="41.1790933" lon="14.6333667"><ele>669.5</ele><time>2026-04-09T08:43:35.087Z</time></trkpt><trkpt lat="41.1791383" lon="14.633175"><ele>682.0</ele><time>2026-04-09T08:43:36.087Z</time></trkpt><trkpt lat="41.1791867" lon="14.63299"><ele>682.0</ele><time>2026-04-09T08:43:37.087Z</time></trkpt><trkpt lat="41.1792383" lon="14.6328083"><ele>682.0</ele><time>2026-04-09T08:43:38.087Z</time></trkpt><trkpt lat="41.1792867" lon="14.63264"><ele>682.0</ele><time>2026-04-09T08:43:39.087Z</time></trkpt><trkpt lat="41.1793317" lon="14.6324967"><ele>682.0</ele><time>2026-04-09T08:43:40.087Z</time></trkpt><trkpt lat="41.1793633" lon="14.6323733"><ele>681.0</ele><time>2026-04-09T08:43:41.087Z</time></trkpt><trkpt lat="41.179395" lon="14.6322733"><ele>680.0</ele><time>2026-04-09T08:43:42.087Z</time></trkpt><trkpt lat="41.1794267" lon="14.6321967"><ele>679.0</ele><time>2026-04-09T08:43:43.087Z</time></trkpt><trkpt lat="41.1795083" lon="14.63213"><ele>678.0</ele><time>2026-04-09T08:43:45.087Z</time></trkpt><trkpt lat="41.1795683" lon="14.6322"><ele>677.0</ele><time>2026-04-09T08:43:47.087Z</time></trkpt><trkpt lat="41.179545" lon="14.6323533"><ele>676.0</ele><time>2026-04-09T08:43:49.087Z</time></trkpt><trkpt lat="41.179515" lon="14.63246"><ele>676.0</ele><time>2026-04-09T08:43:50.087Z</time></trkpt><trkpt lat="41.1794817" lon="14.6325933"><ele>676.0</ele><time>2026-04-09T08:43:51.087Z</time></trkpt><trkpt lat="41.1794583" lon="14.6327517"><ele>676.0</ele><time>2026-04-09T08:43:52.087Z</time></trkpt><trkpt lat="41.1794417" lon="14.63292"><ele>676.0</ele><time>2026-04-09T08:43:53.087Z</time></trkpt><trkpt lat="41.17943" lon="14.6331083"><ele>678.0</ele><time>2026-04-09T08:43:54.087Z</time></trkpt><trkpt lat="41.1794333" lon="14.6333233"><ele>680.0</ele><time>2026-04-09T08:43:55.087Z</time></trkpt><trkpt lat="41.1794433" lon="14.6335233"><ele>682.0</ele><time>2026-04-09T08:43:56.087Z</time></trkpt><trkpt lat="41.179455" lon="14.6337267"><ele>683.0</ele><time>2026-04-09T08:43:57.087Z</time></trkpt><trkpt lat="41.1794633" lon="14.6339233"><ele>684.0</ele><time>2026-04-09T08:43:58.087Z</time></trkpt><trkpt lat="41.17947" lon="14.6341183"><ele>685.0</ele><time>2026-04-09T08:43:59.087Z</time></trkpt><trkpt lat="41.179475" lon="14.6343183"><ele>686.0</ele><time>2026-04-09T08:44:00.087Z</time></trkpt><trkpt lat="41.1794867" lon="14.6345217"><ele>687.0</ele><time>2026-04-09T08:44:01.087Z</time></trkpt><trkpt lat="41.1794967" lon="14.63473"><ele>688.0</ele><time>2026-04-09T08:44:02.087Z</time></trkpt><trkpt lat="41.1795067" lon="14.6349283"><ele>689.0</ele><time>2026-04-09T08:44:03.087Z</time></trkpt><trkpt lat="41.1795183" lon="14.6351067"><ele>690.0</ele><time>2026-04-09T08:44:04.087Z</time></trkpt><trkpt lat="41.17953" lon="14.6352767"><ele>689.25</ele><time>2026-04-09T08:44:05.087Z</time></trkpt><trkpt lat="41.1795383" lon="14.6354417"><ele>688.5</ele><time>2026-04-09T08:44:06.087Z</time></trkpt><trkpt lat="41.1795517" lon="14.6356017"><ele>687.75</ele><time>2026-04-09T08:44:07.087Z</time></trkpt><trkpt lat="41.1795733" lon="14.6357533"><ele>687.0</ele><time>2026-04-09T08:44:08.087Z</time></trkpt><trkpt lat="41.1796067" lon="14.6358983"><ele>687.0</ele><time>2026-04-09T08:44:09.087Z</time></trkpt><trkpt lat="41.1796517" lon="14.6360317"><ele>687.0</ele><time>2026-04-09T08:44:10.087Z</time></trkpt><trkpt lat="41.1796983" lon="14.636135"><ele>687.0</ele><time>2026-04-09T08:44:11.087Z</time></trkpt><trkpt lat="41.179745" lon="14.63621"><ele>687.0</ele><time>2026-04-09T08:44:12.087Z</time></trkpt><trkpt lat="41.1797967" lon="14.6362667"><ele>687.0</ele><time>2026-04-09T08:44:13.087Z</time></trkpt><trkpt lat="41.17991" lon="14.6362617"><ele>687.0</ele><time>2026-04-09T08:44:15.087Z</time></trkpt><trkpt lat="41.17993" lon="14.63612"><ele>687.0</ele><time>2026-04-09T08:44:17.087Z</time></trkpt><trkpt lat="41.1798917" lon="14.6360217"><ele>687.0</ele><time>2026-04-09T08:44:18.087Z</time></trkpt><trkpt lat="41.1798467" lon="14.6359083"><ele>687.0</ele><time>2026-04-09T08:44:19.087Z</time></trkpt><trkpt lat="41.1798083" lon="14.6357733"><ele>687.0</ele><time>2026-04-09T08:44:20.087Z</time></trkpt><trkpt lat="41.1797967" lon="14.6356167"><ele>687.0</ele><time>2026-04-09T08:44:21.087Z</time></trkpt><trkpt lat="41.1797917" lon="14.6354567"><ele>687.0</ele><time>2026-04-09T08:44:22.087Z</time></trkpt><trkpt lat="41.1798017" lon="14.6352817"><ele>687.0</ele><time>2026-04-09T08:44:23.087Z</time></trkpt><trkpt lat="41.1798317" lon="14.6350933"><ele>687.0</ele><time>2026-04-09T08:44:24.087Z</time></trkpt><trkpt lat="41.1798567" lon="14.634915"><ele>698.25</ele><time>2026-04-09T08:44:25.087Z</time></trkpt><trkpt lat="41.1798833" lon="14.63474"><ele>709.5</ele><time>2026-04-09T08:44:26.087Z</time></trkpt><trkpt lat="41.179915" lon="14.6345683"><ele>720.75</ele><time>2026-04-09T08:44:27.087Z</time></trkpt><trkpt lat="41.1799483" lon="14.634395"><ele>732.0</ele><time>2026-04-09T08:44:28.087Z</time></trkpt><trkpt lat="41.17998" lon="14.6342283"><ele>732.5</ele><time>2026-04-09T08:44:29.087Z</time></trkpt><trkpt lat="41.1800133" lon="14.63406"><ele>733.0</ele><time>2026-04-09T08:44:30.087Z</time></trkpt><trkpt lat="41.1800467" lon="14.63389"><ele>733.5</ele><time>2026-04-09T08:44:31.087Z</time></trkpt><trkpt lat="41.1800817" lon="14.6337183"><ele>734.0</ele><time>2026-04-09T08:44:32.087Z</time></trkpt><trkpt lat="41.1801133" lon="14.6335383"><ele>734.0</ele><time>2026-04-09T08:44:33.087Z</time></trkpt><trkpt lat="41.1801533" lon="14.6333683"><ele>734.0</ele><time>2026-04-09T08:44:34.087Z</time></trkpt><trkpt lat="41.1801983" lon="14.633195"><ele>734.0</ele><time>2026-04-09T08:44:35.087Z</time></trkpt><trkpt lat="41.1802417" lon="14.63302"><ele>734.0</ele><time>2026-04-09T08:44:36.087Z</time></trkpt><trkpt lat="41.18029" lon="14.6328433"><ele>732.0</ele><time>2026-04-09T08:44:37.087Z</time></trkpt><trkpt lat="41.1803417" lon="14.632665"><ele>730.0</ele><time>2026-04-09T08:44:38.087Z</time></trkpt><trkpt lat="41.1804" lon="14.6324933"><ele>728.0</ele><time>2026-04-09T08:44:39.087Z</time></trkpt><trkpt lat="41.1804467" lon="14.6323333"><ele>726.0</ele><time>2026-04-09T08:44:40.087Z</time></trkpt><trkpt lat="41.1804967" lon="14.63217"><ele>726.0</ele><time>2026-04-09T08:44:41.087Z</time></trkpt><trkpt lat="41.1805467" lon="14.6320133"><ele>726.0</ele><time>2026-04-09T08:44:42.087Z</time></trkpt><trkpt lat="41.1805983" lon="14.631855"><ele>726.0</ele><time>2026-04-09T08:44:43.087Z</time></trkpt><trkpt lat="41.1806533" lon="14.6316883"><ele>726.0</ele><time>2026-04-09T08:44:44.087Z</time></trkpt><trkpt lat="41.1807167" lon="14.6315067"><ele>736.3333333333334</ele><time>2026-04-09T08:44:45.087Z</time></trkpt><trkpt lat="41.180785" lon="14.6313217"><ele>746.6666666666667</ele><time>2026-04-09T08:44:46.087Z</time></trkpt><trkpt lat="41.1808567" lon="14.6311217"><ele>757.0</ele><time>2026-04-09T08:44:47.087Z</time></trkpt><trkpt lat="41.1809267" lon="14.6309217"><ele>757.0</ele><time>2026-04-09T08:44:48.087Z</time></trkpt><trkpt lat="41.18099" lon="14.6307183"><ele>757.0</ele><time>2026-04-09T08:44:49.087Z</time></trkpt><trkpt lat="41.1810483" lon="14.630525"><ele>757.0</ele><time>2026-04-09T08:44:50.087Z</time></trkpt><trkpt lat="41.1811067" lon="14.6303283"><ele>756.5</ele><time>2026-04-09T08:44:51.087Z</time></trkpt><trkpt lat="41.1811567" lon="14.6301417"><ele>756.0</ele><time>2026-04-09T08:44:52.087Z</time></trkpt><trkpt lat="41.1812117" lon="14.6299533"><ele>755.5</ele><time>2026-04-09T08:44:53.087Z</time></trkpt><trkpt lat="41.1812667" lon="14.6297717"><ele>755.0</ele><time>2026-04-09T08:44:54.087Z</time></trkpt><trkpt lat="41.1813267" lon="14.629595"><ele>755.5</ele><time>2026-04-09T08:44:55.087Z</time></trkpt><trkpt lat="41.181395" lon="14.6294183"><ele>756.0</ele><time>2026-04-09T08:44:56.087Z</time></trkpt><trkpt lat="41.1814667" lon="14.6292417"><ele>756.5</ele><time>2026-04-09T08:44:57.087Z</time></trkpt><trkpt lat="41.1815267" lon="14.6290717"><ele>757.0</ele><time>2026-04-09T08:44:58.087Z</time></trkpt><trkpt lat="41.1815817" lon="14.6289167"><ele>763.0</ele><time>2026-04-09T08:44:59.087Z</time></trkpt><trkpt lat="41.1816383" lon="14.62877"><ele>769.0</ele><time>2026-04-09T08:45:00.087Z</time></trkpt><trkpt lat="41.1816967" lon="14.6286267"><ele>775.0</ele><time>2026-04-09T08:45:01.087Z</time></trkpt><trkpt lat="41.1817533" lon="14.6284783"><ele>781.0</ele><time>2026-04-09T08:45:02.087Z</time></trkpt><trkpt lat="41.1818117" lon="14.6283233"><ele>781.0</ele><time>2026-04-09T08:45:03.087Z</time></trkpt><trkpt lat="41.181865" lon="14.6281717"><ele>781.0</ele><time>2026-04-09T08:45:04.087Z</time></trkpt><trkpt lat="41.1819083" lon="14.628025"><ele>781.0</ele><time>2026-04-09T08:45:05.087Z</time></trkpt><trkpt lat="41.1819383" lon="14.6278867"><ele>781.0</ele><time>2026-04-09T08:45:06.087Z</time></trkpt><trkpt lat="41.1819483" lon="14.6277383"><ele>781.75</ele><time>2026-04-09T08:45:07.087Z</time></trkpt><trkpt lat="41.1819467" lon="14.6275767"><ele>782.5</ele><time>2026-04-09T08:45:08.087Z</time></trkpt><trkpt lat="41.1819417" lon="14.6274133"><ele>783.25</ele><time>2026-04-09T08:45:09.087Z</time></trkpt><trkpt lat="41.18194" lon="14.6272633"><ele>784.0</ele><time>2026-04-09T08:45:10.087Z</time></trkpt><trkpt lat="41.18194" lon="14.6271217"><ele>784.0</ele><time>2026-04-09T08:45:11.087Z</time></trkpt><trkpt lat="41.18195" lon="14.62699"><ele>784.0</ele><time>2026-04-09T08:45:12.087Z</time></trkpt><trkpt lat="41.1819767" lon="14.6268483"><ele>784.0</ele><time>2026-04-09T08:45:13.087Z</time></trkpt><trkpt lat="41.1820167" lon="14.6266917"><ele>784.0</ele><time>2026-04-09T08:45:14.087Z</time></trkpt><trkpt lat="41.18207" lon="14.6265267"><ele>786.25</ele><time>2026-04-09T08:45:15.087Z</time></trkpt><trkpt lat="41.1821267" lon="14.62635"><ele>788.5</ele><time>2026-04-09T08:45:16.087Z</time></trkpt><trkpt lat="41.1821833" lon="14.6261733"><ele>790.75</ele><time>2026-04-09T08:45:17.087Z</time></trkpt><trkpt lat="41.1822467" lon="14.6259833"><ele>793.0</ele><time>2026-04-09T08:45:18.087Z</time></trkpt><trkpt lat="41.18231" lon="14.6257883"><ele>793.3333333333333</ele><time>2026-04-09T08:45:19.087Z</time></trkpt><trkpt lat="41.18237" lon="14.625585"><ele>793.6666666666667</ele><time>2026-04-09T08:45:20.087Z</time></trkpt><trkpt lat="41.1824267" lon="14.62537"><ele>794.0</ele><time>2026-04-09T08:45:21.087Z</time></trkpt><trkpt lat="41.182475" lon="14.6251633"><ele>795.6666666666667</ele><time>2026-04-09T08:45:22.087Z</time></trkpt><trkpt lat="41.1825067" lon="14.6249467"><ele>797.3333333333333</ele><time>2026-04-09T08:45:23.087Z</time></trkpt><trkpt lat="41.1825367" lon="14.6247317"><ele>799.0</ele><time>2026-04-09T08:45:24.087Z</time></trkpt><trkpt lat="41.1825633" lon="14.6245"><ele>800.6666666666666</ele><time>2026-04-09T08:45:25.087Z</time></trkpt><trkpt lat="41.1825883" lon="14.6242683"><ele>802.3333333333333</ele><time>2026-04-09T08:45:26.087Z</time></trkpt><trkpt lat="41.1826133" lon="14.6240333"><ele>804.0</ele><time>2026-04-09T08:45:27.087Z</time></trkpt><trkpt lat="41.1826317" lon="14.62379"><ele>805.6666666666667</ele><time>2026-04-09T08:45:28.087Z</time></trkpt><trkpt lat="41.1826517" lon="14.6235567"><ele>807.3333333333334</ele><time>2026-04-09T08:45:29.087Z</time></trkpt><trkpt lat="41.1826733" lon="14.623325"><ele>809.0</ele><time>2026-04-09T08:45:30.087Z</time></trkpt><trkpt lat="41.1826933" lon="14.6230983"><ele>809.0</ele><time>2026-04-09T08:45:31.087Z</time></trkpt><trkpt lat="41.182715" lon="14.6228533"><ele>809.0</ele><time>2026-04-09T08:45:32.087Z</time></trkpt><trkpt lat="41.1827367" lon="14.6226283"><ele>809.0</ele><time>2026-04-09T08:45:33.087Z</time></trkpt><trkpt lat="41.1827633" lon="14.6223967"><ele>811.0</ele><time>2026-04-09T08:45:34.088Z</time></trkpt><trkpt lat="41.1827783" lon="14.6221683"><ele>813.0</ele><time>2026-04-09T08:45:35.087Z</time></trkpt><trkpt lat="41.182805" lon="14.6219583"><ele>815.0</ele><time>2026-04-09T08:45:36.087Z</time></trkpt><trkpt lat="41.1828217" lon="14.62173"><ele>815.6666666666667</ele><time>2026-04-09T08:45:37.087Z</time></trkpt><trkpt lat="41.1828383" lon="14.6215017"><ele>816.3333333333333</ele><time>2026-04-09T08:45:38.087Z</time></trkpt><trkpt lat="41.182845" lon="14.62128"><ele>817.0</ele><time>2026-04-09T08:45:39.087Z</time></trkpt><trkpt lat="41.1828583" lon="14.6210583"><ele>817.0</ele><time>2026-04-09T08:45:40.087Z</time></trkpt><trkpt lat="41.1828767" lon="14.6208383"><ele>817.0</ele><time>2026-04-09T08:45:41.087Z</time></trkpt><trkpt lat="41.18289" lon="14.6206233"><ele>817.0</ele><time>2026-04-09T08:45:42.087Z</time></trkpt><trkpt lat="41.1829017" lon="14.62042"><ele>817.25</ele><time>2026-04-09T08:45:43.087Z</time></trkpt><trkpt lat="41.1829083" lon="14.6202233"><ele>817.5</ele><time>2026-04-09T08:45:44.087Z</time></trkpt><trkpt lat="41.1829167" lon="14.6200383"><ele>817.75</ele><time>2026-04-09T08:45:45.087Z</time></trkpt><trkpt lat="41.18293" lon="14.619865"><ele>818.0</ele><time>2026-04-09T08:45:46.087Z</time></trkpt><trkpt lat="41.1829433" lon="14.6197067"><ele>818.0</ele><time>2026-04-09T08:45:47.087Z</time></trkpt><trkpt lat="41.1829467" lon="14.6195483"><ele>818.0</ele><time>2026-04-09T08:45:48.087Z</time></trkpt><trkpt lat="41.1829333" lon="14.6193983"><ele>818.0</ele><time>2026-04-09T08:45:49.087Z</time></trkpt><trkpt lat="41.1829133" lon="14.6192533"><ele>818.0</ele><time>2026-04-09T08:45:50.087Z</time></trkpt><trkpt lat="41.182895" lon="14.6191067"><ele>817.75</ele><time>2026-04-09T08:45:51.087Z</time></trkpt><trkpt lat="41.1828717" lon="14.6189583"><ele>817.5</ele><time>2026-04-09T08:45:52.087Z</time></trkpt><trkpt lat="41.1828517" lon="14.618805"><ele>817.25</ele><time>2026-04-09T08:45:53.087Z</time></trkpt><trkpt lat="41.1828217" lon="14.6186483"><ele>817.0</ele><time>2026-04-09T08:45:54.087Z</time></trkpt><trkpt lat="41.1827733" lon="14.618505"><ele>817.0</ele><time>2026-04-09T08:45:55.087Z</time></trkpt><trkpt lat="41.1827133" lon="14.6183717"><ele>817.0</ele><time>2026-04-09T08:45:56.087Z</time></trkpt><trkpt lat="41.1826433" lon="14.6182517"><ele>817.0</ele><time>2026-04-09T08:45:57.087Z</time></trkpt><trkpt lat="41.1825717" lon="14.6181333"><ele>817.0</ele><time>2026-04-09T08:45:58.087Z</time></trkpt><trkpt lat="41.1825017" lon="14.6180183"><ele>817.0</ele><time>2026-04-09T08:45:59.087Z</time></trkpt><trkpt lat="41.1824517" lon="14.6178867"><ele>817.0</ele><time>2026-04-09T08:46:00.087Z</time></trkpt><trkpt lat="41.1824267" lon="14.61776"><ele>817.0</ele><time>2026-04-09T08:46:01.087Z</time></trkpt><trkpt lat="41.182415" lon="14.6176183"><ele>817.0</ele><time>2026-04-09T08:46:02.087Z</time></trkpt><trkpt lat="41.1824283" lon="14.6174567"><ele>817.0</ele><time>2026-04-09T08:46:03.087Z</time></trkpt><trkpt lat="41.1824567" lon="14.6172967"><ele>818.2</ele><time>2026-04-09T08:46:04.087Z</time></trkpt><trkpt lat="41.18248" lon="14.6171467"><ele>819.4000000000001</ele><time>2026-04-09T08:46:05.087Z</time></trkpt><trkpt lat="41.182505" lon="14.6170183"><ele>820.5999999999999</ele><time>2026-04-09T08:46:06.087Z</time></trkpt><trkpt lat="41.18254" lon="14.6169067"><ele>821.8</ele><time>2026-04-09T08:46:07.087Z</time></trkpt><trkpt lat="41.1825833" lon="14.6168067"><ele>823.0</ele><time>2026-04-09T08:46:08.087Z</time></trkpt><trkpt lat="41.1826367" lon="14.6167317"><ele>825.8</ele><time>2026-04-09T08:46:09.087Z</time></trkpt><trkpt lat="41.1826967" lon="14.6166883"><ele>828.5999999999999</ele><time>2026-04-09T08:46:10.087Z</time></trkpt><trkpt lat="41.18277" lon="14.6166767"><ele>831.4000000000001</ele><time>2026-04-09T08:46:11.087Z</time></trkpt><trkpt lat="41.1828733" lon="14.61674"><ele>834.2</ele><time>2026-04-09T08:46:12.087Z</time></trkpt><trkpt lat="41.1829817" lon="14.61679"><ele>837.0</ele><time>2026-04-09T08:46:13.087Z</time></trkpt><trkpt lat="41.1830833" lon="14.6168"><ele>837.0</ele><time>2026-04-09T08:46:14.087Z</time></trkpt><trkpt lat="41.183165" lon="14.6167567"><ele>837.0</ele><time>2026-04-09T08:46:15.087Z</time></trkpt><trkpt lat="41.1832333" lon="14.6166633"><ele>837.0</ele><time>2026-04-09T08:46:16.087Z</time></trkpt><trkpt lat="41.1832933" lon="14.6165417"><ele>837.0</ele><time>2026-04-09T08:46:17.087Z</time></trkpt><trkpt lat="41.1833517" lon="14.6164033"><ele>837.0</ele><time>2026-04-09T08:46:18.087Z</time></trkpt><trkpt lat="41.183405" lon="14.61627"><ele>836.2</ele><time>2026-04-09T08:46:19.087Z</time></trkpt><trkpt lat="41.1834433" lon="14.61614"><ele>835.4000000000001</ele><time>2026-04-09T08:46:20.087Z</time></trkpt><trkpt lat="41.1834667" lon="14.616015"><ele>834.5999999999999</ele><time>2026-04-09T08:46:21.087Z</time></trkpt><trkpt lat="41.18347" lon="14.61589"><ele>833.8</ele><time>2026-04-09T08:46:22.087Z</time></trkpt><trkpt lat="41.1834533" lon="14.615755"><ele>833.0</ele><time>2026-04-09T08:46:23.087Z</time></trkpt><trkpt lat="41.183415" lon="14.6156367"><ele>833.0</ele><time>2026-04-09T08:46:24.087Z</time></trkpt><trkpt lat="41.1833583" lon="14.615535"><ele>833.0</ele><time>2026-04-09T08:46:25.087Z</time></trkpt><trkpt lat="41.1832817" lon="14.6154483"><ele>833.0</ele><time>2026-04-09T08:46:26.087Z</time></trkpt><trkpt lat="41.1831933" lon="14.6153833"><ele>833.0</ele><time>2026-04-09T08:46:27.087Z</time></trkpt><trkpt lat="41.1830917" lon="14.6153483"><ele>833.0</ele><time>2026-04-09T08:46:28.087Z</time></trkpt><trkpt lat="41.1829817" lon="14.6153467"><ele>836.4</ele><time>2026-04-09T08:46:29.087Z</time></trkpt><trkpt lat="41.1828683" lon="14.6153767"><ele>839.8</ele><time>2026-04-09T08:46:30.087Z</time></trkpt><trkpt lat="41.182775" lon="14.6154283"><ele>843.2</ele><time>2026-04-09T08:46:31.087Z</time></trkpt><trkpt lat="41.1826917" lon="14.6154717"><ele>846.6</ele><time>2026-04-09T08:46:32.087Z</time></trkpt><trkpt lat="41.182605" lon="14.6154933"><ele>850.0</ele><time>2026-04-09T08:46:33.087Z</time></trkpt><trkpt lat="41.1825167" lon="14.61549"><ele>850.0</ele><time>2026-04-09T08:46:34.087Z</time></trkpt><trkpt lat="41.18243" lon="14.61546"><ele>850.0</ele><time>2026-04-09T08:46:35.087Z</time></trkpt><trkpt lat="41.1823533" lon="14.615385"><ele>850.0</ele><time>2026-04-09T08:46:36.087Z</time></trkpt><trkpt lat="41.1822783" lon="14.6152933"><ele>850.0</ele><time>2026-04-09T08:46:37.087Z</time></trkpt><trkpt lat="41.182205" lon="14.615205"><ele>850.0</ele><time>2026-04-09T08:46:38.087Z</time></trkpt><trkpt lat="41.18214" lon="14.6151267"><ele>855.1666666666666</ele><time>2026-04-09T08:46:39.087Z</time></trkpt><trkpt lat="41.1820717" lon="14.6150517"><ele>860.3333333333333</ele><time>2026-04-09T08:46:40.087Z</time></trkpt><trkpt lat="41.182005" lon="14.614975"><ele>865.5</ele><time>2026-04-09T08:46:41.087Z</time></trkpt><trkpt lat="41.1819483" lon="14.6149033"><ele>870.6666666666667</ele><time>2026-04-09T08:46:42.087Z</time></trkpt><trkpt lat="41.1819067" lon="14.6148317"><ele>875.8333333333334</ele><time>2026-04-09T08:46:43.087Z</time></trkpt><trkpt lat="41.1818783" lon="14.6147533"><ele>881.0</ele><time>2026-04-09T08:46:44.087Z</time></trkpt><trkpt lat="41.18188" lon="14.6146483"><ele>881.0</ele><time>2026-04-09T08:46:45.087Z</time></trkpt><trkpt lat="41.1819" lon="14.61454"><ele>880.9999999999999</ele><time>2026-04-09T08:46:46.087Z</time></trkpt><trkpt lat="41.1819283" lon="14.61442"><ele>880.9999999999999</ele><time>2026-04-09T08:46:47.087Z</time></trkpt><trkpt lat="41.1819733" lon="14.6142767"><ele>881.0</ele><time>2026-04-09T08:46:48.087Z</time></trkpt><trkpt lat="41.1820117" lon="14.6141283"><ele>881.0</ele><time>2026-04-09T08:46:49.087Z</time></trkpt><trkpt lat="41.18205" lon="14.61398"><ele>882.5999999999999</ele><time>2026-04-09T08:46:50.087Z</time></trkpt><trkpt lat="41.182075" lon="14.6138267"><ele>884.1999999999999</ele><time>2026-04-09T08:46:51.087Z</time></trkpt><trkpt lat="41.1820833" lon="14.61368"><ele>885.8000000000001</ele><time>2026-04-09T08:46:52.087Z</time></trkpt><trkpt lat="41.1820783" lon="14.613545"><ele>887.4000000000001</ele><time>2026-04-09T08:46:53.087Z</time></trkpt><trkpt lat="41.18206" lon="14.6134017"><ele>889.0</ele><time>2026-04-09T08:46:54.087Z</time></trkpt><trkpt lat="41.1820217" lon="14.6132717"><ele>889.4000000000001</ele><time>2026-04-09T08:46:55.087Z</time></trkpt><trkpt lat="41.1819667" lon="14.6131483"><ele>889.8000000000001</ele><time>2026-04-09T08:46:56.087Z</time></trkpt><trkpt lat="41.181905" lon="14.6130333"><ele>890.1999999999999</ele><time>2026-04-09T08:46:57.087Z</time></trkpt><trkpt lat="41.1818417" lon="14.612935"><ele>890.5999999999999</ele><time>2026-04-09T08:46:58.087Z</time></trkpt><trkpt lat="41.181805" lon="14.6128533"><ele>891.0</ele><time>2026-04-09T08:46:59.087Z</time></trkpt><trkpt lat="41.1817867" lon="14.61275"><ele>891.8</ele><time>2026-04-09T08:47:00.087Z</time></trkpt><trkpt lat="41.1817917" lon="14.6126433"><ele>892.5999999999999</ele><time>2026-04-09T08:47:01.087Z</time></trkpt><trkpt lat="41.1818217" lon="14.6125267"><ele>893.4</ele><time>2026-04-09T08:47:02.087Z</time></trkpt><trkpt lat="41.1818683" lon="14.61243"><ele>894.2</ele><time>2026-04-09T08:47:03.087Z</time></trkpt><trkpt lat="41.18193" lon="14.6123267"><ele>895.0</ele><time>2026-04-09T08:47:04.087Z</time></trkpt><trkpt lat="41.1820017" lon="14.61223"><ele>895.0</ele><time>2026-04-09T08:47:05.087Z</time></trkpt><trkpt lat="41.182065" lon="14.6121283"><ele>895.0</ele><time>2026-04-09T08:47:06.087Z</time></trkpt><trkpt lat="41.1821117" lon="14.61201"><ele>895.0</ele><time>2026-04-09T08:47:07.087Z</time></trkpt><trkpt lat="41.1821433" lon="14.611895"><ele>895.0</ele><time>2026-04-09T08:47:08.087Z</time></trkpt><trkpt lat="41.182145" lon="14.611775"><ele>895.0</ele><time>2026-04-09T08:47:09.087Z</time></trkpt><trkpt lat="41.1821233" lon="14.6116417"><ele>898.25</ele><time>2026-04-09T08:47:10.087Z</time></trkpt><trkpt lat="41.18208" lon="14.611505"><ele>901.5</ele><time>2026-04-09T08:47:11.087Z</time></trkpt><trkpt lat="41.1820217" lon="14.6113667"><ele>904.75</ele><time>2026-04-09T08:47:12.087Z</time></trkpt><trkpt lat="41.1819583" lon="14.6112383"><ele>908.0</ele><time>2026-04-09T08:47:13.087Z</time></trkpt><trkpt lat="41.1818933" lon="14.6111267"><ele>908.5999999999999</ele><time>2026-04-09T08:47:14.087Z</time></trkpt><trkpt lat="41.181835" lon="14.6110183"><ele>909.1999999999999</ele><time>2026-04-09T08:47:15.087Z</time></trkpt><trkpt lat="41.1817983" lon="14.610895"><ele>909.8</ele><time>2026-04-09T08:47:16.087Z</time></trkpt><trkpt lat="41.181775" lon="14.61075"><ele>910.4</ele><time>2026-04-09T08:47:17.087Z</time></trkpt><trkpt lat="41.18178" lon="14.61059"><ele>911.0</ele><time>2026-04-09T08:47:18.087Z</time></trkpt><trkpt lat="41.1818083" lon="14.6104267"><ele>915.25</ele><time>2026-04-09T08:47:19.087Z</time></trkpt><trkpt lat="41.181855" lon="14.610275"><ele>919.5</ele><time>2026-04-09T08:47:20.087Z</time></trkpt><trkpt lat="41.1819167" lon="14.6101317"><ele>923.75</ele><time>2026-04-09T08:47:21.087Z</time></trkpt><trkpt lat="41.1819817" lon="14.6099733"><ele>928.0</ele><time>2026-04-09T08:47:22.087Z</time></trkpt><trkpt lat="41.1820317" lon="14.60981"><ele>928.0</ele><time>2026-04-09T08:47:23.087Z</time></trkpt><trkpt lat="41.18208" lon="14.6096417"><ele>928.0</ele><time>2026-04-09T08:47:24.087Z</time></trkpt><trkpt lat="41.182125" lon="14.6094733"><ele>928.0</ele><time>2026-04-09T08:47:25.087Z</time></trkpt><trkpt lat="41.18216" lon="14.60931"><ele>928.0</ele><time>2026-04-09T08:47:26.087Z</time></trkpt><trkpt lat="41.1821917" lon="14.60914"><ele>931.5</ele><time>2026-04-09T08:47:27.087Z</time></trkpt><trkpt lat="41.1822217" lon="14.6089683"><ele>935.0</ele><time>2026-04-09T08:47:28.087Z</time></trkpt><trkpt lat="41.1822483" lon="14.6088"><ele>938.5</ele><time>2026-04-09T08:47:29.087Z</time></trkpt><trkpt lat="41.18227" lon="14.6086433"><ele>942.0</ele><time>2026-04-09T08:47:30.087Z</time></trkpt><trkpt lat="41.1822917" lon="14.6084817"><ele>945.25</ele><time>2026-04-09T08:47:31.087Z</time></trkpt><trkpt lat="41.1823233" lon="14.608325"><ele>948.5</ele><time>2026-04-09T08:47:32.087Z</time></trkpt><trkpt lat="41.1823467" lon="14.6081533"><ele>951.75</ele><time>2026-04-09T08:47:33.087Z</time></trkpt><trkpt lat="41.1823717" lon="14.6079917"><ele>955.0</ele><time>2026-04-09T08:47:34.087Z</time></trkpt><trkpt lat="41.1823883" lon="14.6078233"><ele>944.75</ele><time>2026-04-09T08:47:35.087Z</time></trkpt><trkpt lat="41.1824067" lon="14.6076567"><ele>934.5</ele><time>2026-04-09T08:47:36.087Z</time></trkpt><trkpt lat="41.1824267" lon="14.6074917"><ele>924.25</ele><time>2026-04-09T08:47:37.087Z</time></trkpt><trkpt lat="41.1824367" lon="14.6073433"><ele>914.0</ele><time>2026-04-09T08:47:38.087Z</time></trkpt><trkpt lat="41.1824467" lon="14.60722"><ele>914.0</ele><time>2026-04-09T08:47:39.087Z</time></trkpt><trkpt lat="41.1824433" lon="14.607095"><ele>914.0000000000001</ele><time>2026-04-09T08:47:40.087Z</time></trkpt><trkpt lat="41.18241" lon="14.606965"><ele>914.0000000000001</ele><time>2026-04-09T08:47:41.087Z</time></trkpt><trkpt lat="41.1823517" lon="14.6068383"><ele>914.0</ele><time>2026-04-09T08:47:42.087Z</time></trkpt><trkpt lat="41.1822767" lon="14.6067133"><ele>914.0</ele><time>2026-04-09T08:47:43.087Z</time></trkpt><trkpt lat="41.1821933" lon="14.60659"><ele>925.25</ele><time>2026-04-09T08:47:44.087Z</time></trkpt><trkpt lat="41.1821117" lon="14.6064617"><ele>936.5</ele><time>2026-04-09T08:47:45.087Z</time></trkpt><trkpt lat="41.1820333" lon="14.606335"><ele>947.75</ele><time>2026-04-09T08:47:46.087Z</time></trkpt><trkpt lat="41.1819633" lon="14.6062183"><ele>959.0</ele><time>2026-04-09T08:47:47.087Z</time></trkpt><trkpt lat="41.1818983" lon="14.6060983"><ele>959.0</ele><time>2026-04-09T08:47:48.087Z</time></trkpt><trkpt lat="41.1818467" lon="14.6059883"><ele>959.0000000000001</ele><time>2026-04-09T08:47:49.087Z</time></trkpt><trkpt lat="41.1818167" lon="14.605885"><ele>959.0000000000001</ele><time>2026-04-09T08:47:50.087Z</time></trkpt><trkpt lat="41.1818083" lon="14.6057633"><ele>959.0</ele><time>2026-04-09T08:47:51.087Z</time></trkpt><trkpt lat="41.1818217" lon="14.60562"><ele>959.0</ele><time>2026-04-09T08:47:52.087Z</time></trkpt><trkpt lat="41.1818417" lon="14.6054667"><ele>959.0</ele><time>2026-04-09T08:47:53.087Z</time></trkpt><trkpt lat="41.18186" lon="14.605305"><ele>959.0</ele><time>2026-04-09T08:47:54.087Z</time></trkpt><trkpt lat="41.1818667" lon="14.60514"><ele>959.0</ele><time>2026-04-09T08:47:55.087Z</time></trkpt><trkpt lat="41.1818533" lon="14.6049867"><ele>959.0</ele><time>2026-04-09T08:47:56.087Z</time></trkpt><trkpt lat="41.1818233" lon="14.6048383"><ele>959.0</ele><time>2026-04-09T08:47:57.087Z</time></trkpt><trkpt lat="41.1817933" lon="14.6047133"><ele>959.0000000000001</ele><time>2026-04-09T08:47:58.087Z</time></trkpt><trkpt lat="41.1817567" lon="14.6045867"><ele>959.0000000000001</ele><time>2026-04-09T08:47:59.087Z</time></trkpt><trkpt lat="41.181715" lon="14.6044667"><ele>959.0</ele><time>2026-04-09T08:48:00.087Z</time></trkpt><trkpt lat="41.1816717" lon="14.60435"><ele>959.0</ele><time>2026-04-09T08:48:01.087Z</time></trkpt><trkpt lat="41.1816217" lon="14.60425"><ele>956.2</ele><time>2026-04-09T08:48:02.087Z</time></trkpt><trkpt lat="41.181565" lon="14.6041667"><ele>953.4000000000001</ele><time>2026-04-09T08:48:03.087Z</time></trkpt><trkpt lat="41.1815133" lon="14.6041017"><ele>950.6</ele><time>2026-04-09T08:48:04.086Z</time></trkpt><trkpt lat="41.181415" lon="14.6040233"><ele>947.8</ele><time>2026-04-09T08:48:06.086Z</time></trkpt><trkpt lat="41.18134" lon="14.6040883"><ele>945.0</ele><time>2026-04-09T08:48:08.086Z</time></trkpt><trkpt lat="41.1813533" lon="14.6042167"><ele>952.6</ele><time>2026-04-09T08:48:10.086Z</time></trkpt><trkpt lat="41.181395" lon="14.604305"><ele>960.2</ele><time>2026-04-09T08:48:11.086Z</time></trkpt><trkpt lat="41.1814483" lon="14.60442"><ele>967.8</ele><time>2026-04-09T08:48:12.086Z</time></trkpt><trkpt lat="41.1814933" lon="14.60454"><ele>975.4</ele><time>2026-04-09T08:48:13.086Z</time></trkpt><trkpt lat="41.1815117" lon="14.60467"><ele>983.0</ele><time>2026-04-09T08:48:14.086Z</time></trkpt><trkpt lat="41.18151" lon="14.6048117"><ele>988.2</ele><time>2026-04-09T08:48:15.086Z</time></trkpt><trkpt lat="41.18151" lon="14.6049433"><ele>993.4</ele><time>2026-04-09T08:48:16.086Z</time></trkpt><trkpt lat="41.1815033" lon="14.605065"><ele>998.6000000000001</ele><time>2026-04-09T08:48:17.086Z</time></trkpt><trkpt lat="41.18149" lon="14.60519"><ele>1003.8000000000001</ele><time>2026-04-09T08:48:18.086Z</time></trkpt><trkpt lat="41.1814717" lon="14.6053233"><ele>1009.0</ele><time>2026-04-09T08:48:19.086Z</time></trkpt><trkpt lat="41.181435" lon="14.60545"><ele>1010.4000000000001</ele><time>2026-04-09T08:48:20.086Z</time></trkpt><trkpt lat="41.18138" lon="14.6055733"><ele>1011.8000000000001</ele><time>2026-04-09T08:48:21.086Z</time></trkpt><trkpt lat="41.1813267" lon="14.6056867"><ele>1013.1999999999999</ele><time>2026-04-09T08:48:22.086Z</time></trkpt><trkpt lat="41.181295" lon="14.6058133"><ele>1014.5999999999999</ele><time>2026-04-09T08:48:23.086Z</time></trkpt><trkpt lat="41.1812667" lon="14.6059533"><ele>1016.0</ele><time>2026-04-09T08:48:24.086Z</time></trkpt><trkpt lat="41.181275" lon="14.60612"><ele>1018.0</ele><time>2026-04-09T08:48:25.086Z</time></trkpt><trkpt lat="41.181295" lon="14.6063033"><ele>1020.0</ele><time>2026-04-09T08:48:26.086Z</time></trkpt><trkpt lat="41.1813233" lon="14.606495"><ele>1022.0</ele><time>2026-04-09T08:48:27.086Z</time></trkpt><trkpt lat="41.18135" lon="14.60666"><ele>1024.0</ele><time>2026-04-09T08:48:28.086Z</time></trkpt><trkpt lat="41.181365" lon="14.6068117"><ele>1024.0</ele><time>2026-04-09T08:48:29.086Z</time></trkpt><trkpt lat="41.18138" lon="14.606965"><ele>1024.0</ele><time>2026-04-09T08:48:30.086Z</time></trkpt><trkpt lat="41.1813833" lon="14.607125"><ele>1024.0</ele><time>2026-04-09T08:48:31.086Z</time></trkpt><trkpt lat="41.1813867" lon="14.607275"><ele>1024.0</ele><time>2026-04-09T08:48:32.086Z</time></trkpt><trkpt lat="41.1813717" lon="14.6074167"><ele>1024.0</ele><time>2026-04-09T08:48:33.086Z</time></trkpt><trkpt lat="41.1813433" lon="14.60755"><ele>1024.0</ele><time>2026-04-09T08:48:34.086Z</time></trkpt><trkpt lat="41.1813017" lon="14.6076717"><ele>1024.0</ele><time>2026-04-09T08:48:35.086Z</time></trkpt><trkpt lat="41.181245" lon="14.60779"><ele>1024.0</ele><time>2026-04-09T08:48:36.086Z</time></trkpt><trkpt lat="41.1811833" lon="14.6079083"><ele>1024.0</ele><time>2026-04-09T08:48:37.086Z</time></trkpt><trkpt lat="41.18111" lon="14.6080333"><ele>1019.0</ele><time>2026-04-09T08:48:38.086Z</time></trkpt><trkpt lat="41.1810283" lon="14.6081667"><ele>1014.0</ele><time>2026-04-09T08:48:39.086Z</time></trkpt><trkpt lat="41.180945" lon="14.6083183"><ele>1009.0</ele><time>2026-04-09T08:48:40.086Z</time></trkpt><trkpt lat="41.1808667" lon="14.6084517"><ele>1004.0</ele><time>2026-04-09T08:48:41.086Z</time></trkpt><trkpt lat="41.1807867" lon="14.6085733"><ele>1000.5</ele><time>2026-04-09T08:48:42.086Z</time></trkpt><trkpt lat="41.1807167" lon="14.6086967"><ele>997.0</ele><time>2026-04-09T08:48:43.086Z</time></trkpt><trkpt lat="41.1806467" lon="14.608825"><ele>993.5</ele><time>2026-04-09T08:48:44.086Z</time></trkpt><trkpt lat="41.1805767" lon="14.6089567"><ele>990.0</ele><time>2026-04-09T08:48:45.086Z</time></trkpt><trkpt lat="41.1804983" lon="14.60908"><ele>999.75</ele><time>2026-04-09T08:48:46.086Z</time></trkpt><trkpt lat="41.1804317" lon="14.6092133"><ele>1009.5</ele><time>2026-04-09T08:48:47.086Z</time></trkpt><trkpt lat="41.1803667" lon="14.6093517"><ele>1019.25</ele><time>2026-04-09T08:48:48.086Z</time></trkpt><trkpt lat="41.1803067" lon="14.6095"><ele>1029.0</ele><time>2026-04-09T08:48:49.086Z</time></trkpt><trkpt lat="41.1802417" lon="14.6096517"><ele>1029.0</ele><time>2026-04-09T08:48:50.086Z</time></trkpt><trkpt lat="41.1801933" lon="14.60981"><ele>1029.0</ele><time>2026-04-09T08:48:51.086Z</time></trkpt><trkpt lat="41.1801517" lon="14.6099783"><ele>1029.0</ele><time>2026-04-09T08:48:52.086Z</time></trkpt><trkpt lat="41.1800933" lon="14.6101367"><ele>1029.0</ele><time>2026-04-09T08:48:53.086Z</time></trkpt><trkpt lat="41.180035" lon="14.6102867"><ele>1026.2</ele><time>2026-04-09T08:48:54.086Z</time></trkpt><trkpt lat="41.1799917" lon="14.6104217"><ele>1023.4000000000001</ele><time>2026-04-09T08:48:55.086Z</time></trkpt><trkpt lat="41.1799483" lon="14.61055"><ele>1020.6</ele><time>2026-04-09T08:48:56.086Z</time></trkpt><trkpt lat="41.1799017" lon="14.6106617"><ele>1017.8</ele><time>2026-04-09T08:48:57.086Z</time></trkpt><trkpt lat="41.17987" lon="14.6107567"><ele>1015.0</ele><time>2026-04-09T08:48:58.086Z</time></trkpt><trkpt lat="41.1798167" lon="14.6108767"><ele>1017.3333333333333</ele><time>2026-04-09T08:49:00.086Z</time></trkpt><trkpt lat="41.1797383" lon="14.61087"><ele>1019.6666666666666</ele><time>2026-04-09T08:49:02.086Z</time></trkpt><trkpt lat="41.1797233" lon="14.6107533"><ele>1022.0</ele><time>2026-04-09T08:49:04.086Z</time></trkpt><trkpt lat="41.1797417" lon="14.6106667"><ele>1024.3333333333333</ele><time>2026-04-09T08:49:05.086Z</time></trkpt><trkpt lat="41.1797783" lon="14.6105667"><ele>1026.6666666666667</ele><time>2026-04-09T08:49:06.086Z</time></trkpt><trkpt lat="41.1798233" lon="14.6104467"><ele>1029.0</ele><time>2026-04-09T08:49:07.086Z</time></trkpt><trkpt lat="41.1798567" lon="14.6103167"><ele>1029.0</ele><time>2026-04-09T08:49:08.086Z</time></trkpt><trkpt lat="41.17989" lon="14.6101717"><ele>1029.0</ele><time>2026-04-09T08:49:09.086Z</time></trkpt><trkpt lat="41.1799167" lon="14.6100183"><ele>1029.0</ele><time>2026-04-09T08:49:10.086Z</time></trkpt><trkpt lat="41.1799333" lon="14.6098433"><ele>1029.0</ele><time>2026-04-09T08:49:11.086Z</time></trkpt><trkpt lat="41.17995" lon="14.6096717"><ele>1029.0</ele><time>2026-04-09T08:49:12.086Z</time></trkpt><trkpt lat="41.1799617" lon="14.609495"><ele>1029.0</ele><time>2026-04-09T08:49:13.086Z</time></trkpt><trkpt lat="41.1799783" lon="14.6093067"><ele>1029.0</ele><time>2026-04-09T08:49:14.086Z</time></trkpt><trkpt lat="41.18" lon="14.609125"><ele>1029.0</ele><time>2026-04-09T08:49:15.086Z</time></trkpt><trkpt lat="41.1800217" lon="14.6089517"><ele>1033.0</ele><time>2026-04-09T08:49:16.086Z</time></trkpt><trkpt lat="41.1800483" lon="14.6087783"><ele>1037.0</ele><time>2026-04-09T08:49:17.086Z</time></trkpt><trkpt lat="41.18008" lon="14.6086"><ele>1041.0</ele><time>2026-04-09T08:49:18.086Z</time></trkpt><trkpt lat="41.180125" lon="14.6084333"><ele>1045.0</ele><time>2026-04-09T08:49:19.086Z</time></trkpt><trkpt lat="41.1801817" lon="14.60826"><ele>1049.25</ele><time>2026-04-09T08:49:20.086Z</time></trkpt><trkpt lat="41.1802433" lon="14.6081083"><ele>1053.5</ele><time>2026-04-09T08:49:21.086Z</time></trkpt><trkpt lat="41.1803017" lon="14.6079633"><ele>1057.75</ele><time>2026-04-09T08:49:22.086Z</time></trkpt><trkpt lat="41.18035" lon="14.60784"><ele>1062.0</ele><time>2026-04-09T08:49:23.086Z</time></trkpt><trkpt lat="41.180385" lon="14.6077217"><ele>1066.0</ele><time>2026-04-09T08:49:24.086Z</time></trkpt><trkpt lat="41.1804067" lon="14.607605"><ele>1070.0</ele><time>2026-04-09T08:49:25.086Z</time></trkpt><trkpt lat="41.1804333" lon="14.60748"><ele>1074.0</ele><time>2026-04-09T08:49:26.086Z</time></trkpt><trkpt lat="41.1804333" lon="14.6073367"><ele>1078.0</ele><time>2026-04-09T08:49:27.086Z</time></trkpt><trkpt lat="41.1804133" lon="14.6071867"><ele>1082.0</ele><time>2026-04-09T08:49:28.086Z</time></trkpt><trkpt lat="41.1803733" lon="14.6070367"><ele>1081.0</ele><time>2026-04-09T08:49:29.086Z</time></trkpt><trkpt lat="41.1803267" lon="14.6069083"><ele>1080.0</ele><time>2026-04-09T08:49:30.086Z</time></trkpt><trkpt lat="41.1802617" lon="14.6067767"><ele>1079.0</ele><time>2026-04-09T08:49:31.086Z</time></trkpt><trkpt lat="41.1801867" lon="14.606645"><ele>1078.0</ele><time>2026-04-09T08:49:32.086Z</time></trkpt><trkpt lat="41.1801117" lon="14.606515"><ele>1078.0</ele><time>2026-04-09T08:49:33.086Z</time></trkpt><trkpt lat="41.1800483" lon="14.6063883"><ele>1078.0</ele><time>2026-04-09T08:49:34.086Z</time></trkpt><trkpt lat="41.18" lon="14.6062583"><ele>1078.0</ele><time>2026-04-09T08:49:35.086Z</time></trkpt><trkpt lat="41.1799767" lon="14.606105"><ele>1078.0</ele><time>2026-04-09T08:49:36.086Z</time></trkpt><trkpt lat="41.179985" lon="14.6059533"><ele>1075.75</ele><time>2026-04-09T08:49:37.086Z</time></trkpt><trkpt lat="41.1799867" lon="14.605795"><ele>1073.5</ele><time>2026-04-09T08:49:38.086Z</time></trkpt><trkpt lat="41.17998" lon="14.6056317"><ele>1071.25</ele><time>2026-04-09T08:49:39.086Z</time></trkpt><trkpt lat="41.17994" lon="14.6054717"><ele>1069.0</ele><time>2026-04-09T08:49:40.086Z</time></trkpt><trkpt lat="41.179875" lon="14.6053183"><ele>1072.0</ele><time>2026-04-09T08:49:41.086Z</time></trkpt><trkpt lat="41.1798" lon="14.6051883"><ele>1075.0</ele><time>2026-04-09T08:49:42.086Z</time></trkpt><trkpt lat="41.17972" lon="14.6050783"><ele>1078.0</ele><time>2026-04-09T08:49:43.086Z</time></trkpt><trkpt lat="41.179625" lon="14.6049867"><ele>1081.0</ele><time>2026-04-09T08:49:44.086Z</time></trkpt><trkpt lat="41.179515" lon="14.6049333"><ele>1081.0</ele><time>2026-04-09T08:49:45.086Z</time></trkpt><trkpt lat="41.17939" lon="14.6048917"><ele>1081.0</ele><time>2026-04-09T08:49:46.086Z</time></trkpt><trkpt lat="41.1792483" lon="14.60486"><ele>1081.0</ele><time>2026-04-09T08:49:47.086Z</time></trkpt><trkpt lat="41.1790967" lon="14.604845"><ele>1081.0</ele><time>2026-04-09T08:49:48.086Z</time></trkpt><trkpt lat="41.1789517" lon="14.60483"><ele>1083.25</ele><time>2026-04-09T08:49:49.086Z</time></trkpt><trkpt lat="41.1788067" lon="14.6048133"><ele>1085.5</ele><time>2026-04-09T08:49:50.086Z</time></trkpt><trkpt lat="41.17867" lon="14.6048017"><ele>1087.75</ele><time>2026-04-09T08:49:51.086Z</time></trkpt><trkpt lat="41.1785417" lon="14.604785"><ele>1090.0</ele><time>2026-04-09T08:49:52.086Z</time></trkpt><trkpt lat="41.17841" lon="14.604785"><ele>1090.0</ele><time>2026-04-09T08:49:53.086Z</time></trkpt><trkpt lat="41.17828" lon="14.6048133"><ele>1090.0</ele><time>2026-04-09T08:49:54.086Z</time></trkpt><trkpt lat="41.178165" lon="14.604865"><ele>1090.0</ele><time>2026-04-09T08:49:55.086Z</time></trkpt><trkpt lat="41.1780567" lon="14.6049483"><ele>1090.0</ele><time>2026-04-09T08:49:56.086Z</time></trkpt><trkpt lat="41.1779517" lon="14.605045"><ele>1088.75</ele><time>2026-04-09T08:49:57.086Z</time></trkpt><trkpt lat="41.177845" lon="14.6051617"><ele>1087.5</ele><time>2026-04-09T08:49:58.086Z</time></trkpt><trkpt lat="41.177735" lon="14.60527"><ele>1086.25</ele><time>2026-04-09T08:49:59.086Z</time></trkpt><trkpt lat="41.1776233" lon="14.6053767"><ele>1085.0</ele><time>2026-04-09T08:50:00.086Z</time></trkpt><trkpt lat="41.1775083" lon="14.6054867"><ele>1091.75</ele><time>2026-04-09T08:50:01.086Z</time></trkpt><trkpt lat="41.1773983" lon="14.605595"><ele>1098.5</ele><time>2026-04-09T08:50:02.086Z</time></trkpt><trkpt lat="41.1772967" lon="14.6056983"><ele>1105.25</ele><time>2026-04-09T08:50:03.086Z</time></trkpt><trkpt lat="41.177195" lon="14.6057967"><ele>1112.0</ele><time>2026-04-09T08:50:04.086Z</time></trkpt><trkpt lat="41.1770983" lon="14.6058867"><ele>1113.4</ele><time>2026-04-09T08:50:05.086Z</time></trkpt><trkpt lat="41.1770033" lon="14.6059417"><ele>1114.8000000000002</ele><time>2026-04-09T08:50:06.086Z</time></trkpt><trkpt lat="41.176905" lon="14.6059767"><ele>1116.2</ele><time>2026-04-09T08:50:07.086Z</time></trkpt><trkpt lat="41.1767983" lon="14.605995"><ele>1117.6000000000001</ele><time>2026-04-09T08:50:08.086Z</time></trkpt><trkpt lat="41.1766967" lon="14.60597"><ele>1119.0</ele><time>2026-04-09T08:50:09.086Z</time></trkpt><trkpt lat="41.1765917" lon="14.6059283"><ele>1123.0</ele><time>2026-04-09T08:50:10.086Z</time></trkpt><trkpt lat="41.17649" lon="14.6058783"><ele>1127.0</ele><time>2026-04-09T08:50:11.086Z</time></trkpt><trkpt lat="41.17638" lon="14.605825"><ele>1131.0</ele><time>2026-04-09T08:50:12.086Z</time></trkpt><trkpt lat="41.17627" lon="14.605785"><ele>1135.0</ele><time>2026-04-09T08:50:13.086Z</time></trkpt><trkpt lat="41.1761717" lon="14.60575"><ele>1139.0</ele><time>2026-04-09T08:50:14.086Z</time></trkpt><trkpt lat="41.1760917" lon="14.6057067"><ele>1139.0</ele><time>2026-04-09T08:50:15.086Z</time></trkpt><trkpt lat="41.1760117" lon="14.60565"><ele>1139.0</ele><time>2026-04-09T08:50:16.086Z</time></trkpt><trkpt lat="41.1759417" lon="14.6055817"><ele>1139.0</ele><time>2026-04-09T08:50:17.086Z</time></trkpt><trkpt lat="41.1758933" lon="14.6054983"><ele>1139.0</ele><time>2026-04-09T08:50:18.086Z</time></trkpt><trkpt lat="41.1758567" lon="14.60539"><ele>1139.0</ele><time>2026-04-09T08:50:19.086Z</time></trkpt><trkpt lat="41.1758417" lon="14.605275"><ele>1139.0</ele><time>2026-04-09T08:50:20.086Z</time></trkpt><trkpt lat="41.175845" lon="14.6051683"><ele>1140.25</ele><time>2026-04-09T08:50:21.086Z</time></trkpt><trkpt lat="41.1759167" lon="14.60505"><ele>1141.5</ele><time>2026-04-09T08:50:22.086Z</time></trkpt><trkpt lat="41.1759933" lon="14.6049167"><ele>1142.75</ele><time>2026-04-09T08:50:23.086Z</time></trkpt><trkpt lat="41.1760767" lon="14.6047683"><ele>1144.0</ele><time>2026-04-09T08:50:24.086Z</time></trkpt><trkpt lat="41.1761383" lon="14.6046017"><ele>1145.75</ele><time>2026-04-09T08:50:25.086Z</time></trkpt><trkpt lat="41.1761867" lon="14.6044217"><ele>1147.5</ele><time>2026-04-09T08:50:26.086Z</time></trkpt><trkpt lat="41.1762117" lon="14.604235"><ele>1149.25</ele><time>2026-04-09T08:50:27.086Z</time></trkpt><trkpt lat="41.1762317" lon="14.6040533"><ele>1151.0</ele><time>2026-04-09T08:50:28.086Z</time></trkpt><trkpt lat="41.1762483" lon="14.6038767"><ele>1151.0</ele><time>2026-04-09T08:50:29.086Z</time></trkpt><trkpt lat="41.1762633" lon="14.6037083"><ele>1151.0</ele><time>2026-04-09T08:50:30.086Z</time></trkpt><trkpt lat="41.1762767" lon="14.603555"><ele>1151.0</ele><time>2026-04-09T08:50:31.086Z</time></trkpt><trkpt lat="41.1762933" lon="14.60342"><ele>1151.0</ele><time>2026-04-09T08:50:32.086Z</time></trkpt><trkpt lat="41.1762917" lon="14.6032933"><ele>1151.0</ele><time>2026-04-09T08:50:33.086Z</time></trkpt><trkpt lat="41.1762867" lon="14.6031817"><ele>1150.8</ele><time>2026-04-09T08:50:34.086Z</time></trkpt><trkpt lat="41.1762667" lon="14.6030817"><ele>1150.6</ele><time>2026-04-09T08:50:35.086Z</time></trkpt><trkpt lat="41.1762317" lon="14.6030067"><ele>1150.4</ele><time>2026-04-09T08:50:36.086Z</time></trkpt><trkpt lat="41.1761" lon="14.6029767"><ele>1150.2</ele><time>2026-04-09T08:50:38.086Z</time></trkpt><trkpt lat="41.1760217" lon="14.6029983"><ele>1150.0</ele><time>2026-04-09T08:50:39.086Z</time></trkpt><trkpt lat="41.1759317" lon="14.6030217"><ele>1150.0</ele><time>2026-04-09T08:50:40.086Z</time></trkpt><trkpt lat="41.1758383" lon="14.60305"><ele>1150.0</ele><time>2026-04-09T08:50:41.086Z</time></trkpt><trkpt lat="41.17574" lon="14.6030717"><ele>1150.0</ele><time>2026-04-09T08:50:42.086Z</time></trkpt><trkpt lat="41.1756467" lon="14.6030933"><ele>1150.0</ele><time>2026-04-09T08:50:43.086Z</time></trkpt><trkpt lat="41.1755617" lon="14.6031067"><ele>1150.0</ele><time>2026-04-09T08:50:44.086Z</time></trkpt><trkpt lat="41.1754817" lon="14.6031267"><ele>1152.1666666666665</ele><time>2026-04-09T08:50:45.086Z</time></trkpt><trkpt lat="41.1754017" lon="14.6031517"><ele>1154.3333333333333</ele><time>2026-04-09T08:50:46.086Z</time></trkpt><trkpt lat="41.1753217" lon="14.6031733"><ele>1156.5</ele><time>2026-04-09T08:50:47.086Z</time></trkpt><trkpt lat="41.1752467" lon="14.6032"><ele>1158.6666666666667</ele><time>2026-04-09T08:50:48.086Z</time></trkpt><trkpt lat="41.1751667" lon="14.6032117"><ele>1160.8333333333335</ele><time>2026-04-09T08:50:49.086Z</time></trkpt><trkpt lat="41.1751" lon="14.6032067"><ele>1163.0</ele><time>2026-04-09T08:50:50.086Z</time></trkpt><trkpt lat="41.1750367" lon="14.60319"><ele>1163.0</ele><time>2026-04-09T08:50:51.086Z</time></trkpt><trkpt lat="41.1749183" lon="14.60312"><ele>1163.0</ele><time>2026-04-09T08:50:53.086Z</time></trkpt><trkpt lat="41.174845" lon="14.603065"><ele>1163.0</ele><time>2026-04-09T08:50:54.086Z</time></trkpt><trkpt lat="41.17477" lon="14.6030067"><ele>1163.0</ele><time>2026-04-09T08:50:55.086Z</time></trkpt><trkpt lat="41.1747" lon="14.6029417"><ele>1163.0</ele><time>2026-04-09T08:50:56.086Z</time></trkpt><trkpt lat="41.1746417" lon="14.60286"><ele>1160.5</ele><time>2026-04-09T08:50:57.086Z</time></trkpt><trkpt lat="41.1745967" lon="14.6027867"><ele>1158.0</ele><time>2026-04-09T08:50:58.086Z</time></trkpt><trkpt lat="41.1745183" lon="14.602645"><ele>1155.5</ele><time>2026-04-09T08:51:00.086Z</time></trkpt><trkpt lat="41.1744833" lon="14.6025667"><ele>1153.0</ele><time>2026-04-09T08:51:01.086Z</time></trkpt><trkpt lat="41.1744483" lon="14.6024883"><ele>1150.5</ele><time>2026-04-09T08:51:02.086Z</time></trkpt><trkpt lat="41.1744233" lon="14.6023633"><ele>1148.0</ele><time>2026-04-09T08:51:04.086Z</time></trkpt><trkpt lat="41.17443" lon="14.60224"><ele>1148.0</ele><time>2026-04-09T08:51:11.086Z</time></trkpt><trkpt lat="41.1744217" lon="14.6021"><ele>1148.0</ele><time>2026-04-09T08:58:31.086Z</time></trkpt><trkpt lat="41.1744733" lon="14.6020217"><ele>1148.0</ele><time>2026-04-09T08:58:33.086Z</time></trkpt><trkpt lat="41.1745217" lon="14.60193"><ele>1148.0</ele><time>2026-04-09T08:58:35.086Z</time></trkpt><trkpt lat="41.17456" lon="14.6018383"><ele>1148.0</ele><time>2026-04-09T08:58:37.086Z</time></trkpt><trkpt lat="41.1745933" lon="14.6017567"><ele>1148.0</ele><time>2026-04-09T08:58:39.086Z</time></trkpt><trkpt lat="41.174635" lon="14.6016767"><ele>1146.5</ele><time>2026-04-09T08:58:41.086Z</time></trkpt><trkpt lat="41.1746667" lon="14.6015967"><ele>1145.0</ele><time>2026-04-09T08:58:43.086Z</time></trkpt><trkpt lat="41.1746117" lon="14.6015217"><ele>1143.5</ele><time>2026-04-09T08:59:14.086Z</time></trkpt><trkpt lat="41.1745483" lon="14.6016033"><ele>1142.0</ele><time>2026-04-09T08:59:57.086Z</time></trkpt><trkpt lat="41.174495" lon="14.6016883"><ele>1140.5</ele><time>2026-04-09T08:59:59.086Z</time></trkpt><trkpt lat="41.1744267" lon="14.6017883"><ele>1139.0</ele><time>2026-04-09T09:00:01.086Z</time></trkpt><trkpt lat="41.1743417" lon="14.6019"><ele>1140.8</ele><time>2026-04-09T09:00:03.086Z</time></trkpt><trkpt lat="41.1742583" lon="14.6020217"><ele>1142.6000000000001</ele><time>2026-04-09T09:00:05.086Z</time></trkpt><trkpt lat="41.17421" lon="14.6020867"><ele>1144.4</ele><time>2026-04-09T09:00:06.086Z</time></trkpt><trkpt lat="41.1741667" lon="14.602155"><ele>1146.2</ele><time>2026-04-09T09:00:07.086Z</time></trkpt><trkpt lat="41.1740817" lon="14.6022767"><ele>1148.0</ele><time>2026-04-09T09:00:09.086Z</time></trkpt><trkpt lat="41.1740383" lon="14.6023417"><ele>1144.0</ele><time>2026-04-09T09:00:10.086Z</time></trkpt><trkpt lat="41.1739617" lon="14.6024367"><ele>1140.0</ele><time>2026-04-09T09:00:12.086Z</time></trkpt><trkpt lat="41.17388" lon="14.6025283"><ele>1136.0</ele><time>2026-04-09T09:00:14.086Z</time></trkpt><trkpt lat="41.17378" lon="14.6026133"><ele>1132.0</ele><time>2026-04-09T09:00:16.086Z</time></trkpt><trkpt lat="41.1736867" lon="14.6026867"><ele>1128.0</ele><time>2026-04-09T09:00:18.086Z</time></trkpt><trkpt lat="41.1736117" lon="14.6027433"><ele>1128.0</ele><time>2026-04-09T09:00:20.086Z</time></trkpt><trkpt lat="41.1735433" lon="14.6028017"><ele>1128.0</ele><time>2026-04-09T09:00:23.086Z</time></trkpt><trkpt lat="41.1734667" lon="14.602855"><ele>1128.0</ele><time>2026-04-09T09:01:13.086Z</time></trkpt><trkpt lat="41.17338" lon="14.6029117"><ele>1128.0</ele><time>2026-04-09T09:01:15.086Z</time></trkpt><trkpt lat="41.1733017" lon="14.6029833"><ele>1128.0</ele><time>2026-04-09T09:01:17.086Z</time></trkpt><trkpt lat="41.1732183" lon="14.6030483"><ele>1127.6666666666667</ele><time>2026-04-09T09:01:19.086Z</time></trkpt><trkpt lat="41.1731333" lon="14.6030983"><ele>1127.3333333333333</ele><time>2026-04-09T09:01:21.086Z</time></trkpt><trkpt lat="41.1730667" lon="14.603135"><ele>1127.0</ele><time>2026-04-09T09:01:23.086Z</time></trkpt><trkpt lat="41.17299" lon="14.60312"><ele>1126.6666666666665</ele><time>2026-04-09T09:01:26.086Z</time></trkpt><trkpt lat="41.1729367" lon="14.6030733"><ele>1126.3333333333333</ele><time>2026-04-09T09:01:29.086Z</time></trkpt><trkpt lat="41.172945" lon="14.6029483"><ele>1126.0</ele><time>2026-04-09T09:01:55.086Z</time></trkpt><trkpt lat="41.1729883" lon="14.6028517"><ele>1126.5</ele><time>2026-04-09T09:01:57.086Z</time></trkpt><trkpt lat="41.1730517" lon="14.6027067"><ele>1127.0</ele><time>2026-04-09T09:01:59.086Z</time></trkpt><trkpt lat="41.173095" lon="14.6025933"><ele>1127.5</ele><time>2026-04-09T09:02:00.086Z</time></trkpt><trkpt lat="41.17315" lon="14.6024683"><ele>1128.0</ele><time>2026-04-09T09:02:01.086Z</time></trkpt><trkpt lat="41.1732167" lon="14.602335"><ele>1128.0</ele><time>2026-04-09T09:02:02.086Z</time></trkpt><trkpt lat="41.1732867" lon="14.6021933"><ele>1128.0</ele><time>2026-04-09T09:02:03.086Z</time></trkpt><trkpt lat="41.1733567" lon="14.602055"><ele>1128.0</ele><time>2026-04-09T09:02:04.086Z</time></trkpt><trkpt lat="41.1734267" lon="14.6019067"><ele>1128.0</ele><time>2026-04-09T09:02:05.086Z</time></trkpt><trkpt lat="41.1735" lon="14.6017617"><ele>1126.75</ele><time>2026-04-09T09:02:06.086Z</time></trkpt><trkpt lat="41.1735667" lon="14.6016183"><ele>1125.5</ele><time>2026-04-09T09:02:07.086Z</time></trkpt><trkpt lat="41.1736317" lon="14.601485"><ele>1124.25</ele><time>2026-04-09T09:02:08.086Z</time></trkpt><trkpt lat="41.1736917" lon="14.6013633"><ele>1123.0</ele><time>2026-04-09T09:02:09.086Z</time></trkpt><trkpt lat="41.1737533" lon="14.60124"><ele>1123.0</ele><time>2026-04-09T09:02:10.086Z</time></trkpt><trkpt lat="41.1738133" lon="14.6011267"><ele>1123.0</ele><time>2026-04-09T09:02:11.086Z</time></trkpt><trkpt lat="41.1738717" lon="14.6010017"><ele>1123.0</ele><time>2026-04-09T09:02:12.086Z</time></trkpt><trkpt lat="41.1739233" lon="14.6008667"><ele>1123.0</ele><time>2026-04-09T09:02:13.086Z</time></trkpt><trkpt lat="41.1739767" lon="14.6007317"><ele>1123.0</ele><time>2026-04-09T09:02:14.086Z</time></trkpt><trkpt lat="41.1740283" lon="14.6005967"><ele>1123.8</ele><time>2026-04-09T09:02:15.086Z</time></trkpt><trkpt lat="41.17408" lon="14.6004583"><ele>1124.6</ele><time>2026-04-09T09:02:16.086Z</time></trkpt><trkpt lat="41.174125" lon="14.6003233"><ele>1125.4</ele><time>2026-04-09T09:02:17.086Z</time></trkpt><trkpt lat="41.1741667" lon="14.60019"><ele>1126.2</ele><time>2026-04-09T09:02:18.086Z</time></trkpt><trkpt lat="41.174205" lon="14.6000633"><ele>1127.0</ele><time>2026-04-09T09:02:19.086Z</time></trkpt><trkpt lat="41.174245" lon="14.599935"><ele>1127.0</ele><time>2026-04-09T09:02:20.086Z</time></trkpt><trkpt lat="41.17428" lon="14.59981"><ele>1127.0</ele><time>2026-04-09T09:02:21.086Z</time></trkpt><trkpt lat="41.1743167" lon="14.5996867"><ele>1127.0</ele><time>2026-04-09T09:02:22.086Z</time></trkpt><trkpt lat="41.17435" lon="14.5995817"><ele>1127.0</ele><time>2026-04-09T09:02:23.086Z</time></trkpt><trkpt lat="41.1743817" lon="14.5994833"><ele>1127.0</ele><time>2026-04-09T09:02:24.086Z</time></trkpt><trkpt lat="41.1744117" lon="14.5993967"><ele>1127.0</ele><time>2026-04-09T09:02:25.086Z</time></trkpt><trkpt lat="41.17444" lon="14.5993217"><ele>1126.8333333333335</ele><time>2026-04-09T09:02:26.086Z</time></trkpt><trkpt lat="41.1744667" lon="14.5992417"><ele>1126.6666666666667</ele><time>2026-04-09T09:02:27.086Z</time></trkpt><trkpt lat="41.174495" lon="14.5991617"><ele>1126.5</ele><time>2026-04-09T09:02:28.086Z</time></trkpt><trkpt lat="41.1745267" lon="14.5990817"><ele>1126.3333333333333</ele><time>2026-04-09T09:02:29.086Z</time></trkpt><trkpt lat="41.17456" lon="14.599005"><ele>1126.1666666666665</ele><time>2026-04-09T09:02:30.086Z</time></trkpt><trkpt lat="41.1746083" lon="14.5988633"><ele>1126.0</ele><time>2026-04-09T09:02:32.086Z</time></trkpt><trkpt lat="41.1746417" lon="14.59872"><ele>1125.4285714285713</ele><time>2026-04-09T09:02:34.086Z</time></trkpt><trkpt lat="41.1746517" lon="14.5986317"><ele>1124.857142857143</ele><time>2026-04-09T09:02:35.086Z</time></trkpt><trkpt lat="41.17466" lon="14.598545"><ele>1124.2857142857142</ele><time>2026-04-09T09:02:36.086Z</time></trkpt><trkpt lat="41.17467" lon="14.5984583"><ele>1123.7142857142858</ele><time>2026-04-09T09:02:37.086Z</time></trkpt><trkpt lat="41.1746833" lon="14.59836"><ele>1123.142857142857</ele><time>2026-04-09T09:02:38.086Z</time></trkpt><trkpt lat="41.1747017" lon="14.5982683"><ele>1122.5714285714284</ele><time>2026-04-09T09:02:39.086Z</time></trkpt><trkpt lat="41.174725" lon="14.5981717"><ele>1122.0</ele><time>2026-04-09T09:02:40.086Z</time></trkpt><trkpt lat="41.1747467" lon="14.5980783"><ele>1122.0</ele><time>2026-04-09T09:02:41.086Z</time></trkpt><trkpt lat="41.1747683" lon="14.5979833"><ele>1122.0</ele><time>2026-04-09T09:02:42.086Z</time></trkpt><trkpt lat="41.1747933" lon="14.5978883"><ele>1122.0</ele><time>2026-04-09T09:02:43.086Z</time></trkpt><trkpt lat="41.17481" lon="14.5977967"><ele>1122.0</ele><time>2026-04-09T09:02:44.086Z</time></trkpt><trkpt lat="41.17482" lon="14.5977017"><ele>1122.0</ele><time>2026-04-09T09:02:45.086Z</time></trkpt><trkpt lat="41.174835" lon="14.597605"><ele>1122.0</ele><time>2026-04-09T09:02:46.086Z</time></trkpt><trkpt lat="41.1748483" lon="14.5975117"><ele>1122.0</ele><time>2026-04-09T09:02:47.086Z</time></trkpt><trkpt lat="41.1748567" lon="14.59742"><ele>1125.1666666666667</ele><time>2026-04-09T09:02:48.086Z</time></trkpt><trkpt lat="41.1748667" lon="14.59733"><ele>1128.3333333333333</ele><time>2026-04-09T09:02:49.086Z</time></trkpt><trkpt lat="41.1748783" lon="14.5972433"><ele>1131.5</ele><time>2026-04-09T09:02:50.086Z</time></trkpt><trkpt lat="41.1749017" lon="14.5970883"><ele>1134.6666666666665</ele><time>2026-04-09T09:02:52.086Z</time></trkpt><trkpt lat="41.1749133" lon="14.5969667"><ele>1137.8333333333333</ele><time>2026-04-09T09:02:54.086Z</time></trkpt><trkpt lat="41.1749133" lon="14.596865"><ele>1141.0</ele><time>2026-04-09T09:02:56.086Z</time></trkpt><trkpt lat="41.17492" lon="14.5967517"><ele>1141.0</ele><time>2026-04-09T09:02:58.086Z</time></trkpt><trkpt lat="41.1749067" lon="14.5966417"><ele>1141.0</ele><time>2026-04-09T09:03:00.086Z</time></trkpt><trkpt lat="41.174875" lon="14.5965367"><ele>1141.0</ele><time>2026-04-09T09:03:02.086Z</time></trkpt><trkpt lat="41.17483" lon="14.596435"><ele>1141.0</ele><time>2026-04-09T09:03:04.086Z</time></trkpt><trkpt lat="41.1747867" lon="14.5963567"><ele>1141.0</ele><time>2026-04-09T09:03:06.086Z</time></trkpt><trkpt lat="41.17473" lon="14.5962583"><ele>1141.0</ele><time>2026-04-09T09:03:09.086Z</time></trkpt><trkpt lat="41.17468" lon="14.59619"><ele>1139.0</ele><time>2026-04-09T09:03:11.086Z</time></trkpt><trkpt lat="41.1746333" lon="14.596125"><ele>1137.0</ele><time>2026-04-09T09:03:13.086Z</time></trkpt><trkpt lat="41.17456" lon="14.59605"><ele>1135.0</ele><time>2026-04-09T09:03:16.086Z</time></trkpt><trkpt lat="41.1745" lon="14.5959883"><ele>1133.0</ele><time>2026-04-09T09:03:18.086Z</time></trkpt><trkpt lat="41.1744467" lon="14.5959383"><ele>1131.0</ele><time>2026-04-09T09:03:20.086Z</time></trkpt><trkpt lat="41.174395" lon="14.59588"><ele>1129.0</ele><time>2026-04-09T09:03:22.086Z</time></trkpt><trkpt lat="41.1743333" lon="14.5958267"><ele>1127.0</ele><time>2026-04-09T09:03:25.086Z</time></trkpt><trkpt lat="41.1742783" lon="14.59578"><ele>1127.0</ele><time>2026-04-09T09:03:28.086Z</time></trkpt><trkpt lat="41.1742183" lon="14.5957333"><ele>1127.0</ele><time>2026-04-09T09:03:31.086Z</time></trkpt><trkpt lat="41.1741467" lon="14.595675"><ele>1127.0</ele><time>2026-04-09T09:03:34.086Z</time></trkpt><trkpt lat="41.17408" lon="14.595635"><ele>1127.0</ele><time>2026-04-09T09:03:37.086Z</time></trkpt><trkpt lat="41.1740167" lon="14.595625"><ele>1127.0</ele><time>2026-04-09T09:03:39.086Z</time></trkpt><trkpt lat="41.1739517" lon="14.5956367"><ele>1127.0</ele><time>2026-04-09T09:03:41.086Z</time></trkpt><trkpt lat="41.17389" lon="14.5956683"><ele>1127.0</ele><time>2026-04-09T09:03:43.086Z</time></trkpt><trkpt lat="41.1738217" lon="14.59571"><ele>1129.0</ele><time>2026-04-09T09:03:46.086Z</time></trkpt><trkpt lat="41.1737483" lon="14.595775"><ele>1131.0</ele><time>2026-04-09T09:03:49.086Z</time></trkpt><trkpt lat="41.173695" lon="14.59582"><ele>1133.0</ele><time>2026-04-09T09:03:51.086Z</time></trkpt><trkpt lat="41.1736417" lon="14.595875"><ele>1135.0</ele><time>2026-04-09T09:03:53.086Z</time></trkpt><trkpt lat="41.1735867" lon="14.5959217"><ele>1137.0</ele><time>2026-04-09T09:03:55.086Z</time></trkpt><trkpt lat="41.17353" lon="14.595965"><ele>1139.0</ele><time>2026-04-09T09:03:57.086Z</time></trkpt><trkpt lat="41.1734783" lon="14.5960167"><ele>1141.0</ele><time>2026-04-09T09:03:59.086Z</time></trkpt><trkpt lat="41.1734233" lon="14.59607"><ele>1141.0</ele><time>2026-04-09T09:04:01.086Z</time></trkpt><trkpt lat="41.1733683" lon="14.5961117"><ele>1141.0</ele><time>2026-04-09T09:04:03.086Z</time></trkpt><trkpt lat="41.1733117" lon="14.5961617"><ele>1141.0</ele><time>2026-04-09T09:04:05.086Z</time></trkpt><trkpt lat="41.1732467" lon="14.5962167"><ele>1141.0</ele><time>2026-04-09T09:04:07.086Z</time></trkpt><trkpt lat="41.173185" lon="14.5962883"><ele>1141.0</ele><time>2026-04-09T09:04:09.086Z</time></trkpt><trkpt lat="41.1731183" lon="14.5963533"><ele>1141.0</ele><time>2026-04-09T09:04:11.086Z</time></trkpt><trkpt lat="41.17306" lon="14.596415"><ele>1141.0</ele><time>2026-04-09T09:04:13.085Z</time></trkpt><trkpt lat="41.1729983" lon="14.5964783"><ele>1141.6666666666665</ele><time>2026-04-09T09:04:15.086Z</time></trkpt><trkpt lat="41.1729417" lon="14.5965417"><ele>1142.3333333333333</ele><time>2026-04-09T09:04:17.086Z</time></trkpt><trkpt lat="41.1728867" lon="14.5966217"><ele>1143.0</ele><time>2026-04-09T09:04:19.086Z</time></trkpt><trkpt lat="41.1728333" lon="14.5967067"><ele>1143.6666666666667</ele><time>2026-04-09T09:04:21.086Z</time></trkpt><trkpt lat="41.1727733" lon="14.596805"><ele>1144.3333333333335</ele><time>2026-04-09T09:04:23.086Z</time></trkpt><trkpt lat="41.1727217" lon="14.5969017"><ele>1145.0</ele><time>2026-04-09T09:04:25.086Z</time></trkpt><trkpt lat="41.1726717" lon="14.5969933"><ele>1142.2</ele><time>2026-04-09T09:04:27.086Z</time></trkpt><trkpt lat="41.1726167" lon="14.5970967"><ele>1139.4</ele><time>2026-04-09T09:04:29.086Z</time></trkpt><trkpt lat="41.1725517" lon="14.59722"><ele>1136.6</ele><time>2026-04-09T09:04:31.086Z</time></trkpt><trkpt lat="41.17249" lon="14.5973367"><ele>1133.8</ele><time>2026-04-09T09:04:33.086Z</time></trkpt><trkpt lat="41.17243" lon="14.5974517"><ele>1131.0</ele><time>2026-04-09T09:04:35.086Z</time></trkpt><trkpt lat="41.172365" lon="14.597565"><ele>1135.0</ele><time>2026-04-09T09:04:37.086Z</time></trkpt><trkpt lat="41.1722983" lon="14.59768"><ele>1139.0</ele><time>2026-04-09T09:04:39.086Z</time></trkpt><trkpt lat="41.17224" lon="14.597795"><ele>1143.0</ele><time>2026-04-09T09:04:41.086Z</time></trkpt><trkpt lat="41.1721883" lon="14.5978867"><ele>1147.0</ele><time>2026-04-09T09:04:43.086Z</time></trkpt><trkpt lat="41.1721333" lon="14.598"><ele>1151.0</ele><time>2026-04-09T09:04:45.086Z</time></trkpt><trkpt lat="41.172075" lon="14.5981183"><ele>1151.0</ele><time>2026-04-09T09:04:47.086Z</time></trkpt><trkpt lat="41.1720217" lon="14.5982333"><ele>1151.0</ele><time>2026-04-09T09:04:49.086Z</time></trkpt><trkpt lat="41.1719667" lon="14.5983383"><ele>1151.0</ele><time>2026-04-09T09:04:51.086Z</time></trkpt><trkpt lat="41.1719133" lon="14.598445"><ele>1151.0</ele><time>2026-04-09T09:04:53.086Z</time></trkpt><trkpt lat="41.1718667" lon="14.5985483"><ele>1151.0</ele><time>2026-04-09T09:04:55.086Z</time></trkpt><trkpt lat="41.1718" lon="14.598665"><ele>1153.5</ele><time>2026-04-09T09:04:57.086Z</time></trkpt><trkpt lat="41.171735" lon="14.5987783"><ele>1156.0</ele><time>2026-04-09T09:04:59.086Z</time></trkpt><trkpt lat="41.1716833" lon="14.5988883"><ele>1158.5</ele><time>2026-04-09T09:05:01.086Z</time></trkpt><trkpt lat="41.171635" lon="14.5989833"><ele>1161.0</ele><time>2026-04-09T09:05:03.086Z</time></trkpt><trkpt lat="41.1715933" lon="14.59907"><ele>1163.5</ele><time>2026-04-09T09:05:05.086Z</time></trkpt><trkpt lat="41.1715583" lon="14.59914"><ele>1166.0</ele><time>2026-04-09T09:05:07.086Z</time></trkpt><trkpt lat="41.17152" lon="14.599215"><ele>1166.0</ele><time>2026-04-09T09:05:09.086Z</time></trkpt><trkpt lat="41.17148" lon="14.599295"><ele>1166.0</ele><time>2026-04-09T09:05:11.086Z</time></trkpt><trkpt lat="41.1714433" lon="14.5993733"><ele>1166.0</ele><time>2026-04-09T09:05:13.086Z</time></trkpt><trkpt lat="41.1713933" lon="14.5994617"><ele>1166.0</ele><time>2026-04-09T09:05:15.086Z</time></trkpt><trkpt lat="41.1713467" lon="14.599545"><ele>1166.0</ele><time>2026-04-09T09:05:17.086Z</time></trkpt><trkpt lat="41.1712917" lon="14.5996333"><ele>1166.0</ele><time>2026-04-09T09:05:19.086Z</time></trkpt><trkpt lat="41.1712183" lon="14.5997417"><ele>1161.8</ele><time>2026-04-09T09:05:21.086Z</time></trkpt><trkpt lat="41.1711467" lon="14.5998383"><ele>1157.6</ele><time>2026-04-09T09:05:23.086Z</time></trkpt><trkpt lat="41.1710767" lon="14.5999333"><ele>1153.4</ele><time>2026-04-09T09:05:25.086Z</time></trkpt><trkpt lat="41.171" lon="14.6000317"><ele>1149.2</ele><time>2026-04-09T09:05:27.086Z</time></trkpt><trkpt lat="41.1709283" lon="14.60012"><ele>1145.0</ele><time>2026-04-09T09:05:29.086Z</time></trkpt><trkpt lat="41.1708567" lon="14.6002183"><ele>1145.0</ele><time>2026-04-09T09:05:31.086Z</time></trkpt><trkpt lat="41.1708" lon="14.6003283"><ele>1145.0</ele><time>2026-04-09T09:05:33.086Z</time></trkpt><trkpt lat="41.17075" lon="14.6004483"><ele>1145.0</ele><time>2026-04-09T09:05:35.086Z</time></trkpt><trkpt lat="41.1706967" lon="14.6005583"><ele>1145.0</ele><time>2026-04-09T09:05:37.086Z</time></trkpt><trkpt lat="41.1706383" lon="14.6006717"><ele>1145.0</ele><time>2026-04-09T09:05:39.086Z</time></trkpt><trkpt lat="41.1705867" lon="14.600775"><ele>1143.4</ele><time>2026-04-09T09:05:41.086Z</time></trkpt><trkpt lat="41.1705333" lon="14.6008683"><ele>1141.8</ele><time>2026-04-09T09:05:43.086Z</time></trkpt><trkpt lat="41.1704817" lon="14.6009617"><ele>1140.2</ele><time>2026-04-09T09:05:45.086Z</time></trkpt><trkpt lat="41.1704267" lon="14.601075"><ele>1138.6</ele><time>2026-04-09T09:05:47.086Z</time></trkpt><trkpt lat="41.1703733" lon="14.6011833"><ele>1137.0</ele><time>2026-04-09T09:05:49.086Z</time></trkpt><trkpt lat="41.1703217" lon="14.6012867"><ele>1137.0</ele><time>2026-04-09T09:05:51.086Z</time></trkpt><trkpt lat="41.1702733" lon="14.60139"><ele>1137.0</ele><time>2026-04-09T09:05:53.086Z</time></trkpt><trkpt lat="41.170225" lon="14.6014983"><ele>1137.0</ele><time>2026-04-09T09:05:55.086Z</time></trkpt><trkpt lat="41.1701733" lon="14.6016133"><ele>1137.0</ele><time>2026-04-09T09:05:57.086Z</time></trkpt><trkpt lat="41.17012" lon="14.6017317"><ele>1137.0</ele><time>2026-04-09T09:05:59.086Z</time></trkpt><trkpt lat="41.1700633" lon="14.6018567"><ele>1137.0</ele><time>2026-04-09T09:06:01.086Z</time></trkpt><trkpt lat="41.1700133" lon="14.601975"><ele>1137.0</ele><time>2026-04-09T09:06:03.086Z</time></trkpt><trkpt lat="41.16997" lon="14.602085"><ele>1137.0</ele><time>2026-04-09T09:06:05.086Z</time></trkpt><trkpt lat="41.169915" lon="14.6021967"><ele>1137.0</ele><time>2026-04-09T09:06:07.086Z</time></trkpt><trkpt lat="41.1698633" lon="14.6023117"><ele>1137.0</ele><time>2026-04-09T09:06:09.086Z</time></trkpt><trkpt lat="41.16981" lon="14.6024217"><ele>1138.2</ele><time>2026-04-09T09:06:11.086Z</time></trkpt><trkpt lat="41.16976" lon="14.60253"><ele>1139.4</ele><time>2026-04-09T09:06:13.086Z</time></trkpt><trkpt lat="41.16971" lon="14.6026267"><ele>1140.6</ele><time>2026-04-09T09:06:15.086Z</time></trkpt><trkpt lat="41.16966" lon="14.6027333"><ele>1141.8</ele><time>2026-04-09T09:06:17.086Z</time></trkpt><trkpt lat="41.16961" lon="14.6028467"><ele>1143.0</ele><time>2026-04-09T09:06:19.086Z</time></trkpt><trkpt lat="41.1695733" lon="14.60296"><ele>1143.0</ele><time>2026-04-09T09:06:21.086Z</time></trkpt><trkpt lat="41.169525" lon="14.6030717"><ele>1143.0</ele><time>2026-04-09T09:06:23.086Z</time></trkpt><trkpt lat="41.169455" lon="14.6031833"><ele>1143.0</ele><time>2026-04-09T09:06:25.086Z</time></trkpt><trkpt lat="41.169375" lon="14.6032933"><ele>1143.0</ele><time>2026-04-09T09:06:27.086Z</time></trkpt><trkpt lat="41.169305" lon="14.60339"><ele>1143.0</ele><time>2026-04-09T09:06:29.086Z</time></trkpt><trkpt lat="41.1692317" lon="14.603485"><ele>1143.0</ele><time>2026-04-09T09:06:31.086Z</time></trkpt><trkpt lat="41.1691667" lon="14.6035833"><ele>1143.0</ele><time>2026-04-09T09:06:33.086Z</time></trkpt><trkpt lat="41.1691" lon="14.6036817"><ele>1143.0</ele><time>2026-04-09T09:06:35.086Z</time></trkpt><trkpt lat="41.1690317" lon="14.6037717"><ele>1143.0</ele><time>2026-04-09T09:06:37.086Z</time></trkpt><trkpt lat="41.168965" lon="14.603855"><ele>1143.0</ele><time>2026-04-09T09:06:39.086Z</time></trkpt><trkpt lat="41.1689067" lon="14.6039367"><ele>1144.6</ele><time>2026-04-09T09:06:41.086Z</time></trkpt><trkpt lat="41.1688817" lon="14.60407"><ele>1146.1999999999998</ele><time>2026-04-09T09:06:43.086Z</time></trkpt><trkpt lat="41.1688633" lon="14.6041533"><ele>1147.8</ele><time>2026-04-09T09:06:44.086Z</time></trkpt><trkpt lat="41.1688217" lon="14.6042917"><ele>1149.3999999999999</ele><time>2026-04-09T09:06:46.086Z</time></trkpt><trkpt lat="41.1687917" lon="14.6044083"><ele>1151.0</ele><time>2026-04-09T09:06:48.086Z</time></trkpt><trkpt lat="41.1687533" lon="14.60452"><ele>1150.9999999999998</ele><time>2026-04-09T09:06:50.086Z</time></trkpt><trkpt lat="41.16872" lon="14.6046067"><ele>1151.0</ele><time>2026-04-09T09:06:52.086Z</time></trkpt><trkpt lat="41.1686967" lon="14.6046933"><ele>1151.0</ele><time>2026-04-09T09:06:54.086Z</time></trkpt><trkpt lat="41.1686817" lon="14.6047767"><ele>1151.0</ele><time>2026-04-09T09:06:56.086Z</time></trkpt><trkpt lat="41.16866" lon="14.6048567"><ele>1151.0</ele><time>2026-04-09T09:06:58.086Z</time></trkpt><trkpt lat="41.16863" lon="14.6049433"><ele>1150.9999999999998</ele><time>2026-04-09T09:07:01.086Z</time></trkpt><trkpt lat="41.1686333" lon="14.605065"><ele>1151.0</ele><time>2026-04-09T09:07:04.086Z</time></trkpt><trkpt lat="41.1686733" lon="14.6051383"><ele>1151.0</ele><time>2026-04-09T09:07:07.086Z</time></trkpt><trkpt lat="41.168735" lon="14.6051733"><ele>1151.0</ele><time>2026-04-09T09:07:10.086Z</time></trkpt><trkpt lat="41.1688117" lon="14.6051833"><ele>1151.0</ele><time>2026-04-09T09:07:15.086Z</time></trkpt><trkpt lat="41.1688867" lon="14.6052117"><ele>1151.0</ele><time>2026-04-09T09:07:18.086Z</time></trkpt><trkpt lat="41.1689733" lon="14.6052167"><ele>1151.0</ele><time>2026-04-09T09:07:21.086Z</time></trkpt><trkpt lat="41.169055" lon="14.6052533"><ele>1151.0</ele><time>2026-04-09T09:07:24.086Z</time></trkpt><trkpt lat="41.1691417" lon="14.6052883"><ele>1151.142857142857</ele><time>2026-04-09T09:07:27.086Z</time></trkpt><trkpt lat="41.169205" lon="14.6053183"><ele>1151.2857142857142</ele><time>2026-04-09T09:07:29.086Z</time></trkpt><trkpt lat="41.16927" lon="14.6053433"><ele>1151.4285714285716</ele><time>2026-04-09T09:07:31.086Z</time></trkpt><trkpt lat="41.1693333" lon="14.6053567"><ele>1151.5714285714284</ele><time>2026-04-09T09:07:33.086Z</time></trkpt><trkpt lat="41.169395" lon="14.605385"><ele>1151.7142857142858</ele><time>2026-04-09T09:07:35.086Z</time></trkpt><trkpt lat="41.1694683" lon="14.6054167"><ele>1151.857142857143</ele><time>2026-04-09T09:07:37.086Z</time></trkpt><trkpt lat="41.1695383" lon="14.6054417"><ele>1152.0</ele><time>2026-04-09T09:07:39.086Z</time></trkpt><trkpt lat="41.1696133" lon="14.60547"><ele>1152.0000000000002</ele><time>2026-04-09T09:07:41.086Z</time></trkpt><trkpt lat="41.16968" lon="14.6055017"><ele>1152.0</ele><time>2026-04-09T09:07:43.086Z</time></trkpt><trkpt lat="41.1697433" lon="14.60553"><ele>1152.0</ele><time>2026-04-09T09:07:45.086Z</time></trkpt><trkpt lat="41.1698083" lon="14.6055533"><ele>1152.0</ele><time>2026-04-09T09:07:47.086Z</time></trkpt><trkpt lat="41.1698833" lon="14.6055717"><ele>1152.0</ele><time>2026-04-09T09:07:49.086Z</time></trkpt><trkpt lat="41.1699517" lon="14.6055933"><ele>1152.0000000000002</ele><time>2026-04-09T09:07:51.086Z</time></trkpt><trkpt lat="41.1700267" lon="14.60562"><ele>1152.0</ele><time>2026-04-09T09:07:53.086Z</time></trkpt><trkpt lat="41.1700983" lon="14.6056583"><ele>1149.5</ele><time>2026-04-09T09:07:55.086Z</time></trkpt><trkpt lat="41.1701667" lon="14.6057033"><ele>1147.0</ele><time>2026-04-09T09:07:57.086Z</time></trkpt><trkpt lat="41.170225" lon="14.6057567"><ele>1144.5</ele><time>2026-04-09T09:07:59.086Z</time></trkpt><trkpt lat="41.1702833" lon="14.6058167"><ele>1142.0</ele><time>2026-04-09T09:08:01.086Z</time></trkpt><trkpt lat="41.1703367" lon="14.6058767"><ele>1139.5</ele><time>2026-04-09T09:08:03.086Z</time></trkpt><trkpt lat="41.170405" lon="14.6059517"><ele>1137.0</ele><time>2026-04-09T09:08:06.086Z</time></trkpt><trkpt lat="41.17045" lon="14.6060283"><ele>1136.9999999999998</ele><time>2026-04-09T09:08:10.086Z</time></trkpt><trkpt lat="41.1704783" lon="14.6061183"><ele>1137.0</ele><time>2026-04-09T09:08:14.086Z</time></trkpt><trkpt lat="41.1705067" lon="14.6062217"><ele>1137.0</ele><time>2026-04-09T09:09:09.086Z</time></trkpt><trkpt lat="41.1705267" lon="14.606305"><ele>1137.0</ele><time>2026-04-09T09:09:11.086Z</time></trkpt><trkpt lat="41.1705383" lon="14.6063883"><ele>1137.0</ele><time>2026-04-09T09:09:13.086Z</time></trkpt><trkpt lat="41.1705367" lon="14.6064783"><ele>1136.9999999999998</ele><time>2026-04-09T09:09:15.086Z</time></trkpt><trkpt lat="41.1705317" lon="14.6065683"><ele>1137.0</ele><time>2026-04-09T09:09:17.086Z</time></trkpt><trkpt lat="41.17053" lon="14.6066583"><ele>1139.5</ele><time>2026-04-09T09:09:19.086Z</time></trkpt><trkpt lat="41.1705283" lon="14.6067517"><ele>1142.0</ele><time>2026-04-09T09:09:21.086Z</time></trkpt><trkpt lat="41.1705217" lon="14.6068467"><ele>1144.5</ele><time>2026-04-09T09:09:23.086Z</time></trkpt><trkpt lat="41.1705117" lon="14.6069317"><ele>1147.0</ele><time>2026-04-09T09:09:25.086Z</time></trkpt><trkpt lat="41.1705017" lon="14.6070383"><ele>1149.5</ele><time>2026-04-09T09:09:27.086Z</time></trkpt><trkpt lat="41.170485" lon="14.60716"><ele>1152.0</ele><time>2026-04-09T09:09:29.086Z</time></trkpt><trkpt lat="41.1704767" lon="14.60727"><ele>1153.8</ele><time>2026-04-09T09:09:31.086Z</time></trkpt><trkpt lat="41.1704717" lon="14.6073917"><ele>1155.6</ele><time>2026-04-09T09:09:33.086Z</time></trkpt><trkpt lat="41.1704883" lon="14.607515"><ele>1157.3999999999999</ele><time>2026-04-09T09:09:35.086Z</time></trkpt><trkpt lat="41.1705283" lon="14.6076233"><ele>1159.2</ele><time>2026-04-09T09:09:37.086Z</time></trkpt><trkpt lat="41.1705867" lon="14.6077367"><ele>1161.0</ele><time>2026-04-09T09:09:39.086Z</time></trkpt><trkpt lat="41.170635" lon="14.607835"><ele>1161.5714285714284</ele><time>2026-04-09T09:09:41.086Z</time></trkpt><trkpt lat="41.1706817" lon="14.607915"><ele>1162.142857142857</ele><time>2026-04-09T09:09:43.086Z</time></trkpt><trkpt lat="41.17072" lon="14.6079917"><ele>1162.7142857142858</ele><time>2026-04-09T09:09:45.086Z</time></trkpt><trkpt lat="41.170765" lon="14.6080517"><ele>1163.2857142857142</ele><time>2026-04-09T09:09:47.086Z</time></trkpt><trkpt lat="41.1708167" lon="14.6081017"><ele>1163.857142857143</ele><time>2026-04-09T09:09:49.086Z</time></trkpt><trkpt lat="41.170875" lon="14.6081833"><ele>1164.4285714285713</ele><time>2026-04-09T09:09:51.086Z</time></trkpt><trkpt lat="41.17093" lon="14.6082617"><ele>1165.0</ele><time>2026-04-09T09:09:53.086Z</time></trkpt><trkpt lat="41.1710033" lon="14.60832"><ele>1160.6666666666665</ele><time>2026-04-09T09:09:55.086Z</time></trkpt><trkpt lat="41.171065" lon="14.608365"><ele>1156.3333333333333</ele><time>2026-04-09T09:09:57.086Z</time></trkpt><trkpt lat="41.171135" lon="14.6083917"><ele>1152.0</ele><time>2026-04-09T09:09:59.086Z</time></trkpt><trkpt lat="41.17121" lon="14.6084167"><ele>1147.6666666666667</ele><time>2026-04-09T09:10:01.086Z</time></trkpt><trkpt lat="41.1712833" lon="14.6084217"><ele>1143.3333333333335</ele><time>2026-04-09T09:10:03.086Z</time></trkpt><trkpt lat="41.1713783" lon="14.6084133"><ele>1139.0</ele><time>2026-04-09T09:10:05.086Z</time></trkpt><trkpt lat="41.17147" lon="14.6083917"><ele>1138.0</ele><time>2026-04-09T09:10:07.086Z</time></trkpt><trkpt lat="41.17157" lon="14.6083667"><ele>1137.0</ele><time>2026-04-09T09:10:09.086Z</time></trkpt><trkpt lat="41.1716683" lon="14.60834"><ele>1136.0</ele><time>2026-04-09T09:10:11.086Z</time></trkpt><trkpt lat="41.1717533" lon="14.60832"><ele>1135.0</ele><time>2026-04-09T09:10:13.086Z</time></trkpt><trkpt lat="41.1718283" lon="14.608285"><ele>1134.0</ele><time>2026-04-09T09:10:15.086Z</time></trkpt><trkpt lat="41.171895" lon="14.6082317"><ele>1133.0</ele><time>2026-04-09T09:10:17.086Z</time></trkpt><trkpt lat="41.1719533" lon="14.6081783"><ele>1133.0</ele><time>2026-04-09T09:10:19.086Z</time></trkpt><trkpt lat="41.1720017" lon="14.6081183"><ele>1133.0</ele><time>2026-04-09T09:10:21.086Z</time></trkpt><trkpt lat="41.1720217" lon="14.6079983"><ele>1133.0</ele><time>2026-04-09T09:10:24.086Z</time></trkpt><trkpt lat="41.172025" lon="14.6078767"><ele>1133.0</ele><time>2026-04-09T09:10:26.086Z</time></trkpt><trkpt lat="41.172025" lon="14.6077567"><ele>1133.0</ele><time>2026-04-09T09:10:28.086Z</time></trkpt><trkpt lat="41.17203" lon="14.6076333"><ele>1133.0</ele><time>2026-04-09T09:10:30.086Z</time></trkpt><trkpt lat="41.1720367" lon="14.60751"><ele>1132.4</ele><time>2026-04-09T09:10:32.086Z</time></trkpt><trkpt lat="41.1720367" lon="14.6073833"><ele>1131.8</ele><time>2026-04-09T09:10:34.086Z</time></trkpt><trkpt lat="41.172035" lon="14.6072583"><ele>1131.2</ele><time>2026-04-09T09:10:36.086Z</time></trkpt><trkpt lat="41.1720317" lon="14.6071317"><ele>1130.6</ele><time>2026-04-09T09:10:38.086Z</time></trkpt><trkpt lat="41.172025" lon="14.6070017"><ele>1130.0</ele><time>2026-04-09T09:10:40.086Z</time></trkpt><trkpt lat="41.17202" lon="14.6068783"><ele>1129.2</ele><time>2026-04-09T09:10:42.086Z</time></trkpt><trkpt lat="41.1720267" lon="14.606745"><ele>1128.4</ele><time>2026-04-09T09:10:44.086Z</time></trkpt><trkpt lat="41.17203" lon="14.606615"><ele>1127.6</ele><time>2026-04-09T09:10:46.086Z</time></trkpt><trkpt lat="41.1720333" lon="14.606495"><ele>1126.8</ele><time>2026-04-09T09:10:48.086Z</time></trkpt><trkpt lat="41.172045" lon="14.6063583"><ele>1126.0</ele><time>2026-04-09T09:10:50.086Z</time></trkpt><trkpt lat="41.1720567" lon="14.606225"><ele>1125.6</ele><time>2026-04-09T09:10:52.086Z</time></trkpt><trkpt lat="41.1720767" lon="14.6060817"><ele>1125.1999999999998</ele><time>2026-04-09T09:10:54.086Z</time></trkpt><trkpt lat="41.1721083" lon="14.6059317"><ele>1124.8000000000002</ele><time>2026-04-09T09:10:56.086Z</time></trkpt><trkpt lat="41.1721433" lon="14.6057733"><ele>1124.4</ele><time>2026-04-09T09:10:58.086Z</time></trkpt><trkpt lat="41.1721633" lon="14.60569"><ele>1124.0</ele><time>2026-04-09T09:10:59.086Z</time></trkpt><trkpt lat="41.172185" lon="14.60561"><ele>1124.0000000000002</ele><time>2026-04-09T09:11:00.086Z</time></trkpt><trkpt lat="41.17221" lon="14.6055167"><ele>1124.0</ele><time>2026-04-09T09:11:01.086Z</time></trkpt><trkpt lat="41.172235" lon="14.60543"><ele>1124.0</ele><time>2026-04-09T09:11:02.086Z</time></trkpt><trkpt lat="41.1722567" lon="14.605345"><ele>1124.0</ele><time>2026-04-09T09:11:03.086Z</time></trkpt><trkpt lat="41.17228" lon="14.605265"><ele>1124.0</ele><time>2026-04-09T09:11:04.086Z</time></trkpt><trkpt lat="41.1723033" lon="14.6051833"><ele>1124.0000000000002</ele><time>2026-04-09T09:11:05.086Z</time></trkpt><trkpt lat="41.172325" lon="14.6051033"><ele>1124.0</ele><time>2026-04-09T09:11:06.086Z</time></trkpt><trkpt lat="41.1723433" lon="14.6050183"><ele>1124.5</ele><time>2026-04-09T09:11:07.086Z</time></trkpt><trkpt lat="41.1723667" lon="14.60493"><ele>1125.0</ele><time>2026-04-09T09:11:08.086Z</time></trkpt><trkpt lat="41.17239" lon="14.6048433"><ele>1125.5</ele><time>2026-04-09T09:11:09.086Z</time></trkpt><trkpt lat="41.1724117" lon="14.6047567"><ele>1126.0</ele><time>2026-04-09T09:11:10.086Z</time></trkpt><trkpt lat="41.17246" lon="14.6046067"><ele>1126.5</ele><time>2026-04-09T09:11:12.086Z</time></trkpt><trkpt lat="41.1724883" lon="14.6045217"><ele>1127.0</ele><time>2026-04-09T09:11:13.086Z</time></trkpt><trkpt lat="41.1725083" lon="14.6044417"><ele>1127.0</ele><time>2026-04-09T09:11:14.086Z</time></trkpt><trkpt lat="41.1725267" lon="14.6043617"><ele>1127.0</ele><time>2026-04-09T09:11:15.086Z</time></trkpt><trkpt lat="41.1725617" lon="14.6042317"><ele>1127.0</ele><time>2026-04-09T09:11:17.086Z</time></trkpt><trkpt lat="41.172595" lon="14.604095"><ele>1127.0</ele><time>2026-04-09T09:11:19.086Z</time></trkpt><trkpt lat="41.1726383" lon="14.6039583"><ele>1127.0</ele><time>2026-04-09T09:11:21.086Z</time></trkpt><trkpt lat="41.1726833" lon="14.603815"><ele>1127.0</ele><time>2026-04-09T09:11:23.086Z</time></trkpt><trkpt lat="41.17272" lon="14.6036817"><ele>1127.0</ele><time>2026-04-09T09:11:25.086Z</time></trkpt><trkpt lat="41.1727617" lon="14.603555"><ele>1127.0</ele><time>2026-04-09T09:11:27.086Z</time></trkpt><trkpt lat="41.1727983" lon="14.6034417"><ele>1127.0</ele><time>2026-04-09T09:11:29.086Z</time></trkpt><trkpt lat="41.1728317" lon="14.603355"><ele>1127.0</ele><time>2026-04-09T09:11:31.086Z</time></trkpt><trkpt lat="41.1729033" lon="14.603275"><ele>1126.8</ele><time>2026-04-09T09:11:34.086Z</time></trkpt><trkpt lat="41.1729583" lon="14.6032033"><ele>1126.6</ele><time>2026-04-09T09:11:36.086Z</time></trkpt><trkpt lat="41.173045" lon="14.6031283"><ele>1126.3999999999999</ele><time>2026-04-09T09:11:38.086Z</time></trkpt><trkpt lat="41.1731517" lon="14.60305"><ele>1126.2</ele><time>2026-04-09T09:11:40.086Z</time></trkpt><trkpt lat="41.1732733" lon="14.6029767"><ele>1126.0</ele><time>2026-04-09T09:11:42.086Z</time></trkpt><trkpt lat="41.17334" lon="14.6029317"><ele>1126.2857142857142</ele><time>2026-04-09T09:11:43.086Z</time></trkpt><trkpt lat="41.1734067" lon="14.6028867"><ele>1126.5714285714287</ele><time>2026-04-09T09:11:44.086Z</time></trkpt><trkpt lat="41.173465" lon="14.6028417"><ele>1126.857142857143</ele><time>2026-04-09T09:11:45.086Z</time></trkpt><trkpt lat="41.173525" lon="14.602795"><ele>1127.142857142857</ele><time>2026-04-09T09:11:46.086Z</time></trkpt><trkpt lat="41.1735867" lon="14.602745"><ele>1127.4285714285713</ele><time>2026-04-09T09:11:47.086Z</time></trkpt><trkpt lat="41.17365" lon="14.6026917"><ele>1127.7142857142858</ele><time>2026-04-09T09:11:48.086Z</time></trkpt><trkpt lat="41.1737133" lon="14.602635"><ele>1128.0</ele><time>2026-04-09T09:11:49.086Z</time></trkpt><trkpt lat="41.1737833" lon="14.602575"><ele>1128.0</ele><time>2026-04-09T09:11:50.086Z</time></trkpt><trkpt lat="41.1738583" lon="14.60251"><ele>1128.0</ele><time>2026-04-09T09:11:51.086Z</time></trkpt><trkpt lat="41.1739333" lon="14.6024367"><ele>1128.0</ele><time>2026-04-09T09:11:52.086Z</time></trkpt><trkpt lat="41.1739983" lon="14.602365"><ele>1128.0</ele><time>2026-04-09T09:11:53.086Z</time></trkpt><trkpt lat="41.174055" lon="14.6023"><ele>1128.0</ele><time>2026-04-09T09:11:54.086Z</time></trkpt><trkpt lat="41.1741117" lon="14.6022133"><ele>1128.0</ele><time>2026-04-09T09:11:55.086Z</time></trkpt><trkpt lat="41.1741633" lon="14.6021317"><ele>1129.8333333333333</ele><time>2026-04-09T09:11:56.086Z</time></trkpt><trkpt lat="41.17421" lon="14.6020483"><ele>1131.6666666666667</ele><time>2026-04-09T09:11:57.086Z</time></trkpt><trkpt lat="41.1742583" lon="14.601975"><ele>1133.5</ele><time>2026-04-09T09:11:58.086Z</time></trkpt><trkpt lat="41.1743067" lon="14.6018983"><ele>1135.3333333333335</ele><time>2026-04-09T09:11:59.086Z</time></trkpt><trkpt lat="41.1743517" lon="14.60183"><ele>1137.1666666666667</ele><time>2026-04-09T09:12:00.086Z</time></trkpt><trkpt lat="41.1743967" lon="14.60177"><ele>1139.0</ele><time>2026-04-09T09:12:01.086Z</time></trkpt><trkpt lat="41.1744633" lon="14.601675"><ele>1139.0</ele><time>2026-04-09T09:12:03.086Z</time></trkpt><trkpt lat="41.1745033" lon="14.6016083"><ele>1139.0</ele><time>2026-04-09T09:12:05.086Z</time></trkpt><trkpt lat="41.1745467" lon="14.6015467"><ele>1139.0</ele><time>2026-04-09T09:12:08.086Z</time></trkpt><trkpt lat="41.1746383" lon="14.601505"><ele>1139.0</ele><time>2026-04-09T09:17:21.085Z</time></trkpt><trkpt lat="41.1746683" lon="14.6016067"><ele>1139.0</ele><time>2026-04-09T09:18:23.085Z</time></trkpt><trkpt lat="41.1746217" lon="14.6017083"><ele>1139.0</ele><time>2026-04-09T09:18:25.085Z</time></trkpt><trkpt lat="41.1745733" lon="14.601805"><ele>1139.0</ele><time>2026-04-09T09:18:27.085Z</time></trkpt><trkpt lat="41.174545" lon="14.6018967"><ele>1139.0</ele><time>2026-04-09T09:18:29.085Z</time></trkpt><trkpt lat="41.1745317" lon="14.6019817"><ele>1139.0</ele><time>2026-04-09T09:18:31.085Z</time></trkpt><trkpt lat="41.1745033" lon="14.6018917"><ele>1139.0</ele><time>2026-04-09T09:19:11.085Z</time></trkpt><trkpt lat="41.174535" lon="14.601815"><ele>1139.0</ele><time>2026-04-09T09:19:13.085Z</time></trkpt><trkpt lat="41.1746" lon="14.601675"><ele>1139.0</ele><time>2026-04-09T09:19:53.085Z</time></trkpt><trkpt lat="41.174645" lon="14.60158"><ele>1139.0</ele><time>2026-04-09T09:19:55.085Z</time></trkpt><trkpt lat="41.17469" lon="14.601475"><ele>1139.0</ele><time>2026-04-09T09:19:57.085Z</time></trkpt><trkpt lat="41.174735" lon="14.6013417"><ele>1139.0</ele><time>2026-04-09T09:19:59.085Z</time></trkpt><trkpt lat="41.1747883" lon="14.6011967"><ele>1139.0</ele><time>2026-04-09T09:20:01.085Z</time></trkpt><trkpt lat="41.1748233" lon="14.6011117"><ele>1139.0</ele><time>2026-04-09T09:20:02.085Z</time></trkpt><trkpt lat="41.17486" lon="14.6010217"><ele>1141.8333333333335</ele><time>2026-04-09T09:20:03.085Z</time></trkpt><trkpt lat="41.1749033" lon="14.6009317"><ele>1144.6666666666667</ele><time>2026-04-09T09:20:04.085Z</time></trkpt><trkpt lat="41.1749417" lon="14.60085"><ele>1147.5</ele><time>2026-04-09T09:20:05.085Z</time></trkpt><trkpt lat="41.175" lon="14.6007117"><ele>1150.3333333333333</ele><time>2026-04-09T09:20:07.085Z</time></trkpt><trkpt lat="41.175035" lon="14.6006183"><ele>1153.1666666666665</ele><time>2026-04-09T09:20:08.085Z</time></trkpt><trkpt lat="41.1750817" lon="14.60051"><ele>1156.0</ele><time>2026-04-09T09:20:09.085Z</time></trkpt><trkpt lat="41.1751267" lon="14.6003917"><ele>1155.0</ele><time>2026-04-09T09:20:10.085Z</time></trkpt><trkpt lat="41.17516" lon="14.6002633"><ele>1154.0</ele><time>2026-04-09T09:20:11.085Z</time></trkpt><trkpt lat="41.1751883" lon="14.60013"><ele>1153.0</ele><time>2026-04-09T09:20:12.085Z</time></trkpt><trkpt lat="41.1752233" lon="14.5999917"><ele>1152.0</ele><time>2026-04-09T09:20:13.085Z</time></trkpt><trkpt lat="41.1752583" lon="14.5998417"><ele>1151.0</ele><time>2026-04-09T09:20:14.085Z</time></trkpt><trkpt lat="41.1752967" lon="14.5996883"><ele>1151.0</ele><time>2026-04-09T09:20:15.085Z</time></trkpt><trkpt lat="41.175335" lon="14.5995417"><ele>1151.0</ele><time>2026-04-09T09:20:16.085Z</time></trkpt><trkpt lat="41.1753767" lon="14.5993883"><ele>1151.0</ele><time>2026-04-09T09:20:17.085Z</time></trkpt><trkpt lat="41.1754167" lon="14.5992367"><ele>1151.0</ele><time>2026-04-09T09:20:18.085Z</time></trkpt><trkpt lat="41.1754583" lon="14.5990883"><ele>1150.5</ele><time>2026-04-09T09:20:19.085Z</time></trkpt><trkpt lat="41.1755017" lon="14.5989367"><ele>1150.0</ele><time>2026-04-09T09:20:20.085Z</time></trkpt><trkpt lat="41.1755467" lon="14.5987867"><ele>1149.5</ele><time>2026-04-09T09:20:21.085Z</time></trkpt><trkpt lat="41.175585" lon="14.5986267"><ele>1149.0</ele><time>2026-04-09T09:20:22.085Z</time></trkpt><trkpt lat="41.175625" lon="14.5984633"><ele>1149.0</ele><time>2026-04-09T09:20:23.085Z</time></trkpt><trkpt lat="41.175665" lon="14.5983"><ele>1149.0</ele><time>2026-04-09T09:20:24.085Z</time></trkpt><trkpt lat="41.1757033" lon="14.5981367"><ele>1149.0</ele><time>2026-04-09T09:20:25.085Z</time></trkpt><trkpt lat="41.1757433" lon="14.5979733"><ele>1149.0</ele><time>2026-04-09T09:20:26.085Z</time></trkpt><trkpt lat="41.1757817" lon="14.597815"><ele>1156.0</ele><time>2026-04-09T09:20:27.085Z</time></trkpt><trkpt lat="41.1758133" lon="14.5976617"><ele>1163.0</ele><time>2026-04-09T09:20:28.085Z</time></trkpt><trkpt lat="41.1758467" lon="14.5975033"><ele>1170.0</ele><time>2026-04-09T09:20:29.085Z</time></trkpt><trkpt lat="41.1758683" lon="14.5973483"><ele>1177.0</ele><time>2026-04-09T09:20:30.085Z</time></trkpt><trkpt lat="41.1759" lon="14.597185"><ele>1177.0</ele><time>2026-04-09T09:20:31.085Z</time></trkpt><trkpt lat="41.175925" lon="14.5970217"><ele>1177.0</ele><time>2026-04-09T09:20:32.085Z</time></trkpt><trkpt lat="41.1759483" lon="14.596865"><ele>1177.0</ele><time>2026-04-09T09:20:33.085Z</time></trkpt><trkpt lat="41.1759633" lon="14.5967117"><ele>1177.0</ele><time>2026-04-09T09:20:34.085Z</time></trkpt><trkpt lat="41.1759733" lon="14.59656"><ele>1177.4</ele><time>2026-04-09T09:20:35.085Z</time></trkpt><trkpt lat="41.175975" lon="14.596405"><ele>1177.8000000000002</ele><time>2026-04-09T09:20:36.085Z</time></trkpt><trkpt lat="41.17597" lon="14.5962567"><ele>1178.2</ele><time>2026-04-09T09:20:37.085Z</time></trkpt><trkpt lat="41.175975" lon="14.5961183"><ele>1178.6000000000001</ele><time>2026-04-09T09:20:38.085Z</time></trkpt><trkpt lat="41.1759817" lon="14.5959783"><ele>1179.0</ele><time>2026-04-09T09:20:39.085Z</time></trkpt><trkpt lat="41.175975" lon="14.5958433"><ele>1179.8333333333333</ele><time>2026-04-09T09:20:40.085Z</time></trkpt><trkpt lat="41.1759717" lon="14.5957167"><ele>1180.6666666666667</ele><time>2026-04-09T09:20:41.085Z</time></trkpt><trkpt lat="41.1759667" lon="14.5955983"><ele>1181.5</ele><time>2026-04-09T09:20:42.085Z</time></trkpt><trkpt lat="41.1759667" lon="14.5954933"><ele>1182.3333333333335</ele><time>2026-04-09T09:20:43.085Z</time></trkpt><trkpt lat="41.17597" lon="14.5953933"><ele>1183.1666666666667</ele><time>2026-04-09T09:20:44.085Z</time></trkpt><trkpt lat="41.1759633" lon="14.5953017"><ele>1184.0</ele><time>2026-04-09T09:20:45.085Z</time></trkpt><trkpt lat="41.1759567" lon="14.5952133"><ele>1185.1666666666667</ele><time>2026-04-09T09:20:46.085Z</time></trkpt><trkpt lat="41.17594" lon="14.5951233"><ele>1186.3333333333335</ele><time>2026-04-09T09:20:47.085Z</time></trkpt><trkpt lat="41.175915" lon="14.5949833"><ele>1187.5</ele><time>2026-04-09T09:20:49.085Z</time></trkpt><trkpt lat="41.1759117" lon="14.59488"><ele>1188.6666666666667</ele><time>2026-04-09T09:20:51.085Z</time></trkpt><trkpt lat="41.1759083" lon="14.5947933"><ele>1189.8333333333333</ele><time>2026-04-09T09:20:53.085Z</time></trkpt><trkpt lat="41.17589" lon="14.5946883"><ele>1191.0</ele><time>2026-04-09T09:20:55.085Z</time></trkpt><trkpt lat="41.1758567" lon="14.5945367"><ele>1191.8</ele><time>2026-04-09T09:20:57.085Z</time></trkpt><trkpt lat="41.1758433" lon="14.5944417"><ele>1192.6</ele><time>2026-04-09T09:20:58.085Z</time></trkpt><trkpt lat="41.175825" lon="14.5943233"><ele>1193.4</ele><time>2026-04-09T09:20:59.085Z</time></trkpt><trkpt lat="41.1758117" lon="14.5941933"><ele>1194.2</ele><time>2026-04-09T09:21:00.085Z</time></trkpt><trkpt lat="41.1758033" lon="14.5940433"><ele>1195.0</ele><time>2026-04-09T09:21:01.085Z</time></trkpt><trkpt lat="41.1758283" lon="14.59387"><ele>1195.0</ele><time>2026-04-09T09:21:02.085Z</time></trkpt><trkpt lat="41.17584" lon="14.5937067"><ele>1195.0</ele><time>2026-04-09T09:21:03.085Z</time></trkpt><trkpt lat="41.1758617" lon="14.59356"><ele>1195.0</ele><time>2026-04-09T09:21:04.085Z</time></trkpt><trkpt lat="41.1758883" lon="14.5934233"><ele>1195.0</ele><time>2026-04-09T09:21:05.085Z</time></trkpt><trkpt lat="41.17592" lon="14.593305"><ele>1195.0</ele><time>2026-04-09T09:21:06.085Z</time></trkpt><trkpt lat="41.1759517" lon="14.5931917"><ele>1195.2</ele><time>2026-04-09T09:21:07.085Z</time></trkpt><trkpt lat="41.1759717" lon="14.593075"><ele>1195.4</ele><time>2026-04-09T09:21:08.085Z</time></trkpt><trkpt lat="41.1759717" lon="14.59296"><ele>1195.6</ele><time>2026-04-09T09:21:09.085Z</time></trkpt><trkpt lat="41.17596" lon="14.59283"><ele>1195.8</ele><time>2026-04-09T09:21:10.085Z</time></trkpt><trkpt lat="41.1759117" lon="14.592685"><ele>1196.0</ele><time>2026-04-09T09:21:11.085Z</time></trkpt><trkpt lat="41.17585" lon="14.5925633"><ele>1195.8333333333335</ele><time>2026-04-09T09:21:12.085Z</time></trkpt><trkpt lat="41.1757833" lon="14.592455"><ele>1195.6666666666667</ele><time>2026-04-09T09:21:13.085Z</time></trkpt><trkpt lat="41.175725" lon="14.59237"><ele>1195.5</ele><time>2026-04-09T09:21:14.085Z</time></trkpt><trkpt lat="41.1756683" lon="14.5922883"><ele>1195.3333333333333</ele><time>2026-04-09T09:21:15.085Z</time></trkpt><trkpt lat="41.1755983" lon="14.5922133"><ele>1195.1666666666665</ele><time>2026-04-09T09:21:16.085Z</time></trkpt><trkpt lat="41.175535" lon="14.5921433"><ele>1195.0</ele><time>2026-04-09T09:21:17.085Z</time></trkpt><trkpt lat="41.1754617" lon="14.5920833"><ele>1195.0</ele><time>2026-04-09T09:21:18.085Z</time></trkpt><trkpt lat="41.1753867" lon="14.59203"><ele>1195.0</ele><time>2026-04-09T09:21:19.085Z</time></trkpt><trkpt lat="41.1753117" lon="14.591965"><ele>1195.0</ele><time>2026-04-09T09:21:20.085Z</time></trkpt><trkpt lat="41.17524" lon="14.5918917"><ele>1195.0</ele><time>2026-04-09T09:21:21.085Z</time></trkpt><trkpt lat="41.175175" lon="14.5918283"><ele>1195.0</ele><time>2026-04-09T09:21:22.085Z</time></trkpt><trkpt lat="41.1751133" lon="14.59176"><ele>1195.0</ele><time>2026-04-09T09:21:23.085Z</time></trkpt><trkpt lat="41.1750617" lon="14.591695"><ele>1196.6666666666665</ele><time>2026-04-09T09:21:24.085Z</time></trkpt><trkpt lat="41.1750117" lon="14.59163"><ele>1198.3333333333333</ele><time>2026-04-09T09:21:25.085Z</time></trkpt><trkpt lat="41.1749183" lon="14.5915233"><ele>1200.0</ele><time>2026-04-09T09:21:27.085Z</time></trkpt><trkpt lat="41.17487" lon="14.5914617"><ele>1201.6666666666667</ele><time>2026-04-09T09:21:28.085Z</time></trkpt><trkpt lat="41.1748233" lon="14.5913933"><ele>1203.3333333333335</ele><time>2026-04-09T09:21:29.085Z</time></trkpt><trkpt lat="41.1747733" lon="14.591325"><ele>1205.0</ele><time>2026-04-09T09:21:30.085Z</time></trkpt><trkpt lat="41.1747167" lon="14.5912433"><ele>1204.8333333333335</ele><time>2026-04-09T09:21:31.085Z</time></trkpt><trkpt lat="41.17466" lon="14.5911517"><ele>1204.6666666666667</ele><time>2026-04-09T09:21:32.085Z</time></trkpt><trkpt lat="41.1746" lon="14.5910667"><ele>1204.5</ele><time>2026-04-09T09:21:33.085Z</time></trkpt><trkpt lat="41.17454" lon="14.5909933"><ele>1204.3333333333333</ele><time>2026-04-09T09:21:34.085Z</time></trkpt><trkpt lat="41.1744817" lon="14.5909133"><ele>1204.1666666666665</ele><time>2026-04-09T09:21:35.085Z</time></trkpt><trkpt lat="41.1744183" lon="14.5908317"><ele>1204.0</ele><time>2026-04-09T09:21:36.085Z</time></trkpt><trkpt lat="41.1743533" lon="14.5907517"><ele>1204.0</ele><time>2026-04-09T09:21:37.085Z</time></trkpt><trkpt lat="41.1742867" lon="14.59068"><ele>1204.0</ele><time>2026-04-09T09:21:38.085Z</time></trkpt><trkpt lat="41.1742267" lon="14.5905983"><ele>1204.0</ele><time>2026-04-09T09:21:39.085Z</time></trkpt><trkpt lat="41.174165" lon="14.59052"><ele>1204.0</ele><time>2026-04-09T09:21:40.085Z</time></trkpt><trkpt lat="41.174105" lon="14.5904483"><ele>1204.0</ele><time>2026-04-09T09:21:41.085Z</time></trkpt><trkpt lat="41.1740433" lon="14.590375"><ele>1204.0</ele><time>2026-04-09T09:21:42.085Z</time></trkpt><trkpt lat="41.1739833" lon="14.5903067"><ele>1203.6000000000001</ele><time>2026-04-09T09:21:43.085Z</time></trkpt><trkpt lat="41.1739217" lon="14.5902367"><ele>1203.2</ele><time>2026-04-09T09:21:44.085Z</time></trkpt><trkpt lat="41.1738533" lon="14.5901517"><ele>1202.8000000000002</ele><time>2026-04-09T09:21:45.085Z</time></trkpt><trkpt lat="41.17378" lon="14.5900783"><ele>1202.4</ele><time>2026-04-09T09:21:46.085Z</time></trkpt><trkpt lat="41.173715" lon="14.58999"><ele>1202.0</ele><time>2026-04-09T09:21:47.085Z</time></trkpt><trkpt lat="41.173645" lon="14.5899017"><ele>1202.0</ele><time>2026-04-09T09:21:48.085Z</time></trkpt><trkpt lat="41.1735783" lon="14.5898217"><ele>1202.0</ele><time>2026-04-09T09:21:49.085Z</time></trkpt><trkpt lat="41.1735117" lon="14.5897433"><ele>1202.0</ele><time>2026-04-09T09:21:50.085Z</time></trkpt><trkpt lat="41.1734317" lon="14.589645"><ele>1202.0</ele><time>2026-04-09T09:21:51.085Z</time></trkpt><trkpt lat="41.1733467" lon="14.58954"><ele>1202.0</ele><time>2026-04-09T09:21:52.085Z</time></trkpt><trkpt lat="41.17327" lon="14.589425"><ele>1201.2</ele><time>2026-04-09T09:21:53.085Z</time></trkpt><trkpt lat="41.1731967" lon="14.5893283"><ele>1200.4</ele><time>2026-04-09T09:21:54.085Z</time></trkpt><trkpt lat="41.1731333" lon="14.589245"><ele>1199.6</ele><time>2026-04-09T09:21:55.085Z</time></trkpt><trkpt lat="41.1730683" lon="14.5891733"><ele>1198.8</ele><time>2026-04-09T09:21:56.085Z</time></trkpt><trkpt lat="41.1730017" lon="14.589105"><ele>1198.0</ele><time>2026-04-09T09:21:57.085Z</time></trkpt><trkpt lat="41.17293" lon="14.5890333"><ele>1198.0</ele><time>2026-04-09T09:21:58.085Z</time></trkpt><trkpt lat="41.1728517" lon="14.588965"><ele>1198.0</ele><time>2026-04-09T09:21:59.085Z</time></trkpt><trkpt lat="41.1727767" lon="14.5888917"><ele>1198.0</ele><time>2026-04-09T09:22:00.085Z</time></trkpt><trkpt lat="41.1726967" lon="14.588805"><ele>1198.0</ele><time>2026-04-09T09:22:01.085Z</time></trkpt><trkpt lat="41.17261" lon="14.5887083"><ele>1198.0</ele><time>2026-04-09T09:22:02.085Z</time></trkpt><trkpt lat="41.17252" lon="14.5885983"><ele>1194.25</ele><time>2026-04-09T09:22:03.085Z</time></trkpt><trkpt lat="41.172425" lon="14.5884783"><ele>1190.5</ele><time>2026-04-09T09:22:04.085Z</time></trkpt><trkpt lat="41.1723383" lon="14.588365"><ele>1186.75</ele><time>2026-04-09T09:22:05.085Z</time></trkpt><trkpt lat="41.1722533" lon="14.5882517"><ele>1183.0</ele><time>2026-04-09T09:22:06.085Z</time></trkpt><trkpt lat="41.172175" lon="14.58814"><ele>1183.0</ele><time>2026-04-09T09:22:07.085Z</time></trkpt><trkpt lat="41.1721017" lon="14.5880317"><ele>1183.0</ele><time>2026-04-09T09:22:08.085Z</time></trkpt><trkpt lat="41.1720367" lon="14.58794"><ele>1183.0</ele><time>2026-04-09T09:22:09.085Z</time></trkpt><trkpt lat="41.1719733" lon="14.5878567"><ele>1183.0</ele><time>2026-04-09T09:22:10.085Z</time></trkpt><trkpt lat="41.171905" lon="14.5877633"><ele>1183.0</ele><time>2026-04-09T09:22:11.085Z</time></trkpt><trkpt lat="41.171845" lon="14.5876783"><ele>1180.2</ele><time>2026-04-09T09:22:12.085Z</time></trkpt><trkpt lat="41.17178" lon="14.5875867"><ele>1177.4</ele><time>2026-04-09T09:22:13.085Z</time></trkpt><trkpt lat="41.1717067" lon="14.5874867"><ele>1174.6000000000001</ele><time>2026-04-09T09:22:14.085Z</time></trkpt><trkpt lat="41.1716283" lon="14.5874033"><ele>1171.8</ele><time>2026-04-09T09:22:15.085Z</time></trkpt><trkpt lat="41.17156" lon="14.587325"><ele>1169.0</ele><time>2026-04-09T09:22:16.085Z</time></trkpt><trkpt lat="41.171485" lon="14.5872717"><ele>1169.0</ele><time>2026-04-09T09:22:17.085Z</time></trkpt><trkpt lat="41.1714083" lon="14.5872367"><ele>1169.0</ele><time>2026-04-09T09:22:18.085Z</time></trkpt><trkpt lat="41.1713367" lon="14.5872"><ele>1169.0</ele><time>2026-04-09T09:22:19.085Z</time></trkpt><trkpt lat="41.17126" lon="14.5871483"><ele>1169.0</ele><time>2026-04-09T09:22:20.085Z</time></trkpt><trkpt lat="41.1711833" lon="14.5870733"><ele>1169.0</ele><time>2026-04-09T09:22:21.085Z</time></trkpt><trkpt lat="41.1711067" lon="14.5869867"><ele>1169.0</ele><time>2026-04-09T09:22:22.085Z</time></trkpt><trkpt lat="41.1710317" lon="14.5868883"><ele>1167.2</ele><time>2026-04-09T09:22:23.085Z</time></trkpt><trkpt lat="41.170955" lon="14.5867917"><ele>1165.4</ele><time>2026-04-09T09:22:24.085Z</time></trkpt><trkpt lat="41.1708783" lon="14.5867083"><ele>1163.6</ele><time>2026-04-09T09:22:25.085Z</time></trkpt><trkpt lat="41.170795" lon="14.5866283"><ele>1161.8</ele><time>2026-04-09T09:22:26.085Z</time></trkpt><trkpt lat="41.1707167" lon="14.5865433"><ele>1160.0</ele><time>2026-04-09T09:22:27.085Z</time></trkpt><trkpt lat="41.170635" lon="14.5864517"><ele>1160.0</ele><time>2026-04-09T09:22:28.085Z</time></trkpt><trkpt lat="41.170555" lon="14.5863483"><ele>1160.0</ele><time>2026-04-09T09:22:29.085Z</time></trkpt><trkpt lat="41.1704933" lon="14.58624"><ele>1160.0</ele><time>2026-04-09T09:22:30.085Z</time></trkpt><trkpt lat="41.17045" lon="14.5861283"><ele>1160.0</ele><time>2026-04-09T09:22:31.085Z</time></trkpt><trkpt lat="41.1704167" lon="14.5860133"><ele>1160.0</ele><time>2026-04-09T09:22:32.085Z</time></trkpt><trkpt lat="41.1703917" lon="14.5858867"><ele>1156.2</ele><time>2026-04-09T09:22:33.085Z</time></trkpt><trkpt lat="41.1703717" lon="14.5857533"><ele>1152.4</ele><time>2026-04-09T09:22:34.085Z</time></trkpt><trkpt lat="41.1703467" lon="14.5856267"><ele>1148.6</ele><time>2026-04-09T09:22:35.085Z</time></trkpt><trkpt lat="41.1703167" lon="14.58552"><ele>1144.8</ele><time>2026-04-09T09:22:36.085Z</time></trkpt><trkpt lat="41.170285" lon="14.5854233"><ele>1141.0</ele><time>2026-04-09T09:22:37.085Z</time></trkpt><trkpt lat="41.1702817" lon="14.5852617"><ele>1139.8333333333333</ele><time>2026-04-09T09:22:39.085Z</time></trkpt><trkpt lat="41.170305" lon="14.5851767"><ele>1138.6666666666665</ele><time>2026-04-09T09:22:40.085Z</time></trkpt><trkpt lat="41.1703533" lon="14.5850983"><ele>1137.5</ele><time>2026-04-09T09:22:41.085Z</time></trkpt><trkpt lat="41.170415" lon="14.5850383"><ele>1136.3333333333333</ele><time>2026-04-09T09:22:42.085Z</time></trkpt><trkpt lat="41.1704983" lon="14.5849833"><ele>1135.1666666666667</ele><time>2026-04-09T09:22:43.085Z</time></trkpt><trkpt lat="41.170585" lon="14.5849583"><ele>1134.0</ele><time>2026-04-09T09:22:44.085Z</time></trkpt><trkpt lat="41.1706633" lon="14.58497"><ele>1131.8333333333333</ele><time>2026-04-09T09:22:45.085Z</time></trkpt><trkpt lat="41.170735" lon="14.585015"><ele>1129.6666666666667</ele><time>2026-04-09T09:22:46.085Z</time></trkpt><trkpt lat="41.1708" lon="14.5850917"><ele>1127.5</ele><time>2026-04-09T09:22:47.085Z</time></trkpt><trkpt lat="41.17083" lon="14.5852"><ele>1125.3333333333335</ele><time>2026-04-09T09:22:48.085Z</time></trkpt><trkpt lat="41.1708517" lon="14.5853067"><ele>1123.1666666666667</ele><time>2026-04-09T09:22:49.085Z</time></trkpt><trkpt lat="41.1708667" lon="14.5854233"><ele>1121.0</ele><time>2026-04-09T09:22:50.085Z</time></trkpt><trkpt lat="41.1708933" lon="14.5855283"><ele>1121.0</ele><time>2026-04-09T09:22:51.085Z</time></trkpt><trkpt lat="41.1709167" lon="14.5856267"><ele>1121.0</ele><time>2026-04-09T09:22:52.085Z</time></trkpt><trkpt lat="41.1709467" lon="14.5857133"><ele>1121.0</ele><time>2026-04-09T09:22:53.085Z</time></trkpt><trkpt lat="41.17098" lon="14.5857867"><ele>1121.0</ele><time>2026-04-09T09:22:54.085Z</time></trkpt><trkpt lat="41.17103" lon="14.5858433"><ele>1121.0</ele><time>2026-04-09T09:22:55.085Z</time></trkpt><trkpt lat="41.17108" lon="14.5858967"><ele>1121.0</ele><time>2026-04-09T09:22:56.085Z</time></trkpt><trkpt lat="41.171205" lon="14.5859317"><ele>1121.0</ele><time>2026-04-09T09:22:58.085Z</time></trkpt><trkpt lat="41.1712867" lon="14.58591"><ele>1121.0</ele><time>2026-04-09T09:22:59.085Z</time></trkpt><trkpt lat="41.1713733" lon="14.585865"><ele>1121.0</ele><time>2026-04-09T09:23:00.085Z</time></trkpt><trkpt lat="41.1714733" lon="14.5857983"><ele>1121.0</ele><time>2026-04-09T09:23:01.085Z</time></trkpt><trkpt lat="41.1715667" lon="14.585725"><ele>1121.0</ele><time>2026-04-09T09:23:02.085Z</time></trkpt><trkpt lat="41.1716533" lon="14.5856483"><ele>1119.1666666666667</ele><time>2026-04-09T09:23:03.085Z</time></trkpt><trkpt lat="41.1717333" lon="14.5855917"><ele>1117.3333333333335</ele><time>2026-04-09T09:23:04.085Z</time></trkpt><trkpt lat="41.1718117" lon="14.5855317"><ele>1115.5</ele><time>2026-04-09T09:23:05.085Z</time></trkpt><trkpt lat="41.1718883" lon="14.5854717"><ele>1113.6666666666667</ele><time>2026-04-09T09:23:06.085Z</time></trkpt><trkpt lat="41.1719583" lon="14.585415"><ele>1111.8333333333333</ele><time>2026-04-09T09:23:07.085Z</time></trkpt><trkpt lat="41.1720283" lon="14.585375"><ele>1110.0</ele><time>2026-04-09T09:23:08.085Z</time></trkpt><trkpt lat="41.1720883" lon="14.5853367"><ele>1108.8333333333333</ele><time>2026-04-09T09:23:09.085Z</time></trkpt><trkpt lat="41.1721483" lon="14.585305"><ele>1107.6666666666667</ele><time>2026-04-09T09:23:10.085Z</time></trkpt><trkpt lat="41.1722083" lon="14.5852717"><ele>1106.5</ele><time>2026-04-09T09:23:11.085Z</time></trkpt><trkpt lat="41.1722733" lon="14.585235"><ele>1105.3333333333335</ele><time>2026-04-09T09:23:12.085Z</time></trkpt><trkpt lat="41.172345" lon="14.5851883"><ele>1104.1666666666667</ele><time>2026-04-09T09:23:13.085Z</time></trkpt><trkpt lat="41.17243" lon="14.5851367"><ele>1103.0</ele><time>2026-04-09T09:23:14.085Z</time></trkpt><trkpt lat="41.1725183" lon="14.5850733"><ele>1101.0</ele><time>2026-04-09T09:23:15.085Z</time></trkpt><trkpt lat="41.1726067" lon="14.58501"><ele>1099.0</ele><time>2026-04-09T09:23:16.085Z</time></trkpt><trkpt lat="41.1726933" lon="14.58495"><ele>1097.0</ele><time>2026-04-09T09:23:17.085Z</time></trkpt><trkpt lat="41.172785" lon="14.5848967"><ele>1095.0</ele><time>2026-04-09T09:23:18.085Z</time></trkpt><trkpt lat="41.1728667" lon="14.5848467"><ele>1093.0</ele><time>2026-04-09T09:23:19.085Z</time></trkpt><trkpt lat="41.1729433" lon="14.584795"><ele>1093.0</ele><time>2026-04-09T09:23:20.085Z</time></trkpt><trkpt lat="41.1730217" lon="14.58474"><ele>1093.0</ele><time>2026-04-09T09:23:21.085Z</time></trkpt><trkpt lat="41.1730967" lon="14.584685"><ele>1093.0</ele><time>2026-04-09T09:23:22.085Z</time></trkpt><trkpt lat="41.1731683" lon="14.5846317"><ele>1093.0</ele><time>2026-04-09T09:23:23.085Z</time></trkpt><trkpt lat="41.173235" lon="14.584575"><ele>1093.0</ele><time>2026-04-09T09:23:24.085Z</time></trkpt><trkpt lat="41.1732883" lon="14.5845117"><ele>1093.0</ele><time>2026-04-09T09:23:25.085Z</time></trkpt><trkpt lat="41.1733367" lon="14.5844333"><ele>1090.8333333333333</ele><time>2026-04-09T09:23:26.085Z</time></trkpt><trkpt lat="41.17338" lon="14.5843483"><ele>1088.6666666666665</ele><time>2026-04-09T09:23:27.085Z</time></trkpt><trkpt lat="41.1734267" lon="14.5842667"><ele>1086.5</ele><time>2026-04-09T09:23:28.085Z</time></trkpt><trkpt lat="41.173475" lon="14.58418"><ele>1084.3333333333333</ele><time>2026-04-09T09:23:29.085Z</time></trkpt><trkpt lat="41.1735283" lon="14.5840967"><ele>1082.1666666666667</ele><time>2026-04-09T09:23:30.085Z</time></trkpt><trkpt lat="41.1735733" lon="14.5840083"><ele>1080.0</ele><time>2026-04-09T09:23:31.085Z</time></trkpt><trkpt lat="41.17361" lon="14.5839183"><ele>1080.0</ele><time>2026-04-09T09:23:32.085Z</time></trkpt><trkpt lat="41.173645" lon="14.58382"><ele>1080.0</ele><time>2026-04-09T09:23:33.085Z</time></trkpt><trkpt lat="41.1736767" lon="14.5837267"><ele>1080.0</ele><time>2026-04-09T09:23:34.085Z</time></trkpt><trkpt lat="41.1736933" lon="14.5836333"><ele>1080.0</ele><time>2026-04-09T09:23:35.085Z</time></trkpt><trkpt lat="41.1737017" lon="14.5835333"><ele>1080.0</ele><time>2026-04-09T09:23:36.085Z</time></trkpt><trkpt lat="41.1737083" lon="14.5834383"><ele>1080.0</ele><time>2026-04-09T09:23:37.085Z</time></trkpt><trkpt lat="41.1737283" lon="14.5832717"><ele>1081.142857142857</ele><time>2026-04-09T09:23:39.085Z</time></trkpt><trkpt lat="41.17374" lon="14.5831817"><ele>1082.2857142857142</ele><time>2026-04-09T09:23:40.085Z</time></trkpt><trkpt lat="41.1737567" lon="14.5830933"><ele>1083.4285714285713</ele><time>2026-04-09T09:23:41.085Z</time></trkpt><trkpt lat="41.1737667" lon="14.5830033"><ele>1084.5714285714284</ele><time>2026-04-09T09:23:42.085Z</time></trkpt><trkpt lat="41.1737667" lon="14.5829117"><ele>1085.7142857142858</ele><time>2026-04-09T09:23:43.085Z</time></trkpt><trkpt lat="41.1737633" lon="14.5828267"><ele>1086.8571428571427</ele><time>2026-04-09T09:23:44.085Z</time></trkpt><trkpt lat="41.1737683" lon="14.5827033"><ele>1088.0</ele><time>2026-04-09T09:23:46.085Z</time></trkpt><trkpt lat="41.1737783" lon="14.5826117"><ele>1088.0</ele><time>2026-04-09T09:23:50.085Z</time></trkpt><trkpt lat="41.1738233" lon="14.58244"><ele>1088.0</ele><time>2026-04-09T09:24:03.085Z</time></trkpt><trkpt lat="41.1738367" lon="14.582355"><ele>1088.0</ele><time>2026-04-09T09:24:05.085Z</time></trkpt><trkpt lat="41.1738567" lon="14.58225"><ele>1088.0</ele><time>2026-04-09T09:24:07.085Z</time></trkpt><trkpt lat="41.173875" lon="14.5821617"><ele>1088.0</ele><time>2026-04-09T09:24:09.085Z</time></trkpt><trkpt lat="41.1738933" lon="14.5820667"><ele>1088.0</ele><time>2026-04-09T09:24:30.085Z</time></trkpt><trkpt lat="41.17389" lon="14.5819817"><ele>1087.9999999999998</ele><time>2026-04-09T09:24:33.085Z</time></trkpt><trkpt lat="41.173875" lon="14.5819"><ele>1088.0</ele><time>2026-04-09T09:24:36.085Z</time></trkpt><trkpt lat="41.173855" lon="14.5818117"><ele>1088.0</ele><time>2026-04-09T09:24:41.085Z</time></trkpt><trkpt lat="41.1738067" lon="14.5817383"><ele>1088.0</ele><time>2026-04-09T09:24:45.085Z</time></trkpt><trkpt lat="41.1737517" lon="14.581665"><ele>1088.0</ele><time>2026-04-09T09:24:48.085Z</time></trkpt><trkpt lat="41.17372" lon="14.58159"><ele>1087.9999999999998</ele><time>2026-04-09T09:24:52.085Z</time></trkpt><trkpt lat="41.1736883" lon="14.581505"><ele>1088.0</ele><time>2026-04-09T09:25:00.085Z</time></trkpt><trkpt lat="41.1737033" lon="14.5814033"><ele>1088.0</ele><time>2026-04-09T09:25:14.085Z</time></trkpt><trkpt lat="41.1736683" lon="14.5813017"><ele>1088.0</ele><time>2026-04-09T09:25:17.085Z</time></trkpt><trkpt lat="41.1736667" lon="14.5812017"><ele>1088.0</ele><time>2026-04-09T09:25:20.085Z</time></trkpt><trkpt lat="41.1736917" lon="14.5810833"><ele>1088.0</ele><time>2026-04-09T09:25:23.086Z</time></trkpt><trkpt lat="41.1737233" lon="14.5809817"><ele>1088.0</ele><time>2026-04-09T09:25:26.085Z</time></trkpt><trkpt lat="41.1737467" lon="14.5809033"><ele>1088.0</ele><time>2026-04-09T09:25:29.085Z</time></trkpt><trkpt lat="41.1737083" lon="14.5807483"><ele>1088.0</ele><time>2026-04-09T09:26:35.085Z</time></trkpt><trkpt lat="41.1737233" lon="14.5806567"><ele>1088.0</ele><time>2026-04-09T09:26:38.085Z</time></trkpt><trkpt lat="41.1737533" lon="14.5805783"><ele>1088.0</ele><time>2026-04-09T09:26:40.085Z</time></trkpt><trkpt lat="41.1738483" lon="14.5803733"><ele>1088.0</ele><time>2026-04-09T09:27:09.085Z</time></trkpt><trkpt lat="41.1739167" lon="14.5803033"><ele>1088.0</ele><time>2026-04-09T09:27:12.085Z</time></trkpt><trkpt lat="41.17398" lon="14.580255"><ele>1084.6666666666667</ele><time>2026-04-09T09:27:15.085Z</time></trkpt><trkpt lat="41.1740333" lon="14.5802"><ele>1081.3333333333335</ele><time>2026-04-09T09:27:18.085Z</time></trkpt><trkpt lat="41.17405" lon="14.5801033"><ele>1078.0</ele><time>2026-04-09T09:27:21.085Z</time></trkpt><trkpt lat="41.1740583" lon="14.58001"><ele>1074.6666666666667</ele><time>2026-04-09T09:27:24.085Z</time></trkpt><trkpt lat="41.1740833" lon="14.5799183"><ele>1071.3333333333333</ele><time>2026-04-09T09:27:27.085Z</time></trkpt><trkpt lat="41.174105" lon="14.5798283"><ele>1068.0</ele><time>2026-04-09T09:27:30.085Z</time></trkpt><trkpt lat="41.17416" lon="14.5797233"><ele>1068.0</ele><time>2026-04-09T09:27:33.085Z</time></trkpt><trkpt lat="41.1742083" lon="14.5796167"><ele>1068.0</ele><time>2026-04-09T09:27:36.085Z</time></trkpt><trkpt lat="41.17424" lon="14.57954"><ele>1068.0</ele><time>2026-04-09T09:27:38.085Z</time></trkpt><trkpt lat="41.1742667" lon="14.5794633"><ele>1068.0</ele><time>2026-04-09T09:27:40.085Z</time></trkpt><trkpt lat="41.174285" lon="14.5793767"><ele>1068.0</ele><time>2026-04-09T09:27:42.085Z</time></trkpt><trkpt lat="41.1743167" lon="14.5792617"><ele>1068.0</ele><time>2026-04-09T09:27:44.085Z</time></trkpt><trkpt lat="41.1743567" lon="14.5791517"><ele>1069.6</ele><time>2026-04-09T09:27:46.085Z</time></trkpt><trkpt lat="41.17438" lon="14.5790483"><ele>1071.1999999999998</ele><time>2026-04-09T09:27:48.085Z</time></trkpt><trkpt lat="41.1743917" lon="14.5789633"><ele>1072.8</ele><time>2026-04-09T09:27:50.085Z</time></trkpt><trkpt lat="41.174395" lon="14.5788533"><ele>1074.3999999999999</ele><time>2026-04-09T09:27:52.085Z</time></trkpt><trkpt lat="41.17439" lon="14.5787583"><ele>1076.0</ele><time>2026-04-09T09:27:54.085Z</time></trkpt><trkpt lat="41.17436" lon="14.5785617"><ele>1077.5</ele><time>2026-04-09T09:28:09.085Z</time></trkpt><trkpt lat="41.1743883" lon="14.5784783"><ele>1079.0</ele><time>2026-04-09T09:28:31.085Z</time></trkpt><trkpt lat="41.174355" lon="14.57836"><ele>1080.5</ele><time>2026-04-09T09:28:35.085Z</time></trkpt><trkpt lat="41.1743383" lon="14.5782467"><ele>1082.0</ele><time>2026-04-09T09:28:38.085Z</time></trkpt><trkpt lat="41.174335" lon="14.57816"><ele>1083.5</ele><time>2026-04-09T09:28:40.085Z</time></trkpt><trkpt lat="41.1743233" lon="14.578065"><ele>1085.0</ele><time>2026-04-09T09:28:43.085Z</time></trkpt><trkpt lat="41.1743133" lon="14.5779717"><ele>1085.0</ele><time>2026-04-09T09:28:47.085Z</time></trkpt><trkpt lat="41.1743267" lon="14.5778533"><ele>1085.0</ele><time>2026-04-09T09:28:50.085Z</time></trkpt><trkpt lat="41.1743433" lon="14.577755"><ele>1085.0</ele><time>2026-04-09T09:28:52.085Z</time></trkpt><trkpt lat="41.1743617" lon="14.577655"><ele>1085.0</ele><time>2026-04-09T09:28:54.085Z</time></trkpt><trkpt lat="41.1744467" lon="14.5775567"><ele>1085.0</ele><time>2026-04-09T09:30:39.085Z</time></trkpt><trkpt lat="41.1745383" lon="14.5774933"><ele>1085.3333333333335</ele><time>2026-04-09T09:32:38.085Z</time></trkpt><trkpt lat="41.1744567" lon="14.5774633"><ele>1085.6666666666667</ele><time>2026-04-09T09:35:11.085Z</time></trkpt><trkpt lat="41.174545" lon="14.5774633"><ele>1086.0</ele><time>2026-04-09T09:36:06.085Z</time></trkpt><trkpt lat="41.1745067" lon="14.5775783"><ele>1086.3333333333333</ele><time>2026-04-09T09:36:51.085Z</time></trkpt><trkpt lat="41.1744517" lon="14.5776517"><ele>1086.6666666666665</ele><time>2026-04-09T09:37:35.085Z</time></trkpt><trkpt lat="41.1744217" lon="14.5777283"><ele>1087.0</ele><time>2026-04-09T09:37:37.085Z</time></trkpt><trkpt lat="41.1744" lon="14.5778317"><ele>1086.7142857142858</ele><time>2026-04-09T09:37:39.085Z</time></trkpt><trkpt lat="41.174415" lon="14.5779317"><ele>1086.4285714285713</ele><time>2026-04-09T09:37:41.085Z</time></trkpt><trkpt lat="41.1744417" lon="14.5780367"><ele>1086.142857142857</ele><time>2026-04-09T09:37:43.085Z</time></trkpt><trkpt lat="41.174455" lon="14.57812"><ele>1085.857142857143</ele><time>2026-04-09T09:37:45.085Z</time></trkpt><trkpt lat="41.1744667" lon="14.5782067"><ele>1085.5714285714284</ele><time>2026-04-09T09:37:47.085Z</time></trkpt><trkpt lat="41.174485" lon="14.5783167"><ele>1085.2857142857142</ele><time>2026-04-09T09:37:49.085Z</time></trkpt><trkpt lat="41.1745" lon="14.5784033"><ele>1085.0</ele><time>2026-04-09T09:37:51.085Z</time></trkpt><trkpt lat="41.1744983" lon="14.578515"><ele>1085.0</ele><time>2026-04-09T09:37:54.085Z</time></trkpt><trkpt lat="41.174495" lon="14.578605"><ele>1085.0</ele><time>2026-04-09T09:37:56.085Z</time></trkpt><trkpt lat="41.1744883" lon="14.5787"><ele>1085.0</ele><time>2026-04-09T09:37:58.085Z</time></trkpt><trkpt lat="41.1744883" lon="14.578785"><ele>1085.0</ele><time>2026-04-09T09:38:00.085Z</time></trkpt><trkpt lat="41.1744917" lon="14.5789083"><ele>1085.0</ele><time>2026-04-09T09:38:03.085Z</time></trkpt><trkpt lat="41.1744983" lon="14.57902"><ele>1085.0</ele><time>2026-04-09T09:38:06.085Z</time></trkpt><trkpt lat="41.1744967" lon="14.579135"><ele>1083.7142857142858</ele><time>2026-04-09T09:38:09.085Z</time></trkpt><trkpt lat="41.1744883" lon="14.57925"><ele>1082.4285714285716</ele><time>2026-04-09T09:38:12.085Z</time></trkpt><trkpt lat="41.17447" lon="14.579335"><ele>1081.142857142857</ele><time>2026-04-09T09:38:14.085Z</time></trkpt><trkpt lat="41.174445" lon="14.5794283"><ele>1079.857142857143</ele><time>2026-04-09T09:38:16.085Z</time></trkpt><trkpt lat="41.174415" lon="14.5795083"><ele>1078.5714285714287</ele><time>2026-04-09T09:38:18.085Z</time></trkpt><trkpt lat="41.1743767" lon="14.57959"><ele>1077.2857142857142</ele><time>2026-04-09T09:38:20.085Z</time></trkpt><trkpt lat="41.1743433" lon="14.579675"><ele>1076.0</ele><time>2026-04-09T09:38:22.085Z</time></trkpt><trkpt lat="41.1743183" lon="14.57976"><ele>1074.857142857143</ele><time>2026-04-09T09:38:24.085Z</time></trkpt><trkpt lat="41.1742917" lon="14.5798417"><ele>1073.7142857142858</ele><time>2026-04-09T09:38:26.085Z</time></trkpt><trkpt lat="41.1742633" lon="14.57993"><ele>1072.5714285714287</ele><time>2026-04-09T09:38:28.085Z</time></trkpt><trkpt lat="41.1742367" lon="14.58001"><ele>1071.4285714285716</ele><time>2026-04-09T09:38:30.085Z</time></trkpt><trkpt lat="41.174205" lon="14.580105"><ele>1070.2857142857142</ele><time>2026-04-09T09:38:32.085Z</time></trkpt><trkpt lat="41.1741717" lon="14.5801883"><ele>1069.1428571428573</ele><time>2026-04-09T09:38:34.085Z</time></trkpt><trkpt lat="41.1741217" lon="14.580255"><ele>1068.0</ele><time>2026-04-09T09:38:36.085Z</time></trkpt><trkpt lat="41.17404" lon="14.5803317"><ele>1070.1666666666667</ele><time>2026-04-09T09:38:39.085Z</time></trkpt><trkpt lat="41.1739867" lon="14.5803883"><ele>1072.3333333333333</ele><time>2026-04-09T09:38:41.085Z</time></trkpt><trkpt lat="41.17393" lon="14.5804583"><ele>1074.5</ele><time>2026-04-09T09:38:44.085Z</time></trkpt><trkpt lat="41.17387" lon="14.5805383"><ele>1076.6666666666665</ele><time>2026-04-09T09:38:47.085Z</time></trkpt><trkpt lat="41.173855" lon="14.58064"><ele>1078.8333333333333</ele><time>2026-04-09T09:38:54.085Z</time></trkpt><trkpt lat="41.1737783" lon="14.5807867"><ele>1081.0</ele><time>2026-04-09T09:39:24.085Z</time></trkpt><trkpt lat="41.173845" lon="14.5807"><ele>1081.0</ele><time>2026-04-09T09:41:53.085Z</time></trkpt><trkpt lat="41.1739533" lon="14.58069"><ele>1081.0</ele><time>2026-04-09T09:42:31.085Z</time></trkpt><trkpt lat="41.1738717" lon="14.580695"><ele>1081.0</ele><time>2026-04-09T09:43:04.085Z</time></trkpt><trkpt lat="41.1737817" lon="14.5807667"><ele>1081.0</ele><time>2026-04-09T09:44:13.085Z</time></trkpt><trkpt lat="41.17368" lon="14.5808133"><ele>1081.0</ele><time>2026-04-09T09:44:37.085Z</time></trkpt><trkpt lat="41.1737667" lon="14.5807717"><ele>1081.0</ele><time>2026-04-09T09:46:47.085Z</time></trkpt><trkpt lat="41.173815" lon="14.5808267"><ele>1081.0</ele><time>2026-04-09T09:48:22.085Z</time></trkpt><trkpt lat="41.1737933" lon="14.5809483"><ele>1081.0</ele><time>2026-04-09T09:48:24.085Z</time></trkpt><trkpt lat="41.1737633" lon="14.5810833"><ele>1081.0</ele><time>2026-04-09T09:48:26.085Z</time></trkpt><trkpt lat="41.1737467" lon="14.581195"><ele>1081.0</ele><time>2026-04-09T09:48:28.085Z</time></trkpt><trkpt lat="41.1737367" lon="14.58131"><ele>1081.0</ele><time>2026-04-09T09:48:31.085Z</time></trkpt><trkpt lat="41.17375" lon="14.58142"><ele>1082.1666666666665</ele><time>2026-04-09T09:48:34.085Z</time></trkpt><trkpt lat="41.173785" lon="14.5815017"><ele>1083.3333333333333</ele><time>2026-04-09T09:48:37.085Z</time></trkpt><trkpt lat="41.1738417" lon="14.5816"><ele>1084.5</ele><time>2026-04-09T09:48:48.085Z</time></trkpt><trkpt lat="41.17388" lon="14.581715"><ele>1085.6666666666667</ele><time>2026-04-09T09:48:51.085Z</time></trkpt><trkpt lat="41.17392" lon="14.5817933"><ele>1086.8333333333335</ele><time>2026-04-09T09:48:53.085Z</time></trkpt><trkpt lat="41.17396" lon="14.5818733"><ele>1088.0</ele><time>2026-04-09T09:48:55.085Z</time></trkpt><trkpt lat="41.1739783" lon="14.5819733"><ele>1088.4285714285713</ele><time>2026-04-09T09:48:57.085Z</time></trkpt><trkpt lat="41.173975" lon="14.58207"><ele>1088.857142857143</ele><time>2026-04-09T09:48:59.085Z</time></trkpt><trkpt lat="41.17395" lon="14.582155"><ele>1089.2857142857142</ele><time>2026-04-09T09:49:01.085Z</time></trkpt><trkpt lat="41.173915" lon="14.5822367"><ele>1089.7142857142858</ele><time>2026-04-09T09:49:03.085Z</time></trkpt><trkpt lat="41.1738767" lon="14.582315"><ele>1090.142857142857</ele><time>2026-04-09T09:49:05.085Z</time></trkpt><trkpt lat="41.17385" lon="14.582395"><ele>1090.5714285714284</ele><time>2026-04-09T09:49:07.085Z</time></trkpt><trkpt lat="41.1738267" lon="14.582485"><ele>1091.0</ele><time>2026-04-09T09:49:09.085Z</time></trkpt><trkpt lat="41.1738" lon="14.5826083"><ele>1091.0</ele><time>2026-04-09T09:49:11.085Z</time></trkpt><trkpt lat="41.1737833" lon="14.5827567"><ele>1091.0</ele><time>2026-04-09T09:49:13.085Z</time></trkpt><trkpt lat="41.1737767" lon="14.582855"><ele>1091.0</ele><time>2026-04-09T09:49:14.085Z</time></trkpt><trkpt lat="41.1737733" lon="14.5829533"><ele>1091.0</ele><time>2026-04-09T09:49:15.085Z</time></trkpt><trkpt lat="41.1737667" lon="14.5830633"><ele>1091.0</ele><time>2026-04-09T09:49:16.085Z</time></trkpt><trkpt lat="41.1737583" lon="14.5831917"><ele>1091.0</ele><time>2026-04-09T09:49:17.085Z</time></trkpt><trkpt lat="41.1737467" lon="14.5833183"><ele>1090.5</ele><time>2026-04-09T09:49:18.085Z</time></trkpt><trkpt lat="41.1737367" lon="14.5834333"><ele>1090.0</ele><time>2026-04-09T09:49:19.085Z</time></trkpt><trkpt lat="41.17372" lon="14.5835483"><ele>1089.5</ele><time>2026-04-09T09:49:20.085Z</time></trkpt><trkpt lat="41.1737017" lon="14.583665"><ele>1089.0</ele><time>2026-04-09T09:49:21.085Z</time></trkpt><trkpt lat="41.1736783" lon="14.5837783"><ele>1088.5</ele><time>2026-04-09T09:49:22.085Z</time></trkpt><trkpt lat="41.1736433" lon="14.5838883"><ele>1088.0</ele><time>2026-04-09T09:49:23.085Z</time></trkpt><trkpt lat="41.1736133" lon="14.5839933"><ele>1086.8</ele><time>2026-04-09T09:49:24.085Z</time></trkpt><trkpt lat="41.1735583" lon="14.58411"><ele>1085.6</ele><time>2026-04-09T09:49:25.085Z</time></trkpt><trkpt lat="41.1734933" lon="14.584225"><ele>1084.4</ele><time>2026-04-09T09:49:26.085Z</time></trkpt><trkpt lat="41.17343" lon="14.58433"><ele>1083.2</ele><time>2026-04-09T09:49:27.085Z</time></trkpt><trkpt lat="41.1733767" lon="14.5844217"><ele>1082.0</ele><time>2026-04-09T09:49:28.085Z</time></trkpt><trkpt lat="41.1732967" lon="14.584515"><ele>1082.0</ele><time>2026-04-09T09:49:29.085Z</time></trkpt><trkpt lat="41.1732267" lon="14.5845933"><ele>1082.0</ele><time>2026-04-09T09:49:30.085Z</time></trkpt><trkpt lat="41.173145" lon="14.5846767"><ele>1082.0</ele><time>2026-04-09T09:49:31.085Z</time></trkpt><trkpt lat="41.1730483" lon="14.584745"><ele>1082.0</ele><time>2026-04-09T09:49:32.085Z</time></trkpt><trkpt lat="41.1729383" lon="14.5848217"><ele>1082.0</ele><time>2026-04-09T09:49:33.085Z</time></trkpt><trkpt lat="41.17283" lon="14.584895"><ele>1084.75</ele><time>2026-04-09T09:49:34.085Z</time></trkpt><trkpt lat="41.17272" lon="14.584975"><ele>1087.5</ele><time>2026-04-09T09:49:35.085Z</time></trkpt><trkpt lat="41.1725983" lon="14.5850533"><ele>1090.25</ele><time>2026-04-09T09:49:36.085Z</time></trkpt><trkpt lat="41.1724883" lon="14.585125"><ele>1093.0</ele><time>2026-04-09T09:49:37.085Z</time></trkpt><trkpt lat="41.1723833" lon="14.5851983"><ele>1095.5</ele><time>2026-04-09T09:49:38.085Z</time></trkpt><trkpt lat="41.17228" lon="14.5852667"><ele>1098.0</ele><time>2026-04-09T09:49:39.085Z</time></trkpt><trkpt lat="41.17217" lon="14.5853267"><ele>1100.5</ele><time>2026-04-09T09:49:40.085Z</time></trkpt><trkpt lat="41.1720667" lon="14.5853917"><ele>1103.0</ele><time>2026-04-09T09:49:41.085Z</time></trkpt><trkpt lat="41.1719667" lon="14.5854567"><ele>1104.4</ele><time>2026-04-09T09:49:42.085Z</time></trkpt><trkpt lat="41.17187" lon="14.5855183"><ele>1105.8</ele><time>2026-04-09T09:49:43.085Z</time></trkpt><trkpt lat="41.17177" lon="14.585585"><ele>1107.2</ele><time>2026-04-09T09:49:44.085Z</time></trkpt><trkpt lat="41.171675" lon="14.5856633"><ele>1108.6</ele><time>2026-04-09T09:49:45.085Z</time></trkpt><trkpt lat="41.1715767" lon="14.5857383"><ele>1110.0</ele><time>2026-04-09T09:49:46.085Z</time></trkpt><trkpt lat="41.1714767" lon="14.5858183"><ele>1111.8333333333333</ele><time>2026-04-09T09:49:47.085Z</time></trkpt><trkpt lat="41.1713983" lon="14.5858733"><ele>1113.6666666666667</ele><time>2026-04-09T09:49:48.085Z</time></trkpt><trkpt lat="41.17132" lon="14.5859183"><ele>1115.5</ele><time>2026-04-09T09:49:49.085Z</time></trkpt><trkpt lat="41.1712467" lon="14.5859467"><ele>1117.3333333333335</ele><time>2026-04-09T09:49:50.085Z</time></trkpt><trkpt lat="41.1711633" lon="14.585945"><ele>1119.1666666666667</ele><time>2026-04-09T09:49:51.085Z</time></trkpt><trkpt lat="41.1710883" lon="14.58593"><ele>1121.0</ele><time>2026-04-09T09:49:52.085Z</time></trkpt><trkpt lat="41.17102" lon="14.585895"><ele>1121.0</ele><time>2026-04-09T09:49:53.085Z</time></trkpt><trkpt lat="41.170965" lon="14.5858367"><ele>1121.0</ele><time>2026-04-09T09:49:54.085Z</time></trkpt><trkpt lat="41.1709217" lon="14.5857383"><ele>1121.0</ele><time>2026-04-09T09:49:55.085Z</time></trkpt><trkpt lat="41.17089" lon="14.5856133"><ele>1121.0</ele><time>2026-04-09T09:49:56.085Z</time></trkpt><trkpt lat="41.170855" lon="14.58548"><ele>1121.0</ele><time>2026-04-09T09:49:57.085Z</time></trkpt><trkpt lat="41.1708317" lon="14.585355"><ele>1119.6666666666667</ele><time>2026-04-09T09:49:58.085Z</time></trkpt><trkpt lat="41.1708133" lon="14.5852417"><ele>1118.3333333333335</ele><time>2026-04-09T09:49:59.085Z</time></trkpt><trkpt lat="41.1707967" lon="14.58515"><ele>1117.0</ele><time>2026-04-09T09:50:00.085Z</time></trkpt><trkpt lat="41.170765" lon="14.585075"><ele>1115.6666666666667</ele><time>2026-04-09T09:50:01.085Z</time></trkpt><trkpt lat="41.170715" lon="14.58501"><ele>1114.3333333333333</ele><time>2026-04-09T09:50:02.085Z</time></trkpt><trkpt lat="41.1706017" lon="14.5849433"><ele>1113.0</ele><time>2026-04-09T09:50:04.085Z</time></trkpt><trkpt lat="41.1705367" lon="14.584955"><ele>1116.5</ele><time>2026-04-09T09:50:05.085Z</time></trkpt><trkpt lat="41.1704733" lon="14.58499"><ele>1120.0</ele><time>2026-04-09T09:50:06.085Z</time></trkpt><trkpt lat="41.1704167" lon="14.5850433"><ele>1123.5</ele><time>2026-04-09T09:50:07.085Z</time></trkpt><trkpt lat="41.1703383" lon="14.5851683"><ele>1127.0</ele><time>2026-04-09T09:50:09.085Z</time></trkpt><trkpt lat="41.1703067" lon="14.5852533"><ele>1130.5</ele><time>2026-04-09T09:50:10.085Z</time></trkpt><trkpt lat="41.17029" lon="14.58535"><ele>1134.0</ele><time>2026-04-09T09:50:11.085Z</time></trkpt><trkpt lat="41.1702817" lon="14.5854567"><ele>1135.75</ele><time>2026-04-09T09:50:12.085Z</time></trkpt><trkpt lat="41.17029" lon="14.585585"><ele>1137.5</ele><time>2026-04-09T09:50:13.085Z</time></trkpt><trkpt lat="41.1703317" lon="14.5857467"><ele>1139.25</ele><time>2026-04-09T09:50:14.085Z</time></trkpt><trkpt lat="41.17039" lon="14.5859133"><ele>1141.0</ele><time>2026-04-09T09:50:15.085Z</time></trkpt><trkpt lat="41.170445" lon="14.5860633"><ele>1141.0</ele><time>2026-04-09T09:50:16.085Z</time></trkpt><trkpt lat="41.1704967" lon="14.5862017"><ele>1141.0</ele><time>2026-04-09T09:50:17.085Z</time></trkpt><trkpt lat="41.1705467" lon="14.5863367"><ele>1141.0</ele><time>2026-04-09T09:50:18.085Z</time></trkpt><trkpt lat="41.1706217" lon="14.5864483"><ele>1141.0</ele><time>2026-04-09T09:50:19.085Z</time></trkpt><trkpt lat="41.1707183" lon="14.586535"><ele>1141.0</ele><time>2026-04-09T09:50:20.085Z</time></trkpt><trkpt lat="41.1708067" lon="14.5866267"><ele>1141.0</ele><time>2026-04-09T09:50:21.085Z</time></trkpt><trkpt lat="41.17091" lon="14.5867217"><ele>1141.0</ele><time>2026-04-09T09:50:22.085Z</time></trkpt><trkpt lat="41.1710067" lon="14.5868367"><ele>1141.0</ele><time>2026-04-09T09:50:23.085Z</time></trkpt><trkpt lat="41.171085" lon="14.5869483"><ele>1146.6</ele><time>2026-04-09T09:50:24.085Z</time></trkpt><trkpt lat="41.1711517" lon="14.587045"><ele>1152.1999999999998</ele><time>2026-04-09T09:50:25.085Z</time></trkpt><trkpt lat="41.1712217" lon="14.5871333"><ele>1157.8000000000002</ele><time>2026-04-09T09:50:26.085Z</time></trkpt><trkpt lat="41.171315" lon="14.5871933"><ele>1163.4</ele><time>2026-04-09T09:50:27.085Z</time></trkpt><trkpt lat="41.171415" lon="14.587235"><ele>1169.0</ele><time>2026-04-09T09:50:28.085Z</time></trkpt><trkpt lat="41.171515" lon="14.5872717"><ele>1165.8</ele><time>2026-04-09T09:50:29.085Z</time></trkpt><trkpt lat="41.171605" lon="14.5873183"><ele>1162.6000000000001</ele><time>2026-04-09T09:50:30.085Z</time></trkpt><trkpt lat="41.1716917" lon="14.5873967"><ele>1159.4</ele><time>2026-04-09T09:50:31.085Z</time></trkpt><trkpt lat="41.1717717" lon="14.587495"><ele>1156.2</ele><time>2026-04-09T09:50:32.085Z</time></trkpt><trkpt lat="41.1718567" lon="14.5875933"><ele>1153.0</ele><time>2026-04-09T09:50:33.085Z</time></trkpt><trkpt lat="41.171955" lon="14.5877033"><ele>1153.0</ele><time>2026-04-09T09:50:34.085Z</time></trkpt><trkpt lat="41.1720483" lon="14.5878133"><ele>1153.0</ele><time>2026-04-09T09:50:35.085Z</time></trkpt><trkpt lat="41.172135" lon="14.5879017"><ele>1153.0</ele><time>2026-04-09T09:50:36.085Z</time></trkpt><trkpt lat="41.1722117" lon="14.5879967"><ele>1153.0</ele><time>2026-04-09T09:50:37.085Z</time></trkpt><trkpt lat="41.1722867" lon="14.5880783"><ele>1153.0</ele><time>2026-04-09T09:50:38.085Z</time></trkpt><trkpt lat="41.1723483" lon="14.5881583"><ele>1156.0</ele><time>2026-04-09T09:50:39.085Z</time></trkpt><trkpt lat="41.1724317" lon="14.5882567"><ele>1159.0</ele><time>2026-04-09T09:50:40.085Z</time></trkpt><trkpt lat="41.1725117" lon="14.5883467"><ele>1162.0</ele><time>2026-04-09T09:50:41.085Z</time></trkpt><trkpt lat="41.1725867" lon="14.5884417"><ele>1165.0</ele><time>2026-04-09T09:50:42.085Z</time></trkpt><trkpt lat="41.1726583" lon="14.5885217"><ele>1168.0</ele><time>2026-04-09T09:50:43.085Z</time></trkpt><trkpt lat="41.1727267" lon="14.5885967"><ele>1174.0</ele><time>2026-04-09T09:50:44.085Z</time></trkpt><trkpt lat="41.1727933" lon="14.5886767"><ele>1180.0</ele><time>2026-04-09T09:50:45.085Z</time></trkpt><trkpt lat="41.1728583" lon="14.588755"><ele>1186.0</ele><time>2026-04-09T09:50:46.085Z</time></trkpt><trkpt lat="41.1729267" lon="14.5888333"><ele>1192.0</ele><time>2026-04-09T09:50:47.085Z</time></trkpt><trkpt lat="41.173" lon="14.5889067"><ele>1198.0</ele><time>2026-04-09T09:50:48.085Z</time></trkpt><trkpt lat="41.1730733" lon="14.58898"><ele>1198.0</ele><time>2026-04-09T09:50:49.085Z</time></trkpt><trkpt lat="41.1731467" lon="14.5890667"><ele>1198.0</ele><time>2026-04-09T09:50:50.085Z</time></trkpt><trkpt lat="41.1732167" lon="14.5891533"><ele>1198.0</ele><time>2026-04-09T09:50:51.085Z</time></trkpt><trkpt lat="41.173285" lon="14.5892383"><ele>1198.0</ele><time>2026-04-09T09:50:52.085Z</time></trkpt><trkpt lat="41.1733533" lon="14.5893217"><ele>1198.0</ele><time>2026-04-09T09:50:53.085Z</time></trkpt><trkpt lat="41.17342" lon="14.5894067"><ele>1198.8</ele><time>2026-04-09T09:50:54.085Z</time></trkpt><trkpt lat="41.17348" lon="14.5894883"><ele>1199.6</ele><time>2026-04-09T09:50:55.085Z</time></trkpt><trkpt lat="41.1735433" lon="14.58957"><ele>1200.4</ele><time>2026-04-09T09:50:56.085Z</time></trkpt><trkpt lat="41.1736067" lon="14.589655"><ele>1201.2</ele><time>2026-04-09T09:50:57.085Z</time></trkpt><trkpt lat="41.1736717" lon="14.5897433"><ele>1202.0</ele><time>2026-04-09T09:50:58.085Z</time></trkpt><trkpt lat="41.1737433" lon="14.58983"><ele>1202.0</ele><time>2026-04-09T09:50:59.085Z</time></trkpt><trkpt lat="41.17381" lon="14.5899133"><ele>1202.0</ele><time>2026-04-09T09:51:00.085Z</time></trkpt><trkpt lat="41.173875" lon="14.5899983"><ele>1202.0</ele><time>2026-04-09T09:51:01.085Z</time></trkpt><trkpt lat="41.1739383" lon="14.59008"><ele>1202.0</ele><time>2026-04-09T09:51:02.085Z</time></trkpt><trkpt lat="41.1740033" lon="14.59016"><ele>1202.0</ele><time>2026-04-09T09:51:03.085Z</time></trkpt><trkpt lat="41.17407" lon="14.5902417"><ele>1202.4</ele><time>2026-04-09T09:51:04.085Z</time></trkpt><trkpt lat="41.1741333" lon="14.5903317"><ele>1202.8000000000002</ele><time>2026-04-09T09:51:05.085Z</time></trkpt><trkpt lat="41.17419" lon="14.5904217"><ele>1203.2</ele><time>2026-04-09T09:51:06.085Z</time></trkpt><trkpt lat="41.1742533" lon="14.5905167"><ele>1203.6000000000001</ele><time>2026-04-09T09:51:07.085Z</time></trkpt><trkpt lat="41.1743167" lon="14.590605"><ele>1204.0</ele><time>2026-04-09T09:51:08.085Z</time></trkpt><trkpt lat="41.17438" lon="14.5906983"><ele>1204.0</ele><time>2026-04-09T09:51:09.085Z</time></trkpt><trkpt lat="41.1744333" lon="14.5907717"><ele>1204.0</ele><time>2026-04-09T09:51:10.085Z</time></trkpt><trkpt lat="41.174485" lon="14.5908333"><ele>1204.0</ele><time>2026-04-09T09:51:11.085Z</time></trkpt><trkpt lat="41.1745667" lon="14.5909167"><ele>1204.0</ele><time>2026-04-09T09:51:13.085Z</time></trkpt><trkpt lat="41.17462" lon="14.5909733"><ele>1204.0</ele><time>2026-04-09T09:51:15.085Z</time></trkpt><trkpt lat="41.174665" lon="14.5910433"><ele>1204.0</ele><time>2026-04-09T09:51:17.085Z</time></trkpt><trkpt lat="41.1746967" lon="14.5911183"><ele>1205.142857142857</ele><time>2026-04-09T09:51:19.085Z</time></trkpt><trkpt lat="41.1747133" lon="14.59123"><ele>1206.2857142857142</ele><time>2026-04-09T09:51:22.085Z</time></trkpt><trkpt lat="41.1747033" lon="14.5913133"><ele>1207.4285714285716</ele><time>2026-04-09T09:51:24.085Z</time></trkpt><trkpt lat="41.1746733" lon="14.5913883"><ele>1208.5714285714284</ele><time>2026-04-09T09:51:26.085Z</time></trkpt><trkpt lat="41.1746233" lon="14.59145"><ele>1209.7142857142858</ele><time>2026-04-09T09:51:28.085Z</time></trkpt><trkpt lat="41.1745583" lon="14.5914817"><ele>1210.857142857143</ele><time>2026-04-09T09:51:30.085Z</time></trkpt><trkpt lat="41.1744817" lon="14.5914867"><ele>1212.0</ele><time>2026-04-09T09:51:32.085Z</time></trkpt><trkpt lat="41.1743967" lon="14.5915"><ele>1212.0</ele><time>2026-04-09T09:51:34.085Z</time></trkpt><trkpt lat="41.1743117" lon="14.5914967"><ele>1212.0</ele><time>2026-04-09T09:51:36.085Z</time></trkpt><trkpt lat="41.1742167" lon="14.5914867"><ele>1212.0</ele><time>2026-04-09T09:51:38.085Z</time></trkpt><trkpt lat="41.1741233" lon="14.5914733"><ele>1212.0</ele><time>2026-04-09T09:51:40.085Z</time></trkpt><trkpt lat="41.1740217" lon="14.591465"><ele>1212.0</ele><time>2026-04-09T09:51:42.085Z</time></trkpt><trkpt lat="41.1739367" lon="14.59146"><ele>1215.1666666666667</ele><time>2026-04-09T09:51:44.085Z</time></trkpt><trkpt lat="41.17385" lon="14.5914567"><ele>1218.3333333333333</ele><time>2026-04-09T09:51:46.085Z</time></trkpt><trkpt lat="41.17377" lon="14.5914583"><ele>1221.5</ele><time>2026-04-09T09:51:48.085Z</time></trkpt><trkpt lat="41.1736383" lon="14.5914383"><ele>1224.6666666666665</ele><time>2026-04-09T09:51:59.085Z</time></trkpt><trkpt lat="41.1735833" lon="14.5913967"><ele>1227.8333333333333</ele><time>2026-04-09T09:52:01.085Z</time></trkpt><trkpt lat="41.1735117" lon="14.591355"><ele>1231.0</ele><time>2026-04-09T09:52:03.085Z</time></trkpt><trkpt lat="41.173425" lon="14.5912917"><ele>1231.0</ele><time>2026-04-09T09:52:05.085Z</time></trkpt><trkpt lat="41.17336" lon="14.5912667"><ele>1231.0</ele><time>2026-04-09T09:52:06.085Z</time></trkpt><trkpt lat="41.1732917" lon="14.5912333"><ele>1231.0</ele><time>2026-04-09T09:52:07.085Z</time></trkpt><trkpt lat="41.173235" lon="14.591195"><ele>1231.0</ele><time>2026-04-09T09:52:08.085Z</time></trkpt><trkpt lat="41.1731633" lon="14.59111"><ele>1231.0</ele><time>2026-04-09T09:52:10.085Z</time></trkpt><trkpt lat="41.1730833" lon="14.5910417"><ele>1231.0</ele><time>2026-04-09T09:52:12.085Z</time></trkpt><trkpt lat="41.1730267" lon="14.5909867"><ele>1233.5</ele><time>2026-04-09T09:52:14.085Z</time></trkpt><trkpt lat="41.1729533" lon="14.5909183"><ele>1236.0</ele><time>2026-04-09T09:52:16.085Z</time></trkpt><trkpt lat="41.17289" lon="14.590855"><ele>1238.5</ele><time>2026-04-09T09:52:18.085Z</time></trkpt><trkpt lat="41.17282" lon="14.5907867"><ele>1241.0</ele><time>2026-04-09T09:52:20.085Z</time></trkpt><trkpt lat="41.17275" lon="14.5907233"><ele>1243.5</ele><time>2026-04-09T09:52:22.085Z</time></trkpt><trkpt lat="41.172685" lon="14.59067"><ele>1246.0</ele><time>2026-04-09T09:52:24.085Z</time></trkpt><trkpt lat="41.1726233" lon="14.5906167"><ele>1246.0</ele><time>2026-04-09T09:52:26.085Z</time></trkpt><trkpt lat="41.1725433" lon="14.590555"><ele>1246.0</ele><time>2026-04-09T09:52:29.085Z</time></trkpt><trkpt lat="41.1724517" lon="14.59049"><ele>1246.0</ele><time>2026-04-09T09:52:32.085Z</time></trkpt><trkpt lat="41.1723933" lon="14.5904467"><ele>1246.0</ele><time>2026-04-09T09:52:34.085Z</time></trkpt><trkpt lat="41.172335" lon="14.5903983"><ele>1246.0</ele><time>2026-04-09T09:52:36.085Z</time></trkpt><trkpt lat="41.1722617" lon="14.5903633"><ele>1246.0</ele><time>2026-04-09T09:52:38.085Z</time></trkpt><trkpt lat="41.1721983" lon="14.5903233"><ele>1245.7142857142858</ele><time>2026-04-09T09:52:40.085Z</time></trkpt><trkpt lat="41.172125" lon="14.5902917"><ele>1245.4285714285716</ele><time>2026-04-09T09:52:42.085Z</time></trkpt><trkpt lat="41.1720517" lon="14.5902583"><ele>1245.142857142857</ele><time>2026-04-09T09:52:44.085Z</time></trkpt><trkpt lat="41.1719867" lon="14.5902283"><ele>1244.857142857143</ele><time>2026-04-09T09:52:46.085Z</time></trkpt><trkpt lat="41.1719217" lon="14.5902017"><ele>1244.5714285714287</ele><time>2026-04-09T09:52:48.085Z</time></trkpt><trkpt lat="41.1718517" lon="14.5901817"><ele>1244.2857142857142</ele><time>2026-04-09T09:52:50.085Z</time></trkpt><trkpt lat="41.1717833" lon="14.5901633"><ele>1244.0</ele><time>2026-04-09T09:52:52.085Z</time></trkpt><trkpt lat="41.1717017" lon="14.5901583"><ele>1244.0</ele><time>2026-04-09T09:52:54.085Z</time></trkpt><trkpt lat="41.1716083" lon="14.5901567"><ele>1244.0</ele><time>2026-04-09T09:52:56.085Z</time></trkpt><trkpt lat="41.1715117" lon="14.590155"><ele>1244.0</ele><time>2026-04-09T09:52:58.085Z</time></trkpt><trkpt lat="41.171435" lon="14.5901583"><ele>1244.0</ele><time>2026-04-09T09:53:00.085Z</time></trkpt><trkpt lat="41.1713383" lon="14.59016"><ele>1244.0</ele><time>2026-04-09T09:53:03.085Z</time></trkpt><trkpt lat="41.1712483" lon="14.5901667"><ele>1245.3333333333335</ele><time>2026-04-09T09:53:05.085Z</time></trkpt><trkpt lat="41.1711767" lon="14.5901717"><ele>1246.6666666666667</ele><time>2026-04-09T09:53:07.085Z</time></trkpt><trkpt lat="41.1711033" lon="14.5901917"><ele>1248.0</ele><time>2026-04-09T09:53:09.085Z</time></trkpt><trkpt lat="41.171035" lon="14.5902033"><ele>1249.3333333333333</ele><time>2026-04-09T09:53:11.085Z</time></trkpt><trkpt lat="41.170955" lon="14.590225"><ele>1250.6666666666665</ele><time>2026-04-09T09:53:13.085Z</time></trkpt><trkpt lat="41.1708783" lon="14.590245"><ele>1252.0</ele><time>2026-04-09T09:53:15.085Z</time></trkpt><trkpt lat="41.1707983" lon="14.5902483"><ele>1252.0</ele><time>2026-04-09T09:53:18.085Z</time></trkpt><trkpt lat="41.17073" lon="14.5902683"><ele>1252.0</ele><time>2026-04-09T09:53:20.085Z</time></trkpt><trkpt lat="41.1706683" lon="14.5903033"><ele>1252.0</ele><time>2026-04-09T09:53:22.085Z</time></trkpt><trkpt lat="41.1705933" lon="14.5903467"><ele>1252.0</ele><time>2026-04-09T09:53:24.085Z</time></trkpt><trkpt lat="41.17053" lon="14.5903667"><ele>1252.0</ele><time>2026-04-09T09:53:26.085Z</time></trkpt><trkpt lat="41.1704667" lon="14.5903933"><ele>1252.0</ele><time>2026-04-09T09:53:28.085Z</time></trkpt><trkpt lat="41.1703983" lon="14.5904217"><ele>1252.0</ele><time>2026-04-09T09:53:30.085Z</time></trkpt><trkpt lat="41.1703317" lon="14.5904367"><ele>1257.1666666666665</ele><time>2026-04-09T09:53:32.085Z</time></trkpt><trkpt lat="41.1702533" lon="14.5904367"><ele>1262.3333333333333</ele><time>2026-04-09T09:53:35.085Z</time></trkpt><trkpt lat="41.1701733" lon="14.5904667"><ele>1267.5</ele><time>2026-04-09T09:53:38.085Z</time></trkpt><trkpt lat="41.1700817" lon="14.5905133"><ele>1272.6666666666667</ele><time>2026-04-09T09:53:41.085Z</time></trkpt><trkpt lat="41.1699967" lon="14.590545"><ele>1277.8333333333335</ele><time>2026-04-09T09:53:44.085Z</time></trkpt><trkpt lat="41.1699217" lon="14.5905483"><ele>1283.0</ele><time>2026-04-09T09:53:48.085Z</time></trkpt><trkpt lat="41.1698417" lon="14.5905767"><ele>1284.1666666666667</ele><time>2026-04-09T09:53:51.085Z</time></trkpt><trkpt lat="41.169775" lon="14.590605"><ele>1285.3333333333335</ele><time>2026-04-09T09:53:53.085Z</time></trkpt><trkpt lat="41.1697117" lon="14.5906317"><ele>1286.5</ele><time>2026-04-09T09:53:55.085Z</time></trkpt><trkpt lat="41.1696183" lon="14.5906867"><ele>1287.6666666666667</ele><time>2026-04-09T09:53:57.085Z</time></trkpt><trkpt lat="41.16952" lon="14.59074"><ele>1288.8333333333333</ele><time>2026-04-09T09:53:59.085Z</time></trkpt><trkpt lat="41.169425" lon="14.5907883"><ele>1290.0</ele><time>2026-04-09T09:54:01.085Z</time></trkpt><trkpt lat="41.16933" lon="14.5908133"><ele>1290.0</ele><time>2026-04-09T09:54:04.085Z</time></trkpt><trkpt lat="41.169245" lon="14.590835"><ele>1290.0</ele><time>2026-04-09T09:54:06.085Z</time></trkpt><trkpt lat="41.169165" lon="14.5908417"><ele>1290.0</ele><time>2026-04-09T09:54:08.085Z</time></trkpt><trkpt lat="41.1690917" lon="14.590855"><ele>1290.0</ele><time>2026-04-09T09:54:10.085Z</time></trkpt><trkpt lat="41.1690283" lon="14.5908733"><ele>1290.0</ele><time>2026-04-09T09:54:12.085Z</time></trkpt><trkpt lat="41.168955" lon="14.5908883"><ele>1290.0</ele><time>2026-04-09T09:54:14.085Z</time></trkpt><trkpt lat="41.1688867" lon="14.590895"><ele>1290.0</ele><time>2026-04-09T09:54:16.085Z</time></trkpt><trkpt lat="41.1688183" lon="14.5908967"><ele>1291.0</ele><time>2026-04-09T09:54:18.085Z</time></trkpt><trkpt lat="41.1687533" lon="14.5908833"><ele>1292.0</ele><time>2026-04-09T09:54:20.085Z</time></trkpt><trkpt lat="41.1686583" lon="14.5908667"><ele>1293.0</ele><time>2026-04-09T09:54:23.085Z</time></trkpt><trkpt lat="41.1685933" lon="14.5908783"><ele>1294.0</ele><time>2026-04-09T09:54:25.085Z</time></trkpt><trkpt lat="41.1685267" lon="14.59088"><ele>1295.0</ele><time>2026-04-09T09:54:27.085Z</time></trkpt><trkpt lat="41.1684517" lon="14.5908917"><ele>1296.0</ele><time>2026-04-09T09:54:29.085Z</time></trkpt><trkpt lat="41.1683717" lon="14.5909067"><ele>1296.0</ele><time>2026-04-09T09:54:31.085Z</time></trkpt><trkpt lat="41.168295" lon="14.59091"><ele>1296.0</ele><time>2026-04-09T09:54:33.085Z</time></trkpt><trkpt lat="41.16822" lon="14.590915"><ele>1296.0</ele><time>2026-04-09T09:54:35.085Z</time></trkpt><trkpt lat="41.168155" lon="14.590915"><ele>1296.0</ele><time>2026-04-09T09:54:37.085Z</time></trkpt><trkpt lat="41.1680783" lon="14.5908983"><ele>1296.0</ele><time>2026-04-09T09:54:39.085Z</time></trkpt><trkpt lat="41.1679867" lon="14.5909"><ele>1296.0</ele><time>2026-04-09T09:54:41.085Z</time></trkpt><trkpt lat="41.1678983" lon="14.590905"><ele>1294.6</ele><time>2026-04-09T09:54:43.085Z</time></trkpt><trkpt lat="41.1678183" lon="14.5908983"><ele>1293.1999999999998</ele><time>2026-04-09T09:54:45.085Z</time></trkpt><trkpt lat="41.1676933" lon="14.59092"><ele>1291.8000000000002</ele><time>2026-04-09T09:54:47.085Z</time></trkpt><trkpt lat="41.167585" lon="14.5909633"><ele>1290.4</ele><time>2026-04-09T09:54:49.085Z</time></trkpt><trkpt lat="41.1675167" lon="14.5910483"><ele>1289.0</ele><time>2026-04-09T09:54:51.085Z</time></trkpt><trkpt lat="41.16747" lon="14.591145"><ele>1292.3333333333335</ele><time>2026-04-09T09:54:53.085Z</time></trkpt><trkpt lat="41.1674417" lon="14.591225"><ele>1295.6666666666667</ele><time>2026-04-09T09:54:55.085Z</time></trkpt><trkpt lat="41.16744" lon="14.5913367"><ele>1299.0</ele><time>2026-04-09T09:54:58.085Z</time></trkpt><trkpt lat="41.16742" lon="14.5914183"><ele>1302.3333333333333</ele><time>2026-04-09T09:55:00.085Z</time></trkpt><trkpt lat="41.1674083" lon="14.59152"><ele>1305.6666666666665</ele><time>2026-04-09T09:55:02.085Z</time></trkpt><trkpt lat="41.1673933" lon="14.5916567"><ele>1309.0</ele><time>2026-04-09T09:55:04.085Z</time></trkpt><trkpt lat="41.167395" lon="14.5918017"><ele>1309.0</ele><time>2026-04-09T09:55:06.085Z</time></trkpt><trkpt lat="41.1674133" lon="14.59194"><ele>1309.0</ele><time>2026-04-09T09:55:08.085Z</time></trkpt><trkpt lat="41.167435" lon="14.592035"><ele>1309.0</ele><time>2026-04-09T09:55:10.085Z</time></trkpt><trkpt lat="41.1674717" lon="14.59214"><ele>1309.0</ele><time>2026-04-09T09:55:12.085Z</time></trkpt><trkpt lat="41.1675083" lon="14.5922267"><ele>1309.0</ele><time>2026-04-09T09:55:14.085Z</time></trkpt><trkpt lat="41.16753" lon="14.5923083"><ele>1309.0</ele><time>2026-04-09T09:55:16.085Z</time></trkpt><trkpt lat="41.1675533" lon="14.5923867"><ele>1310.4285714285713</ele><time>2026-04-09T09:55:18.085Z</time></trkpt><trkpt lat="41.167575" lon="14.5924667"><ele>1311.857142857143</ele><time>2026-04-09T09:55:20.085Z</time></trkpt><trkpt lat="41.1675967" lon="14.59255"><ele>1313.2857142857142</ele><time>2026-04-09T09:55:22.085Z</time></trkpt><trkpt lat="41.16761" lon="14.5926333"><ele>1314.7142857142858</ele><time>2026-04-09T09:55:24.085Z</time></trkpt><trkpt lat="41.167625" lon="14.592725"><ele>1316.142857142857</ele><time>2026-04-09T09:55:26.085Z</time></trkpt><trkpt lat="41.1676183" lon="14.5928133"><ele>1317.5714285714284</ele><time>2026-04-09T09:55:28.085Z</time></trkpt><trkpt lat="41.1675983" lon="14.5928933"><ele>1319.0</ele><time>2026-04-09T09:55:30.085Z</time></trkpt><trkpt lat="41.16757" lon="14.5930033"><ele>1318.6</ele><time>2026-04-09T09:55:32.085Z</time></trkpt><trkpt lat="41.16752" lon="14.5931233"><ele>1318.2</ele><time>2026-04-09T09:55:34.085Z</time></trkpt><trkpt lat="41.1674667" lon="14.5932583"><ele>1317.8</ele><time>2026-04-09T09:55:36.085Z</time></trkpt><trkpt lat="41.16742" lon="14.593395"><ele>1317.3999999999999</ele><time>2026-04-09T09:55:38.085Z</time></trkpt><trkpt lat="41.1673833" lon="14.5934683"><ele>1317.0</ele><time>2026-04-09T09:55:39.085Z</time></trkpt><trkpt lat="41.1673267" lon="14.5936"><ele>1319.6666666666667</ele><time>2026-04-09T09:55:41.085Z</time></trkpt><trkpt lat="41.167285" lon="14.5936967"><ele>1322.3333333333333</ele><time>2026-04-09T09:55:42.085Z</time></trkpt><trkpt lat="41.167245" lon="14.5938017"><ele>1325.0</ele><time>2026-04-09T09:55:44.085Z</time></trkpt><trkpt lat="41.1672017" lon="14.5939133"><ele>1327.6666666666665</ele><time>2026-04-09T09:55:46.085Z</time></trkpt><trkpt lat="41.167155" lon="14.594015"><ele>1330.3333333333333</ele><time>2026-04-09T09:55:48.085Z</time></trkpt><trkpt lat="41.1671233" lon="14.594105"><ele>1333.0</ele><time>2026-04-09T09:55:50.085Z</time></trkpt><trkpt lat="41.1670883" lon="14.594195"><ele>1333.0</ele><time>2026-04-09T09:55:52.085Z</time></trkpt><trkpt lat="41.1670517" lon="14.594285"><ele>1333.0</ele><time>2026-04-09T09:55:54.085Z</time></trkpt><trkpt lat="41.1670033" lon="14.59439"><ele>1333.0</ele><time>2026-04-09T09:55:56.085Z</time></trkpt><trkpt lat="41.166965" lon="14.5944917"><ele>1333.0</ele><time>2026-04-09T09:55:58.085Z</time></trkpt><trkpt lat="41.1669067" lon="14.59459"><ele>1333.0</ele><time>2026-04-09T09:56:00.085Z</time></trkpt><trkpt lat="41.1668533" lon="14.59469"><ele>1333.0</ele><time>2026-04-09T09:56:02.085Z</time></trkpt><trkpt lat="41.1668" lon="14.59479"><ele>1335.5</ele><time>2026-04-09T09:56:04.085Z</time></trkpt><trkpt lat="41.1667533" lon="14.59489"><ele>1338.0</ele><time>2026-04-09T09:56:06.085Z</time></trkpt><trkpt lat="41.1667183" lon="14.5949733"><ele>1340.5</ele><time>2026-04-09T09:56:08.085Z</time></trkpt><trkpt lat="41.1666717" lon="14.5950683"><ele>1343.0</ele><time>2026-04-09T09:56:10.085Z</time></trkpt><trkpt lat="41.166625" lon="14.5951667"><ele>1345.5</ele><time>2026-04-09T09:56:12.085Z</time></trkpt><trkpt lat="41.1665817" lon="14.595275"><ele>1348.0</ele><time>2026-04-09T09:56:14.085Z</time></trkpt><trkpt lat="41.1665483" lon="14.59538"><ele>1349.8333333333333</ele><time>2026-04-09T09:56:16.085Z</time></trkpt><trkpt lat="41.1665117" lon="14.595495"><ele>1351.6666666666665</ele><time>2026-04-09T09:56:18.085Z</time></trkpt><trkpt lat="41.1664717" lon="14.59559"><ele>1353.5</ele><time>2026-04-09T09:56:20.085Z</time></trkpt><trkpt lat="41.1664383" lon="14.5956917"><ele>1355.3333333333333</ele><time>2026-04-09T09:56:22.085Z</time></trkpt><trkpt lat="41.1664367" lon="14.5958083"><ele>1357.1666666666667</ele><time>2026-04-09T09:56:24.085Z</time></trkpt><trkpt lat="41.166395" lon="14.595905"><ele>1359.0</ele><time>2026-04-09T09:56:26.085Z</time></trkpt><trkpt lat="41.1663367" lon="14.5959967"><ele>1359.0</ele><time>2026-04-09T09:56:28.085Z</time></trkpt><trkpt lat="41.1662917" lon="14.5961017"><ele>1359.0</ele><time>2026-04-09T09:56:30.085Z</time></trkpt><trkpt lat="41.1662483" lon="14.5962133"><ele>1359.0</ele><time>2026-04-09T09:56:32.085Z</time></trkpt><trkpt lat="41.1662112" lon="14.5963045"><ele>1359.0</ele><time>2026-04-09T09:56:34.141Z</time></trkpt><trkpt lat="41.1661893" lon="14.5963847"><ele>1359.0</ele><time>2026-04-09T09:56:36.14Z</time></trkpt><trkpt lat="41.1661466" lon="14.5964879"><ele>1359.0</ele><time>2026-04-09T09:56:38.112Z</time></trkpt><trkpt lat="41.1661166" lon="14.596595"><ele>1360.3333333333333</ele><time>2026-04-09T09:56:40.086Z</time></trkpt><trkpt lat="41.1660813" lon="14.5966921"><ele>1361.6666666666667</ele><time>2026-04-09T09:56:42.085Z</time></trkpt><trkpt lat="41.1660455" lon="14.5967871"><ele>1363.0</ele><time>2026-04-09T09:56:44.144Z</time></trkpt><trkpt lat="41.1660098" lon="14.5968785"><ele>1364.3333333333335</ele><time>2026-04-09T09:56:46.119Z</time></trkpt><trkpt lat="41.1659856" lon="14.5969582"><ele>1365.6666666666667</ele><time>2026-04-09T09:56:48.023Z</time></trkpt><trkpt lat="41.1659696" lon="14.5970835"><ele>1367.0</ele><time>2026-04-09T09:56:50.061Z</time></trkpt><trkpt lat="41.165988" lon="14.5971787"><ele>1368.8</ele><time>2026-04-09T09:56:52.149Z</time></trkpt><trkpt lat="41.1659283" lon="14.5972483"><ele>1370.6</ele><time>2026-04-09T09:56:53.085Z</time></trkpt><trkpt lat="41.1660033" lon="14.5972433"><ele>1372.3999999999999</ele><time>2026-04-09T09:56:56.085Z</time></trkpt><trkpt lat="41.1661033" lon="14.59721"><ele>1374.1999999999998</ele><time>2026-04-09T09:56:59.085Z</time></trkpt><trkpt lat="41.1662067" lon="14.59716"><ele>1376.0</ele><time>2026-04-09T09:57:01.085Z</time></trkpt><trkpt lat="41.166305" lon="14.597105"><ele>1376.0</ele><time>2026-04-09T09:57:03.085Z</time></trkpt><trkpt lat="41.1663783" lon="14.5970767"><ele>1376.0</ele><time>2026-04-09T09:57:05.085Z</time></trkpt><trkpt lat="41.1664367" lon="14.597045"><ele>1376.0</ele><time>2026-04-09T09:57:07.085Z</time></trkpt><trkpt lat="41.16651" lon="14.597005"><ele>1376.0</ele><time>2026-04-09T09:57:09.085Z</time></trkpt><trkpt lat="41.16659" lon="14.5969717"><ele>1376.0</ele><time>2026-04-09T09:57:11.085Z</time></trkpt><trkpt lat="41.166665" lon="14.596915"><ele>1376.0</ele><time>2026-04-09T09:57:13.085Z</time></trkpt><trkpt lat="41.1667383" lon="14.5968883"><ele>1376.0</ele><time>2026-04-09T09:57:15.085Z</time></trkpt><trkpt lat="41.166845" lon="14.5968967"><ele>1376.0</ele><time>2026-04-09T09:57:53.085Z</time></trkpt><trkpt lat="41.1667767" lon="14.5969367"><ele>1376.0</ele><time>2026-04-09T09:57:56.085Z</time></trkpt><trkpt lat="41.16668" lon="14.5969817"><ele>1376.0</ele><time>2026-04-09T09:57:59.085Z</time></trkpt><trkpt lat="41.1666017" lon="14.5970117"><ele>1376.0</ele><time>2026-04-09T09:58:01.085Z</time></trkpt><trkpt lat="41.1665333" lon="14.5970483"><ele>1376.0</ele><time>2026-04-09T09:58:03.085Z</time></trkpt><trkpt lat="41.1664617" lon="14.5971033"><ele>1376.0</ele><time>2026-04-09T09:58:05.085Z</time></trkpt><trkpt lat="41.1664" lon="14.5971367"><ele>1376.0</ele><time>2026-04-09T09:58:07.085Z</time></trkpt><trkpt lat="41.1663283" lon="14.5971783"><ele>1376.0</ele><time>2026-04-09T09:58:09.085Z</time></trkpt><trkpt lat="41.1662583" lon="14.5972217"><ele>1376.0</ele><time>2026-04-09T09:58:12.085Z</time></trkpt><trkpt lat="41.16618" lon="14.5972717"><ele>1376.0</ele><time>2026-04-09T09:58:15.085Z</time></trkpt><trkpt lat="41.1661133" lon="14.5973083"><ele>1376.0</ele><time>2026-04-09T09:58:18.085Z</time></trkpt><trkpt lat="41.16604" lon="14.59734"><ele>1376.0</ele><time>2026-04-09T09:58:21.085Z</time></trkpt><trkpt lat="41.16596" lon="14.597355"><ele>1376.0</ele><time>2026-04-09T09:58:24.085Z</time></trkpt><trkpt lat="41.1658567" lon="14.597355"><ele>1376.0</ele><time>2026-04-09T09:58:32.085Z</time></trkpt><trkpt lat="41.1657283" lon="14.59733"><ele>1376.0</ele><time>2026-04-09T09:58:44.085Z</time></trkpt><trkpt lat="41.165655" lon="14.597375"><ele>1376.0</ele><time>2026-04-09T09:58:48.085Z</time></trkpt><trkpt lat="41.1655983" lon="14.5974167"><ele>1373.1666666666667</ele><time>2026-04-09T09:58:52.085Z</time></trkpt><trkpt lat="41.16554" lon="14.5974517"><ele>1370.3333333333335</ele><time>2026-04-09T09:59:00.085Z</time></trkpt><trkpt lat="41.16547" lon="14.59744"><ele>1367.5</ele><time>2026-04-09T09:59:03.085Z</time></trkpt><trkpt lat="41.1655617" lon="14.5974017"><ele>1364.6666666666667</ele><time>2026-04-09T10:01:37.085Z</time></trkpt><trkpt lat="41.1654604" lon="14.5973953"><ele>1361.8333333333333</ele><time>2026-04-09T10:12:28.139Z</time></trkpt><trkpt lat="41.1655325" lon="14.5973865"><ele>1359.0</ele><time>2026-04-09T10:19:51.103Z</time></trkpt><trkpt lat="41.165608" lon="14.597309"><ele>1360.6</ele><time>2026-04-09T10:25:10.147Z</time></trkpt><trkpt lat="41.1657525" lon="14.5972683"><ele>1362.2</ele><time>2026-04-09T10:25:15.083Z</time></trkpt><trkpt lat="41.1658197" lon="14.5972201"><ele>1363.8</ele><time>2026-04-09T10:25:18.153Z</time></trkpt><trkpt lat="41.1658373" lon="14.59713"><ele>1365.3999999999999</ele><time>2026-04-09T10:25:20.127Z</time></trkpt><trkpt lat="41.1658781" lon="14.5970268"><ele>1367.0</ele><time>2026-04-09T10:25:23.089Z</time></trkpt><trkpt lat="41.1659088" lon="14.5969217"><ele>1367.0</ele><time>2026-04-09T10:25:26.16Z</time></trkpt><trkpt lat="41.1659281" lon="14.596807"><ele>1367.0</ele><time>2026-04-09T10:25:29.053Z</time></trkpt><trkpt lat="41.1659474" lon="14.5967153"><ele>1367.0</ele><time>2026-04-09T10:25:31.095Z</time></trkpt><trkpt lat="41.1659925" lon="14.5966075"><ele>1367.0</ele><time>2026-04-09T10:25:34.192Z</time></trkpt><trkpt lat="41.1660232" lon="14.5965185"><ele>1367.0</ele><time>2026-04-09T10:25:37.127Z</time></trkpt><trkpt lat="41.1660657" lon="14.5964288"><ele>1367.0</ele><time>2026-04-09T10:25:41.083Z</time></trkpt><trkpt lat="41.1660994" lon="14.5963562"><ele>1365.3999999999999</ele><time>2026-04-09T10:25:45.133Z</time></trkpt><trkpt lat="41.1661801" lon="14.5961579"><ele>1363.8</ele><time>2026-04-09T10:25:55.115Z</time></trkpt><trkpt lat="41.1662435" lon="14.5961279"><ele>1362.2</ele><time>2026-04-09T10:25:58.112Z</time></trkpt><trkpt lat="41.1662536" lon="14.5960224"><ele>1360.6</ele><time>2026-04-09T10:26:00.159Z</time></trkpt><trkpt lat="41.1662799" lon="14.5959453"><ele>1359.0</ele><time>2026-04-09T10:26:03.12Z</time></trkpt><trkpt lat="41.166318" lon="14.5958299"><ele>1359.0</ele><time>2026-04-09T10:26:07.083Z</time></trkpt><trkpt lat="41.1663588" lon="14.59573"><ele>1359.0</ele><time>2026-04-09T10:26:10.14Z</time></trkpt><trkpt lat="41.1664051" lon="14.5956364"><ele>1359.0</ele><time>2026-04-09T10:26:13.101Z</time></trkpt><trkpt lat="41.1664374" lon="14.5955473"><ele>1359.0</ele><time>2026-04-09T10:26:15.083Z</time></trkpt><trkpt lat="41.1664648" lon="14.595463"><ele>1359.0</ele><time>2026-04-09T10:26:17.136Z</time></trkpt><trkpt lat="41.1664909" lon="14.5953807"><ele>1359.0</ele><time>2026-04-09T10:26:19.133Z</time></trkpt><trkpt lat="41.1665344" lon="14.5952623"><ele>1357.1666666666667</ele><time>2026-04-09T10:26:22.076Z</time></trkpt><trkpt lat="41.1665795" lon="14.5951784"><ele>1355.3333333333333</ele><time>2026-04-09T10:26:24.083Z</time></trkpt><trkpt lat="41.1666165" lon="14.5951024"><ele>1353.5</ele><time>2026-04-09T10:26:26.115Z</time></trkpt><trkpt lat="41.1666621" lon="14.5950147"><ele>1351.6666666666665</ele><time>2026-04-09T10:26:28.127Z</time></trkpt><trkpt lat="41.1666989" lon="14.5949309"><ele>1349.8333333333333</ele><time>2026-04-09T10:26:30.101Z</time></trkpt><trkpt lat="41.1667257" lon="14.5948515"><ele>1348.0</ele><time>2026-04-09T10:26:32.083Z</time></trkpt><trkpt lat="41.1667697" lon="14.5947425"><ele>1348.0</ele><time>2026-04-09T10:26:35.133Z</time></trkpt><trkpt lat="41.1668133" lon="14.5946403"><ele>1348.0</ele><time>2026-04-09T10:26:38.107Z</time></trkpt><trkpt lat="41.1668577" lon="14.5945246"><ele>1348.0</ele><time>2026-04-09T10:26:40.083Z</time></trkpt><trkpt lat="41.1668947" lon="14.5944265"><ele>1348.0</ele><time>2026-04-09T10:26:42.054Z</time></trkpt><trkpt lat="41.1669471" lon="14.5943314"><ele>1348.0</ele><time>2026-04-09T10:26:44.139Z</time></trkpt><trkpt lat="41.166987" lon="14.5942526"><ele>1348.0</ele><time>2026-04-09T10:26:46.114Z</time></trkpt><trkpt lat="41.1670245" lon="14.5941655"><ele>1345.5</ele><time>2026-04-09T10:26:49.175Z</time></trkpt><trkpt lat="41.1670598" lon="14.5940635"><ele>1343.0</ele><time>2026-04-09T10:26:52.146Z</time></trkpt><trkpt lat="41.1671004" lon="14.5939921"><ele>1340.5</ele><time>2026-04-09T10:26:54.12Z</time></trkpt><trkpt lat="41.1671508" lon="14.5938895"><ele>1338.0</ele><time>2026-04-09T10:26:57.083Z</time></trkpt><trkpt lat="41.1672054" lon="14.5937753"><ele>1335.5</ele><time>2026-04-09T10:27:00.152Z</time></trkpt><trkpt lat="41.167243" lon="14.5936731"><ele>1333.0</ele><time>2026-04-09T10:27:02.126Z</time></trkpt><trkpt lat="41.1672719" lon="14.593587"><ele>1333.142857142857</ele><time>2026-04-09T10:27:04.172Z</time></trkpt><trkpt lat="41.1673062" lon="14.5934792"><ele>1333.2857142857142</ele><time>2026-04-09T10:27:07.033Z</time></trkpt><trkpt lat="41.1673429" lon="14.5933978"><ele>1333.4285714285716</ele><time>2026-04-09T10:27:09.146Z</time></trkpt><trkpt lat="41.1673832" lon="14.5933267"><ele>1333.5714285714284</ele><time>2026-04-09T10:27:11.176Z</time></trkpt><trkpt lat="41.1674224" lon="14.5932601"><ele>1333.7142857142858</ele><time>2026-04-09T10:27:13.075Z</time></trkpt><trkpt lat="41.1674628" lon="14.5931893"><ele>1333.857142857143</ele><time>2026-04-09T10:27:15.083Z</time></trkpt><trkpt lat="41.1675094" lon="14.5931117"><ele>1334.0</ele><time>2026-04-09T10:27:17.152Z</time></trkpt><trkpt lat="41.1675449" lon="14.5930175"><ele>1334.0</ele><time>2026-04-09T10:27:19.126Z</time></trkpt><trkpt lat="41.1675588" lon="14.5929216"><ele>1334.0</ele><time>2026-04-09T10:27:21.1Z</time></trkpt><trkpt lat="41.1675805" lon="14.5928217"><ele>1334.0</ele><time>2026-04-09T10:27:23.083Z</time></trkpt><trkpt lat="41.1675934" lon="14.5927099"><ele>1334.0</ele><time>2026-04-09T10:27:25.075Z</time></trkpt><trkpt lat="41.1676164" lon="14.5925916"><ele>1334.0</ele><time>2026-04-09T10:27:27.133Z</time></trkpt><trkpt lat="41.167602" lon="14.5925071"><ele>1334.0</ele><time>2026-04-09T10:27:29.107Z</time></trkpt><trkpt lat="41.1675847" lon="14.5924155"><ele>1331.5</ele><time>2026-04-09T10:27:31.053Z</time></trkpt><trkpt lat="41.1675574" lon="14.5923323"><ele>1329.0</ele><time>2026-04-09T10:27:33.083Z</time></trkpt><trkpt lat="41.1675201" lon="14.5922582"><ele>1326.5</ele><time>2026-04-09T10:27:35.139Z</time></trkpt><trkpt lat="41.1674755" lon="14.5921641"><ele>1324.0</ele><time>2026-04-09T10:27:37.094Z</time></trkpt><trkpt lat="41.1674318" lon="14.5920669"><ele>1321.5</ele><time>2026-04-09T10:27:39.014Z</time></trkpt><trkpt lat="41.1674004" lon="14.5919428"><ele>1319.0</ele><time>2026-04-09T10:27:41.171Z</time></trkpt><trkpt lat="41.1673902" lon="14.59184"><ele>1317.0</ele><time>2026-04-09T10:27:43.145Z</time></trkpt><trkpt lat="41.1673842" lon="14.5917379"><ele>1315.0</ele><time>2026-04-09T10:27:46.106Z</time></trkpt><trkpt lat="41.1673926" lon="14.5916279"><ele>1313.0</ele><time>2026-04-09T10:27:54.113Z</time></trkpt><trkpt lat="41.1673879" lon="14.5915185"><ele>1311.0</ele><time>2026-04-09T10:27:57.184Z</time></trkpt><trkpt lat="41.1674192" lon="14.5912712"><ele>1309.0</ele><time>2026-04-09T10:28:00.083Z</time></trkpt><trkpt lat="41.1674499" lon="14.5911272"><ele>1305.0</ele><time>2026-04-09T10:28:03.141Z</time></trkpt><trkpt lat="41.167509" lon="14.5909858"><ele>1301.0</ele><time>2026-04-09T10:28:05.083Z</time></trkpt><trkpt lat="41.1675894" lon="14.5909051"><ele>1297.0</ele><time>2026-04-09T10:28:07.083Z</time></trkpt><trkpt lat="41.1676733" lon="14.5908678"><ele>1293.0</ele><time>2026-04-09T10:28:09.083Z</time></trkpt><trkpt lat="41.1677489" lon="14.5908399"><ele>1289.0</ele><time>2026-04-09T10:28:11.083Z</time></trkpt><trkpt lat="41.1678345" lon="14.5908321"><ele>1289.0</ele><time>2026-04-09T10:28:15.122Z</time></trkpt><trkpt lat="41.167911" lon="14.590837"><ele>1289.0</ele><time>2026-04-09T10:28:17.179Z</time></trkpt><trkpt lat="41.1680035" lon="14.590827"><ele>1289.0</ele><time>2026-04-09T10:28:20.062Z</time></trkpt><trkpt lat="41.1680826" lon="14.59081"><ele>1289.0</ele><time>2026-04-09T10:28:22.115Z</time></trkpt><trkpt lat="41.1681631" lon="14.5907867"><ele>1289.0</ele><time>2026-04-09T10:28:25.083Z</time></trkpt><trkpt lat="41.1682401" lon="14.5907715"><ele>1289.0</ele><time>2026-04-09T10:28:28.103Z</time></trkpt><trkpt lat="41.1683137" lon="14.5907606"><ele>1290.1666666666667</ele><time>2026-04-09T10:28:31.108Z</time></trkpt><trkpt lat="41.1683883" lon="14.5907383"><ele>1291.3333333333335</ele><time>2026-04-09T10:28:35.083Z</time></trkpt><trkpt lat="41.1685367" lon="14.5907083"><ele>1292.5</ele><time>2026-04-09T10:28:51.083Z</time></trkpt><trkpt lat="41.1686083" lon="14.5907133"><ele>1293.6666666666667</ele><time>2026-04-09T10:28:53.083Z</time></trkpt><trkpt lat="41.168675" lon="14.590705"><ele>1294.8333333333333</ele><time>2026-04-09T10:28:55.083Z</time></trkpt><trkpt lat="41.1687383" lon="14.5906883"><ele>1296.0</ele><time>2026-04-09T10:28:58.083Z</time></trkpt><trkpt lat="41.1688183" lon="14.59069"><ele>1296.0</ele><time>2026-04-09T10:29:01.083Z</time></trkpt><trkpt lat="41.1689033" lon="14.590675"><ele>1296.0</ele><time>2026-04-09T10:29:04.083Z</time></trkpt><trkpt lat="41.16899" lon="14.5906717"><ele>1296.0</ele><time>2026-04-09T10:29:07.083Z</time></trkpt><trkpt lat="41.16907" lon="14.5906633"><ele>1296.0</ele><time>2026-04-09T10:29:10.083Z</time></trkpt><trkpt lat="41.1691367" lon="14.5906567"><ele>1296.0</ele><time>2026-04-09T10:29:12.083Z</time></trkpt><trkpt lat="41.1692" lon="14.5906433"><ele>1296.0</ele><time>2026-04-09T10:29:14.083Z</time></trkpt><trkpt lat="41.16927" lon="14.5906317"><ele>1295.0</ele><time>2026-04-09T10:29:17.083Z</time></trkpt><trkpt lat="41.1693517" lon="14.5906167"><ele>1294.0</ele><time>2026-04-09T10:29:20.083Z</time></trkpt><trkpt lat="41.1694367" lon="14.5905867"><ele>1293.0</ele><time>2026-04-09T10:29:23.083Z</time></trkpt><trkpt lat="41.1695133" lon="14.5905683"><ele>1292.0</ele><time>2026-04-09T10:29:26.083Z</time></trkpt><trkpt lat="41.1695917" lon="14.5905467"><ele>1291.0</ele><time>2026-04-09T10:29:29.083Z</time></trkpt><trkpt lat="41.1696783" lon="14.5905133"><ele>1290.0</ele><time>2026-04-09T10:29:32.083Z</time></trkpt><trkpt lat="41.16975" lon="14.5904967"><ele>1290.0</ele><time>2026-04-09T10:29:35.083Z</time></trkpt><trkpt lat="41.1698317" lon="14.5904717"><ele>1290.0</ele><time>2026-04-09T10:29:38.083Z</time></trkpt><trkpt lat="41.169905" lon="14.59043"><ele>1290.0</ele><time>2026-04-09T10:29:41.083Z</time></trkpt><trkpt lat="41.1700117" lon="14.59038"><ele>1290.0</ele><time>2026-04-09T10:29:46.083Z</time></trkpt><trkpt lat="41.1700983" lon="14.5903567"><ele>1290.0</ele><time>2026-04-09T10:29:49.083Z</time></trkpt><trkpt lat="41.1701817" lon="14.5903333"><ele>1285.4285714285716</ele><time>2026-04-09T10:29:52.083Z</time></trkpt><trkpt lat="41.170245" lon="14.5903017"><ele>1280.8571428571427</ele><time>2026-04-09T10:29:54.083Z</time></trkpt><trkpt lat="41.1703117" lon="14.5902833"><ele>1276.2857142857142</ele><time>2026-04-09T10:29:57.083Z</time></trkpt><trkpt lat="41.1703883" lon="14.5902567"><ele>1271.7142857142858</ele><time>2026-04-09T10:30:01.083Z</time></trkpt><trkpt lat="41.1704533" lon="14.59023"><ele>1267.1428571428573</ele><time>2026-04-09T10:30:04.083Z</time></trkpt><trkpt lat="41.1705317" lon="14.5902"><ele>1262.5714285714284</ele><time>2026-04-09T10:30:08.083Z</time></trkpt><trkpt lat="41.170605" lon="14.59017"><ele>1258.0</ele><time>2026-04-09T10:30:11.083Z</time></trkpt><trkpt lat="41.170675" lon="14.5901567"><ele>1257.0</ele><time>2026-04-09T10:30:14.083Z</time></trkpt><trkpt lat="41.1707383" lon="14.5901233"><ele>1256.0</ele><time>2026-04-09T10:30:17.083Z</time></trkpt><trkpt lat="41.170815" lon="14.5900983"><ele>1255.0</ele><time>2026-04-09T10:30:20.083Z</time></trkpt><trkpt lat="41.170905" lon="14.5900717"><ele>1254.0</ele><time>2026-04-09T10:30:23.083Z</time></trkpt><trkpt lat="41.1709867" lon="14.59005"><ele>1253.0</ele><time>2026-04-09T10:30:26.083Z</time></trkpt><trkpt lat="41.17105" lon="14.5900367"><ele>1252.0</ele><time>2026-04-09T10:30:28.083Z</time></trkpt><trkpt lat="41.1711167" lon="14.5900233"><ele>1252.0</ele><time>2026-04-09T10:30:30.083Z</time></trkpt><trkpt lat="41.1711817" lon="14.59001"><ele>1252.0</ele><time>2026-04-09T10:30:32.083Z</time></trkpt><trkpt lat="41.171255" lon="14.589995"><ele>1252.0</ele><time>2026-04-09T10:30:34.083Z</time></trkpt><trkpt lat="41.1713217" lon="14.589995"><ele>1252.0</ele><time>2026-04-09T10:30:36.083Z</time></trkpt><trkpt lat="41.1713933" lon="14.589985"><ele>1252.0</ele><time>2026-04-09T10:30:38.083Z</time></trkpt><trkpt lat="41.1714783" lon="14.589975"><ele>1252.0</ele><time>2026-04-09T10:30:40.083Z</time></trkpt><trkpt lat="41.171565" lon="14.5899583"><ele>1250.6666666666665</ele><time>2026-04-09T10:30:42.083Z</time></trkpt><trkpt lat="41.1716417" lon="14.5899667"><ele>1249.3333333333333</ele><time>2026-04-09T10:30:44.083Z</time></trkpt><trkpt lat="41.1717033" lon="14.5899867"><ele>1248.0</ele><time>2026-04-09T10:30:46.083Z</time></trkpt><trkpt lat="41.1717917" lon="14.59"><ele>1246.6666666666667</ele><time>2026-04-09T10:30:49.083Z</time></trkpt><trkpt lat="41.17188" lon="14.5900217"><ele>1245.3333333333335</ele><time>2026-04-09T10:30:52.083Z</time></trkpt><trkpt lat="41.17196" lon="14.5900417"><ele>1244.0</ele><time>2026-04-09T10:30:55.083Z</time></trkpt><trkpt lat="41.1720383" lon="14.5900817"><ele>1244.0</ele><time>2026-04-09T10:30:58.083Z</time></trkpt><trkpt lat="41.172125" lon="14.59011"><ele>1244.0</ele><time>2026-04-09T10:31:01.083Z</time></trkpt><trkpt lat="41.1721933" lon="14.5901333"><ele>1244.0</ele><time>2026-04-09T10:31:03.083Z</time></trkpt><trkpt lat="41.1722683" lon="14.590165"><ele>1244.0</ele><time>2026-04-09T10:31:05.083Z</time></trkpt><trkpt lat="41.1723433" lon="14.5902083"><ele>1244.0</ele><time>2026-04-09T10:31:07.083Z</time></trkpt><trkpt lat="41.1724133" lon="14.59025"><ele>1244.0</ele><time>2026-04-09T10:31:09.083Z</time></trkpt><trkpt lat="41.17249" lon="14.5903033"><ele>1244.3333333333335</ele><time>2026-04-09T10:31:11.083Z</time></trkpt><trkpt lat="41.17256" lon="14.5903617"><ele>1244.6666666666667</ele><time>2026-04-09T10:31:13.083Z</time></trkpt><trkpt lat="41.1726333" lon="14.5904367"><ele>1245.0</ele><time>2026-04-09T10:31:15.083Z</time></trkpt><trkpt lat="41.1727" lon="14.5905117"><ele>1245.3333333333333</ele><time>2026-04-09T10:31:17.083Z</time></trkpt><trkpt lat="41.1727617" lon="14.590575"><ele>1245.6666666666665</ele><time>2026-04-09T10:31:19.083Z</time></trkpt><trkpt lat="41.17283" lon="14.5906333"><ele>1246.0</ele><time>2026-04-09T10:31:22.083Z</time></trkpt><trkpt lat="41.1728967" lon="14.5906933"><ele>1246.0</ele><time>2026-04-09T10:31:25.083Z</time></trkpt><trkpt lat="41.1729483" lon="14.5907467"><ele>1246.0</ele><time>2026-04-09T10:31:27.083Z</time></trkpt><trkpt lat="41.1730083" lon="14.59079"><ele>1246.0</ele><time>2026-04-09T10:31:29.083Z</time></trkpt><trkpt lat="41.1730783" lon="14.5908633"><ele>1246.0</ele><time>2026-04-09T10:31:32.083Z</time></trkpt><trkpt lat="41.1731317" lon="14.5909167"><ele>1246.0</ele><time>2026-04-09T10:31:34.083Z</time></trkpt><trkpt lat="41.1732117" lon="14.5909817"><ele>1246.0</ele><time>2026-04-09T10:31:37.083Z</time></trkpt><trkpt lat="41.17327" lon="14.591015"><ele>1246.0</ele><time>2026-04-09T10:31:40.083Z</time></trkpt><trkpt lat="41.173375" lon="14.5911317"><ele>1243.0</ele><time>2026-04-09T10:31:55.083Z</time></trkpt><trkpt lat="41.1734583" lon="14.5911717"><ele>1240.0</ele><time>2026-04-09T10:31:57.083Z</time></trkpt><trkpt lat="41.17354" lon="14.5912217"><ele>1237.0</ele><time>2026-04-09T10:31:59.083Z</time></trkpt><trkpt lat="41.1736417" lon="14.591265"><ele>1234.0</ele><time>2026-04-09T10:32:01.083Z</time></trkpt><trkpt lat="41.1737367" lon="14.59127"><ele>1231.0</ele><time>2026-04-09T10:32:03.083Z</time></trkpt><trkpt lat="41.1738283" lon="14.5912783"><ele>1231.0</ele><time>2026-04-09T10:32:05.083Z</time></trkpt><trkpt lat="41.173895" lon="14.59129"><ele>1231.0</ele><time>2026-04-09T10:32:07.083Z</time></trkpt><trkpt lat="41.1739733" lon="14.5913183"><ele>1231.0</ele><time>2026-04-09T10:32:09.083Z</time></trkpt><trkpt lat="41.17405" lon="14.5913417"><ele>1231.0</ele><time>2026-04-09T10:32:11.083Z</time></trkpt><trkpt lat="41.1741217" lon="14.5913467"><ele>1231.0</ele><time>2026-04-09T10:32:13.083Z</time></trkpt><trkpt lat="41.1742083" lon="14.5913833"><ele>1231.0</ele><time>2026-04-09T10:32:16.083Z</time></trkpt><trkpt lat="41.17427" lon="14.5914133"><ele>1227.8333333333333</ele><time>2026-04-09T10:32:18.083Z</time></trkpt><trkpt lat="41.1743717" lon="14.5914117"><ele>1224.6666666666665</ele><time>2026-04-09T10:32:21.083Z</time></trkpt><trkpt lat="41.17445" lon="14.5914317"><ele>1221.5</ele><time>2026-04-09T10:32:23.083Z</time></trkpt><trkpt lat="41.1745283" lon="14.5914483"><ele>1218.3333333333333</ele><time>2026-04-09T10:32:25.083Z</time></trkpt><trkpt lat="41.174605" lon="14.5914483"><ele>1215.1666666666667</ele><time>2026-04-09T10:32:27.083Z</time></trkpt><trkpt lat="41.1746817" lon="14.5914233"><ele>1212.0</ele><time>2026-04-09T10:32:30.083Z</time></trkpt><trkpt lat="41.1747683" lon="14.5913867"><ele>1212.0</ele><time>2026-04-09T10:32:33.083Z</time></trkpt><trkpt lat="41.174815" lon="14.5913283"><ele>1212.0</ele><time>2026-04-09T10:32:36.083Z</time></trkpt><trkpt lat="41.1747867" lon="14.5912183"><ele>1212.0</ele><time>2026-04-09T10:32:40.083Z</time></trkpt><trkpt lat="41.1747867" lon="14.5911017"><ele>1212.0</ele><time>2026-04-09T10:32:43.083Z</time></trkpt><trkpt lat="41.1748167" lon="14.59099"><ele>1212.0</ele><time>2026-04-09T10:32:46.083Z</time></trkpt><trkpt lat="41.1748483" lon="14.5909117"><ele>1212.0</ele><time>2026-04-09T10:32:49.083Z</time></trkpt><trkpt lat="41.1748917" lon="14.5908417"><ele>1211.0</ele><time>2026-04-09T10:32:52.083Z</time></trkpt><trkpt lat="41.17493" lon="14.5907433"><ele>1210.0</ele><time>2026-04-09T10:32:56.083Z</time></trkpt><trkpt lat="41.1749683" lon="14.5906467"><ele>1209.0</ele><time>2026-04-09T10:32:59.083Z</time></trkpt><trkpt lat="41.1750067" lon="14.5905433"><ele>1208.0</ele><time>2026-04-09T10:33:02.083Z</time></trkpt><trkpt lat="41.1750417" lon="14.590445"><ele>1207.0</ele><time>2026-04-09T10:33:06.083Z</time></trkpt><trkpt lat="41.1750967" lon="14.5903583"><ele>1206.0</ele><time>2026-04-09T10:33:09.083Z</time></trkpt><trkpt lat="41.1751283" lon="14.5902817"><ele>1204.1666666666667</ele><time>2026-04-09T10:33:12.083Z</time></trkpt><trkpt lat="41.1751717" lon="14.5902"><ele>1202.3333333333333</ele><time>2026-04-09T10:33:46.083Z</time></trkpt><trkpt lat="41.1752033" lon="14.5900883"><ele>1200.5</ele><time>2026-04-09T10:33:47.083Z</time></trkpt><trkpt lat="41.1752983" lon="14.5900983"><ele>1198.6666666666665</ele><time>2026-04-09T10:37:23.083Z</time></trkpt><trkpt lat="41.17524" lon="14.5901667"><ele>1196.8333333333333</ele><time>2026-04-09T10:37:42.083Z</time></trkpt><trkpt lat="41.1751483" lon="14.59024"><ele>1195.0</ele><time>2026-04-09T10:42:38.083Z</time></trkpt><trkpt lat="41.1752317" lon="14.5902017"><ele>1195.0</ele><time>2026-04-09T11:11:18.082Z</time></trkpt><trkpt lat="41.1751717" lon="14.5901117"><ele>1195.0</ele><time>2026-04-09T11:11:19.082Z</time></trkpt><trkpt lat="41.1751683" lon="14.59023"><ele>1195.0</ele><time>2026-04-09T11:13:37.082Z</time></trkpt><trkpt lat="41.1752617" lon="14.5902217"><ele>1195.0</ele><time>2026-04-09T11:19:40.082Z</time></trkpt><trkpt lat="41.17519" lon="14.5901483"><ele>1195.0</ele><time>2026-04-09T11:26:50.081Z</time></trkpt><trkpt lat="41.1752733" lon="14.5901083"><ele>1195.0</ele><time>2026-04-09T11:33:55.081Z</time></trkpt><trkpt lat="41.1752283" lon="14.5901917"><ele>1195.0</ele><time>2026-04-09T11:34:30.081Z</time></trkpt><trkpt lat="41.1751333" lon="14.5902383"><ele>1195.0</ele><time>2026-04-09T11:39:45.081Z</time></trkpt><trkpt lat="41.1752183" lon="14.5902033"><ele>1195.0</ele><time>2026-04-09T11:45:29.08Z</time></trkpt><trkpt lat="41.1751555" lon="14.5901289"><ele>1195.0</ele><time>2026-04-09T11:47:20.096Z</time></trkpt><trkpt lat="41.1751138" lon="14.590049"><ele>1195.0</ele><time>2026-04-09T11:48:29.08Z</time></trkpt><trkpt lat="41.1751794" lon="14.5900482"><ele>1195.0</ele><time>2026-04-09T11:49:58.122Z</time></trkpt><trkpt lat="41.1752267" lon="14.5901233"><ele>1195.0</ele><time>2026-04-09T11:53:22.08Z</time></trkpt><trkpt lat="41.1752" lon="14.5902317"><ele>1195.0</ele><time>2026-04-09T11:53:24.08Z</time></trkpt><trkpt lat="41.175145" lon="14.59039"><ele>1195.0</ele><time>2026-04-09T11:53:26.08Z</time></trkpt><trkpt lat="41.1750883" lon="14.5905167"><ele>1195.0</ele><time>2026-04-09T11:53:28.08Z</time></trkpt><trkpt lat="41.1750383" lon="14.5906333"><ele>1197.0</ele><time>2026-04-09T11:53:30.08Z</time></trkpt><trkpt lat="41.1749967" lon="14.5907467"><ele>1199.0</ele><time>2026-04-09T11:53:32.08Z</time></trkpt><trkpt lat="41.1749433" lon="14.5908483"><ele>1201.0</ele><time>2026-04-09T11:53:34.08Z</time></trkpt><trkpt lat="41.1748867" lon="14.5909767"><ele>1203.0</ele><time>2026-04-09T11:53:36.08Z</time></trkpt><trkpt lat="41.1748733" lon="14.5910783"><ele>1205.0</ele><time>2026-04-09T11:53:38.08Z</time></trkpt><trkpt lat="41.17488" lon="14.591205"><ele>1205.0</ele><time>2026-04-09T11:53:40.08Z</time></trkpt><trkpt lat="41.1749367" lon="14.5913467"><ele>1205.0</ele><time>2026-04-09T11:53:42.08Z</time></trkpt><trkpt lat="41.1749767" lon="14.5914183"><ele>1205.0</ele><time>2026-04-09T11:53:43.08Z</time></trkpt><trkpt lat="41.1750183" lon="14.5914817"><ele>1205.0</ele><time>2026-04-09T11:53:44.08Z</time></trkpt><trkpt lat="41.1750917" lon="14.59159"><ele>1205.0</ele><time>2026-04-09T11:53:46.08Z</time></trkpt><trkpt lat="41.1751633" lon="14.59171"><ele>1205.0</ele><time>2026-04-09T11:53:48.08Z</time></trkpt><trkpt lat="41.1752067" lon="14.591775"><ele>1205.0</ele><time>2026-04-09T11:53:49.08Z</time></trkpt><trkpt lat="41.1753067" lon="14.5918917"><ele>1205.0</ele><time>2026-04-09T11:53:51.08Z</time></trkpt><trkpt lat="41.1753733" lon="14.5919583"><ele>1205.0</ele><time>2026-04-09T11:53:52.08Z</time></trkpt><trkpt lat="41.175445" lon="14.5920167"><ele>1205.0</ele><time>2026-04-09T11:53:53.08Z</time></trkpt><trkpt lat="41.1755183" lon="14.5920717"><ele>1205.3333333333335</ele><time>2026-04-09T11:53:54.08Z</time></trkpt><trkpt lat="41.1755867" lon="14.5921233"><ele>1205.6666666666667</ele><time>2026-04-09T11:53:55.08Z</time></trkpt><trkpt lat="41.1756517" lon="14.59219"><ele>1206.0</ele><time>2026-04-09T11:53:56.08Z</time></trkpt><trkpt lat="41.1757167" lon="14.5922633"><ele>1206.3333333333333</ele><time>2026-04-09T11:53:57.08Z</time></trkpt><trkpt lat="41.175775" lon="14.59234"><ele>1206.6666666666665</ele><time>2026-04-09T11:53:58.08Z</time></trkpt><trkpt lat="41.175835" lon="14.592405"><ele>1207.0</ele><time>2026-04-09T11:53:59.08Z</time></trkpt><trkpt lat="41.1758867" lon="14.5924767"><ele>1207.0</ele><time>2026-04-09T11:54:00.08Z</time></trkpt><trkpt lat="41.1759283" lon="14.5925433"><ele>1207.0</ele><time>2026-04-09T11:54:01.08Z</time></trkpt><trkpt lat="41.1759783" lon="14.5926883"><ele>1207.0</ele><time>2026-04-09T11:54:03.08Z</time></trkpt><trkpt lat="41.17601" lon="14.592845"><ele>1207.0</ele><time>2026-04-09T11:54:05.08Z</time></trkpt><trkpt lat="41.17601" lon="14.592945"><ele>1207.0</ele><time>2026-04-09T11:54:06.08Z</time></trkpt><trkpt lat="41.176" lon="14.5930467"><ele>1205.1666666666665</ele><time>2026-04-09T11:54:07.08Z</time></trkpt><trkpt lat="41.1759783" lon="14.59315"><ele>1203.3333333333333</ele><time>2026-04-09T11:54:08.08Z</time></trkpt><trkpt lat="41.1759467" lon="14.593255"><ele>1201.5</ele><time>2026-04-09T11:54:09.08Z</time></trkpt><trkpt lat="41.1759117" lon="14.5933683"><ele>1199.6666666666667</ele><time>2026-04-09T11:54:10.08Z</time></trkpt><trkpt lat="41.1758833" lon="14.5934783"><ele>1197.8333333333335</ele><time>2026-04-09T11:54:11.08Z</time></trkpt><trkpt lat="41.17585" lon="14.5935967"><ele>1196.0</ele><time>2026-04-09T11:54:12.08Z</time></trkpt><trkpt lat="41.17582" lon="14.5937233"><ele>1195.8333333333335</ele><time>2026-04-09T11:54:13.08Z</time></trkpt><trkpt lat="41.1758083" lon="14.5938433"><ele>1195.6666666666667</ele><time>2026-04-09T11:54:14.08Z</time></trkpt><trkpt lat="41.1758167" lon="14.5939467"><ele>1195.5</ele><time>2026-04-09T11:54:15.08Z</time></trkpt><trkpt lat="41.1758233" lon="14.59405"><ele>1195.3333333333333</ele><time>2026-04-09T11:54:16.08Z</time></trkpt><trkpt lat="41.1758283" lon="14.5941567"><ele>1195.1666666666665</ele><time>2026-04-09T11:54:17.08Z</time></trkpt><trkpt lat="41.17584" lon="14.59427"><ele>1195.0</ele><time>2026-04-09T11:54:18.08Z</time></trkpt><trkpt lat="41.1758633" lon="14.5943883"><ele>1194.2</ele><time>2026-04-09T11:54:19.08Z</time></trkpt><trkpt lat="41.175875" lon="14.594505"><ele>1193.4</ele><time>2026-04-09T11:54:20.08Z</time></trkpt><trkpt lat="41.17589" lon="14.5946283"><ele>1192.6</ele><time>2026-04-09T11:54:21.08Z</time></trkpt><trkpt lat="41.1759117" lon="14.5947617"><ele>1191.8</ele><time>2026-04-09T11:54:22.08Z</time></trkpt><trkpt lat="41.1759383" lon="14.594905"><ele>1191.0</ele><time>2026-04-09T11:54:23.08Z</time></trkpt><trkpt lat="41.175965" lon="14.59509"><ele>1191.0</ele><time>2026-04-09T11:54:24.08Z</time></trkpt><trkpt lat="41.1759883" lon="14.5952417"><ele>1191.0</ele><time>2026-04-09T11:54:25.08Z</time></trkpt><trkpt lat="41.1759983" lon="14.59538"><ele>1191.0</ele><time>2026-04-09T11:54:26.08Z</time></trkpt><trkpt lat="41.17601" lon="14.595515"><ele>1191.0</ele><time>2026-04-09T11:54:27.08Z</time></trkpt><trkpt lat="41.1760217" lon="14.5956617"><ele>1191.0</ele><time>2026-04-09T11:54:28.08Z</time></trkpt><trkpt lat="41.176025" lon="14.5957817"><ele>1189.8333333333333</ele><time>2026-04-09T11:54:29.08Z</time></trkpt><trkpt lat="41.176025" lon="14.59591"><ele>1188.6666666666667</ele><time>2026-04-09T11:54:30.08Z</time></trkpt><trkpt lat="41.176025" lon="14.596025"><ele>1187.5</ele><time>2026-04-09T11:54:31.08Z</time></trkpt><trkpt lat="41.1760283" lon="14.59614"><ele>1186.3333333333335</ele><time>2026-04-09T11:54:32.08Z</time></trkpt><trkpt lat="41.1760217" lon="14.5962417"><ele>1185.1666666666667</ele><time>2026-04-09T11:54:33.08Z</time></trkpt><trkpt lat="41.176015" lon="14.5963483"><ele>1184.0</ele><time>2026-04-09T11:54:34.08Z</time></trkpt><trkpt lat="41.1760083" lon="14.596455"><ele>1183.1666666666667</ele><time>2026-04-09T11:54:35.08Z</time></trkpt><trkpt lat="41.1759933" lon="14.5965583"><ele>1182.3333333333335</ele><time>2026-04-09T11:54:36.08Z</time></trkpt><trkpt lat="41.175985" lon="14.5966667"><ele>1181.5</ele><time>2026-04-09T11:54:37.08Z</time></trkpt><trkpt lat="41.17598" lon="14.596765"><ele>1180.6666666666667</ele><time>2026-04-09T11:54:38.08Z</time></trkpt><trkpt lat="41.1759767" lon="14.5968683"><ele>1179.8333333333333</ele><time>2026-04-09T11:54:39.08Z</time></trkpt><trkpt lat="41.1759733" lon="14.5969817"><ele>1179.0</ele><time>2026-04-09T11:54:40.08Z</time></trkpt><trkpt lat="41.1759667" lon="14.5970983"><ele>1178.6666666666667</ele><time>2026-04-09T11:54:41.08Z</time></trkpt><trkpt lat="41.1759483" lon="14.5972083"><ele>1178.3333333333333</ele><time>2026-04-09T11:54:42.08Z</time></trkpt><trkpt lat="41.1759317" lon="14.5973183"><ele>1178.0</ele><time>2026-04-09T11:54:43.08Z</time></trkpt><trkpt lat="41.1759117" lon="14.597425"><ele>1177.6666666666665</ele><time>2026-04-09T11:54:44.08Z</time></trkpt><trkpt lat="41.17589" lon="14.597525"><ele>1177.3333333333333</ele><time>2026-04-09T11:54:45.08Z</time></trkpt><trkpt lat="41.17587" lon="14.5976317"><ele>1177.0</ele><time>2026-04-09T11:54:46.08Z</time></trkpt><trkpt lat="41.17585" lon="14.5977483"><ele>1177.6666666666665</ele><time>2026-04-09T11:54:47.08Z</time></trkpt><trkpt lat="41.175825" lon="14.59786"><ele>1178.3333333333333</ele><time>2026-04-09T11:54:48.08Z</time></trkpt><trkpt lat="41.1758083" lon="14.597965"><ele>1179.0</ele><time>2026-04-09T11:54:49.08Z</time></trkpt><trkpt lat="41.17579" lon="14.598065"><ele>1179.6666666666667</ele><time>2026-04-09T11:54:50.08Z</time></trkpt><trkpt lat="41.1757733" lon="14.5981633"><ele>1180.3333333333335</ele><time>2026-04-09T11:54:51.08Z</time></trkpt><trkpt lat="41.17575" lon="14.59826"><ele>1181.0</ele><time>2026-04-09T11:54:52.08Z</time></trkpt><trkpt lat="41.1757283" lon="14.5983533"><ele>1181.0</ele><time>2026-04-09T11:54:53.08Z</time></trkpt><trkpt lat="41.1757033" lon="14.598445"><ele>1181.0</ele><time>2026-04-09T11:54:54.08Z</time></trkpt><trkpt lat="41.1756733" lon="14.5985467"><ele>1181.0</ele><time>2026-04-09T11:54:55.08Z</time></trkpt><trkpt lat="41.1756383" lon="14.59864"><ele>1181.0</ele><time>2026-04-09T11:54:56.08Z</time></trkpt><trkpt lat="41.175605" lon="14.59874"><ele>1181.0</ele><time>2026-04-09T11:54:57.08Z</time></trkpt><trkpt lat="41.1755767" lon="14.5988517"><ele>1181.0</ele><time>2026-04-09T11:54:58.08Z</time></trkpt><trkpt lat="41.1755483" lon="14.5989633"><ele>1176.0</ele><time>2026-04-09T11:54:59.08Z</time></trkpt><trkpt lat="41.1755233" lon="14.5990667"><ele>1171.0</ele><time>2026-04-09T11:55:00.08Z</time></trkpt><trkpt lat="41.175495" lon="14.5991733"><ele>1166.0</ele><time>2026-04-09T11:55:01.08Z</time></trkpt><trkpt lat="41.1754683" lon="14.5992783"><ele>1161.0</ele><time>2026-04-09T11:55:02.08Z</time></trkpt><trkpt lat="41.1754433" lon="14.5993767"><ele>1156.0</ele><time>2026-04-09T11:55:03.08Z</time></trkpt><trkpt lat="41.175415" lon="14.59948"><ele>1151.0</ele><time>2026-04-09T11:55:04.08Z</time></trkpt><trkpt lat="41.1753817" lon="14.5995867"><ele>1151.0</ele><time>2026-04-09T11:55:05.08Z</time></trkpt><trkpt lat="41.17535" lon="14.599695"><ele>1151.0</ele><time>2026-04-09T11:55:06.08Z</time></trkpt><trkpt lat="41.1753183" lon="14.599805"><ele>1151.0</ele><time>2026-04-09T11:55:07.08Z</time></trkpt><trkpt lat="41.1752883" lon="14.5999233"><ele>1151.0</ele><time>2026-04-09T11:55:08.08Z</time></trkpt><trkpt lat="41.1752583" lon="14.6000433"><ele>1151.0</ele><time>2026-04-09T11:55:09.08Z</time></trkpt><trkpt lat="41.1752333" lon="14.6001633"><ele>1151.0</ele><time>2026-04-09T11:55:10.08Z</time></trkpt><trkpt lat="41.1752033" lon="14.6002917"><ele>1151.0</ele><time>2026-04-09T11:55:11.08Z</time></trkpt><trkpt lat="41.17516" lon="14.600425"><ele>1151.0</ele><time>2026-04-09T11:55:12.08Z</time></trkpt><trkpt lat="41.1751083" lon="14.6005567"><ele>1151.0</ele><time>2026-04-09T11:55:13.08Z</time></trkpt><trkpt lat="41.1750583" lon="14.6006817"><ele>1151.0</ele><time>2026-04-09T11:55:14.08Z</time></trkpt><trkpt lat="41.17501" lon="14.6008"><ele>1151.8333333333335</ele><time>2026-04-09T11:55:15.08Z</time></trkpt><trkpt lat="41.174965" lon="14.6009033"><ele>1152.6666666666667</ele><time>2026-04-09T11:55:16.08Z</time></trkpt><trkpt lat="41.1749217" lon="14.6010017"><ele>1153.5</ele><time>2026-04-09T11:55:17.08Z</time></trkpt><trkpt lat="41.17488" lon="14.6010933"><ele>1154.3333333333333</ele><time>2026-04-09T11:55:18.08Z</time></trkpt><trkpt lat="41.1748367" lon="14.6011867"><ele>1155.1666666666665</ele><time>2026-04-09T11:55:19.08Z</time></trkpt><trkpt lat="41.1747983" lon="14.6012733"><ele>1156.0</ele><time>2026-04-09T11:55:20.08Z</time></trkpt><trkpt lat="41.1747633" lon="14.6013633"><ele>1153.1666666666665</ele><time>2026-04-09T11:55:21.08Z</time></trkpt><trkpt lat="41.17473" lon="14.6014567"><ele>1150.3333333333333</ele><time>2026-04-09T11:55:22.08Z</time></trkpt><trkpt lat="41.174695" lon="14.60155"><ele>1147.5</ele><time>2026-04-09T11:55:23.08Z</time></trkpt><trkpt lat="41.1746567" lon="14.6016433"><ele>1144.6666666666667</ele><time>2026-04-09T11:55:24.08Z</time></trkpt><trkpt lat="41.1746167" lon="14.60174"><ele>1141.8333333333335</ele><time>2026-04-09T11:55:25.08Z</time></trkpt><trkpt lat="41.1745733" lon="14.60184"><ele>1139.0</ele><time>2026-04-09T11:55:26.08Z</time></trkpt><trkpt lat="41.1745267" lon="14.6019417"><ele>1140.5</ele><time>2026-04-09T11:55:27.08Z</time></trkpt><trkpt lat="41.17448" lon="14.6020533"><ele>1142.0</ele><time>2026-04-09T11:55:28.08Z</time></trkpt><trkpt lat="41.1744433" lon="14.6021667"><ele>1143.5</ele><time>2026-04-09T11:55:29.08Z</time></trkpt><trkpt lat="41.1744233" lon="14.60228"><ele>1145.0</ele><time>2026-04-09T11:55:30.08Z</time></trkpt><trkpt lat="41.1744217" lon="14.60239"><ele>1146.5</ele><time>2026-04-09T11:55:31.08Z</time></trkpt><trkpt lat="41.17444" lon="14.6025033"><ele>1148.0</ele><time>2026-04-09T11:55:32.08Z</time></trkpt><trkpt lat="41.1744783" lon="14.6026183"><ele>1148.0</ele><time>2026-04-09T11:55:33.08Z</time></trkpt><trkpt lat="41.1745283" lon="14.6027283"><ele>1148.0</ele><time>2026-04-09T11:55:34.08Z</time></trkpt><trkpt lat="41.1745917" lon="14.6028283"><ele>1148.0</ele><time>2026-04-09T11:55:35.08Z</time></trkpt><trkpt lat="41.1746683" lon="14.6029217"><ele>1148.0</ele><time>2026-04-09T11:55:36.08Z</time></trkpt><trkpt lat="41.1747517" lon="14.6030117"><ele>1148.0</ele><time>2026-04-09T11:55:37.08Z</time></trkpt><trkpt lat="41.174835" lon="14.6030783"><ele>1151.0</ele><time>2026-04-09T11:55:38.08Z</time></trkpt><trkpt lat="41.1749233" lon="14.6031567"><ele>1154.0</ele><time>2026-04-09T11:55:39.08Z</time></trkpt><trkpt lat="41.1750183" lon="14.603195"><ele>1157.0</ele><time>2026-04-09T11:55:40.08Z</time></trkpt><trkpt lat="41.1751133" lon="14.6031867"><ele>1160.0</ele><time>2026-04-09T11:55:41.08Z</time></trkpt><trkpt lat="41.1752167" lon="14.6031567"><ele>1163.0</ele><time>2026-04-09T11:55:42.08Z</time></trkpt><trkpt lat="41.175315" lon="14.6031317"><ele>1163.0</ele><time>2026-04-09T11:55:43.08Z</time></trkpt><trkpt lat="41.1754233" lon="14.6030983"><ele>1163.0</ele><time>2026-04-09T11:55:44.08Z</time></trkpt><trkpt lat="41.175535" lon="14.603055"><ele>1163.0</ele><time>2026-04-09T11:55:45.08Z</time></trkpt><trkpt lat="41.175645" lon="14.6030233"><ele>1163.0</ele><time>2026-04-09T11:55:46.08Z</time></trkpt><trkpt lat="41.17574" lon="14.6029967"><ele>1163.0</ele><time>2026-04-09T11:55:47.08Z</time></trkpt><trkpt lat="41.1758317" lon="14.6029833"><ele>1160.8333333333335</ele><time>2026-04-09T11:55:48.08Z</time></trkpt><trkpt lat="41.1759133" lon="14.602965"><ele>1158.6666666666667</ele><time>2026-04-09T11:55:49.08Z</time></trkpt><trkpt lat="41.17599" lon="14.6029467"><ele>1156.5</ele><time>2026-04-09T11:55:50.08Z</time></trkpt><trkpt lat="41.1760617" lon="14.60294"><ele>1154.3333333333333</ele><time>2026-04-09T11:55:51.08Z</time></trkpt><trkpt lat="41.1761333" lon="14.6029483"><ele>1152.1666666666665</ele><time>2026-04-09T11:55:52.08Z</time></trkpt><trkpt lat="41.1762" lon="14.603"><ele>1150.0</ele><time>2026-04-09T11:55:53.08Z</time></trkpt><trkpt lat="41.17624" lon="14.6030983"><ele>1150.0</ele><time>2026-04-09T11:55:54.08Z</time></trkpt><trkpt lat="41.1762617" lon="14.60322"><ele>1150.0</ele><time>2026-04-09T11:55:55.08Z</time></trkpt><trkpt lat="41.1762783" lon="14.6033483"><ele>1150.0</ele><time>2026-04-09T11:55:56.08Z</time></trkpt><trkpt lat="41.1762733" lon="14.603485"><ele>1150.0</ele><time>2026-04-09T11:55:57.08Z</time></trkpt><trkpt lat="41.1762633" lon="14.603625"><ele>1150.0</ele><time>2026-04-09T11:55:58.08Z</time></trkpt><trkpt lat="41.1762467" lon="14.6037617"><ele>1150.2</ele><time>2026-04-09T11:55:59.08Z</time></trkpt><trkpt lat="41.17624" lon="14.6038967"><ele>1150.4</ele><time>2026-04-09T11:56:00.08Z</time></trkpt><trkpt lat="41.1762283" lon="14.6040333"><ele>1150.6</ele><time>2026-04-09T11:56:01.08Z</time></trkpt><trkpt lat="41.1762133" lon="14.604165"><ele>1150.8</ele><time>2026-04-09T11:56:02.08Z</time></trkpt><trkpt lat="41.1762033" lon="14.6042883"><ele>1151.0</ele><time>2026-04-09T11:56:03.08Z</time></trkpt><trkpt lat="41.1761867" lon="14.6044117"><ele>1149.8333333333335</ele><time>2026-04-09T11:56:04.08Z</time></trkpt><trkpt lat="41.1761733" lon="14.6045233"><ele>1148.6666666666667</ele><time>2026-04-09T11:56:05.08Z</time></trkpt><trkpt lat="41.17614" lon="14.6046467"><ele>1147.5</ele><time>2026-04-09T11:56:06.08Z</time></trkpt><trkpt lat="41.176095" lon="14.60475"><ele>1146.3333333333333</ele><time>2026-04-09T11:56:07.08Z</time></trkpt><trkpt lat="41.1760483" lon="14.6048517"><ele>1145.1666666666665</ele><time>2026-04-09T11:56:08.08Z</time></trkpt><trkpt lat="41.1760083" lon="14.6049417"><ele>1144.0</ele><time>2026-04-09T11:56:09.08Z</time></trkpt><trkpt lat="41.175975" lon="14.6050283"><ele>1143.9999999999998</ele><time>2026-04-09T11:56:10.08Z</time></trkpt><trkpt lat="41.1759467" lon="14.60511"><ele>1144.0</ele><time>2026-04-09T11:56:11.08Z</time></trkpt><trkpt lat="41.1759267" lon="14.605195"><ele>1144.0</ele><time>2026-04-09T11:56:12.08Z</time></trkpt><trkpt lat="41.175915" lon="14.60529"><ele>1144.0</ele><time>2026-04-09T11:56:13.08Z</time></trkpt><trkpt lat="41.1759083" lon="14.6053767"><ele>1144.0</ele><time>2026-04-09T11:56:14.08Z</time></trkpt><trkpt lat="41.17592" lon="14.60547"><ele>1143.9999999999998</ele><time>2026-04-09T11:56:15.08Z</time></trkpt><trkpt lat="41.1759533" lon="14.6055583"><ele>1144.0</ele><time>2026-04-09T11:56:16.08Z</time></trkpt><trkpt lat="41.1760033" lon="14.6056233"><ele>1143.1666666666665</ele><time>2026-04-09T11:56:17.08Z</time></trkpt><trkpt lat="41.1760617" lon="14.6056767"><ele>1142.3333333333333</ele><time>2026-04-09T11:56:18.08Z</time></trkpt><trkpt lat="41.1761283" lon="14.6057183"><ele>1141.5</ele><time>2026-04-09T11:56:19.08Z</time></trkpt><trkpt lat="41.1762133" lon="14.605745"><ele>1140.6666666666667</ele><time>2026-04-09T11:56:20.08Z</time></trkpt><trkpt lat="41.1763133" lon="14.6057767"><ele>1139.8333333333335</ele><time>2026-04-09T11:56:21.08Z</time></trkpt><trkpt lat="41.1763883" lon="14.6058067"><ele>1139.0</ele><time>2026-04-09T11:56:22.08Z</time></trkpt><trkpt lat="41.17648" lon="14.6058433"><ele>1134.0</ele><time>2026-04-09T11:56:23.08Z</time></trkpt><trkpt lat="41.1765883" lon="14.6058833"><ele>1129.0</ele><time>2026-04-09T11:56:24.08Z</time></trkpt><trkpt lat="41.1767083" lon="14.6059167"><ele>1124.0</ele><time>2026-04-09T11:56:25.08Z</time></trkpt><trkpt lat="41.1768283" lon="14.6059217"><ele>1119.0</ele><time>2026-04-09T11:56:26.08Z</time></trkpt><trkpt lat="41.1769383" lon="14.6059017"><ele>1119.0</ele><time>2026-04-09T11:56:27.08Z</time></trkpt><trkpt lat="41.1770333" lon="14.6058583"><ele>1119.0</ele><time>2026-04-09T11:56:28.08Z</time></trkpt><trkpt lat="41.1771267" lon="14.6057933"><ele>1119.0</ele><time>2026-04-09T11:56:29.08Z</time></trkpt><trkpt lat="41.1772267" lon="14.6057133"><ele>1119.0</ele><time>2026-04-09T11:56:30.08Z</time></trkpt><trkpt lat="41.1773267" lon="14.6056267"><ele>1119.0</ele><time>2026-04-09T11:56:31.08Z</time></trkpt><trkpt lat="41.1774283" lon="14.6055333"><ele>1117.25</ele><time>2026-04-09T11:56:32.08Z</time></trkpt><trkpt lat="41.1775383" lon="14.60544"><ele>1115.5</ele><time>2026-04-09T11:56:33.08Z</time></trkpt><trkpt lat="41.17764" lon="14.6053483"><ele>1113.75</ele><time>2026-04-09T11:56:34.08Z</time></trkpt><trkpt lat="41.1777417" lon="14.6052583"><ele>1112.0</ele><time>2026-04-09T11:56:35.08Z</time></trkpt><trkpt lat="41.1778417" lon="14.60517"><ele>1106.5</ele><time>2026-04-09T11:56:36.08Z</time></trkpt><trkpt lat="41.177945" lon="14.605075"><ele>1101.0</ele><time>2026-04-09T11:56:37.08Z</time></trkpt><trkpt lat="41.1780467" lon="14.6049817"><ele>1095.5</ele><time>2026-04-09T11:56:38.08Z</time></trkpt><trkpt lat="41.1781467" lon="14.6048983"><ele>1090.0</ele><time>2026-04-09T11:56:39.08Z</time></trkpt><trkpt lat="41.1782517" lon="14.6048367"><ele>1090.0</ele><time>2026-04-09T11:56:40.08Z</time></trkpt><trkpt lat="41.1783667" lon="14.604795"><ele>1090.0</ele><time>2026-04-09T11:56:41.08Z</time></trkpt><trkpt lat="41.1784917" lon="14.60478"><ele>1090.0</ele><time>2026-04-09T11:56:42.08Z</time></trkpt><trkpt lat="41.1786267" lon="14.60478"><ele>1090.0</ele><time>2026-04-09T11:56:43.08Z</time></trkpt><trkpt lat="41.17877" lon="14.6047917"><ele>1090.0</ele><time>2026-04-09T11:56:44.08Z</time></trkpt><trkpt lat="41.1789067" lon="14.6048167"><ele>1090.0</ele><time>2026-04-09T11:56:45.08Z</time></trkpt><trkpt lat="41.17904" lon="14.6048417"><ele>1090.0</ele><time>2026-04-09T11:56:46.08Z</time></trkpt><trkpt lat="41.1791667" lon="14.6048633"><ele>1090.0</ele><time>2026-04-09T11:56:47.08Z</time></trkpt><trkpt lat="41.1792933" lon="14.6048817"><ele>1087.75</ele><time>2026-04-09T11:56:48.08Z</time></trkpt><trkpt lat="41.1794067" lon="14.6049017"><ele>1085.5</ele><time>2026-04-09T11:56:49.08Z</time></trkpt><trkpt lat="41.179515" lon="14.6049383"><ele>1083.25</ele><time>2026-04-09T11:56:50.08Z</time></trkpt><trkpt lat="41.17962" lon="14.605"><ele>1081.0</ele><time>2026-04-09T11:56:51.08Z</time></trkpt><trkpt lat="41.179715" lon="14.605085"><ele>1081.0</ele><time>2026-04-09T11:56:52.08Z</time></trkpt><trkpt lat="41.179795" lon="14.6052033"><ele>1081.0</ele><time>2026-04-09T11:56:53.08Z</time></trkpt><trkpt lat="41.17987" lon="14.6053383"><ele>1081.0</ele><time>2026-04-09T11:56:54.08Z</time></trkpt><trkpt lat="41.17993" lon="14.60547"><ele>1081.0</ele><time>2026-04-09T11:56:55.08Z</time></trkpt><trkpt lat="41.1799783" lon="14.6056083"><ele>1080.3999999999999</ele><time>2026-04-09T11:56:56.08Z</time></trkpt><trkpt lat="41.1800083" lon="14.6057433"><ele>1079.8</ele><time>2026-04-09T11:56:57.08Z</time></trkpt><trkpt lat="41.1800267" lon="14.6058733"><ele>1079.1999999999998</ele><time>2026-04-09T11:56:58.08Z</time></trkpt><trkpt lat="41.180025" lon="14.6060117"><ele>1078.6</ele><time>2026-04-09T11:56:59.08Z</time></trkpt><trkpt lat="41.1800317" lon="14.6061467"><ele>1078.0</ele><time>2026-04-09T11:57:00.08Z</time></trkpt><trkpt lat="41.1800517" lon="14.6062867"><ele>1078.0</ele><time>2026-04-09T11:57:01.08Z</time></trkpt><trkpt lat="41.1800933" lon="14.60642"><ele>1078.0</ele><time>2026-04-09T11:57:02.08Z</time></trkpt><trkpt lat="41.18014" lon="14.6065533"><ele>1078.0</ele><time>2026-04-09T11:57:03.08Z</time></trkpt><trkpt lat="41.1801983" lon="14.6066867"><ele>1078.0</ele><time>2026-04-09T11:57:04.08Z</time></trkpt><trkpt lat="41.180265" lon="14.6068033"><ele>1078.0</ele><time>2026-04-09T11:57:05.08Z</time></trkpt><trkpt lat="41.1803233" lon="14.606925"><ele>1078.8</ele><time>2026-04-09T11:57:06.08Z</time></trkpt><trkpt lat="41.1803733" lon="14.6070583"><ele>1079.6</ele><time>2026-04-09T11:57:07.08Z</time></trkpt><trkpt lat="41.1804133" lon="14.6071883"><ele>1080.4</ele><time>2026-04-09T11:57:08.08Z</time></trkpt><trkpt lat="41.1804417" lon="14.6073217"><ele>1081.2</ele><time>2026-04-09T11:57:09.08Z</time></trkpt><trkpt lat="41.180455" lon="14.6074567"><ele>1082.0</ele><time>2026-04-09T11:57:10.08Z</time></trkpt><trkpt lat="41.1804567" lon="14.607585"><ele>1082.0</ele><time>2026-04-09T11:57:11.08Z</time></trkpt><trkpt lat="41.1804383" lon="14.607705"><ele>1082.0</ele><time>2026-04-09T11:57:12.08Z</time></trkpt><trkpt lat="41.1804133" lon="14.6078267"><ele>1082.0</ele><time>2026-04-09T11:57:13.08Z</time></trkpt><trkpt lat="41.1803633" lon="14.6079433"><ele>1082.0</ele><time>2026-04-09T11:57:14.08Z</time></trkpt><trkpt lat="41.1803017" lon="14.6080633"><ele>1082.0</ele><time>2026-04-09T11:57:15.08Z</time></trkpt><trkpt lat="41.1802467" lon="14.6081867"><ele>1077.0</ele><time>2026-04-09T11:57:16.08Z</time></trkpt><trkpt lat="41.180195" lon="14.6083217"><ele>1072.0</ele><time>2026-04-09T11:57:17.08Z</time></trkpt><trkpt lat="41.1801517" lon="14.6084683"><ele>1067.0</ele><time>2026-04-09T11:57:18.08Z</time></trkpt><trkpt lat="41.180115" lon="14.6086183"><ele>1062.0</ele><time>2026-04-09T11:57:19.08Z</time></trkpt><trkpt lat="41.180085" lon="14.60877"><ele>1057.75</ele><time>2026-04-09T11:57:20.08Z</time></trkpt><trkpt lat="41.1800583" lon="14.60892"><ele>1053.5</ele><time>2026-04-09T11:57:21.08Z</time></trkpt><trkpt lat="41.1800267" lon="14.6090733"><ele>1049.25</ele><time>2026-04-09T11:57:22.08Z</time></trkpt><trkpt lat="41.1799983" lon="14.6092333"><ele>1045.0</ele><time>2026-04-09T11:57:23.08Z</time></trkpt><trkpt lat="41.1799767" lon="14.60938"><ele>1041.8</ele><time>2026-04-09T11:57:24.08Z</time></trkpt><trkpt lat="41.17996" lon="14.6095317"><ele>1038.6</ele><time>2026-04-09T11:57:25.08Z</time></trkpt><trkpt lat="41.1799433" lon="14.6096783"><ele>1035.4</ele><time>2026-04-09T11:57:26.08Z</time></trkpt><trkpt lat="41.1799233" lon="14.60982"><ele>1032.2</ele><time>2026-04-09T11:57:27.08Z</time></trkpt><trkpt lat="41.1799067" lon="14.609955"><ele>1029.0</ele><time>2026-04-09T11:57:28.08Z</time></trkpt><trkpt lat="41.1799" lon="14.610085"><ele>1029.0</ele><time>2026-04-09T11:57:29.08Z</time></trkpt><trkpt lat="41.1798833" lon="14.6102017"><ele>1029.0</ele><time>2026-04-09T11:57:30.08Z</time></trkpt><trkpt lat="41.1798617" lon="14.61031"><ele>1029.0</ele><time>2026-04-09T11:57:31.08Z</time></trkpt><trkpt lat="41.1798383" lon="14.61042"><ele>1029.0</ele><time>2026-04-09T11:57:32.08Z</time></trkpt><trkpt lat="41.17981" lon="14.61052"><ele>1029.0</ele><time>2026-04-09T11:57:33.08Z</time></trkpt><trkpt lat="41.1797767" lon="14.6106083"><ele>1029.0</ele><time>2026-04-09T11:57:34.08Z</time></trkpt><trkpt lat="41.1797417" lon="14.6106883"><ele>1026.6666666666667</ele><time>2026-04-09T11:57:35.08Z</time></trkpt><trkpt lat="41.1796933" lon="14.6108217"><ele>1024.3333333333333</ele><time>2026-04-09T11:57:37.08Z</time></trkpt><trkpt lat="41.1797167" lon="14.6109267"><ele>1022.0</ele><time>2026-04-09T11:57:39.08Z</time></trkpt><trkpt lat="41.179815" lon="14.6108833"><ele>1019.6666666666666</ele><time>2026-04-09T11:57:41.08Z</time></trkpt><trkpt lat="41.1798533" lon="14.6108117"><ele>1017.3333333333333</ele><time>2026-04-09T11:57:42.08Z</time></trkpt><trkpt lat="41.1798917" lon="14.61071"><ele>1015.0</ele><time>2026-04-09T11:57:43.08Z</time></trkpt><trkpt lat="41.1799267" lon="14.6105967"><ele>1015.0</ele><time>2026-04-09T11:57:44.08Z</time></trkpt><trkpt lat="41.1799633" lon="14.6104717"><ele>1015.0</ele><time>2026-04-09T11:57:45.08Z</time></trkpt><trkpt lat="41.1800117" lon="14.6103317"><ele>1015.0</ele><time>2026-04-09T11:57:46.08Z</time></trkpt><trkpt lat="41.1800583" lon="14.6101867"><ele>1015.0</ele><time>2026-04-09T11:57:47.08Z</time></trkpt><trkpt lat="41.1801117" lon="14.6100533"><ele>1015.0</ele><time>2026-04-09T11:57:48.08Z</time></trkpt><trkpt lat="41.1801667" lon="14.60993"><ele>1017.8</ele><time>2026-04-09T11:57:49.08Z</time></trkpt><trkpt lat="41.1802133" lon="14.6098067"><ele>1020.6</ele><time>2026-04-09T11:57:50.08Z</time></trkpt><trkpt lat="41.1802617" lon="14.60968"><ele>1023.4000000000001</ele><time>2026-04-09T11:57:51.08Z</time></trkpt><trkpt lat="41.1803167" lon="14.6095467"><ele>1026.2</ele><time>2026-04-09T11:57:52.08Z</time></trkpt><trkpt lat="41.18038" lon="14.609425"><ele>1029.0</ele><time>2026-04-09T11:57:53.08Z</time></trkpt><trkpt lat="41.1804367" lon="14.6092983"><ele>1033.0</ele><time>2026-04-09T11:57:54.08Z</time></trkpt><trkpt lat="41.1804933" lon="14.60917"><ele>1037.0</ele><time>2026-04-09T11:57:55.08Z</time></trkpt><trkpt lat="41.180555" lon="14.60903"><ele>1041.0</ele><time>2026-04-09T11:57:56.08Z</time></trkpt><trkpt lat="41.1806183" lon="14.6089"><ele>1045.0</ele><time>2026-04-09T11:57:57.08Z</time></trkpt><trkpt lat="41.18069" lon="14.6087783"><ele>1034.75</ele><time>2026-04-09T11:57:58.08Z</time></trkpt><trkpt lat="41.1807567" lon="14.608655"><ele>1024.5</ele><time>2026-04-09T11:57:59.08Z</time></trkpt><trkpt lat="41.1808233" lon="14.6085333"><ele>1014.25</ele><time>2026-04-09T11:58:00.08Z</time></trkpt><trkpt lat="41.1809033" lon="14.6084117"><ele>1004.0</ele><time>2026-04-09T11:58:01.08Z</time></trkpt><trkpt lat="41.1809783" lon="14.608285"><ele>1004.0</ele><time>2026-04-09T11:58:02.08Z</time></trkpt><trkpt lat="41.1810517" lon="14.6081633"><ele>1004.0</ele><time>2026-04-09T11:58:03.08Z</time></trkpt><trkpt lat="41.18113" lon="14.608035"><ele>1004.0</ele><time>2026-04-09T11:58:04.08Z</time></trkpt><trkpt lat="41.1812017" lon="14.60791"><ele>1004.0</ele><time>2026-04-09T11:58:05.08Z</time></trkpt><trkpt lat="41.1812733" lon="14.6077933"><ele>1009.0</ele><time>2026-04-09T11:58:06.08Z</time></trkpt><trkpt lat="41.18133" lon="14.6076633"><ele>1014.0</ele><time>2026-04-09T11:58:07.08Z</time></trkpt><trkpt lat="41.1813767" lon="14.60752"><ele>1019.0</ele><time>2026-04-09T11:58:08.08Z</time></trkpt><trkpt lat="41.1814133" lon="14.6073567"><ele>1024.0</ele><time>2026-04-09T11:58:09.08Z</time></trkpt><trkpt lat="41.181435" lon="14.6071817"><ele>1024.0</ele><time>2026-04-09T11:58:10.08Z</time></trkpt><trkpt lat="41.1814367" lon="14.6070133"><ele>1024.0</ele><time>2026-04-09T11:58:11.08Z</time></trkpt><trkpt lat="41.1814217" lon="14.6068383"><ele>1024.0</ele><time>2026-04-09T11:58:12.08Z</time></trkpt><trkpt lat="41.181405" lon="14.60667"><ele>1024.0</ele><time>2026-04-09T11:58:13.08Z</time></trkpt><trkpt lat="41.18138" lon="14.6065167"><ele>1024.0</ele><time>2026-04-09T11:58:14.08Z</time></trkpt><trkpt lat="41.1813517" lon="14.6063633"><ele>1024.0</ele><time>2026-04-09T11:58:15.08Z</time></trkpt><trkpt lat="41.18133" lon="14.6062067"><ele>1024.0</ele><time>2026-04-09T11:58:16.08Z</time></trkpt><trkpt lat="41.1813067" lon="14.6060533"><ele>1024.0</ele><time>2026-04-09T11:58:17.08Z</time></trkpt><trkpt lat="41.1812983" lon="14.6059017"><ele>1022.4000000000001</ele><time>2026-04-09T11:58:18.08Z</time></trkpt><trkpt lat="41.1813117" lon="14.6057567"><ele>1020.8000000000001</ele><time>2026-04-09T11:58:19.08Z</time></trkpt><trkpt lat="41.18135" lon="14.60562"><ele>1019.1999999999999</ele><time>2026-04-09T11:58:20.08Z</time></trkpt><trkpt lat="41.1814117" lon="14.60549"><ele>1017.5999999999999</ele><time>2026-04-09T11:58:21.08Z</time></trkpt><trkpt lat="41.1814683" lon="14.6053683"><ele>1016.0</ele><time>2026-04-09T11:58:22.08Z</time></trkpt><trkpt lat="41.1815167" lon="14.6052233"><ele>1004.5999999999999</ele><time>2026-04-09T11:58:23.08Z</time></trkpt><trkpt lat="41.181535" lon="14.6050483"><ele>993.1999999999999</ele><time>2026-04-09T11:58:24.08Z</time></trkpt><trkpt lat="41.181545" lon="14.60489"><ele>981.8000000000001</ele><time>2026-04-09T11:58:25.08Z</time></trkpt><trkpt lat="41.1815517" lon="14.60475"><ele>970.4000000000001</ele><time>2026-04-09T11:58:26.08Z</time></trkpt><trkpt lat="41.181555" lon="14.6046333"><ele>959.0</ele><time>2026-04-09T11:58:27.08Z</time></trkpt><trkpt lat="41.1815433" lon="14.6045267"><ele>956.2</ele><time>2026-04-09T11:58:28.08Z</time></trkpt><trkpt lat="41.1815183" lon="14.604435"><ele>953.4000000000001</ele><time>2026-04-09T11:58:29.08Z</time></trkpt><trkpt lat="41.181455" lon="14.6043117"><ele>950.6</ele><time>2026-04-09T11:58:31.08Z</time></trkpt><trkpt lat="41.1813833" lon="14.604225"><ele>947.8</ele><time>2026-04-09T11:58:33.08Z</time></trkpt><trkpt lat="41.1813783" lon="14.6041183"><ele>945.0</ele><time>2026-04-09T11:58:35.08Z</time></trkpt><trkpt lat="41.181475" lon="14.6041133"><ele>945.0</ele><time>2026-04-09T11:58:37.08Z</time></trkpt><trkpt lat="41.1815483" lon="14.6041717"><ele>945.0</ele><time>2026-04-09T11:58:38.08Z</time></trkpt><trkpt lat="41.1816133" lon="14.6042567"><ele>945.0</ele><time>2026-04-09T11:58:39.08Z</time></trkpt><trkpt lat="41.1816683" lon="14.6043683"><ele>945.0</ele><time>2026-04-09T11:58:40.08Z</time></trkpt><trkpt lat="41.1817117" lon="14.6044983"><ele>945.0</ele><time>2026-04-09T11:58:41.08Z</time></trkpt><trkpt lat="41.181755" lon="14.6046367"><ele>947.8</ele><time>2026-04-09T11:58:42.08Z</time></trkpt><trkpt lat="41.1817933" lon="14.604765"><ele>950.6</ele><time>2026-04-09T11:58:43.08Z</time></trkpt><trkpt lat="41.18183" lon="14.604905"><ele>953.4000000000001</ele><time>2026-04-09T11:58:44.08Z</time></trkpt><trkpt lat="41.1818567" lon="14.605045"><ele>956.2</ele><time>2026-04-09T11:58:45.08Z</time></trkpt><trkpt lat="41.1818833" lon="14.6051783"><ele>959.0</ele><time>2026-04-09T11:58:46.08Z</time></trkpt><trkpt lat="41.181895" lon="14.6053167"><ele>959.0</ele><time>2026-04-09T11:58:47.08Z</time></trkpt><trkpt lat="41.1818883" lon="14.605455"><ele>959.0000000000001</ele><time>2026-04-09T11:58:48.08Z</time></trkpt><trkpt lat="41.1818817" lon="14.6055883"><ele>959.0000000000001</ele><time>2026-04-09T11:58:49.08Z</time></trkpt><trkpt lat="41.1818667" lon="14.6057167"><ele>959.0</ele><time>2026-04-09T11:58:50.08Z</time></trkpt><trkpt lat="41.1818667" lon="14.6058483"><ele>959.0</ele><time>2026-04-09T11:58:51.08Z</time></trkpt><trkpt lat="41.18188" lon="14.6059783"><ele>959.0</ele><time>2026-04-09T11:58:52.08Z</time></trkpt><trkpt lat="41.1819183" lon="14.6061017"><ele>959.0</ele><time>2026-04-09T11:58:53.08Z</time></trkpt><trkpt lat="41.1819733" lon="14.6062433"><ele>959.0</ele><time>2026-04-09T11:58:54.08Z</time></trkpt><trkpt lat="41.182055" lon="14.606395"><ele>959.0</ele><time>2026-04-09T11:58:55.08Z</time></trkpt><trkpt lat="41.18215" lon="14.6065317"><ele>960.2</ele><time>2026-04-09T11:58:56.08Z</time></trkpt><trkpt lat="41.1822267" lon="14.6066617"><ele>961.4000000000001</ele><time>2026-04-09T11:58:57.08Z</time></trkpt><trkpt lat="41.1822983" lon="14.6067767"><ele>962.6</ele><time>2026-04-09T11:58:58.08Z</time></trkpt><trkpt lat="41.1823583" lon="14.6068917"><ele>963.8</ele><time>2026-04-09T11:58:59.08Z</time></trkpt><trkpt lat="41.182405" lon="14.6070183"><ele>965.0</ele><time>2026-04-09T11:59:00.08Z</time></trkpt><trkpt lat="41.1824333" lon="14.607155"><ele>952.25</ele><time>2026-04-09T11:59:01.08Z</time></trkpt><trkpt lat="41.1824433" lon="14.607305"><ele>939.5</ele><time>2026-04-09T11:59:02.08Z</time></trkpt><trkpt lat="41.1824367" lon="14.60747"><ele>926.75</ele><time>2026-04-09T11:59:03.08Z</time></trkpt><trkpt lat="41.18242" lon="14.6076483"><ele>914.0</ele><time>2026-04-09T11:59:04.08Z</time></trkpt><trkpt lat="41.1824083" lon="14.6078333"><ele>911.25</ele><time>2026-04-09T11:59:05.08Z</time></trkpt><trkpt lat="41.1823833" lon="14.6080267"><ele>908.5</ele><time>2026-04-09T11:59:06.08Z</time></trkpt><trkpt lat="41.1823667" lon="14.6082183"><ele>905.75</ele><time>2026-04-09T11:59:07.08Z</time></trkpt><trkpt lat="41.182345" lon="14.60841"><ele>903.0</ele><time>2026-04-09T11:59:08.08Z</time></trkpt><trkpt lat="41.18232" lon="14.6085967"><ele>912.75</ele><time>2026-04-09T11:59:09.08Z</time></trkpt><trkpt lat="41.1822933" lon="14.6087767"><ele>922.5</ele><time>2026-04-09T11:59:10.08Z</time></trkpt><trkpt lat="41.1822567" lon="14.6089517"><ele>932.25</ele><time>2026-04-09T11:59:11.08Z</time></trkpt><trkpt lat="41.1822217" lon="14.6091283"><ele>942.0</ele><time>2026-04-09T11:59:12.08Z</time></trkpt><trkpt lat="41.18219" lon="14.6092983"><ele>942.0</ele><time>2026-04-09T11:59:13.08Z</time></trkpt><trkpt lat="41.1821533" lon="14.609465"><ele>942.0</ele><time>2026-04-09T11:59:14.08Z</time></trkpt><trkpt lat="41.18212" lon="14.6096167"><ele>942.0</ele><time>2026-04-09T11:59:15.08Z</time></trkpt><trkpt lat="41.18209" lon="14.6097483"><ele>942.0</ele><time>2026-04-09T11:59:16.08Z</time></trkpt><trkpt lat="41.1820483" lon="14.60988"><ele>939.2</ele><time>2026-04-09T11:59:17.08Z</time></trkpt><trkpt lat="41.1820017" lon="14.6099967"><ele>936.4000000000001</ele><time>2026-04-09T11:59:18.08Z</time></trkpt><trkpt lat="41.18194" lon="14.6101117"><ele>933.5999999999999</ele><time>2026-04-09T11:59:19.08Z</time></trkpt><trkpt lat="41.1818767" lon="14.610225"><ele>930.8</ele><time>2026-04-09T11:59:20.08Z</time></trkpt><trkpt lat="41.1818333" lon="14.610355"><ele>928.0</ele><time>2026-04-09T11:59:21.08Z</time></trkpt><trkpt lat="41.181805" lon="14.6104933"><ele>924.5999999999999</ele><time>2026-04-09T11:59:22.08Z</time></trkpt><trkpt lat="41.1817917" lon="14.6106317"><ele>921.1999999999999</ele><time>2026-04-09T11:59:23.08Z</time></trkpt><trkpt lat="41.181795" lon="14.61076"><ele>917.8</ele><time>2026-04-09T11:59:24.08Z</time></trkpt><trkpt lat="41.1818017" lon="14.6108917"><ele>914.4</ele><time>2026-04-09T11:59:25.08Z</time></trkpt><trkpt lat="41.1818383" lon="14.6110333"><ele>911.0</ele><time>2026-04-09T11:59:26.08Z</time></trkpt><trkpt lat="41.1818933" lon="14.6111517"><ele>910.4</ele><time>2026-04-09T11:59:27.08Z</time></trkpt><trkpt lat="41.1819567" lon="14.61127"><ele>909.8</ele><time>2026-04-09T11:59:28.08Z</time></trkpt><trkpt lat="41.1820283" lon="14.6113883"><ele>909.1999999999999</ele><time>2026-04-09T11:59:29.08Z</time></trkpt><trkpt lat="41.1820867" lon="14.6115167"><ele>908.5999999999999</ele><time>2026-04-09T11:59:30.08Z</time></trkpt><trkpt lat="41.1821333" lon="14.6116483"><ele>908.0</ele><time>2026-04-09T11:59:31.08Z</time></trkpt><trkpt lat="41.1821617" lon="14.611775"><ele>908.0</ele><time>2026-04-09T11:59:32.08Z</time></trkpt><trkpt lat="41.1821617" lon="14.6119"><ele>908.0</ele><time>2026-04-09T11:59:33.08Z</time></trkpt><trkpt lat="41.1821467" lon="14.6120167"><ele>908.0</ele><time>2026-04-09T11:59:34.08Z</time></trkpt><trkpt lat="41.1821183" lon="14.6121283"><ele>908.0</ele><time>2026-04-09T11:59:35.08Z</time></trkpt><trkpt lat="41.182075" lon="14.61223"><ele>908.0</ele><time>2026-04-09T11:59:36.08Z</time></trkpt><trkpt lat="41.1820167" lon="14.6123217"><ele>905.8333333333334</ele><time>2026-04-09T11:59:37.08Z</time></trkpt><trkpt lat="41.1819533" lon="14.6124"><ele>903.6666666666667</ele><time>2026-04-09T11:59:38.08Z</time></trkpt><trkpt lat="41.1818883" lon="14.6124717"><ele>901.5</ele><time>2026-04-09T11:59:39.08Z</time></trkpt><trkpt lat="41.1818333" lon="14.6125417"><ele>899.3333333333333</ele><time>2026-04-09T11:59:40.08Z</time></trkpt><trkpt lat="41.1817967" lon="14.6126167"><ele>897.1666666666666</ele><time>2026-04-09T11:59:41.08Z</time></trkpt><trkpt lat="41.181785" lon="14.6127117"><ele>895.0</ele><time>2026-04-09T11:59:42.08Z</time></trkpt><trkpt lat="41.1817983" lon="14.6128083"><ele>894.3333333333333</ele><time>2026-04-09T11:59:43.08Z</time></trkpt><trkpt lat="41.1818467" lon="14.612895"><ele>893.6666666666666</ele><time>2026-04-09T11:59:44.08Z</time></trkpt><trkpt lat="41.1818983" lon="14.6129833"><ele>893.0</ele><time>2026-04-09T11:59:45.08Z</time></trkpt><trkpt lat="41.1819533" lon="14.6130667"><ele>892.3333333333333</ele><time>2026-04-09T11:59:46.08Z</time></trkpt><trkpt lat="41.1819983" lon="14.6131633"><ele>891.6666666666666</ele><time>2026-04-09T11:59:47.08Z</time></trkpt><trkpt lat="41.1820367" lon="14.613275"><ele>891.0</ele><time>2026-04-09T11:59:48.08Z</time></trkpt><trkpt lat="41.1820717" lon="14.613385"><ele>891.0</ele><time>2026-04-09T11:59:49.08Z</time></trkpt><trkpt lat="41.1820883" lon="14.61351"><ele>890.9999999999999</ele><time>2026-04-09T11:59:50.08Z</time></trkpt><trkpt lat="41.1820883" lon="14.6136417"><ele>890.9999999999999</ele><time>2026-04-09T11:59:51.08Z</time></trkpt><trkpt lat="41.182085" lon="14.6137917"><ele>891.0</ele><time>2026-04-09T11:59:52.08Z</time></trkpt><trkpt lat="41.1820683" lon="14.6139283"><ele>891.0</ele><time>2026-04-09T11:59:53.08Z</time></trkpt><trkpt lat="41.182055" lon="14.6140633"><ele>890.5999999999999</ele><time>2026-04-09T11:59:54.08Z</time></trkpt><trkpt lat="41.1820283" lon="14.6141883"><ele>890.1999999999999</ele><time>2026-04-09T11:59:55.08Z</time></trkpt><trkpt lat="41.1819933" lon="14.6143117"><ele>889.8000000000001</ele><time>2026-04-09T11:59:56.08Z</time></trkpt><trkpt lat="41.181955" lon="14.6144283"><ele>889.4000000000001</ele><time>2026-04-09T11:59:57.08Z</time></trkpt><trkpt lat="41.1819183" lon="14.6145317"><ele>889.0</ele><time>2026-04-09T11:59:58.08Z</time></trkpt><trkpt lat="41.1819017" lon="14.6146333"><ele>887.6666666666666</ele><time>2026-04-09T11:59:59.08Z</time></trkpt><trkpt lat="41.1819033" lon="14.61474"><ele>886.3333333333333</ele><time>2026-04-09T12:00:00.08Z</time></trkpt><trkpt lat="41.1819267" lon="14.6148383"><ele>885.0</ele><time>2026-04-09T12:00:01.08Z</time></trkpt><trkpt lat="41.18195" lon="14.6149233"><ele>883.6666666666667</ele><time>2026-04-09T12:00:02.08Z</time></trkpt><trkpt lat="41.1820117" lon="14.615"><ele>882.3333333333334</ele><time>2026-04-09T12:00:03.08Z</time></trkpt><trkpt lat="41.182085" lon="14.6150783"><ele>881.0</ele><time>2026-04-09T12:00:04.08Z</time></trkpt><trkpt lat="41.182175" lon="14.615165"><ele>881.0000000000001</ele><time>2026-04-09T12:00:05.08Z</time></trkpt><trkpt lat="41.1822583" lon="14.6152517"><ele>881.0</ele><time>2026-04-09T12:00:06.08Z</time></trkpt><trkpt lat="41.1823267" lon="14.61534"><ele>881.0</ele><time>2026-04-09T12:00:07.08Z</time></trkpt><trkpt lat="41.1823883" lon="14.6154217"><ele>881.0</ele><time>2026-04-09T12:00:08.08Z</time></trkpt><trkpt lat="41.1824517" lon="14.6154967"><ele>881.0000000000001</ele><time>2026-04-09T12:00:09.08Z</time></trkpt><trkpt lat="41.1825167" lon="14.615545"><ele>881.0</ele><time>2026-04-09T12:00:10.08Z</time></trkpt><trkpt lat="41.1825917" lon="14.61555"><ele>875.8333333333334</ele><time>2026-04-09T12:00:11.08Z</time></trkpt><trkpt lat="41.1826667" lon="14.6155183"><ele>870.6666666666667</ele><time>2026-04-09T12:00:12.08Z</time></trkpt><trkpt lat="41.1827433" lon="14.6154667"><ele>865.5</ele><time>2026-04-09T12:00:13.08Z</time></trkpt><trkpt lat="41.18282" lon="14.6154217"><ele>860.3333333333333</ele><time>2026-04-09T12:00:14.08Z</time></trkpt><trkpt lat="41.182905" lon="14.615395"><ele>855.1666666666666</ele><time>2026-04-09T12:00:15.08Z</time></trkpt><trkpt lat="41.1829933" lon="14.6153883"><ele>850.0</ele><time>2026-04-09T12:00:16.08Z</time></trkpt><trkpt lat="41.1830867" lon="14.6154017"><ele>850.0</ele><time>2026-04-09T12:00:17.08Z</time></trkpt><trkpt lat="41.183175" lon="14.6154367"><ele>850.0</ele><time>2026-04-09T12:00:18.08Z</time></trkpt><trkpt lat="41.18326" lon="14.6154933"><ele>850.0</ele><time>2026-04-09T12:00:19.08Z</time></trkpt><trkpt lat="41.1833333" lon="14.6155767"><ele>850.0</ele><time>2026-04-09T12:00:20.08Z</time></trkpt><trkpt lat="41.18339" lon="14.6156783"><ele>850.0</ele><time>2026-04-09T12:00:21.08Z</time></trkpt><trkpt lat="41.183435" lon="14.6158"><ele>846.6</ele><time>2026-04-09T12:00:22.08Z</time></trkpt><trkpt lat="41.1834583" lon="14.6159217"><ele>843.2</ele><time>2026-04-09T12:00:23.08Z</time></trkpt><trkpt lat="41.1834633" lon="14.616055"><ele>839.8</ele><time>2026-04-09T12:00:24.08Z</time></trkpt><trkpt lat="41.1834467" lon="14.6161917"><ele>836.4</ele><time>2026-04-09T12:00:25.08Z</time></trkpt><trkpt lat="41.1834183" lon="14.6163217"><ele>833.0</ele><time>2026-04-09T12:00:26.08Z</time></trkpt><trkpt lat="41.1833717" lon="14.61645"><ele>833.6666666666667</ele><time>2026-04-09T12:00:27.08Z</time></trkpt><trkpt lat="41.1833133" lon="14.6165683"><ele>834.3333333333334</ele><time>2026-04-09T12:00:28.08Z</time></trkpt><trkpt lat="41.18326" lon="14.616665"><ele>835.0</ele><time>2026-04-09T12:00:29.08Z</time></trkpt><trkpt lat="41.1832017" lon="14.6167467"><ele>835.6666666666667</ele><time>2026-04-09T12:00:30.08Z</time></trkpt><trkpt lat="41.1831383" lon="14.6167967"><ele>836.3333333333334</ele><time>2026-04-09T12:00:31.08Z</time></trkpt><trkpt lat="41.1830617" lon="14.616825"><ele>837.0</ele><time>2026-04-09T12:00:32.08Z</time></trkpt><trkpt lat="41.18298" lon="14.6168167"><ele>837.0</ele><time>2026-04-09T12:00:33.08Z</time></trkpt><trkpt lat="41.1829" lon="14.61678"><ele>837.0</ele><time>2026-04-09T12:00:34.08Z</time></trkpt><trkpt lat="41.18282" lon="14.6167533"><ele>837.0</ele><time>2026-04-09T12:00:35.08Z</time></trkpt><trkpt lat="41.182745" lon="14.6167417"><ele>837.0</ele><time>2026-04-09T12:00:36.08Z</time></trkpt><trkpt lat="41.182675" lon="14.6167583"><ele>837.0</ele><time>2026-04-09T12:00:37.08Z</time></trkpt><trkpt lat="41.1826183" lon="14.616805"><ele>837.0</ele><time>2026-04-09T12:00:38.08Z</time></trkpt><trkpt lat="41.1825783" lon="14.6168983"><ele>834.2</ele><time>2026-04-09T12:00:39.08Z</time></trkpt><trkpt lat="41.1825383" lon="14.617005"><ele>831.4000000000001</ele><time>2026-04-09T12:00:40.08Z</time></trkpt><trkpt lat="41.182505" lon="14.617125"><ele>828.5999999999999</ele><time>2026-04-09T12:00:41.08Z</time></trkpt><trkpt lat="41.18248" lon="14.6172583"><ele>825.8</ele><time>2026-04-09T12:00:42.08Z</time></trkpt><trkpt lat="41.1824667" lon="14.6173867"><ele>823.0</ele><time>2026-04-09T12:00:43.08Z</time></trkpt><trkpt lat="41.18245" lon="14.61751"><ele>822.9999999999999</ele><time>2026-04-09T12:00:44.08Z</time></trkpt><trkpt lat="41.1824383" lon="14.6176283"><ele>823.0</ele><time>2026-04-09T12:00:45.08Z</time></trkpt><trkpt lat="41.1824267" lon="14.6177467"><ele>823.0</ele><time>2026-04-09T12:00:46.08Z</time></trkpt><trkpt lat="41.1824367" lon="14.6178617"><ele>823.0</ele><time>2026-04-09T12:00:47.08Z</time></trkpt><trkpt lat="41.1824733" lon="14.6179717"><ele>822.9999999999999</ele><time>2026-04-09T12:00:48.08Z</time></trkpt><trkpt lat="41.1825183" lon="14.6180767"><ele>823.0</ele><time>2026-04-09T12:00:49.08Z</time></trkpt><trkpt lat="41.18258" lon="14.6181833"><ele>823.0</ele><time>2026-04-09T12:00:50.08Z</time></trkpt><trkpt lat="41.1826567" lon="14.6182883"><ele>823.0</ele><time>2026-04-09T12:00:51.08Z</time></trkpt><trkpt lat="41.1827133" lon="14.61839"><ele>823.0</ele><time>2026-04-09T12:00:52.08Z</time></trkpt><trkpt lat="41.1827633" lon="14.6185"><ele>823.0</ele><time>2026-04-09T12:00:53.08Z</time></trkpt><trkpt lat="41.182795" lon="14.6186133"><ele>823.0</ele><time>2026-04-09T12:00:54.08Z</time></trkpt><trkpt lat="41.1828167" lon="14.61873"><ele>822.9999999999999</ele><time>2026-04-09T12:00:55.08Z</time></trkpt><trkpt lat="41.1828383" lon="14.6188367"><ele>823.0</ele><time>2026-04-09T12:00:56.08Z</time></trkpt><trkpt lat="41.18285" lon="14.6189383"><ele>823.0</ele><time>2026-04-09T12:00:57.08Z</time></trkpt><trkpt lat="41.182855" lon="14.6190233"><ele>823.0</ele><time>2026-04-09T12:00:58.08Z</time></trkpt><trkpt lat="41.18287" lon="14.6191467"><ele>822.9999999999999</ele><time>2026-04-09T12:01:00.08Z</time></trkpt><trkpt lat="41.18291" lon="14.61923"><ele>823.0</ele><time>2026-04-09T12:01:03.08Z</time></trkpt><trkpt lat="41.1829783" lon="14.6192183"><ele>823.0</ele><time>2026-04-09T12:01:06.08Z</time></trkpt><trkpt lat="41.1830067" lon="14.6191083"><ele>823.0</ele><time>2026-04-09T12:01:08.08Z</time></trkpt><trkpt lat="41.183" lon="14.6189267"><ele>823.0</ele><time>2026-04-09T12:01:10.08Z</time></trkpt><trkpt lat="41.183005" lon="14.618815"><ele>823.0</ele><time>2026-04-09T12:01:11.08Z</time></trkpt><trkpt lat="41.1829983" lon="14.6186883"><ele>823.0</ele><time>2026-04-09T12:01:12.08Z</time></trkpt><trkpt lat="41.1829833" lon="14.6185617"><ele>821.8</ele><time>2026-04-09T12:01:13.08Z</time></trkpt><trkpt lat="41.1829633" lon="14.6184417"><ele>820.5999999999999</ele><time>2026-04-09T12:01:14.08Z</time></trkpt><trkpt lat="41.182945" lon="14.6183083"><ele>819.4000000000001</ele><time>2026-04-09T12:01:15.08Z</time></trkpt><trkpt lat="41.18292" lon="14.6181617"><ele>818.2</ele><time>2026-04-09T12:01:16.08Z</time></trkpt><trkpt lat="41.1829083" lon="14.61799"><ele>817.0</ele><time>2026-04-09T12:01:17.08Z</time></trkpt><trkpt lat="41.1829" lon="14.617855"><ele>818.2</ele><time>2026-04-09T12:01:18.08Z</time></trkpt><trkpt lat="41.1829117" lon="14.6177333"><ele>819.4000000000001</ele><time>2026-04-09T12:01:19.08Z</time></trkpt><trkpt lat="41.1829383" lon="14.6176233"><ele>820.5999999999999</ele><time>2026-04-09T12:01:20.08Z</time></trkpt><trkpt lat="41.1829917" lon="14.6175217"><ele>821.8</ele><time>2026-04-09T12:01:21.08Z</time></trkpt><trkpt lat="41.18307" lon="14.61747"><ele>823.0</ele><time>2026-04-09T12:01:22.08Z</time></trkpt><trkpt lat="41.1831583" lon="14.61744"><ele>815.5</ele><time>2026-04-09T12:01:23.08Z</time></trkpt><trkpt lat="41.1832717" lon="14.6174433"><ele>808.0</ele><time>2026-04-09T12:01:24.08Z</time></trkpt><trkpt lat="41.1833983" lon="14.6174333"><ele>800.5</ele><time>2026-04-09T12:01:25.08Z</time></trkpt><trkpt lat="41.1835233" lon="14.6174017"><ele>793.0</ele><time>2026-04-09T12:01:26.08Z</time></trkpt><trkpt lat="41.1836483" lon="14.6173583"><ele>793.0</ele><time>2026-04-09T12:01:27.08Z</time></trkpt><trkpt lat="41.1837667" lon="14.6173067"><ele>793.0</ele><time>2026-04-09T12:01:28.08Z</time></trkpt><trkpt lat="41.183885" lon="14.6172383"><ele>793.0</ele><time>2026-04-09T12:01:29.08Z</time></trkpt><trkpt lat="41.1839967" lon="14.6171633"><ele>793.0</ele><time>2026-04-09T12:01:30.08Z</time></trkpt><trkpt lat="41.184115" lon="14.61709"><ele>791.25</ele><time>2026-04-09T12:01:31.08Z</time></trkpt><trkpt lat="41.1842317" lon="14.617025"><ele>789.5</ele><time>2026-04-09T12:01:32.08Z</time></trkpt><trkpt lat="41.1843483" lon="14.61695"><ele>787.75</ele><time>2026-04-09T12:01:33.08Z</time></trkpt><trkpt lat="41.18447" lon="14.6168667"><ele>786.0</ele><time>2026-04-09T12:01:34.08Z</time></trkpt><trkpt lat="41.1845933" lon="14.6167633"><ele>786.0</ele><time>2026-04-09T12:01:35.08Z</time></trkpt><trkpt lat="41.18471" lon="14.6166483"><ele>786.0</ele><time>2026-04-09T12:01:36.08Z</time></trkpt><trkpt lat="41.1848133" lon="14.6165267"><ele>786.0</ele><time>2026-04-09T12:01:37.08Z</time></trkpt><trkpt lat="41.184905" lon="14.6163967"><ele>786.0</ele><time>2026-04-09T12:01:38.08Z</time></trkpt><trkpt lat="41.1849867" lon="14.6162617"><ele>780.25</ele><time>2026-04-09T12:01:39.08Z</time></trkpt><trkpt lat="41.185055" lon="14.616095"><ele>774.5</ele><time>2026-04-09T12:01:40.08Z</time></trkpt><trkpt lat="41.1851083" lon="14.615925"><ele>768.75</ele><time>2026-04-09T12:01:41.08Z</time></trkpt><trkpt lat="41.1851467" lon="14.6157417"><ele>763.0</ele><time>2026-04-09T12:01:42.08Z</time></trkpt><trkpt lat="41.185175" lon="14.61555"><ele>763.0</ele><time>2026-04-09T12:01:43.08Z</time></trkpt><trkpt lat="41.185195" lon="14.6153417"><ele>763.0</ele><time>2026-04-09T12:01:44.08Z</time></trkpt><trkpt lat="41.185215" lon="14.6151333"><ele>763.0</ele><time>2026-04-09T12:01:45.08Z</time></trkpt><trkpt lat="41.1852217" lon="14.6149167"><ele>760.0</ele><time>2026-04-09T12:01:46.08Z</time></trkpt><trkpt lat="41.18522" lon="14.61469"><ele>757.0</ele><time>2026-04-09T12:01:47.08Z</time></trkpt><trkpt lat="41.185215" lon="14.6144733"><ele>754.0</ele><time>2026-04-09T12:01:48.08Z</time></trkpt><trkpt lat="41.1852067" lon="14.61426"><ele>751.25</ele><time>2026-04-09T12:01:49.08Z</time></trkpt><trkpt lat="41.1852" lon="14.61405"><ele>748.5</ele><time>2026-04-09T12:01:50.08Z</time></trkpt><trkpt lat="41.1852" lon="14.6138583"><ele>745.75</ele><time>2026-04-09T12:01:51.08Z</time></trkpt><trkpt lat="41.1852067" lon="14.613685"><ele>743.0</ele><time>2026-04-09T12:01:52.08Z</time></trkpt><trkpt lat="41.185215" lon="14.613515"><ele>741.75</ele><time>2026-04-09T12:01:53.08Z</time></trkpt><trkpt lat="41.1852433" lon="14.6133433"><ele>740.5</ele><time>2026-04-09T12:01:54.08Z</time></trkpt><trkpt lat="41.185285" lon="14.6131783"><ele>739.25</ele><time>2026-04-09T12:01:55.08Z</time></trkpt><trkpt lat="41.1853433" lon="14.613015"><ele>738.0</ele><time>2026-04-09T12:01:56.08Z</time></trkpt><trkpt lat="41.1854033" lon="14.6128567"><ele>738.3333333333334</ele><time>2026-04-09T12:01:57.08Z</time></trkpt><trkpt lat="41.1854467" lon="14.6126717"><ele>738.6666666666667</ele><time>2026-04-09T12:01:58.08Z</time></trkpt><trkpt lat="41.1854783" lon="14.6124667"><ele>739.0</ele><time>2026-04-09T12:01:59.08Z</time></trkpt><trkpt lat="41.1855117" lon="14.6122683"><ele>739.0</ele><time>2026-04-09T12:02:00.08Z</time></trkpt><trkpt lat="41.1855483" lon="14.6120717"><ele>739.0</ele><time>2026-04-09T12:02:01.08Z</time></trkpt><trkpt lat="41.1855833" lon="14.6118767"><ele>739.0</ele><time>2026-04-09T12:02:02.08Z</time></trkpt><trkpt lat="41.1856167" lon="14.61168"><ele>739.0</ele><time>2026-04-09T12:02:03.08Z</time></trkpt><trkpt lat="41.1856533" lon="14.6114917"><ele>739.0</ele><time>2026-04-09T12:02:04.08Z</time></trkpt><trkpt lat="41.1856917" lon="14.6113083"><ele>739.0</ele><time>2026-04-09T12:02:05.08Z</time></trkpt><trkpt lat="41.1857367" lon="14.6111367"><ele>739.0</ele><time>2026-04-09T12:02:06.08Z</time></trkpt><trkpt lat="41.1857833" lon="14.6109583"><ele>731.5</ele><time>2026-04-09T12:02:07.08Z</time></trkpt><trkpt lat="41.185825" lon="14.6107783"><ele>724.0</ele><time>2026-04-09T12:02:08.08Z</time></trkpt><trkpt lat="41.1858733" lon="14.6106083"><ele>716.5</ele><time>2026-04-09T12:02:09.08Z</time></trkpt><trkpt lat="41.1859267" lon="14.61043"><ele>709.0</ele><time>2026-04-09T12:02:10.08Z</time></trkpt><trkpt lat="41.1859817" lon="14.610255"><ele>709.0</ele><time>2026-04-09T12:02:11.08Z</time></trkpt><trkpt lat="41.1860417" lon="14.6100867"><ele>709.0</ele><time>2026-04-09T12:02:12.08Z</time></trkpt><trkpt lat="41.1861017" lon="14.60991"><ele>709.0</ele><time>2026-04-09T12:02:13.08Z</time></trkpt><trkpt lat="41.1861583" lon="14.609735"><ele>709.0</ele><time>2026-04-09T12:02:14.08Z</time></trkpt><trkpt lat="41.1862167" lon="14.6095567"><ele>708.5</ele><time>2026-04-09T12:02:15.08Z</time></trkpt><trkpt lat="41.1862683" lon="14.6093733"><ele>708.0</ele><time>2026-04-09T12:02:16.08Z</time></trkpt><trkpt lat="41.1863083" lon="14.60918"><ele>707.5</ele><time>2026-04-09T12:02:17.08Z</time></trkpt><trkpt lat="41.1863417" lon="14.6089883"><ele>707.0</ele><time>2026-04-09T12:02:18.08Z</time></trkpt><trkpt lat="41.18637" lon="14.608795"><ele>708.25</ele><time>2026-04-09T12:02:19.08Z</time></trkpt><trkpt lat="41.1863983" lon="14.6086017"><ele>709.5</ele><time>2026-04-09T12:02:20.08Z</time></trkpt><trkpt lat="41.18644" lon="14.6084117"><ele>710.75</ele><time>2026-04-09T12:02:21.08Z</time></trkpt><trkpt lat="41.1864883" lon="14.6082333"><ele>712.0</ele><time>2026-04-09T12:02:22.08Z</time></trkpt><trkpt lat="41.1865517" lon="14.6080667"><ele>703.25</ele><time>2026-04-09T12:02:23.08Z</time></trkpt><trkpt lat="41.1866467" lon="14.607915"><ele>694.5</ele><time>2026-04-09T12:02:24.08Z</time></trkpt><trkpt lat="41.1867583" lon="14.607785"><ele>685.75</ele><time>2026-04-09T12:02:25.08Z</time></trkpt><trkpt lat="41.18687" lon="14.6076617"><ele>677.0</ele><time>2026-04-09T12:02:26.08Z</time></trkpt><trkpt lat="41.1869733" lon="14.6075583"><ele>677.0</ele><time>2026-04-09T12:02:27.08Z</time></trkpt><trkpt lat="41.1870817" lon="14.607475"><ele>677.0</ele><time>2026-04-09T12:02:28.08Z</time></trkpt><trkpt lat="41.1871983" lon="14.6074283"><ele>677.0</ele><time>2026-04-09T12:02:29.08Z</time></trkpt><trkpt lat="41.18732" lon="14.607425"><ele>677.0</ele><time>2026-04-09T12:02:30.08Z</time></trkpt><trkpt lat="41.187445" lon="14.607445"><ele>674.5</ele><time>2026-04-09T12:02:31.08Z</time></trkpt><trkpt lat="41.1875667" lon="14.6074833"><ele>672.0</ele><time>2026-04-09T12:02:32.08Z</time></trkpt><trkpt lat="41.18769" lon="14.607505"><ele>669.5</ele><time>2026-04-09T12:02:33.08Z</time></trkpt><trkpt lat="41.18781" lon="14.6074967"><ele>667.0</ele><time>2026-04-09T12:02:34.08Z</time></trkpt><trkpt lat="41.18793" lon="14.607445"><ele>667.0</ele><time>2026-04-09T12:02:35.08Z</time></trkpt><trkpt lat="41.188025" lon="14.6073717"><ele>667.0</ele><time>2026-04-09T12:02:36.08Z</time></trkpt><trkpt lat="41.1881117" lon="14.60727"><ele>667.0</ele><time>2026-04-09T12:02:37.08Z</time></trkpt><trkpt lat="41.1881733" lon="14.607155"><ele>667.0</ele><time>2026-04-09T12:02:38.08Z</time></trkpt><trkpt lat="41.1882183" lon="14.60702"><ele>667.0</ele><time>2026-04-09T12:02:39.08Z</time></trkpt><trkpt lat="41.18826" lon="14.6068883"><ele>667.25</ele><time>2026-04-09T12:02:40.08Z</time></trkpt><trkpt lat="41.1882967" lon="14.6067333"><ele>667.5</ele><time>2026-04-09T12:02:41.08Z</time></trkpt><trkpt lat="41.1883317" lon="14.6065533"><ele>667.75</ele><time>2026-04-09T12:02:42.08Z</time></trkpt><trkpt lat="41.1883733" lon="14.60636"><ele>668.0</ele><time>2026-04-09T12:02:43.08Z</time></trkpt><trkpt lat="41.1884167" lon="14.6061533"><ele>669.6666666666666</ele><time>2026-04-09T12:02:44.08Z</time></trkpt><trkpt lat="41.1884667" lon="14.6059433"><ele>671.3333333333334</ele><time>2026-04-09T12:02:45.08Z</time></trkpt><trkpt lat="41.1885183" lon="14.60573"><ele>673.0</ele><time>2026-04-09T12:02:46.08Z</time></trkpt><trkpt lat="41.18857" lon="14.6055217"><ele>675.0</ele><time>2026-04-09T12:02:47.08Z</time></trkpt><trkpt lat="41.1886183" lon="14.6053167"><ele>677.0</ele><time>2026-04-09T12:02:48.08Z</time></trkpt><trkpt lat="41.1886617" lon="14.6051083"><ele>679.0</ele><time>2026-04-09T12:02:49.08Z</time></trkpt><trkpt lat="41.1887017" lon="14.60491"><ele>679.0</ele><time>2026-04-09T12:02:50.08Z</time></trkpt><trkpt lat="41.1887233" lon="14.6047167"><ele>679.0</ele><time>2026-04-09T12:02:51.08Z</time></trkpt><trkpt lat="41.1887383" lon="14.604525"><ele>679.0</ele><time>2026-04-09T12:02:52.08Z</time></trkpt><trkpt lat="41.1887533" lon="14.6043283"><ele>679.0</ele><time>2026-04-09T12:02:53.08Z</time></trkpt><trkpt lat="41.1887733" lon="14.60414"><ele>678.25</ele><time>2026-04-09T12:02:54.08Z</time></trkpt><trkpt lat="41.18881" lon="14.6039567"><ele>677.5</ele><time>2026-04-09T12:02:55.08Z</time></trkpt><trkpt lat="41.1888717" lon="14.6037833"><ele>676.75</ele><time>2026-04-09T12:02:56.08Z</time></trkpt><trkpt lat="41.18894" lon="14.6036283"><ele>676.0</ele><time>2026-04-09T12:02:57.08Z</time></trkpt><trkpt lat="41.18901" lon="14.60348"><ele>676.0</ele><time>2026-04-09T12:02:58.08Z</time></trkpt><trkpt lat="41.18907" lon="14.6033383"><ele>676.0</ele><time>2026-04-09T12:02:59.08Z</time></trkpt><trkpt lat="41.1891133" lon="14.6031833"><ele>676.0</ele><time>2026-04-09T12:03:00.08Z</time></trkpt><trkpt lat="41.1891517" lon="14.603025"><ele>676.0</ele><time>2026-04-09T12:03:01.08Z</time></trkpt><trkpt lat="41.1891917" lon="14.60286"><ele>676.25</ele><time>2026-04-09T12:03:02.08Z</time></trkpt><trkpt lat="41.1892267" lon="14.6027033"><ele>676.5</ele><time>2026-04-09T12:03:03.08Z</time></trkpt><trkpt lat="41.189265" lon="14.6025517"><ele>676.75</ele><time>2026-04-09T12:03:04.08Z</time></trkpt><trkpt lat="41.1892983" lon="14.6024017"><ele>677.0</ele><time>2026-04-09T12:03:05.08Z</time></trkpt><trkpt lat="41.1893233" lon="14.6022433"><ele>677.0</ele><time>2026-04-09T12:03:06.08Z</time></trkpt><trkpt lat="41.1893333" lon="14.602075"><ele>677.0</ele><time>2026-04-09T12:03:07.08Z</time></trkpt><trkpt lat="41.1893333" lon="14.6019"><ele>677.0</ele><time>2026-04-09T12:03:08.08Z</time></trkpt><trkpt lat="41.18933" lon="14.6017267"><ele>677.0</ele><time>2026-04-09T12:03:09.08Z</time></trkpt><trkpt lat="41.1893267" lon="14.6015567"><ele>675.5</ele><time>2026-04-09T12:03:10.08Z</time></trkpt><trkpt lat="41.1893267" lon="14.601385"><ele>674.0</ele><time>2026-04-09T12:03:11.08Z</time></trkpt><trkpt lat="41.1893333" lon="14.6012117"><ele>672.5</ele><time>2026-04-09T12:03:12.08Z</time></trkpt><trkpt lat="41.1893367" lon="14.60104"><ele>671.0</ele><time>2026-04-09T12:03:13.08Z</time></trkpt><trkpt lat="41.1893317" lon="14.600875"><ele>669.75</ele><time>2026-04-09T12:03:14.08Z</time></trkpt><trkpt lat="41.1893333" lon="14.6007017"><ele>668.5</ele><time>2026-04-09T12:03:15.08Z</time></trkpt><trkpt lat="41.1893467" lon="14.6005333"><ele>667.25</ele><time>2026-04-09T12:03:16.08Z</time></trkpt><trkpt lat="41.1893783" lon="14.6003617"><ele>666.0</ele><time>2026-04-09T12:03:17.08Z</time></trkpt><trkpt lat="41.1894167" lon="14.6001817"><ele>665.0</ele><time>2026-04-09T12:03:18.08Z</time></trkpt><trkpt lat="41.1894583" lon="14.6000183"><ele>664.0</ele><time>2026-04-09T12:03:19.08Z</time></trkpt><trkpt lat="41.1895033" lon="14.5998567"><ele>663.0</ele><time>2026-04-09T12:03:20.08Z</time></trkpt><trkpt lat="41.18956" lon="14.599705"><ele>662.0</ele><time>2026-04-09T12:03:21.08Z</time></trkpt><trkpt lat="41.1896267" lon="14.59957"><ele>663.0</ele><time>2026-04-09T12:03:22.08Z</time></trkpt><trkpt lat="41.1897067" lon="14.59944"><ele>664.0</ele><time>2026-04-09T12:03:23.08Z</time></trkpt><trkpt lat="41.1897983" lon="14.5993067"><ele>665.0</ele><time>2026-04-09T12:03:24.08Z</time></trkpt><trkpt lat="41.1898933" lon="14.5991633"><ele>666.0</ele><time>2026-04-09T12:03:25.08Z</time></trkpt><trkpt lat="41.1899917" lon="14.5990167"><ele>663.5</ele><time>2026-04-09T12:03:26.08Z</time></trkpt><trkpt lat="41.190085" lon="14.5988733"><ele>661.0</ele><time>2026-04-09T12:03:27.08Z</time></trkpt><trkpt lat="41.19017" lon="14.5987233"><ele>658.5</ele><time>2026-04-09T12:03:28.08Z</time></trkpt><trkpt lat="41.190245" lon="14.5985633"><ele>656.0</ele><time>2026-04-09T12:03:29.08Z</time></trkpt><trkpt lat="41.190315" lon="14.5984033"><ele>655.5</ele><time>2026-04-09T12:03:30.08Z</time></trkpt><trkpt lat="41.190385" lon="14.5982483"><ele>655.0</ele><time>2026-04-09T12:03:31.08Z</time></trkpt><trkpt lat="41.1904633" lon="14.5981017"><ele>654.5</ele><time>2026-04-09T12:03:32.08Z</time></trkpt><trkpt lat="41.1905567" lon="14.5979633"><ele>654.0</ele><time>2026-04-09T12:03:33.08Z</time></trkpt><trkpt lat="41.190665" lon="14.5978283"><ele>649.75</ele><time>2026-04-09T12:03:34.08Z</time></trkpt><trkpt lat="41.1907783" lon="14.5977067"><ele>645.5</ele><time>2026-04-09T12:03:35.08Z</time></trkpt><trkpt lat="41.1908967" lon="14.597605"><ele>641.25</ele><time>2026-04-09T12:03:36.08Z</time></trkpt><trkpt lat="41.1910067" lon="14.59751"><ele>637.0</ele><time>2026-04-09T12:03:37.08Z</time></trkpt><trkpt lat="41.1911117" lon="14.5974333"><ele>637.0</ele><time>2026-04-09T12:03:38.08Z</time></trkpt><trkpt lat="41.19122" lon="14.5973683"><ele>637.0</ele><time>2026-04-09T12:03:39.08Z</time></trkpt><trkpt lat="41.19133" lon="14.59733"><ele>637.0</ele><time>2026-04-09T12:03:40.08Z</time></trkpt><trkpt lat="41.1914433" lon="14.5973183"><ele>637.0</ele><time>2026-04-09T12:03:41.08Z</time></trkpt><trkpt lat="41.1915633" lon="14.59732"><ele>638.6</ele><time>2026-04-09T12:03:42.08Z</time></trkpt><trkpt lat="41.1916833" lon="14.5973017"><ele>640.2</ele><time>2026-04-09T12:03:43.08Z</time></trkpt><trkpt lat="41.19179" lon="14.59726"><ele>641.8</ele><time>2026-04-09T12:03:44.08Z</time></trkpt><trkpt lat="41.1918717" lon="14.5971767"><ele>643.4</ele><time>2026-04-09T12:03:45.08Z</time></trkpt><trkpt lat="41.19193" lon="14.5970633"><ele>645.0</ele><time>2026-04-09T12:03:46.08Z</time></trkpt><trkpt lat="41.191965" lon="14.59692"><ele>639.25</ele><time>2026-04-09T12:03:47.08Z</time></trkpt><trkpt lat="41.19198" lon="14.5967483"><ele>633.5</ele><time>2026-04-09T12:03:48.08Z</time></trkpt><trkpt lat="41.1919833" lon="14.5965417"><ele>627.75</ele><time>2026-04-09T12:03:49.08Z</time></trkpt><trkpt lat="41.191985" lon="14.5963283"><ele>622.0</ele><time>2026-04-09T12:03:50.08Z</time></trkpt><trkpt lat="41.1919833" lon="14.5961067"><ele>618.3333333333334</ele><time>2026-04-09T12:03:51.08Z</time></trkpt><trkpt lat="41.1919767" lon="14.595895"><ele>614.6666666666666</ele><time>2026-04-09T12:03:52.08Z</time></trkpt><trkpt lat="41.1919683" lon="14.59569"><ele>611.0</ele><time>2026-04-09T12:03:53.08Z</time></trkpt><trkpt lat="41.1919483" lon="14.595485"><ele>609.0</ele><time>2026-04-09T12:03:54.08Z</time></trkpt><trkpt lat="41.19193" lon="14.5952783"><ele>607.0</ele><time>2026-04-09T12:03:55.08Z</time></trkpt><trkpt lat="41.191905" lon="14.595075"><ele>605.0</ele><time>2026-04-09T12:03:56.08Z</time></trkpt><trkpt lat="41.19188" lon="14.5948767"><ele>605.0</ele><time>2026-04-09T12:03:57.08Z</time></trkpt><trkpt lat="41.1918567" lon="14.5946833"><ele>605.0</ele><time>2026-04-09T12:03:58.08Z</time></trkpt><trkpt lat="41.19184" lon="14.5945"><ele>605.0</ele><time>2026-04-09T12:03:59.08Z</time></trkpt><trkpt lat="41.1918317" lon="14.5943167"><ele>605.0</ele><time>2026-04-09T12:04:00.08Z</time></trkpt><trkpt lat="41.1918383" lon="14.5941367"><ele>602.5</ele><time>2026-04-09T12:04:01.08Z</time></trkpt><trkpt lat="41.1918617" lon="14.593965"><ele>600.0</ele><time>2026-04-09T12:04:02.08Z</time></trkpt><trkpt lat="41.1919067" lon="14.5938017"><ele>597.5</ele><time>2026-04-09T12:04:03.08Z</time></trkpt><trkpt lat="41.1919717" lon="14.5936467"><ele>595.0</ele><time>2026-04-09T12:04:04.08Z</time></trkpt><trkpt lat="41.1920483" lon="14.5934917"><ele>598.75</ele><time>2026-04-09T12:04:05.08Z</time></trkpt><trkpt lat="41.192135" lon="14.5933467"><ele>602.5</ele><time>2026-04-09T12:04:06.08Z</time></trkpt><trkpt lat="41.1922283" lon="14.5932117"><ele>606.25</ele><time>2026-04-09T12:04:07.08Z</time></trkpt><trkpt lat="41.1923333" lon="14.59309"><ele>610.0</ele><time>2026-04-09T12:04:08.08Z</time></trkpt><trkpt lat="41.1924467" lon="14.5929967"><ele>610.0</ele><time>2026-04-09T12:04:09.08Z</time></trkpt><trkpt lat="41.1925617" lon="14.5929067"><ele>610.0</ele><time>2026-04-09T12:04:10.08Z</time></trkpt><trkpt lat="41.1926867" lon="14.592835"><ele>610.0</ele><time>2026-04-09T12:04:11.08Z</time></trkpt><trkpt lat="41.1928183" lon="14.5927567"><ele>610.0</ele><time>2026-04-09T12:04:12.08Z</time></trkpt><trkpt lat="41.1929533" lon="14.5926667"><ele>606.6666666666667</ele><time>2026-04-09T12:04:13.08Z</time></trkpt><trkpt lat="41.1930917" lon="14.592565"><ele>603.3333333333334</ele><time>2026-04-09T12:04:14.08Z</time></trkpt><trkpt lat="41.19322" lon="14.5924333"><ele>600.0</ele><time>2026-04-09T12:04:15.08Z</time></trkpt><trkpt lat="41.1933333" lon="14.5922883"><ele>600.0</ele><time>2026-04-09T12:04:16.08Z</time></trkpt><trkpt lat="41.1934383" lon="14.5921367"><ele>600.0</ele><time>2026-04-09T12:04:17.08Z</time></trkpt><trkpt lat="41.19354" lon="14.5919667"><ele>600.0</ele><time>2026-04-09T12:04:18.081Z</time></trkpt><trkpt lat="41.193645" lon="14.591805"><ele>599.25</ele><time>2026-04-09T12:04:19.081Z</time></trkpt><trkpt lat="41.1937517" lon="14.5916533"><ele>598.5</ele><time>2026-04-09T12:04:20.081Z</time></trkpt><trkpt lat="41.1938567" lon="14.5915083"><ele>597.75</ele><time>2026-04-09T12:04:21.081Z</time></trkpt><trkpt lat="41.1939567" lon="14.5913783"><ele>597.0</ele><time>2026-04-09T12:04:22.081Z</time></trkpt><trkpt lat="41.1940483" lon="14.591255"><ele>587.25</ele><time>2026-04-09T12:04:23.081Z</time></trkpt><trkpt lat="41.1941417" lon="14.5911317"><ele>577.5</ele><time>2026-04-09T12:04:24.081Z</time></trkpt><trkpt lat="41.1942333" lon="14.591015"><ele>567.75</ele><time>2026-04-09T12:04:25.081Z</time></trkpt><trkpt lat="41.194325" lon="14.5908883"><ele>558.0</ele><time>2026-04-09T12:04:26.081Z</time></trkpt><trkpt lat="41.1944083" lon="14.59076"><ele>558.0</ele><time>2026-04-09T12:04:27.081Z</time></trkpt><trkpt lat="41.194495" lon="14.5906217"><ele>558.0</ele><time>2026-04-09T12:04:28.081Z</time></trkpt><trkpt lat="41.19458" lon="14.5904817"><ele>558.0</ele><time>2026-04-09T12:04:29.081Z</time></trkpt><trkpt lat="41.1946633" lon="14.5903483"><ele>558.0</ele><time>2026-04-09T12:04:30.081Z</time></trkpt><trkpt lat="41.19475" lon="14.5902233"><ele>558.75</ele><time>2026-04-09T12:04:31.081Z</time></trkpt><trkpt lat="41.19484" lon="14.5901017"><ele>559.5</ele><time>2026-04-09T12:04:32.081Z</time></trkpt><trkpt lat="41.1949283" lon="14.58998"><ele>560.25</ele><time>2026-04-09T12:04:33.081Z</time></trkpt><trkpt lat="41.195025" lon="14.58986"><ele>561.0</ele><time>2026-04-09T12:04:34.081Z</time></trkpt><trkpt lat="41.1951283" lon="14.5897433"><ele>561.0</ele><time>2026-04-09T12:04:35.081Z</time></trkpt><trkpt lat="41.19523" lon="14.5896367"><ele>561.0</ele><time>2026-04-09T12:04:36.081Z</time></trkpt><trkpt lat="41.1953317" lon="14.5895383"><ele>561.0</ele><time>2026-04-09T12:04:37.081Z</time></trkpt><trkpt lat="41.1954417" lon="14.58946"><ele>561.0</ele><time>2026-04-09T12:04:38.081Z</time></trkpt><trkpt lat="41.1955517" lon="14.589395"><ele>554.0</ele><time>2026-04-09T12:04:39.081Z</time></trkpt><trkpt lat="41.195665" lon="14.58935"><ele>547.0</ele><time>2026-04-09T12:04:40.081Z</time></trkpt><trkpt lat="41.1957883" lon="14.5893417"><ele>540.0</ele><time>2026-04-09T12:04:41.081Z</time></trkpt><trkpt lat="41.1959033" lon="14.58937"><ele>533.0</ele><time>2026-04-09T12:04:42.081Z</time></trkpt><trkpt lat="41.1960167" lon="14.5894333"><ele>542.0</ele><time>2026-04-09T12:04:43.081Z</time></trkpt><trkpt lat="41.1961217" lon="14.5895183"><ele>551.0</ele><time>2026-04-09T12:04:44.081Z</time></trkpt><trkpt lat="41.1962183" lon="14.5896283"><ele>560.0</ele><time>2026-04-09T12:04:45.081Z</time></trkpt><trkpt lat="41.19631" lon="14.5897683"><ele>569.0</ele><time>2026-04-09T12:04:46.081Z</time></trkpt><trkpt lat="41.19639" lon="14.58993"><ele>569.0</ele><time>2026-04-09T12:04:47.081Z</time></trkpt><trkpt lat="41.1964683" lon="14.5901083"><ele>569.0</ele><time>2026-04-09T12:04:48.081Z</time></trkpt><trkpt lat="41.1965533" lon="14.590285"><ele>569.0</ele><time>2026-04-09T12:04:49.081Z</time></trkpt><trkpt lat="41.1966267" lon="14.5904617"><ele>562.6666666666666</ele><time>2026-04-09T12:04:50.081Z</time></trkpt><trkpt lat="41.1967083" lon="14.5906383"><ele>556.3333333333334</ele><time>2026-04-09T12:04:51.081Z</time></trkpt><trkpt lat="41.1967833" lon="14.5908167"><ele>550.0</ele><time>2026-04-09T12:04:52.081Z</time></trkpt><trkpt lat="41.1968633" lon="14.5909867"><ele>550.0</ele><time>2026-04-09T12:04:53.081Z</time></trkpt><trkpt lat="41.1969433" lon="14.59116"><ele>550.0</ele><time>2026-04-09T12:04:54.081Z</time></trkpt><trkpt lat="41.1970033" lon="14.591355"><ele>550.0</ele><time>2026-04-09T12:04:55.081Z</time></trkpt><trkpt lat="41.1970617" lon="14.591575"><ele>554.3333333333334</ele><time>2026-04-09T12:04:56.081Z</time></trkpt><trkpt lat="41.1971133" lon="14.5918067"><ele>558.6666666666666</ele><time>2026-04-09T12:04:57.081Z</time></trkpt><trkpt lat="41.197175" lon="14.59203"><ele>563.0</ele><time>2026-04-09T12:04:58.081Z</time></trkpt><trkpt lat="41.197235" lon="14.5922533"><ele>567.3333333333333</ele><time>2026-04-09T12:04:59.081Z</time></trkpt><trkpt lat="41.197285" lon="14.592465"><ele>571.6666666666666</ele><time>2026-04-09T12:05:00.081Z</time></trkpt><trkpt lat="41.1973267" lon="14.592675"><ele>576.0</ele><time>2026-04-09T12:05:01.081Z</time></trkpt><trkpt lat="41.197365" lon="14.59288"><ele>554.3333333333334</ele><time>2026-04-09T12:05:02.081Z</time></trkpt><trkpt lat="41.1974083" lon="14.5930833"><ele>532.6666666666667</ele><time>2026-04-09T12:05:03.081Z</time></trkpt><trkpt lat="41.1974567" lon="14.593295"><ele>511.0</ele><time>2026-04-09T12:05:04.081Z</time></trkpt><trkpt lat="41.1975167" lon="14.593495"><ele>514.0</ele><time>2026-04-09T12:05:05.081Z</time></trkpt><trkpt lat="41.197575" lon="14.593675"><ele>517.0</ele><time>2026-04-09T12:05:06.081Z</time></trkpt><trkpt lat="41.1976283" lon="14.593855"><ele>520.0</ele><time>2026-04-09T12:05:07.081Z</time></trkpt><trkpt lat="41.197675" lon="14.59404"><ele>523.0</ele><time>2026-04-09T12:05:08.081Z</time></trkpt><trkpt lat="41.1977083" lon="14.59424"><ele>523.0</ele><time>2026-04-09T12:05:09.081Z</time></trkpt><trkpt lat="41.1977367" lon="14.59445"><ele>523.0</ele><time>2026-04-09T12:05:10.081Z</time></trkpt><trkpt lat="41.1977533" lon="14.5946817"><ele>523.0</ele><time>2026-04-09T12:05:11.081Z</time></trkpt><trkpt lat="41.1977717" lon="14.5949117"><ele>522.3333333333334</ele><time>2026-04-09T12:05:12.081Z</time></trkpt><trkpt lat="41.1977933" lon="14.5951533"><ele>521.6666666666666</ele><time>2026-04-09T12:05:13.081Z</time></trkpt><trkpt lat="41.19782" lon="14.5953817"><ele>521.0</ele><time>2026-04-09T12:05:14.081Z</time></trkpt><trkpt lat="41.19784" lon="14.595605"><ele>521.0</ele><time>2026-04-09T12:05:15.081Z</time></trkpt><trkpt lat="41.1978533" lon="14.5958183"><ele>521.0</ele><time>2026-04-09T12:05:16.081Z</time></trkpt><trkpt lat="41.1978617" lon="14.5960183"><ele>521.0</ele><time>2026-04-09T12:05:17.081Z</time></trkpt><trkpt lat="41.1978683" lon="14.5962117"><ele>518.0</ele><time>2026-04-09T12:05:18.081Z</time></trkpt><trkpt lat="41.1978567" lon="14.5964017"><ele>515.0</ele><time>2026-04-09T12:05:19.081Z</time></trkpt><trkpt lat="41.19783" lon="14.5965633"><ele>512.0</ele><time>2026-04-09T12:05:20.081Z</time></trkpt><trkpt lat="41.1977867" lon="14.5967067"><ele>509.0</ele><time>2026-04-09T12:05:21.081Z</time></trkpt><trkpt lat="41.1977417" lon="14.5968217"><ele>508.99999999999994</ele><time>2026-04-09T12:05:22.081Z</time></trkpt><trkpt lat="41.1977133" lon="14.596915"><ele>509.0</ele><time>2026-04-09T12:05:23.081Z</time></trkpt><trkpt lat="41.1977017" lon="14.5970017"><ele>509.0</ele><time>2026-04-09T12:05:24.081Z</time></trkpt><trkpt lat="41.1977167" lon="14.5970833"><ele>509.0</ele><time>2026-04-09T12:05:25.081Z</time></trkpt><trkpt lat="41.1978333" lon="14.59714"><ele>508.99999999999994</ele><time>2026-04-09T12:05:27.081Z</time></trkpt><trkpt lat="41.1979017" lon="14.5970983"><ele>509.0</ele><time>2026-04-09T12:05:28.081Z</time></trkpt><trkpt lat="41.19794" lon="14.59701"><ele>508.99999999999994</ele><time>2026-04-09T12:05:29.081Z</time></trkpt><trkpt lat="41.1979533" lon="14.596905"><ele>509.0</ele><time>2026-04-09T12:05:30.081Z</time></trkpt><trkpt lat="41.197955" lon="14.596795"><ele>509.0</ele><time>2026-04-09T12:05:31.081Z</time></trkpt><trkpt lat="41.19796" lon="14.596695"><ele>509.0</ele><time>2026-04-09T12:05:32.081Z</time></trkpt><trkpt lat="41.1979717" lon="14.59659"><ele>508.99999999999994</ele><time>2026-04-09T12:05:33.081Z</time></trkpt><trkpt lat="41.19799" lon="14.5964867"><ele>509.0</ele><time>2026-04-09T12:05:34.081Z</time></trkpt><trkpt lat="41.1980083" lon="14.5963883"><ele>509.0</ele><time>2026-04-09T12:05:35.081Z</time></trkpt><trkpt lat="41.198025" lon="14.5962883"><ele>509.0</ele><time>2026-04-09T12:05:36.081Z</time></trkpt><trkpt lat="41.19804" lon="14.5961817"><ele>509.0</ele><time>2026-04-09T12:05:37.081Z</time></trkpt><trkpt lat="41.1980583" lon="14.5960667"><ele>509.0</ele><time>2026-04-09T12:05:38.081Z</time></trkpt><trkpt lat="41.1980733" lon="14.5959367"><ele>509.0</ele><time>2026-04-09T12:05:39.081Z</time></trkpt><trkpt lat="41.1980883" lon="14.595795"><ele>512.0</ele><time>2026-04-09T12:05:40.081Z</time></trkpt><trkpt lat="41.1981017" lon="14.5956417"><ele>515.0</ele><time>2026-04-09T12:05:41.081Z</time></trkpt><trkpt lat="41.1981183" lon="14.595485"><ele>518.0</ele><time>2026-04-09T12:05:42.081Z</time></trkpt><trkpt lat="41.19814" lon="14.595315"><ele>521.0</ele><time>2026-04-09T12:05:43.081Z</time></trkpt><trkpt lat="41.1981617" lon="14.5951433"><ele>504.5</ele><time>2026-04-09T12:05:44.081Z</time></trkpt><trkpt lat="41.1981867" lon="14.594975"><ele>488.0</ele><time>2026-04-09T12:05:45.081Z</time></trkpt><trkpt lat="41.1982117" lon="14.5948033"><ele>471.5</ele><time>2026-04-09T12:05:46.081Z</time></trkpt><trkpt lat="41.1982383" lon="14.5946333"><ele>455.0</ele><time>2026-04-09T12:05:47.081Z</time></trkpt><trkpt lat="41.1982517" lon="14.59447"><ele>455.0</ele><time>2026-04-09T12:05:48.081Z</time></trkpt><trkpt lat="41.1982683" lon="14.5943033"><ele>455.0</ele><time>2026-04-09T12:05:49.081Z</time></trkpt><trkpt lat="41.1982833" lon="14.5941267"><ele>455.0</ele><time>2026-04-09T12:05:50.081Z</time></trkpt><trkpt lat="41.1982933" lon="14.593945"><ele>455.0</ele><time>2026-04-09T12:05:51.081Z</time></trkpt><trkpt lat="41.1982983" lon="14.5937567"><ele>454.3333333333333</ele><time>2026-04-09T12:05:52.081Z</time></trkpt><trkpt lat="41.1982967" lon="14.593555"><ele>453.66666666666663</ele><time>2026-04-09T12:05:53.081Z</time></trkpt><trkpt lat="41.1982933" lon="14.593355"><ele>453.0</ele><time>2026-04-09T12:05:54.081Z</time></trkpt><trkpt lat="41.1982883" lon="14.5931533"><ele>453.0</ele><time>2026-04-09T12:05:55.081Z</time></trkpt><trkpt lat="41.19828" lon="14.5929533"><ele>453.0</ele><time>2026-04-09T12:05:56.081Z</time></trkpt><trkpt lat="41.1982817" lon="14.5927533"><ele>453.0</ele><time>2026-04-09T12:05:57.081Z</time></trkpt><trkpt lat="41.1982867" lon="14.592555"><ele>451.5</ele><time>2026-04-09T12:05:58.081Z</time></trkpt><trkpt lat="41.1982983" lon="14.592355"><ele>450.0</ele><time>2026-04-09T12:05:59.081Z</time></trkpt><trkpt lat="41.1983067" lon="14.59216"><ele>448.5</ele><time>2026-04-09T12:06:00.081Z</time></trkpt><trkpt lat="41.1983183" lon="14.5919667"><ele>447.0</ele><time>2026-04-09T12:06:01.081Z</time></trkpt><trkpt lat="41.1983217" lon="14.5917683"><ele>444.66666666666663</ele><time>2026-04-09T12:06:02.081Z</time></trkpt><trkpt lat="41.1983167" lon="14.5915683"><ele>442.3333333333333</ele><time>2026-04-09T12:06:03.081Z</time></trkpt><trkpt lat="41.1982983" lon="14.591365"><ele>440.0</ele><time>2026-04-09T12:06:04.081Z</time></trkpt><trkpt lat="41.1982783" lon="14.591155"><ele>436.0</ele><time>2026-04-09T12:06:05.081Z</time></trkpt><trkpt lat="41.198245" lon="14.59094"><ele>432.0</ele><time>2026-04-09T12:06:06.081Z</time></trkpt><trkpt lat="41.1982067" lon="14.5907233"><ele>428.0</ele><time>2026-04-09T12:06:07.081Z</time></trkpt><trkpt lat="41.1981667" lon="14.590505"><ele>442.3333333333333</ele><time>2026-04-09T12:06:08.081Z</time></trkpt><trkpt lat="41.1981217" lon="14.590285"><ele>456.66666666666663</ele><time>2026-04-09T12:06:09.081Z</time></trkpt><trkpt lat="41.1980817" lon="14.5900717"><ele>471.0</ele><time>2026-04-09T12:06:10.081Z</time></trkpt><trkpt lat="41.1980333" lon="14.58987"><ele>471.0</ele><time>2026-04-09T12:06:11.081Z</time></trkpt><trkpt lat="41.1979883" lon="14.58967"><ele>471.0</ele><time>2026-04-09T12:06:12.081Z</time></trkpt><trkpt lat="41.1979417" lon="14.5894767"><ele>471.0</ele><time>2026-04-09T12:06:13.081Z</time></trkpt><trkpt lat="41.197895" lon="14.5892917"><ele>466.0</ele><time>2026-04-09T12:06:14.081Z</time></trkpt><trkpt lat="41.19786" lon="14.589105"><ele>461.0</ele><time>2026-04-09T12:06:15.081Z</time></trkpt><trkpt lat="41.1978167" lon="14.588915"><ele>456.0</ele><time>2026-04-09T12:06:16.081Z</time></trkpt><trkpt lat="41.1977733" lon="14.5887167"><ele>449.0</ele><time>2026-04-09T12:06:17.081Z</time></trkpt><trkpt lat="41.1977217" lon="14.5885267"><ele>442.0</ele><time>2026-04-09T12:06:18.081Z</time></trkpt><trkpt lat="41.1976667" lon="14.588335"><ele>435.0</ele><time>2026-04-09T12:06:19.081Z</time></trkpt><trkpt lat="41.197605" lon="14.5881467"><ele>435.0</ele><time>2026-04-09T12:06:20.081Z</time></trkpt><trkpt lat="41.197525" lon="14.5879567"><ele>435.0</ele><time>2026-04-09T12:06:21.081Z</time></trkpt><trkpt lat="41.1974417" lon="14.5877683"><ele>435.0</ele><time>2026-04-09T12:06:22.081Z</time></trkpt><trkpt lat="41.1973567" lon="14.587575"><ele>438.33333333333337</ele><time>2026-04-09T12:06:23.081Z</time></trkpt><trkpt lat="41.197275" lon="14.58739"><ele>441.6666666666667</ele><time>2026-04-09T12:06:24.081Z</time></trkpt><trkpt lat="41.1971917" lon="14.5872117"><ele>445.0</ele><time>2026-04-09T12:06:25.081Z</time></trkpt><trkpt lat="41.1971117" lon="14.587045"><ele>438.75</ele><time>2026-04-09T12:06:26.081Z</time></trkpt><trkpt lat="41.1970383" lon="14.5868767"><ele>432.5</ele><time>2026-04-09T12:06:27.081Z</time></trkpt><trkpt lat="41.196975" lon="14.5867167"><ele>426.25</ele><time>2026-04-09T12:06:28.081Z</time></trkpt><trkpt lat="41.1969233" lon="14.5865783"><ele>420.0</ele><time>2026-04-09T12:06:29.081Z</time></trkpt><trkpt lat="41.1968717" lon="14.5864633"><ele>420.0</ele><time>2026-04-09T12:06:30.081Z</time></trkpt><trkpt lat="41.196815" lon="14.586385"><ele>420.0</ele><time>2026-04-09T12:06:31.081Z</time></trkpt><trkpt lat="41.1967617" lon="14.5863133"><ele>420.0</ele><time>2026-04-09T12:06:32.081Z</time></trkpt><trkpt lat="41.19672" lon="14.586245"><ele>420.0</ele><time>2026-04-09T12:06:33.081Z</time></trkpt><trkpt lat="41.1967133" lon="14.58609"><ele>420.0</ele><time>2026-04-09T12:06:35.081Z</time></trkpt><trkpt lat="41.1968283" lon="14.5860433"><ele>420.0</ele><time>2026-04-09T12:06:37.081Z</time></trkpt><trkpt lat="41.1969" lon="14.5861067"><ele>420.0</ele><time>2026-04-09T12:06:38.081Z</time></trkpt><trkpt lat="41.19696" lon="14.5862067"><ele>420.0</ele><time>2026-04-09T12:06:39.081Z</time></trkpt><trkpt lat="41.19702" lon="14.5863333"><ele>420.0</ele><time>2026-04-09T12:06:40.081Z</time></trkpt><trkpt lat="41.1970917" lon="14.586465"><ele>420.0</ele><time>2026-04-09T12:06:41.081Z</time></trkpt><trkpt lat="41.197185" lon="14.5866083"><ele>420.0</ele><time>2026-04-09T12:06:42.081Z</time></trkpt><trkpt lat="41.1972917" lon="14.5867533"><ele>420.0</ele><time>2026-04-09T12:06:43.081Z</time></trkpt><trkpt lat="41.1973983" lon="14.5869067"><ele>420.0</ele><time>2026-04-09T12:06:44.081Z</time></trkpt><trkpt lat="41.1975" lon="14.58707"><ele>414.33333333333337</ele><time>2026-04-09T12:06:45.081Z</time></trkpt><trkpt lat="41.197605" lon="14.587235"><ele>408.6666666666667</ele><time>2026-04-09T12:06:46.081Z</time></trkpt><trkpt lat="41.19771" lon="14.5873883"><ele>403.0</ele><time>2026-04-09T12:06:47.081Z</time></trkpt><trkpt lat="41.1978133" lon="14.5875367"><ele>403.0</ele><time>2026-04-09T12:06:48.081Z</time></trkpt><trkpt lat="41.1979133" lon="14.5876833"><ele>403.0</ele><time>2026-04-09T12:06:49.081Z</time></trkpt><trkpt lat="41.1980117" lon="14.58783"><ele>403.0</ele><time>2026-04-09T12:06:50.081Z</time></trkpt><trkpt lat="41.1980983" lon="14.5879783"><ele>403.0</ele><time>2026-04-09T12:06:51.081Z</time></trkpt><trkpt lat="41.1981817" lon="14.588125"><ele>401.75</ele><time>2026-04-09T12:06:52.081Z</time></trkpt><trkpt lat="41.1982617" lon="14.5882717"><ele>400.5</ele><time>2026-04-09T12:06:53.081Z</time></trkpt><trkpt lat="41.1983383" lon="14.588425"><ele>399.25</ele><time>2026-04-09T12:06:54.081Z</time></trkpt><trkpt lat="41.1984117" lon="14.5885883"><ele>398.0</ele><time>2026-04-09T12:06:55.081Z</time></trkpt><trkpt lat="41.1984833" lon="14.5887617"><ele>398.0</ele><time>2026-04-09T12:06:56.081Z</time></trkpt><trkpt lat="41.1985567" lon="14.5889517"><ele>398.0</ele><time>2026-04-09T12:06:57.081Z</time></trkpt><trkpt lat="41.1986367" lon="14.5891433"><ele>398.0</ele><time>2026-04-09T12:06:58.081Z</time></trkpt><trkpt lat="41.1987183" lon="14.5893283"><ele>398.0</ele><time>2026-04-09T12:06:59.081Z</time></trkpt><trkpt lat="41.1988033" lon="14.589505"><ele>398.0</ele><time>2026-04-09T12:07:00.081Z</time></trkpt><trkpt lat="41.1988817" lon="14.5896733"><ele>398.0</ele><time>2026-04-09T12:07:01.081Z</time></trkpt><trkpt lat="41.19895" lon="14.589835"><ele>398.0</ele><time>2026-04-09T12:07:02.081Z</time></trkpt><trkpt lat="41.19902" lon="14.5899817"><ele>394.2</ele><time>2026-04-09T12:07:03.081Z</time></trkpt><trkpt lat="41.199085" lon="14.5901117"><ele>390.4</ele><time>2026-04-09T12:07:04.081Z</time></trkpt><trkpt lat="41.1991317" lon="14.590235"><ele>386.59999999999997</ele><time>2026-04-09T12:07:05.081Z</time></trkpt><trkpt lat="41.1991567" lon="14.590355"><ele>382.79999999999995</ele><time>2026-04-09T12:07:06.081Z</time></trkpt><trkpt lat="41.1991783" lon="14.59046"><ele>379.0</ele><time>2026-04-09T12:07:07.081Z</time></trkpt><trkpt lat="41.1992017" lon="14.590555"><ele>379.0</ele><time>2026-04-09T12:07:08.081Z</time></trkpt><trkpt lat="41.1992417" lon="14.5906217"><ele>379.0</ele><time>2026-04-09T12:07:09.081Z</time></trkpt><trkpt lat="41.1993567" lon="14.5906183"><ele>379.0</ele><time>2026-04-09T12:07:11.081Z</time></trkpt><trkpt lat="41.1994083" lon="14.5905483"><ele>379.0</ele><time>2026-04-09T12:07:12.081Z</time></trkpt><trkpt lat="41.1994383" lon="14.59045"><ele>379.0</ele><time>2026-04-09T12:07:13.081Z</time></trkpt><trkpt lat="41.1994383" lon="14.5903467"><ele>379.0</ele><time>2026-04-09T12:07:14.081Z</time></trkpt><trkpt lat="41.19939" lon="14.590235"><ele>375.0</ele><time>2026-04-09T12:07:15.081Z</time></trkpt><trkpt lat="41.1993283" lon="14.5900983"><ele>371.0</ele><time>2026-04-09T12:07:16.081Z</time></trkpt><trkpt lat="41.1992767" lon="14.58994"><ele>367.0</ele><time>2026-04-09T12:07:17.081Z</time></trkpt><trkpt lat="41.1992333" lon="14.5897667"><ele>363.0</ele><time>2026-04-09T12:07:18.081Z</time></trkpt><trkpt lat="41.199195" lon="14.5895883"><ele>358.75</ele><time>2026-04-09T12:07:19.081Z</time></trkpt><trkpt lat="41.1991633" lon="14.5894017"><ele>354.5</ele><time>2026-04-09T12:07:20.081Z</time></trkpt><trkpt lat="41.1991283" lon="14.5892167"><ele>350.25</ele><time>2026-04-09T12:07:21.081Z</time></trkpt><trkpt lat="41.1990983" lon="14.58904"><ele>346.0</ele><time>2026-04-09T12:07:22.081Z</time></trkpt><trkpt lat="41.1990717" lon="14.5888633"><ele>346.0</ele><time>2026-04-09T12:07:23.081Z</time></trkpt><trkpt lat="41.1990467" lon="14.5886867"><ele>346.0</ele><time>2026-04-09T12:07:24.081Z</time></trkpt><trkpt lat="41.199025" lon="14.588515"><ele>346.0</ele><time>2026-04-09T12:07:25.081Z</time></trkpt><trkpt lat="41.1990033" lon="14.58835"><ele>346.0</ele><time>2026-04-09T12:07:26.081Z</time></trkpt><trkpt lat="41.198975" lon="14.5881733"><ele>349.0</ele><time>2026-04-09T12:07:27.081Z</time></trkpt><trkpt lat="41.1989383" lon="14.5879933"><ele>352.0</ele><time>2026-04-09T12:07:28.081Z</time></trkpt><trkpt lat="41.1988917" lon="14.5878133"><ele>355.0</ele><time>2026-04-09T12:07:29.081Z</time></trkpt><trkpt lat="41.1988433" lon="14.5876283"><ele>358.0</ele><time>2026-04-09T12:07:30.081Z</time></trkpt><trkpt lat="41.1987833" lon="14.587445"><ele>358.0</ele><time>2026-04-09T12:07:31.081Z</time></trkpt><trkpt lat="41.19873" lon="14.5872567"><ele>358.0</ele><time>2026-04-09T12:07:32.081Z</time></trkpt><trkpt lat="41.19867" lon="14.5870817"><ele>358.0</ele><time>2026-04-09T12:07:33.081Z</time></trkpt><trkpt lat="41.1986167" lon="14.58692"><ele>358.0</ele><time>2026-04-09T12:07:34.081Z</time></trkpt><trkpt lat="41.198555" lon="14.5867817"><ele>351.5</ele><time>2026-04-09T12:07:35.081Z</time></trkpt><trkpt lat="41.1984833" lon="14.5866467"><ele>345.0</ele><time>2026-04-09T12:07:36.081Z</time></trkpt><trkpt lat="41.1984067" lon="14.58651"><ele>338.5</ele><time>2026-04-09T12:07:37.081Z</time></trkpt><trkpt lat="41.1983283" lon="14.5863867"><ele>332.0</ele><time>2026-04-09T12:07:38.081Z</time></trkpt><trkpt lat="41.19826" lon="14.5862517"><ele>326.75</ele><time>2026-04-09T12:07:39.081Z</time></trkpt><trkpt lat="41.198215" lon="14.5861017"><ele>321.5</ele><time>2026-04-09T12:07:40.081Z</time></trkpt><trkpt lat="41.1982" lon="14.585945"><ele>316.25</ele><time>2026-04-09T12:07:41.081Z</time></trkpt><trkpt lat="41.1982183" lon="14.5857717"><ele>311.0</ele><time>2026-04-09T12:07:42.081Z</time></trkpt><trkpt lat="41.1982483" lon="14.585595"><ele>311.0</ele><time>2026-04-09T12:07:43.081Z</time></trkpt><trkpt lat="41.1982667" lon="14.585415"><ele>311.0</ele><time>2026-04-09T12:07:44.081Z</time></trkpt><trkpt lat="41.1982633" lon="14.5852383"><ele>311.0</ele><time>2026-04-09T12:07:45.081Z</time></trkpt><trkpt lat="41.198245" lon="14.585065"><ele>311.0</ele><time>2026-04-09T12:07:46.081Z</time></trkpt><trkpt lat="41.19821" lon="14.5848983"><ele>309.75</ele><time>2026-04-09T12:07:47.081Z</time></trkpt><trkpt lat="41.1981633" lon="14.5847367"><ele>308.5</ele><time>2026-04-09T12:07:48.081Z</time></trkpt><trkpt lat="41.19811" lon="14.584585"><ele>307.25</ele><time>2026-04-09T12:07:49.081Z</time></trkpt><trkpt lat="41.198045" lon="14.5844467"><ele>306.0</ele><time>2026-04-09T12:07:50.081Z</time></trkpt><trkpt lat="41.1979783" lon="14.5843117"><ele>306.0</ele><time>2026-04-09T12:07:51.081Z</time></trkpt><trkpt lat="41.1978967" lon="14.5841883"><ele>306.0</ele><time>2026-04-09T12:07:52.081Z</time></trkpt><trkpt lat="41.1977983" lon="14.58407"><ele>306.0</ele><time>2026-04-09T12:07:53.081Z</time></trkpt><trkpt lat="41.19769" lon="14.5839517"><ele>306.0</ele><time>2026-04-09T12:07:54.081Z</time></trkpt><trkpt lat="41.197585" lon="14.5838417"><ele>306.0</ele><time>2026-04-09T12:07:55.081Z</time></trkpt><trkpt lat="41.1974883" lon="14.58373"><ele>306.0</ele><time>2026-04-09T12:07:56.081Z</time></trkpt><trkpt lat="41.1973967" lon="14.583605"><ele>306.0</ele><time>2026-04-09T12:07:57.081Z</time></trkpt><trkpt lat="41.1973167" lon="14.5834817"><ele>306.0</ele><time>2026-04-09T12:07:58.081Z</time></trkpt><trkpt lat="41.1972367" lon="14.58336"><ele>302.75</ele><time>2026-04-09T12:07:59.081Z</time></trkpt><trkpt lat="41.1971567" lon="14.5832367"><ele>299.5</ele><time>2026-04-09T12:08:00.081Z</time></trkpt><trkpt lat="41.19708" lon="14.5831183"><ele>296.25</ele><time>2026-04-09T12:08:01.081Z</time></trkpt><trkpt lat="41.1970017" lon="14.5830067"><ele>293.0</ele><time>2026-04-09T12:08:02.081Z</time></trkpt><trkpt lat="41.1969117" lon="14.5828983"><ele>290.2</ele><time>2026-04-09T12:08:03.081Z</time></trkpt><trkpt lat="41.1968167" lon="14.5828233"><ele>287.4</ele><time>2026-04-09T12:08:04.081Z</time></trkpt><trkpt lat="41.1967183" lon="14.5827683"><ele>284.59999999999997</ele><time>2026-04-09T12:08:05.081Z</time></trkpt><trkpt lat="41.1966217" lon="14.5827117"><ele>281.8</ele><time>2026-04-09T12:08:06.081Z</time></trkpt><trkpt lat="41.19654" lon="14.5826283"><ele>279.0</ele><time>2026-04-09T12:08:07.081Z</time></trkpt><trkpt lat="41.1964817" lon="14.5825117"><ele>278.99999999999994</ele><time>2026-04-09T12:08:08.081Z</time></trkpt><trkpt lat="41.19644" lon="14.5824033"><ele>279.0</ele><time>2026-04-09T12:08:09.081Z</time></trkpt><trkpt lat="41.1964117" lon="14.582315"><ele>279.0</ele><time>2026-04-09T12:08:10.081Z</time></trkpt><trkpt lat="41.196405" lon="14.5822317"><ele>279.0</ele><time>2026-04-09T12:08:11.081Z</time></trkpt><trkpt lat="41.1964067" lon="14.5821417"><ele>279.0</ele><time>2026-04-09T12:08:12.081Z</time></trkpt><trkpt lat="41.1964167" lon="14.5820483"><ele>278.99999999999994</ele><time>2026-04-09T12:08:13.081Z</time></trkpt><trkpt lat="41.1964167" lon="14.5819583"><ele>279.0</ele><time>2026-04-09T12:08:14.081Z</time></trkpt><trkpt lat="41.1964117" lon="14.5818633"><ele>278.3333333333333</ele><time>2026-04-09T12:08:15.081Z</time></trkpt><trkpt lat="41.1964017" lon="14.5817567"><ele>277.6666666666667</ele><time>2026-04-09T12:08:16.081Z</time></trkpt><trkpt lat="41.1963917" lon="14.5816383"><ele>277.0</ele><time>2026-04-09T12:08:17.081Z</time></trkpt><trkpt lat="41.1963833" lon="14.5815283"><ele>276.33333333333337</ele><time>2026-04-09T12:08:18.081Z</time></trkpt><trkpt lat="41.1963783" lon="14.581415"><ele>275.6666666666667</ele><time>2026-04-09T12:08:19.081Z</time></trkpt><trkpt lat="41.1963783" lon="14.58131"><ele>275.0</ele><time>2026-04-09T12:08:20.081Z</time></trkpt><trkpt lat="41.1963767" lon="14.5812033"><ele>275.0</ele><time>2026-04-09T12:08:21.081Z</time></trkpt><trkpt lat="41.196375" lon="14.5810967"><ele>275.0</ele><time>2026-04-09T12:08:22.081Z</time></trkpt><trkpt lat="41.196375" lon="14.5809833"><ele>275.0</ele><time>2026-04-09T12:08:23.081Z</time></trkpt><trkpt lat="41.1963817" lon="14.58086"><ele>275.0</ele><time>2026-04-09T12:08:24.081Z</time></trkpt><trkpt lat="41.1963883" lon="14.580735"><ele>275.0</ele><time>2026-04-09T12:08:25.081Z</time></trkpt><trkpt lat="41.1963983" lon="14.580615"><ele>275.0</ele><time>2026-04-09T12:08:26.081Z</time></trkpt><trkpt lat="41.1964033" lon="14.5804867"><ele>275.0</ele><time>2026-04-09T12:08:27.081Z</time></trkpt><trkpt lat="41.1964133" lon="14.5803617"><ele>275.0</ele><time>2026-04-09T12:08:28.081Z</time></trkpt><trkpt lat="41.196435" lon="14.5802333"><ele>275.0</ele><time>2026-04-09T12:08:29.081Z</time></trkpt><trkpt lat="41.1964567" lon="14.580105"><ele>275.0</ele><time>2026-04-09T12:08:30.081Z</time></trkpt><trkpt lat="41.19648" lon="14.57998"><ele>275.0</ele><time>2026-04-09T12:08:31.081Z</time></trkpt><trkpt lat="41.1964983" lon="14.5798583"><ele>273.2</ele><time>2026-04-09T12:08:32.081Z</time></trkpt><trkpt lat="41.1965267" lon="14.5797367"><ele>271.4</ele><time>2026-04-09T12:08:33.081Z</time></trkpt><trkpt lat="41.1965567" lon="14.5796133"><ele>269.6</ele><time>2026-04-09T12:08:34.081Z</time></trkpt><trkpt lat="41.1965867" lon="14.5794883"><ele>267.8</ele><time>2026-04-09T12:08:35.081Z</time></trkpt><trkpt lat="41.1966267" lon="14.5793517"><ele>266.0</ele><time>2026-04-09T12:08:36.081Z</time></trkpt><trkpt lat="41.1966717" lon="14.5792283"><ele>266.0</ele><time>2026-04-09T12:08:37.081Z</time></trkpt><trkpt lat="41.1967017" lon="14.5791267"><ele>266.0</ele><time>2026-04-09T12:08:38.081Z</time></trkpt><trkpt lat="41.19673" lon="14.5790333"><ele>266.0</ele><time>2026-04-09T12:08:39.081Z</time></trkpt><trkpt lat="41.1967617" lon="14.5789317"><ele>266.0</ele><time>2026-04-09T12:08:40.081Z</time></trkpt><trkpt lat="41.19679" lon="14.5788267"><ele>266.0</ele><time>2026-04-09T12:08:41.081Z</time></trkpt><trkpt lat="41.196815" lon="14.5787183"><ele>266.0</ele><time>2026-04-09T12:08:42.081Z</time></trkpt><trkpt lat="41.1968383" lon="14.5786117"><ele>266.1666666666667</ele><time>2026-04-09T12:08:43.081Z</time></trkpt><trkpt lat="41.1968583" lon="14.57851"><ele>266.33333333333337</ele><time>2026-04-09T12:08:44.081Z</time></trkpt><trkpt lat="41.1968717" lon="14.578415"><ele>266.5</ele><time>2026-04-09T12:08:45.081Z</time></trkpt><trkpt lat="41.196875" lon="14.5783183"><ele>266.6666666666667</ele><time>2026-04-09T12:08:46.081Z</time></trkpt><trkpt lat="41.1968717" lon="14.5782283"><ele>266.8333333333333</ele><time>2026-04-09T12:08:47.081Z</time></trkpt><trkpt lat="41.1968783" lon="14.5780767"><ele>267.0</ele><time>2026-04-09T12:08:49.081Z</time></trkpt><trkpt lat="41.1968917" lon="14.5779367"><ele>266.75</ele><time>2026-04-09T12:08:51.081Z</time></trkpt><trkpt lat="41.1969" lon="14.5777817"><ele>266.5</ele><time>2026-04-09T12:08:53.081Z</time></trkpt><trkpt lat="41.1968983" lon="14.5776417"><ele>266.25</ele><time>2026-04-09T12:08:55.081Z</time></trkpt><trkpt lat="41.1968967" lon="14.577495"><ele>266.0</ele><time>2026-04-09T12:08:57.081Z</time></trkpt><trkpt lat="41.196895" lon="14.577335"><ele>266.0</ele><time>2026-04-09T12:08:59.081Z</time></trkpt><trkpt lat="41.1968833" lon="14.5772467"><ele>266.0</ele><time>2026-04-09T12:09:00.081Z</time></trkpt><trkpt lat="41.1968767" lon="14.57714"><ele>266.0</ele><time>2026-04-09T12:09:01.081Z</time></trkpt><trkpt lat="41.1968567" lon="14.5770183"><ele>266.0</ele><time>2026-04-09T12:09:02.081Z</time></trkpt><trkpt lat="41.1968367" lon="14.576895"><ele>266.0</ele><time>2026-04-09T12:09:03.081Z</time></trkpt><trkpt lat="41.1968167" lon="14.5767717"><ele>266.0</ele><time>2026-04-09T12:09:04.081Z</time></trkpt><trkpt lat="41.1967883" lon="14.5766483"><ele>264.83333333333337</ele><time>2026-04-09T12:09:05.081Z</time></trkpt><trkpt lat="41.1967633" lon="14.576535"><ele>263.6666666666667</ele><time>2026-04-09T12:09:06.081Z</time></trkpt><trkpt lat="41.1967383" lon="14.5764333"><ele>262.5</ele><time>2026-04-09T12:09:07.081Z</time></trkpt><trkpt lat="41.19671" lon="14.5763383"><ele>261.3333333333333</ele><time>2026-04-09T12:09:08.081Z</time></trkpt><trkpt lat="41.1966833" lon="14.57624"><ele>260.16666666666663</ele><time>2026-04-09T12:09:09.081Z</time></trkpt><trkpt lat="41.1966583" lon="14.5761567"><ele>259.0</ele><time>2026-04-09T12:09:10.081Z</time></trkpt><trkpt lat="41.1966433" lon="14.5760717"><ele>257.0</ele><time>2026-04-09T12:09:11.081Z</time></trkpt><trkpt lat="41.1965983" lon="14.57592"><ele>255.0</ele><time>2026-04-09T12:09:13.081Z</time></trkpt><trkpt lat="41.1965417" lon="14.5757783"><ele>253.0</ele><time>2026-04-09T12:09:15.081Z</time></trkpt><trkpt lat="41.1964517" lon="14.57564"><ele>251.0</ele><time>2026-04-09T12:09:17.081Z</time></trkpt><trkpt lat="41.19638" lon="14.57558"><ele>253.16666666666669</ele><time>2026-04-09T12:09:18.081Z</time></trkpt><trkpt lat="41.1962933" lon="14.5755283"><ele>255.33333333333334</ele><time>2026-04-09T12:09:19.081Z</time></trkpt><trkpt lat="41.1962083" lon="14.5754717"><ele>257.5</ele><time>2026-04-09T12:09:20.081Z</time></trkpt><trkpt lat="41.19614" lon="14.5754183"><ele>259.6666666666667</ele><time>2026-04-09T12:09:21.081Z</time></trkpt><trkpt lat="41.1960817" lon="14.5753617"><ele>261.8333333333333</ele><time>2026-04-09T12:09:22.081Z</time></trkpt><trkpt lat="41.1960283" lon="14.5753117"><ele>264.0</ele><time>2026-04-09T12:09:23.081Z</time></trkpt><trkpt lat="41.1959717" lon="14.57525"><ele>264.0</ele><time>2026-04-09T12:09:24.081Z</time></trkpt><trkpt lat="41.1959283" lon="14.5751783"><ele>264.0</ele><time>2026-04-09T12:09:25.081Z</time></trkpt><trkpt lat="41.1958883" lon="14.5750967"><ele>264.0</ele><time>2026-04-09T12:09:26.081Z</time></trkpt><trkpt lat="41.195855" lon="14.5750067"><ele>264.0</ele><time>2026-04-09T12:09:27.081Z</time></trkpt><trkpt lat="41.19583" lon="14.5749"><ele>264.0</ele><time>2026-04-09T12:09:28.081Z</time></trkpt><trkpt lat="41.1958117" lon="14.57481"><ele>264.0</ele><time>2026-04-09T12:09:29.081Z</time></trkpt><trkpt lat="41.1958033" lon="14.5747183"><ele>264.0</ele><time>2026-04-09T12:09:30.081Z</time></trkpt><trkpt lat="41.1958" lon="14.57462"><ele>264.0</ele><time>2026-04-09T12:09:31.081Z</time></trkpt><trkpt lat="41.1958017" lon="14.57451"><ele>264.0</ele><time>2026-04-09T12:09:32.081Z</time></trkpt><trkpt lat="41.19581" lon="14.5743917"><ele>264.0</ele><time>2026-04-09T12:09:33.081Z</time></trkpt><trkpt lat="41.1958217" lon="14.5742683"><ele>264.0</ele><time>2026-04-09T12:09:34.081Z</time></trkpt><trkpt lat="41.1958433" lon="14.5741467"><ele>264.0</ele><time>2026-04-09T12:09:35.081Z</time></trkpt><trkpt lat="41.195865" lon="14.5740333"><ele>264.0</ele><time>2026-04-09T12:09:36.081Z</time></trkpt><trkpt lat="41.19588" lon="14.5739217"><ele>264.0</ele><time>2026-04-09T12:09:37.081Z</time></trkpt><trkpt lat="41.1958867" lon="14.5737967"><ele>264.0</ele><time>2026-04-09T12:09:38.082Z</time></trkpt><trkpt lat="41.19588" lon="14.57367"><ele>264.0</ele><time>2026-04-09T12:09:39.081Z</time></trkpt><trkpt lat="41.1958567" lon="14.5735417"><ele>264.0</ele><time>2026-04-09T12:09:40.081Z</time></trkpt><trkpt lat="41.1958317" lon="14.57342"><ele>264.0</ele><time>2026-04-09T12:09:41.081Z</time></trkpt><trkpt lat="41.1958083" lon="14.5733067"><ele>264.59999999999997</ele><time>2026-04-09T12:09:42.081Z</time></trkpt><trkpt lat="41.195795" lon="14.573185"><ele>265.2</ele><time>2026-04-09T12:09:43.081Z</time></trkpt><trkpt lat="41.1957933" lon="14.5730667"><ele>265.79999999999995</ele><time>2026-04-09T12:09:44.081Z</time></trkpt><trkpt lat="41.195795" lon="14.5729417"><ele>266.4</ele><time>2026-04-09T12:09:45.081Z</time></trkpt><trkpt lat="41.1957933" lon="14.5728217"><ele>267.0</ele><time>2026-04-09T12:09:46.081Z</time></trkpt><trkpt lat="41.1957817" lon="14.5727033"><ele>266.0</ele><time>2026-04-09T12:09:47.081Z</time></trkpt><trkpt lat="41.1957767" lon="14.5725883"><ele>265.0</ele><time>2026-04-09T12:09:48.081Z</time></trkpt><trkpt lat="41.1957617" lon="14.5724733"><ele>264.0</ele><time>2026-04-09T12:09:49.081Z</time></trkpt><trkpt lat="41.1957467" lon="14.5723633"><ele>263.0</ele><time>2026-04-09T12:09:50.081Z</time></trkpt><trkpt lat="41.1957167" lon="14.572265"><ele>262.0</ele><time>2026-04-09T12:09:51.081Z</time></trkpt><trkpt lat="41.1956817" lon="14.5721617"><ele>261.0</ele><time>2026-04-09T12:09:52.081Z</time></trkpt><trkpt lat="41.1956433" lon="14.5720583"><ele>261.6666666666667</ele><time>2026-04-09T12:09:53.081Z</time></trkpt><trkpt lat="41.1956017" lon="14.5719567"><ele>262.3333333333333</ele><time>2026-04-09T12:09:54.081Z</time></trkpt><trkpt lat="41.1955617" lon="14.5718567"><ele>263.0</ele><time>2026-04-09T12:09:55.081Z</time></trkpt><trkpt lat="41.1955233" lon="14.5717517"><ele>263.66666666666663</ele><time>2026-04-09T12:09:56.081Z</time></trkpt><trkpt lat="41.1954733" lon="14.5716583"><ele>264.3333333333333</ele><time>2026-04-09T12:09:57.081Z</time></trkpt><trkpt lat="41.195415" lon="14.57158"><ele>265.0</ele><time>2026-04-09T12:09:58.081Z</time></trkpt><trkpt lat="41.1953567" lon="14.5715117"><ele>265.0</ele><time>2026-04-09T12:09:59.081Z</time></trkpt><trkpt lat="41.19529" lon="14.5714333"><ele>265.0</ele><time>2026-04-09T12:10:00.081Z</time></trkpt><trkpt lat="41.195225" lon="14.5713467"><ele>265.0</ele><time>2026-04-09T12:10:01.081Z</time></trkpt><trkpt lat="41.1951733" lon="14.571245"><ele>265.0</ele><time>2026-04-09T12:10:02.081Z</time></trkpt><trkpt lat="41.1951267" lon="14.5711433"><ele>265.0</ele><time>2026-04-09T12:10:03.081Z</time></trkpt><trkpt lat="41.1950883" lon="14.57103"><ele>261.6</ele><time>2026-04-09T12:10:04.081Z</time></trkpt><trkpt lat="41.1950617" lon="14.5709083"><ele>258.2</ele><time>2026-04-09T12:10:05.081Z</time></trkpt><trkpt lat="41.1950483" lon="14.5707767"><ele>254.8</ele><time>2026-04-09T12:10:06.081Z</time></trkpt><trkpt lat="41.1950433" lon="14.570635"><ele>251.4</ele><time>2026-04-09T12:10:07.081Z</time></trkpt><trkpt lat="41.1950367" lon="14.5704967"><ele>248.0</ele><time>2026-04-09T12:10:08.081Z</time></trkpt><trkpt lat="41.19502" lon="14.570355"><ele>251.2</ele><time>2026-04-09T12:10:09.081Z</time></trkpt><trkpt lat="41.194995" lon="14.570215"><ele>254.4</ele><time>2026-04-09T12:10:10.081Z</time></trkpt><trkpt lat="41.1949667" lon="14.5700717"><ele>257.59999999999997</ele><time>2026-04-09T12:10:11.081Z</time></trkpt><trkpt lat="41.1949267" lon="14.5699367"><ele>260.8</ele><time>2026-04-09T12:10:12.081Z</time></trkpt><trkpt lat="41.19488" lon="14.5698033"><ele>264.0</ele><time>2026-04-09T12:10:13.081Z</time></trkpt><trkpt lat="41.19483" lon="14.5696783"><ele>264.0</ele><time>2026-04-09T12:10:14.081Z</time></trkpt><trkpt lat="41.19478" lon="14.569565"><ele>264.0</ele><time>2026-04-09T12:10:15.081Z</time></trkpt><trkpt lat="41.1947333" lon="14.5694517"><ele>264.0</ele><time>2026-04-09T12:10:16.081Z</time></trkpt><trkpt lat="41.194685" lon="14.5693317"><ele>264.0</ele><time>2026-04-09T12:10:17.081Z</time></trkpt><trkpt lat="41.1946317" lon="14.5692117"><ele>264.0</ele><time>2026-04-09T12:10:18.081Z</time></trkpt><trkpt lat="41.1945817" lon="14.5691"><ele>259.1666666666667</ele><time>2026-04-09T12:10:19.081Z</time></trkpt><trkpt lat="41.1945317" lon="14.5689917"><ele>254.33333333333331</ele><time>2026-04-09T12:10:20.081Z</time></trkpt><trkpt lat="41.1944767" lon="14.5688967"><ele>249.5</ele><time>2026-04-09T12:10:21.081Z</time></trkpt><trkpt lat="41.1944217" lon="14.5688017"><ele>244.66666666666666</ele><time>2026-04-09T12:10:22.081Z</time></trkpt><trkpt lat="41.1943767" lon="14.5687067"><ele>239.83333333333331</ele><time>2026-04-09T12:10:23.081Z</time></trkpt><trkpt lat="41.1943383" lon="14.5686133"><ele>235.0</ele><time>2026-04-09T12:10:24.081Z</time></trkpt><trkpt lat="41.1943117" lon="14.5684983"><ele>232.2</ele><time>2026-04-09T12:10:25.081Z</time></trkpt><trkpt lat="41.1942983" lon="14.5683717"><ele>229.4</ele><time>2026-04-09T12:10:26.081Z</time></trkpt><trkpt lat="41.19428" lon="14.5682417"><ele>226.60000000000002</ele><time>2026-04-09T12:10:27.081Z</time></trkpt><trkpt lat="41.1942567" lon="14.5680917"><ele>223.8</ele><time>2026-04-09T12:10:28.081Z</time></trkpt><trkpt lat="41.19423" lon="14.567945"><ele>221.0</ele><time>2026-04-09T12:10:29.081Z</time></trkpt><trkpt lat="41.1942" lon="14.56781"><ele>219.5</ele><time>2026-04-09T12:10:30.081Z</time></trkpt><trkpt lat="41.1941617" lon="14.5676917"><ele>218.0</ele><time>2026-04-09T12:10:31.081Z</time></trkpt><trkpt lat="41.1941167" lon="14.5675667"><ele>216.5</ele><time>2026-04-09T12:10:32.081Z</time></trkpt><trkpt lat="41.1940683" lon="14.56741"><ele>215.0</ele><time>2026-04-09T12:10:33.081Z</time></trkpt><trkpt lat="41.19402" lon="14.567245"><ele>220.5</ele><time>2026-04-09T12:10:34.081Z</time></trkpt><trkpt lat="41.193985" lon="14.5670867"><ele>226.0</ele><time>2026-04-09T12:10:35.081Z</time></trkpt><trkpt lat="41.193955" lon="14.5669283"><ele>231.5</ele><time>2026-04-09T12:10:36.081Z</time></trkpt><trkpt lat="41.1939267" lon="14.5667733"><ele>237.0</ele><time>2026-04-09T12:10:37.081Z</time></trkpt><trkpt lat="41.1939083" lon="14.5666283"><ele>237.0</ele><time>2026-04-09T12:10:38.081Z</time></trkpt><trkpt lat="41.19389" lon="14.5664983"><ele>237.0</ele><time>2026-04-09T12:10:39.081Z</time></trkpt><trkpt lat="41.1938783" lon="14.5663733"><ele>237.0</ele><time>2026-04-09T12:10:40.081Z</time></trkpt><trkpt lat="41.1938633" lon="14.5662483"><ele>237.0</ele><time>2026-04-09T12:10:41.081Z</time></trkpt><trkpt lat="41.1938517" lon="14.566115"><ele>237.0</ele><time>2026-04-09T12:10:42.081Z</time></trkpt><trkpt lat="41.19384" lon="14.5659817"><ele>234.8</ele><time>2026-04-09T12:10:43.081Z</time></trkpt><trkpt lat="41.1938233" lon="14.5658417"><ele>232.6</ele><time>2026-04-09T12:10:44.081Z</time></trkpt><trkpt lat="41.1938" lon="14.5657017"><ele>230.40000000000003</ele><time>2026-04-09T12:10:45.081Z</time></trkpt><trkpt lat="41.1937617" lon="14.5655733"><ele>228.20000000000002</ele><time>2026-04-09T12:10:46.081Z</time></trkpt><trkpt lat="41.1937167" lon="14.5654483"><ele>226.0</ele><time>2026-04-09T12:10:47.081Z</time></trkpt><trkpt lat="41.19367" lon="14.5653267"><ele>225.49999999999997</ele><time>2026-04-09T12:10:48.081Z</time></trkpt><trkpt lat="41.1936267" lon="14.565225"><ele>225.0</ele><time>2026-04-09T12:10:49.081Z</time></trkpt><trkpt lat="41.1935867" lon="14.5651267"><ele>224.5</ele><time>2026-04-09T12:10:50.081Z</time></trkpt><trkpt lat="41.1935483" lon="14.5650267"><ele>224.0</ele><time>2026-04-09T12:10:51.081Z</time></trkpt><trkpt lat="41.193515" lon="14.5649267"><ele>223.49999999999997</ele><time>2026-04-09T12:10:52.081Z</time></trkpt><trkpt lat="41.1934883" lon="14.564835"><ele>223.0</ele><time>2026-04-09T12:10:53.081Z</time></trkpt><trkpt lat="41.19347" lon="14.5647417"><ele>222.99999999999997</ele><time>2026-04-09T12:10:54.081Z</time></trkpt><trkpt lat="41.1934633" lon="14.5646483"><ele>223.0</ele><time>2026-04-09T12:10:55.081Z</time></trkpt><trkpt lat="41.19347" lon="14.5645617"><ele>223.0</ele><time>2026-04-09T12:10:56.081Z</time></trkpt><trkpt lat="41.19349" lon="14.56447"><ele>223.0</ele><time>2026-04-09T12:10:57.081Z</time></trkpt><trkpt lat="41.1935367" lon="14.5643783"><ele>222.99999999999997</ele><time>2026-04-09T12:10:58.081Z</time></trkpt><trkpt lat="41.1936017" lon="14.5642867"><ele>223.0</ele><time>2026-04-09T12:10:59.081Z</time></trkpt><trkpt lat="41.1936683" lon="14.5641983"><ele>221.33333333333331</ele><time>2026-04-09T12:11:00.081Z</time></trkpt><trkpt lat="41.1937283" lon="14.5641217"><ele>219.66666666666666</ele><time>2026-04-09T12:11:01.081Z</time></trkpt><trkpt lat="41.1937867" lon="14.5640467"><ele>218.0</ele><time>2026-04-09T12:11:02.081Z</time></trkpt><trkpt lat="41.1938417" lon="14.5639767"><ele>216.33333333333331</ele><time>2026-04-09T12:11:03.081Z</time></trkpt><trkpt lat="41.193895" lon="14.5639133"><ele>214.66666666666666</ele><time>2026-04-09T12:11:04.081Z</time></trkpt><trkpt lat="41.1939417" lon="14.56385"><ele>213.0</ele><time>2026-04-09T12:11:05.081Z</time></trkpt><trkpt lat="41.194" lon="14.5637083"><ele>211.66666666666666</ele><time>2026-04-09T12:11:07.081Z</time></trkpt><trkpt lat="41.1940067" lon="14.5636233"><ele>210.33333333333331</ele><time>2026-04-09T12:11:08.081Z</time></trkpt><trkpt lat="41.193995" lon="14.5635167"><ele>209.0</ele><time>2026-04-09T12:11:09.081Z</time></trkpt><trkpt lat="41.1939683" lon="14.5634083"><ele>207.66666666666666</ele><time>2026-04-09T12:11:10.081Z</time></trkpt><trkpt lat="41.19394" lon="14.5632917"><ele>206.33333333333331</ele><time>2026-04-09T12:11:11.081Z</time></trkpt><trkpt lat="41.19391" lon="14.5631733"><ele>205.0</ele><time>2026-04-09T12:11:12.081Z</time></trkpt><trkpt lat="41.193885" lon="14.5630567"><ele>204.99999999999997</ele><time>2026-04-09T12:11:13.081Z</time></trkpt><trkpt lat="41.1938633" lon="14.5629367"><ele>205.0</ele><time>2026-04-09T12:11:14.081Z</time></trkpt><trkpt lat="41.1938417" lon="14.5628217"><ele>205.0</ele><time>2026-04-09T12:11:15.081Z</time></trkpt><trkpt lat="41.1938217" lon="14.5627067"><ele>205.0</ele><time>2026-04-09T12:11:16.081Z</time></trkpt><trkpt lat="41.193815" lon="14.56259"><ele>204.99999999999997</ele><time>2026-04-09T12:11:17.081Z</time></trkpt><trkpt lat="41.1938183" lon="14.56248"><ele>205.0</ele><time>2026-04-09T12:11:18.081Z</time></trkpt><trkpt lat="41.19383" lon="14.5623683"><ele>204.0</ele><time>2026-04-09T12:11:19.081Z</time></trkpt><trkpt lat="41.19386" lon="14.5622467"><ele>203.0</ele><time>2026-04-09T12:11:20.081Z</time></trkpt><trkpt lat="41.1938967" lon="14.5621217"><ele>202.0</ele><time>2026-04-09T12:11:21.081Z</time></trkpt><trkpt lat="41.1939317" lon="14.562"><ele>201.0</ele><time>2026-04-09T12:11:22.081Z</time></trkpt><trkpt lat="41.1939617" lon="14.5618817"><ele>200.0</ele><time>2026-04-09T12:11:23.081Z</time></trkpt><trkpt lat="41.1939917" lon="14.5617667"><ele>197.16666666666669</ele><time>2026-04-09T12:11:24.081Z</time></trkpt><trkpt lat="41.1940217" lon="14.561655"><ele>194.33333333333334</ele><time>2026-04-09T12:11:25.081Z</time></trkpt><trkpt lat="41.1940633" lon="14.561545"><ele>191.5</ele><time>2026-04-09T12:11:26.081Z</time></trkpt><trkpt lat="41.1941067" lon="14.5614367"><ele>188.66666666666669</ele><time>2026-04-09T12:11:27.081Z</time></trkpt><trkpt lat="41.194155" lon="14.56134"><ele>185.83333333333334</ele><time>2026-04-09T12:11:28.081Z</time></trkpt><trkpt lat="41.194205" lon="14.5612567"><ele>183.0</ele><time>2026-04-09T12:11:29.081Z</time></trkpt><trkpt lat="41.1942583" lon="14.5611783"><ele>182.33333333333334</ele><time>2026-04-09T12:11:30.081Z</time></trkpt><trkpt lat="41.194305" lon="14.561105"><ele>181.66666666666666</ele><time>2026-04-09T12:11:31.081Z</time></trkpt><trkpt lat="41.1943483" lon="14.5610417"><ele>181.0</ele><time>2026-04-09T12:11:32.081Z</time></trkpt><trkpt lat="41.1944033" lon="14.5609883"><ele>180.33333333333331</ele><time>2026-04-09T12:11:33.081Z</time></trkpt><trkpt lat="41.1945217" lon="14.5609367"><ele>179.66666666666666</ele><time>2026-04-09T12:11:35.081Z</time></trkpt><trkpt lat="41.1946367" lon="14.560965"><ele>179.0</ele><time>2026-04-09T12:11:37.081Z</time></trkpt><trkpt lat="41.1947033" lon="14.560985"><ele>179.0</ele><time>2026-04-09T12:11:39.081Z</time></trkpt><trkpt lat="41.1947483" lon="14.5608883"><ele>179.0</ele><time>2026-04-09T12:11:47.081Z</time></trkpt><trkpt lat="41.1946933" lon="14.5607917"><ele>179.0</ele><time>2026-04-09T12:11:49.081Z</time></trkpt><trkpt lat="41.19461" lon="14.5606867"><ele>179.0</ele><time>2026-04-09T12:11:51.081Z</time></trkpt><trkpt lat="41.1945583" lon="14.5606267"><ele>179.0</ele><time>2026-04-09T12:11:52.081Z</time></trkpt><trkpt lat="41.1945017" lon="14.5605467"><ele>179.0</ele><time>2026-04-09T12:11:53.081Z</time></trkpt><trkpt lat="41.1944433" lon="14.5604367"><ele>178.5</ele><time>2026-04-09T12:11:54.081Z</time></trkpt><trkpt lat="41.1943933" lon="14.5603133"><ele>178.0</ele><time>2026-04-09T12:11:55.081Z</time></trkpt><trkpt lat="41.1943567" lon="14.5601767"><ele>177.5</ele><time>2026-04-09T12:11:56.081Z</time></trkpt><trkpt lat="41.1943183" lon="14.5600133"><ele>177.0</ele><time>2026-04-09T12:11:57.081Z</time></trkpt><trkpt lat="41.194265" lon="14.5598517"><ele>177.0</ele><time>2026-04-09T12:11:58.081Z</time></trkpt><trkpt lat="41.1942133" lon="14.559685"><ele>177.0</ele><time>2026-04-09T12:11:59.081Z</time></trkpt><trkpt lat="41.1941433" lon="14.5595233"><ele>177.0</ele><time>2026-04-09T12:12:00.081Z</time></trkpt><trkpt lat="41.1940633" lon="14.55937"><ele>177.0</ele><time>2026-04-09T12:12:01.081Z</time></trkpt><trkpt lat="41.193975" lon="14.5592417"><ele>181.66666666666666</ele><time>2026-04-09T12:12:02.081Z</time></trkpt><trkpt lat="41.1938617" lon="14.559125"><ele>186.33333333333331</ele><time>2026-04-09T12:12:03.081Z</time></trkpt><trkpt lat="41.19373" lon="14.5590183"><ele>191.0</ele><time>2026-04-09T12:12:04.081Z</time></trkpt><trkpt lat="41.1935817" lon="14.5589283"><ele>191.0</ele><time>2026-04-09T12:12:05.081Z</time></trkpt><trkpt lat="41.1934283" lon="14.5588567"><ele>191.0</ele><time>2026-04-09T12:12:06.081Z</time></trkpt><trkpt lat="41.1932817" lon="14.5588"><ele>191.0</ele><time>2026-04-09T12:12:07.081Z</time></trkpt><trkpt lat="41.19315" lon="14.5587433"><ele>193.5</ele><time>2026-04-09T12:12:08.081Z</time></trkpt><trkpt lat="41.1930317" lon="14.558685"><ele>196.0</ele><time>2026-04-09T12:12:09.081Z</time></trkpt><trkpt lat="41.1929217" lon="14.5586183"><ele>198.5</ele><time>2026-04-09T12:12:10.081Z</time></trkpt><trkpt lat="41.1928133" lon="14.5585417"><ele>201.0</ele><time>2026-04-09T12:12:11.081Z</time></trkpt><trkpt lat="41.1927167" lon="14.55846"><ele>201.0</ele><time>2026-04-09T12:12:12.081Z</time></trkpt><trkpt lat="41.1926317" lon="14.5583633"><ele>201.0</ele><time>2026-04-09T12:12:13.081Z</time></trkpt><trkpt lat="41.1925567" lon="14.558265"><ele>201.0</ele><time>2026-04-09T12:12:14.081Z</time></trkpt><trkpt lat="41.19249" lon="14.5581633"><ele>201.0</ele><time>2026-04-09T12:12:15.081Z</time></trkpt><trkpt lat="41.1924333" lon="14.5580517"><ele>201.0</ele><time>2026-04-09T12:12:16.081Z</time></trkpt><trkpt lat="41.192385" lon="14.5579317"><ele>204.5</ele><time>2026-04-09T12:12:17.081Z</time></trkpt><trkpt lat="41.19233" lon="14.5577967"><ele>208.0</ele><time>2026-04-09T12:12:18.081Z</time></trkpt><trkpt lat="41.1922783" lon="14.557655"><ele>211.5</ele><time>2026-04-09T12:12:19.081Z</time></trkpt><trkpt lat="41.19223" lon="14.5574983"><ele>215.0</ele><time>2026-04-09T12:12:20.081Z</time></trkpt><trkpt lat="41.1921867" lon="14.5573333"><ele>215.0</ele><time>2026-04-09T12:12:21.081Z</time></trkpt><trkpt lat="41.1921433" lon="14.5571583"><ele>215.0</ele><time>2026-04-09T12:12:22.081Z</time></trkpt><trkpt lat="41.1921083" lon="14.5569883"><ele>215.0</ele><time>2026-04-09T12:12:23.081Z</time></trkpt><trkpt lat="41.1920717" lon="14.5568167"><ele>215.0</ele><time>2026-04-09T12:12:24.081Z</time></trkpt><trkpt lat="41.19203" lon="14.556635"><ele>214.5</ele><time>2026-04-09T12:12:25.081Z</time></trkpt><trkpt lat="41.19199" lon="14.5564567"><ele>214.0</ele><time>2026-04-09T12:12:26.081Z</time></trkpt><trkpt lat="41.191945" lon="14.556285"><ele>213.5</ele><time>2026-04-09T12:12:27.081Z</time></trkpt><trkpt lat="41.1919" lon="14.5561167"><ele>213.0</ele><time>2026-04-09T12:12:28.081Z</time></trkpt><trkpt lat="41.1918533" lon="14.555955"><ele>212.5</ele><time>2026-04-09T12:12:29.081Z</time></trkpt><trkpt lat="41.1918117" lon="14.5558067"><ele>212.0</ele><time>2026-04-09T12:12:30.081Z</time></trkpt><trkpt lat="41.19177" lon="14.555665"><ele>211.5</ele><time>2026-04-09T12:12:31.081Z</time></trkpt><trkpt lat="41.19173" lon="14.5555183"><ele>211.0</ele><time>2026-04-09T12:12:32.081Z</time></trkpt><trkpt lat="41.1916967" lon="14.55536"><ele>211.0</ele><time>2026-04-09T12:12:33.081Z</time></trkpt><trkpt lat="41.19167" lon="14.555195"><ele>211.0</ele><time>2026-04-09T12:12:34.081Z</time></trkpt><trkpt lat="41.1916383" lon="14.555035"><ele>211.0</ele><time>2026-04-09T12:12:35.081Z</time></trkpt><trkpt lat="41.1916117" lon="14.554875"><ele>211.0</ele><time>2026-04-09T12:12:36.081Z</time></trkpt><trkpt lat="41.1915833" lon="14.554715"><ele>211.0</ele><time>2026-04-09T12:12:37.081Z</time></trkpt><trkpt lat="41.1915483" lon="14.5545567"><ele>211.0</ele><time>2026-04-09T12:12:38.081Z</time></trkpt><trkpt lat="41.19152" lon="14.5543967"><ele>211.0</ele><time>2026-04-09T12:12:39.081Z</time></trkpt><trkpt lat="41.1915" lon="14.554225"><ele>211.0</ele><time>2026-04-09T12:12:40.081Z</time></trkpt><trkpt lat="41.1914783" lon="14.5540517"><ele>214.0</ele><time>2026-04-09T12:12:41.081Z</time></trkpt><trkpt lat="41.1914667" lon="14.5538733"><ele>217.0</ele><time>2026-04-09T12:12:42.081Z</time></trkpt><trkpt lat="41.1914633" lon="14.5536917"><ele>220.0</ele><time>2026-04-09T12:12:43.081Z</time></trkpt><trkpt lat="41.1914617" lon="14.5535083"><ele>223.0</ele><time>2026-04-09T12:12:44.081Z</time></trkpt><trkpt lat="41.1914533" lon="14.5533333"><ele>223.0</ele><time>2026-04-09T12:12:45.081Z</time></trkpt><trkpt lat="41.1914433" lon="14.5531533"><ele>223.0</ele><time>2026-04-09T12:12:46.081Z</time></trkpt><trkpt lat="41.1914283" lon="14.5529733"><ele>223.0</ele><time>2026-04-09T12:12:47.081Z</time></trkpt><trkpt lat="41.191405" lon="14.5527917"><ele>223.0</ele><time>2026-04-09T12:12:48.081Z</time></trkpt><trkpt lat="41.1913817" lon="14.5526033"><ele>222.5</ele><time>2026-04-09T12:12:49.081Z</time></trkpt><trkpt lat="41.191345" lon="14.552415"><ele>222.0</ele><time>2026-04-09T12:12:50.081Z</time></trkpt><trkpt lat="41.1913117" lon="14.5522283"><ele>221.5</ele><time>2026-04-09T12:12:51.081Z</time></trkpt><trkpt lat="41.19127" lon="14.5520367"><ele>221.0</ele><time>2026-04-09T12:12:52.081Z</time></trkpt><trkpt lat="41.19122" lon="14.5518383"><ele>219.33333333333334</ele><time>2026-04-09T12:12:53.081Z</time></trkpt><trkpt lat="41.191165" lon="14.5516367"><ele>217.66666666666669</ele><time>2026-04-09T12:12:54.081Z</time></trkpt><trkpt lat="41.1911117" lon="14.55142"><ele>216.0</ele><time>2026-04-09T12:12:55.081Z</time></trkpt><trkpt lat="41.19105" lon="14.5512133"><ele>214.0</ele><time>2026-04-09T12:12:56.081Z</time></trkpt><trkpt lat="41.1909883" lon="14.551005"><ele>212.0</ele><time>2026-04-09T12:12:57.081Z</time></trkpt><trkpt lat="41.1909267" lon="14.5508033"><ele>210.0</ele><time>2026-04-09T12:12:58.081Z</time></trkpt><trkpt lat="41.1908633" lon="14.5506133"><ele>210.0</ele><time>2026-04-09T12:12:59.081Z</time></trkpt><trkpt lat="41.190805" lon="14.5504267"><ele>210.0</ele><time>2026-04-09T12:13:00.081Z</time></trkpt><trkpt lat="41.1907417" lon="14.5502483"><ele>210.0</ele><time>2026-04-09T12:13:01.081Z</time></trkpt><trkpt lat="41.1906683" lon="14.55008"><ele>210.0</ele><time>2026-04-09T12:13:02.081Z</time></trkpt><trkpt lat="41.190605" lon="14.5499233"><ele>211.0</ele><time>2026-04-09T12:13:03.081Z</time></trkpt><trkpt lat="41.19054" lon="14.5497817"><ele>212.0</ele><time>2026-04-09T12:13:04.081Z</time></trkpt><trkpt lat="41.1904817" lon="14.54963"><ele>213.0</ele><time>2026-04-09T12:13:05.081Z</time></trkpt><trkpt lat="41.19042" lon="14.549495"><ele>214.0</ele><time>2026-04-09T12:13:06.081Z</time></trkpt><trkpt lat="41.1903617" lon="14.54934"><ele>214.0</ele><time>2026-04-09T12:13:07.081Z</time></trkpt><trkpt lat="41.1902967" lon="14.5491733"><ele>214.0</ele><time>2026-04-09T12:13:08.081Z</time></trkpt><trkpt lat="41.1902233" lon="14.5490033"><ele>214.0</ele><time>2026-04-09T12:13:09.081Z</time></trkpt><trkpt lat="41.19015" lon="14.548825"><ele>214.0</ele><time>2026-04-09T12:13:10.081Z</time></trkpt><trkpt lat="41.1900783" lon="14.54864"><ele>213.0</ele><time>2026-04-09T12:13:11.081Z</time></trkpt><trkpt lat="41.1900067" lon="14.5484517"><ele>212.0</ele><time>2026-04-09T12:13:12.081Z</time></trkpt><trkpt lat="41.18993" lon="14.54828"><ele>211.0</ele><time>2026-04-09T12:13:13.081Z</time></trkpt><trkpt lat="41.18986" lon="14.5480983"><ele>214.33333333333331</ele><time>2026-04-09T12:13:14.081Z</time></trkpt><trkpt lat="41.189795" lon="14.5479117"><ele>217.66666666666669</ele><time>2026-04-09T12:13:15.081Z</time></trkpt><trkpt lat="41.18973" lon="14.5477333"><ele>221.0</ele><time>2026-04-09T12:13:16.081Z</time></trkpt><trkpt lat="41.1896683" lon="14.5475483"><ele>221.0</ele><time>2026-04-09T12:13:17.081Z</time></trkpt><trkpt lat="41.1896167" lon="14.547355"><ele>221.0</ele><time>2026-04-09T12:13:18.081Z</time></trkpt><trkpt lat="41.1895667" lon="14.5471617"><ele>221.0</ele><time>2026-04-09T12:13:19.081Z</time></trkpt><trkpt lat="41.1895183" lon="14.5469667"><ele>220.5</ele><time>2026-04-09T12:13:20.081Z</time></trkpt><trkpt lat="41.1894717" lon="14.54678"><ele>220.0</ele><time>2026-04-09T12:13:21.081Z</time></trkpt><trkpt lat="41.18943" lon="14.5465983"><ele>219.5</ele><time>2026-04-09T12:13:22.081Z</time></trkpt><trkpt lat="41.1893833" lon="14.5464217"><ele>219.0</ele><time>2026-04-09T12:13:23.081Z</time></trkpt><trkpt lat="41.1893283" lon="14.546255"><ele>218.5</ele><time>2026-04-09T12:13:24.081Z</time></trkpt><trkpt lat="41.1892667" lon="14.5460917"><ele>218.0</ele><time>2026-04-09T12:13:25.081Z</time></trkpt><trkpt lat="41.1891983" lon="14.545925"><ele>217.5</ele><time>2026-04-09T12:13:26.081Z</time></trkpt><trkpt lat="41.1891217" lon="14.5457583"><ele>217.0</ele><time>2026-04-09T12:13:27.081Z</time></trkpt><trkpt lat="41.189045" lon="14.5455933"><ele>217.2</ele><time>2026-04-09T12:13:28.081Z</time></trkpt><trkpt lat="41.1889783" lon="14.545445"><ele>217.39999999999998</ele><time>2026-04-09T12:13:29.081Z</time></trkpt><trkpt lat="41.1889217" lon="14.5453217"><ele>217.60000000000002</ele><time>2026-04-09T12:13:30.081Z</time></trkpt><trkpt lat="41.18887" lon="14.5452033"><ele>217.8</ele><time>2026-04-09T12:13:31.081Z</time></trkpt><trkpt lat="41.188825" lon="14.5450933"><ele>218.0</ele><time>2026-04-09T12:13:32.081Z</time></trkpt><trkpt lat="41.1887817" lon="14.5449983"><ele>218.00000000000003</ele><time>2026-04-09T12:13:33.081Z</time></trkpt><trkpt lat="41.188745" lon="14.544925"><ele>218.0</ele><time>2026-04-09T12:13:34.081Z</time></trkpt><trkpt lat="41.188715" lon="14.5448217"><ele>218.0</ele><time>2026-04-09T12:13:36.081Z</time></trkpt><trkpt lat="41.1887583" lon="14.5446983"><ele>218.0</ele><time>2026-04-09T12:13:39.081Z</time></trkpt><trkpt lat="41.1888667" lon="14.544665"><ele>218.00000000000003</ele><time>2026-04-09T12:13:41.081Z</time></trkpt><trkpt lat="41.1889467" lon="14.54466"><ele>218.0</ele><time>2026-04-09T12:13:42.081Z</time></trkpt><trkpt lat="41.1890283" lon="14.5446383"><ele>216.83333333333334</ele><time>2026-04-09T12:13:43.081Z</time></trkpt><trkpt lat="41.189105" lon="14.5446067"><ele>215.66666666666669</ele><time>2026-04-09T12:13:44.081Z</time></trkpt><trkpt lat="41.1891767" lon="14.5445733"><ele>214.5</ele><time>2026-04-09T12:13:45.081Z</time></trkpt><trkpt lat="41.1892367" lon="14.5445367"><ele>213.33333333333331</ele><time>2026-04-09T12:13:46.081Z</time></trkpt><trkpt lat="41.1893367" lon="14.5445"><ele>212.16666666666666</ele><time>2026-04-09T12:13:48.081Z</time></trkpt><trkpt lat="41.1894517" lon="14.5445217"><ele>211.0</ele><time>2026-04-09T12:13:50.081Z</time></trkpt><trkpt lat="41.1895117" lon="14.5445533"><ele>210.99999999999997</ele><time>2026-04-09T12:13:51.081Z</time></trkpt><trkpt lat="41.1895733" lon="14.5446"><ele>211.0</ele><time>2026-04-09T12:13:52.081Z</time></trkpt><trkpt lat="41.1896417" lon="14.54465"><ele>211.0</ele><time>2026-04-09T12:13:53.081Z</time></trkpt><trkpt lat="41.1897133" lon="14.5446917"><ele>211.0</ele><time>2026-04-09T12:13:54.081Z</time></trkpt><trkpt lat="41.18979" lon="14.5447133"><ele>210.99999999999997</ele><time>2026-04-09T12:13:55.081Z</time></trkpt><trkpt lat="41.189875" lon="14.544725"><ele>211.0</ele><time>2026-04-09T12:13:56.081Z</time></trkpt><trkpt lat="41.18996" lon="14.5447267"><ele>209.8</ele><time>2026-04-09T12:13:57.081Z</time></trkpt><trkpt lat="41.1900333" lon="14.5447133"><ele>208.60000000000002</ele><time>2026-04-09T12:13:58.081Z</time></trkpt><trkpt lat="41.1901467" lon="14.5446783"><ele>207.4</ele><time>2026-04-09T12:14:00.081Z</time></trkpt><trkpt lat="41.1902283" lon="14.5446267"><ele>206.2</ele><time>2026-04-09T12:14:02.081Z</time></trkpt><trkpt lat="41.1902883" lon="14.5445883"><ele>205.0</ele><time>2026-04-09T12:14:04.081Z</time></trkpt><trkpt lat="41.19038" lon="14.54452"><ele>204.8</ele><time>2026-04-09T12:14:20.081Z</time></trkpt><trkpt lat="41.1903733" lon="14.5444317"><ele>204.6</ele><time>2026-04-09T12:14:22.081Z</time></trkpt><trkpt lat="41.1903233" lon="14.54431"><ele>204.39999999999998</ele><time>2026-04-09T12:14:24.081Z</time></trkpt><trkpt lat="41.1902733" lon="14.5441567"><ele>204.2</ele><time>2026-04-09T12:14:26.081Z</time></trkpt><trkpt lat="41.1902283" lon="14.544005"><ele>204.0</ele><time>2026-04-09T12:14:28.081Z</time></trkpt><trkpt lat="41.1901783" lon="14.5438683"><ele>204.0</ele><time>2026-04-09T12:14:30.081Z</time></trkpt><trkpt lat="41.1901383" lon="14.543755"><ele>204.0</ele><time>2026-04-09T12:14:32.081Z</time></trkpt><trkpt lat="41.1901" lon="14.5436433"><ele>204.0</ele><time>2026-04-09T12:14:34.081Z</time></trkpt><trkpt lat="41.1900567" lon="14.543555"><ele>204.0</ele><time>2026-04-09T12:14:36.081Z</time></trkpt><trkpt lat="41.19009" lon="14.5436283"><ele>204.0</ele><time>2026-04-09T12:14:43.081Z</time></trkpt><trkpt lat="41.1901317" lon="14.5436983"><ele>204.0</ele><time>2026-04-09T12:14:45.081Z</time></trkpt><trkpt lat="41.1901617" lon="14.5437833"><ele>204.0</ele><time>2026-04-09T12:14:47.081Z</time></trkpt><trkpt lat="41.190205" lon="14.5438783"><ele>204.0</ele><time>2026-04-09T12:14:50.081Z</time></trkpt><trkpt lat="41.1902483" lon="14.5439817"><ele>204.0</ele><time>2026-04-09T12:14:53.081Z</time></trkpt><trkpt lat="41.1902767" lon="14.5440833"><ele>204.0</ele><time>2026-04-09T12:14:55.081Z</time></trkpt><trkpt lat="41.1902983" lon="14.5441683"><ele>204.0</ele><time>2026-04-09T12:14:57.081Z</time></trkpt><trkpt lat="41.1903283" lon="14.5442567"><ele>204.0</ele><time>2026-04-09T12:14:59.081Z</time></trkpt><trkpt lat="41.1903483" lon="14.5443383"><ele>204.0</ele><time>2026-04-09T12:15:01.081Z</time></trkpt><trkpt lat="41.1903783" lon="14.544425"><ele>204.0</ele><time>2026-04-09T12:15:03.081Z</time></trkpt><trkpt lat="41.1904183" lon="14.5445067"><ele>204.0</ele><time>2026-04-09T12:15:05.081Z</time></trkpt><trkpt lat="41.1904617" lon="14.5446183"><ele>204.0</ele><time>2026-04-09T12:15:23.081Z</time></trkpt><trkpt lat="41.19049" lon="14.5447217"><ele>204.0</ele><time>2026-04-09T12:15:25.081Z</time></trkpt><trkpt lat="41.1905117" lon="14.544815"><ele>204.0</ele><time>2026-04-09T12:15:26.081Z</time></trkpt><trkpt lat="41.1905417" lon="14.54494"><ele>204.16666666666666</ele><time>2026-04-09T12:15:27.081Z</time></trkpt><trkpt lat="41.1905767" lon="14.545045"><ele>204.33333333333331</ele><time>2026-04-09T12:15:28.081Z</time></trkpt><trkpt lat="41.1906133" lon="14.54514"><ele>204.5</ele><time>2026-04-09T12:15:29.081Z</time></trkpt><trkpt lat="41.1906567" lon="14.5452667"><ele>204.66666666666666</ele><time>2026-04-09T12:15:31.081Z</time></trkpt><trkpt lat="41.1906617" lon="14.5453517"><ele>204.83333333333331</ele><time>2026-04-09T12:15:33.081Z</time></trkpt><trkpt lat="41.190705" lon="14.5452533"><ele>205.0</ele><time>2026-04-09T12:23:36.082Z</time></trkpt><trkpt lat="41.1908033" lon="14.5451"><ele>205.0</ele><time>2026-04-09T12:24:49.082Z</time></trkpt><trkpt lat="41.1906717" lon="14.5452417"><ele>205.0</ele><time>2026-04-09T12:24:55.082Z</time></trkpt><trkpt lat="41.1905967" lon="14.5452933"><ele>205.0</ele><time>2026-04-09T12:24:57.082Z</time></trkpt><trkpt lat="41.1905517" lon="14.5453917"><ele>205.0</ele><time>2026-04-09T12:25:00.082Z</time></trkpt><trkpt lat="41.190475" lon="14.5454317"><ele>205.0</ele><time>2026-04-09T12:25:04.082Z</time></trkpt><trkpt lat="41.1904367" lon="14.5453617"><ele>205.0</ele><time>2026-04-09T12:25:15.082Z</time></trkpt><trkpt lat="41.1905453" lon="14.5453071"><ele>205.0</ele><time>2026-04-09T12:26:16.472Z</time></trkpt><trkpt lat="41.1906217" lon="14.5452583"><ele>205.0</ele><time>2026-04-09T12:26:35.086Z</time></trkpt><trkpt lat="41.1904667" lon="14.5452983"><ele>205.0</ele><time>2026-04-09T12:26:43.086Z</time></trkpt><trkpt lat="41.1903883" lon="14.5453233"><ele>205.0</ele><time>2026-04-09T12:26:44.086Z</time></trkpt><trkpt lat="41.190315" lon="14.54535"><ele>205.0</ele><time>2026-04-09T12:26:45.086Z</time></trkpt><trkpt lat="41.190245" lon="14.5453933"><ele>205.0</ele><time>2026-04-09T12:26:47.086Z</time></trkpt><trkpt lat="41.1901917" lon="14.5454433"><ele>205.0</ele><time>2026-04-09T12:26:50.086Z</time></trkpt><trkpt lat="41.1901067" lon="14.54547"><ele>205.0</ele><time>2026-04-09T12:26:54.086Z</time></trkpt><trkpt lat="41.1905498" lon="14.5453034"><ele>205.0</ele><time>2026-04-09T12:27:02.934Z</time></trkpt><trkpt lat="41.1904033" lon="14.545365"><ele>205.0</ele><time>2026-04-09T12:27:32.085Z</time></trkpt><trkpt lat="41.1905333" lon="14.545345"><ele>205.0</ele><time>2026-04-09T12:27:34.085Z</time></trkpt><trkpt lat="41.1906433" lon="14.5453333"><ele>205.0</ele><time>2026-04-09T12:27:49.085Z</time></trkpt><trkpt lat="41.19059" lon="14.5452317"><ele>204.99999999999997</ele><time>2026-04-09T12:30:29.085Z</time></trkpt><trkpt lat="41.1905583" lon="14.5451367"><ele>205.0</ele><time>2026-04-09T12:30:30.085Z</time></trkpt><trkpt lat="41.1905333" lon="14.5450417"><ele>205.0</ele><time>2026-04-09T12:30:31.085Z</time></trkpt><trkpt lat="41.190505" lon="14.5449583"><ele>205.0</ele><time>2026-04-09T12:30:32.085Z</time></trkpt><trkpt lat="41.1904583" lon="14.54482"><ele>204.99999999999997</ele><time>2026-04-09T12:30:34.085Z</time></trkpt><trkpt lat="41.19044" lon="14.544705"><ele>205.0</ele><time>2026-04-09T12:30:36.085Z</time></trkpt><trkpt lat="41.1904117" lon="14.5446083"><ele>205.0</ele><time>2026-04-09T12:30:38.085Z</time></trkpt><trkpt lat="41.1903383" lon="14.5445917"><ele>205.0</ele><time>2026-04-09T12:30:40.085Z</time></trkpt><trkpt lat="41.19025" lon="14.5446467"><ele>205.0</ele><time>2026-04-09T12:30:42.085Z</time></trkpt><trkpt lat="41.1901267" lon="14.5447067"><ele>205.0</ele><time>2026-04-09T12:30:44.085Z</time></trkpt><trkpt lat="41.1900517" lon="14.5447317"><ele>205.0</ele><time>2026-04-09T12:30:45.085Z</time></trkpt><trkpt lat="41.189965" lon="14.5447467"><ele>205.0</ele><time>2026-04-09T12:30:46.085Z</time></trkpt><trkpt lat="41.18987" lon="14.5447267"><ele>205.0</ele><time>2026-04-09T12:30:47.085Z</time></trkpt><trkpt lat="41.189775" lon="14.5446883"><ele>205.0</ele><time>2026-04-09T12:30:48.085Z</time></trkpt><trkpt lat="41.18968" lon="14.5446517"><ele>205.0</ele><time>2026-04-09T12:30:49.085Z</time></trkpt><trkpt lat="41.1895983" lon="14.5446117"><ele>205.0</ele><time>2026-04-09T12:30:50.085Z</time></trkpt><trkpt lat="41.189535" lon="14.5445717"><ele>205.2</ele><time>2026-04-09T12:30:51.085Z</time></trkpt><trkpt lat="41.1894333" lon="14.544515"><ele>205.4</ele><time>2026-04-09T12:30:53.085Z</time></trkpt><trkpt lat="41.1893417" lon="14.544505"><ele>205.60000000000002</ele><time>2026-04-09T12:30:56.085Z</time></trkpt><trkpt lat="41.18923" lon="14.54455"><ele>205.8</ele><time>2026-04-09T12:30:58.085Z</time></trkpt><trkpt lat="41.189165" lon="14.5445917"><ele>206.0</ele><time>2026-04-09T12:30:59.085Z</time></trkpt><trkpt lat="41.1890833" lon="14.5446317"><ele>208.4</ele><time>2026-04-09T12:31:00.085Z</time></trkpt><trkpt lat="41.1889917" lon="14.5446583"><ele>210.8</ele><time>2026-04-09T12:31:01.085Z</time></trkpt><trkpt lat="41.1888933" lon="14.54467"><ele>213.20000000000002</ele><time>2026-04-09T12:31:02.085Z</time></trkpt><trkpt lat="41.18879" lon="14.5446783"><ele>215.60000000000002</ele><time>2026-04-09T12:31:03.085Z</time></trkpt><trkpt lat="41.188665" lon="14.5447067"><ele>218.0</ele><time>2026-04-09T12:31:04.085Z</time></trkpt><trkpt lat="41.1885333" lon="14.544745"><ele>218.0</ele><time>2026-04-09T12:31:05.085Z</time></trkpt><trkpt lat="41.1884083" lon="14.5447833"><ele>218.0</ele><time>2026-04-09T12:31:06.085Z</time></trkpt><trkpt lat="41.18829" lon="14.544825"><ele>218.0</ele><time>2026-04-09T12:31:07.085Z</time></trkpt><trkpt lat="41.188185" lon="14.5448667"><ele>218.0</ele><time>2026-04-09T12:31:08.085Z</time></trkpt><trkpt lat="41.1880717" lon="14.54491"><ele>218.25</ele><time>2026-04-09T12:31:09.085Z</time></trkpt><trkpt lat="41.187955" lon="14.544945"><ele>218.5</ele><time>2026-04-09T12:31:10.085Z</time></trkpt><trkpt lat="41.187835" lon="14.5449883"><ele>218.75</ele><time>2026-04-09T12:31:11.085Z</time></trkpt><trkpt lat="41.1877233" lon="14.5450367"><ele>219.0</ele><time>2026-04-09T12:31:12.085Z</time></trkpt><trkpt lat="41.1876167" lon="14.545085"><ele>219.0</ele><time>2026-04-09T12:31:13.085Z</time></trkpt><trkpt lat="41.187515" lon="14.5451367"><ele>219.0</ele><time>2026-04-09T12:31:14.085Z</time></trkpt><trkpt lat="41.1874133" lon="14.54519"><ele>219.0</ele><time>2026-04-09T12:31:15.085Z</time></trkpt><trkpt lat="41.1873083" lon="14.5452467"><ele>219.0</ele><time>2026-04-09T12:31:16.085Z</time></trkpt><trkpt lat="41.1871917" lon="14.5453083"><ele>220.75</ele><time>2026-04-09T12:31:17.085Z</time></trkpt><trkpt lat="41.187065" lon="14.5453733"><ele>222.5</ele><time>2026-04-09T12:31:18.085Z</time></trkpt><trkpt lat="41.1869333" lon="14.5454533"><ele>224.25</ele><time>2026-04-09T12:31:19.085Z</time></trkpt><trkpt lat="41.1868" lon="14.5455233"><ele>226.0</ele><time>2026-04-09T12:31:20.085Z</time></trkpt><trkpt lat="41.186665" lon="14.5455967"><ele>229.66666666666666</ele><time>2026-04-09T12:31:21.085Z</time></trkpt><trkpt lat="41.1865267" lon="14.545675"><ele>233.33333333333331</ele><time>2026-04-09T12:31:22.085Z</time></trkpt><trkpt lat="41.1863867" lon="14.5457617"><ele>237.0</ele><time>2026-04-09T12:31:23.085Z</time></trkpt><trkpt lat="41.1862433" lon="14.5458517"><ele>237.0</ele><time>2026-04-09T12:31:24.085Z</time></trkpt><trkpt lat="41.18611" lon="14.5459467"><ele>237.0</ele><time>2026-04-09T12:31:25.085Z</time></trkpt><trkpt lat="41.1859783" lon="14.54605"><ele>237.0</ele><time>2026-04-09T12:31:26.085Z</time></trkpt><trkpt lat="41.18586" lon="14.5461483"><ele>237.0</ele><time>2026-04-09T12:31:27.085Z</time></trkpt><trkpt lat="41.1857483" lon="14.546255"><ele>240.75</ele><time>2026-04-09T12:31:28.085Z</time></trkpt><trkpt lat="41.1856417" lon="14.5463733"><ele>244.5</ele><time>2026-04-09T12:31:29.085Z</time></trkpt><trkpt lat="41.1855267" lon="14.5464983"><ele>248.25</ele><time>2026-04-09T12:31:30.085Z</time></trkpt><trkpt lat="41.1854133" lon="14.54663"><ele>252.0</ele><time>2026-04-09T12:31:31.085Z</time></trkpt><trkpt lat="41.1853" lon="14.546765"><ele>252.0</ele><time>2026-04-09T12:31:32.085Z</time></trkpt><trkpt lat="41.1851967" lon="14.546895"><ele>252.0</ele><time>2026-04-09T12:31:33.085Z</time></trkpt><trkpt lat="41.18511" lon="14.5470183"><ele>252.0</ele><time>2026-04-09T12:31:34.085Z</time></trkpt><trkpt lat="41.185025" lon="14.5471367"><ele>252.0</ele><time>2026-04-09T12:31:35.085Z</time></trkpt><trkpt lat="41.1849433" lon="14.5472433"><ele>254.2</ele><time>2026-04-09T12:31:36.085Z</time></trkpt><trkpt lat="41.1848517" lon="14.547335"><ele>256.4</ele><time>2026-04-09T12:31:37.085Z</time></trkpt><trkpt lat="41.1847617" lon="14.5474167"><ele>258.6</ele><time>2026-04-09T12:31:38.085Z</time></trkpt><trkpt lat="41.1846833" lon="14.5474967"><ele>260.8</ele><time>2026-04-09T12:31:39.085Z</time></trkpt><trkpt lat="41.1846183" lon="14.5475783"><ele>263.0</ele><time>2026-04-09T12:31:40.085Z</time></trkpt><trkpt lat="41.1845583" lon="14.5476833"><ele>264.6</ele><time>2026-04-09T12:31:41.085Z</time></trkpt><trkpt lat="41.1845083" lon="14.547795"><ele>266.20000000000005</ele><time>2026-04-09T12:31:42.085Z</time></trkpt><trkpt lat="41.1844617" lon="14.5479033"><ele>267.8</ele><time>2026-04-09T12:31:43.085Z</time></trkpt><trkpt lat="41.1844017" lon="14.548"><ele>269.40000000000003</ele><time>2026-04-09T12:31:44.085Z</time></trkpt><trkpt lat="41.1843283" lon="14.5480917"><ele>271.0</ele><time>2026-04-09T12:31:45.085Z</time></trkpt><trkpt lat="41.184245" lon="14.5481667"><ele>272.8</ele><time>2026-04-09T12:31:46.085Z</time></trkpt><trkpt lat="41.1841483" lon="14.5482317"><ele>274.6</ele><time>2026-04-09T12:31:47.085Z</time></trkpt><trkpt lat="41.1840417" lon="14.548285"><ele>276.4</ele><time>2026-04-09T12:31:48.085Z</time></trkpt><trkpt lat="41.18393" lon="14.5483283"><ele>278.2</ele><time>2026-04-09T12:31:49.085Z</time></trkpt><trkpt lat="41.1838267" lon="14.5483733"><ele>280.0</ele><time>2026-04-09T12:31:50.085Z</time></trkpt><trkpt lat="41.1837283" lon="14.548395"><ele>282.0</ele><time>2026-04-09T12:31:51.085Z</time></trkpt><trkpt lat="41.18364" lon="14.5484"><ele>284.0</ele><time>2026-04-09T12:31:52.085Z</time></trkpt><trkpt lat="41.18356" lon="14.5483733"><ele>286.0</ele><time>2026-04-09T12:31:53.085Z</time></trkpt><trkpt lat="41.1835167" lon="14.5482983"><ele>288.0</ele><time>2026-04-09T12:31:54.085Z</time></trkpt><trkpt lat="41.1834983" lon="14.5482067"><ele>290.0</ele><time>2026-04-09T12:31:55.085Z</time></trkpt><trkpt lat="41.1835083" lon="14.548095"><ele>292.0</ele><time>2026-04-09T12:31:56.085Z</time></trkpt><trkpt lat="41.1835417" lon="14.547985"><ele>292.0</ele><time>2026-04-09T12:31:57.085Z</time></trkpt><trkpt lat="41.18361" lon="14.5478833"><ele>292.0</ele><time>2026-04-09T12:31:58.085Z</time></trkpt><trkpt lat="41.18369" lon="14.547795"><ele>292.0</ele><time>2026-04-09T12:31:59.085Z</time></trkpt><trkpt lat="41.18377" lon="14.5476883"><ele>292.0</ele><time>2026-04-09T12:32:00.085Z</time></trkpt><trkpt lat="41.183835" lon="14.54757"><ele>292.0</ele><time>2026-04-09T12:32:01.085Z</time></trkpt><trkpt lat="41.1838717" lon="14.5474317"><ele>293.5</ele><time>2026-04-09T12:32:02.085Z</time></trkpt><trkpt lat="41.1838983" lon="14.5472883"><ele>295.0</ele><time>2026-04-09T12:32:03.085Z</time></trkpt><trkpt lat="41.1839233" lon="14.5471317"><ele>296.5</ele><time>2026-04-09T12:32:04.085Z</time></trkpt><trkpt lat="41.1839383" lon="14.5469617"><ele>298.0</ele><time>2026-04-09T12:32:05.085Z</time></trkpt><trkpt lat="41.1839417" lon="14.54679"><ele>304.0</ele><time>2026-04-09T12:32:06.085Z</time></trkpt><trkpt lat="41.183955" lon="14.5466217"><ele>310.0</ele><time>2026-04-09T12:32:07.085Z</time></trkpt><trkpt lat="41.18396" lon="14.5464517"><ele>316.0</ele><time>2026-04-09T12:32:08.085Z</time></trkpt><trkpt lat="41.1839583" lon="14.54629"><ele>322.0</ele><time>2026-04-09T12:32:09.085Z</time></trkpt><trkpt lat="41.1839533" lon="14.5461317"><ele>325.0</ele><time>2026-04-09T12:32:10.085Z</time></trkpt><trkpt lat="41.18395" lon="14.5459767"><ele>328.0</ele><time>2026-04-09T12:32:11.085Z</time></trkpt><trkpt lat="41.1839483" lon="14.5458267"><ele>331.0</ele><time>2026-04-09T12:32:12.085Z</time></trkpt><trkpt lat="41.183945" lon="14.5456733"><ele>334.0</ele><time>2026-04-09T12:32:13.085Z</time></trkpt><trkpt lat="41.18394" lon="14.54552"><ele>335.25</ele><time>2026-04-09T12:32:14.085Z</time></trkpt><trkpt lat="41.1839317" lon="14.545355"><ele>336.5</ele><time>2026-04-09T12:32:15.085Z</time></trkpt><trkpt lat="41.1839283" lon="14.545175"><ele>337.75</ele><time>2026-04-09T12:32:16.085Z</time></trkpt><trkpt lat="41.1839333" lon="14.54498"><ele>339.0</ele><time>2026-04-09T12:32:17.085Z</time></trkpt><trkpt lat="41.1839217" lon="14.5447833"><ele>339.0</ele><time>2026-04-09T12:32:18.085Z</time></trkpt><trkpt lat="41.1839233" lon="14.5445833"><ele>339.0</ele><time>2026-04-09T12:32:19.085Z</time></trkpt><trkpt lat="41.1839033" lon="14.54438"><ele>339.0</ele><time>2026-04-09T12:32:20.085Z</time></trkpt><trkpt lat="41.1838783" lon="14.5441717"><ele>338.6666666666667</ele><time>2026-04-09T12:32:21.085Z</time></trkpt><trkpt lat="41.1838283" lon="14.54397"><ele>338.33333333333337</ele><time>2026-04-09T12:32:22.085Z</time></trkpt><trkpt lat="41.183775" lon="14.5437717"><ele>338.0</ele><time>2026-04-09T12:32:23.085Z</time></trkpt><trkpt lat="41.183725" lon="14.5435667"><ele>338.0</ele><time>2026-04-09T12:32:24.085Z</time></trkpt><trkpt lat="41.18367" lon="14.543365"><ele>338.0</ele><time>2026-04-09T12:32:25.085Z</time></trkpt><trkpt lat="41.1836083" lon="14.5431683"><ele>338.0</ele><time>2026-04-09T12:32:26.085Z</time></trkpt><trkpt lat="41.183555" lon="14.5429617"><ele>337.33333333333337</ele><time>2026-04-09T12:32:27.085Z</time></trkpt><trkpt lat="41.183505" lon="14.5427433"><ele>336.6666666666667</ele><time>2026-04-09T12:32:28.085Z</time></trkpt><trkpt lat="41.1834633" lon="14.54253"><ele>336.0</ele><time>2026-04-09T12:32:29.085Z</time></trkpt><trkpt lat="41.1834117" lon="14.5423067"><ele>336.0</ele><time>2026-04-09T12:32:30.085Z</time></trkpt><trkpt lat="41.1833533" lon="14.5420917"><ele>336.0</ele><time>2026-04-09T12:32:31.085Z</time></trkpt><trkpt lat="41.18331" lon="14.54189"><ele>336.0</ele><time>2026-04-09T12:32:32.085Z</time></trkpt><trkpt lat="41.183265" lon="14.5417017"><ele>335.25</ele><time>2026-04-09T12:32:33.085Z</time></trkpt><trkpt lat="41.1832167" lon="14.541515"><ele>334.5</ele><time>2026-04-09T12:32:34.085Z</time></trkpt><trkpt lat="41.183165" lon="14.5413483"><ele>333.75</ele><time>2026-04-09T12:32:35.085Z</time></trkpt><trkpt lat="41.183115" lon="14.5411983"><ele>333.0</ele><time>2026-04-09T12:32:36.085Z</time></trkpt><trkpt lat="41.1830667" lon="14.5410717"><ele>339.5</ele><time>2026-04-09T12:32:37.085Z</time></trkpt><trkpt lat="41.1830233" lon="14.5409667"><ele>346.0</ele><time>2026-04-09T12:32:38.085Z</time></trkpt><trkpt lat="41.1829783" lon="14.540865"><ele>352.5</ele><time>2026-04-09T12:32:39.085Z</time></trkpt><trkpt lat="41.1829267" lon="14.540765"><ele>359.0</ele><time>2026-04-09T12:32:40.085Z</time></trkpt><trkpt lat="41.1828817" lon="14.5406683"><ele>365.5</ele><time>2026-04-09T12:32:41.085Z</time></trkpt><trkpt lat="41.18285" lon="14.54059"><ele>372.0</ele><time>2026-04-09T12:32:42.085Z</time></trkpt><trkpt lat="41.1827667" lon="14.54053"><ele>372.0</ele><time>2026-04-09T12:32:44.085Z</time></trkpt><trkpt lat="41.1827267" lon="14.54061"><ele>372.0</ele><time>2026-04-09T12:32:46.085Z</time></trkpt><trkpt lat="41.1827417" lon="14.5406933"><ele>372.0</ele><time>2026-04-09T12:32:47.085Z</time></trkpt><trkpt lat="41.1827683" lon="14.540785"><ele>372.0</ele><time>2026-04-09T12:32:48.085Z</time></trkpt><trkpt lat="41.1828067" lon="14.5408833"><ele>372.0</ele><time>2026-04-09T12:32:49.085Z</time></trkpt><trkpt lat="41.1828433" lon="14.540995"><ele>372.0</ele><time>2026-04-09T12:32:50.085Z</time></trkpt><trkpt lat="41.1828617" lon="14.5411067"><ele>372.0</ele><time>2026-04-09T12:32:51.085Z</time></trkpt><trkpt lat="41.1828683" lon="14.5412117"><ele>372.0</ele><time>2026-04-09T12:32:52.085Z</time></trkpt><trkpt lat="41.1828633" lon="14.5412983"><ele>372.0</ele><time>2026-04-09T12:32:53.085Z</time></trkpt><trkpt lat="41.1828317" lon="14.5413767"><ele>372.0</ele><time>2026-04-09T12:32:55.085Z</time></trkpt><trkpt lat="41.1827683" lon="14.5413217"><ele>372.0</ele><time>2026-04-09T12:32:57.085Z</time></trkpt><trkpt lat="41.1827367" lon="14.541175"><ele>372.0</ele><time>2026-04-09T12:32:59.085Z</time></trkpt><trkpt lat="41.1827133" lon="14.5410833"><ele>372.0</ele><time>2026-04-09T12:33:00.085Z</time></trkpt><trkpt lat="41.1826817" lon="14.5409917"><ele>372.0</ele><time>2026-04-09T12:33:01.085Z</time></trkpt><trkpt lat="41.1826267" lon="14.540885"><ele>372.0</ele><time>2026-04-09T12:33:02.085Z</time></trkpt><trkpt lat="41.1825633" lon="14.5407717"><ele>372.0</ele><time>2026-04-09T12:33:03.085Z</time></trkpt><trkpt lat="41.1824933" lon="14.54065"><ele>372.0</ele><time>2026-04-09T12:33:04.085Z</time></trkpt><trkpt lat="41.1824183" lon="14.54051"><ele>382.5</ele><time>2026-04-09T12:33:05.085Z</time></trkpt><trkpt lat="41.1823433" lon="14.5403517"><ele>393.0</ele><time>2026-04-09T12:33:06.085Z</time></trkpt><trkpt lat="41.1822867" lon="14.540175"><ele>403.5</ele><time>2026-04-09T12:33:07.085Z</time></trkpt><trkpt lat="41.1822317" lon="14.5400083"><ele>414.0</ele><time>2026-04-09T12:33:08.085Z</time></trkpt><trkpt lat="41.182185" lon="14.5398383"><ele>414.0</ele><time>2026-04-09T12:33:09.085Z</time></trkpt><trkpt lat="41.1821383" lon="14.539665"><ele>414.0</ele><time>2026-04-09T12:33:10.085Z</time></trkpt><trkpt lat="41.182085" lon="14.53949"><ele>414.0</ele><time>2026-04-09T12:33:11.085Z</time></trkpt><trkpt lat="41.1820283" lon="14.5393117"><ele>414.0</ele><time>2026-04-09T12:33:12.085Z</time></trkpt><trkpt lat="41.18197" lon="14.5391383"><ele>412.5</ele><time>2026-04-09T12:33:13.085Z</time></trkpt><trkpt lat="41.1819133" lon="14.53897"><ele>411.0</ele><time>2026-04-09T12:33:14.085Z</time></trkpt><trkpt lat="41.1818517" lon="14.5388083"><ele>409.5</ele><time>2026-04-09T12:33:15.085Z</time></trkpt><trkpt lat="41.1817883" lon="14.5386517"><ele>408.0</ele><time>2026-04-09T12:33:16.085Z</time></trkpt><trkpt lat="41.1817383" lon="14.538505"><ele>405.59999999999997</ele><time>2026-04-09T12:33:17.085Z</time></trkpt><trkpt lat="41.1817017" lon="14.538365"><ele>403.2</ele><time>2026-04-09T12:33:18.085Z</time></trkpt><trkpt lat="41.1816633" lon="14.5382533"><ele>400.8</ele><time>2026-04-09T12:33:19.085Z</time></trkpt><trkpt lat="41.181625" lon="14.5381483"><ele>398.4</ele><time>2026-04-09T12:33:20.085Z</time></trkpt><trkpt lat="41.1815783" lon="14.5380567"><ele>396.0</ele><time>2026-04-09T12:33:21.085Z</time></trkpt><trkpt lat="41.1815117" lon="14.537975"><ele>403.6666666666667</ele><time>2026-04-09T12:33:22.085Z</time></trkpt><trkpt lat="41.1814283" lon="14.5379033"><ele>411.33333333333337</ele><time>2026-04-09T12:33:23.085Z</time></trkpt><trkpt lat="41.181355" lon="14.53784"><ele>419.0</ele><time>2026-04-09T12:33:24.085Z</time></trkpt><trkpt lat="41.1813083" lon="14.5377717"><ele>426.6666666666667</ele><time>2026-04-09T12:33:25.085Z</time></trkpt><trkpt lat="41.1812867" lon="14.53769"><ele>434.33333333333337</ele><time>2026-04-09T12:33:26.085Z</time></trkpt><trkpt lat="41.181285" lon="14.5375967"><ele>442.0</ele><time>2026-04-09T12:33:27.085Z</time></trkpt><trkpt lat="41.181305" lon="14.53749"><ele>442.0</ele><time>2026-04-09T12:33:28.085Z</time></trkpt><trkpt lat="41.18134" lon="14.5373767"><ele>442.00000000000006</ele><time>2026-04-09T12:33:29.085Z</time></trkpt><trkpt lat="41.1813783" lon="14.537245"><ele>442.00000000000006</ele><time>2026-04-09T12:33:30.085Z</time></trkpt><trkpt lat="41.18141" lon="14.5371067"><ele>442.0</ele><time>2026-04-09T12:33:31.085Z</time></trkpt><trkpt lat="41.1814367" lon="14.53695"><ele>442.0</ele><time>2026-04-09T12:33:32.085Z</time></trkpt><trkpt lat="41.1814417" lon="14.5367667"><ele>443.75</ele><time>2026-04-09T12:33:33.085Z</time></trkpt><trkpt lat="41.18144" lon="14.5365883"><ele>445.5</ele><time>2026-04-09T12:33:34.085Z</time></trkpt><trkpt lat="41.181435" lon="14.5364183"><ele>447.25</ele><time>2026-04-09T12:33:35.085Z</time></trkpt><trkpt lat="41.1814283" lon="14.5362483"><ele>449.0</ele><time>2026-04-09T12:33:36.085Z</time></trkpt><trkpt lat="41.181415" lon="14.5360767"><ele>449.0</ele><time>2026-04-09T12:33:37.085Z</time></trkpt><trkpt lat="41.181395" lon="14.5359167"><ele>449.0</ele><time>2026-04-09T12:33:38.085Z</time></trkpt><trkpt lat="41.1813667" lon="14.535755"><ele>449.0</ele><time>2026-04-09T12:33:39.085Z</time></trkpt><trkpt lat="41.181335" lon="14.5356083"><ele>449.0</ele><time>2026-04-09T12:33:40.085Z</time></trkpt><trkpt lat="41.1813" lon="14.535475"><ele>446.0</ele><time>2026-04-09T12:33:41.085Z</time></trkpt><trkpt lat="41.18126" lon="14.5353533"><ele>443.0</ele><time>2026-04-09T12:33:42.085Z</time></trkpt><trkpt lat="41.1812117" lon="14.5352533"><ele>440.0</ele><time>2026-04-09T12:33:43.085Z</time></trkpt><trkpt lat="41.1811433" lon="14.5351667"><ele>437.0</ele><time>2026-04-09T12:33:44.085Z</time></trkpt><trkpt lat="41.18105" lon="14.5350833"><ele>434.0</ele><time>2026-04-09T12:33:45.085Z</time></trkpt><trkpt lat="41.1809467" lon="14.5349983"><ele>434.0</ele><time>2026-04-09T12:33:46.085Z</time></trkpt><trkpt lat="41.1808467" lon="14.5349067"><ele>434.0</ele><time>2026-04-09T12:33:47.085Z</time></trkpt><trkpt lat="41.180745" lon="14.5348167"><ele>434.0</ele><time>2026-04-09T12:33:48.085Z</time></trkpt><trkpt lat="41.1806517" lon="14.5347267"><ele>434.0</ele><time>2026-04-09T12:33:49.085Z</time></trkpt><trkpt lat="41.18056" lon="14.5346417"><ele>438.5</ele><time>2026-04-09T12:33:50.085Z</time></trkpt><trkpt lat="41.1804667" lon="14.5345533"><ele>443.0</ele><time>2026-04-09T12:33:51.085Z</time></trkpt><trkpt lat="41.180375" lon="14.5344667"><ele>447.5</ele><time>2026-04-09T12:33:52.085Z</time></trkpt><trkpt lat="41.1802783" lon="14.534375"><ele>452.0</ele><time>2026-04-09T12:33:53.085Z</time></trkpt><trkpt lat="41.1801833" lon="14.53428"><ele>452.0</ele><time>2026-04-09T12:33:54.085Z</time></trkpt><trkpt lat="41.180095" lon="14.534185"><ele>452.00000000000006</ele><time>2026-04-09T12:33:55.085Z</time></trkpt><trkpt lat="41.1800167" lon="14.5340917"><ele>452.00000000000006</ele><time>2026-04-09T12:33:56.085Z</time></trkpt><trkpt lat="41.1799417" lon="14.5340033"><ele>452.0</ele><time>2026-04-09T12:33:57.085Z</time></trkpt><trkpt lat="41.17987" lon="14.5339183"><ele>452.0</ele><time>2026-04-09T12:33:58.085Z</time></trkpt><trkpt lat="41.1798017" lon="14.5338433"><ele>462.40000000000003</ele><time>2026-04-09T12:33:59.085Z</time></trkpt><trkpt lat="41.179745" lon="14.53376"><ele>472.80000000000007</ele><time>2026-04-09T12:34:00.085Z</time></trkpt><trkpt lat="41.1797" lon="14.5335933"><ele>483.2</ele><time>2026-04-09T12:34:02.085Z</time></trkpt><trkpt lat="41.1797117" lon="14.53348"><ele>493.6</ele><time>2026-04-09T12:34:03.085Z</time></trkpt><trkpt lat="41.1797433" lon="14.5333567"><ele>504.0</ele><time>2026-04-09T12:34:04.085Z</time></trkpt><trkpt lat="41.17978" lon="14.5332167"><ele>504.0</ele><time>2026-04-09T12:34:05.085Z</time></trkpt><trkpt lat="41.1798167" lon="14.53307"><ele>504.0</ele><time>2026-04-09T12:34:06.085Z</time></trkpt><trkpt lat="41.17987" lon="14.5329217"><ele>504.0</ele><time>2026-04-09T12:34:07.085Z</time></trkpt><trkpt lat="41.17993" lon="14.532775"><ele>504.0</ele><time>2026-04-09T12:34:08.085Z</time></trkpt><trkpt lat="41.1799867" lon="14.5326117"><ele>499.75</ele><time>2026-04-09T12:34:09.085Z</time></trkpt><trkpt lat="41.1800417" lon="14.5324417"><ele>495.5</ele><time>2026-04-09T12:34:10.085Z</time></trkpt><trkpt lat="41.1800967" lon="14.5322667"><ele>491.25</ele><time>2026-04-09T12:34:11.085Z</time></trkpt><trkpt lat="41.1801433" lon="14.5320833"><ele>487.0</ele><time>2026-04-09T12:34:12.085Z</time></trkpt><trkpt lat="41.1801817" lon="14.5318817"><ele>487.0</ele><time>2026-04-09T12:34:13.085Z</time></trkpt><trkpt lat="41.18021" lon="14.5316683"><ele>487.0</ele><time>2026-04-09T12:34:14.085Z</time></trkpt><trkpt lat="41.1802333" lon="14.5314567"><ele>487.0</ele><time>2026-04-09T12:34:15.085Z</time></trkpt><trkpt lat="41.1802517" lon="14.5312583"><ele>491.25</ele><time>2026-04-09T12:34:16.085Z</time></trkpt><trkpt lat="41.1802717" lon="14.5310717"><ele>495.5</ele><time>2026-04-09T12:34:17.085Z</time></trkpt><trkpt lat="41.1802917" lon="14.5308983"><ele>499.75</ele><time>2026-04-09T12:34:18.085Z</time></trkpt><trkpt lat="41.1803017" lon="14.5307383"><ele>504.0</ele><time>2026-04-09T12:34:19.085Z</time></trkpt><trkpt lat="41.1803017" lon="14.5305767"><ele>504.0</ele><time>2026-04-09T12:34:20.085Z</time></trkpt><trkpt lat="41.1803033" lon="14.5304133"><ele>504.0</ele><time>2026-04-09T12:34:21.085Z</time></trkpt><trkpt lat="41.1802967" lon="14.530235"><ele>504.0</ele><time>2026-04-09T12:34:22.085Z</time></trkpt><trkpt lat="41.1802733" lon="14.530055"><ele>504.0</ele><time>2026-04-09T12:34:23.085Z</time></trkpt><trkpt lat="41.180255" lon="14.5298717"><ele>506.25</ele><time>2026-04-09T12:34:24.085Z</time></trkpt><trkpt lat="41.180235" lon="14.5296933"><ele>508.5</ele><time>2026-04-09T12:34:25.085Z</time></trkpt><trkpt lat="41.180215" lon="14.5295133"><ele>510.75</ele><time>2026-04-09T12:34:26.085Z</time></trkpt><trkpt lat="41.1801933" lon="14.5293467"><ele>513.0</ele><time>2026-04-09T12:34:27.085Z</time></trkpt><trkpt lat="41.180185" lon="14.5291933"><ele>514.75</ele><time>2026-04-09T12:34:28.085Z</time></trkpt><trkpt lat="41.1801733" lon="14.5290433"><ele>516.5</ele><time>2026-04-09T12:34:29.085Z</time></trkpt><trkpt lat="41.1801783" lon="14.528885"><ele>518.25</ele><time>2026-04-09T12:34:30.085Z</time></trkpt><trkpt lat="41.1801883" lon="14.528725"><ele>520.0</ele><time>2026-04-09T12:34:31.085Z</time></trkpt><trkpt lat="41.1802133" lon="14.5285617"><ele>521.25</ele><time>2026-04-09T12:34:32.085Z</time></trkpt><trkpt lat="41.18025" lon="14.5283983"><ele>522.5</ele><time>2026-04-09T12:34:33.085Z</time></trkpt><trkpt lat="41.1802983" lon="14.5282417"><ele>523.75</ele><time>2026-04-09T12:34:34.085Z</time></trkpt><trkpt lat="41.1803383" lon="14.528085"><ele>525.0</ele><time>2026-04-09T12:34:35.085Z</time></trkpt><trkpt lat="41.1803667" lon="14.5279217"><ele>525.5</ele><time>2026-04-09T12:34:36.085Z</time></trkpt><trkpt lat="41.1803883" lon="14.5277417"><ele>526.0</ele><time>2026-04-09T12:34:37.085Z</time></trkpt><trkpt lat="41.1804" lon="14.5275583"><ele>526.5</ele><time>2026-04-09T12:34:38.085Z</time></trkpt><trkpt lat="41.1804117" lon="14.5273817"><ele>527.0</ele><time>2026-04-09T12:34:39.085Z</time></trkpt><trkpt lat="41.1804183" lon="14.527225"><ele>527.0</ele><time>2026-04-09T12:34:40.085Z</time></trkpt><trkpt lat="41.1804183" lon="14.5270867"><ele>527.0</ele><time>2026-04-09T12:34:41.085Z</time></trkpt><trkpt lat="41.180405" lon="14.5269633"><ele>527.0</ele><time>2026-04-09T12:34:42.085Z</time></trkpt><trkpt lat="41.18038" lon="14.5268483"><ele>527.0</ele><time>2026-04-09T12:34:43.085Z</time></trkpt><trkpt lat="41.1803483" lon="14.52673"><ele>527.0</ele><time>2026-04-09T12:34:44.085Z</time></trkpt><trkpt lat="41.1803017" lon="14.5266217"><ele>525.4</ele><time>2026-04-09T12:34:45.085Z</time></trkpt><trkpt lat="41.1802433" lon="14.5265267"><ele>523.8000000000001</ele><time>2026-04-09T12:34:46.085Z</time></trkpt><trkpt lat="41.18018" lon="14.526445"><ele>522.2</ele><time>2026-04-09T12:34:47.085Z</time></trkpt><trkpt lat="41.1801333" lon="14.5263717"><ele>520.6</ele><time>2026-04-09T12:34:48.085Z</time></trkpt><trkpt lat="41.1800267" lon="14.5263183"><ele>519.0</ele><time>2026-04-09T12:34:50.085Z</time></trkpt><trkpt lat="41.1799467" lon="14.526405"><ele>519.0</ele><time>2026-04-09T12:34:52.085Z</time></trkpt><trkpt lat="41.17995" lon="14.5265667"><ele>519.0</ele><time>2026-04-09T12:34:54.085Z</time></trkpt><trkpt lat="41.1799817" lon="14.526655"><ele>519.0</ele><time>2026-04-09T12:34:55.085Z</time></trkpt><trkpt lat="41.180015" lon="14.5267517"><ele>519.0</ele><time>2026-04-09T12:34:56.085Z</time></trkpt><trkpt lat="41.18004" lon="14.52687"><ele>519.0</ele><time>2026-04-09T12:34:57.085Z</time></trkpt><trkpt lat="41.1800433" lon="14.526995"><ele>521.0</ele><time>2026-04-09T12:34:58.085Z</time></trkpt><trkpt lat="41.18002" lon="14.5271283"><ele>523.0</ele><time>2026-04-09T12:34:59.085Z</time></trkpt><trkpt lat="41.17998" lon="14.5272667"><ele>525.0</ele><time>2026-04-09T12:35:00.085Z</time></trkpt><trkpt lat="41.17993" lon="14.5273983"><ele>527.0</ele><time>2026-04-09T12:35:01.085Z</time></trkpt><trkpt lat="41.1798567" lon="14.527535"><ele>529.25</ele><time>2026-04-09T12:35:02.085Z</time></trkpt><trkpt lat="41.1797867" lon="14.527685"><ele>531.5</ele><time>2026-04-09T12:35:03.085Z</time></trkpt><trkpt lat="41.1797133" lon="14.5278433"><ele>533.75</ele><time>2026-04-09T12:35:04.085Z</time></trkpt><trkpt lat="41.17965" lon="14.5279967"><ele>536.0</ele><time>2026-04-09T12:35:05.085Z</time></trkpt><trkpt lat="41.17958" lon="14.5281483"><ele>536.0</ele><time>2026-04-09T12:35:06.085Z</time></trkpt><trkpt lat="41.17951" lon="14.528305"><ele>536.0</ele><time>2026-04-09T12:35:07.085Z</time></trkpt><trkpt lat="41.1794367" lon="14.528475"><ele>536.0</ele><time>2026-04-09T12:35:08.085Z</time></trkpt><trkpt lat="41.17937" lon="14.5286383"><ele>536.0</ele><time>2026-04-09T12:35:09.085Z</time></trkpt><trkpt lat="41.1793167" lon="14.5288"><ele>538.5</ele><time>2026-04-09T12:35:10.085Z</time></trkpt><trkpt lat="41.17926" lon="14.5289667"><ele>541.0</ele><time>2026-04-09T12:35:11.085Z</time></trkpt><trkpt lat="41.1792083" lon="14.5291333"><ele>543.5</ele><time>2026-04-09T12:35:12.085Z</time></trkpt><trkpt lat="41.17916" lon="14.5292917"><ele>546.0</ele><time>2026-04-09T12:35:13.085Z</time></trkpt><trkpt lat="41.17913" lon="14.52945"><ele>547.5</ele><time>2026-04-09T12:35:14.085Z</time></trkpt><trkpt lat="41.1791067" lon="14.5296167"><ele>549.0</ele><time>2026-04-09T12:35:15.085Z</time></trkpt><trkpt lat="41.1790833" lon="14.5297917"><ele>550.5</ele><time>2026-04-09T12:35:16.085Z</time></trkpt><trkpt lat="41.1790533" lon="14.5299683"><ele>552.0</ele><time>2026-04-09T12:35:17.085Z</time></trkpt><trkpt lat="41.1790133" lon="14.5301433"><ele>554.5</ele><time>2026-04-09T12:35:18.085Z</time></trkpt><trkpt lat="41.17897" lon="14.5303167"><ele>557.0</ele><time>2026-04-09T12:35:19.085Z</time></trkpt><trkpt lat="41.1789233" lon="14.5305"><ele>559.5</ele><time>2026-04-09T12:35:20.085Z</time></trkpt><trkpt lat="41.1788717" lon="14.53068"><ele>562.0</ele><time>2026-04-09T12:35:21.085Z</time></trkpt><trkpt lat="41.1788233" lon="14.5308583"><ele>566.75</ele><time>2026-04-09T12:35:22.085Z</time></trkpt><trkpt lat="41.1787783" lon="14.5310333"><ele>571.5</ele><time>2026-04-09T12:35:23.085Z</time></trkpt><trkpt lat="41.1787383" lon="14.5311933"><ele>576.25</ele><time>2026-04-09T12:35:24.085Z</time></trkpt><trkpt lat="41.17869" lon="14.5313417"><ele>581.0</ele><time>2026-04-09T12:35:25.085Z</time></trkpt><trkpt lat="41.1786433" lon="14.5314883"><ele>581.5</ele><time>2026-04-09T12:35:26.085Z</time></trkpt><trkpt lat="41.178585" lon="14.5316267"><ele>582.0</ele><time>2026-04-09T12:35:27.085Z</time></trkpt><trkpt lat="41.1785133" lon="14.531745"><ele>582.5</ele><time>2026-04-09T12:35:28.085Z</time></trkpt><trkpt lat="41.1784317" lon="14.5318567"><ele>583.0</ele><time>2026-04-09T12:35:29.085Z</time></trkpt><trkpt lat="41.1783383" lon="14.5319617"><ele>585.5</ele><time>2026-04-09T12:35:30.085Z</time></trkpt><trkpt lat="41.1782383" lon="14.5320783"><ele>588.0</ele><time>2026-04-09T12:35:31.085Z</time></trkpt><trkpt lat="41.178145" lon="14.5322033"><ele>590.5</ele><time>2026-04-09T12:35:32.085Z</time></trkpt><trkpt lat="41.1780633" lon="14.5323467"><ele>593.0</ele><time>2026-04-09T12:35:33.085Z</time></trkpt><trkpt lat="41.1779983" lon="14.5325117"><ele>593.0</ele><time>2026-04-09T12:35:34.085Z</time></trkpt><trkpt lat="41.1779417" lon="14.532685"><ele>593.0</ele><time>2026-04-09T12:35:35.085Z</time></trkpt><trkpt lat="41.1778933" lon="14.5328683"><ele>593.0</ele><time>2026-04-09T12:35:36.085Z</time></trkpt><trkpt lat="41.1778533" lon="14.533055"><ele>593.0</ele><time>2026-04-09T12:35:37.085Z</time></trkpt><trkpt lat="41.17781" lon="14.5332483"><ele>593.25</ele><time>2026-04-09T12:35:38.085Z</time></trkpt><trkpt lat="41.1777767" lon="14.5334417"><ele>593.5</ele><time>2026-04-09T12:35:39.085Z</time></trkpt><trkpt lat="41.1777583" lon="14.5336267"><ele>593.75</ele><time>2026-04-09T12:35:40.085Z</time></trkpt><trkpt lat="41.1777417" lon="14.533805"><ele>594.0</ele><time>2026-04-09T12:35:41.085Z</time></trkpt><trkpt lat="41.1777117" lon="14.5339733"><ele>594.0</ele><time>2026-04-09T12:35:42.085Z</time></trkpt><trkpt lat="41.1776733" lon="14.534145"><ele>594.0</ele><time>2026-04-09T12:35:43.085Z</time></trkpt><trkpt lat="41.1776283" lon="14.5343"><ele>594.0</ele><time>2026-04-09T12:35:44.085Z</time></trkpt><trkpt lat="41.177575" lon="14.5344417"><ele>594.0</ele><time>2026-04-09T12:35:45.085Z</time></trkpt><trkpt lat="41.1775217" lon="14.5345483"><ele>594.1666666666666</ele><time>2026-04-09T12:35:46.085Z</time></trkpt><trkpt lat="41.1774667" lon="14.53462"><ele>594.3333333333334</ele><time>2026-04-09T12:35:47.085Z</time></trkpt><trkpt lat="41.1774133" lon="14.534665"><ele>594.5</ele><time>2026-04-09T12:35:48.085Z</time></trkpt><trkpt lat="41.1773317" lon="14.534715"><ele>594.6666666666667</ele><time>2026-04-09T12:35:50.085Z</time></trkpt><trkpt lat="41.1772433" lon="14.53481"><ele>594.8333333333334</ele><time>2026-04-09T12:35:52.085Z</time></trkpt><trkpt lat="41.1772083" lon="14.5348933"><ele>595.0</ele><time>2026-04-09T12:35:53.085Z</time></trkpt><trkpt lat="41.1771933" lon="14.534995"><ele>594.1666666666667</ele><time>2026-04-09T12:35:54.085Z</time></trkpt><trkpt lat="41.1771833" lon="14.5351133"><ele>593.3333333333334</ele><time>2026-04-09T12:35:55.085Z</time></trkpt><trkpt lat="41.1771567" lon="14.5352233"><ele>592.5</ele><time>2026-04-09T12:35:56.085Z</time></trkpt><trkpt lat="41.1771217" lon="14.5353167"><ele>591.6666666666666</ele><time>2026-04-09T12:35:57.085Z</time></trkpt><trkpt lat="41.1770667" lon="14.535385"><ele>590.8333333333333</ele><time>2026-04-09T12:35:58.085Z</time></trkpt><trkpt lat="41.1770017" lon="14.5354483"><ele>590.0</ele><time>2026-04-09T12:35:59.085Z</time></trkpt><trkpt lat="41.176925" lon="14.5355217"><ele>594.0</ele><time>2026-04-09T12:36:00.085Z</time></trkpt><trkpt lat="41.1768483" lon="14.5356117"><ele>598.0</ele><time>2026-04-09T12:36:01.085Z</time></trkpt><trkpt lat="41.1767767" lon="14.5357133"><ele>602.0</ele><time>2026-04-09T12:36:02.085Z</time></trkpt><trkpt lat="41.1767167" lon="14.535815"><ele>606.0</ele><time>2026-04-09T12:36:03.085Z</time></trkpt><trkpt lat="41.17666" lon="14.5359167"><ele>610.0</ele><time>2026-04-09T12:36:04.085Z</time></trkpt><trkpt lat="41.1766083" lon="14.536015"><ele>610.0</ele><time>2026-04-09T12:36:05.085Z</time></trkpt><trkpt lat="41.1765567" lon="14.536115"><ele>610.0</ele><time>2026-04-09T12:36:06.085Z</time></trkpt><trkpt lat="41.1765133" lon="14.5362283"><ele>610.0</ele><time>2026-04-09T12:36:07.085Z</time></trkpt><trkpt lat="41.1764633" lon="14.5363533"><ele>610.0</ele><time>2026-04-09T12:36:08.085Z</time></trkpt><trkpt lat="41.1764167" lon="14.5364917"><ele>610.0</ele><time>2026-04-09T12:36:09.085Z</time></trkpt><trkpt lat="41.17639" lon="14.53663"><ele>612.0</ele><time>2026-04-09T12:36:10.085Z</time></trkpt><trkpt lat="41.17637" lon="14.5367767"><ele>614.0</ele><time>2026-04-09T12:36:11.085Z</time></trkpt><trkpt lat="41.1763367" lon="14.5369067"><ele>616.0</ele><time>2026-04-09T12:36:12.085Z</time></trkpt><trkpt lat="41.1763083" lon="14.5370483"><ele>618.0</ele><time>2026-04-09T12:36:13.085Z</time></trkpt><trkpt lat="41.17628" lon="14.537185"><ele>620.0</ele><time>2026-04-09T12:36:14.085Z</time></trkpt><trkpt lat="41.1762483" lon="14.5373183"><ele>624.2</ele><time>2026-04-09T12:36:15.085Z</time></trkpt><trkpt lat="41.176225" lon="14.5374367"><ele>628.4</ele><time>2026-04-09T12:36:16.085Z</time></trkpt><trkpt lat="41.1762033" lon="14.5375533"><ele>632.5999999999999</ele><time>2026-04-09T12:36:17.085Z</time></trkpt><trkpt lat="41.17618" lon="14.53767"><ele>636.8</ele><time>2026-04-09T12:36:18.085Z</time></trkpt><trkpt lat="41.1761517" lon="14.5377983"><ele>641.0</ele><time>2026-04-09T12:36:19.085Z</time></trkpt><trkpt lat="41.1761183" lon="14.5379367"><ele>644.0</ele><time>2026-04-09T12:36:20.085Z</time></trkpt><trkpt lat="41.1760717" lon="14.5380783"><ele>647.0</ele><time>2026-04-09T12:36:21.085Z</time></trkpt><trkpt lat="41.1760233" lon="14.5382033"><ele>650.0</ele><time>2026-04-09T12:36:22.085Z</time></trkpt><trkpt lat="41.17599" lon="14.538335"><ele>653.0</ele><time>2026-04-09T12:36:23.085Z</time></trkpt><trkpt lat="41.1759567" lon="14.5384683"><ele>656.0</ele><time>2026-04-09T12:36:24.085Z</time></trkpt><trkpt lat="41.1759283" lon="14.5386133"><ele>659.75</ele><time>2026-04-09T12:36:25.085Z</time></trkpt><trkpt lat="41.1758933" lon="14.5387567"><ele>663.5</ele><time>2026-04-09T12:36:26.085Z</time></trkpt><trkpt lat="41.1758683" lon="14.538905"><ele>667.25</ele><time>2026-04-09T12:36:27.085Z</time></trkpt><trkpt lat="41.175865" lon="14.53906"><ele>671.0</ele><time>2026-04-09T12:36:28.085Z</time></trkpt><trkpt lat="41.1758633" lon="14.5392133"><ele>671.0</ele><time>2026-04-09T12:36:29.085Z</time></trkpt><trkpt lat="41.17586" lon="14.539345"><ele>671.0</ele><time>2026-04-09T12:36:30.085Z</time></trkpt><trkpt lat="41.1758517" lon="14.539455"><ele>671.0</ele><time>2026-04-09T12:36:31.085Z</time></trkpt><trkpt lat="41.175835" lon="14.5395483"><ele>671.0</ele><time>2026-04-09T12:36:32.085Z</time></trkpt><trkpt lat="41.1758083" lon="14.5396367"><ele>671.0</ele><time>2026-04-09T12:36:33.085Z</time></trkpt><trkpt lat="41.1757817" lon="14.5397217"><ele>671.0</ele><time>2026-04-09T12:36:34.085Z</time></trkpt><trkpt lat="41.1757883" lon="14.5398483"><ele>673.1666666666666</ele><time>2026-04-09T12:36:36.085Z</time></trkpt><trkpt lat="41.17585" lon="14.539915"><ele>675.3333333333333</ele><time>2026-04-09T12:36:38.085Z</time></trkpt><trkpt lat="41.1759467" lon="14.53984"><ele>677.5</ele><time>2026-04-09T12:36:40.085Z</time></trkpt><trkpt lat="41.1759983" lon="14.53976"><ele>679.6666666666666</ele><time>2026-04-09T12:36:41.085Z</time></trkpt><trkpt lat="41.17604" lon="14.539685"><ele>681.8333333333334</ele><time>2026-04-09T12:36:42.085Z</time></trkpt><trkpt lat="41.1760867" lon="14.5396283"><ele>684.0</ele><time>2026-04-09T12:36:43.085Z</time></trkpt><trkpt lat="41.17617" lon="14.53959"><ele>684.0</ele><time>2026-04-09T12:36:45.085Z</time></trkpt><trkpt lat="41.1762117" lon="14.5396583"><ele>684.0</ele><time>2026-04-09T12:36:47.085Z</time></trkpt><trkpt lat="41.1762" lon="14.539755"><ele>684.0</ele><time>2026-04-09T12:36:48.085Z</time></trkpt><trkpt lat="41.1761833" lon="14.5398533"><ele>684.0</ele><time>2026-04-09T12:36:49.085Z</time></trkpt><trkpt lat="41.1761517" lon="14.53994"><ele>684.0</ele><time>2026-04-09T12:36:50.085Z</time></trkpt><trkpt lat="41.1761033" lon="14.5400383"><ele>684.0</ele><time>2026-04-09T12:36:51.085Z</time></trkpt><trkpt lat="41.176045" lon="14.5401633"><ele>684.0</ele><time>2026-04-09T12:36:52.085Z</time></trkpt><trkpt lat="41.1759733" lon="14.54029"><ele>684.0</ele><time>2026-04-09T12:36:53.085Z</time></trkpt><trkpt lat="41.1759" lon="14.5404183"><ele>684.0</ele><time>2026-04-09T12:36:54.085Z</time></trkpt><trkpt lat="41.1758333" lon="14.54054"><ele>684.0</ele><time>2026-04-09T12:36:55.085Z</time></trkpt><trkpt lat="41.1757717" lon="14.5406467"><ele>687.5</ele><time>2026-04-09T12:36:56.085Z</time></trkpt><trkpt lat="41.1757217" lon="14.540735"><ele>691.0</ele><time>2026-04-09T12:36:57.085Z</time></trkpt><trkpt lat="41.1756767" lon="14.540815"><ele>694.5</ele><time>2026-04-09T12:36:58.085Z</time></trkpt><trkpt lat="41.17564" lon="14.540885"><ele>698.0</ele><time>2026-04-09T12:36:59.085Z</time></trkpt><trkpt lat="41.1756133" lon="14.5410283"><ele>701.5</ele><time>2026-04-09T12:37:01.085Z</time></trkpt><trkpt lat="41.1756633" lon="14.541135"><ele>705.0</ele><time>2026-04-09T12:37:03.085Z</time></trkpt><trkpt lat="41.1757667" lon="14.5411433"><ele>705.0</ele><time>2026-04-09T12:37:05.085Z</time></trkpt><trkpt lat="41.1758367" lon="14.5410667"><ele>705.0</ele><time>2026-04-09T12:37:06.085Z</time></trkpt><trkpt lat="41.1759133" lon="14.5409717"><ele>705.0</ele><time>2026-04-09T12:37:07.085Z</time></trkpt><trkpt lat="41.1759783" lon="14.540875"><ele>705.0</ele><time>2026-04-09T12:37:08.085Z</time></trkpt><trkpt lat="41.1760383" lon="14.54079"><ele>705.0</ele><time>2026-04-09T12:37:09.085Z</time></trkpt><trkpt lat="41.1760967" lon="14.5407133"><ele>705.0</ele><time>2026-04-09T12:37:10.085Z</time></trkpt><trkpt lat="41.176145" lon="14.5406517"><ele>705.0</ele><time>2026-04-09T12:37:11.085Z</time></trkpt><trkpt lat="41.1762283" lon="14.540625"><ele>705.0</ele><time>2026-04-09T12:37:13.085Z</time></trkpt><trkpt lat="41.1762833" lon="14.54071"><ele>705.0</ele><time>2026-04-09T12:37:15.085Z</time></trkpt><trkpt lat="41.1762617" lon="14.5408667"><ele>705.0</ele><time>2026-04-09T12:37:17.085Z</time></trkpt><trkpt lat="41.1762183" lon="14.5409483"><ele>705.0</ele><time>2026-04-09T12:37:18.085Z</time></trkpt><trkpt lat="41.1761617" lon="14.5410333"><ele>705.0</ele><time>2026-04-09T12:37:19.085Z</time></trkpt><trkpt lat="41.1761033" lon="14.5411483"><ele>705.0</ele><time>2026-04-09T12:37:20.085Z</time></trkpt><trkpt lat="41.1760467" lon="14.54129"><ele>705.0</ele><time>2026-04-09T12:37:21.085Z</time></trkpt><trkpt lat="41.1760017" lon="14.5414433"><ele>705.0</ele><time>2026-04-09T12:37:22.085Z</time></trkpt><trkpt lat="41.1759617" lon="14.5416017"><ele>710.75</ele><time>2026-04-09T12:37:23.085Z</time></trkpt><trkpt lat="41.1759233" lon="14.5417683"><ele>716.5</ele><time>2026-04-09T12:37:24.085Z</time></trkpt><trkpt lat="41.1758717" lon="14.54194"><ele>722.25</ele><time>2026-04-09T12:37:25.085Z</time></trkpt><trkpt lat="41.175825" lon="14.5421017"><ele>728.0</ele><time>2026-04-09T12:37:26.085Z</time></trkpt><trkpt lat="41.1757783" lon="14.5422567"><ele>731.8</ele><time>2026-04-09T12:37:27.085Z</time></trkpt><trkpt lat="41.1757267" lon="14.5423983"><ele>735.5999999999999</ele><time>2026-04-09T12:37:28.085Z</time></trkpt><trkpt lat="41.1756717" lon="14.5425333"><ele>739.4000000000001</ele><time>2026-04-09T12:37:29.085Z</time></trkpt><trkpt lat="41.1756233" lon="14.542665"><ele>743.2</ele><time>2026-04-09T12:37:30.085Z</time></trkpt><trkpt lat="41.175575" lon="14.542785"><ele>747.0</ele><time>2026-04-09T12:37:31.085Z</time></trkpt><trkpt lat="41.1755483" lon="14.5428983"><ele>749.0</ele><time>2026-04-09T12:37:32.085Z</time></trkpt><trkpt lat="41.1755267" lon="14.54299"><ele>751.0</ele><time>2026-04-09T12:37:33.085Z</time></trkpt><trkpt lat="41.1755033" lon="14.5430683"><ele>753.0</ele><time>2026-04-09T12:37:34.085Z</time></trkpt><trkpt lat="41.1754783" lon="14.5431967"><ele>755.0</ele><time>2026-04-09T12:37:36.085Z</time></trkpt><trkpt lat="41.1754567" lon="14.5433233"><ele>757.0</ele><time>2026-04-09T12:37:38.085Z</time></trkpt><trkpt lat="41.17541" lon="14.54346"><ele>759.0</ele><time>2026-04-09T12:37:40.085Z</time></trkpt><trkpt lat="41.1753417" lon="14.543595"><ele>759.0</ele><time>2026-04-09T12:37:42.085Z</time></trkpt><trkpt lat="41.1752467" lon="14.5437067"><ele>759.0</ele><time>2026-04-09T12:37:44.085Z</time></trkpt><trkpt lat="41.1752" lon="14.5437667"><ele>759.0</ele><time>2026-04-09T12:37:45.085Z</time></trkpt><trkpt lat="41.175105" lon="14.5438533"><ele>759.0</ele><time>2026-04-09T12:37:47.085Z</time></trkpt><trkpt lat="41.1750117" lon="14.5438917"><ele>759.0</ele><time>2026-04-09T12:37:49.085Z</time></trkpt><trkpt lat="41.1749533" lon="14.543825"><ele>759.0</ele><time>2026-04-09T12:37:51.085Z</time></trkpt><trkpt lat="41.174975" lon="14.5436833"><ele>759.0</ele><time>2026-04-09T12:37:53.085Z</time></trkpt><trkpt lat="41.1750033" lon="14.5436083"><ele>759.0</ele><time>2026-04-09T12:37:54.085Z</time></trkpt><trkpt lat="41.1750283" lon="14.543525"><ele>759.0</ele><time>2026-04-09T12:37:55.085Z</time></trkpt><trkpt lat="41.1750467" lon="14.54343"><ele>759.0</ele><time>2026-04-09T12:37:56.085Z</time></trkpt><trkpt lat="41.1750533" lon="14.5433183"><ele>759.0</ele><time>2026-04-09T12:37:57.085Z</time></trkpt><trkpt lat="41.1750517" lon="14.5432117"><ele>759.0</ele><time>2026-04-09T12:37:58.085Z</time></trkpt><trkpt lat="41.1750483" lon="14.543115"><ele>759.0</ele><time>2026-04-09T12:37:59.085Z</time></trkpt><trkpt lat="41.1750517" lon="14.54303"><ele>759.0</ele><time>2026-04-09T12:38:00.085Z</time></trkpt><trkpt lat="41.17504" lon="14.5429"><ele>759.0</ele><time>2026-04-09T12:38:02.085Z</time></trkpt><trkpt lat="41.1749717" lon="14.54285"><ele>759.0</ele><time>2026-04-09T12:38:04.085Z</time></trkpt><trkpt lat="41.1748967" lon="14.5429533"><ele>759.0</ele><time>2026-04-09T12:38:06.085Z</time></trkpt><trkpt lat="41.1748767" lon="14.5430467"><ele>759.0</ele><time>2026-04-09T12:38:07.085Z</time></trkpt><trkpt lat="41.1748633" lon="14.5431633"><ele>759.0</ele><time>2026-04-09T12:38:08.085Z</time></trkpt><trkpt lat="41.174855" lon="14.5432933"><ele>759.0</ele><time>2026-04-09T12:38:09.085Z</time></trkpt><trkpt lat="41.1748367" lon="14.5434"><ele>759.0</ele><time>2026-04-09T12:38:10.085Z</time></trkpt><trkpt lat="41.174815" lon="14.5434833"><ele>759.0</ele><time>2026-04-09T12:38:11.085Z</time></trkpt><trkpt lat="41.1747433" lon="14.5435683"><ele>759.0</ele><time>2026-04-09T12:38:13.085Z</time></trkpt><trkpt lat="41.1746633" lon="14.54352"><ele>766.4000000000001</ele><time>2026-04-09T12:38:15.085Z</time></trkpt><trkpt lat="41.1746317" lon="14.5433617"><ele>773.8</ele><time>2026-04-09T12:38:17.085Z</time></trkpt><trkpt lat="41.17464" lon="14.54326"><ele>781.2</ele><time>2026-04-09T12:38:18.085Z</time></trkpt><trkpt lat="41.17465" lon="14.5431483"><ele>788.5999999999999</ele><time>2026-04-09T12:38:19.085Z</time></trkpt><trkpt lat="41.17464" lon="14.543005"><ele>796.0</ele><time>2026-04-09T12:38:20.085Z</time></trkpt><trkpt lat="41.1746" lon="14.5428483"><ele>796.1999999999999</ele><time>2026-04-09T12:38:21.085Z</time></trkpt><trkpt lat="41.1745583" lon="14.54271"><ele>796.4</ele><time>2026-04-09T12:38:22.085Z</time></trkpt><trkpt lat="41.1745183" lon="14.5425883"><ele>796.6</ele><time>2026-04-09T12:38:23.085Z</time></trkpt><trkpt lat="41.1744917" lon="14.542485"><ele>796.8</ele><time>2026-04-09T12:38:24.085Z</time></trkpt><trkpt lat="41.1744667" lon="14.542405"><ele>797.0</ele><time>2026-04-09T12:38:25.085Z</time></trkpt><trkpt lat="41.1744433" lon="14.5422767"><ele>797.0000000000001</ele><time>2026-04-09T12:38:27.085Z</time></trkpt><trkpt lat="41.17439" lon="14.5422033"><ele>797.0</ele><time>2026-04-09T12:38:29.085Z</time></trkpt><trkpt lat="41.1743267" lon="14.542245"><ele>797.0</ele><time>2026-04-09T12:38:31.085Z</time></trkpt><trkpt lat="41.1743067" lon="14.54233"><ele>797.0</ele><time>2026-04-09T12:38:32.085Z</time></trkpt><trkpt lat="41.1743" lon="14.5424267"><ele>797.0000000000001</ele><time>2026-04-09T12:38:33.085Z</time></trkpt><trkpt lat="41.1743067" lon="14.5425317"><ele>797.0</ele><time>2026-04-09T12:38:34.085Z</time></trkpt><trkpt lat="41.1743183" lon="14.5426517"><ele>797.0</ele><time>2026-04-09T12:38:35.085Z</time></trkpt><trkpt lat="41.1743133" lon="14.5427617"><ele>797.0</ele><time>2026-04-09T12:38:36.085Z</time></trkpt><trkpt lat="41.174305" lon="14.54287"><ele>797.0</ele><time>2026-04-09T12:38:37.085Z</time></trkpt><trkpt lat="41.1742883" lon="14.5429833"><ele>797.0</ele><time>2026-04-09T12:38:38.085Z</time></trkpt><trkpt lat="41.1742533" lon="14.543105"><ele>797.0</ele><time>2026-04-09T12:38:39.085Z</time></trkpt><trkpt lat="41.17421" lon="14.5432333"><ele>796.75</ele><time>2026-04-09T12:38:40.085Z</time></trkpt><trkpt lat="41.174155" lon="14.5433567"><ele>796.5</ele><time>2026-04-09T12:38:41.085Z</time></trkpt><trkpt lat="41.1740833" lon="14.5434767"><ele>796.25</ele><time>2026-04-09T12:38:42.085Z</time></trkpt><trkpt lat="41.1740017" lon="14.543595"><ele>796.0</ele><time>2026-04-09T12:38:43.085Z</time></trkpt><trkpt lat="41.1739233" lon="14.54369"><ele>801.5999999999999</ele><time>2026-04-09T12:38:44.085Z</time></trkpt><trkpt lat="41.1738417" lon="14.543775"><ele>807.2</ele><time>2026-04-09T12:38:45.085Z</time></trkpt><trkpt lat="41.1737683" lon="14.54386"><ele>812.8</ele><time>2026-04-09T12:38:46.085Z</time></trkpt><trkpt lat="41.1737067" lon="14.5439417"><ele>818.4000000000001</ele><time>2026-04-09T12:38:47.085Z</time></trkpt><trkpt lat="41.1736583" lon="14.5440183"><ele>824.0</ele><time>2026-04-09T12:38:48.085Z</time></trkpt><trkpt lat="41.1735917" lon="14.544145"><ele>824.0000000000001</ele><time>2026-04-09T12:38:50.085Z</time></trkpt><trkpt lat="41.17351" lon="14.5442267"><ele>824.0</ele><time>2026-04-09T12:38:52.085Z</time></trkpt><trkpt lat="41.1734283" lon="14.544205"><ele>824.0</ele><time>2026-04-09T12:38:54.085Z</time></trkpt><trkpt lat="41.17342" lon="14.5440817"><ele>824.0</ele><time>2026-04-09T12:38:56.085Z</time></trkpt><trkpt lat="41.1734517" lon="14.5440083"><ele>824.0000000000001</ele><time>2026-04-09T12:38:57.085Z</time></trkpt><trkpt lat="41.1734983" lon="14.5439283"><ele>824.0</ele><time>2026-04-09T12:38:58.085Z</time></trkpt><trkpt lat="41.1735483" lon="14.5438383"><ele>824.0000000000001</ele><time>2026-04-09T12:38:59.085Z</time></trkpt><trkpt lat="41.1735867" lon="14.5437267"><ele>824.0</ele><time>2026-04-09T12:39:00.085Z</time></trkpt><trkpt lat="41.1736117" lon="14.543615"><ele>824.0</ele><time>2026-04-09T12:39:01.085Z</time></trkpt><trkpt lat="41.173635" lon="14.5434983"><ele>824.0</ele><time>2026-04-09T12:39:02.085Z</time></trkpt><trkpt lat="41.1736533" lon="14.543385"><ele>824.0000000000001</ele><time>2026-04-09T12:39:03.085Z</time></trkpt><trkpt lat="41.1736683" lon="14.5432767"><ele>824.0</ele><time>2026-04-09T12:39:04.085Z</time></trkpt><trkpt lat="41.1736667" lon="14.5431633"><ele>826.5000000000001</ele><time>2026-04-09T12:39:05.085Z</time></trkpt><trkpt lat="41.1736533" lon="14.5430567"><ele>829.0</ele><time>2026-04-09T12:39:06.085Z</time></trkpt><trkpt lat="41.1736317" lon="14.5429517"><ele>831.5</ele><time>2026-04-09T12:39:07.085Z</time></trkpt><trkpt lat="41.173615" lon="14.5428417"><ele>834.0</ele><time>2026-04-09T12:39:08.085Z</time></trkpt><trkpt lat="41.1735883" lon="14.5427283"><ele>836.5000000000001</ele><time>2026-04-09T12:39:09.085Z</time></trkpt><trkpt lat="41.173565" lon="14.54261"><ele>839.0</ele><time>2026-04-09T12:39:10.085Z</time></trkpt><trkpt lat="41.1735333" lon="14.5425017"><ele>839.6</ele><time>2026-04-09T12:39:11.085Z</time></trkpt><trkpt lat="41.1734967" lon="14.5424017"><ele>840.2</ele><time>2026-04-09T12:39:12.085Z</time></trkpt><trkpt lat="41.1734517" lon="14.5423067"><ele>840.8000000000001</ele><time>2026-04-09T12:39:13.085Z</time></trkpt><trkpt lat="41.1733967" lon="14.5422017"><ele>841.4000000000001</ele><time>2026-04-09T12:39:14.085Z</time></trkpt><trkpt lat="41.173325" lon="14.5420983"><ele>842.0</ele><time>2026-04-09T12:39:15.085Z</time></trkpt><trkpt lat="41.1732567" lon="14.542005"><ele>849.0</ele><time>2026-04-09T12:39:16.085Z</time></trkpt><trkpt lat="41.1731867" lon="14.5419167"><ele>856.0</ele><time>2026-04-09T12:39:17.085Z</time></trkpt><trkpt lat="41.173115" lon="14.5418067"><ele>863.0</ele><time>2026-04-09T12:39:18.085Z</time></trkpt><trkpt lat="41.1730367" lon="14.5416917"><ele>870.0</ele><time>2026-04-09T12:39:19.085Z</time></trkpt><trkpt lat="41.1729633" lon="14.541575"><ele>877.0</ele><time>2026-04-09T12:39:20.085Z</time></trkpt><trkpt lat="41.1728933" lon="14.5414533"><ele>877.0</ele><time>2026-04-09T12:39:21.085Z</time></trkpt><trkpt lat="41.1728283" lon="14.5413367"><ele>877.0</ele><time>2026-04-09T12:39:22.085Z</time></trkpt><trkpt lat="41.1727633" lon="14.5412317"><ele>877.0</ele><time>2026-04-09T12:39:23.085Z</time></trkpt><trkpt lat="41.1727033" lon="14.541135"><ele>877.0</ele><time>2026-04-09T12:39:24.085Z</time></trkpt><trkpt lat="41.1726433" lon="14.54104"><ele>877.0</ele><time>2026-04-09T12:39:25.085Z</time></trkpt><trkpt lat="41.1725867" lon="14.5409517"><ele>879.25</ele><time>2026-04-09T12:39:26.085Z</time></trkpt><trkpt lat="41.1725033" lon="14.5408433"><ele>881.5</ele><time>2026-04-09T12:39:28.085Z</time></trkpt><trkpt lat="41.172395" lon="14.540795"><ele>883.75</ele><time>2026-04-09T12:39:30.085Z</time></trkpt><trkpt lat="41.1722517" lon="14.5407917"><ele>886.0</ele><time>2026-04-09T12:39:32.085Z</time></trkpt><trkpt lat="41.1721733" lon="14.54081"><ele>885.9999999999999</ele><time>2026-04-09T12:39:33.085Z</time></trkpt><trkpt lat="41.1720983" lon="14.5408233"><ele>886.0</ele><time>2026-04-09T12:39:34.085Z</time></trkpt><trkpt lat="41.1720167" lon="14.5408283"><ele>886.0</ele><time>2026-04-09T12:39:35.085Z</time></trkpt><trkpt lat="41.1719383" lon="14.5408283"><ele>886.0</ele><time>2026-04-09T12:39:36.085Z</time></trkpt><trkpt lat="41.171855" lon="14.540815"><ele>885.9999999999999</ele><time>2026-04-09T12:39:37.085Z</time></trkpt><trkpt lat="41.1717717" lon="14.5407983"><ele>886.0</ele><time>2026-04-09T12:39:38.085Z</time></trkpt><trkpt lat="41.1716917" lon="14.540785"><ele>886.0</ele><time>2026-04-09T12:39:39.085Z</time></trkpt><trkpt lat="41.1716183" lon="14.5407667"><ele>886.0</ele><time>2026-04-09T12:39:40.085Z</time></trkpt><trkpt lat="41.17155" lon="14.5407567"><ele>886.0</ele><time>2026-04-09T12:39:41.085Z</time></trkpt><trkpt lat="41.1714833" lon="14.5407567"><ele>886.0</ele><time>2026-04-09T12:39:42.085Z</time></trkpt><trkpt lat="41.1714167" lon="14.5407517"><ele>886.0</ele><time>2026-04-09T12:39:43.085Z</time></trkpt><trkpt lat="41.17135" lon="14.540745"><ele>886.0</ele><time>2026-04-09T12:39:44.085Z</time></trkpt><trkpt lat="41.1712483" lon="14.5407217"><ele>886.0</ele><time>2026-04-09T12:39:46.085Z</time></trkpt><trkpt lat="41.1711683" lon="14.5407517"><ele>888.1666666666666</ele><time>2026-04-09T12:39:48.085Z</time></trkpt><trkpt lat="41.1711317" lon="14.5408483"><ele>890.3333333333333</ele><time>2026-04-09T12:39:50.085Z</time></trkpt><trkpt lat="41.171165" lon="14.540955"><ele>892.5</ele><time>2026-04-09T12:39:52.085Z</time></trkpt><trkpt lat="41.1712133" lon="14.5410583"><ele>894.6666666666667</ele><time>2026-04-09T12:39:54.085Z</time></trkpt><trkpt lat="41.1712583" lon="14.541165"><ele>896.8333333333334</ele><time>2026-04-09T12:39:56.085Z</time></trkpt><trkpt lat="41.1712983" lon="14.5412633"><ele>899.0</ele><time>2026-04-09T12:39:58.085Z</time></trkpt><trkpt lat="41.171345" lon="14.5413517"><ele>903.0</ele><time>2026-04-09T12:40:00.085Z</time></trkpt><trkpt lat="41.1713517" lon="14.5414383"><ele>907.0000000000001</ele><time>2026-04-09T12:40:02.085Z</time></trkpt><trkpt lat="41.1712883" lon="14.5414767"><ele>911.0000000000001</ele><time>2026-04-09T12:40:04.085Z</time></trkpt><trkpt lat="41.17118" lon="14.5414567"><ele>915.0</ele><time>2026-04-09T12:40:06.085Z</time></trkpt><trkpt lat="41.1710667" lon="14.541445"><ele>919.0</ele><time>2026-04-09T12:40:08.085Z</time></trkpt><trkpt lat="41.1709517" lon="14.541465"><ele>919.0</ele><time>2026-04-09T12:40:10.085Z</time></trkpt><trkpt lat="41.17086" lon="14.541495"><ele>919.0000000000001</ele><time>2026-04-09T12:40:12.085Z</time></trkpt><trkpt lat="41.17078" lon="14.54153"><ele>919.0000000000001</ele><time>2026-04-09T12:40:15.085Z</time></trkpt><trkpt lat="41.1707167" lon="14.541585"><ele>919.0</ele><time>2026-04-09T12:40:17.085Z</time></trkpt><trkpt lat="41.1706133" lon="14.5416867"><ele>919.0</ele><time>2026-04-09T12:40:19.085Z</time></trkpt><trkpt lat="41.1705583" lon="14.5417483"><ele>921.8333333333333</ele><time>2026-04-09T12:40:20.085Z</time></trkpt><trkpt lat="41.170495" lon="14.5418083"><ele>924.6666666666666</ele><time>2026-04-09T12:40:21.085Z</time></trkpt><trkpt lat="41.17044" lon="14.5418583"><ele>927.5</ele><time>2026-04-09T12:40:22.085Z</time></trkpt><trkpt lat="41.1703817" lon="14.5418933"><ele>930.3333333333333</ele><time>2026-04-09T12:40:23.085Z</time></trkpt><trkpt lat="41.1703183" lon="14.541915"><ele>933.1666666666666</ele><time>2026-04-09T12:40:24.085Z</time></trkpt><trkpt lat="41.1701883" lon="14.5418917"><ele>936.0</ele><time>2026-04-09T12:40:26.085Z</time></trkpt><trkpt lat="41.1701117" lon="14.5418217"><ele>936.0</ele><time>2026-04-09T12:40:27.085Z</time></trkpt><trkpt lat="41.1700417" lon="14.5417417"><ele>936.0</ele><time>2026-04-09T12:40:28.085Z</time></trkpt><trkpt lat="41.16997" lon="14.5416583"><ele>936.0</ele><time>2026-04-09T12:40:29.085Z</time></trkpt><trkpt lat="41.1699133" lon="14.5416167"><ele>936.0</ele><time>2026-04-09T12:40:30.085Z</time></trkpt><trkpt lat="41.169835" lon="14.54158"><ele>936.0</ele><time>2026-04-09T12:40:32.085Z</time></trkpt><trkpt lat="41.1697533" lon="14.5415867"><ele>936.0</ele><time>2026-04-09T12:40:34.085Z</time></trkpt><trkpt lat="41.1696783" lon="14.5415983"><ele>940.1666666666666</ele><time>2026-04-09T12:40:36.085Z</time></trkpt><trkpt lat="41.1696017" lon="14.5415967"><ele>944.3333333333333</ele><time>2026-04-09T12:40:38.085Z</time></trkpt><trkpt lat="41.169545" lon="14.5415583"><ele>948.5</ele><time>2026-04-09T12:40:40.085Z</time></trkpt><trkpt lat="41.1694933" lon="14.541485"><ele>952.6666666666666</ele><time>2026-04-09T12:40:42.085Z</time></trkpt><trkpt lat="41.1694033" lon="14.541405"><ele>956.8333333333333</ele><time>2026-04-09T12:40:44.085Z</time></trkpt><trkpt lat="41.1693217" lon="14.5413617"><ele>961.0</ele><time>2026-04-09T12:40:46.085Z</time></trkpt><trkpt lat="41.1692117" lon="14.5412517"><ele>961.1999999999999</ele><time>2026-04-09T12:45:24.085Z</time></trkpt><trkpt lat="41.1691533" lon="14.5411983"><ele>961.3999999999999</ele><time>2026-04-09T12:45:26.085Z</time></trkpt><trkpt lat="41.1690717" lon="14.541125"><ele>961.6</ele><time>2026-04-09T12:45:28.085Z</time></trkpt><trkpt lat="41.16898" lon="14.54105"><ele>961.8</ele><time>2026-04-09T12:45:30.085Z</time></trkpt><trkpt lat="41.168895" lon="14.5409367"><ele>962.0</ele><time>2026-04-09T12:45:32.085Z</time></trkpt><trkpt lat="41.1688333" lon="14.5408483"><ele>962.0000000000001</ele><time>2026-04-09T12:45:34.085Z</time></trkpt><trkpt lat="41.1687533" lon="14.540785"><ele>962.0</ele><time>2026-04-09T12:45:36.085Z</time></trkpt><trkpt lat="41.16867" lon="14.5407133"><ele>962.0</ele><time>2026-04-09T12:45:38.085Z</time></trkpt><trkpt lat="41.1685883" lon="14.5406617"><ele>962.0</ele><time>2026-04-09T12:45:40.085Z</time></trkpt><trkpt lat="41.16852" lon="14.5406133"><ele>962.0000000000001</ele><time>2026-04-09T12:45:42.085Z</time></trkpt><trkpt lat="41.1685917" lon="14.5406"><ele>962.0</ele><time>2026-04-09T12:46:00.085Z</time></trkpt><trkpt lat="41.16867" lon="14.54068"><ele>962.0</ele><time>2026-04-09T12:46:02.085Z</time></trkpt><trkpt lat="41.1687633" lon="14.5407733"><ele>962.0</ele><time>2026-04-09T12:46:04.085Z</time></trkpt><trkpt lat="41.1688183" lon="14.5408217"><ele>962.0</ele><time>2026-04-09T12:46:05.085Z</time></trkpt><trkpt lat="41.1688717" lon="14.54087"><ele>962.0</ele><time>2026-04-09T12:46:06.085Z</time></trkpt><trkpt lat="41.1689683" lon="14.54096"><ele>962.0</ele><time>2026-04-09T12:46:08.085Z</time></trkpt><trkpt lat="41.16905" lon="14.5410317"><ele>961.8333333333334</ele><time>2026-04-09T12:46:10.085Z</time></trkpt><trkpt lat="41.1691083" lon="14.541095"><ele>961.6666666666667</ele><time>2026-04-09T12:46:12.085Z</time></trkpt><trkpt lat="41.1691683" lon="14.54114"><ele>961.5</ele><time>2026-04-09T12:46:14.085Z</time></trkpt><trkpt lat="41.1692333" lon="14.5412383"><ele>961.3333333333333</ele><time>2026-04-09T12:46:54.085Z</time></trkpt><trkpt lat="41.1693133" lon="14.5412867"><ele>961.1666666666666</ele><time>2026-04-09T12:46:56.085Z</time></trkpt><trkpt lat="41.1693767" lon="14.5413417"><ele>961.0</ele><time>2026-04-09T12:46:58.085Z</time></trkpt><trkpt lat="41.1694383" lon="14.541425"><ele>961.0</ele><time>2026-04-09T12:47:01.085Z</time></trkpt><trkpt lat="41.1695233" lon="14.5414817"><ele>960.9999999999999</ele><time>2026-04-09T12:47:04.085Z</time></trkpt><trkpt lat="41.1696033" lon="14.54149"><ele>960.9999999999999</ele><time>2026-04-09T12:47:07.085Z</time></trkpt><trkpt lat="41.1696933" lon="14.5414583"><ele>961.0</ele><time>2026-04-09T12:47:09.085Z</time></trkpt><trkpt lat="41.1698083" lon="14.541425"><ele>961.0</ele><time>2026-04-09T12:47:11.085Z</time></trkpt><trkpt lat="41.16993" lon="14.5414633"><ele>956.0</ele><time>2026-04-09T12:47:13.085Z</time></trkpt><trkpt lat="41.1700383" lon="14.54154"><ele>950.9999999999999</ele><time>2026-04-09T12:47:15.085Z</time></trkpt><trkpt lat="41.1701183" lon="14.5416417"><ele>945.9999999999999</ele><time>2026-04-09T12:47:17.085Z</time></trkpt><trkpt lat="41.1701983" lon="14.5417317"><ele>941.0</ele><time>2026-04-09T12:47:19.085Z</time></trkpt><trkpt lat="41.1702867" lon="14.5417667"><ele>936.0</ele><time>2026-04-09T12:47:21.085Z</time></trkpt><trkpt lat="41.1703833" lon="14.5417467"><ele>936.0</ele><time>2026-04-09T12:47:23.085Z</time></trkpt><trkpt lat="41.1704833" lon="14.541675"><ele>935.9999999999999</ele><time>2026-04-09T12:47:25.085Z</time></trkpt><trkpt lat="41.170555" lon="14.54157"><ele>935.9999999999999</ele><time>2026-04-09T12:47:27.085Z</time></trkpt><trkpt lat="41.17063" lon="14.5414967"><ele>936.0</ele><time>2026-04-09T12:47:29.085Z</time></trkpt><trkpt lat="41.1706833" lon="14.5414483"><ele>936.0</ele><time>2026-04-09T12:47:31.085Z</time></trkpt><trkpt lat="41.1707517" lon="14.5414083"><ele>932.5999999999999</ele><time>2026-04-09T12:47:33.085Z</time></trkpt><trkpt lat="41.1708517" lon="14.5413867"><ele>929.1999999999999</ele><time>2026-04-09T12:47:35.085Z</time></trkpt><trkpt lat="41.1709717" lon="14.5413667"><ele>925.8000000000001</ele><time>2026-04-09T12:47:37.085Z</time></trkpt><trkpt lat="41.171075" lon="14.5413633"><ele>922.4000000000001</ele><time>2026-04-09T12:47:39.085Z</time></trkpt><trkpt lat="41.1711683" lon="14.541395"><ele>919.0</ele><time>2026-04-09T12:47:41.085Z</time></trkpt><trkpt lat="41.1712367" lon="14.5414167"><ele>918.9999999999999</ele><time>2026-04-09T12:47:43.085Z</time></trkpt><trkpt lat="41.1712967" lon="14.5413817"><ele>919.0</ele><time>2026-04-09T12:47:45.085Z</time></trkpt><trkpt lat="41.1713167" lon="14.54128"><ele>919.0</ele><time>2026-04-09T12:47:49.085Z</time></trkpt><trkpt lat="41.17127" lon="14.5412183"><ele>919.0</ele><time>2026-04-09T12:47:51.085Z</time></trkpt><trkpt lat="41.1712217" lon="14.5411283"><ele>918.9999999999999</ele><time>2026-04-09T12:47:54.085Z</time></trkpt><trkpt lat="41.1711783" lon="14.5410183"><ele>919.0</ele><time>2026-04-09T12:47:57.085Z</time></trkpt><trkpt lat="41.1711417" lon="14.5409367"><ele>915.6666666666666</ele><time>2026-04-09T12:47:59.085Z</time></trkpt><trkpt lat="41.1711233" lon="14.5408467"><ele>912.3333333333333</ele><time>2026-04-09T12:48:01.085Z</time></trkpt><trkpt lat="41.1711717" lon="14.5407833"><ele>909.0</ele><time>2026-04-09T12:48:03.085Z</time></trkpt><trkpt lat="41.1712783" lon="14.54074"><ele>905.6666666666667</ele><time>2026-04-09T12:48:05.085Z</time></trkpt><trkpt lat="41.1713433" lon="14.5407367"><ele>902.3333333333334</ele><time>2026-04-09T12:48:06.085Z</time></trkpt><trkpt lat="41.171415" lon="14.5407267"><ele>899.0</ele><time>2026-04-09T12:48:07.085Z</time></trkpt><trkpt lat="41.1714833" lon="14.5407183"><ele>896.8333333333334</ele><time>2026-04-09T12:48:08.085Z</time></trkpt><trkpt lat="41.17156" lon="14.5407167"><ele>894.6666666666667</ele><time>2026-04-09T12:48:09.085Z</time></trkpt><trkpt lat="41.1716433" lon="14.54073"><ele>892.5</ele><time>2026-04-09T12:48:10.085Z</time></trkpt><trkpt lat="41.1717383" lon="14.54076"><ele>890.3333333333333</ele><time>2026-04-09T12:48:11.085Z</time></trkpt><trkpt lat="41.1718283" lon="14.5407817"><ele>888.1666666666666</ele><time>2026-04-09T12:48:12.085Z</time></trkpt><trkpt lat="41.17192" lon="14.5407983"><ele>886.0</ele><time>2026-04-09T12:48:13.085Z</time></trkpt><trkpt lat="41.1720067" lon="14.5407983"><ele>886.0</ele><time>2026-04-09T12:48:14.085Z</time></trkpt><trkpt lat="41.1720933" lon="14.540795"><ele>886.0</ele><time>2026-04-09T12:48:15.085Z</time></trkpt><trkpt lat="41.1721683" lon="14.5407883"><ele>886.0</ele><time>2026-04-09T12:48:16.085Z</time></trkpt><trkpt lat="41.1722367" lon="14.540775"><ele>886.0</ele><time>2026-04-09T12:48:17.085Z</time></trkpt><trkpt lat="41.1723017" lon="14.5407633"><ele>886.0</ele><time>2026-04-09T12:48:18.085Z</time></trkpt><trkpt lat="41.1723667" lon="14.5407683"><ele>886.0</ele><time>2026-04-09T12:48:19.085Z</time></trkpt><trkpt lat="41.1724317" lon="14.5407917"><ele>886.0</ele><time>2026-04-09T12:48:20.085Z</time></trkpt><trkpt lat="41.1725" lon="14.5408283"><ele>884.1999999999999</ele><time>2026-04-09T12:48:21.085Z</time></trkpt><trkpt lat="41.1725783" lon="14.5408833"><ele>882.3999999999999</ele><time>2026-04-09T12:48:22.085Z</time></trkpt><trkpt lat="41.1726433" lon="14.5409667"><ele>880.6</ele><time>2026-04-09T12:48:23.085Z</time></trkpt><trkpt lat="41.1727017" lon="14.5410733"><ele>878.8</ele><time>2026-04-09T12:48:24.085Z</time></trkpt><trkpt lat="41.17276" lon="14.5411917"><ele>877.0</ele><time>2026-04-09T12:48:25.085Z</time></trkpt><trkpt lat="41.17283" lon="14.5413033"><ele>877.0</ele><time>2026-04-09T12:48:26.085Z</time></trkpt><trkpt lat="41.1729017" lon="14.54142"><ele>877.0</ele><time>2026-04-09T12:48:27.085Z</time></trkpt><trkpt lat="41.1729817" lon="14.54154"><ele>877.0</ele><time>2026-04-09T12:48:28.085Z</time></trkpt><trkpt lat="41.1730517" lon="14.5416533"><ele>877.0</ele><time>2026-04-09T12:48:29.085Z</time></trkpt><trkpt lat="41.1731217" lon="14.54176"><ele>870.0</ele><time>2026-04-09T12:48:30.085Z</time></trkpt><trkpt lat="41.1731967" lon="14.541875"><ele>863.0</ele><time>2026-04-09T12:48:31.085Z</time></trkpt><trkpt lat="41.173275" lon="14.541985"><ele>856.0</ele><time>2026-04-09T12:48:32.085Z</time></trkpt><trkpt lat="41.17335" lon="14.5420917"><ele>849.0</ele><time>2026-04-09T12:48:33.085Z</time></trkpt><trkpt lat="41.1734167" lon="14.5421983"><ele>842.0</ele><time>2026-04-09T12:48:34.085Z</time></trkpt><trkpt lat="41.173475" lon="14.5423067"><ele>842.0</ele><time>2026-04-09T12:48:35.085Z</time></trkpt><trkpt lat="41.173525" lon="14.542415"><ele>842.0</ele><time>2026-04-09T12:48:36.085Z</time></trkpt><trkpt lat="41.1735617" lon="14.5425267"><ele>842.0</ele><time>2026-04-09T12:48:37.085Z</time></trkpt><trkpt lat="41.1735883" lon="14.5426483"><ele>842.0</ele><time>2026-04-09T12:48:38.085Z</time></trkpt><trkpt lat="41.1736167" lon="14.542775"><ele>842.0</ele><time>2026-04-09T12:48:39.085Z</time></trkpt><trkpt lat="41.1736367" lon="14.5429117"><ele>841.4000000000001</ele><time>2026-04-09T12:48:40.085Z</time></trkpt><trkpt lat="41.173655" lon="14.5430467"><ele>840.8000000000001</ele><time>2026-04-09T12:48:41.085Z</time></trkpt><trkpt lat="41.17366" lon="14.5431783"><ele>840.2</ele><time>2026-04-09T12:48:42.085Z</time></trkpt><trkpt lat="41.1736533" lon="14.54331"><ele>839.6</ele><time>2026-04-09T12:48:43.085Z</time></trkpt><trkpt lat="41.1736383" lon="14.5434283"><ele>839.0</ele><time>2026-04-09T12:48:44.085Z</time></trkpt><trkpt lat="41.1736183" lon="14.543535"><ele>839.0000000000001</ele><time>2026-04-09T12:48:45.085Z</time></trkpt><trkpt lat="41.17359" lon="14.5436417"><ele>839.0</ele><time>2026-04-09T12:48:46.085Z</time></trkpt><trkpt lat="41.1735633" lon="14.543745"><ele>839.0</ele><time>2026-04-09T12:48:47.085Z</time></trkpt><trkpt lat="41.1735283" lon="14.54384"><ele>839.0</ele><time>2026-04-09T12:48:48.085Z</time></trkpt><trkpt lat="41.1734867" lon="14.5439283"><ele>839.0000000000001</ele><time>2026-04-09T12:48:49.085Z</time></trkpt><trkpt lat="41.1734433" lon="14.5439983"><ele>839.0</ele><time>2026-04-09T12:48:50.085Z</time></trkpt><trkpt lat="41.1733867" lon="14.54413"><ele>836.5000000000001</ele><time>2026-04-09T12:48:52.085Z</time></trkpt><trkpt lat="41.17341" lon="14.54423"><ele>834.0</ele><time>2026-04-09T12:48:54.085Z</time></trkpt><trkpt lat="41.1734967" lon="14.54424"><ele>831.5</ele><time>2026-04-09T12:48:56.085Z</time></trkpt><trkpt lat="41.1735517" lon="14.5441867"><ele>829.0</ele><time>2026-04-09T12:48:57.085Z</time></trkpt><trkpt lat="41.1735983" lon="14.5441133"><ele>826.5000000000001</ele><time>2026-04-09T12:48:58.085Z</time></trkpt><trkpt lat="41.1736483" lon="14.54404"><ele>824.0</ele><time>2026-04-09T12:48:59.085Z</time></trkpt><trkpt lat="41.1736983" lon="14.5439567"><ele>824.0000000000001</ele><time>2026-04-09T12:49:00.085Z</time></trkpt><trkpt lat="41.17375" lon="14.543875"><ele>824.0</ele><time>2026-04-09T12:49:01.085Z</time></trkpt><trkpt lat="41.173815" lon="14.5437967"><ele>824.0</ele><time>2026-04-09T12:49:02.085Z</time></trkpt><trkpt lat="41.17388" lon="14.543725"><ele>824.0</ele><time>2026-04-09T12:49:03.085Z</time></trkpt><trkpt lat="41.173945" lon="14.54365"><ele>824.0000000000001</ele><time>2026-04-09T12:49:04.085Z</time></trkpt><trkpt lat="41.1740067" lon="14.5435733"><ele>824.0</ele><time>2026-04-09T12:49:05.085Z</time></trkpt><trkpt lat="41.17407" lon="14.5434917"><ele>818.4000000000001</ele><time>2026-04-09T12:49:06.085Z</time></trkpt><trkpt lat="41.1741283" lon="14.5434017"><ele>812.8</ele><time>2026-04-09T12:49:07.085Z</time></trkpt><trkpt lat="41.1741783" lon="14.5432967"><ele>807.2</ele><time>2026-04-09T12:49:08.085Z</time></trkpt><trkpt lat="41.1742233" lon="14.5431817"><ele>801.5999999999999</ele><time>2026-04-09T12:49:09.085Z</time></trkpt><trkpt lat="41.1742617" lon="14.5430683"><ele>796.0</ele><time>2026-04-09T12:49:10.085Z</time></trkpt><trkpt lat="41.1742967" lon="14.5429533"><ele>796.1666666666666</ele><time>2026-04-09T12:49:11.085Z</time></trkpt><trkpt lat="41.174315" lon="14.5428383"><ele>796.3333333333333</ele><time>2026-04-09T12:49:12.085Z</time></trkpt><trkpt lat="41.17432" lon="14.5427367"><ele>796.5</ele><time>2026-04-09T12:49:13.085Z</time></trkpt><trkpt lat="41.1743283" lon="14.5426367"><ele>796.6666666666667</ele><time>2026-04-09T12:49:14.085Z</time></trkpt><trkpt lat="41.1743233" lon="14.5425333"><ele>796.8333333333334</ele><time>2026-04-09T12:49:15.085Z</time></trkpt><trkpt lat="41.1743117" lon="14.5424417"><ele>797.0</ele><time>2026-04-09T12:49:16.085Z</time></trkpt><trkpt lat="41.174295" lon="14.54236"><ele>797.0000000000001</ele><time>2026-04-09T12:49:17.085Z</time></trkpt><trkpt lat="41.17431" lon="14.5422367"><ele>797.0</ele><time>2026-04-09T12:49:19.085Z</time></trkpt><trkpt lat="41.1744017" lon="14.5422083"><ele>797.0</ele><time>2026-04-09T12:49:21.085Z</time></trkpt><trkpt lat="41.1744667" lon="14.5423167"><ele>797.0</ele><time>2026-04-09T12:49:23.085Z</time></trkpt><trkpt lat="41.1744917" lon="14.542405"><ele>797.0000000000001</ele><time>2026-04-09T12:49:24.085Z</time></trkpt><trkpt lat="41.174525" lon="14.542505"><ele>797.0</ele><time>2026-04-09T12:49:25.085Z</time></trkpt><trkpt lat="41.1745583" lon="14.5426117"><ele>797.0000000000001</ele><time>2026-04-09T12:49:26.085Z</time></trkpt><trkpt lat="41.174595" lon="14.54272"><ele>797.0</ele><time>2026-04-09T12:49:27.085Z</time></trkpt><trkpt lat="41.1746217" lon="14.542835"><ele>797.0</ele><time>2026-04-09T12:49:28.085Z</time></trkpt><trkpt lat="41.1746467" lon="14.542945"><ele>797.0</ele><time>2026-04-09T12:49:29.085Z</time></trkpt><trkpt lat="41.1746633" lon="14.5430667"><ele>797.0000000000001</ele><time>2026-04-09T12:49:30.085Z</time></trkpt><trkpt lat="41.1746667" lon="14.5431767"><ele>797.0</ele><time>2026-04-09T12:49:31.085Z</time></trkpt><trkpt lat="41.1746583" lon="14.5432733"><ele>796.8</ele><time>2026-04-09T12:49:32.085Z</time></trkpt><trkpt lat="41.174645" lon="14.5433583"><ele>796.6</ele><time>2026-04-09T12:49:33.085Z</time></trkpt><trkpt lat="41.17465" lon="14.5435"><ele>796.4</ele><time>2026-04-09T12:49:35.085Z</time></trkpt><trkpt lat="41.1747267" lon="14.54357"><ele>796.1999999999999</ele><time>2026-04-09T12:49:37.085Z</time></trkpt><trkpt lat="41.1748133" lon="14.543505"><ele>796.0</ele><time>2026-04-09T12:49:39.085Z</time></trkpt><trkpt lat="41.1748517" lon="14.5433217"><ele>789.9999999999999</ele><time>2026-04-09T12:49:41.085Z</time></trkpt><trkpt lat="41.174865" lon="14.5432033"><ele>784.0</ele><time>2026-04-09T12:49:42.085Z</time></trkpt><trkpt lat="41.1748817" lon="14.5430917"><ele>778.0</ele><time>2026-04-09T12:49:43.085Z</time></trkpt><trkpt lat="41.17489" lon="14.5430033"><ele>772.0</ele><time>2026-04-09T12:49:44.085Z</time></trkpt><trkpt lat="41.1749333" lon="14.5428633"><ele>766.0</ele><time>2026-04-09T12:49:46.085Z</time></trkpt><trkpt lat="41.1750083" lon="14.542845"><ele>760.0</ele><time>2026-04-09T12:49:48.085Z</time></trkpt><trkpt lat="41.1750483" lon="14.5429533"><ele>759.8333333333334</ele><time>2026-04-09T12:49:50.085Z</time></trkpt><trkpt lat="41.175055" lon="14.5430383"><ele>759.6666666666667</ele><time>2026-04-09T12:49:51.085Z</time></trkpt><trkpt lat="41.1750517" lon="14.5431417"><ele>759.5</ele><time>2026-04-09T12:49:52.085Z</time></trkpt><trkpt lat="41.1750517" lon="14.543255"><ele>759.3333333333334</ele><time>2026-04-09T12:49:53.085Z</time></trkpt><trkpt lat="41.175045" lon="14.5433667"><ele>759.1666666666666</ele><time>2026-04-09T12:49:54.085Z</time></trkpt><trkpt lat="41.175035" lon="14.5434667"><ele>759.0</ele><time>2026-04-09T12:49:55.085Z</time></trkpt><trkpt lat="41.17501" lon="14.54356"><ele>759.0</ele><time>2026-04-09T12:49:56.085Z</time></trkpt><trkpt lat="41.1749817" lon="14.5436467"><ele>759.0</ele><time>2026-04-09T12:49:57.085Z</time></trkpt><trkpt lat="41.174935" lon="14.54378"><ele>759.0</ele><time>2026-04-09T12:49:59.085Z</time></trkpt><trkpt lat="41.1749467" lon="14.5438767"><ele>759.0</ele><time>2026-04-09T12:50:01.085Z</time></trkpt><trkpt lat="41.17502" lon="14.5439017"><ele>759.0</ele><time>2026-04-09T12:50:03.085Z</time></trkpt><trkpt lat="41.17514" lon="14.5438083"><ele>759.0</ele><time>2026-04-09T12:50:05.085Z</time></trkpt><trkpt lat="41.175215" lon="14.5437433"><ele>759.0</ele><time>2026-04-09T12:50:06.085Z</time></trkpt><trkpt lat="41.175285" lon="14.5436833"><ele>759.0</ele><time>2026-04-09T12:50:07.085Z</time></trkpt><trkpt lat="41.1753483" lon="14.543625"><ele>759.0</ele><time>2026-04-09T12:50:08.085Z</time></trkpt><trkpt lat="41.1753967" lon="14.5435567"><ele>759.0</ele><time>2026-04-09T12:50:09.085Z</time></trkpt><trkpt lat="41.1754333" lon="14.54348"><ele>759.0</ele><time>2026-04-09T12:50:10.085Z</time></trkpt><trkpt lat="41.1754617" lon="14.5434"><ele>759.0</ele><time>2026-04-09T12:50:11.085Z</time></trkpt><trkpt lat="41.1754883" lon="14.5433183"><ele>759.0</ele><time>2026-04-09T12:50:12.085Z</time></trkpt><trkpt lat="41.175505" lon="14.5432333"><ele>759.0</ele><time>2026-04-09T12:50:13.085Z</time></trkpt><trkpt lat="41.1755183" lon="14.5431417"><ele>759.0</ele><time>2026-04-09T12:50:14.085Z</time></trkpt><trkpt lat="41.1755417" lon="14.5430467"><ele>759.0</ele><time>2026-04-09T12:50:15.085Z</time></trkpt><trkpt lat="41.175555" lon="14.542955"><ele>759.0</ele><time>2026-04-09T12:50:16.085Z</time></trkpt><trkpt lat="41.17559" lon="14.54284"><ele>759.0</ele><time>2026-04-09T12:50:17.085Z</time></trkpt><trkpt lat="41.17563" lon="14.5427217"><ele>759.2</ele><time>2026-04-09T12:50:18.085Z</time></trkpt><trkpt lat="41.175675" lon="14.542605"><ele>759.4000000000001</ele><time>2026-04-09T12:50:19.085Z</time></trkpt><trkpt lat="41.1757233" lon="14.5424983"><ele>759.6</ele><time>2026-04-09T12:50:20.085Z</time></trkpt><trkpt lat="41.175775" lon="14.5423933"><ele>759.8</ele><time>2026-04-09T12:50:21.085Z</time></trkpt><trkpt lat="41.1758217" lon="14.5422883"><ele>760.0</ele><time>2026-04-09T12:50:22.085Z</time></trkpt><trkpt lat="41.1758667" lon="14.5421667"><ele>752.0</ele><time>2026-04-09T12:50:23.085Z</time></trkpt><trkpt lat="41.1759083" lon="14.542025"><ele>744.0</ele><time>2026-04-09T12:50:24.085Z</time></trkpt><trkpt lat="41.1759467" lon="14.5418783"><ele>736.0</ele><time>2026-04-09T12:50:25.085Z</time></trkpt><trkpt lat="41.1759883" lon="14.54172"><ele>728.0</ele><time>2026-04-09T12:50:26.085Z</time></trkpt><trkpt lat="41.1760267" lon="14.5415833"><ele>728.0</ele><time>2026-04-09T12:50:27.085Z</time></trkpt><trkpt lat="41.17607" lon="14.5414533"><ele>728.0</ele><time>2026-04-09T12:50:28.085Z</time></trkpt><trkpt lat="41.176115" lon="14.5413233"><ele>728.0</ele><time>2026-04-09T12:50:29.085Z</time></trkpt><trkpt lat="41.1761533" lon="14.5412017"><ele>728.0</ele><time>2026-04-09T12:50:30.085Z</time></trkpt><trkpt lat="41.1761967" lon="14.5411033"><ele>728.0</ele><time>2026-04-09T12:50:31.085Z</time></trkpt><trkpt lat="41.1762417" lon="14.5410233"><ele>723.4</ele><time>2026-04-09T12:50:32.085Z</time></trkpt><trkpt lat="41.1762867" lon="14.5409517"><ele>718.8</ele><time>2026-04-09T12:50:33.085Z</time></trkpt><trkpt lat="41.1763283" lon="14.5408717"><ele>714.2</ele><time>2026-04-09T12:50:34.085Z</time></trkpt><trkpt lat="41.1763467" lon="14.5407167"><ele>709.6</ele><time>2026-04-09T12:50:36.085Z</time></trkpt><trkpt lat="41.1762567" lon="14.5406533"><ele>705.0</ele><time>2026-04-09T12:50:38.085Z</time></trkpt><trkpt lat="41.176145" lon="14.540705"><ele>705.0</ele><time>2026-04-09T12:50:40.085Z</time></trkpt><trkpt lat="41.1760867" lon="14.5407767"><ele>705.0</ele><time>2026-04-09T12:50:41.085Z</time></trkpt><trkpt lat="41.176025" lon="14.54086"><ele>705.0</ele><time>2026-04-09T12:50:42.085Z</time></trkpt><trkpt lat="41.175965" lon="14.540945"><ele>705.0</ele><time>2026-04-09T12:50:43.085Z</time></trkpt><trkpt lat="41.1759067" lon="14.5410233"><ele>705.0</ele><time>2026-04-09T12:50:44.085Z</time></trkpt><trkpt lat="41.175855" lon="14.5410917"><ele>705.0</ele><time>2026-04-09T12:50:45.085Z</time></trkpt><trkpt lat="41.17576" lon="14.54117"><ele>705.0</ele><time>2026-04-09T12:50:47.085Z</time></trkpt><trkpt lat="41.17566" lon="14.5411067"><ele>705.0</ele><time>2026-04-09T12:50:49.085Z</time></trkpt><trkpt lat="41.175635" lon="14.5410167"><ele>705.0</ele><time>2026-04-09T12:50:50.085Z</time></trkpt><trkpt lat="41.175635" lon="14.54093"><ele>705.0</ele><time>2026-04-09T12:50:51.085Z</time></trkpt><trkpt lat="41.1756683" lon="14.5408333"><ele>705.0</ele><time>2026-04-09T12:50:52.085Z</time></trkpt><trkpt lat="41.175725" lon="14.5407217"><ele>705.0</ele><time>2026-04-09T12:50:53.085Z</time></trkpt><trkpt lat="41.1757883" lon="14.5405967"><ele>705.0</ele><time>2026-04-09T12:50:54.085Z</time></trkpt><trkpt lat="41.17587" lon="14.54046"><ele>705.0</ele><time>2026-04-09T12:50:55.085Z</time></trkpt><trkpt lat="41.17595" lon="14.54031"><ele>705.0</ele><time>2026-04-09T12:50:56.085Z</time></trkpt><trkpt lat="41.1760317" lon="14.5401717"><ele>705.0</ele><time>2026-04-09T12:50:57.085Z</time></trkpt><trkpt lat="41.1761033" lon="14.5400333"><ele>701.5</ele><time>2026-04-09T12:50:58.085Z</time></trkpt><trkpt lat="41.1761683" lon="14.5399333"><ele>698.0</ele><time>2026-04-09T12:50:59.085Z</time></trkpt><trkpt lat="41.1762133" lon="14.5398417"><ele>694.5</ele><time>2026-04-09T12:51:00.085Z</time></trkpt><trkpt lat="41.17625" lon="14.5397667"><ele>691.0</ele><time>2026-04-09T12:51:01.085Z</time></trkpt><trkpt lat="41.17626" lon="14.5396167"><ele>687.5</ele><time>2026-04-09T12:51:03.085Z</time></trkpt><trkpt lat="41.1761933" lon="14.5395733"><ele>684.0</ele><time>2026-04-09T12:51:05.085Z</time></trkpt><trkpt lat="41.1760967" lon="14.5396517"><ele>684.0</ele><time>2026-04-09T12:51:07.085Z</time></trkpt><trkpt lat="41.17605" lon="14.5397183"><ele>684.0</ele><time>2026-04-09T12:51:08.085Z</time></trkpt><trkpt lat="41.1760133" lon="14.5397967"><ele>684.0</ele><time>2026-04-09T12:51:09.085Z</time></trkpt><trkpt lat="41.1759767" lon="14.539865"><ele>684.0</ele><time>2026-04-09T12:51:10.085Z</time></trkpt><trkpt lat="41.1758783" lon="14.5399033"><ele>684.0</ele><time>2026-04-09T12:51:12.085Z</time></trkpt><trkpt lat="41.1758" lon="14.5398067"><ele>684.0</ele><time>2026-04-09T12:51:14.085Z</time></trkpt><trkpt lat="41.17581" lon="14.539695"><ele>684.0</ele><time>2026-04-09T12:51:15.085Z</time></trkpt><trkpt lat="41.175835" lon="14.53957"><ele>684.0</ele><time>2026-04-09T12:51:16.085Z</time></trkpt><trkpt lat="41.1758583" lon="14.53944"><ele>684.0</ele><time>2026-04-09T12:51:17.085Z</time></trkpt><trkpt lat="41.1758733" lon="14.5393"><ele>684.0</ele><time>2026-04-09T12:51:18.085Z</time></trkpt><trkpt lat="41.175885" lon="14.5391517"><ele>684.0</ele><time>2026-04-09T12:51:19.085Z</time></trkpt><trkpt lat="41.1759" lon="14.539"><ele>680.75</ele><time>2026-04-09T12:51:20.085Z</time></trkpt><trkpt lat="41.1759133" lon="14.5388533"><ele>677.5</ele><time>2026-04-09T12:51:21.085Z</time></trkpt><trkpt lat="41.175925" lon="14.538705"><ele>674.25</ele><time>2026-04-09T12:51:22.085Z</time></trkpt><trkpt lat="41.1759483" lon="14.538545"><ele>671.0</ele><time>2026-04-09T12:51:23.085Z</time></trkpt><trkpt lat="41.17599" lon="14.5383817"><ele>667.25</ele><time>2026-04-09T12:51:24.085Z</time></trkpt><trkpt lat="41.17604" lon="14.538215"><ele>663.5</ele><time>2026-04-09T12:51:25.085Z</time></trkpt><trkpt lat="41.1760867" lon="14.53804"><ele>659.75</ele><time>2026-04-09T12:51:26.085Z</time></trkpt><trkpt lat="41.176125" lon="14.5378783"><ele>656.0</ele><time>2026-04-09T12:51:27.085Z</time></trkpt><trkpt lat="41.1761583" lon="14.5377117"><ele>652.25</ele><time>2026-04-09T12:51:28.085Z</time></trkpt><trkpt lat="41.17619" lon="14.5375567"><ele>648.5</ele><time>2026-04-09T12:51:29.085Z</time></trkpt><trkpt lat="41.1762267" lon="14.5374"><ele>644.75</ele><time>2026-04-09T12:51:30.085Z</time></trkpt><trkpt lat="41.1762717" lon="14.537245"><ele>641.0</ele><time>2026-04-09T12:51:31.085Z</time></trkpt><trkpt lat="41.1763167" lon="14.5370967"><ele>636.8</ele><time>2026-04-09T12:51:32.085Z</time></trkpt><trkpt lat="41.17636" lon="14.5369567"><ele>632.5999999999999</ele><time>2026-04-09T12:51:33.085Z</time></trkpt><trkpt lat="41.1763917" lon="14.5368283"><ele>628.4</ele><time>2026-04-09T12:51:34.085Z</time></trkpt><trkpt lat="41.1764133" lon="14.5367017"><ele>624.2</ele><time>2026-04-09T12:51:35.085Z</time></trkpt><trkpt lat="41.1764233" lon="14.5365783"><ele>620.0</ele><time>2026-04-09T12:51:36.085Z</time></trkpt><trkpt lat="41.1764433" lon="14.5364517"><ele>620.0</ele><time>2026-04-09T12:51:37.085Z</time></trkpt><trkpt lat="41.1764733" lon="14.5363233"><ele>620.0</ele><time>2026-04-09T12:51:38.085Z</time></trkpt><trkpt lat="41.1765067" lon="14.5362017"><ele>620.0</ele><time>2026-04-09T12:51:39.085Z</time></trkpt><trkpt lat="41.17654" lon="14.5361117"><ele>620.0</ele><time>2026-04-09T12:51:40.085Z</time></trkpt><trkpt lat="41.1765767" lon="14.5360383"><ele>620.0</ele><time>2026-04-09T12:51:41.085Z</time></trkpt><trkpt lat="41.1766467" lon="14.5359467"><ele>620.0</ele><time>2026-04-09T12:51:43.085Z</time></trkpt><trkpt lat="41.17669" lon="14.5358783"><ele>618.0</ele><time>2026-04-09T12:51:45.085Z</time></trkpt><trkpt lat="41.17672" lon="14.535765"><ele>616.0</ele><time>2026-04-09T12:52:16.085Z</time></trkpt><trkpt lat="41.17677" lon="14.5356783"><ele>614.0</ele><time>2026-04-09T12:52:18.085Z</time></trkpt><trkpt lat="41.1768417" lon="14.5355817"><ele>612.0</ele><time>2026-04-09T12:52:20.085Z</time></trkpt><trkpt lat="41.1769233" lon="14.5354767"><ele>610.0</ele><time>2026-04-09T12:52:22.085Z</time></trkpt><trkpt lat="41.1770083" lon="14.5353967"><ele>606.0</ele><time>2026-04-09T12:52:24.085Z</time></trkpt><trkpt lat="41.1770867" lon="14.5353383"><ele>602.0</ele><time>2026-04-09T12:52:26.085Z</time></trkpt><trkpt lat="41.1771617" lon="14.5352533"><ele>598.0</ele><time>2026-04-09T12:52:28.085Z</time></trkpt><trkpt lat="41.17719" lon="14.535135"><ele>594.0</ele><time>2026-04-09T12:52:30.085Z</time></trkpt><trkpt lat="41.1771933" lon="14.5349983"><ele>590.0</ele><time>2026-04-09T12:52:32.085Z</time></trkpt><trkpt lat="41.1772" lon="14.5348767"><ele>590.0</ele><time>2026-04-09T12:52:34.085Z</time></trkpt><trkpt lat="41.1772533" lon="14.5347883"><ele>590.0</ele><time>2026-04-09T12:52:36.085Z</time></trkpt><trkpt lat="41.1773417" lon="14.5347117"><ele>590.0</ele><time>2026-04-09T12:52:38.085Z</time></trkpt><trkpt lat="41.1773983" lon="14.5346733"><ele>590.0</ele><time>2026-04-09T12:52:39.085Z</time></trkpt><trkpt lat="41.1774583" lon="14.534625"><ele>590.0</ele><time>2026-04-09T12:52:40.085Z</time></trkpt><trkpt lat="41.1775233" lon="14.53456"><ele>590.0</ele><time>2026-04-09T12:52:41.085Z</time></trkpt><trkpt lat="41.1775717" lon="14.5344783"><ele>590.8</ele><time>2026-04-09T12:52:42.085Z</time></trkpt><trkpt lat="41.177615" lon="14.534375"><ele>591.6</ele><time>2026-04-09T12:52:43.085Z</time></trkpt><trkpt lat="41.17766" lon="14.5342683"><ele>592.4</ele><time>2026-04-09T12:52:44.085Z</time></trkpt><trkpt lat="41.177695" lon="14.5341483"><ele>593.2</ele><time>2026-04-09T12:52:45.085Z</time></trkpt><trkpt lat="41.1777233" lon="14.5340183"><ele>594.0</ele><time>2026-04-09T12:52:46.085Z</time></trkpt><trkpt lat="41.17774" lon="14.5338733"><ele>594.25</ele><time>2026-04-09T12:52:47.085Z</time></trkpt><trkpt lat="41.1777583" lon="14.5337183"><ele>594.5</ele><time>2026-04-09T12:52:48.085Z</time></trkpt><trkpt lat="41.1777783" lon="14.533565"><ele>594.75</ele><time>2026-04-09T12:52:49.085Z</time></trkpt><trkpt lat="41.1777933" lon="14.533405"><ele>595.0</ele><time>2026-04-09T12:52:50.085Z</time></trkpt><trkpt lat="41.1778217" lon="14.53325"><ele>595.0</ele><time>2026-04-09T12:52:51.085Z</time></trkpt><trkpt lat="41.17786" lon="14.5331033"><ele>595.0</ele><time>2026-04-09T12:52:52.085Z</time></trkpt><trkpt lat="41.1778933" lon="14.5329633"><ele>595.0</ele><time>2026-04-09T12:52:53.085Z</time></trkpt><trkpt lat="41.177935" lon="14.532825"><ele>595.0</ele><time>2026-04-09T12:52:54.085Z</time></trkpt><trkpt lat="41.1779733" lon="14.5326917"><ele>595.0</ele><time>2026-04-09T12:52:55.085Z</time></trkpt><trkpt lat="41.1780083" lon="14.5325683"><ele>594.6</ele><time>2026-04-09T12:52:56.085Z</time></trkpt><trkpt lat="41.1780483" lon="14.532455"><ele>594.2</ele><time>2026-04-09T12:52:57.085Z</time></trkpt><trkpt lat="41.1780967" lon="14.5323383"><ele>593.8</ele><time>2026-04-09T12:52:58.085Z</time></trkpt><trkpt lat="41.1781517" lon="14.532225"><ele>593.4</ele><time>2026-04-09T12:52:59.085Z</time></trkpt><trkpt lat="41.1782167" lon="14.5321133"><ele>593.0</ele><time>2026-04-09T12:53:00.085Z</time></trkpt><trkpt lat="41.178285" lon="14.5320217"><ele>591.0</ele><time>2026-04-09T12:53:01.085Z</time></trkpt><trkpt lat="41.178365" lon="14.5319283"><ele>589.0</ele><time>2026-04-09T12:53:02.085Z</time></trkpt><trkpt lat="41.178435" lon="14.5318583"><ele>587.0</ele><time>2026-04-09T12:53:03.085Z</time></trkpt><trkpt lat="41.1785083" lon="14.5317817"><ele>585.0</ele><time>2026-04-09T12:53:04.085Z</time></trkpt><trkpt lat="41.1785717" lon="14.5317017"><ele>583.0</ele><time>2026-04-09T12:53:05.085Z</time></trkpt><trkpt lat="41.1786267" lon="14.5316017"><ele>583.0</ele><time>2026-04-09T12:53:06.085Z</time></trkpt><trkpt lat="41.1786817" lon="14.5314967"><ele>583.0</ele><time>2026-04-09T12:53:07.085Z</time></trkpt><trkpt lat="41.178715" lon="14.5313833"><ele>583.0</ele><time>2026-04-09T12:53:08.085Z</time></trkpt><trkpt lat="41.17875" lon="14.5312317"><ele>583.0</ele><time>2026-04-09T12:53:09.085Z</time></trkpt><trkpt lat="41.1787733" lon="14.53106"><ele>583.0</ele><time>2026-04-09T12:53:10.085Z</time></trkpt><trkpt lat="41.1788133" lon="14.5308833"><ele>582.5</ele><time>2026-04-09T12:53:11.085Z</time></trkpt><trkpt lat="41.178855" lon="14.5307217"><ele>582.0</ele><time>2026-04-09T12:53:12.085Z</time></trkpt><trkpt lat="41.178895" lon="14.5305567"><ele>581.5</ele><time>2026-04-09T12:53:13.085Z</time></trkpt><trkpt lat="41.1789267" lon="14.5303867"><ele>581.0</ele><time>2026-04-09T12:53:14.085Z</time></trkpt><trkpt lat="41.1789767" lon="14.53024"><ele>573.75</ele><time>2026-04-09T12:53:15.085Z</time></trkpt><trkpt lat="41.17902" lon="14.5300867"><ele>566.5</ele><time>2026-04-09T12:53:16.085Z</time></trkpt><trkpt lat="41.1790567" lon="14.5299467"><ele>559.25</ele><time>2026-04-09T12:53:17.085Z</time></trkpt><trkpt lat="41.17907" lon="14.529795"><ele>552.0</ele><time>2026-04-09T12:53:18.085Z</time></trkpt><trkpt lat="41.1790917" lon="14.5296433"><ele>550.5</ele><time>2026-04-09T12:53:19.085Z</time></trkpt><trkpt lat="41.179115" lon="14.5294967"><ele>549.0</ele><time>2026-04-09T12:53:20.085Z</time></trkpt><trkpt lat="41.1791417" lon="14.5293517"><ele>547.5</ele><time>2026-04-09T12:53:21.085Z</time></trkpt><trkpt lat="41.1791667" lon="14.5292033"><ele>546.0</ele><time>2026-04-09T12:53:22.085Z</time></trkpt><trkpt lat="41.1792183" lon="14.529065"><ele>546.0</ele><time>2026-04-09T12:53:23.085Z</time></trkpt><trkpt lat="41.1792633" lon="14.52891"><ele>546.0</ele><time>2026-04-09T12:53:24.085Z</time></trkpt><trkpt lat="41.1793217" lon="14.528745"><ele>546.0</ele><time>2026-04-09T12:53:25.085Z</time></trkpt><trkpt lat="41.179385" lon="14.52858"><ele>546.0</ele><time>2026-04-09T12:53:26.085Z</time></trkpt><trkpt lat="41.17945" lon="14.5284183"><ele>543.5</ele><time>2026-04-09T12:53:27.085Z</time></trkpt><trkpt lat="41.1795183" lon="14.5282583"><ele>541.0</ele><time>2026-04-09T12:53:28.085Z</time></trkpt><trkpt lat="41.1795917" lon="14.5280833"><ele>538.5</ele><time>2026-04-09T12:53:29.085Z</time></trkpt><trkpt lat="41.17967" lon="14.5279167"><ele>536.0</ele><time>2026-04-09T12:53:30.085Z</time></trkpt><trkpt lat="41.1797383" lon="14.527755"><ele>533.75</ele><time>2026-04-09T12:53:31.085Z</time></trkpt><trkpt lat="41.1798117" lon="14.5276033"><ele>531.5</ele><time>2026-04-09T12:53:32.085Z</time></trkpt><trkpt lat="41.1798833" lon="14.5274683"><ele>529.25</ele><time>2026-04-09T12:53:33.085Z</time></trkpt><trkpt lat="41.1799467" lon="14.5273333"><ele>527.0</ele><time>2026-04-09T12:53:34.085Z</time></trkpt><trkpt lat="41.1799967" lon="14.5272217"><ele>527.0</ele><time>2026-04-09T12:53:35.085Z</time></trkpt><trkpt lat="41.180035" lon="14.5271133"><ele>527.0</ele><time>2026-04-09T12:53:36.085Z</time></trkpt><trkpt lat="41.1800533" lon="14.5270033"><ele>527.0</ele><time>2026-04-09T12:53:37.085Z</time></trkpt><trkpt lat="41.18005" lon="14.526885"><ele>527.0</ele><time>2026-04-09T12:53:38.085Z</time></trkpt><trkpt lat="41.1800317" lon="14.5267833"><ele>527.0</ele><time>2026-04-09T12:53:39.085Z</time></trkpt><trkpt lat="41.1800083" lon="14.526685"><ele>527.0</ele><time>2026-04-09T12:53:40.085Z</time></trkpt><trkpt lat="41.1799767" lon="14.526605"><ele>525.4</ele><time>2026-04-09T12:53:41.085Z</time></trkpt><trkpt lat="41.17995" lon="14.5264633"><ele>523.8000000000001</ele><time>2026-04-09T12:53:43.085Z</time></trkpt><trkpt lat="41.180005" lon="14.5263567"><ele>522.2</ele><time>2026-04-09T12:53:45.085Z</time></trkpt><trkpt lat="41.1801217" lon="14.5264017"><ele>520.6</ele><time>2026-04-09T12:53:47.085Z</time></trkpt><trkpt lat="41.1801867" lon="14.5264767"><ele>519.0</ele><time>2026-04-09T12:53:48.085Z</time></trkpt><trkpt lat="41.18025" lon="14.5265717"><ele>519.0</ele><time>2026-04-09T12:53:49.085Z</time></trkpt><trkpt lat="41.1803183" lon="14.5266733"><ele>519.0</ele><time>2026-04-09T12:53:50.085Z</time></trkpt><trkpt lat="41.18037" lon="14.5267783"><ele>519.0</ele><time>2026-04-09T12:53:51.085Z</time></trkpt><trkpt lat="41.1804083" lon="14.5268917"><ele>519.0</ele><time>2026-04-09T12:53:52.085Z</time></trkpt><trkpt lat="41.1804217" lon="14.5270217"><ele>519.0</ele><time>2026-04-09T12:53:53.085Z</time></trkpt><trkpt lat="41.180425" lon="14.5271717"><ele>520.2</ele><time>2026-04-09T12:53:54.085Z</time></trkpt><trkpt lat="41.1804183" lon="14.5273217"><ele>521.4</ele><time>2026-04-09T12:53:55.085Z</time></trkpt><trkpt lat="41.1804133" lon="14.5274783"><ele>522.6</ele><time>2026-04-09T12:53:56.085Z</time></trkpt><trkpt lat="41.1804" lon="14.5276267"><ele>523.8</ele><time>2026-04-09T12:53:57.085Z</time></trkpt><trkpt lat="41.1803883" lon="14.527765"><ele>525.0</ele><time>2026-04-09T12:53:58.085Z</time></trkpt><trkpt lat="41.180375" lon="14.5279033"><ele>525.0</ele><time>2026-04-09T12:53:59.085Z</time></trkpt><trkpt lat="41.18035" lon="14.5280433"><ele>525.0</ele><time>2026-04-09T12:54:00.085Z</time></trkpt><trkpt lat="41.1803167" lon="14.5281767"><ele>525.0</ele><time>2026-04-09T12:54:01.085Z</time></trkpt><trkpt lat="41.1802783" lon="14.52831"><ele>525.0</ele><time>2026-04-09T12:54:02.085Z</time></trkpt><trkpt lat="41.180235" lon="14.528435"><ele>525.0</ele><time>2026-04-09T12:54:03.085Z</time></trkpt><trkpt lat="41.18021" lon="14.528575"><ele>525.0</ele><time>2026-04-09T12:54:04.085Z</time></trkpt><trkpt lat="41.1801933" lon="14.5287183"><ele>525.0</ele><time>2026-04-09T12:54:05.085Z</time></trkpt><trkpt lat="41.180185" lon="14.5288633"><ele>525.0</ele><time>2026-04-09T12:54:06.085Z</time></trkpt><trkpt lat="41.180175" lon="14.5290167"><ele>525.0</ele><time>2026-04-09T12:54:07.085Z</time></trkpt><trkpt lat="41.1801833" lon="14.5291667"><ele>525.0</ele><time>2026-04-09T12:54:08.085Z</time></trkpt><trkpt lat="41.1801967" lon="14.5293217"><ele>523.75</ele><time>2026-04-09T12:54:09.085Z</time></trkpt><trkpt lat="41.1802117" lon="14.5294933"><ele>522.5</ele><time>2026-04-09T12:54:10.085Z</time></trkpt><trkpt lat="41.18022" lon="14.5296783"><ele>521.25</ele><time>2026-04-09T12:54:11.085Z</time></trkpt><trkpt lat="41.1802317" lon="14.529855"><ele>520.0</ele><time>2026-04-09T12:54:12.085Z</time></trkpt><trkpt lat="41.1802417" lon="14.5300167"><ele>518.25</ele><time>2026-04-09T12:54:13.085Z</time></trkpt><trkpt lat="41.1802617" lon="14.5301783"><ele>516.5</ele><time>2026-04-09T12:54:14.085Z</time></trkpt><trkpt lat="41.1802783" lon="14.5303383"><ele>514.75</ele><time>2026-04-09T12:54:15.085Z</time></trkpt><trkpt lat="41.1802867" lon="14.530495"><ele>513.0</ele><time>2026-04-09T12:54:16.085Z</time></trkpt><trkpt lat="41.18028" lon="14.530645"><ele>510.75</ele><time>2026-04-09T12:54:17.085Z</time></trkpt><trkpt lat="41.18029" lon="14.5308033"><ele>508.5</ele><time>2026-04-09T12:54:18.085Z</time></trkpt><trkpt lat="41.1802917" lon="14.5309617"><ele>506.25</ele><time>2026-04-09T12:54:19.085Z</time></trkpt><trkpt lat="41.1802767" lon="14.53112"><ele>504.0</ele><time>2026-04-09T12:54:20.085Z</time></trkpt><trkpt lat="41.18026" lon="14.5312817"><ele>499.75</ele><time>2026-04-09T12:54:21.085Z</time></trkpt><trkpt lat="41.180235" lon="14.5314433"><ele>495.5</ele><time>2026-04-09T12:54:22.085Z</time></trkpt><trkpt lat="41.180215" lon="14.531605"><ele>491.25</ele><time>2026-04-09T12:54:23.085Z</time></trkpt><trkpt lat="41.180195" lon="14.5317617"><ele>487.0</ele><time>2026-04-09T12:54:24.085Z</time></trkpt><trkpt lat="41.1801783" lon="14.5319233"><ele>481.0</ele><time>2026-04-09T12:54:25.085Z</time></trkpt><trkpt lat="41.18016" lon="14.5320883"><ele>475.0</ele><time>2026-04-09T12:54:26.085Z</time></trkpt><trkpt lat="41.1801217" lon="14.532255"><ele>469.0</ele><time>2026-04-09T12:54:27.085Z</time></trkpt><trkpt lat="41.1800733" lon="14.53242"><ele>463.0</ele><time>2026-04-09T12:54:28.085Z</time></trkpt><trkpt lat="41.180015" lon="14.5325817"><ele>463.0</ele><time>2026-04-09T12:54:29.085Z</time></trkpt><trkpt lat="41.1799517" lon="14.5327383"><ele>463.0</ele><time>2026-04-09T12:54:30.085Z</time></trkpt><trkpt lat="41.1799" lon="14.5328933"><ele>463.0</ele><time>2026-04-09T12:54:31.085Z</time></trkpt><trkpt lat="41.17985" lon="14.5330433"><ele>463.0</ele><time>2026-04-09T12:54:32.085Z</time></trkpt><trkpt lat="41.1798217" lon="14.5331817"><ele>469.83333333333337</ele><time>2026-04-09T12:54:33.085Z</time></trkpt><trkpt lat="41.1797867" lon="14.5333133"><ele>476.6666666666667</ele><time>2026-04-09T12:54:34.085Z</time></trkpt><trkpt lat="41.179755" lon="14.5334283"><ele>483.5</ele><time>2026-04-09T12:54:35.085Z</time></trkpt><trkpt lat="41.1797217" lon="14.533535"><ele>490.33333333333337</ele><time>2026-04-09T12:54:36.085Z</time></trkpt><trkpt lat="41.1797" lon="14.5336217"><ele>497.1666666666667</ele><time>2026-04-09T12:54:37.085Z</time></trkpt><trkpt lat="41.17971" lon="14.53372"><ele>504.0</ele><time>2026-04-09T12:54:38.085Z</time></trkpt><trkpt lat="41.1797333" lon="14.5338033"><ele>505.25</ele><time>2026-04-09T12:54:39.085Z</time></trkpt><trkpt lat="41.1797667" lon="14.5338967"><ele>506.5</ele><time>2026-04-09T12:54:40.085Z</time></trkpt><trkpt lat="41.1798567" lon="14.5339867"><ele>507.75</ele><time>2026-04-09T12:54:41.085Z</time></trkpt><trkpt lat="41.1799733" lon="14.5340867"><ele>509.0</ele><time>2026-04-09T12:54:42.085Z</time></trkpt><trkpt lat="41.18009" lon="14.5341867"><ele>502.25</ele><time>2026-04-09T12:54:43.085Z</time></trkpt><trkpt lat="41.1802067" lon="14.5342917"><ele>495.5</ele><time>2026-04-09T12:54:44.085Z</time></trkpt><trkpt lat="41.1803217" lon="14.534405"><ele>488.75</ele><time>2026-04-09T12:54:45.085Z</time></trkpt><trkpt lat="41.1804267" lon="14.5345133"><ele>482.0</ele><time>2026-04-09T12:54:46.085Z</time></trkpt><trkpt lat="41.1805417" lon="14.5346217"><ele>482.0</ele><time>2026-04-09T12:54:47.085Z</time></trkpt><trkpt lat="41.1806533" lon="14.5347317"><ele>482.0</ele><time>2026-04-09T12:54:48.085Z</time></trkpt><trkpt lat="41.18076" lon="14.5348267"><ele>482.0</ele><time>2026-04-09T12:54:49.085Z</time></trkpt><trkpt lat="41.1808583" lon="14.5349183"><ele>482.0</ele><time>2026-04-09T12:54:50.085Z</time></trkpt><trkpt lat="41.18095" lon="14.535"><ele>475.40000000000003</ele><time>2026-04-09T12:54:51.085Z</time></trkpt><trkpt lat="41.18104" lon="14.535075"><ele>468.80000000000007</ele><time>2026-04-09T12:54:52.085Z</time></trkpt><trkpt lat="41.1811217" lon="14.5351567"><ele>462.2</ele><time>2026-04-09T12:54:53.085Z</time></trkpt><trkpt lat="41.1812017" lon="14.5352383"><ele>455.6</ele><time>2026-04-09T12:54:54.085Z</time></trkpt><trkpt lat="41.1812617" lon="14.5353483"><ele>449.0</ele><time>2026-04-09T12:54:55.085Z</time></trkpt><trkpt lat="41.1813017" lon="14.53547"><ele>449.0</ele><time>2026-04-09T12:54:56.085Z</time></trkpt><trkpt lat="41.1813367" lon="14.5356067"><ele>449.0</ele><time>2026-04-09T12:54:57.085Z</time></trkpt><trkpt lat="41.1813667" lon="14.5357617"><ele>449.0</ele><time>2026-04-09T12:54:58.085Z</time></trkpt><trkpt lat="41.1813917" lon="14.535935"><ele>449.0</ele><time>2026-04-09T12:54:59.085Z</time></trkpt><trkpt lat="41.1814133" lon="14.5361117"><ele>449.75</ele><time>2026-04-09T12:55:00.085Z</time></trkpt><trkpt lat="41.1814317" lon="14.53629"><ele>450.5</ele><time>2026-04-09T12:55:01.085Z</time></trkpt><trkpt lat="41.1814367" lon="14.5364483"><ele>451.25</ele><time>2026-04-09T12:55:02.085Z</time></trkpt><trkpt lat="41.18144" lon="14.5366"><ele>452.0</ele><time>2026-04-09T12:55:03.085Z</time></trkpt><trkpt lat="41.181435" lon="14.5367433"><ele>452.0</ele><time>2026-04-09T12:55:04.085Z</time></trkpt><trkpt lat="41.18143" lon="14.53688"><ele>452.00000000000006</ele><time>2026-04-09T12:55:05.085Z</time></trkpt><trkpt lat="41.1814233" lon="14.537015"><ele>452.00000000000006</ele><time>2026-04-09T12:55:06.085Z</time></trkpt><trkpt lat="41.181395" lon="14.537145"><ele>452.0</ele><time>2026-04-09T12:55:07.085Z</time></trkpt><trkpt lat="41.1813567" lon="14.5372717"><ele>452.0</ele><time>2026-04-09T12:55:08.085Z</time></trkpt><trkpt lat="41.18132" lon="14.53739"><ele>451.3333333333333</ele><time>2026-04-09T12:55:09.085Z</time></trkpt><trkpt lat="41.181285" lon="14.537495"><ele>450.66666666666663</ele><time>2026-04-09T12:55:10.085Z</time></trkpt><trkpt lat="41.1812567" lon="14.537595"><ele>450.0</ele><time>2026-04-09T12:55:11.085Z</time></trkpt><trkpt lat="41.1812483" lon="14.537685"><ele>449.33333333333337</ele><time>2026-04-09T12:55:12.085Z</time></trkpt><trkpt lat="41.18129" lon="14.5378433"><ele>448.6666666666667</ele><time>2026-04-09T12:55:14.085Z</time></trkpt><trkpt lat="41.181355" lon="14.5379167"><ele>448.0</ele><time>2026-04-09T12:55:15.085Z</time></trkpt><trkpt lat="41.1814417" lon="14.537985"><ele>437.59999999999997</ele><time>2026-04-09T12:55:16.085Z</time></trkpt><trkpt lat="41.18153" lon="14.538065"><ele>427.19999999999993</ele><time>2026-04-09T12:55:17.085Z</time></trkpt><trkpt lat="41.1816" lon="14.5381533"><ele>416.8</ele><time>2026-04-09T12:55:18.085Z</time></trkpt><trkpt lat="41.1816533" lon="14.53826"><ele>406.4</ele><time>2026-04-09T12:55:19.085Z</time></trkpt><trkpt lat="41.181705" lon="14.5383933"><ele>396.0</ele><time>2026-04-09T12:55:20.085Z</time></trkpt><trkpt lat="41.18175" lon="14.5385367"><ele>396.0</ele><time>2026-04-09T12:55:21.085Z</time></trkpt><trkpt lat="41.1818017" lon="14.5386883"><ele>396.0</ele><time>2026-04-09T12:55:22.085Z</time></trkpt><trkpt lat="41.1818533" lon="14.538835"><ele>396.0</ele><time>2026-04-09T12:55:23.085Z</time></trkpt><trkpt lat="41.1819017" lon="14.5389833"><ele>396.0</ele><time>2026-04-09T12:55:24.085Z</time></trkpt><trkpt lat="41.1819517" lon="14.5391317"><ele>399.0</ele><time>2026-04-09T12:55:25.085Z</time></trkpt><trkpt lat="41.1820033" lon="14.5392783"><ele>402.0</ele><time>2026-04-09T12:55:26.085Z</time></trkpt><trkpt lat="41.1820567" lon="14.5394383"><ele>405.0</ele><time>2026-04-09T12:55:27.085Z</time></trkpt><trkpt lat="41.182105" lon="14.5396083"><ele>408.0</ele><time>2026-04-09T12:55:28.085Z</time></trkpt><trkpt lat="41.18215" lon="14.53978"><ele>409.5</ele><time>2026-04-09T12:55:29.085Z</time></trkpt><trkpt lat="41.1821967" lon="14.5399483"><ele>411.0</ele><time>2026-04-09T12:55:30.085Z</time></trkpt><trkpt lat="41.18225" lon="14.540115"><ele>412.5</ele><time>2026-04-09T12:55:31.085Z</time></trkpt><trkpt lat="41.1823117" lon="14.54028"><ele>414.0</ele><time>2026-04-09T12:55:32.085Z</time></trkpt><trkpt lat="41.18238" lon="14.5404367"><ele>403.5</ele><time>2026-04-09T12:55:33.085Z</time></trkpt><trkpt lat="41.1824567" lon="14.5405833"><ele>393.0</ele><time>2026-04-09T12:55:34.085Z</time></trkpt><trkpt lat="41.182525" lon="14.5407217"><ele>382.5</ele><time>2026-04-09T12:55:35.085Z</time></trkpt><trkpt lat="41.182585" lon="14.54084"><ele>372.0</ele><time>2026-04-09T12:55:36.085Z</time></trkpt><trkpt lat="41.1826333" lon="14.540955"><ele>372.0</ele><time>2026-04-09T12:55:37.085Z</time></trkpt><trkpt lat="41.1826767" lon="14.5410667"><ele>372.0</ele><time>2026-04-09T12:55:38.085Z</time></trkpt><trkpt lat="41.1827017" lon="14.54117"><ele>372.0</ele><time>2026-04-09T12:55:39.085Z</time></trkpt><trkpt lat="41.182715" lon="14.541255"><ele>372.0</ele><time>2026-04-09T12:55:40.085Z</time></trkpt><trkpt lat="41.182725" lon="14.5413833"><ele>372.0</ele><time>2026-04-09T12:55:42.085Z</time></trkpt><trkpt lat="41.1828" lon="14.5413883"><ele>372.0</ele><time>2026-04-09T12:55:44.085Z</time></trkpt><trkpt lat="41.18284" lon="14.54132"><ele>372.0</ele><time>2026-04-09T12:55:45.085Z</time></trkpt><trkpt lat="41.18286" lon="14.54123"><ele>372.0</ele><time>2026-04-09T12:55:46.085Z</time></trkpt><trkpt lat="41.1828583" lon="14.5411183"><ele>372.0</ele><time>2026-04-09T12:55:47.085Z</time></trkpt><trkpt lat="41.182835" lon="14.5409983"><ele>372.0</ele><time>2026-04-09T12:55:48.085Z</time></trkpt><trkpt lat="41.1827933" lon="14.540885"><ele>372.0</ele><time>2026-04-09T12:55:49.085Z</time></trkpt><trkpt lat="41.1827517" lon="14.540785"><ele>372.0</ele><time>2026-04-09T12:55:50.085Z</time></trkpt><trkpt lat="41.1827217" lon="14.5407017"><ele>372.0</ele><time>2026-04-09T12:55:51.085Z</time></trkpt><trkpt lat="41.1827117" lon="14.5405983"><ele>372.0</ele><time>2026-04-09T12:55:53.085Z</time></trkpt><trkpt lat="41.1828083" lon="14.5405933"><ele>372.0</ele><time>2026-04-09T12:55:55.085Z</time></trkpt><trkpt lat="41.18287" lon="14.5406533"><ele>372.0</ele><time>2026-04-09T12:55:56.085Z</time></trkpt><trkpt lat="41.1829217" lon="14.540755"><ele>372.0</ele><time>2026-04-09T12:55:57.085Z</time></trkpt><trkpt lat="41.1829783" lon="14.5408783"><ele>372.0</ele><time>2026-04-09T12:55:58.085Z</time></trkpt><trkpt lat="41.18304" lon="14.54102"><ele>372.0</ele><time>2026-04-09T12:55:59.085Z</time></trkpt><trkpt lat="41.18309" lon="14.541185"><ele>372.0</ele><time>2026-04-09T12:56:00.085Z</time></trkpt><trkpt lat="41.1831417" lon="14.5413583"><ele>372.0</ele><time>2026-04-09T12:56:01.085Z</time></trkpt><trkpt lat="41.183195" lon="14.5415317"><ele>363.0</ele><time>2026-04-09T12:56:02.085Z</time></trkpt><trkpt lat="41.1832467" lon="14.541715"><ele>354.0</ele><time>2026-04-09T12:56:03.085Z</time></trkpt><trkpt lat="41.1832983" lon="14.541895"><ele>345.0</ele><time>2026-04-09T12:56:04.085Z</time></trkpt><trkpt lat="41.1833433" lon="14.54208"><ele>336.0</ele><time>2026-04-09T12:56:05.085Z</time></trkpt><trkpt lat="41.183385" lon="14.5422683"><ele>336.0</ele><time>2026-04-09T12:56:06.085Z</time></trkpt><trkpt lat="41.183425" lon="14.5424483"><ele>336.0</ele><time>2026-04-09T12:56:07.085Z</time></trkpt><trkpt lat="41.18346" lon="14.542625"><ele>336.0</ele><time>2026-04-09T12:56:08.085Z</time></trkpt><trkpt lat="41.1835" lon="14.5428"><ele>336.0</ele><time>2026-04-09T12:56:09.085Z</time></trkpt><trkpt lat="41.1835467" lon="14.5429817"><ele>336.5</ele><time>2026-04-09T12:56:10.085Z</time></trkpt><trkpt lat="41.1835883" lon="14.54316"><ele>337.0</ele><time>2026-04-09T12:56:11.085Z</time></trkpt><trkpt lat="41.1836417" lon="14.5433417"><ele>337.5</ele><time>2026-04-09T12:56:12.085Z</time></trkpt><trkpt lat="41.1836817" lon="14.5435217"><ele>338.0</ele><time>2026-04-09T12:56:13.085Z</time></trkpt><trkpt lat="41.183725" lon="14.5436967"><ele>339.0</ele><time>2026-04-09T12:56:14.085Z</time></trkpt><trkpt lat="41.1837633" lon="14.5438667"><ele>340.0</ele><time>2026-04-09T12:56:15.085Z</time></trkpt><trkpt lat="41.183805" lon="14.5440333"><ele>341.0</ele><time>2026-04-09T12:56:16.085Z</time></trkpt><trkpt lat="41.1838433" lon="14.54421"><ele>342.0</ele><time>2026-04-09T12:56:17.085Z</time></trkpt><trkpt lat="41.183875" lon="14.5443867"><ele>341.25</ele><time>2026-04-09T12:56:18.085Z</time></trkpt><trkpt lat="41.1838967" lon="14.54456"><ele>340.5</ele><time>2026-04-09T12:56:19.085Z</time></trkpt><trkpt lat="41.18391" lon="14.544745"><ele>339.75</ele><time>2026-04-09T12:56:20.085Z</time></trkpt><trkpt lat="41.183915" lon="14.5449283"><ele>339.0</ele><time>2026-04-09T12:56:21.085Z</time></trkpt><trkpt lat="41.183925" lon="14.5451183"><ele>339.0</ele><time>2026-04-09T12:56:22.085Z</time></trkpt><trkpt lat="41.18393" lon="14.5453083"><ele>339.0</ele><time>2026-04-09T12:56:23.085Z</time></trkpt><trkpt lat="41.1839367" lon="14.5454983"><ele>339.0</ele><time>2026-04-09T12:56:24.085Z</time></trkpt><trkpt lat="41.1839433" lon="14.5456917"><ele>339.0</ele><time>2026-04-09T12:56:25.085Z</time></trkpt><trkpt lat="41.18395" lon="14.54588"><ele>337.75</ele><time>2026-04-09T12:56:26.085Z</time></trkpt><trkpt lat="41.183955" lon="14.5460717"><ele>336.5</ele><time>2026-04-09T12:56:27.085Z</time></trkpt><trkpt lat="41.1839483" lon="14.5462583"><ele>335.25</ele><time>2026-04-09T12:56:28.085Z</time></trkpt><trkpt lat="41.1839483" lon="14.5464333"><ele>334.0</ele><time>2026-04-09T12:56:29.085Z</time></trkpt><trkpt lat="41.1839383" lon="14.5466133"><ele>331.0</ele><time>2026-04-09T12:56:30.085Z</time></trkpt><trkpt lat="41.18394" lon="14.5467867"><ele>328.0</ele><time>2026-04-09T12:56:31.085Z</time></trkpt><trkpt lat="41.183935" lon="14.5469467"><ele>325.0</ele><time>2026-04-09T12:56:32.085Z</time></trkpt><trkpt lat="41.18393" lon="14.5471"><ele>322.0</ele><time>2026-04-09T12:56:33.085Z</time></trkpt><trkpt lat="41.1839233" lon="14.5472383"><ele>317.20000000000005</ele><time>2026-04-09T12:56:34.085Z</time></trkpt><trkpt lat="41.18391" lon="14.5473683"><ele>312.40000000000003</ele><time>2026-04-09T12:56:35.085Z</time></trkpt><trkpt lat="41.1838717" lon="14.547485"><ele>307.6</ele><time>2026-04-09T12:56:36.085Z</time></trkpt><trkpt lat="41.183825" lon="14.5476033"><ele>302.8</ele><time>2026-04-09T12:56:37.085Z</time></trkpt><trkpt lat="41.1837617" lon="14.54771"><ele>298.0</ele><time>2026-04-09T12:56:38.085Z</time></trkpt><trkpt lat="41.1836917" lon="14.5478033"><ele>297.0</ele><time>2026-04-09T12:56:39.085Z</time></trkpt><trkpt lat="41.1836217" lon="14.5478933"><ele>296.0</ele><time>2026-04-09T12:56:40.085Z</time></trkpt><trkpt lat="41.1835717" lon="14.5479833"><ele>295.0</ele><time>2026-04-09T12:56:41.085Z</time></trkpt><trkpt lat="41.1835333" lon="14.5480767"><ele>294.0</ele><time>2026-04-09T12:56:42.085Z</time></trkpt><trkpt lat="41.18351" lon="14.5481683"><ele>293.0</ele><time>2026-04-09T12:56:43.085Z</time></trkpt><trkpt lat="41.1834983" lon="14.5482533"><ele>292.0</ele><time>2026-04-09T12:56:44.085Z</time></trkpt><trkpt lat="41.1834933" lon="14.548375"><ele>292.0</ele><time>2026-04-09T12:56:46.085Z</time></trkpt><trkpt lat="41.18362" lon="14.5483967"><ele>292.0</ele><time>2026-04-09T12:56:48.085Z</time></trkpt><trkpt lat="41.1837333" lon="14.5483483"><ele>292.0</ele><time>2026-04-09T12:56:49.085Z</time></trkpt><trkpt lat="41.1838667" lon="14.5483"><ele>292.0</ele><time>2026-04-09T12:56:50.085Z</time></trkpt><trkpt lat="41.1840117" lon="14.54823"><ele>289.0</ele><time>2026-04-09T12:56:51.085Z</time></trkpt><trkpt lat="41.1841433" lon="14.5481533"><ele>286.0</ele><time>2026-04-09T12:56:52.085Z</time></trkpt><trkpt lat="41.1842617" lon="14.5480667"><ele>283.0</ele><time>2026-04-09T12:56:53.085Z</time></trkpt><trkpt lat="41.18436" lon="14.5479833"><ele>280.0</ele><time>2026-04-09T12:56:54.085Z</time></trkpt><trkpt lat="41.184445" lon="14.54786"><ele>277.75</ele><time>2026-04-09T12:56:55.085Z</time></trkpt><trkpt lat="41.18451" lon="14.5477217"><ele>275.5</ele><time>2026-04-09T12:56:56.085Z</time></trkpt><trkpt lat="41.18458" lon="14.5475933"><ele>273.25</ele><time>2026-04-09T12:56:57.085Z</time></trkpt><trkpt lat="41.184665" lon="14.5474767"><ele>271.0</ele><time>2026-04-09T12:56:58.085Z</time></trkpt><trkpt lat="41.1847683" lon="14.5473717"><ele>269.0</ele><time>2026-04-09T12:56:59.085Z</time></trkpt><trkpt lat="41.18488" lon="14.5472683"><ele>267.0</ele><time>2026-04-09T12:57:00.085Z</time></trkpt><trkpt lat="41.1849833" lon="14.5471567"><ele>265.0</ele><time>2026-04-09T12:57:01.085Z</time></trkpt><trkpt lat="41.1850883" lon="14.5470267"><ele>263.0</ele><time>2026-04-09T12:57:02.085Z</time></trkpt><trkpt lat="41.1851933" lon="14.5468933"><ele>260.25</ele><time>2026-04-09T12:57:03.085Z</time></trkpt><trkpt lat="41.1853017" lon="14.5467767"><ele>257.5</ele><time>2026-04-09T12:57:04.085Z</time></trkpt><trkpt lat="41.1854017" lon="14.54665"><ele>254.75</ele><time>2026-04-09T12:57:05.085Z</time></trkpt><trkpt lat="41.185515" lon="14.546535"><ele>252.0</ele><time>2026-04-09T12:57:06.085Z</time></trkpt><trkpt lat="41.1856233" lon="14.5464233"><ele>252.0</ele><time>2026-04-09T12:57:07.085Z</time></trkpt><trkpt lat="41.18572" lon="14.5463117"><ele>252.0</ele><time>2026-04-09T12:57:08.085Z</time></trkpt><trkpt lat="41.1858283" lon="14.5462"><ele>252.0</ele><time>2026-04-09T12:57:09.085Z</time></trkpt><trkpt lat="41.1859383" lon="14.5460933"><ele>252.0</ele><time>2026-04-09T12:57:10.085Z</time></trkpt><trkpt lat="41.18605" lon="14.545985"><ele>248.25</ele><time>2026-04-09T12:57:11.085Z</time></trkpt><trkpt lat="41.186165" lon="14.545895"><ele>244.5</ele><time>2026-04-09T12:57:12.085Z</time></trkpt><trkpt lat="41.1862917" lon="14.5458083"><ele>240.75</ele><time>2026-04-09T12:57:13.085Z</time></trkpt><trkpt lat="41.186415" lon="14.5457367"><ele>237.0</ele><time>2026-04-09T12:57:14.085Z</time></trkpt><trkpt lat="41.1865433" lon="14.54566"><ele>237.0</ele><time>2026-04-09T12:57:15.085Z</time></trkpt><trkpt lat="41.1866767" lon="14.5455817"><ele>237.0</ele><time>2026-04-09T12:57:16.085Z</time></trkpt><trkpt lat="41.18682" lon="14.5455033"><ele>237.0</ele><time>2026-04-09T12:57:17.085Z</time></trkpt><trkpt lat="41.1869617" lon="14.5454233"><ele>234.25</ele><time>2026-04-09T12:57:18.085Z</time></trkpt><trkpt lat="41.1870967" lon="14.5453533"><ele>231.5</ele><time>2026-04-09T12:57:19.085Z</time></trkpt><trkpt lat="41.187235" lon="14.5452817"><ele>228.75</ele><time>2026-04-09T12:57:20.085Z</time></trkpt><trkpt lat="41.1873683" lon="14.5452233"><ele>226.0</ele><time>2026-04-09T12:57:21.085Z</time></trkpt><trkpt lat="41.1875" lon="14.5451617"><ele>224.25</ele><time>2026-04-09T12:57:22.085Z</time></trkpt><trkpt lat="41.1876283" lon="14.5450933"><ele>222.5</ele><time>2026-04-09T12:57:23.085Z</time></trkpt><trkpt lat="41.1877567" lon="14.5450267"><ele>220.75</ele><time>2026-04-09T12:57:24.085Z</time></trkpt><trkpt lat="41.1878883" lon="14.5449733"><ele>219.0</ele><time>2026-04-09T12:57:25.085Z</time></trkpt><trkpt lat="41.1880233" lon="14.5449217"><ele>219.0</ele><time>2026-04-09T12:57:26.085Z</time></trkpt><trkpt lat="41.1881533" lon="14.5448683"><ele>219.0</ele><time>2026-04-09T12:57:27.085Z</time></trkpt><trkpt lat="41.18828" lon="14.544825"><ele>219.0</ele><time>2026-04-09T12:57:28.085Z</time></trkpt><trkpt lat="41.18841" lon="14.5447783"><ele>219.0</ele><time>2026-04-09T12:57:29.085Z</time></trkpt><trkpt lat="41.188535" lon="14.5447367"><ele>218.75</ele><time>2026-04-09T12:57:30.085Z</time></trkpt><trkpt lat="41.1886533" lon="14.5447083"><ele>218.5</ele><time>2026-04-09T12:57:31.085Z</time></trkpt><trkpt lat="41.1887683" lon="14.54469"><ele>218.25</ele><time>2026-04-09T12:57:32.085Z</time></trkpt><trkpt lat="41.1888783" lon="14.5446733"><ele>218.0</ele><time>2026-04-09T12:57:33.085Z</time></trkpt><trkpt lat="41.18898" lon="14.5446483"><ele>216.60000000000002</ele><time>2026-04-09T12:57:34.085Z</time></trkpt><trkpt lat="41.1890733" lon="14.5446183"><ele>215.20000000000002</ele><time>2026-04-09T12:57:35.085Z</time></trkpt><trkpt lat="41.1891517" lon="14.54458"><ele>213.8</ele><time>2026-04-09T12:57:36.085Z</time></trkpt><trkpt lat="41.1892167" lon="14.5445383"><ele>212.4</ele><time>2026-04-09T12:57:37.085Z</time></trkpt><trkpt lat="41.1893233" lon="14.5444933"><ele>211.0</ele><time>2026-04-09T12:57:39.085Z</time></trkpt><trkpt lat="41.1894467" lon="14.5445133"><ele>210.99999999999997</ele><time>2026-04-09T12:57:41.085Z</time></trkpt><trkpt lat="41.18952" lon="14.5445567"><ele>211.0</ele><time>2026-04-09T12:57:42.085Z</time></trkpt><trkpt lat="41.189595" lon="14.544605"><ele>211.0</ele><time>2026-04-09T12:57:43.085Z</time></trkpt><trkpt lat="41.1896833" lon="14.5446533"><ele>211.0</ele><time>2026-04-09T12:57:44.085Z</time></trkpt><trkpt lat="41.1897667" lon="14.5446933"><ele>210.99999999999997</ele><time>2026-04-09T12:57:45.085Z</time></trkpt><trkpt lat="41.1898567" lon="14.54472"><ele>211.0</ele><time>2026-04-09T12:57:46.085Z</time></trkpt><trkpt lat="41.1899467" lon="14.5447283"><ele>209.99999999999997</ele><time>2026-04-09T12:57:47.085Z</time></trkpt><trkpt lat="41.1900283" lon="14.544715"><ele>209.0</ele><time>2026-04-09T12:57:48.085Z</time></trkpt><trkpt lat="41.1901117" lon="14.54469"><ele>208.0</ele><time>2026-04-09T12:57:49.085Z</time></trkpt><trkpt lat="41.19018" lon="14.5446567"><ele>207.0</ele><time>2026-04-09T12:57:50.085Z</time></trkpt><trkpt lat="41.190285" lon="14.5446033"><ele>205.99999999999997</ele><time>2026-04-09T12:57:52.085Z</time></trkpt><trkpt lat="41.1903467" lon="14.5445467"><ele>205.0</ele><time>2026-04-09T12:57:55.085Z</time></trkpt><trkpt lat="41.19038" lon="14.54447"><ele>204.83333333333331</ele><time>2026-04-09T12:57:58.085Z</time></trkpt><trkpt lat="41.1903567" lon="14.5443467"><ele>204.66666666666666</ele><time>2026-04-09T12:58:00.085Z</time></trkpt><trkpt lat="41.1903" lon="14.5441933"><ele>204.5</ele><time>2026-04-09T12:58:02.085Z</time></trkpt><trkpt lat="41.19027" lon="14.5441067"><ele>204.33333333333331</ele><time>2026-04-09T12:58:03.085Z</time></trkpt><trkpt lat="41.1902367" lon="14.5440217"><ele>204.16666666666666</ele><time>2026-04-09T12:58:04.085Z</time></trkpt><trkpt lat="41.1902033" lon="14.543925"><ele>204.0</ele><time>2026-04-09T12:58:05.085Z</time></trkpt><trkpt lat="41.1901717" lon="14.5438283"><ele>204.0</ele><time>2026-04-09T12:58:06.085Z</time></trkpt><trkpt lat="41.19015" lon="14.5437283"><ele>204.0</ele><time>2026-04-09T12:58:07.085Z</time></trkpt><trkpt lat="41.1901067" lon="14.5435617"><ele>204.0</ele><time>2026-04-09T12:58:09.085Z</time></trkpt><trkpt lat="41.190075" lon="14.5434767"><ele>204.0</ele><time>2026-04-09T12:58:10.085Z</time></trkpt><trkpt lat="41.1900483" lon="14.54339"><ele>204.0</ele><time>2026-04-09T12:58:11.085Z</time></trkpt><trkpt lat="41.1900167" lon="14.5432983"><ele>204.0</ele><time>2026-04-09T12:58:12.085Z</time></trkpt><trkpt lat="41.1899817" lon="14.54319"><ele>202.39999999999998</ele><time>2026-04-09T12:58:13.085Z</time></trkpt><trkpt lat="41.189955" lon="14.543035"><ele>200.8</ele><time>2026-04-09T12:58:14.085Z</time></trkpt><trkpt lat="41.189915" lon="14.5429067"><ele>199.2</ele><time>2026-04-09T12:58:15.085Z</time></trkpt><trkpt lat="41.1898783" lon="14.5427683"><ele>197.60000000000002</ele><time>2026-04-09T12:58:16.085Z</time></trkpt><trkpt lat="41.1898433" lon="14.5426283"><ele>196.0</ele><time>2026-04-09T12:58:17.085Z</time></trkpt><trkpt lat="41.1898117" lon="14.5424933"><ele>196.0</ele><time>2026-04-09T12:58:18.085Z</time></trkpt><trkpt lat="41.1897817" lon="14.5423633"><ele>196.0</ele><time>2026-04-09T12:58:19.085Z</time></trkpt><trkpt lat="41.1897483" lon="14.5422417"><ele>196.0</ele><time>2026-04-09T12:58:20.085Z</time></trkpt><trkpt lat="41.1897133" lon="14.5421233"><ele>196.0</ele><time>2026-04-09T12:58:21.085Z</time></trkpt><trkpt lat="41.18968" lon="14.542005"><ele>196.0</ele><time>2026-04-09T12:58:22.085Z</time></trkpt><trkpt lat="41.1896417" lon="14.541885"><ele>197.0</ele><time>2026-04-09T12:58:23.085Z</time></trkpt><trkpt lat="41.1895983" lon="14.541755"><ele>198.0</ele><time>2026-04-09T12:58:24.085Z</time></trkpt><trkpt lat="41.1895567" lon="14.5416333"><ele>199.0</ele><time>2026-04-09T12:58:25.085Z</time></trkpt><trkpt lat="41.1895167" lon="14.5415233"><ele>200.0</ele><time>2026-04-09T12:58:26.085Z</time></trkpt><trkpt lat="41.1894833" lon="14.5414067"><ele>201.0</ele><time>2026-04-09T12:58:27.085Z</time></trkpt><trkpt lat="41.18944" lon="14.5413167"><ele>201.0</ele><time>2026-04-09T12:58:28.085Z</time></trkpt><trkpt lat="41.18939" lon="14.5412267"><ele>201.0</ele><time>2026-04-09T12:58:29.085Z</time></trkpt><trkpt lat="41.1893467" lon="14.5411417"><ele>201.0</ele><time>2026-04-09T12:58:30.085Z</time></trkpt><trkpt lat="41.1892917" lon="14.5410467"><ele>201.0</ele><time>2026-04-09T12:58:31.085Z</time></trkpt><trkpt lat="41.18925" lon="14.540955"><ele>201.0</ele><time>2026-04-09T12:58:32.085Z</time></trkpt><trkpt lat="41.1891933" lon="14.5408883"><ele>201.0</ele><time>2026-04-09T12:58:33.085Z</time></trkpt><trkpt lat="41.189135" lon="14.5408217"><ele>201.4</ele><time>2026-04-09T12:58:34.085Z</time></trkpt><trkpt lat="41.18908" lon="14.5407433"><ele>201.8</ele><time>2026-04-09T12:58:35.085Z</time></trkpt><trkpt lat="41.1890267" lon="14.54064"><ele>202.20000000000002</ele><time>2026-04-09T12:58:36.085Z</time></trkpt><trkpt lat="41.1889767" lon="14.5405117"><ele>202.60000000000002</ele><time>2026-04-09T12:58:37.085Z</time></trkpt><trkpt lat="41.1889183" lon="14.5403883"><ele>203.0</ele><time>2026-04-09T12:58:38.085Z</time></trkpt><trkpt lat="41.18886" lon="14.540265"><ele>203.0</ele><time>2026-04-09T12:58:39.085Z</time></trkpt><trkpt lat="41.1888" lon="14.5401583"><ele>203.0</ele><time>2026-04-09T12:58:40.085Z</time></trkpt><trkpt lat="41.18875" lon="14.540045"><ele>203.0</ele><time>2026-04-09T12:58:41.085Z</time></trkpt><trkpt lat="41.1887" lon="14.53993"><ele>203.0</ele><time>2026-04-09T12:58:42.085Z</time></trkpt><trkpt lat="41.188645" lon="14.53981"><ele>203.0</ele><time>2026-04-09T12:58:43.085Z</time></trkpt><trkpt lat="41.188605" lon="14.5396883"><ele>203.0</ele><time>2026-04-09T12:58:44.085Z</time></trkpt><trkpt lat="41.1885633" lon="14.53957"><ele>203.0</ele><time>2026-04-09T12:58:45.085Z</time></trkpt><trkpt lat="41.1885033" lon="14.5394483"><ele>203.0</ele><time>2026-04-09T12:58:46.085Z</time></trkpt><trkpt lat="41.1884433" lon="14.53932"><ele>203.0</ele><time>2026-04-09T12:58:47.085Z</time></trkpt><trkpt lat="41.1883767" lon="14.5391833"><ele>203.0</ele><time>2026-04-09T12:58:48.085Z</time></trkpt><trkpt lat="41.188315" lon="14.5390467"><ele>202.5</ele><time>2026-04-09T12:58:49.085Z</time></trkpt><trkpt lat="41.1882583" lon="14.538915"><ele>202.0</ele><time>2026-04-09T12:58:50.085Z</time></trkpt><trkpt lat="41.188195" lon="14.53877"><ele>201.5</ele><time>2026-04-09T12:58:51.085Z</time></trkpt><trkpt lat="41.1881217" lon="14.5386333"><ele>201.0</ele><time>2026-04-09T12:58:52.085Z</time></trkpt><trkpt lat="41.1880517" lon="14.538485"><ele>201.0</ele><time>2026-04-09T12:58:53.085Z</time></trkpt><trkpt lat="41.1879767" lon="14.5383333"><ele>201.0</ele><time>2026-04-09T12:58:54.085Z</time></trkpt><trkpt lat="41.187915" lon="14.5381783"><ele>201.0</ele><time>2026-04-09T12:58:55.085Z</time></trkpt><trkpt lat="41.1878467" lon="14.53802"><ele>201.0</ele><time>2026-04-09T12:58:56.085Z</time></trkpt><trkpt lat="41.1877733" lon="14.537865"><ele>199.75</ele><time>2026-04-09T12:58:57.085Z</time></trkpt><trkpt lat="41.1877" lon="14.5376983"><ele>198.5</ele><time>2026-04-09T12:58:58.085Z</time></trkpt><trkpt lat="41.18764" lon="14.537555"><ele>197.25</ele><time>2026-04-09T12:58:59.085Z</time></trkpt><trkpt lat="41.1875867" lon="14.5374"><ele>196.0</ele><time>2026-04-09T12:59:00.085Z</time></trkpt><trkpt lat="41.187535" lon="14.537245"><ele>196.0</ele><time>2026-04-09T12:59:01.085Z</time></trkpt><trkpt lat="41.1874867" lon="14.5370717"><ele>196.0</ele><time>2026-04-09T12:59:02.085Z</time></trkpt><trkpt lat="41.187435" lon="14.5368833"><ele>196.0</ele><time>2026-04-09T12:59:03.085Z</time></trkpt><trkpt lat="41.1873883" lon="14.5367067"><ele>196.0</ele><time>2026-04-09T12:59:04.085Z</time></trkpt><trkpt lat="41.1873417" lon="14.5365333"><ele>196.75</ele><time>2026-04-09T12:59:05.085Z</time></trkpt><trkpt lat="41.1873" lon="14.5363717"><ele>197.5</ele><time>2026-04-09T12:59:06.085Z</time></trkpt><trkpt lat="41.18724" lon="14.536225"><ele>198.25</ele><time>2026-04-09T12:59:07.085Z</time></trkpt><trkpt lat="41.1871683" lon="14.5360917"><ele>199.0</ele><time>2026-04-09T12:59:08.085Z</time></trkpt><trkpt lat="41.187075" lon="14.53596"><ele>199.0</ele><time>2026-04-09T12:59:09.085Z</time></trkpt><trkpt lat="41.1869717" lon="14.5358183"><ele>199.0</ele><time>2026-04-09T12:59:10.085Z</time></trkpt><trkpt lat="41.1868617" lon="14.5356783"><ele>199.0</ele><time>2026-04-09T12:59:11.085Z</time></trkpt><trkpt lat="41.1867617" lon="14.5355383"><ele>199.0</ele><time>2026-04-09T12:59:12.085Z</time></trkpt><trkpt lat="41.186665" lon="14.5354183"><ele>198.0</ele><time>2026-04-09T12:59:13.085Z</time></trkpt><trkpt lat="41.186575" lon="14.5353033"><ele>197.0</ele><time>2026-04-09T12:59:14.085Z</time></trkpt><trkpt lat="41.1864833" lon="14.53519"><ele>196.0</ele><time>2026-04-09T12:59:15.085Z</time></trkpt><trkpt lat="41.1863983" lon="14.5350567"><ele>195.0</ele><time>2026-04-09T12:59:16.085Z</time></trkpt><trkpt lat="41.1863117" lon="14.5349033"><ele>198.0</ele><time>2026-04-09T12:59:17.085Z</time></trkpt><trkpt lat="41.1862333" lon="14.5347417"><ele>201.0</ele><time>2026-04-09T12:59:18.085Z</time></trkpt><trkpt lat="41.1861517" lon="14.53456"><ele>204.0</ele><time>2026-04-09T12:59:19.085Z</time></trkpt><trkpt lat="41.1860767" lon="14.53437"><ele>204.0</ele><time>2026-04-09T12:59:20.085Z</time></trkpt><trkpt lat="41.1860017" lon="14.534185"><ele>204.0</ele><time>2026-04-09T12:59:21.085Z</time></trkpt><trkpt lat="41.1859317" lon="14.5339983"><ele>204.0</ele><time>2026-04-09T12:59:22.085Z</time></trkpt><trkpt lat="41.1858517" lon="14.5338067"><ele>202.0</ele><time>2026-04-09T12:59:23.085Z</time></trkpt><trkpt lat="41.1857667" lon="14.53361"><ele>200.0</ele><time>2026-04-09T12:59:24.085Z</time></trkpt><trkpt lat="41.1856717" lon="14.5334083"><ele>198.0</ele><time>2026-04-09T12:59:25.085Z</time></trkpt><trkpt lat="41.18558" lon="14.5332033"><ele>202.0</ele><time>2026-04-09T12:59:26.085Z</time></trkpt><trkpt lat="41.18549" lon="14.533015"><ele>206.0</ele><time>2026-04-09T12:59:27.085Z</time></trkpt><trkpt lat="41.1853983" lon="14.5328333"><ele>210.0</ele><time>2026-04-09T12:59:28.085Z</time></trkpt><trkpt lat="41.1853117" lon="14.5326567"><ele>210.0</ele><time>2026-04-09T12:59:29.085Z</time></trkpt><trkpt lat="41.1852283" lon="14.5324967"><ele>210.0</ele><time>2026-04-09T12:59:30.085Z</time></trkpt><trkpt lat="41.1851533" lon="14.5323367"><ele>210.0</ele><time>2026-04-09T12:59:31.085Z</time></trkpt><trkpt lat="41.1850817" lon="14.5321783"><ele>210.0</ele><time>2026-04-09T12:59:32.085Z</time></trkpt><trkpt lat="41.18501" lon="14.5320083"><ele>208.5</ele><time>2026-04-09T12:59:33.085Z</time></trkpt><trkpt lat="41.1849333" lon="14.5318383"><ele>207.0</ele><time>2026-04-09T12:59:34.085Z</time></trkpt><trkpt lat="41.1848817" lon="14.5316733"><ele>205.5</ele><time>2026-04-09T12:59:35.085Z</time></trkpt><trkpt lat="41.1848433" lon="14.5314783"><ele>204.0</ele><time>2026-04-09T12:59:36.085Z</time></trkpt><trkpt lat="41.1848183" lon="14.5312683"><ele>213.33333333333331</ele><time>2026-04-09T12:59:37.085Z</time></trkpt><trkpt lat="41.1848017" lon="14.5310367"><ele>222.66666666666666</ele><time>2026-04-09T12:59:38.085Z</time></trkpt><trkpt lat="41.1847867" lon="14.5308083"><ele>232.0</ele><time>2026-04-09T12:59:39.085Z</time></trkpt><trkpt lat="41.1847767" lon="14.5305683"><ele>233.0</ele><time>2026-04-09T12:59:40.085Z</time></trkpt><trkpt lat="41.1847683" lon="14.5303333"><ele>234.0</ele><time>2026-04-09T12:59:41.085Z</time></trkpt><trkpt lat="41.184755" lon="14.5300967"><ele>235.0</ele><time>2026-04-09T12:59:42.085Z</time></trkpt><trkpt lat="41.184745" lon="14.529865"><ele>235.0</ele><time>2026-04-09T12:59:43.085Z</time></trkpt><trkpt lat="41.1847267" lon="14.5296317"><ele>235.0</ele><time>2026-04-09T12:59:44.085Z</time></trkpt><trkpt lat="41.1847217" lon="14.5294017"><ele>235.0</ele><time>2026-04-09T12:59:45.085Z</time></trkpt><trkpt lat="41.1847117" lon="14.5291967"><ele>235.33333333333331</ele><time>2026-04-09T12:59:46.085Z</time></trkpt><trkpt lat="41.184695" lon="14.5289833"><ele>235.66666666666669</ele><time>2026-04-09T12:59:47.085Z</time></trkpt><trkpt lat="41.1846883" lon="14.5287867"><ele>236.0</ele><time>2026-04-09T12:59:48.085Z</time></trkpt><trkpt lat="41.1846733" lon="14.5285783"><ele>236.0</ele><time>2026-04-09T12:59:49.085Z</time></trkpt><trkpt lat="41.1846633" lon="14.52837"><ele>236.0</ele><time>2026-04-09T12:59:50.085Z</time></trkpt><trkpt lat="41.1846467" lon="14.5281533"><ele>236.0</ele><time>2026-04-09T12:59:51.085Z</time></trkpt><trkpt lat="41.184635" lon="14.52794"><ele>236.33333333333334</ele><time>2026-04-09T12:59:52.085Z</time></trkpt><trkpt lat="41.18461" lon="14.527715"><ele>236.66666666666669</ele><time>2026-04-09T12:59:53.085Z</time></trkpt><trkpt lat="41.1845867" lon="14.5274883"><ele>237.0</ele><time>2026-04-09T12:59:54.085Z</time></trkpt><trkpt lat="41.1845633" lon="14.527275"><ele>237.0</ele><time>2026-04-09T12:59:55.085Z</time></trkpt><trkpt lat="41.1845383" lon="14.527065"><ele>237.0</ele><time>2026-04-09T12:59:56.085Z</time></trkpt><trkpt lat="41.18451" lon="14.52686"><ele>237.0</ele><time>2026-04-09T12:59:57.085Z</time></trkpt><trkpt lat="41.1844867" lon="14.526655"><ele>236.33333333333331</ele><time>2026-04-09T12:59:58.085Z</time></trkpt><trkpt lat="41.184465" lon="14.5264467"><ele>235.66666666666666</ele><time>2026-04-09T12:59:59.085Z</time></trkpt><trkpt lat="41.1844467" lon="14.5262383"><ele>235.0</ele><time>2026-04-09T13:00:00.085Z</time></trkpt><trkpt lat="41.1844233" lon="14.5260283"><ele>235.0</ele><time>2026-04-09T13:00:01.085Z</time></trkpt><trkpt lat="41.1843983" lon="14.5258083"><ele>235.0</ele><time>2026-04-09T13:00:02.085Z</time></trkpt><trkpt lat="41.184375" lon="14.5255917"><ele>235.0</ele><time>2026-04-09T13:00:03.085Z</time></trkpt><trkpt lat="41.1843483" lon="14.5253717"><ele>234.0</ele><time>2026-04-09T13:00:04.085Z</time></trkpt><trkpt lat="41.1843333" lon="14.5251567"><ele>233.0</ele><time>2026-04-09T13:00:05.085Z</time></trkpt><trkpt lat="41.1843117" lon="14.5249567"><ele>232.0</ele><time>2026-04-09T13:00:06.085Z</time></trkpt><trkpt lat="41.1842917" lon="14.5247467"><ele>230.0</ele><time>2026-04-09T13:00:07.085Z</time></trkpt><trkpt lat="41.1842633" lon="14.52454"><ele>228.0</ele><time>2026-04-09T13:00:08.085Z</time></trkpt><trkpt lat="41.1842417" lon="14.5243467"><ele>226.0</ele><time>2026-04-09T13:00:09.085Z</time></trkpt><trkpt lat="41.184225" lon="14.52415"><ele>226.0</ele><time>2026-04-09T13:00:10.085Z</time></trkpt><trkpt lat="41.1841967" lon="14.5239717"><ele>226.0</ele><time>2026-04-09T13:00:11.085Z</time></trkpt><trkpt lat="41.1841717" lon="14.52379"><ele>226.0</ele><time>2026-04-09T13:00:12.085Z</time></trkpt><trkpt lat="41.184135" lon="14.5236167"><ele>226.0</ele><time>2026-04-09T13:00:13.085Z</time></trkpt><trkpt lat="41.18409" lon="14.5234433"><ele>224.5</ele><time>2026-04-09T13:00:14.085Z</time></trkpt><trkpt lat="41.1840267" lon="14.52328"><ele>223.0</ele><time>2026-04-09T13:00:15.085Z</time></trkpt><trkpt lat="41.183955" lon="14.52313"><ele>221.5</ele><time>2026-04-09T13:00:16.085Z</time></trkpt><trkpt lat="41.183885" lon="14.522985"><ele>220.0</ele><time>2026-04-09T13:00:17.085Z</time></trkpt><trkpt lat="41.183845" lon="14.52284"><ele>229.0</ele><time>2026-04-09T13:00:18.085Z</time></trkpt><trkpt lat="41.1838383" lon="14.52269"><ele>238.0</ele><time>2026-04-09T13:00:19.085Z</time></trkpt><trkpt lat="41.183865" lon="14.5225383"><ele>247.0</ele><time>2026-04-09T13:00:20.085Z</time></trkpt><trkpt lat="41.1839167" lon="14.5224167"><ele>256.0</ele><time>2026-04-09T13:00:21.085Z</time></trkpt><trkpt lat="41.1839533" lon="14.5222817"><ele>265.0</ele><time>2026-04-09T13:00:22.085Z</time></trkpt><trkpt lat="41.1839783" lon="14.5221417"><ele>266.25</ele><time>2026-04-09T13:00:23.085Z</time></trkpt><trkpt lat="41.1839783" lon="14.5219917"><ele>267.5</ele><time>2026-04-09T13:00:24.085Z</time></trkpt><trkpt lat="41.1839583" lon="14.52182"><ele>268.75</ele><time>2026-04-09T13:00:25.085Z</time></trkpt><trkpt lat="41.18392" lon="14.5216483"><ele>270.0</ele><time>2026-04-09T13:00:26.085Z</time></trkpt><trkpt lat="41.1838917" lon="14.5214833"><ele>270.0</ele><time>2026-04-09T13:00:27.085Z</time></trkpt><trkpt lat="41.18389" lon="14.5213267"><ele>270.0</ele><time>2026-04-09T13:00:28.085Z</time></trkpt><trkpt lat="41.18391" lon="14.5211817"><ele>270.0</ele><time>2026-04-09T13:00:29.085Z</time></trkpt><trkpt lat="41.1839417" lon="14.52104"><ele>270.0</ele><time>2026-04-09T13:00:30.085Z</time></trkpt><trkpt lat="41.1839967" lon="14.52089"><ele>261.25</ele><time>2026-04-09T13:00:31.085Z</time></trkpt><trkpt lat="41.18406" lon="14.5207417"><ele>252.5</ele><time>2026-04-09T13:00:32.085Z</time></trkpt><trkpt lat="41.1841083" lon="14.5205783"><ele>243.75</ele><time>2026-04-09T13:00:33.085Z</time></trkpt><trkpt lat="41.1841433" lon="14.5204083"><ele>235.0</ele><time>2026-04-09T13:00:34.085Z</time></trkpt><trkpt lat="41.18416" lon="14.520225"><ele>235.0</ele><time>2026-04-09T13:00:35.085Z</time></trkpt><trkpt lat="41.18417" lon="14.520045"><ele>235.0</ele><time>2026-04-09T13:00:36.085Z</time></trkpt><trkpt lat="41.1841617" lon="14.5198767"><ele>235.0</ele><time>2026-04-09T13:00:37.085Z</time></trkpt><trkpt lat="41.1841533" lon="14.5197233"><ele>235.0</ele><time>2026-04-09T13:00:38.085Z</time></trkpt><trkpt lat="41.1841317" lon="14.5195667"><ele>232.5</ele><time>2026-04-09T13:00:39.085Z</time></trkpt><trkpt lat="41.18409" lon="14.5194117"><ele>230.0</ele><time>2026-04-09T13:00:40.085Z</time></trkpt><trkpt lat="41.1840367" lon="14.5192633"><ele>227.5</ele><time>2026-04-09T13:00:41.085Z</time></trkpt><trkpt lat="41.1839683" lon="14.5191317"><ele>225.0</ele><time>2026-04-09T13:00:42.085Z</time></trkpt><trkpt lat="41.1838783" lon="14.5190217"><ele>226.25</ele><time>2026-04-09T13:00:43.085Z</time></trkpt><trkpt lat="41.1837683" lon="14.5189167"><ele>227.5</ele><time>2026-04-09T13:00:44.085Z</time></trkpt><trkpt lat="41.1836433" lon="14.5188083"><ele>228.75</ele><time>2026-04-09T13:00:45.085Z</time></trkpt><trkpt lat="41.1835083" lon="14.5186983"><ele>230.0</ele><time>2026-04-09T13:00:46.085Z</time></trkpt><trkpt lat="41.183395" lon="14.5185833"><ele>230.0</ele><time>2026-04-09T13:00:47.085Z</time></trkpt><trkpt lat="41.1832933" lon="14.51847"><ele>230.0</ele><time>2026-04-09T13:00:48.085Z</time></trkpt><trkpt lat="41.1831983" lon="14.51836"><ele>230.0</ele><time>2026-04-09T13:00:49.085Z</time></trkpt><trkpt lat="41.1831133" lon="14.5182433"><ele>230.0</ele><time>2026-04-09T13:00:50.085Z</time></trkpt><trkpt lat="41.1830367" lon="14.5181383"><ele>234.75</ele><time>2026-04-09T13:00:51.085Z</time></trkpt><trkpt lat="41.1829417" lon="14.51806"><ele>239.5</ele><time>2026-04-09T13:00:52.085Z</time></trkpt><trkpt lat="41.1828367" lon="14.5180083"><ele>244.25</ele><time>2026-04-09T13:00:53.085Z</time></trkpt><trkpt lat="41.1827267" lon="14.517985"><ele>249.0</ele><time>2026-04-09T13:00:54.085Z</time></trkpt><trkpt lat="41.1826067" lon="14.5179967"><ele>249.0</ele><time>2026-04-09T13:00:55.085Z</time></trkpt><trkpt lat="41.1824833" lon="14.518045"><ele>249.0</ele><time>2026-04-09T13:00:56.085Z</time></trkpt><trkpt lat="41.1823733" lon="14.5181067"><ele>249.0</ele><time>2026-04-09T13:00:57.085Z</time></trkpt><trkpt lat="41.1822667" lon="14.5181767"><ele>249.0</ele><time>2026-04-09T13:00:58.085Z</time></trkpt><trkpt lat="41.1821567" lon="14.5182267"><ele>249.5</ele><time>2026-04-09T13:00:59.085Z</time></trkpt><trkpt lat="41.1820433" lon="14.51824"><ele>250.0</ele><time>2026-04-09T13:01:00.085Z</time></trkpt><trkpt lat="41.18192" lon="14.5182283"><ele>250.5</ele><time>2026-04-09T13:01:01.085Z</time></trkpt><trkpt lat="41.1817883" lon="14.518195"><ele>251.0</ele><time>2026-04-09T13:01:02.085Z</time></trkpt><trkpt lat="41.1816617" lon="14.51815"><ele>251.0</ele><time>2026-04-09T13:01:03.085Z</time></trkpt><trkpt lat="41.1815383" lon="14.5181083"><ele>251.0</ele><time>2026-04-09T13:01:04.085Z</time></trkpt><trkpt lat="41.1814083" lon="14.5180867"><ele>251.0</ele><time>2026-04-09T13:01:05.085Z</time></trkpt><trkpt lat="41.1812833" lon="14.51809"><ele>251.0</ele><time>2026-04-09T13:01:06.085Z</time></trkpt><trkpt lat="41.18116" lon="14.5181033"><ele>248.25</ele><time>2026-04-09T13:01:07.085Z</time></trkpt><trkpt lat="41.18105" lon="14.51814"><ele>245.5</ele><time>2026-04-09T13:01:08.085Z</time></trkpt><trkpt lat="41.18095" lon="14.5182117"><ele>242.75</ele><time>2026-04-09T13:01:09.085Z</time></trkpt><trkpt lat="41.1808517" lon="14.5183083"><ele>240.0</ele><time>2026-04-09T13:01:10.085Z</time></trkpt><trkpt lat="41.18076" lon="14.5184283"><ele>241.0</ele><time>2026-04-09T13:01:11.085Z</time></trkpt><trkpt lat="41.18067" lon="14.5185633"><ele>242.0</ele><time>2026-04-09T13:01:12.085Z</time></trkpt><trkpt lat="41.18058" lon="14.51871"><ele>243.0</ele><time>2026-04-09T13:01:13.085Z</time></trkpt><trkpt lat="41.1804867" lon="14.5188567"><ele>244.0</ele><time>2026-04-09T13:01:14.085Z</time></trkpt><trkpt lat="41.180395" lon="14.5189933"><ele>244.0</ele><time>2026-04-09T13:01:15.085Z</time></trkpt><trkpt lat="41.18031" lon="14.5191167"><ele>244.0</ele><time>2026-04-09T13:01:16.085Z</time></trkpt><trkpt lat="41.1802267" lon="14.5192333"><ele>244.0</ele><time>2026-04-09T13:01:17.085Z</time></trkpt><trkpt lat="41.18015" lon="14.51934"><ele>244.0</ele><time>2026-04-09T13:01:18.085Z</time></trkpt><trkpt lat="41.1800717" lon="14.5194317"><ele>244.0</ele><time>2026-04-09T13:01:19.085Z</time></trkpt><trkpt lat="41.1799917" lon="14.5194917"><ele>243.99999999999997</ele><time>2026-04-09T13:01:20.085Z</time></trkpt><trkpt lat="41.1799033" lon="14.5195067"><ele>243.99999999999997</ele><time>2026-04-09T13:01:21.085Z</time></trkpt><trkpt lat="41.1798067" lon="14.5194883"><ele>244.0</ele><time>2026-04-09T13:01:22.085Z</time></trkpt><trkpt lat="41.1797067" lon="14.51944"><ele>244.0</ele><time>2026-04-09T13:01:23.085Z</time></trkpt><trkpt lat="41.1796017" lon="14.5193567"><ele>247.0</ele><time>2026-04-09T13:01:24.085Z</time></trkpt><trkpt lat="41.1795" lon="14.5192317"><ele>250.0</ele><time>2026-04-09T13:01:25.085Z</time></trkpt><trkpt lat="41.1793967" lon="14.5191083"><ele>253.0</ele><time>2026-04-09T13:01:26.085Z</time></trkpt><trkpt lat="41.1792933" lon="14.518985"><ele>256.0</ele><time>2026-04-09T13:01:27.085Z</time></trkpt><trkpt lat="41.1791867" lon="14.5188367"><ele>253.0</ele><time>2026-04-09T13:01:28.085Z</time></trkpt><trkpt lat="41.1790683" lon="14.5186817"><ele>250.0</ele><time>2026-04-09T13:01:29.085Z</time></trkpt><trkpt lat="41.1789333" lon="14.5185333"><ele>247.0</ele><time>2026-04-09T13:01:30.085Z</time></trkpt><trkpt lat="41.1787817" lon="14.5183667"><ele>248.33333333333331</ele><time>2026-04-09T13:01:31.085Z</time></trkpt><trkpt lat="41.178635" lon="14.51819"><ele>249.66666666666669</ele><time>2026-04-09T13:01:32.085Z</time></trkpt><trkpt lat="41.1784967" lon="14.518025"><ele>251.0</ele><time>2026-04-09T13:01:33.085Z</time></trkpt><trkpt lat="41.1783683" lon="14.5178767"><ele>251.0</ele><time>2026-04-09T13:01:34.085Z</time></trkpt><trkpt lat="41.17825" lon="14.5177417"><ele>251.0</ele><time>2026-04-09T13:01:35.085Z</time></trkpt><trkpt lat="41.1781483" lon="14.5176167"><ele>251.0</ele><time>2026-04-09T13:01:36.085Z</time></trkpt><trkpt lat="41.1780633" lon="14.5174883"><ele>251.0</ele><time>2026-04-09T13:01:37.085Z</time></trkpt><trkpt lat="41.17799" lon="14.51735"><ele>258.25</ele><time>2026-04-09T13:01:38.085Z</time></trkpt><trkpt lat="41.1779317" lon="14.5172017"><ele>265.5</ele><time>2026-04-09T13:01:39.085Z</time></trkpt><trkpt lat="41.1778917" lon="14.5170517"><ele>272.75</ele><time>2026-04-09T13:01:40.085Z</time></trkpt><trkpt lat="41.177875" lon="14.5168883"><ele>280.0</ele><time>2026-04-09T13:01:41.085Z</time></trkpt><trkpt lat="41.1778767" lon="14.5167117"><ele>280.0</ele><time>2026-04-09T13:01:42.085Z</time></trkpt><trkpt lat="41.1778917" lon="14.5165233"><ele>280.0</ele><time>2026-04-09T13:01:43.085Z</time></trkpt><trkpt lat="41.1779167" lon="14.5163317"><ele>280.0</ele><time>2026-04-09T13:01:44.085Z</time></trkpt><trkpt lat="41.1779317" lon="14.5161483"><ele>280.0</ele><time>2026-04-09T13:01:45.085Z</time></trkpt><trkpt lat="41.1779483" lon="14.5159633"><ele>280.0</ele><time>2026-04-09T13:01:46.085Z</time></trkpt><trkpt lat="41.1779433" lon="14.51578"><ele>280.0</ele><time>2026-04-09T13:01:47.085Z</time></trkpt><trkpt lat="41.1779217" lon="14.5156067"><ele>280.0</ele><time>2026-04-09T13:01:48.085Z</time></trkpt><trkpt lat="41.1778867" lon="14.5154417"><ele>280.0</ele><time>2026-04-09T13:01:49.085Z</time></trkpt><trkpt lat="41.17783" lon="14.5152983"><ele>275.5</ele><time>2026-04-09T13:01:50.085Z</time></trkpt><trkpt lat="41.1777633" lon="14.51517"><ele>271.0</ele><time>2026-04-09T13:01:51.085Z</time></trkpt><trkpt lat="41.17768" lon="14.515065"><ele>266.5</ele><time>2026-04-09T13:01:52.085Z</time></trkpt><trkpt lat="41.1775783" lon="14.5149783"><ele>262.0</ele><time>2026-04-09T13:01:53.085Z</time></trkpt><trkpt lat="41.177455" lon="14.514895"><ele>266.25</ele><time>2026-04-09T13:01:54.085Z</time></trkpt><trkpt lat="41.17732" lon="14.5148167"><ele>270.5</ele><time>2026-04-09T13:01:55.085Z</time></trkpt><trkpt lat="41.177185" lon="14.514745"><ele>274.75</ele><time>2026-04-09T13:01:56.085Z</time></trkpt><trkpt lat="41.1770517" lon="14.5146767"><ele>279.0</ele><time>2026-04-09T13:01:57.085Z</time></trkpt><trkpt lat="41.1769183" lon="14.514615"><ele>279.0</ele><time>2026-04-09T13:01:58.085Z</time></trkpt><trkpt lat="41.1767733" lon="14.5145717"><ele>279.0</ele><time>2026-04-09T13:01:59.085Z</time></trkpt><trkpt lat="41.1766183" lon="14.5145383"><ele>279.0</ele><time>2026-04-09T13:02:00.085Z</time></trkpt><trkpt lat="41.1764683" lon="14.5145067"><ele>275.5</ele><time>2026-04-09T13:02:01.085Z</time></trkpt><trkpt lat="41.1763183" lon="14.514465"><ele>272.0</ele><time>2026-04-09T13:02:02.085Z</time></trkpt><trkpt lat="41.1761783" lon="14.5144383"><ele>268.5</ele><time>2026-04-09T13:02:03.085Z</time></trkpt><trkpt lat="41.1760517" lon="14.5144033"><ele>265.0</ele><time>2026-04-09T13:02:04.085Z</time></trkpt><trkpt lat="41.17593" lon="14.5143633"><ele>265.0</ele><time>2026-04-09T13:02:05.085Z</time></trkpt><trkpt lat="41.1758217" lon="14.51431"><ele>265.0</ele><time>2026-04-09T13:02:06.085Z</time></trkpt><trkpt lat="41.1757233" lon="14.5142283"><ele>265.0</ele><time>2026-04-09T13:02:07.085Z</time></trkpt><trkpt lat="41.175635" lon="14.5141267"><ele>265.0</ele><time>2026-04-09T13:02:08.085Z</time></trkpt><trkpt lat="41.175565" lon="14.5139967"><ele>267.0</ele><time>2026-04-09T13:02:09.085Z</time></trkpt><trkpt lat="41.1755117" lon="14.5138383"><ele>269.0</ele><time>2026-04-09T13:02:10.085Z</time></trkpt><trkpt lat="41.1754567" lon="14.5136667"><ele>271.0</ele><time>2026-04-09T13:02:11.085Z</time></trkpt><trkpt lat="41.1754067" lon="14.5134883"><ele>273.0</ele><time>2026-04-09T13:02:12.085Z</time></trkpt><trkpt lat="41.1753533" lon="14.51332"><ele>273.0</ele><time>2026-04-09T13:02:13.085Z</time></trkpt><trkpt lat="41.17531" lon="14.5131617"><ele>273.0</ele><time>2026-04-09T13:02:14.085Z</time></trkpt><trkpt lat="41.17526" lon="14.5130117"><ele>273.0</ele><time>2026-04-09T13:02:15.085Z</time></trkpt><trkpt lat="41.1752083" lon="14.51287"><ele>273.0</ele><time>2026-04-09T13:02:16.085Z</time></trkpt><trkpt lat="41.175135" lon="14.5127317"><ele>272.0</ele><time>2026-04-09T13:02:17.085Z</time></trkpt><trkpt lat="41.1750467" lon="14.5126217"><ele>271.0</ele><time>2026-04-09T13:02:18.085Z</time></trkpt><trkpt lat="41.1749483" lon="14.5125167"><ele>270.0</ele><time>2026-04-09T13:02:19.085Z</time></trkpt><trkpt lat="41.1748317" lon="14.5124167"><ele>269.0</ele><time>2026-04-09T13:02:20.085Z</time></trkpt><trkpt lat="41.174705" lon="14.5123083"><ele>269.0</ele><time>2026-04-09T13:02:21.085Z</time></trkpt><trkpt lat="41.1745867" lon="14.5121983"><ele>269.0</ele><time>2026-04-09T13:02:22.085Z</time></trkpt><trkpt lat="41.1744817" lon="14.5120967"><ele>269.0</ele><time>2026-04-09T13:02:23.085Z</time></trkpt><trkpt lat="41.1743767" lon="14.5120017"><ele>269.0</ele><time>2026-04-09T13:02:24.085Z</time></trkpt><trkpt lat="41.1742717" lon="14.5119083"><ele>269.0</ele><time>2026-04-09T13:02:25.085Z</time></trkpt><trkpt lat="41.174165" lon="14.511815"><ele>269.0</ele><time>2026-04-09T13:02:26.085Z</time></trkpt><trkpt lat="41.1740467" lon="14.5117467"><ele>269.0</ele><time>2026-04-09T13:02:27.085Z</time></trkpt><trkpt lat="41.1739233" lon="14.51169"><ele>269.0</ele><time>2026-04-09T13:02:28.085Z</time></trkpt><trkpt lat="41.1738017" lon="14.5116533"><ele>269.75</ele><time>2026-04-09T13:02:29.085Z</time></trkpt><trkpt lat="41.1736717" lon="14.5116383"><ele>270.5</ele><time>2026-04-09T13:02:30.085Z</time></trkpt><trkpt lat="41.1735383" lon="14.511645"><ele>271.25</ele><time>2026-04-09T13:02:31.085Z</time></trkpt><trkpt lat="41.173415" lon="14.5116783"><ele>272.0</ele><time>2026-04-09T13:02:32.085Z</time></trkpt><trkpt lat="41.1732967" lon="14.5117333"><ele>271.0</ele><time>2026-04-09T13:02:33.085Z</time></trkpt><trkpt lat="41.1731867" lon="14.511805"><ele>270.0</ele><time>2026-04-09T13:02:34.085Z</time></trkpt><trkpt lat="41.1730883" lon="14.5118967"><ele>269.0</ele><time>2026-04-09T13:02:35.085Z</time></trkpt><trkpt lat="41.1730017" lon="14.5120133"><ele>268.0</ele><time>2026-04-09T13:02:36.085Z</time></trkpt><trkpt lat="41.172915" lon="14.5121483"><ele>270.0</ele><time>2026-04-09T13:02:37.085Z</time></trkpt><trkpt lat="41.1728217" lon="14.5122917"><ele>272.0</ele><time>2026-04-09T13:02:38.085Z</time></trkpt><trkpt lat="41.1727217" lon="14.512445"><ele>274.0</ele><time>2026-04-09T13:02:39.085Z</time></trkpt><trkpt lat="41.17262" lon="14.5125917"><ele>276.0</ele><time>2026-04-09T13:02:40.085Z</time></trkpt><trkpt lat="41.1725167" lon="14.51274"><ele>276.0</ele><time>2026-04-09T13:02:41.085Z</time></trkpt><trkpt lat="41.172415" lon="14.51288"><ele>276.0</ele><time>2026-04-09T13:02:42.085Z</time></trkpt><trkpt lat="41.1723033" lon="14.5129967"><ele>276.0</ele><time>2026-04-09T13:02:43.085Z</time></trkpt><trkpt lat="41.17217" lon="14.5131017"><ele>276.0</ele><time>2026-04-09T13:02:44.085Z</time></trkpt><trkpt lat="41.1720383" lon="14.5131967"><ele>277.5</ele><time>2026-04-09T13:02:45.085Z</time></trkpt><trkpt lat="41.17191" lon="14.513285"><ele>279.0</ele><time>2026-04-09T13:02:46.085Z</time></trkpt><trkpt lat="41.1717883" lon="14.5133783"><ele>280.5</ele><time>2026-04-09T13:02:47.085Z</time></trkpt><trkpt lat="41.1716733" lon="14.513475"><ele>282.0</ele><time>2026-04-09T13:02:48.085Z</time></trkpt><trkpt lat="41.1715583" lon="14.5135517"><ele>281.5</ele><time>2026-04-09T13:02:49.085Z</time></trkpt><trkpt lat="41.17144" lon="14.5136183"><ele>281.0</ele><time>2026-04-09T13:02:50.085Z</time></trkpt><trkpt lat="41.1713117" lon="14.513665"><ele>280.5</ele><time>2026-04-09T13:02:51.085Z</time></trkpt><trkpt lat="41.1711733" lon="14.5136933"><ele>280.0</ele><time>2026-04-09T13:02:52.085Z</time></trkpt><trkpt lat="41.1710267" lon="14.5137167"><ele>283.0</ele><time>2026-04-09T13:02:53.085Z</time></trkpt><trkpt lat="41.1708717" lon="14.513745"><ele>286.0</ele><time>2026-04-09T13:02:54.085Z</time></trkpt><trkpt lat="41.1707333" lon="14.5137633"><ele>289.0</ele><time>2026-04-09T13:02:55.085Z</time></trkpt><trkpt lat="41.17061" lon="14.51378"><ele>292.0</ele><time>2026-04-09T13:02:56.085Z</time></trkpt><trkpt lat="41.17049" lon="14.51377"><ele>291.25</ele><time>2026-04-09T13:02:57.085Z</time></trkpt><trkpt lat="41.1703717" lon="14.513725"><ele>290.5</ele><time>2026-04-09T13:02:58.085Z</time></trkpt><trkpt lat="41.170245" lon="14.5136617"><ele>289.75</ele><time>2026-04-09T13:02:59.085Z</time></trkpt><trkpt lat="41.1701317" lon="14.5135717"><ele>289.0</ele><time>2026-04-09T13:03:00.085Z</time></trkpt><trkpt lat="41.17002" lon="14.51349"><ele>289.0</ele><time>2026-04-09T13:03:01.085Z</time></trkpt><trkpt lat="41.1699083" lon="14.5134383"><ele>289.0</ele><time>2026-04-09T13:03:02.085Z</time></trkpt><trkpt lat="41.1697917" lon="14.5134133"><ele>289.0</ele><time>2026-04-09T13:03:03.085Z</time></trkpt><trkpt lat="41.169665" lon="14.513425"><ele>289.0</ele><time>2026-04-09T13:03:04.085Z</time></trkpt><trkpt lat="41.1695333" lon="14.5134717"><ele>289.0</ele><time>2026-04-09T13:03:05.085Z</time></trkpt><trkpt lat="41.169405" lon="14.51353"><ele>289.0</ele><time>2026-04-09T13:03:06.085Z</time></trkpt><trkpt lat="41.1692683" lon="14.513595"><ele>289.0</ele><time>2026-04-09T13:03:07.085Z</time></trkpt><trkpt lat="41.1691367" lon="14.5136633"><ele>289.0</ele><time>2026-04-09T13:03:08.085Z</time></trkpt><trkpt lat="41.1690167" lon="14.513745"><ele>289.75</ele><time>2026-04-09T13:03:09.085Z</time></trkpt><trkpt lat="41.1689067" lon="14.5138367"><ele>290.5</ele><time>2026-04-09T13:03:10.085Z</time></trkpt><trkpt lat="41.168795" lon="14.5139517"><ele>291.25</ele><time>2026-04-09T13:03:11.085Z</time></trkpt><trkpt lat="41.1686867" lon="14.514075"><ele>292.0</ele><time>2026-04-09T13:03:12.085Z</time></trkpt><trkpt lat="41.1685783" lon="14.5141983"><ele>292.0</ele><time>2026-04-09T13:03:13.085Z</time></trkpt><trkpt lat="41.168485" lon="14.5143"><ele>292.0</ele><time>2026-04-09T13:03:14.085Z</time></trkpt><trkpt lat="41.168395" lon="14.514385"><ele>292.0</ele><time>2026-04-09T13:03:15.085Z</time></trkpt><trkpt lat="41.1682933" lon="14.5144517"><ele>292.0</ele><time>2026-04-09T13:03:16.085Z</time></trkpt><trkpt lat="41.1681883" lon="14.5144833"><ele>293.75</ele><time>2026-04-09T13:03:17.085Z</time></trkpt><trkpt lat="41.1680717" lon="14.5144783"><ele>295.5</ele><time>2026-04-09T13:03:18.085Z</time></trkpt><trkpt lat="41.1679367" lon="14.5144433"><ele>297.25</ele><time>2026-04-09T13:03:19.085Z</time></trkpt><trkpt lat="41.1677967" lon="14.5143767"><ele>299.0</ele><time>2026-04-09T13:03:20.085Z</time></trkpt><trkpt lat="41.1676517" lon="14.5143217"><ele>299.0</ele><time>2026-04-09T13:03:21.085Z</time></trkpt><trkpt lat="41.1675067" lon="14.514285"><ele>299.0</ele><time>2026-04-09T13:03:22.085Z</time></trkpt><trkpt lat="41.1673583" lon="14.5142717"><ele>299.0</ele><time>2026-04-09T13:03:23.085Z</time></trkpt><trkpt lat="41.1672133" lon="14.5142683"><ele>299.0</ele><time>2026-04-09T13:03:24.085Z</time></trkpt><trkpt lat="41.16708" lon="14.5142633"><ele>299.0</ele><time>2026-04-09T13:03:25.085Z</time></trkpt><trkpt lat="41.1669567" lon="14.514275"><ele>299.0</ele><time>2026-04-09T13:03:26.085Z</time></trkpt><trkpt lat="41.1668317" lon="14.5142983"><ele>299.0</ele><time>2026-04-09T13:03:27.085Z</time></trkpt><trkpt lat="41.1667067" lon="14.5143467"><ele>299.0</ele><time>2026-04-09T13:03:28.085Z</time></trkpt><trkpt lat="41.16658" lon="14.5144133"><ele>298.0</ele><time>2026-04-09T13:03:29.085Z</time></trkpt><trkpt lat="41.1664583" lon="14.5145017"><ele>297.0</ele><time>2026-04-09T13:03:30.085Z</time></trkpt><trkpt lat="41.1663367" lon="14.514605"><ele>296.0</ele><time>2026-04-09T13:03:31.085Z</time></trkpt><trkpt lat="41.1662233" lon="14.5147067"><ele>295.0</ele><time>2026-04-09T13:03:32.085Z</time></trkpt><trkpt lat="41.1661183" lon="14.5148"><ele>298.0</ele><time>2026-04-09T13:03:33.085Z</time></trkpt><trkpt lat="41.16602" lon="14.5149083"><ele>301.0</ele><time>2026-04-09T13:03:34.085Z</time></trkpt><trkpt lat="41.1659283" lon="14.5150433"><ele>304.0</ele><time>2026-04-09T13:03:35.085Z</time></trkpt><trkpt lat="41.165845" lon="14.5152017"><ele>307.0</ele><time>2026-04-09T13:03:36.085Z</time></trkpt><trkpt lat="41.1657783" lon="14.5153533"><ele>308.25</ele><time>2026-04-09T13:03:37.085Z</time></trkpt><trkpt lat="41.1657067" lon="14.5155067"><ele>309.5</ele><time>2026-04-09T13:03:38.085Z</time></trkpt><trkpt lat="41.1656317" lon="14.5156317"><ele>310.75</ele><time>2026-04-09T13:03:39.085Z</time></trkpt><trkpt lat="41.165535" lon="14.5157467"><ele>312.0</ele><time>2026-04-09T13:03:40.085Z</time></trkpt><trkpt lat="41.1654283" lon="14.5158567"><ele>312.0</ele><time>2026-04-09T13:03:41.085Z</time></trkpt><trkpt lat="41.1653067" lon="14.5159367"><ele>312.0</ele><time>2026-04-09T13:03:42.085Z</time></trkpt><trkpt lat="41.1651817" lon="14.5159833"><ele>312.0</ele><time>2026-04-09T13:03:43.085Z</time></trkpt><trkpt lat="41.1650483" lon="14.5160083"><ele>312.0</ele><time>2026-04-09T13:03:44.085Z</time></trkpt><trkpt lat="41.16491" lon="14.516015"><ele>312.5</ele><time>2026-04-09T13:03:45.085Z</time></trkpt><trkpt lat="41.1647717" lon="14.5160317"><ele>313.0</ele><time>2026-04-09T13:03:46.085Z</time></trkpt><trkpt lat="41.1646333" lon="14.5160467"><ele>313.5</ele><time>2026-04-09T13:03:47.085Z</time></trkpt><trkpt lat="41.1645033" lon="14.516085"><ele>314.0</ele><time>2026-04-09T13:03:48.085Z</time></trkpt><trkpt lat="41.164375" lon="14.5161483"><ele>314.0</ele><time>2026-04-09T13:03:49.085Z</time></trkpt><trkpt lat="41.164255" lon="14.516225"><ele>314.0</ele><time>2026-04-09T13:03:50.085Z</time></trkpt><trkpt lat="41.164145" lon="14.5163217"><ele>314.0</ele><time>2026-04-09T13:03:51.085Z</time></trkpt><trkpt lat="41.16404" lon="14.51645"><ele>314.0</ele><time>2026-04-09T13:03:52.085Z</time></trkpt><trkpt lat="41.16395" lon="14.51661"><ele>313.6666666666667</ele><time>2026-04-09T13:03:53.085Z</time></trkpt><trkpt lat="41.16386" lon="14.5167867"><ele>313.3333333333333</ele><time>2026-04-09T13:03:54.085Z</time></trkpt><trkpt lat="41.1637717" lon="14.5169617"><ele>313.0</ele><time>2026-04-09T13:03:55.085Z</time></trkpt><trkpt lat="41.16369" lon="14.51713"><ele>315.0</ele><time>2026-04-09T13:03:56.085Z</time></trkpt><trkpt lat="41.1636017" lon="14.51729"><ele>317.0</ele><time>2026-04-09T13:03:57.085Z</time></trkpt><trkpt lat="41.1635283" lon="14.51744"><ele>319.0</ele><time>2026-04-09T13:03:58.085Z</time></trkpt><trkpt lat="41.1634517" lon="14.5175883"><ele>321.0</ele><time>2026-04-09T13:03:59.085Z</time></trkpt><trkpt lat="41.16338" lon="14.5177383"><ele>321.0</ele><time>2026-04-09T13:04:00.085Z</time></trkpt><trkpt lat="41.1633083" lon="14.5179017"><ele>321.0</ele><time>2026-04-09T13:04:01.085Z</time></trkpt><trkpt lat="41.1632333" lon="14.5180683"><ele>321.0</ele><time>2026-04-09T13:04:02.085Z</time></trkpt><trkpt lat="41.1631517" lon="14.5182417"><ele>321.0</ele><time>2026-04-09T13:04:03.085Z</time></trkpt><trkpt lat="41.1630733" lon="14.51842"><ele>320.75</ele><time>2026-04-09T13:04:04.085Z</time></trkpt><trkpt lat="41.1630067" lon="14.5186017"><ele>320.5</ele><time>2026-04-09T13:04:05.085Z</time></trkpt><trkpt lat="41.1629483" lon="14.5187717"><ele>320.25</ele><time>2026-04-09T13:04:06.085Z</time></trkpt><trkpt lat="41.162895" lon="14.5189267"><ele>320.0</ele><time>2026-04-09T13:04:07.085Z</time></trkpt><trkpt lat="41.1628383" lon="14.51908"><ele>322.25</ele><time>2026-04-09T13:04:08.085Z</time></trkpt><trkpt lat="41.162755" lon="14.5192233"><ele>324.5</ele><time>2026-04-09T13:04:09.085Z</time></trkpt><trkpt lat="41.162665" lon="14.5193567"><ele>326.75</ele><time>2026-04-09T13:04:10.085Z</time></trkpt><trkpt lat="41.1625683" lon="14.5194867"><ele>329.0</ele><time>2026-04-09T13:04:11.085Z</time></trkpt><trkpt lat="41.1624583" lon="14.5196083"><ele>329.5</ele><time>2026-04-09T13:04:12.085Z</time></trkpt><trkpt lat="41.16234" lon="14.5197233"><ele>330.0</ele><time>2026-04-09T13:04:13.085Z</time></trkpt><trkpt lat="41.16222" lon="14.5198283"><ele>330.5</ele><time>2026-04-09T13:04:14.085Z</time></trkpt><trkpt lat="41.1620933" lon="14.519935"><ele>331.0</ele><time>2026-04-09T13:04:15.085Z</time></trkpt><trkpt lat="41.1619667" lon="14.520055"><ele>331.0</ele><time>2026-04-09T13:04:16.085Z</time></trkpt><trkpt lat="41.161845" lon="14.5201733"><ele>331.0</ele><time>2026-04-09T13:04:17.085Z</time></trkpt><trkpt lat="41.1617367" lon="14.5202867"><ele>331.0</ele><time>2026-04-09T13:04:18.085Z</time></trkpt><trkpt lat="41.1616417" lon="14.5204"><ele>331.0</ele><time>2026-04-09T13:04:19.085Z</time></trkpt><trkpt lat="41.16155" lon="14.520505"><ele>333.0</ele><time>2026-04-09T13:04:20.085Z</time></trkpt><trkpt lat="41.16146" lon="14.52062"><ele>335.0</ele><time>2026-04-09T13:04:21.085Z</time></trkpt><trkpt lat="41.16137" lon="14.5207333"><ele>337.0</ele><time>2026-04-09T13:04:22.085Z</time></trkpt><trkpt lat="41.1612717" lon="14.5208483"><ele>339.0</ele><time>2026-04-09T13:04:23.085Z</time></trkpt><trkpt lat="41.1611667" lon="14.52095"><ele>339.0</ele><time>2026-04-09T13:04:24.085Z</time></trkpt><trkpt lat="41.1610383" lon="14.521035"><ele>339.0</ele><time>2026-04-09T13:04:25.085Z</time></trkpt><trkpt lat="41.1609" lon="14.5211"><ele>339.0</ele><time>2026-04-09T13:04:26.085Z</time></trkpt><trkpt lat="41.16077" lon="14.5211433"><ele>339.0</ele><time>2026-04-09T13:04:27.085Z</time></trkpt><trkpt lat="41.1606517" lon="14.521205"><ele>340.0</ele><time>2026-04-09T13:04:28.085Z</time></trkpt><trkpt lat="41.1605367" lon="14.5212767"><ele>341.0</ele><time>2026-04-09T13:04:29.085Z</time></trkpt><trkpt lat="41.1604317" lon="14.5213733"><ele>342.0</ele><time>2026-04-09T13:04:30.085Z</time></trkpt><trkpt lat="41.1603417" lon="14.5215033"><ele>343.0</ele><time>2026-04-09T13:04:31.085Z</time></trkpt><trkpt lat="41.16027" lon="14.5216567"><ele>343.0</ele><time>2026-04-09T13:04:32.085Z</time></trkpt><trkpt lat="41.160205" lon="14.5218183"><ele>343.0</ele><time>2026-04-09T13:04:33.085Z</time></trkpt><trkpt lat="41.1601433" lon="14.5219783"><ele>343.0</ele><time>2026-04-09T13:04:34.085Z</time></trkpt><trkpt lat="41.1600767" lon="14.5221267"><ele>343.0</ele><time>2026-04-09T13:04:35.085Z</time></trkpt><trkpt lat="41.1600333" lon="14.52228"><ele>344.25</ele><time>2026-04-09T13:04:36.085Z</time></trkpt><trkpt lat="41.159975" lon="14.5224367"><ele>345.5</ele><time>2026-04-09T13:04:37.085Z</time></trkpt><trkpt lat="41.159915" lon="14.52259"><ele>346.75</ele><time>2026-04-09T13:04:38.085Z</time></trkpt><trkpt lat="41.159845" lon="14.5227367"><ele>348.0</ele><time>2026-04-09T13:04:39.085Z</time></trkpt><trkpt lat="41.1597683" lon="14.522865"><ele>349.75</ele><time>2026-04-09T13:04:40.085Z</time></trkpt><trkpt lat="41.1596967" lon="14.5229783"><ele>351.5</ele><time>2026-04-09T13:04:41.085Z</time></trkpt><trkpt lat="41.15962" lon="14.523095"><ele>353.25</ele><time>2026-04-09T13:04:42.085Z</time></trkpt><trkpt lat="41.1595283" lon="14.5232017"><ele>355.0</ele><time>2026-04-09T13:04:43.085Z</time></trkpt><trkpt lat="41.1594267" lon="14.523305"><ele>355.0</ele><time>2026-04-09T13:04:44.085Z</time></trkpt><trkpt lat="41.1593317" lon="14.52341"><ele>355.0</ele><time>2026-04-09T13:04:45.085Z</time></trkpt><trkpt lat="41.1592317" lon="14.5235167"><ele>355.0</ele><time>2026-04-09T13:04:46.085Z</time></trkpt><trkpt lat="41.1591333" lon="14.5236233"><ele>355.0</ele><time>2026-04-09T13:04:47.085Z</time></trkpt><trkpt lat="41.159035" lon="14.52372"><ele>355.0</ele><time>2026-04-09T13:04:48.085Z</time></trkpt><trkpt lat="41.15895" lon="14.5238167"><ele>355.0</ele><time>2026-04-09T13:04:49.085Z</time></trkpt><trkpt lat="41.1588517" lon="14.5239017"><ele>355.0</ele><time>2026-04-09T13:04:50.085Z</time></trkpt><trkpt lat="41.158765" lon="14.5239883"><ele>355.0</ele><time>2026-04-09T13:04:51.085Z</time></trkpt><trkpt lat="41.15869" lon="14.5240667"><ele>355.0</ele><time>2026-04-09T13:04:52.085Z</time></trkpt><trkpt lat="41.158635" lon="14.5241433"><ele>355.0</ele><time>2026-04-09T13:04:53.085Z</time></trkpt><trkpt lat="41.15858" lon="14.5242167"><ele>355.0</ele><time>2026-04-09T13:04:54.085Z</time></trkpt><trkpt lat="41.1585267" lon="14.5242833"><ele>355.0</ele><time>2026-04-09T13:04:55.085Z</time></trkpt><trkpt lat="41.1584767" lon="14.5243467"><ele>355.0</ele><time>2026-04-09T13:04:56.085Z</time></trkpt><trkpt lat="41.1584217" lon="14.5244017"><ele>355.0</ele><time>2026-04-09T13:04:57.085Z</time></trkpt><trkpt lat="41.158355" lon="14.5245267"><ele>355.0</ele><time>2026-04-09T13:04:59.085Z</time></trkpt><trkpt lat="41.1583317" lon="14.5246217"><ele>356.16666666666663</ele><time>2026-04-09T13:05:00.085Z</time></trkpt><trkpt lat="41.15832" lon="14.5247183"><ele>357.3333333333333</ele><time>2026-04-09T13:05:01.085Z</time></trkpt><trkpt lat="41.15832" lon="14.5248167"><ele>358.5</ele><time>2026-04-09T13:05:02.085Z</time></trkpt><trkpt lat="41.1583167" lon="14.52492"><ele>359.6666666666667</ele><time>2026-04-09T13:05:03.085Z</time></trkpt><trkpt lat="41.15831" lon="14.5250267"><ele>360.83333333333337</ele><time>2026-04-09T13:05:04.085Z</time></trkpt><trkpt lat="41.1582933" lon="14.525125"><ele>362.0</ele><time>2026-04-09T13:05:05.085Z</time></trkpt><trkpt lat="41.1582767" lon="14.5252217"><ele>362.0</ele><time>2026-04-09T13:05:06.085Z</time></trkpt><trkpt lat="41.15824" lon="14.5252967"><ele>362.0</ele><time>2026-04-09T13:05:07.085Z</time></trkpt><trkpt lat="41.15824" lon="14.52541"><ele>362.0</ele><time>2026-04-09T13:05:08.085Z</time></trkpt><trkpt lat="41.158225" lon="14.5255067"><ele>362.0</ele><time>2026-04-09T13:05:09.085Z</time></trkpt><trkpt lat="41.15821" lon="14.5255883"><ele>362.0</ele><time>2026-04-09T13:05:10.085Z</time></trkpt><trkpt lat="41.1581817" lon="14.52574"><ele>362.0</ele><time>2026-04-09T13:05:12.085Z</time></trkpt><trkpt lat="41.1582033" lon="14.5258617"><ele>362.5</ele><time>2026-04-09T13:05:14.085Z</time></trkpt><trkpt lat="41.1582767" lon="14.52596"><ele>363.0</ele><time>2026-04-09T13:05:16.085Z</time></trkpt><trkpt lat="41.1583267" lon="14.526035"><ele>363.5</ele><time>2026-04-09T13:05:17.085Z</time></trkpt><trkpt lat="41.1583633" lon="14.526125"><ele>364.0</ele><time>2026-04-09T13:05:18.085Z</time></trkpt><trkpt lat="41.1583717" lon="14.526225"><ele>364.5</ele><time>2026-04-09T13:05:19.085Z</time></trkpt><trkpt lat="41.158365" lon="14.5263467"><ele>365.0</ele><time>2026-04-09T13:05:20.085Z</time></trkpt><trkpt lat="41.1583533" lon="14.5264717"><ele>365.7142857142857</ele><time>2026-04-09T13:05:21.085Z</time></trkpt><trkpt lat="41.158355" lon="14.52658"><ele>366.42857142857144</ele><time>2026-04-09T13:05:22.085Z</time></trkpt><trkpt lat="41.158375" lon="14.5266717"><ele>367.1428571428571</ele><time>2026-04-09T13:05:23.085Z</time></trkpt><trkpt lat="41.15841" lon="14.52675"><ele>367.8571428571429</ele><time>2026-04-09T13:05:24.085Z</time></trkpt><trkpt lat="41.1584683" lon="14.5267883"><ele>368.57142857142856</ele><time>2026-04-09T13:05:25.085Z</time></trkpt><trkpt lat="41.1585383" lon="14.5268033"><ele>369.2857142857143</ele><time>2026-04-09T13:05:26.085Z</time></trkpt><trkpt lat="41.1586067" lon="14.52679"><ele>370.0</ele><time>2026-04-09T13:05:27.085Z</time></trkpt><trkpt lat="41.1586767" lon="14.5267167"><ele>370.0</ele><time>2026-04-09T13:05:28.085Z</time></trkpt><trkpt lat="41.15874" lon="14.5266167"><ele>370.0</ele><time>2026-04-09T13:05:29.085Z</time></trkpt><trkpt lat="41.1587867" lon="14.526485"><ele>370.0</ele><time>2026-04-09T13:05:30.085Z</time></trkpt><trkpt lat="41.1588367" lon="14.5263483"><ele>370.0</ele><time>2026-04-09T13:05:31.085Z</time></trkpt><trkpt lat="41.1588833" lon="14.5262067"><ele>370.0</ele><time>2026-04-09T13:05:32.085Z</time></trkpt><trkpt lat="41.1589383" lon="14.526055"><ele>368.75</ele><time>2026-04-09T13:05:33.085Z</time></trkpt><trkpt lat="41.1589967" lon="14.5259083"><ele>367.5</ele><time>2026-04-09T13:05:34.085Z</time></trkpt><trkpt lat="41.159055" lon="14.525755"><ele>366.25</ele><time>2026-04-09T13:05:35.085Z</time></trkpt><trkpt lat="41.159115" lon="14.5256083"><ele>365.0</ele><time>2026-04-09T13:05:36.085Z</time></trkpt><trkpt lat="41.1591717" lon="14.5254667"><ele>367.4</ele><time>2026-04-09T13:05:37.085Z</time></trkpt><trkpt lat="41.15923" lon="14.5253383"><ele>369.8</ele><time>2026-04-09T13:05:38.085Z</time></trkpt><trkpt lat="41.159285" lon="14.5252117"><ele>372.20000000000005</ele><time>2026-04-09T13:05:39.085Z</time></trkpt><trkpt lat="41.159335" lon="14.5250867"><ele>374.6</ele><time>2026-04-09T13:05:40.085Z</time></trkpt><trkpt lat="41.1593783" lon="14.5249783"><ele>377.0</ele><time>2026-04-09T13:05:41.085Z</time></trkpt><trkpt lat="41.15942" lon="14.5248867"><ele>377.0</ele><time>2026-04-09T13:05:42.085Z</time></trkpt><trkpt lat="41.159465" lon="14.5248067"><ele>377.0</ele><time>2026-04-09T13:05:43.085Z</time></trkpt><trkpt lat="41.1595167" lon="14.5247383"><ele>377.0</ele><time>2026-04-09T13:05:44.085Z</time></trkpt><trkpt lat="41.1595967" lon="14.5246917"><ele>377.0</ele><time>2026-04-09T13:05:45.085Z</time></trkpt><trkpt lat="41.1596817" lon="14.52467"><ele>377.0</ele><time>2026-04-09T13:05:46.085Z</time></trkpt><trkpt lat="41.1597617" lon="14.5247"><ele>377.0</ele><time>2026-04-09T13:05:47.085Z</time></trkpt><trkpt lat="41.1598283" lon="14.524765"><ele>377.0</ele><time>2026-04-09T13:05:48.085Z</time></trkpt><trkpt lat="41.15988" lon="14.5248533"><ele>377.0</ele><time>2026-04-09T13:05:49.085Z</time></trkpt><trkpt lat="41.1599" lon="14.5249533"><ele>377.0</ele><time>2026-04-09T13:05:50.085Z</time></trkpt><trkpt lat="41.1598917" lon="14.5250667"><ele>377.0</ele><time>2026-04-09T13:05:51.085Z</time></trkpt><trkpt lat="41.1598533" lon="14.5251983"><ele>377.0</ele><time>2026-04-09T13:05:52.085Z</time></trkpt><trkpt lat="41.159805" lon="14.5253433"><ele>378.25</ele><time>2026-04-09T13:05:53.085Z</time></trkpt><trkpt lat="41.1597517" lon="14.5255"><ele>379.5</ele><time>2026-04-09T13:05:54.085Z</time></trkpt><trkpt lat="41.1597233" lon="14.5256783"><ele>380.75</ele><time>2026-04-09T13:05:55.085Z</time></trkpt><trkpt lat="41.159695" lon="14.5258617"><ele>382.0</ele><time>2026-04-09T13:05:56.085Z</time></trkpt><trkpt lat="41.159675" lon="14.5260333"><ele>382.0</ele><time>2026-04-09T13:05:57.085Z</time></trkpt><trkpt lat="41.1596517" lon="14.5261983"><ele>382.0</ele><time>2026-04-09T13:05:58.085Z</time></trkpt><trkpt lat="41.1596367" lon="14.5263767"><ele>382.0</ele><time>2026-04-09T13:05:59.085Z</time></trkpt><trkpt lat="41.15963" lon="14.5265583"><ele>382.0</ele><time>2026-04-09T13:06:00.085Z</time></trkpt><trkpt lat="41.1596183" lon="14.526745"><ele>383.0</ele><time>2026-04-09T13:06:01.085Z</time></trkpt><trkpt lat="41.1596033" lon="14.5269433"><ele>384.0</ele><time>2026-04-09T13:06:02.085Z</time></trkpt><trkpt lat="41.1595883" lon="14.5271383"><ele>385.0</ele><time>2026-04-09T13:06:03.085Z</time></trkpt><trkpt lat="41.1595733" lon="14.5273267"><ele>386.0</ele><time>2026-04-09T13:06:04.085Z</time></trkpt><trkpt lat="41.1595517" lon="14.527515"><ele>387.25</ele><time>2026-04-09T13:06:05.085Z</time></trkpt><trkpt lat="41.1595167" lon="14.527705"><ele>388.5</ele><time>2026-04-09T13:06:06.085Z</time></trkpt><trkpt lat="41.159465" lon="14.5278817"><ele>389.75</ele><time>2026-04-09T13:06:07.085Z</time></trkpt><trkpt lat="41.1594167" lon="14.52805"><ele>391.0</ele><time>2026-04-09T13:06:08.085Z</time></trkpt><trkpt lat="41.1593733" lon="14.5282067"><ele>392.75</ele><time>2026-04-09T13:06:09.085Z</time></trkpt><trkpt lat="41.1593383" lon="14.5283617"><ele>394.5</ele><time>2026-04-09T13:06:10.085Z</time></trkpt><trkpt lat="41.1593167" lon="14.5285233"><ele>396.25</ele><time>2026-04-09T13:06:11.085Z</time></trkpt><trkpt lat="41.1593017" lon="14.528705"><ele>398.0</ele><time>2026-04-09T13:06:12.085Z</time></trkpt><trkpt lat="41.1592883" lon="14.5288983"><ele>398.75</ele><time>2026-04-09T13:06:13.085Z</time></trkpt><trkpt lat="41.15928" lon="14.5290933"><ele>399.5</ele><time>2026-04-09T13:06:14.085Z</time></trkpt><trkpt lat="41.1592667" lon="14.5292817"><ele>400.25</ele><time>2026-04-09T13:06:15.085Z</time></trkpt><trkpt lat="41.1592583" lon="14.5294483"><ele>401.0</ele><time>2026-04-09T13:06:16.085Z</time></trkpt><trkpt lat="41.15925" lon="14.5296017"><ele>403.0</ele><time>2026-04-09T13:06:17.085Z</time></trkpt><trkpt lat="41.1592383" lon="14.529755"><ele>405.0</ele><time>2026-04-09T13:06:18.085Z</time></trkpt><trkpt lat="41.1592283" lon="14.5299067"><ele>407.0</ele><time>2026-04-09T13:06:19.085Z</time></trkpt><trkpt lat="41.159205" lon="14.5300583"><ele>409.0</ele><time>2026-04-09T13:06:20.085Z</time></trkpt><trkpt lat="41.159175" lon="14.5302067"><ele>409.0</ele><time>2026-04-09T13:06:21.085Z</time></trkpt><trkpt lat="41.1591317" lon="14.5303383"><ele>409.0</ele><time>2026-04-09T13:06:22.085Z</time></trkpt><trkpt lat="41.1590783" lon="14.5304683"><ele>409.0</ele><time>2026-04-09T13:06:23.085Z</time></trkpt><trkpt lat="41.1590283" lon="14.5305933"><ele>409.0</ele><time>2026-04-09T13:06:24.085Z</time></trkpt><trkpt lat="41.15897" lon="14.5307133"><ele>409.0</ele><time>2026-04-09T13:06:25.085Z</time></trkpt><trkpt lat="41.1589067" lon="14.53083"><ele>409.0</ele><time>2026-04-09T13:06:26.085Z</time></trkpt><trkpt lat="41.1588433" lon="14.53094"><ele>409.0</ele><time>2026-04-09T13:06:27.085Z</time></trkpt><trkpt lat="41.1587817" lon="14.5310583"><ele>409.0</ele><time>2026-04-09T13:06:28.085Z</time></trkpt><trkpt lat="41.15871" lon="14.5311833"><ele>409.0</ele><time>2026-04-09T13:06:29.085Z</time></trkpt><trkpt lat="41.1586317" lon="14.531325"><ele>411.75</ele><time>2026-04-09T13:06:30.085Z</time></trkpt><trkpt lat="41.158545" lon="14.531465"><ele>414.5</ele><time>2026-04-09T13:06:31.085Z</time></trkpt><trkpt lat="41.1584633" lon="14.5316033"><ele>417.25</ele><time>2026-04-09T13:06:32.085Z</time></trkpt><trkpt lat="41.1583933" lon="14.5317367"><ele>420.0</ele><time>2026-04-09T13:06:33.085Z</time></trkpt><trkpt lat="41.1583217" lon="14.531875"><ele>420.0</ele><time>2026-04-09T13:06:34.085Z</time></trkpt><trkpt lat="41.1582467" lon="14.5320133"><ele>420.0</ele><time>2026-04-09T13:06:35.085Z</time></trkpt><trkpt lat="41.1581633" lon="14.53215"><ele>420.0</ele><time>2026-04-09T13:06:36.085Z</time></trkpt><trkpt lat="41.1580933" lon="14.5322783"><ele>420.0</ele><time>2026-04-09T13:06:37.085Z</time></trkpt><trkpt lat="41.1580183" lon="14.5324117"><ele>421.25</ele><time>2026-04-09T13:06:38.085Z</time></trkpt><trkpt lat="41.15795" lon="14.5325533"><ele>422.5</ele><time>2026-04-09T13:06:39.085Z</time></trkpt><trkpt lat="41.157895" lon="14.53271"><ele>423.75</ele><time>2026-04-09T13:06:40.085Z</time></trkpt><trkpt lat="41.157845" lon="14.53288"><ele>425.0</ele><time>2026-04-09T13:06:41.085Z</time></trkpt><trkpt lat="41.157795" lon="14.53305"><ele>425.0</ele><time>2026-04-09T13:06:42.085Z</time></trkpt><trkpt lat="41.1577517" lon="14.5332033"><ele>425.0</ele><time>2026-04-09T13:06:43.085Z</time></trkpt><trkpt lat="41.1577017" lon="14.533345"><ele>425.0</ele><time>2026-04-09T13:06:44.085Z</time></trkpt><trkpt lat="41.1576383" lon="14.53348"><ele>425.0</ele><time>2026-04-09T13:06:45.085Z</time></trkpt><trkpt lat="41.1575583" lon="14.533605"><ele>425.25</ele><time>2026-04-09T13:06:46.085Z</time></trkpt><trkpt lat="41.15747" lon="14.5337233"><ele>425.5</ele><time>2026-04-09T13:06:47.085Z</time></trkpt><trkpt lat="41.1573767" lon="14.5338433"><ele>425.75</ele><time>2026-04-09T13:06:48.085Z</time></trkpt><trkpt lat="41.157275" lon="14.5339567"><ele>426.0</ele><time>2026-04-09T13:06:49.085Z</time></trkpt><trkpt lat="41.1571667" lon="14.5340633"><ele>426.0</ele><time>2026-04-09T13:06:50.085Z</time></trkpt><trkpt lat="41.1570683" lon="14.5341683"><ele>426.0</ele><time>2026-04-09T13:06:51.085Z</time></trkpt><trkpt lat="41.1569717" lon="14.5342733"><ele>426.0</ele><time>2026-04-09T13:06:52.085Z</time></trkpt><trkpt lat="41.1568733" lon="14.5343733"><ele>426.0</ele><time>2026-04-09T13:06:53.085Z</time></trkpt><trkpt lat="41.1567767" lon="14.5344833"><ele>426.20000000000005</ele><time>2026-04-09T13:06:54.085Z</time></trkpt><trkpt lat="41.1566867" lon="14.5345883"><ele>426.40000000000003</ele><time>2026-04-09T13:06:55.085Z</time></trkpt><trkpt lat="41.156605" lon="14.534675"><ele>426.6</ele><time>2026-04-09T13:06:56.085Z</time></trkpt><trkpt lat="41.1565283" lon="14.5347583"><ele>426.8</ele><time>2026-04-09T13:06:57.085Z</time></trkpt><trkpt lat="41.15646" lon="14.5348383"><ele>427.0</ele><time>2026-04-09T13:06:58.085Z</time></trkpt><trkpt lat="41.1564133" lon="14.5349317"><ele>427.0</ele><time>2026-04-09T13:06:59.085Z</time></trkpt><trkpt lat="41.1563817" lon="14.5350317"><ele>427.0</ele><time>2026-04-09T13:07:00.085Z</time></trkpt><trkpt lat="41.15637" lon="14.535125"><ele>427.0</ele><time>2026-04-09T13:07:01.085Z</time></trkpt><trkpt lat="41.1563783" lon="14.5352167"><ele>427.0</ele><time>2026-04-09T13:07:02.085Z</time></trkpt><trkpt lat="41.15642" lon="14.535285"><ele>427.0</ele><time>2026-04-09T13:07:03.085Z</time></trkpt><trkpt lat="41.1564817" lon="14.5353267"><ele>427.0</ele><time>2026-04-09T13:07:04.085Z</time></trkpt><trkpt lat="41.1565633" lon="14.5353"><ele>427.0</ele><time>2026-04-09T13:07:05.085Z</time></trkpt><trkpt lat="41.1566467" lon="14.5352467"><ele>431.75</ele><time>2026-04-09T13:07:06.085Z</time></trkpt><trkpt lat="41.1567367" lon="14.5351733"><ele>436.5</ele><time>2026-04-09T13:07:07.085Z</time></trkpt><trkpt lat="41.1568367" lon="14.5350683"><ele>441.25</ele><time>2026-04-09T13:07:08.085Z</time></trkpt><trkpt lat="41.1569533" lon="14.53496"><ele>446.0</ele><time>2026-04-09T13:07:09.085Z</time></trkpt><trkpt lat="41.1570867" lon="14.5348483"><ele>446.0</ele><time>2026-04-09T13:07:10.085Z</time></trkpt><trkpt lat="41.1572283" lon="14.5347533"><ele>446.0</ele><time>2026-04-09T13:07:11.085Z</time></trkpt><trkpt lat="41.1573517" lon="14.5346533"><ele>446.0</ele><time>2026-04-09T13:07:12.085Z</time></trkpt><trkpt lat="41.1574583" lon="14.53458"><ele>446.0</ele><time>2026-04-09T13:07:13.085Z</time></trkpt><trkpt lat="41.1575467" lon="14.5345283"><ele>445.49999999999994</ele><time>2026-04-09T13:07:14.085Z</time></trkpt><trkpt lat="41.1576167" lon="14.5344933"><ele>445.0</ele><time>2026-04-09T13:07:15.085Z</time></trkpt><trkpt lat="41.1577267" lon="14.5345233"><ele>444.5</ele><time>2026-04-09T13:07:17.085Z</time></trkpt><trkpt lat="41.1577667" lon="14.534595"><ele>444.0</ele><time>2026-04-09T13:07:18.085Z</time></trkpt><trkpt lat="41.15779" lon="14.5346767"><ele>443.49999999999994</ele><time>2026-04-09T13:07:19.085Z</time></trkpt><trkpt lat="41.15777" lon="14.53477"><ele>443.0</ele><time>2026-04-09T13:07:20.085Z</time></trkpt><trkpt lat="41.157725" lon="14.534865"><ele>443.59999999999997</ele><time>2026-04-09T13:07:21.085Z</time></trkpt><trkpt lat="41.157655" lon="14.5349533"><ele>444.19999999999993</ele><time>2026-04-09T13:07:22.085Z</time></trkpt><trkpt lat="41.1575667" lon="14.5350433"><ele>444.8</ele><time>2026-04-09T13:07:23.085Z</time></trkpt><trkpt lat="41.157465" lon="14.535125"><ele>445.4</ele><time>2026-04-09T13:07:24.085Z</time></trkpt><trkpt lat="41.1573683" lon="14.5352067"><ele>446.0</ele><time>2026-04-09T13:07:25.085Z</time></trkpt><trkpt lat="41.1572617" lon="14.5353017"><ele>450.25</ele><time>2026-04-09T13:07:26.085Z</time></trkpt><trkpt lat="41.1571583" lon="14.5354083"><ele>454.5</ele><time>2026-04-09T13:07:27.085Z</time></trkpt><trkpt lat="41.1570617" lon="14.535515"><ele>458.75</ele><time>2026-04-09T13:07:28.085Z</time></trkpt><trkpt lat="41.1569767" lon="14.5356333"><ele>463.0</ele><time>2026-04-09T13:07:29.085Z</time></trkpt><trkpt lat="41.1569" lon="14.5357583"><ele>463.0</ele><time>2026-04-09T13:07:30.085Z</time></trkpt><trkpt lat="41.1568333" lon="14.5358717"><ele>462.99999999999994</ele><time>2026-04-09T13:07:31.085Z</time></trkpt><trkpt lat="41.1567683" lon="14.53598"><ele>462.99999999999994</ele><time>2026-04-09T13:07:32.085Z</time></trkpt><trkpt lat="41.1567167" lon="14.5360783"><ele>463.0</ele><time>2026-04-09T13:07:33.085Z</time></trkpt><trkpt lat="41.1566667" lon="14.5361883"><ele>463.0</ele><time>2026-04-09T13:07:34.085Z</time></trkpt><trkpt lat="41.1566317" lon="14.5363133"><ele>466.0</ele><time>2026-04-09T13:07:35.085Z</time></trkpt><trkpt lat="41.1566133" lon="14.5364483"><ele>468.99999999999994</ele><time>2026-04-09T13:07:36.085Z</time></trkpt><trkpt lat="41.1566183" lon="14.536595"><ele>471.99999999999994</ele><time>2026-04-09T13:07:37.085Z</time></trkpt><trkpt lat="41.1566383" lon="14.5367433"><ele>475.0</ele><time>2026-04-09T13:07:38.085Z</time></trkpt><trkpt lat="41.156635" lon="14.5368717"><ele>478.0</ele><time>2026-04-09T13:07:39.085Z</time></trkpt><trkpt lat="41.1566217" lon="14.5369883"><ele>475.79999999999995</ele><time>2026-04-09T13:07:40.085Z</time></trkpt><trkpt lat="41.15659" lon="14.53709"><ele>473.59999999999997</ele><time>2026-04-09T13:07:41.085Z</time></trkpt><trkpt lat="41.1565317" lon="14.53719"><ele>471.40000000000003</ele><time>2026-04-09T13:07:42.085Z</time></trkpt><trkpt lat="41.1564617" lon="14.5372933"><ele>469.20000000000005</ele><time>2026-04-09T13:07:43.085Z</time></trkpt><trkpt lat="41.1563867" lon="14.53743"><ele>467.0</ele><time>2026-04-09T13:07:44.085Z</time></trkpt><trkpt lat="41.156315" lon="14.5375867"><ele>467.0</ele><time>2026-04-09T13:07:45.085Z</time></trkpt><trkpt lat="41.156255" lon="14.5377483"><ele>467.0</ele><time>2026-04-09T13:07:46.085Z</time></trkpt><trkpt lat="41.1561867" lon="14.5379117"><ele>467.0</ele><time>2026-04-09T13:07:47.085Z</time></trkpt><trkpt lat="41.1561233" lon="14.5380733"><ele>467.0</ele><time>2026-04-09T13:07:48.085Z</time></trkpt><trkpt lat="41.1560783" lon="14.538255"><ele>470.0</ele><time>2026-04-09T13:07:49.085Z</time></trkpt><trkpt lat="41.15603" lon="14.5384233"><ele>473.0</ele><time>2026-04-09T13:07:50.085Z</time></trkpt><trkpt lat="41.1559717" lon="14.538585"><ele>476.0</ele><time>2026-04-09T13:07:51.085Z</time></trkpt><trkpt lat="41.1558933" lon="14.5387383"><ele>479.0</ele><time>2026-04-09T13:07:52.085Z</time></trkpt><trkpt lat="41.1558033" lon="14.5388967"><ele>477.3333333333333</ele><time>2026-04-09T13:07:53.085Z</time></trkpt><trkpt lat="41.1557" lon="14.5390683"><ele>475.66666666666663</ele><time>2026-04-09T13:07:54.085Z</time></trkpt><trkpt lat="41.155585" lon="14.5392217"><ele>474.0</ele><time>2026-04-09T13:07:55.085Z</time></trkpt><trkpt lat="41.1554917" lon="14.5393717"><ele>474.0</ele><time>2026-04-09T13:07:56.085Z</time></trkpt><trkpt lat="41.1554033" lon="14.5395183"><ele>474.0</ele><time>2026-04-09T13:07:57.085Z</time></trkpt><trkpt lat="41.1553133" lon="14.5396633"><ele>474.0</ele><time>2026-04-09T13:07:58.085Z</time></trkpt><trkpt lat="41.1552367" lon="14.5398267"><ele>474.0</ele><time>2026-04-09T13:07:59.085Z</time></trkpt><trkpt lat="41.1551767" lon="14.54"><ele>478.25</ele><time>2026-04-09T13:08:00.085Z</time></trkpt><trkpt lat="41.1551217" lon="14.5401733"><ele>482.5</ele><time>2026-04-09T13:08:01.085Z</time></trkpt><trkpt lat="41.155065" lon="14.5403533"><ele>486.75</ele><time>2026-04-09T13:08:02.085Z</time></trkpt><trkpt lat="41.1550067" lon="14.5405317"><ele>491.0</ele><time>2026-04-09T13:08:03.085Z</time></trkpt><trkpt lat="41.1549417" lon="14.5407067"><ele>489.75</ele><time>2026-04-09T13:08:04.085Z</time></trkpt><trkpt lat="41.1548667" lon="14.5408733"><ele>488.5</ele><time>2026-04-09T13:08:05.085Z</time></trkpt><trkpt lat="41.1547783" lon="14.5410283"><ele>487.25</ele><time>2026-04-09T13:08:06.085Z</time></trkpt><trkpt lat="41.1546883" lon="14.54117"><ele>486.0</ele><time>2026-04-09T13:08:07.085Z</time></trkpt><trkpt lat="41.15459" lon="14.5413017"><ele>491.5</ele><time>2026-04-09T13:08:08.085Z</time></trkpt><trkpt lat="41.1544783" lon="14.541425"><ele>497.0</ele><time>2026-04-09T13:08:09.085Z</time></trkpt><trkpt lat="41.1543683" lon="14.5415483"><ele>502.5</ele><time>2026-04-09T13:08:10.085Z</time></trkpt><trkpt lat="41.1542567" lon="14.5416667"><ele>508.0</ele><time>2026-04-09T13:08:11.085Z</time></trkpt><trkpt lat="41.1541533" lon="14.5417883"><ele>508.0</ele><time>2026-04-09T13:08:12.085Z</time></trkpt><trkpt lat="41.1540617" lon="14.5419217"><ele>508.0</ele><time>2026-04-09T13:08:13.085Z</time></trkpt><trkpt lat="41.1539683" lon="14.5420417"><ele>508.0</ele><time>2026-04-09T13:08:14.085Z</time></trkpt><trkpt lat="41.1538767" lon="14.5421717"><ele>508.0</ele><time>2026-04-09T13:08:15.085Z</time></trkpt><trkpt lat="41.153795" lon="14.5423033"><ele>507.75</ele><time>2026-04-09T13:08:16.085Z</time></trkpt><trkpt lat="41.1537167" lon="14.542435"><ele>507.5</ele><time>2026-04-09T13:08:17.085Z</time></trkpt><trkpt lat="41.1536417" lon="14.5425617"><ele>507.25</ele><time>2026-04-09T13:08:18.085Z</time></trkpt><trkpt lat="41.15357" lon="14.5426917"><ele>507.0</ele><time>2026-04-09T13:08:19.085Z</time></trkpt><trkpt lat="41.153505" lon="14.5428333"><ele>510.5</ele><time>2026-04-09T13:08:20.085Z</time></trkpt><trkpt lat="41.1534383" lon="14.5429883"><ele>514.0</ele><time>2026-04-09T13:08:21.085Z</time></trkpt><trkpt lat="41.1533767" lon="14.5431683"><ele>517.5</ele><time>2026-04-09T13:08:22.085Z</time></trkpt><trkpt lat="41.153325" lon="14.5433617"><ele>521.0</ele><time>2026-04-09T13:08:23.085Z</time></trkpt><trkpt lat="41.1532683" lon="14.5435533"><ele>518.75</ele><time>2026-04-09T13:08:24.085Z</time></trkpt><trkpt lat="41.1532167" lon="14.5437267"><ele>516.5</ele><time>2026-04-09T13:08:25.085Z</time></trkpt><trkpt lat="41.1531617" lon="14.5438967"><ele>514.25</ele><time>2026-04-09T13:08:26.085Z</time></trkpt><trkpt lat="41.1530933" lon="14.54406"><ele>512.0</ele><time>2026-04-09T13:08:27.085Z</time></trkpt><trkpt lat="41.1530083" lon="14.544225"><ele>512.0</ele><time>2026-04-09T13:08:28.085Z</time></trkpt><trkpt lat="41.152915" lon="14.5443883"><ele>512.0</ele><time>2026-04-09T13:08:29.085Z</time></trkpt><trkpt lat="41.152815" lon="14.544555"><ele>512.0</ele><time>2026-04-09T13:08:30.085Z</time></trkpt><trkpt lat="41.1527067" lon="14.54472"><ele>517.6666666666666</ele><time>2026-04-09T13:08:31.085Z</time></trkpt><trkpt lat="41.1526017" lon="14.5448783"><ele>523.3333333333334</ele><time>2026-04-09T13:08:32.085Z</time></trkpt><trkpt lat="41.1525" lon="14.5450367"><ele>529.0</ele><time>2026-04-09T13:08:33.085Z</time></trkpt><trkpt lat="41.1524" lon="14.5451933"><ele>526.5</ele><time>2026-04-09T13:08:34.085Z</time></trkpt><trkpt lat="41.1523117" lon="14.5453417"><ele>524.0</ele><time>2026-04-09T13:08:35.085Z</time></trkpt><trkpt lat="41.15224" lon="14.5454867"><ele>521.5</ele><time>2026-04-09T13:08:36.085Z</time></trkpt><trkpt lat="41.1521733" lon="14.54565"><ele>519.0</ele><time>2026-04-09T13:08:37.085Z</time></trkpt><trkpt lat="41.1521117" lon="14.5458117"><ele>519.0</ele><time>2026-04-09T13:08:38.085Z</time></trkpt><trkpt lat="41.152065" lon="14.5459717"><ele>519.0</ele><time>2026-04-09T13:08:39.085Z</time></trkpt><trkpt lat="41.152015" lon="14.5461483"><ele>519.0</ele><time>2026-04-09T13:08:40.085Z</time></trkpt><trkpt lat="41.1519717" lon="14.5463167"><ele>519.0</ele><time>2026-04-09T13:08:41.085Z</time></trkpt><trkpt lat="41.1519267" lon="14.5464783"><ele>522.5</ele><time>2026-04-09T13:08:42.085Z</time></trkpt><trkpt lat="41.15188" lon="14.5466583"><ele>526.0</ele><time>2026-04-09T13:08:43.085Z</time></trkpt><trkpt lat="41.1518267" lon="14.546835"><ele>529.5</ele><time>2026-04-09T13:08:44.085Z</time></trkpt><trkpt lat="41.1517683" lon="14.5470117"><ele>533.0</ele><time>2026-04-09T13:08:45.085Z</time></trkpt><trkpt lat="41.15171" lon="14.54719"><ele>532.5</ele><time>2026-04-09T13:08:46.085Z</time></trkpt><trkpt lat="41.1516567" lon="14.5473667"><ele>532.0</ele><time>2026-04-09T13:08:47.085Z</time></trkpt><trkpt lat="41.1516033" lon="14.5475533"><ele>531.5</ele><time>2026-04-09T13:08:48.085Z</time></trkpt><trkpt lat="41.151545" lon="14.5477333"><ele>531.0</ele><time>2026-04-09T13:08:49.085Z</time></trkpt><trkpt lat="41.1515" lon="14.5479017"><ele>531.0</ele><time>2026-04-09T13:08:50.085Z</time></trkpt><trkpt lat="41.1514667" lon="14.5480717"><ele>531.0</ele><time>2026-04-09T13:08:51.085Z</time></trkpt><trkpt lat="41.1514467" lon="14.5482333"><ele>531.0</ele><time>2026-04-09T13:08:52.085Z</time></trkpt><trkpt lat="41.15144" lon="14.5484233"><ele>531.0</ele><time>2026-04-09T13:08:53.085Z</time></trkpt><trkpt lat="41.1514433" lon="14.548615"><ele>533.25</ele><time>2026-04-09T13:08:54.085Z</time></trkpt><trkpt lat="41.1514617" lon="14.5488"><ele>535.5</ele><time>2026-04-09T13:08:55.085Z</time></trkpt><trkpt lat="41.1514683" lon="14.54898"><ele>537.75</ele><time>2026-04-09T13:08:56.085Z</time></trkpt><trkpt lat="41.1514567" lon="14.54914"><ele>540.0</ele><time>2026-04-09T13:08:57.085Z</time></trkpt><trkpt lat="41.1514333" lon="14.5492917"><ele>540.0</ele><time>2026-04-09T13:08:58.085Z</time></trkpt><trkpt lat="41.1513883" lon="14.5494417"><ele>540.0</ele><time>2026-04-09T13:08:59.085Z</time></trkpt><trkpt lat="41.151325" lon="14.5495917"><ele>540.0</ele><time>2026-04-09T13:09:00.085Z</time></trkpt><trkpt lat="41.1512383" lon="14.549725"><ele>540.0</ele><time>2026-04-09T13:09:01.085Z</time></trkpt><trkpt lat="41.1511483" lon="14.54986"><ele>543.5</ele><time>2026-04-09T13:09:02.085Z</time></trkpt><trkpt lat="41.1510617" lon="14.5499817"><ele>547.0</ele><time>2026-04-09T13:09:03.085Z</time></trkpt><trkpt lat="41.150985" lon="14.5501"><ele>550.5</ele><time>2026-04-09T13:09:04.085Z</time></trkpt><trkpt lat="41.1509183" lon="14.5502167"><ele>554.0</ele><time>2026-04-09T13:09:05.085Z</time></trkpt><trkpt lat="41.1508617" lon="14.550345"><ele>556.6</ele><time>2026-04-09T13:09:06.085Z</time></trkpt><trkpt lat="41.1508233" lon="14.5504933"><ele>559.2</ele><time>2026-04-09T13:09:07.085Z</time></trkpt><trkpt lat="41.1507867" lon="14.5506383"><ele>561.8000000000001</ele><time>2026-04-09T13:09:08.085Z</time></trkpt><trkpt lat="41.150765" lon="14.550755"><ele>564.4</ele><time>2026-04-09T13:09:09.085Z</time></trkpt><trkpt lat="41.1507617" lon="14.5508683"><ele>567.0</ele><time>2026-04-09T13:09:10.085Z</time></trkpt><trkpt lat="41.1507833" lon="14.550965"><ele>567.0</ele><time>2026-04-09T13:09:11.085Z</time></trkpt><trkpt lat="41.15083" lon="14.5510367"><ele>567.0</ele><time>2026-04-09T13:09:12.085Z</time></trkpt><trkpt lat="41.1509" lon="14.551055"><ele>567.0</ele><time>2026-04-09T13:09:13.085Z</time></trkpt><trkpt lat="41.1509683" lon="14.551025"><ele>567.0</ele><time>2026-04-09T13:09:14.085Z</time></trkpt><trkpt lat="41.1510267" lon="14.5509533"><ele>567.0</ele><time>2026-04-09T13:09:15.085Z</time></trkpt><trkpt lat="41.15109" lon="14.5508583"><ele>567.0</ele><time>2026-04-09T13:09:16.085Z</time></trkpt><trkpt lat="41.1511383" lon="14.550705"><ele>567.0</ele><time>2026-04-09T13:09:17.085Z</time></trkpt><trkpt lat="41.1511817" lon="14.550555"><ele>567.0</ele><time>2026-04-09T13:09:18.085Z</time></trkpt><trkpt lat="41.15125" lon="14.5504283"><ele>567.0</ele><time>2026-04-09T13:09:19.085Z</time></trkpt><trkpt lat="41.1513417" lon="14.55035"><ele>567.0</ele><time>2026-04-09T13:09:20.085Z</time></trkpt><trkpt lat="41.151445" lon="14.5502917"><ele>569.75</ele><time>2026-04-09T13:09:21.085Z</time></trkpt><trkpt lat="41.15156" lon="14.5502433"><ele>572.5</ele><time>2026-04-09T13:09:22.085Z</time></trkpt><trkpt lat="41.1516533" lon="14.5501767"><ele>575.25</ele><time>2026-04-09T13:09:23.085Z</time></trkpt><trkpt lat="41.151735" lon="14.5500883"><ele>578.0</ele><time>2026-04-09T13:09:24.085Z</time></trkpt><trkpt lat="41.15181" lon="14.5499467"><ele>578.0</ele><time>2026-04-09T13:09:25.085Z</time></trkpt><trkpt lat="41.1518783" lon="14.549785"><ele>578.0</ele><time>2026-04-09T13:09:26.085Z</time></trkpt><trkpt lat="41.1519483" lon="14.5496217"><ele>578.0</ele><time>2026-04-09T13:09:27.085Z</time></trkpt><trkpt lat="41.15201" lon="14.54946"><ele>578.0</ele><time>2026-04-09T13:09:28.085Z</time></trkpt><trkpt lat="41.1520683" lon="14.5492983"><ele>575.5</ele><time>2026-04-09T13:09:29.085Z</time></trkpt><trkpt lat="41.1521283" lon="14.5491367"><ele>573.0</ele><time>2026-04-09T13:09:30.085Z</time></trkpt><trkpt lat="41.1521883" lon="14.548975"><ele>570.5</ele><time>2026-04-09T13:09:31.085Z</time></trkpt><trkpt lat="41.15225" lon="14.5488283"><ele>568.0</ele><time>2026-04-09T13:09:32.085Z</time></trkpt><trkpt lat="41.1523083" lon="14.5486983"><ele>566.0</ele><time>2026-04-09T13:09:33.085Z</time></trkpt><trkpt lat="41.1523583" lon="14.5485867"><ele>564.0</ele><time>2026-04-09T13:09:34.085Z</time></trkpt><trkpt lat="41.1524" lon="14.5484833"><ele>562.0</ele><time>2026-04-09T13:09:35.085Z</time></trkpt><trkpt lat="41.1524383" lon="14.5483917"><ele>560.0</ele><time>2026-04-09T13:09:36.085Z</time></trkpt><trkpt lat="41.152515" lon="14.5482683"><ele>558.0</ele><time>2026-04-09T13:09:38.085Z</time></trkpt><trkpt lat="41.1526167" lon="14.5482883"><ele>563.8</ele><time>2026-04-09T13:09:40.085Z</time></trkpt><trkpt lat="41.15265" lon="14.5484383"><ele>569.5999999999999</ele><time>2026-04-09T13:09:42.085Z</time></trkpt><trkpt lat="41.152625" lon="14.54854"><ele>575.4000000000001</ele><time>2026-04-09T13:09:43.085Z</time></trkpt><trkpt lat="41.1525717" lon="14.5486567"><ele>581.2</ele><time>2026-04-09T13:09:44.085Z</time></trkpt><trkpt lat="41.1525167" lon="14.54878"><ele>587.0</ele><time>2026-04-09T13:09:45.085Z</time></trkpt><trkpt lat="41.1524517" lon="14.5489"><ele>584.75</ele><time>2026-04-09T13:09:46.085Z</time></trkpt><trkpt lat="41.1523967" lon="14.549045"><ele>582.5</ele><time>2026-04-09T13:09:47.085Z</time></trkpt><trkpt lat="41.1523517" lon="14.5492217"><ele>580.25</ele><time>2026-04-09T13:09:48.085Z</time></trkpt><trkpt lat="41.1523267" lon="14.5493867"><ele>578.0</ele><time>2026-04-09T13:09:49.085Z</time></trkpt><trkpt lat="41.1523133" lon="14.5495583"><ele>578.0</ele><time>2026-04-09T13:09:50.085Z</time></trkpt><trkpt lat="41.1523033" lon="14.5497283"><ele>578.0</ele><time>2026-04-09T13:09:51.085Z</time></trkpt><trkpt lat="41.1523" lon="14.5498867"><ele>578.0</ele><time>2026-04-09T13:09:52.085Z</time></trkpt><trkpt lat="41.1523083" lon="14.55006"><ele>578.0</ele><time>2026-04-09T13:09:53.085Z</time></trkpt><trkpt lat="41.1523217" lon="14.550215"><ele>578.0</ele><time>2026-04-09T13:09:54.085Z</time></trkpt><trkpt lat="41.1523333" lon="14.5503533"><ele>578.0</ele><time>2026-04-09T13:09:55.085Z</time></trkpt><trkpt lat="41.1523317" lon="14.5504783"><ele>578.0</ele><time>2026-04-09T13:09:56.085Z</time></trkpt><trkpt lat="41.15231" lon="14.5505967"><ele>578.0</ele><time>2026-04-09T13:09:57.085Z</time></trkpt><trkpt lat="41.1522683" lon="14.5507117"><ele>578.0</ele><time>2026-04-09T13:09:58.085Z</time></trkpt><trkpt lat="41.1522067" lon="14.550825"><ele>582.0</ele><time>2026-04-09T13:09:59.085Z</time></trkpt><trkpt lat="41.152125" lon="14.550945"><ele>586.0</ele><time>2026-04-09T13:10:00.085Z</time></trkpt><trkpt lat="41.152045" lon="14.5510533"><ele>590.0</ele><time>2026-04-09T13:10:01.085Z</time></trkpt><trkpt lat="41.1519817" lon="14.5511883"><ele>594.0</ele><time>2026-04-09T13:10:02.085Z</time></trkpt><trkpt lat="41.15193" lon="14.5513533"><ele>598.6666666666666</ele><time>2026-04-09T13:10:03.085Z</time></trkpt><trkpt lat="41.151885" lon="14.5515433"><ele>603.3333333333333</ele><time>2026-04-09T13:10:04.085Z</time></trkpt><trkpt lat="41.15184" lon="14.551745"><ele>608.0</ele><time>2026-04-09T13:10:05.085Z</time></trkpt><trkpt lat="41.15178" lon="14.5519517"><ele>612.6666666666666</ele><time>2026-04-09T13:10:06.085Z</time></trkpt><trkpt lat="41.1517183" lon="14.5521783"><ele>617.3333333333334</ele><time>2026-04-09T13:10:07.085Z</time></trkpt><trkpt lat="41.1516617" lon="14.5524033"><ele>622.0</ele><time>2026-04-09T13:10:08.085Z</time></trkpt><trkpt lat="41.1516133" lon="14.5526117"><ele>622.0</ele><time>2026-04-09T13:10:09.085Z</time></trkpt><trkpt lat="41.1515667" lon="14.5528"><ele>622.0</ele><time>2026-04-09T13:10:10.085Z</time></trkpt><trkpt lat="41.15151" lon="14.55298"><ele>622.0</ele><time>2026-04-09T13:10:11.085Z</time></trkpt><trkpt lat="41.1514583" lon="14.5531467"><ele>622.0</ele><time>2026-04-09T13:10:12.085Z</time></trkpt><trkpt lat="41.15141" lon="14.5533133"><ele>620.5</ele><time>2026-04-09T13:10:13.085Z</time></trkpt><trkpt lat="41.1513683" lon="14.5534833"><ele>619.0</ele><time>2026-04-09T13:10:14.085Z</time></trkpt><trkpt lat="41.15135" lon="14.5536683"><ele>617.5</ele><time>2026-04-09T13:10:15.085Z</time></trkpt><trkpt lat="41.1513483" lon="14.5538567"><ele>616.0</ele><time>2026-04-09T13:10:16.085Z</time></trkpt><trkpt lat="41.1513583" lon="14.5540183"><ele>616.0</ele><time>2026-04-09T13:10:17.085Z</time></trkpt><trkpt lat="41.151355" lon="14.5541583"><ele>616.0</ele><time>2026-04-09T13:10:18.085Z</time></trkpt><trkpt lat="41.151325" lon="14.5542817"><ele>616.0</ele><time>2026-04-09T13:10:19.085Z</time></trkpt><trkpt lat="41.1512733" lon="14.5543867"><ele>616.0</ele><time>2026-04-09T13:10:20.085Z</time></trkpt><trkpt lat="41.1511967" lon="14.554495"><ele>616.0</ele><time>2026-04-09T13:10:21.085Z</time></trkpt><trkpt lat="41.1511333" lon="14.5546283"><ele>620.0</ele><time>2026-04-09T13:10:22.085Z</time></trkpt><trkpt lat="41.1510917" lon="14.554785"><ele>624.0</ele><time>2026-04-09T13:10:23.085Z</time></trkpt><trkpt lat="41.151055" lon="14.5549467"><ele>628.0</ele><time>2026-04-09T13:10:24.085Z</time></trkpt><trkpt lat="41.1510033" lon="14.5551183"><ele>632.0</ele><time>2026-04-09T13:10:25.085Z</time></trkpt><trkpt lat="41.1509417" lon="14.55528"><ele>635.5</ele><time>2026-04-09T13:10:26.085Z</time></trkpt><trkpt lat="41.15088" lon="14.555435"><ele>639.0</ele><time>2026-04-09T13:10:27.085Z</time></trkpt><trkpt lat="41.1508117" lon="14.5556067"><ele>642.5</ele><time>2026-04-09T13:10:28.085Z</time></trkpt><trkpt lat="41.1507433" lon="14.5557983"><ele>646.0</ele><time>2026-04-09T13:10:29.085Z</time></trkpt><trkpt lat="41.1507067" lon="14.5559883"><ele>641.5</ele><time>2026-04-09T13:10:30.085Z</time></trkpt><trkpt lat="41.15068" lon="14.556175"><ele>637.0</ele><time>2026-04-09T13:10:31.085Z</time></trkpt><trkpt lat="41.1506633" lon="14.556365"><ele>632.5</ele><time>2026-04-09T13:10:32.085Z</time></trkpt><trkpt lat="41.1506483" lon="14.5565467"><ele>628.0</ele><time>2026-04-09T13:10:33.085Z</time></trkpt><trkpt lat="41.1506383" lon="14.5567233"><ele>628.0</ele><time>2026-04-09T13:10:34.085Z</time></trkpt><trkpt lat="41.1506417" lon="14.556905"><ele>628.0</ele><time>2026-04-09T13:10:35.085Z</time></trkpt><trkpt lat="41.1506533" lon="14.55709"><ele>628.0</ele><time>2026-04-09T13:10:36.085Z</time></trkpt><trkpt lat="41.150675" lon="14.5572733"><ele>628.0</ele><time>2026-04-09T13:10:37.085Z</time></trkpt><trkpt lat="41.1507017" lon="14.55744"><ele>635.75</ele><time>2026-04-09T13:10:38.085Z</time></trkpt><trkpt lat="41.150735" lon="14.557605"><ele>643.5</ele><time>2026-04-09T13:10:39.085Z</time></trkpt><trkpt lat="41.1507517" lon="14.5577733"><ele>651.25</ele><time>2026-04-09T13:10:40.085Z</time></trkpt><trkpt lat="41.15076" lon="14.5579217"><ele>659.0</ele><time>2026-04-09T13:10:41.085Z</time></trkpt><trkpt lat="41.1507433" lon="14.5580683"><ele>657.5</ele><time>2026-04-09T13:10:42.085Z</time></trkpt><trkpt lat="41.1507033" lon="14.5582067"><ele>656.0</ele><time>2026-04-09T13:10:43.085Z</time></trkpt><trkpt lat="41.1506483" lon="14.55833"><ele>654.5</ele><time>2026-04-09T13:10:44.085Z</time></trkpt><trkpt lat="41.150575" lon="14.5584633"><ele>653.0</ele><time>2026-04-09T13:10:45.085Z</time></trkpt><trkpt lat="41.1504917" lon="14.5585983"><ele>656.5</ele><time>2026-04-09T13:10:46.085Z</time></trkpt><trkpt lat="41.1504017" lon="14.55874"><ele>660.0</ele><time>2026-04-09T13:10:47.085Z</time></trkpt><trkpt lat="41.1503083" lon="14.558865"><ele>663.5</ele><time>2026-04-09T13:10:48.085Z</time></trkpt><trkpt lat="41.1502133" lon="14.5589833"><ele>667.0</ele><time>2026-04-09T13:10:49.085Z</time></trkpt><trkpt lat="41.1501183" lon="14.559105"><ele>667.0</ele><time>2026-04-09T13:10:50.085Z</time></trkpt><trkpt lat="41.1500183" lon="14.55924"><ele>667.0</ele><time>2026-04-09T13:10:51.085Z</time></trkpt><trkpt lat="41.1499133" lon="14.5593883"><ele>667.0</ele><time>2026-04-09T13:10:52.085Z</time></trkpt><trkpt lat="41.149815" lon="14.5595417"><ele>667.0</ele><time>2026-04-09T13:10:53.085Z</time></trkpt><trkpt lat="41.1497267" lon="14.5596917"><ele>667.5</ele><time>2026-04-09T13:10:54.085Z</time></trkpt><trkpt lat="41.149645" lon="14.559835"><ele>668.0</ele><time>2026-04-09T13:10:55.085Z</time></trkpt><trkpt lat="41.14957" lon="14.559965"><ele>668.5</ele><time>2026-04-09T13:10:56.085Z</time></trkpt><trkpt lat="41.149505" lon="14.5600883"><ele>669.0</ele><time>2026-04-09T13:10:57.085Z</time></trkpt><trkpt lat="41.1494533" lon="14.560195"><ele>669.0</ele><time>2026-04-09T13:10:58.085Z</time></trkpt><trkpt lat="41.1494183" lon="14.560295"><ele>669.0</ele><time>2026-04-09T13:10:59.085Z</time></trkpt><trkpt lat="41.1494067" lon="14.560385"><ele>669.0</ele><time>2026-04-09T13:11:00.085Z</time></trkpt><trkpt lat="41.149435" lon="14.56047"><ele>669.0</ele><time>2026-04-09T13:11:01.085Z</time></trkpt><trkpt lat="41.1494983" lon="14.5605283"><ele>669.0</ele><time>2026-04-09T13:11:02.085Z</time></trkpt><trkpt lat="41.14959" lon="14.5605517"><ele>669.0</ele><time>2026-04-09T13:11:03.085Z</time></trkpt><trkpt lat="41.149695" lon="14.5605317"><ele>671.5</ele><time>2026-04-09T13:11:04.085Z</time></trkpt><trkpt lat="41.1498117" lon="14.5605"><ele>674.0</ele><time>2026-04-09T13:11:05.085Z</time></trkpt><trkpt lat="41.1499383" lon="14.5604667"><ele>676.5</ele><time>2026-04-09T13:11:06.085Z</time></trkpt><trkpt lat="41.1500733" lon="14.5604267"><ele>679.0</ele><time>2026-04-09T13:11:07.085Z</time></trkpt><trkpt lat="41.1502083" lon="14.5603583"><ele>679.0</ele><time>2026-04-09T13:11:08.085Z</time></trkpt><trkpt lat="41.1503217" lon="14.5602767"><ele>679.0</ele><time>2026-04-09T13:11:09.085Z</time></trkpt><trkpt lat="41.1504117" lon="14.5601683"><ele>679.0</ele><time>2026-04-09T13:11:10.085Z</time></trkpt><trkpt lat="41.150495" lon="14.56004"><ele>679.0</ele><time>2026-04-09T13:11:11.085Z</time></trkpt><trkpt lat="41.15057" lon="14.5598917"><ele>679.0</ele><time>2026-04-09T13:11:12.085Z</time></trkpt><trkpt lat="41.15063" lon="14.5597433"><ele>679.0</ele><time>2026-04-09T13:11:13.085Z</time></trkpt><trkpt lat="41.1506817" lon="14.5596267"><ele>679.0</ele><time>2026-04-09T13:11:14.085Z</time></trkpt><trkpt lat="41.150735" lon="14.5595283"><ele>679.0</ele><time>2026-04-09T13:11:15.085Z</time></trkpt><trkpt lat="41.1507867" lon="14.5594533"><ele>679.0</ele><time>2026-04-09T13:11:16.085Z</time></trkpt><trkpt lat="41.1508967" lon="14.559445"><ele>682.8000000000001</ele><time>2026-04-09T13:11:18.085Z</time></trkpt><trkpt lat="41.1509517" lon="14.5595867"><ele>686.6</ele><time>2026-04-09T13:11:20.085Z</time></trkpt><trkpt lat="41.1509517" lon="14.5596883"><ele>690.4</ele><time>2026-04-09T13:11:21.085Z</time></trkpt><trkpt lat="41.150935" lon="14.5598083"><ele>694.2</ele><time>2026-04-09T13:11:22.085Z</time></trkpt><trkpt lat="41.1508967" lon="14.5599533"><ele>698.0</ele><time>2026-04-09T13:11:23.085Z</time></trkpt><trkpt lat="41.1508533" lon="14.56012"><ele>698.0</ele><time>2026-04-09T13:11:24.085Z</time></trkpt><trkpt lat="41.1508067" lon="14.56028"><ele>698.0</ele><time>2026-04-09T13:11:25.085Z</time></trkpt><trkpt lat="41.1507583" lon="14.5604217"><ele>698.0</ele><time>2026-04-09T13:11:26.085Z</time></trkpt><trkpt lat="41.150715" lon="14.5605383"><ele>698.0</ele><time>2026-04-09T13:11:27.085Z</time></trkpt><trkpt lat="41.15065" lon="14.5606367"><ele>698.0</ele><time>2026-04-09T13:11:28.085Z</time></trkpt><trkpt lat="41.1505617" lon="14.5607167"><ele>699.0</ele><time>2026-04-09T13:11:29.085Z</time></trkpt><trkpt lat="41.1504617" lon="14.5607883"><ele>700.0</ele><time>2026-04-09T13:11:30.085Z</time></trkpt><trkpt lat="41.15034" lon="14.5608433"><ele>701.0</ele><time>2026-04-09T13:11:31.085Z</time></trkpt><trkpt lat="41.1502217" lon="14.5609017"><ele>702.0</ele><time>2026-04-09T13:11:32.085Z</time></trkpt><trkpt lat="41.1501167" lon="14.560955"><ele>702.0</ele><time>2026-04-09T13:11:33.085Z</time></trkpt><trkpt lat="41.1500233" lon="14.561005"><ele>702.0</ele><time>2026-04-09T13:11:34.085Z</time></trkpt><trkpt lat="41.1499467" lon="14.561055"><ele>702.0</ele><time>2026-04-09T13:11:35.085Z</time></trkpt><trkpt lat="41.1498883" lon="14.5611117"><ele>702.0</ele><time>2026-04-09T13:11:36.085Z</time></trkpt><trkpt lat="41.1498417" lon="14.5612"><ele>702.0</ele><time>2026-04-09T13:11:37.085Z</time></trkpt><trkpt lat="41.149825" lon="14.5612967"><ele>702.0</ele><time>2026-04-09T13:11:38.085Z</time></trkpt><trkpt lat="41.14982" lon="14.561405"><ele>702.25</ele><time>2026-04-09T13:11:39.085Z</time></trkpt><trkpt lat="41.149865" lon="14.5615283"><ele>702.5</ele><time>2026-04-09T13:11:40.085Z</time></trkpt><trkpt lat="41.1499367" lon="14.5616633"><ele>702.75</ele><time>2026-04-09T13:11:41.085Z</time></trkpt><trkpt lat="41.1500133" lon="14.5618083"><ele>703.0</ele><time>2026-04-09T13:11:42.085Z</time></trkpt><trkpt lat="41.1501017" lon="14.5619667"><ele>706.3333333333334</ele><time>2026-04-09T13:11:43.085Z</time></trkpt><trkpt lat="41.1501933" lon="14.5621367"><ele>709.6666666666666</ele><time>2026-04-09T13:11:44.085Z</time></trkpt><trkpt lat="41.1502817" lon="14.5623117"><ele>713.0</ele><time>2026-04-09T13:11:45.085Z</time></trkpt><trkpt lat="41.15036" lon="14.5624667"><ele>713.0</ele><time>2026-04-09T13:11:46.085Z</time></trkpt><trkpt lat="41.1504383" lon="14.5626133"><ele>713.0</ele><time>2026-04-09T13:11:47.085Z</time></trkpt><trkpt lat="41.15051" lon="14.5627567"><ele>713.0</ele><time>2026-04-09T13:11:48.085Z</time></trkpt><trkpt lat="41.1505833" lon="14.5628883"><ele>713.0</ele><time>2026-04-09T13:11:49.085Z</time></trkpt><trkpt lat="41.1506517" lon="14.5630117"><ele>716.2</ele><time>2026-04-09T13:11:50.085Z</time></trkpt><trkpt lat="41.15072" lon="14.5631217"><ele>719.4</ele><time>2026-04-09T13:11:51.085Z</time></trkpt><trkpt lat="41.1507717" lon="14.5632183"><ele>722.6</ele><time>2026-04-09T13:11:52.085Z</time></trkpt><trkpt lat="41.1508083" lon="14.5633217"><ele>725.8000000000001</ele><time>2026-04-09T13:11:53.085Z</time></trkpt><trkpt lat="41.1508167" lon="14.5634317"><ele>729.0</ele><time>2026-04-09T13:11:54.085Z</time></trkpt><trkpt lat="41.15081" lon="14.5635467"><ele>729.0</ele><time>2026-04-09T13:11:55.085Z</time></trkpt><trkpt lat="41.150775" lon="14.5636683"><ele>729.0</ele><time>2026-04-09T13:11:56.085Z</time></trkpt><trkpt lat="41.1507017" lon="14.563795"><ele>729.0</ele><time>2026-04-09T13:11:57.085Z</time></trkpt><trkpt lat="41.150605" lon="14.5639317"><ele>729.0</ele><time>2026-04-09T13:11:58.085Z</time></trkpt><trkpt lat="41.1505183" lon="14.56406"><ele>728.5</ele><time>2026-04-09T13:11:59.085Z</time></trkpt><trkpt lat="41.1504317" lon="14.5641933"><ele>728.0</ele><time>2026-04-09T13:12:00.085Z</time></trkpt><trkpt lat="41.1503367" lon="14.5643283"><ele>727.5</ele><time>2026-04-09T13:12:01.085Z</time></trkpt><trkpt lat="41.1502533" lon="14.5644517"><ele>727.0</ele><time>2026-04-09T13:12:02.085Z</time></trkpt><trkpt lat="41.150175" lon="14.5645567"><ele>727.75</ele><time>2026-04-09T13:12:03.085Z</time></trkpt><trkpt lat="41.150095" lon="14.5646533"><ele>728.5</ele><time>2026-04-09T13:12:04.085Z</time></trkpt><trkpt lat="41.1500083" lon="14.56475"><ele>729.25</ele><time>2026-04-09T13:12:05.085Z</time></trkpt><trkpt lat="41.149895" lon="14.5648517"><ele>730.0</ele><time>2026-04-09T13:12:06.085Z</time></trkpt><trkpt lat="41.1497817" lon="14.5649367"><ele>730.0</ele><time>2026-04-09T13:12:07.085Z</time></trkpt><trkpt lat="41.1496767" lon="14.565005"><ele>730.0</ele><time>2026-04-09T13:12:08.085Z</time></trkpt><trkpt lat="41.149585" lon="14.5650833"><ele>730.0</ele><time>2026-04-09T13:12:09.085Z</time></trkpt><trkpt lat="41.1494817" lon="14.5651583"><ele>730.0</ele><time>2026-04-09T13:12:10.085Z</time></trkpt><trkpt lat="41.1493817" lon="14.5652383"><ele>730.0</ele><time>2026-04-09T13:12:11.085Z</time></trkpt><trkpt lat="41.14929" lon="14.565335"><ele>730.0</ele><time>2026-04-09T13:12:12.085Z</time></trkpt><trkpt lat="41.1492067" lon="14.5654517"><ele>730.0</ele><time>2026-04-09T13:12:13.085Z</time></trkpt><trkpt lat="41.14913" lon="14.5655917"><ele>730.0</ele><time>2026-04-09T13:12:14.085Z</time></trkpt><trkpt lat="41.14905" lon="14.5657617"><ele>730.0</ele><time>2026-04-09T13:12:15.085Z</time></trkpt><trkpt lat="41.1489733" lon="14.565965"><ele>730.0</ele><time>2026-04-09T13:12:16.085Z</time></trkpt><trkpt lat="41.1489" lon="14.5661717"><ele>730.0</ele><time>2026-04-09T13:12:17.085Z</time></trkpt><trkpt lat="41.14884" lon="14.566375"><ele>734.3333333333334</ele><time>2026-04-09T13:12:18.085Z</time></trkpt><trkpt lat="41.1487717" lon="14.5665817"><ele>738.6666666666666</ele><time>2026-04-09T13:12:19.085Z</time></trkpt><trkpt lat="41.14871" lon="14.5667733"><ele>743.0</ele><time>2026-04-09T13:12:20.085Z</time></trkpt><trkpt lat="41.1486717" lon="14.5669333"><ele>744.75</ele><time>2026-04-09T13:12:21.085Z</time></trkpt><trkpt lat="41.1486383" lon="14.5670783"><ele>746.5</ele><time>2026-04-09T13:12:22.085Z</time></trkpt><trkpt lat="41.14861" lon="14.567235"><ele>748.25</ele><time>2026-04-09T13:12:23.085Z</time></trkpt><trkpt lat="41.14859" lon="14.5674183"><ele>750.0</ele><time>2026-04-09T13:12:24.085Z</time></trkpt><trkpt lat="41.1485683" lon="14.5676133"><ele>750.0</ele><time>2026-04-09T13:12:25.085Z</time></trkpt><trkpt lat="41.1485517" lon="14.56782"><ele>750.0</ele><time>2026-04-09T13:12:26.085Z</time></trkpt><trkpt lat="41.1485383" lon="14.5680217"><ele>750.0</ele><time>2026-04-09T13:12:27.085Z</time></trkpt><trkpt lat="41.1485233" lon="14.5682033"><ele>750.0</ele><time>2026-04-09T13:12:28.085Z</time></trkpt><trkpt lat="41.1485083" lon="14.5683767"><ele>751.0</ele><time>2026-04-09T13:12:29.085Z</time></trkpt><trkpt lat="41.1484933" lon="14.568555"><ele>752.0</ele><time>2026-04-09T13:12:30.085Z</time></trkpt><trkpt lat="41.14848" lon="14.568725"><ele>753.0</ele><time>2026-04-09T13:12:31.085Z</time></trkpt><trkpt lat="41.1484767" lon="14.5688833"><ele>754.0</ele><time>2026-04-09T13:12:32.085Z</time></trkpt><trkpt lat="41.14847" lon="14.56904"><ele>755.5</ele><time>2026-04-09T13:12:33.085Z</time></trkpt><trkpt lat="41.1484633" lon="14.5692033"><ele>757.0</ele><time>2026-04-09T13:12:34.085Z</time></trkpt><trkpt lat="41.1484567" lon="14.5693767"><ele>758.5</ele><time>2026-04-09T13:12:35.085Z</time></trkpt><trkpt lat="41.148455" lon="14.5695533"><ele>760.0</ele><time>2026-04-09T13:12:36.085Z</time></trkpt><trkpt lat="41.1484517" lon="14.5697367"><ele>760.5</ele><time>2026-04-09T13:12:37.085Z</time></trkpt><trkpt lat="41.1484533" lon="14.5699267"><ele>761.0</ele><time>2026-04-09T13:12:38.085Z</time></trkpt><trkpt lat="41.1484517" lon="14.5701283"><ele>761.5</ele><time>2026-04-09T13:12:39.085Z</time></trkpt><trkpt lat="41.1484567" lon="14.5703283"><ele>762.0</ele><time>2026-04-09T13:12:40.085Z</time></trkpt><trkpt lat="41.1484567" lon="14.5705417"><ele>763.0</ele><time>2026-04-09T13:12:41.085Z</time></trkpt><trkpt lat="41.1484483" lon="14.57076"><ele>764.0</ele><time>2026-04-09T13:12:42.085Z</time></trkpt><trkpt lat="41.14844" lon="14.5709733"><ele>765.0</ele><time>2026-04-09T13:12:43.085Z</time></trkpt><trkpt lat="41.1484383" lon="14.57119"><ele>766.75</ele><time>2026-04-09T13:12:44.085Z</time></trkpt><trkpt lat="41.14843" lon="14.57139"><ele>768.5</ele><time>2026-04-09T13:12:45.085Z</time></trkpt><trkpt lat="41.1484233" lon="14.571575"><ele>770.25</ele><time>2026-04-09T13:12:46.085Z</time></trkpt><trkpt lat="41.1484217" lon="14.57175"><ele>772.0</ele><time>2026-04-09T13:12:47.085Z</time></trkpt><trkpt lat="41.1484183" lon="14.571925"><ele>773.25</ele><time>2026-04-09T13:12:48.085Z</time></trkpt><trkpt lat="41.14841" lon="14.5721017"><ele>774.5</ele><time>2026-04-09T13:12:49.085Z</time></trkpt><trkpt lat="41.148395" lon="14.5722567"><ele>775.75</ele><time>2026-04-09T13:12:50.085Z</time></trkpt><trkpt lat="41.1483567" lon="14.5724"><ele>777.0</ele><time>2026-04-09T13:12:51.085Z</time></trkpt><trkpt lat="41.1483083" lon="14.5725433"><ele>777.0</ele><time>2026-04-09T13:12:52.085Z</time></trkpt><trkpt lat="41.1482367" lon="14.5726683"><ele>777.0</ele><time>2026-04-09T13:12:53.085Z</time></trkpt><trkpt lat="41.1481467" lon="14.572795"><ele>777.0</ele><time>2026-04-09T13:12:54.085Z</time></trkpt><trkpt lat="41.1480517" lon="14.5728983"><ele>777.0</ele><time>2026-04-09T13:12:55.085Z</time></trkpt><trkpt lat="41.147965" lon="14.5729967"><ele>776.75</ele><time>2026-04-09T13:12:56.085Z</time></trkpt><trkpt lat="41.14788" lon="14.5730933"><ele>776.5</ele><time>2026-04-09T13:12:57.085Z</time></trkpt><trkpt lat="41.1477867" lon="14.57321"><ele>776.25</ele><time>2026-04-09T13:12:58.085Z</time></trkpt><trkpt lat="41.1477067" lon="14.5733433"><ele>776.0</ele><time>2026-04-09T13:12:59.085Z</time></trkpt><trkpt lat="41.1476317" lon="14.5734833"><ele>776.0</ele><time>2026-04-09T13:13:00.085Z</time></trkpt><trkpt lat="41.1475617" lon="14.573625"><ele>776.0</ele><time>2026-04-09T13:13:01.085Z</time></trkpt><trkpt lat="41.1474917" lon="14.573785"><ele>776.0</ele><time>2026-04-09T13:13:02.085Z</time></trkpt><trkpt lat="41.1474283" lon="14.5739533"><ele>776.0</ele><time>2026-04-09T13:13:03.085Z</time></trkpt><trkpt lat="41.147375" lon="14.5741183"><ele>775.75</ele><time>2026-04-09T13:13:04.085Z</time></trkpt><trkpt lat="41.147335" lon="14.574275"><ele>775.5</ele><time>2026-04-09T13:13:05.085Z</time></trkpt><trkpt lat="41.1472933" lon="14.5744383"><ele>775.25</ele><time>2026-04-09T13:13:06.085Z</time></trkpt><trkpt lat="41.1472483" lon="14.5745983"><ele>775.0</ele><time>2026-04-09T13:13:07.085Z</time></trkpt><trkpt lat="41.14721" lon="14.57475"><ele>775.0</ele><time>2026-04-09T13:13:08.085Z</time></trkpt><trkpt lat="41.1471617" lon="14.57491"><ele>775.0</ele><time>2026-04-09T13:13:09.085Z</time></trkpt><trkpt lat="41.147125" lon="14.57507"><ele>775.0</ele><time>2026-04-09T13:13:10.085Z</time></trkpt><trkpt lat="41.1470833" lon="14.5752083"><ele>775.0</ele><time>2026-04-09T13:13:11.085Z</time></trkpt><trkpt lat="41.1470283" lon="14.5753583"><ele>776.0</ele><time>2026-04-09T13:13:12.085Z</time></trkpt><trkpt lat="41.14696" lon="14.5755117"><ele>777.0</ele><time>2026-04-09T13:13:13.085Z</time></trkpt><trkpt lat="41.14689" lon="14.5756533"><ele>778.0</ele><time>2026-04-09T13:13:14.085Z</time></trkpt><trkpt lat="41.146805" lon="14.5757867"><ele>779.0</ele><time>2026-04-09T13:13:15.085Z</time></trkpt><trkpt lat="41.1467183" lon="14.5759167"><ele>779.0</ele><time>2026-04-09T13:13:16.085Z</time></trkpt><trkpt lat="41.146625" lon="14.5760217"><ele>779.0</ele><time>2026-04-09T13:13:17.085Z</time></trkpt><trkpt lat="41.146545" lon="14.576135"><ele>779.0</ele><time>2026-04-09T13:13:18.085Z</time></trkpt><trkpt lat="41.1464717" lon="14.5762533"><ele>779.0</ele><time>2026-04-09T13:13:19.085Z</time></trkpt><trkpt lat="41.1464067" lon="14.576365"><ele>778.8000000000001</ele><time>2026-04-09T13:13:20.085Z</time></trkpt><trkpt lat="41.1463483" lon="14.5764717"><ele>778.6</ele><time>2026-04-09T13:13:21.085Z</time></trkpt><trkpt lat="41.1462883" lon="14.5765767"><ele>778.4</ele><time>2026-04-09T13:13:22.085Z</time></trkpt><trkpt lat="41.1462333" lon="14.5766783"><ele>778.2</ele><time>2026-04-09T13:13:23.085Z</time></trkpt><trkpt lat="41.1461883" lon="14.5767683"><ele>778.0</ele><time>2026-04-09T13:13:24.085Z</time></trkpt><trkpt lat="41.1461433" lon="14.5768583"><ele>777.9999999999999</ele><time>2026-04-09T13:13:25.085Z</time></trkpt><trkpt lat="41.1461117" lon="14.5769433"><ele>778.0</ele><time>2026-04-09T13:13:26.085Z</time></trkpt><trkpt lat="41.146085" lon="14.5770283"><ele>778.0</ele><time>2026-04-09T13:13:27.085Z</time></trkpt><trkpt lat="41.1460433" lon="14.57717"><ele>778.0</ele><time>2026-04-09T13:13:29.085Z</time></trkpt><trkpt lat="41.14601" lon="14.5772633"><ele>777.9999999999999</ele><time>2026-04-09T13:13:31.085Z</time></trkpt><trkpt lat="41.145995" lon="14.5773733"><ele>778.0</ele><time>2026-04-09T13:18:40.085Z</time></trkpt><trkpt lat="41.1459017" lon="14.5773783"><ele>777.5999999999999</ele><time>2026-04-09T13:18:42.085Z</time></trkpt><trkpt lat="41.1457733" lon="14.5773233"><ele>777.1999999999999</ele><time>2026-04-09T13:18:44.085Z</time></trkpt><trkpt lat="41.1456883" lon="14.5772833"><ele>776.8</ele><time>2026-04-09T13:18:45.085Z</time></trkpt><trkpt lat="41.145595" lon="14.5772367"><ele>776.4</ele><time>2026-04-09T13:18:46.085Z</time></trkpt><trkpt lat="41.14551" lon="14.577195"><ele>776.0</ele><time>2026-04-09T13:18:47.085Z</time></trkpt><trkpt lat="41.1454167" lon="14.5771567"><ele>776.0</ele><time>2026-04-09T13:18:48.085Z</time></trkpt><trkpt lat="41.1453217" lon="14.5771167"><ele>776.0</ele><time>2026-04-09T13:18:49.085Z</time></trkpt><trkpt lat="41.14522" lon="14.5770733"><ele>776.0</ele><time>2026-04-09T13:18:50.085Z</time></trkpt><trkpt lat="41.145115" lon="14.577025"><ele>776.0</ele><time>2026-04-09T13:18:51.085Z</time></trkpt><trkpt lat="41.14501" lon="14.57698"><ele>776.0</ele><time>2026-04-09T13:18:52.085Z</time></trkpt><trkpt lat="41.1449117" lon="14.5769367"><ele>775.8333333333334</ele><time>2026-04-09T13:18:53.085Z</time></trkpt><trkpt lat="41.14482" lon="14.5768967"><ele>775.6666666666667</ele><time>2026-04-09T13:18:54.085Z</time></trkpt><trkpt lat="41.1447383" lon="14.57687"><ele>775.5</ele><time>2026-04-09T13:18:55.085Z</time></trkpt><trkpt lat="41.144665" lon="14.57684"><ele>775.3333333333333</ele><time>2026-04-09T13:18:56.085Z</time></trkpt><trkpt lat="41.144595" lon="14.576805"><ele>775.1666666666666</ele><time>2026-04-09T13:18:57.085Z</time></trkpt><trkpt lat="41.1445267" lon="14.5767767"><ele>775.0</ele><time>2026-04-09T13:18:58.085Z</time></trkpt><trkpt lat="41.1444583" lon="14.5767483"><ele>774.9999999999999</ele><time>2026-04-09T13:18:59.085Z</time></trkpt><trkpt lat="41.1443883" lon="14.5767217"><ele>775.0</ele><time>2026-04-09T13:19:00.085Z</time></trkpt><trkpt lat="41.1443133" lon="14.5766933"><ele>775.0</ele><time>2026-04-09T13:19:01.085Z</time></trkpt><trkpt lat="41.14423" lon="14.5766517"><ele>775.0</ele><time>2026-04-09T13:19:02.085Z</time></trkpt><trkpt lat="41.1441383" lon="14.5766133"><ele>774.9999999999999</ele><time>2026-04-09T13:19:03.085Z</time></trkpt><trkpt lat="41.1440367" lon="14.5765683"><ele>775.0</ele><time>2026-04-09T13:19:04.085Z</time></trkpt><trkpt lat="41.14393" lon="14.5765217"><ele>774.4</ele><time>2026-04-09T13:19:05.085Z</time></trkpt><trkpt lat="41.1438267" lon="14.5764767"><ele>773.8</ele><time>2026-04-09T13:19:06.085Z</time></trkpt><trkpt lat="41.14372" lon="14.5764383"><ele>773.2</ele><time>2026-04-09T13:19:07.085Z</time></trkpt><trkpt lat="41.1436167" lon="14.5763917"><ele>772.6</ele><time>2026-04-09T13:19:08.085Z</time></trkpt><trkpt lat="41.1435033" lon="14.5763483"><ele>772.0</ele><time>2026-04-09T13:19:09.085Z</time></trkpt><trkpt lat="41.1433833" lon="14.5763017"><ele>772.0</ele><time>2026-04-09T13:19:10.085Z</time></trkpt><trkpt lat="41.1432667" lon="14.5762483"><ele>772.0</ele><time>2026-04-09T13:19:11.085Z</time></trkpt><trkpt lat="41.1431517" lon="14.5761967"><ele>772.0</ele><time>2026-04-09T13:19:12.085Z</time></trkpt><trkpt lat="41.1430317" lon="14.57615"><ele>772.0</ele><time>2026-04-09T13:19:13.085Z</time></trkpt><trkpt lat="41.142925" lon="14.5761117"><ele>773.8</ele><time>2026-04-09T13:19:14.085Z</time></trkpt><trkpt lat="41.1428267" lon="14.5760583"><ele>775.6</ele><time>2026-04-09T13:19:15.085Z</time></trkpt><trkpt lat="41.142735" lon="14.5760033"><ele>777.4</ele><time>2026-04-09T13:19:16.085Z</time></trkpt><trkpt lat="41.1426433" lon="14.5759433"><ele>779.1999999999999</ele><time>2026-04-09T13:19:17.085Z</time></trkpt><trkpt lat="41.1425633" lon="14.57587"><ele>781.0</ele><time>2026-04-09T13:19:18.085Z</time></trkpt><trkpt lat="41.1424917" lon="14.5757817"><ele>781.0</ele><time>2026-04-09T13:19:19.085Z</time></trkpt><trkpt lat="41.1424383" lon="14.5756867"><ele>781.0</ele><time>2026-04-09T13:19:20.085Z</time></trkpt><trkpt lat="41.1423917" lon="14.57558"><ele>781.0</ele><time>2026-04-09T13:19:21.085Z</time></trkpt><trkpt lat="41.142365" lon="14.5754633"><ele>781.0</ele><time>2026-04-09T13:19:22.085Z</time></trkpt><trkpt lat="41.1423533" lon="14.5753467"><ele>781.0</ele><time>2026-04-09T13:19:23.085Z</time></trkpt><trkpt lat="41.1423617" lon="14.5752167"><ele>782.5</ele><time>2026-04-09T13:19:24.085Z</time></trkpt><trkpt lat="41.1423867" lon="14.57507"><ele>784.0</ele><time>2026-04-09T13:19:25.085Z</time></trkpt><trkpt lat="41.14243" lon="14.5749183"><ele>785.5</ele><time>2026-04-09T13:19:26.085Z</time></trkpt><trkpt lat="41.1424867" lon="14.5747567"><ele>787.0</ele><time>2026-04-09T13:19:27.085Z</time></trkpt><trkpt lat="41.1425517" lon="14.5745833"><ele>789.5</ele><time>2026-04-09T13:19:28.085Z</time></trkpt><trkpt lat="41.1426183" lon="14.5744183"><ele>792.0</ele><time>2026-04-09T13:19:29.085Z</time></trkpt><trkpt lat="41.1426883" lon="14.574265"><ele>794.5</ele><time>2026-04-09T13:19:30.085Z</time></trkpt><trkpt lat="41.1427567" lon="14.5741033"><ele>797.0</ele><time>2026-04-09T13:19:31.085Z</time></trkpt><trkpt lat="41.1428283" lon="14.573945"><ele>797.0</ele><time>2026-04-09T13:19:32.085Z</time></trkpt><trkpt lat="41.1428833" lon="14.5737817"><ele>797.0</ele><time>2026-04-09T13:19:33.085Z</time></trkpt><trkpt lat="41.1429533" lon="14.5736183"><ele>797.0</ele><time>2026-04-09T13:19:34.085Z</time></trkpt><trkpt lat="41.14302" lon="14.5734667"><ele>797.0</ele><time>2026-04-09T13:19:35.085Z</time></trkpt><trkpt lat="41.1430867" lon="14.573325"><ele>797.6</ele><time>2026-04-09T13:19:36.085Z</time></trkpt><trkpt lat="41.14315" lon="14.57319"><ele>798.2</ele><time>2026-04-09T13:19:37.085Z</time></trkpt><trkpt lat="41.1432067" lon="14.573065"><ele>798.8</ele><time>2026-04-09T13:19:38.085Z</time></trkpt><trkpt lat="41.1432633" lon="14.5729467"><ele>799.4</ele><time>2026-04-09T13:19:39.085Z</time></trkpt><trkpt lat="41.1433067" lon="14.5728367"><ele>800.0</ele><time>2026-04-09T13:19:40.085Z</time></trkpt><trkpt lat="41.14335" lon="14.5727283"><ele>800.0</ele><time>2026-04-09T13:19:41.085Z</time></trkpt><trkpt lat="41.1433783" lon="14.5726217"><ele>800.0</ele><time>2026-04-09T13:19:42.085Z</time></trkpt><trkpt lat="41.1433833" lon="14.572505"><ele>800.0</ele><time>2026-04-09T13:19:43.085Z</time></trkpt><trkpt lat="41.1433733" lon="14.5723717"><ele>800.0</ele><time>2026-04-09T13:19:44.085Z</time></trkpt><trkpt lat="41.143355" lon="14.5722167"><ele>800.0</ele><time>2026-04-09T13:19:45.085Z</time></trkpt><trkpt lat="41.14334" lon="14.5720733"><ele>802.0</ele><time>2026-04-09T13:19:46.085Z</time></trkpt><trkpt lat="41.1433367" lon="14.5719367"><ele>804.0</ele><time>2026-04-09T13:19:47.085Z</time></trkpt><trkpt lat="41.1433517" lon="14.5717833"><ele>806.0</ele><time>2026-04-09T13:19:48.085Z</time></trkpt><trkpt lat="41.14338" lon="14.571625"><ele>808.0</ele><time>2026-04-09T13:19:49.085Z</time></trkpt><trkpt lat="41.1434183" lon="14.57147"><ele>808.0</ele><time>2026-04-09T13:19:50.085Z</time></trkpt><trkpt lat="41.1434617" lon="14.57133"><ele>808.0</ele><time>2026-04-09T13:19:51.085Z</time></trkpt><trkpt lat="41.1435133" lon="14.5711967"><ele>808.0</ele><time>2026-04-09T13:19:52.085Z</time></trkpt><trkpt lat="41.143565" lon="14.5710633"><ele>808.0</ele><time>2026-04-09T13:19:53.085Z</time></trkpt><trkpt lat="41.1436133" lon="14.5709317"><ele>812.5999999999999</ele><time>2026-04-09T13:19:54.085Z</time></trkpt><trkpt lat="41.1436617" lon="14.5708"><ele>817.1999999999999</ele><time>2026-04-09T13:19:55.085Z</time></trkpt><trkpt lat="41.143705" lon="14.5706683"><ele>821.8</ele><time>2026-04-09T13:19:56.085Z</time></trkpt><trkpt lat="41.1437517" lon="14.570545"><ele>826.4</ele><time>2026-04-09T13:19:57.085Z</time></trkpt><trkpt lat="41.1437767" lon="14.5704167"><ele>831.0</ele><time>2026-04-09T13:19:58.085Z</time></trkpt><trkpt lat="41.1437833" lon="14.5702983"><ele>833.8333333333334</ele><time>2026-04-09T13:19:59.085Z</time></trkpt><trkpt lat="41.1437567" lon="14.5701717"><ele>836.6666666666667</ele><time>2026-04-09T13:20:00.085Z</time></trkpt><trkpt lat="41.1437217" lon="14.5700533"><ele>839.5</ele><time>2026-04-09T13:20:01.085Z</time></trkpt><trkpt lat="41.1437033" lon="14.569945"><ele>842.3333333333334</ele><time>2026-04-09T13:20:02.085Z</time></trkpt><trkpt lat="41.1436883" lon="14.569835"><ele>845.1666666666667</ele><time>2026-04-09T13:20:03.085Z</time></trkpt><trkpt lat="41.1436933" lon="14.5697233"><ele>848.0</ele><time>2026-04-09T13:20:04.085Z</time></trkpt><trkpt lat="41.14373" lon="14.5696033"><ele>851.4</ele><time>2026-04-09T13:20:05.085Z</time></trkpt><trkpt lat="41.1437617" lon="14.5694767"><ele>854.8</ele><time>2026-04-09T13:20:06.085Z</time></trkpt><trkpt lat="41.1438033" lon="14.5693483"><ele>858.2</ele><time>2026-04-09T13:20:07.085Z</time></trkpt><trkpt lat="41.1438233" lon="14.5692283"><ele>861.6</ele><time>2026-04-09T13:20:08.085Z</time></trkpt><trkpt lat="41.1438233" lon="14.569105"><ele>865.0</ele><time>2026-04-09T13:20:09.085Z</time></trkpt><trkpt lat="41.14383" lon="14.568995"><ele>864.9999999999999</ele><time>2026-04-09T13:20:10.085Z</time></trkpt><trkpt lat="41.1438483" lon="14.5689033"><ele>865.0</ele><time>2026-04-09T13:20:11.085Z</time></trkpt><trkpt lat="41.1439117" lon="14.5687683"><ele>865.0</ele><time>2026-04-09T13:20:13.085Z</time></trkpt><trkpt lat="41.1439683" lon="14.56871"><ele>865.0</ele><time>2026-04-09T13:20:14.085Z</time></trkpt><trkpt lat="41.1440433" lon="14.5686533"><ele>864.9999999999999</ele><time>2026-04-09T13:20:15.085Z</time></trkpt><trkpt lat="41.1441333" lon="14.568605"><ele>865.0</ele><time>2026-04-09T13:20:16.085Z</time></trkpt><trkpt lat="41.1442433" lon="14.56858"><ele>861.4</ele><time>2026-04-09T13:20:17.085Z</time></trkpt><trkpt lat="41.1443467" lon="14.5685667"><ele>857.8</ele><time>2026-04-09T13:20:18.085Z</time></trkpt><trkpt lat="41.1444467" lon="14.5685583"><ele>854.2</ele><time>2026-04-09T13:20:19.085Z</time></trkpt><trkpt lat="41.1445333" lon="14.568525"><ele>850.6</ele><time>2026-04-09T13:20:20.085Z</time></trkpt><trkpt lat="41.1446067" lon="14.5684667"><ele>847.0</ele><time>2026-04-09T13:20:21.085Z</time></trkpt><trkpt lat="41.1446667" lon="14.5683783"><ele>847.0</ele><time>2026-04-09T13:20:22.085Z</time></trkpt><trkpt lat="41.1447283" lon="14.5682717"><ele>847.0</ele><time>2026-04-09T13:20:23.085Z</time></trkpt><trkpt lat="41.1447883" lon="14.5681517"><ele>847.0</ele><time>2026-04-09T13:20:24.085Z</time></trkpt><trkpt lat="41.1448467" lon="14.5680383"><ele>847.0</ele><time>2026-04-09T13:20:25.085Z</time></trkpt><trkpt lat="41.1448933" lon="14.5679367"><ele>847.0</ele><time>2026-04-09T13:20:26.085Z</time></trkpt><trkpt lat="41.1449333" lon="14.567805"><ele>846.5</ele><time>2026-04-09T13:20:27.085Z</time></trkpt><trkpt lat="41.1449633" lon="14.56766"><ele>846.0</ele><time>2026-04-09T13:20:28.085Z</time></trkpt><trkpt lat="41.144985" lon="14.56751"><ele>845.5</ele><time>2026-04-09T13:20:29.085Z</time></trkpt><trkpt lat="41.145" lon="14.5673617"><ele>845.0</ele><time>2026-04-09T13:20:30.085Z</time></trkpt><trkpt lat="41.1450117" lon="14.5672117"><ele>845.0</ele><time>2026-04-09T13:20:31.085Z</time></trkpt><trkpt lat="41.14502" lon="14.5670683"><ele>845.0</ele><time>2026-04-09T13:20:32.085Z</time></trkpt><trkpt lat="41.1450117" lon="14.566935"><ele>845.0</ele><time>2026-04-09T13:20:33.085Z</time></trkpt><trkpt lat="41.1450033" lon="14.56681"><ele>845.0</ele><time>2026-04-09T13:20:34.085Z</time></trkpt><trkpt lat="41.144985" lon="14.5666783"><ele>845.0</ele><time>2026-04-09T13:20:35.085Z</time></trkpt><trkpt lat="41.1449833" lon="14.5665583"><ele>846.3333333333334</ele><time>2026-04-09T13:20:36.085Z</time></trkpt><trkpt lat="41.144975" lon="14.56644"><ele>847.6666666666667</ele><time>2026-04-09T13:20:37.085Z</time></trkpt><trkpt lat="41.144935" lon="14.5663283"><ele>849.0</ele><time>2026-04-09T13:20:38.085Z</time></trkpt><trkpt lat="41.144875" lon="14.5662217"><ele>850.3333333333333</ele><time>2026-04-09T13:20:39.085Z</time></trkpt><trkpt lat="41.1448233" lon="14.566135"><ele>851.6666666666666</ele><time>2026-04-09T13:20:40.085Z</time></trkpt><trkpt lat="41.14479" lon="14.5660467"><ele>853.0</ele><time>2026-04-09T13:20:41.085Z</time></trkpt><trkpt lat="41.1447767" lon="14.5659533"><ele>854.4</ele><time>2026-04-09T13:20:42.085Z</time></trkpt><trkpt lat="41.14477" lon="14.5658667"><ele>855.8</ele><time>2026-04-09T13:20:43.085Z</time></trkpt><trkpt lat="41.144815" lon="14.5657233"><ele>857.2</ele><time>2026-04-09T13:20:45.085Z</time></trkpt><trkpt lat="41.1449333" lon="14.5656333"><ele>858.6</ele><time>2026-04-09T13:20:47.085Z</time></trkpt><trkpt lat="41.1450267" lon="14.5656267"><ele>860.0</ele><time>2026-04-09T13:20:48.085Z</time></trkpt><trkpt lat="41.14512" lon="14.5656417"><ele>860.0</ele><time>2026-04-09T13:20:49.085Z</time></trkpt><trkpt lat="41.1452033" lon="14.565655"><ele>860.0</ele><time>2026-04-09T13:20:50.085Z</time></trkpt><trkpt lat="41.145285" lon="14.5656483"><ele>860.0</ele><time>2026-04-09T13:20:51.085Z</time></trkpt><trkpt lat="41.1453567" lon="14.5656217"><ele>860.0</ele><time>2026-04-09T13:20:52.085Z</time></trkpt><trkpt lat="41.1454117" lon="14.5654883"><ele>860.0</ele><time>2026-04-09T13:20:54.085Z</time></trkpt><trkpt lat="41.1453233" lon="14.5653783"><ele>863.8</ele><time>2026-04-09T13:20:56.085Z</time></trkpt><trkpt lat="41.1452267" lon="14.5653583"><ele>867.6</ele><time>2026-04-09T13:20:57.085Z</time></trkpt><trkpt lat="41.1451183" lon="14.565335"><ele>871.4000000000001</ele><time>2026-04-09T13:20:58.085Z</time></trkpt><trkpt lat="41.1450117" lon="14.565305"><ele>875.2</ele><time>2026-04-09T13:20:59.085Z</time></trkpt><trkpt lat="41.1449167" lon="14.56529"><ele>879.0</ele><time>2026-04-09T13:21:00.085Z</time></trkpt><trkpt lat="41.1448283" lon="14.565295"><ele>881.4000000000001</ele><time>2026-04-09T13:21:01.085Z</time></trkpt><trkpt lat="41.1447433" lon="14.56533"><ele>883.8000000000001</ele><time>2026-04-09T13:21:02.085Z</time></trkpt><trkpt lat="41.1446617" lon="14.5653883"><ele>886.1999999999999</ele><time>2026-04-09T13:21:03.085Z</time></trkpt><trkpt lat="41.1445733" lon="14.5654533"><ele>888.5999999999999</ele><time>2026-04-09T13:21:04.085Z</time></trkpt><trkpt lat="41.1444917" lon="14.5655333"><ele>891.0</ele><time>2026-04-09T13:21:05.085Z</time></trkpt><trkpt lat="41.1444183" lon="14.56561"><ele>891.0</ele><time>2026-04-09T13:21:06.085Z</time></trkpt><trkpt lat="41.1443567" lon="14.5656867"><ele>890.9999999999999</ele><time>2026-04-09T13:21:07.085Z</time></trkpt><trkpt lat="41.1443033" lon="14.5657783"><ele>890.9999999999999</ele><time>2026-04-09T13:21:08.085Z</time></trkpt><trkpt lat="41.1442617" lon="14.56588"><ele>891.0</ele><time>2026-04-09T13:21:09.085Z</time></trkpt><trkpt lat="41.1442417" lon="14.5659967"><ele>891.0</ele><time>2026-04-09T13:21:10.085Z</time></trkpt><trkpt lat="41.1442667" lon="14.5661283"><ele>890.5999999999999</ele><time>2026-04-09T13:21:11.085Z</time></trkpt><trkpt lat="41.1443017" lon="14.5662683"><ele>890.1999999999999</ele><time>2026-04-09T13:21:12.085Z</time></trkpt><trkpt lat="41.144355" lon="14.566415"><ele>889.8000000000001</ele><time>2026-04-09T13:21:13.085Z</time></trkpt><trkpt lat="41.1443783" lon="14.56654"><ele>889.4000000000001</ele><time>2026-04-09T13:21:14.085Z</time></trkpt><trkpt lat="41.1443933" lon="14.5666733"><ele>889.0</ele><time>2026-04-09T13:21:15.085Z</time></trkpt><trkpt lat="41.14439" lon="14.5668017"><ele>889.0</ele><time>2026-04-09T13:21:16.085Z</time></trkpt><trkpt lat="41.1443483" lon="14.5669183"><ele>889.0000000000001</ele><time>2026-04-09T13:21:17.085Z</time></trkpt><trkpt lat="41.1442783" lon="14.5670183"><ele>889.0000000000001</ele><time>2026-04-09T13:21:18.085Z</time></trkpt><trkpt lat="41.144185" lon="14.567085"><ele>889.0</ele><time>2026-04-09T13:21:19.085Z</time></trkpt><trkpt lat="41.1440783" lon="14.5671183"><ele>889.0</ele><time>2026-04-09T13:21:20.085Z</time></trkpt><trkpt lat="41.14397" lon="14.5671133"><ele>889.8000000000001</ele><time>2026-04-09T13:21:21.085Z</time></trkpt><trkpt lat="41.14386" lon="14.567095"><ele>890.6000000000001</ele><time>2026-04-09T13:21:22.085Z</time></trkpt><trkpt lat="41.1437583" lon="14.5670433"><ele>891.4</ele><time>2026-04-09T13:21:23.085Z</time></trkpt><trkpt lat="41.1436583" lon="14.56698"><ele>892.2</ele><time>2026-04-09T13:21:24.085Z</time></trkpt><trkpt lat="41.1435833" lon="14.5669383"><ele>893.0</ele><time>2026-04-09T13:21:25.085Z</time></trkpt><trkpt lat="41.1435117" lon="14.566925"><ele>893.0</ele><time>2026-04-09T13:21:26.085Z</time></trkpt><trkpt lat="41.1434067" lon="14.56702"><ele>893.0</ele><time>2026-04-09T13:21:28.085Z</time></trkpt><trkpt lat="41.1433783" lon="14.567135"><ele>893.0</ele><time>2026-04-09T13:21:29.085Z</time></trkpt><trkpt lat="41.1433367" lon="14.567255"><ele>893.0</ele><time>2026-04-09T13:21:30.085Z</time></trkpt><trkpt lat="41.1432783" lon="14.56736"><ele>893.0</ele><time>2026-04-09T13:21:31.085Z</time></trkpt><trkpt lat="41.143195" lon="14.5674317"><ele>900.4</ele><time>2026-04-09T13:21:32.085Z</time></trkpt><trkpt lat="41.1430933" lon="14.56748"><ele>907.8</ele><time>2026-04-09T13:21:33.085Z</time></trkpt><trkpt lat="41.1429983" lon="14.5675267"><ele>915.2</ele><time>2026-04-09T13:21:34.085Z</time></trkpt><trkpt lat="41.1429067" lon="14.567585"><ele>922.6</ele><time>2026-04-09T13:21:35.085Z</time></trkpt><trkpt lat="41.14283" lon="14.5676667"><ele>930.0</ele><time>2026-04-09T13:21:36.085Z</time></trkpt><trkpt lat="41.142775" lon="14.5677783"><ele>927.2</ele><time>2026-04-09T13:21:37.085Z</time></trkpt><trkpt lat="41.1427383" lon="14.56791"><ele>924.4</ele><time>2026-04-09T13:21:38.085Z</time></trkpt><trkpt lat="41.1427167" lon="14.568055"><ele>921.5999999999999</ele><time>2026-04-09T13:21:39.085Z</time></trkpt><trkpt lat="41.142715" lon="14.5682067"><ele>918.8</ele><time>2026-04-09T13:21:40.085Z</time></trkpt><trkpt lat="41.14271" lon="14.5683367"><ele>916.0</ele><time>2026-04-09T13:21:41.085Z</time></trkpt><trkpt lat="41.14269" lon="14.5684383"><ele>916.0</ele><time>2026-04-09T13:21:42.085Z</time></trkpt><trkpt lat="41.14266" lon="14.56852"><ele>915.9999999999999</ele><time>2026-04-09T13:21:43.085Z</time></trkpt><trkpt lat="41.142605" lon="14.568595"><ele>915.9999999999999</ele><time>2026-04-09T13:21:44.085Z</time></trkpt><trkpt lat="41.1425233" lon="14.5686617"><ele>916.0</ele><time>2026-04-09T13:21:45.085Z</time></trkpt><trkpt lat="41.1424333" lon="14.5687417"><ele>916.0</ele><time>2026-04-09T13:21:46.085Z</time></trkpt><trkpt lat="41.1423383" lon="14.568855"><ele>919.4</ele><time>2026-04-09T13:21:47.085Z</time></trkpt><trkpt lat="41.1422617" lon="14.5689733"><ele>922.8</ele><time>2026-04-09T13:21:48.085Z</time></trkpt><trkpt lat="41.1422" lon="14.5690883"><ele>926.1999999999999</ele><time>2026-04-09T13:21:49.085Z</time></trkpt><trkpt lat="41.142155" lon="14.569195"><ele>929.5999999999999</ele><time>2026-04-09T13:21:50.085Z</time></trkpt><trkpt lat="41.14212" lon="14.56929"><ele>933.0</ele><time>2026-04-09T13:21:51.085Z</time></trkpt><trkpt lat="41.1420917" lon="14.569375"><ele>933.0</ele><time>2026-04-09T13:21:52.085Z</time></trkpt><trkpt lat="41.1420367" lon="14.5695167"><ele>933.0</ele><time>2026-04-09T13:21:54.085Z</time></trkpt><trkpt lat="41.1419367" lon="14.5695483"><ele>933.0</ele><time>2026-04-09T13:21:56.085Z</time></trkpt><trkpt lat="41.1418867" lon="14.5694317"><ele>933.0</ele><time>2026-04-09T13:21:58.085Z</time></trkpt><trkpt lat="41.1419017" lon="14.569345"><ele>933.0</ele><time>2026-04-09T13:21:59.085Z</time></trkpt><trkpt lat="41.1419267" lon="14.5692467"><ele>933.0</ele><time>2026-04-09T13:22:00.085Z</time></trkpt><trkpt lat="41.1419567" lon="14.5691283"><ele>933.0</ele><time>2026-04-09T13:22:01.085Z</time></trkpt><trkpt lat="41.1419867" lon="14.56901"><ele>933.0</ele><time>2026-04-09T13:22:02.085Z</time></trkpt><trkpt lat="41.14202" lon="14.5689117"><ele>933.0</ele><time>2026-04-09T13:22:03.085Z</time></trkpt><trkpt lat="41.1420667" lon="14.5688217"><ele>933.0</ele><time>2026-04-09T13:22:04.085Z</time></trkpt><trkpt lat="41.1421117" lon="14.5687433"><ele>933.0</ele><time>2026-04-09T13:22:05.085Z</time></trkpt><trkpt lat="41.1421617" lon="14.5686633"><ele>930.1666666666666</ele><time>2026-04-09T13:22:06.085Z</time></trkpt><trkpt lat="41.142215" lon="14.568575"><ele>927.3333333333333</ele><time>2026-04-09T13:22:07.085Z</time></trkpt><trkpt lat="41.142265" lon="14.5684983"><ele>924.5</ele><time>2026-04-09T13:22:08.085Z</time></trkpt><trkpt lat="41.14231" lon="14.56843"><ele>921.6666666666666</ele><time>2026-04-09T13:22:09.085Z</time></trkpt><trkpt lat="41.142355" lon="14.56835"><ele>918.8333333333333</ele><time>2026-04-09T13:22:10.085Z</time></trkpt><trkpt lat="41.1423917" lon="14.5682617"><ele>916.0</ele><time>2026-04-09T13:22:11.085Z</time></trkpt><trkpt lat="41.14241" lon="14.5681683"><ele>916.0</ele><time>2026-04-09T13:22:12.085Z</time></trkpt><trkpt lat="41.1423983" lon="14.5680683"><ele>915.9999999999999</ele><time>2026-04-09T13:22:13.085Z</time></trkpt><trkpt lat="41.1423667" lon="14.5679517"><ele>915.9999999999999</ele><time>2026-04-09T13:22:14.085Z</time></trkpt><trkpt lat="41.1423333" lon="14.5678183"><ele>916.0</ele><time>2026-04-09T13:22:15.085Z</time></trkpt><trkpt lat="41.1423067" lon="14.5677"><ele>916.0</ele><time>2026-04-09T13:22:16.085Z</time></trkpt><trkpt lat="41.1423" lon="14.5675917"><ele>918.8</ele><time>2026-04-09T13:22:17.085Z</time></trkpt><trkpt lat="41.1423067" lon="14.5674683"><ele>921.5999999999999</ele><time>2026-04-09T13:22:18.085Z</time></trkpt><trkpt lat="41.1423367" lon="14.5673483"><ele>924.4</ele><time>2026-04-09T13:22:19.085Z</time></trkpt><trkpt lat="41.1423883" lon="14.5672233"><ele>927.2</ele><time>2026-04-09T13:22:20.085Z</time></trkpt><trkpt lat="41.1424433" lon="14.5671"><ele>930.0</ele><time>2026-04-09T13:22:21.085Z</time></trkpt><trkpt lat="41.1424967" lon="14.5669917"><ele>932.0</ele><time>2026-04-09T13:22:22.085Z</time></trkpt><trkpt lat="41.1425233" lon="14.5668667"><ele>934.0</ele><time>2026-04-09T13:22:23.085Z</time></trkpt><trkpt lat="41.1425217" lon="14.56673"><ele>936.0</ele><time>2026-04-09T13:22:24.085Z</time></trkpt><trkpt lat="41.1425" lon="14.5665683"><ele>938.0</ele><time>2026-04-09T13:22:25.085Z</time></trkpt><trkpt lat="41.1424833" lon="14.5664067"><ele>940.0</ele><time>2026-04-09T13:22:26.085Z</time></trkpt><trkpt lat="41.1424683" lon="14.5662333"><ele>941.75</ele><time>2026-04-09T13:22:27.085Z</time></trkpt><trkpt lat="41.142465" lon="14.566065"><ele>943.5</ele><time>2026-04-09T13:22:28.085Z</time></trkpt><trkpt lat="41.142465" lon="14.5658967"><ele>945.25</ele><time>2026-04-09T13:22:29.085Z</time></trkpt><trkpt lat="41.1424633" lon="14.5657383"><ele>947.0</ele><time>2026-04-09T13:22:30.085Z</time></trkpt><trkpt lat="41.14246" lon="14.5655867"><ele>947.0</ele><time>2026-04-09T13:22:31.085Z</time></trkpt><trkpt lat="41.1424533" lon="14.5654367"><ele>947.0</ele><time>2026-04-09T13:22:32.085Z</time></trkpt><trkpt lat="41.142445" lon="14.5653017"><ele>947.0</ele><time>2026-04-09T13:22:33.085Z</time></trkpt><trkpt lat="41.1424583" lon="14.5651633"><ele>947.0</ele><time>2026-04-09T13:22:34.085Z</time></trkpt><trkpt lat="41.1424817" lon="14.565035"><ele>947.0</ele><time>2026-04-09T13:22:35.085Z</time></trkpt><trkpt lat="41.1425217" lon="14.5648917"><ele>948.25</ele><time>2026-04-09T13:22:36.085Z</time></trkpt><trkpt lat="41.142585" lon="14.5647467"><ele>949.5</ele><time>2026-04-09T13:22:37.085Z</time></trkpt><trkpt lat="41.1426617" lon="14.5645983"><ele>950.75</ele><time>2026-04-09T13:22:38.085Z</time></trkpt><trkpt lat="41.1427367" lon="14.5644483"><ele>952.0</ele><time>2026-04-09T13:22:39.085Z</time></trkpt><trkpt lat="41.1428" lon="14.564315"><ele>955.6</ele><time>2026-04-09T13:22:40.085Z</time></trkpt><trkpt lat="41.1428533" lon="14.5641983"><ele>959.2</ele><time>2026-04-09T13:22:41.085Z</time></trkpt><trkpt lat="41.142915" lon="14.5640867"><ele>962.8</ele><time>2026-04-09T13:22:42.085Z</time></trkpt><trkpt lat="41.1429917" lon="14.5639867"><ele>966.4</ele><time>2026-04-09T13:22:43.085Z</time></trkpt><trkpt lat="41.1430817" lon="14.5638933"><ele>970.0</ele><time>2026-04-09T13:22:44.085Z</time></trkpt><trkpt lat="41.1431733" lon="14.5638283"><ele>968.1666666666666</ele><time>2026-04-09T13:22:45.085Z</time></trkpt><trkpt lat="41.1432567" lon="14.56378"><ele>966.3333333333333</ele><time>2026-04-09T13:22:46.085Z</time></trkpt><trkpt lat="41.1433267" lon="14.5637433"><ele>964.5</ele><time>2026-04-09T13:22:47.085Z</time></trkpt><trkpt lat="41.1433917" lon="14.5637133"><ele>962.6666666666667</ele><time>2026-04-09T13:22:48.085Z</time></trkpt><trkpt lat="41.1434883" lon="14.5636167"><ele>960.8333333333334</ele><time>2026-04-09T13:22:50.085Z</time></trkpt><trkpt lat="41.1435083" lon="14.5635267"><ele>959.0</ele><time>2026-04-09T13:22:51.085Z</time></trkpt><trkpt lat="41.143495" lon="14.5634233"><ele>959.0</ele><time>2026-04-09T13:22:52.085Z</time></trkpt><trkpt lat="41.1434683" lon="14.5633417"><ele>959.0</ele><time>2026-04-09T13:22:53.085Z</time></trkpt><trkpt lat="41.1434183" lon="14.563275"><ele>959.0</ele><time>2026-04-09T13:22:54.085Z</time></trkpt><trkpt lat="41.14336" lon="14.5632317"><ele>959.0</ele><time>2026-04-09T13:22:55.085Z</time></trkpt><trkpt lat="41.143295" lon="14.5632233"><ele>959.0</ele><time>2026-04-09T13:22:56.085Z</time></trkpt><trkpt lat="41.1432183" lon="14.5632433"><ele>959.0</ele><time>2026-04-09T13:22:57.085Z</time></trkpt><trkpt lat="41.1431367" lon="14.5632783"><ele>959.0</ele><time>2026-04-09T13:22:58.085Z</time></trkpt><trkpt lat="41.143065" lon="14.5633283"><ele>960.5000000000001</ele><time>2026-04-09T13:22:59.085Z</time></trkpt><trkpt lat="41.1429933" lon="14.563385"><ele>962.0</ele><time>2026-04-09T13:23:00.085Z</time></trkpt><trkpt lat="41.1429283" lon="14.5634483"><ele>963.5</ele><time>2026-04-09T13:23:01.085Z</time></trkpt><trkpt lat="41.1428583" lon="14.56353"><ele>965.0</ele><time>2026-04-09T13:23:02.085Z</time></trkpt><trkpt lat="41.1427933" lon="14.5636167"><ele>966.5000000000001</ele><time>2026-04-09T13:23:03.085Z</time></trkpt><trkpt lat="41.142735" lon="14.5637183"><ele>968.0</ele><time>2026-04-09T13:23:04.085Z</time></trkpt><trkpt lat="41.14267" lon="14.5638283"><ele>968.4</ele><time>2026-04-09T13:23:05.085Z</time></trkpt><trkpt lat="41.142605" lon="14.5639417"><ele>968.8</ele><time>2026-04-09T13:23:06.085Z</time></trkpt><trkpt lat="41.1425333" lon="14.56405"><ele>969.2</ele><time>2026-04-09T13:23:07.085Z</time></trkpt><trkpt lat="41.14245" lon="14.5641467"><ele>969.6</ele><time>2026-04-09T13:23:08.085Z</time></trkpt><trkpt lat="41.1423667" lon="14.5642233"><ele>970.0</ele><time>2026-04-09T13:23:09.085Z</time></trkpt><trkpt lat="41.1422733" lon="14.564285"><ele>974.8</ele><time>2026-04-09T13:23:10.085Z</time></trkpt><trkpt lat="41.1421817" lon="14.56434"><ele>979.6</ele><time>2026-04-09T13:23:11.085Z</time></trkpt><trkpt lat="41.1420917" lon="14.5643933"><ele>984.4000000000001</ele><time>2026-04-09T13:23:12.085Z</time></trkpt><trkpt lat="41.142005" lon="14.5644533"><ele>989.2</ele><time>2026-04-09T13:23:13.085Z</time></trkpt><trkpt lat="41.1419267" lon="14.5645267"><ele>994.0</ele><time>2026-04-09T13:23:14.085Z</time></trkpt><trkpt lat="41.1418633" lon="14.5646167"><ele>994.0</ele><time>2026-04-09T13:23:15.085Z</time></trkpt><trkpt lat="41.1418117" lon="14.56473"><ele>994.0000000000001</ele><time>2026-04-09T13:23:16.085Z</time></trkpt><trkpt lat="41.1417667" lon="14.564855"><ele>994.0000000000001</ele><time>2026-04-09T13:23:17.085Z</time></trkpt><trkpt lat="41.14173" lon="14.5649933"><ele>994.0</ele><time>2026-04-09T13:23:18.085Z</time></trkpt><trkpt lat="41.1417083" lon="14.56513"><ele>994.0</ele><time>2026-04-09T13:23:19.085Z</time></trkpt><trkpt lat="41.1416917" lon="14.56527"><ele>994.2</ele><time>2026-04-09T13:23:20.085Z</time></trkpt><trkpt lat="41.1416733" lon="14.5654"><ele>994.4000000000001</ele><time>2026-04-09T13:23:21.085Z</time></trkpt><trkpt lat="41.1416517" lon="14.565535"><ele>994.6</ele><time>2026-04-09T13:23:22.085Z</time></trkpt><trkpt lat="41.1416317" lon="14.5656617"><ele>994.8</ele><time>2026-04-09T13:23:23.085Z</time></trkpt><trkpt lat="41.1416083" lon="14.5657917"><ele>995.0</ele><time>2026-04-09T13:23:24.085Z</time></trkpt><trkpt lat="41.14159" lon="14.5659117"><ele>995.0000000000001</ele><time>2026-04-09T13:23:25.085Z</time></trkpt><trkpt lat="41.1415717" lon="14.5660267"><ele>995.0</ele><time>2026-04-09T13:23:26.085Z</time></trkpt><trkpt lat="41.1415567" lon="14.5661417"><ele>995.0</ele><time>2026-04-09T13:23:27.085Z</time></trkpt><trkpt lat="41.1415433" lon="14.5662483"><ele>995.0</ele><time>2026-04-09T13:23:28.085Z</time></trkpt><trkpt lat="41.14153" lon="14.566355"><ele>995.0000000000001</ele><time>2026-04-09T13:23:29.085Z</time></trkpt><trkpt lat="41.1415283" lon="14.5664617"><ele>995.0</ele><time>2026-04-09T13:23:30.085Z</time></trkpt><trkpt lat="41.14151" lon="14.56658"><ele>1000.8333333333334</ele><time>2026-04-09T13:23:31.085Z</time></trkpt><trkpt lat="41.1415017" lon="14.5666967"><ele>1006.6666666666667</ele><time>2026-04-09T13:23:32.085Z</time></trkpt><trkpt lat="41.1414767" lon="14.5668033"><ele>1012.5</ele><time>2026-04-09T13:23:33.085Z</time></trkpt><trkpt lat="41.14145" lon="14.5669083"><ele>1018.3333333333333</ele><time>2026-04-09T13:23:34.085Z</time></trkpt><trkpt lat="41.1414217" lon="14.5670133"><ele>1024.1666666666665</ele><time>2026-04-09T13:23:35.085Z</time></trkpt><trkpt lat="41.14139" lon="14.567115"><ele>1030.0</ele><time>2026-04-09T13:23:36.085Z</time></trkpt><trkpt lat="41.1413533" lon="14.5672167"><ele>1030.0</ele><time>2026-04-09T13:23:37.085Z</time></trkpt><trkpt lat="41.1413133" lon="14.56732"><ele>1030.0</ele><time>2026-04-09T13:23:38.085Z</time></trkpt><trkpt lat="41.1412633" lon="14.56742"><ele>1030.0</ele><time>2026-04-09T13:23:39.085Z</time></trkpt><trkpt lat="41.14121" lon="14.5675183"><ele>1030.0</ele><time>2026-04-09T13:23:40.085Z</time></trkpt><trkpt lat="41.1411433" lon="14.56761"><ele>1030.0</ele><time>2026-04-09T13:23:41.085Z</time></trkpt><trkpt lat="41.1410683" lon="14.5676833"><ele>1030.0</ele><time>2026-04-09T13:23:42.085Z</time></trkpt><trkpt lat="41.14099" lon="14.5677517"><ele>1030.0</ele><time>2026-04-09T13:23:43.085Z</time></trkpt><trkpt lat="41.14091" lon="14.5678067"><ele>1030.0</ele><time>2026-04-09T13:23:44.085Z</time></trkpt><trkpt lat="41.1408317" lon="14.5678517"><ele>1030.0</ele><time>2026-04-09T13:23:45.085Z</time></trkpt><trkpt lat="41.140745" lon="14.5678967"><ele>1030.0</ele><time>2026-04-09T13:23:46.085Z</time></trkpt><trkpt lat="41.140645" lon="14.56794"><ele>1033.2</ele><time>2026-04-09T13:23:47.085Z</time></trkpt><trkpt lat="41.140545" lon="14.567995"><ele>1036.4</ele><time>2026-04-09T13:23:48.085Z</time></trkpt><trkpt lat="41.1404533" lon="14.5680517"><ele>1039.6</ele><time>2026-04-09T13:23:49.085Z</time></trkpt><trkpt lat="41.14037" lon="14.5681133"><ele>1042.8</ele><time>2026-04-09T13:23:50.085Z</time></trkpt><trkpt lat="41.1402983" lon="14.56817"><ele>1046.0</ele><time>2026-04-09T13:23:51.085Z</time></trkpt><trkpt lat="41.1402283" lon="14.5682217"><ele>1046.0</ele><time>2026-04-09T13:23:52.085Z</time></trkpt><trkpt lat="41.1401583" lon="14.5682783"><ele>1046.0</ele><time>2026-04-09T13:23:53.085Z</time></trkpt><trkpt lat="41.1400883" lon="14.568335"><ele>1046.0</ele><time>2026-04-09T13:23:54.085Z</time></trkpt><trkpt lat="41.1400267" lon="14.5683967"><ele>1046.0</ele><time>2026-04-09T13:23:55.085Z</time></trkpt><trkpt lat="41.139975" lon="14.568465"><ele>1046.0</ele><time>2026-04-09T13:23:56.085Z</time></trkpt><trkpt lat="41.139935" lon="14.56854"><ele>1046.0</ele><time>2026-04-09T13:23:57.085Z</time></trkpt><trkpt lat="41.1398983" lon="14.5686217"><ele>1050.3333333333335</ele><time>2026-04-09T13:23:58.085Z</time></trkpt><trkpt lat="41.139875" lon="14.568715"><ele>1054.6666666666667</ele><time>2026-04-09T13:23:59.085Z</time></trkpt><trkpt lat="41.1398517" lon="14.5688133"><ele>1059.0</ele><time>2026-04-09T13:24:00.085Z</time></trkpt><trkpt lat="41.1398367" lon="14.568915"><ele>1063.3333333333333</ele><time>2026-04-09T13:24:01.085Z</time></trkpt><trkpt lat="41.1398117" lon="14.5690183"><ele>1067.6666666666665</ele><time>2026-04-09T13:24:02.085Z</time></trkpt><trkpt lat="41.139775" lon="14.5691083"><ele>1072.0</ele><time>2026-04-09T13:24:03.085Z</time></trkpt><trkpt lat="41.1397233" lon="14.569205"><ele>1072.0</ele><time>2026-04-09T13:24:04.085Z</time></trkpt><trkpt lat="41.13966" lon="14.5693"><ele>1072.0</ele><time>2026-04-09T13:24:05.085Z</time></trkpt><trkpt lat="41.1395817" lon="14.56939"><ele>1072.0</ele><time>2026-04-09T13:24:06.085Z</time></trkpt><trkpt lat="41.1395167" lon="14.56949"><ele>1072.0</ele><time>2026-04-09T13:24:07.085Z</time></trkpt><trkpt lat="41.1394533" lon="14.5696"><ele>1072.0</ele><time>2026-04-09T13:24:08.085Z</time></trkpt><trkpt lat="41.13941" lon="14.5697233"><ele>1069.0</ele><time>2026-04-09T13:24:09.085Z</time></trkpt><trkpt lat="41.1393767" lon="14.5698517"><ele>1066.0</ele><time>2026-04-09T13:24:10.085Z</time></trkpt><trkpt lat="41.1393417" lon="14.569985"><ele>1063.0</ele><time>2026-04-09T13:24:11.085Z</time></trkpt><trkpt lat="41.1393017" lon="14.5701383"><ele>1060.0</ele><time>2026-04-09T13:24:12.085Z</time></trkpt><trkpt lat="41.13927" lon="14.5703017"><ele>1057.25</ele><time>2026-04-09T13:24:13.085Z</time></trkpt><trkpt lat="41.13922" lon="14.57046"><ele>1054.5</ele><time>2026-04-09T13:24:14.085Z</time></trkpt><trkpt lat="41.1391833" lon="14.5706067"><ele>1051.75</ele><time>2026-04-09T13:24:15.085Z</time></trkpt><trkpt lat="41.1391417" lon="14.5707533"><ele>1049.0</ele><time>2026-04-09T13:24:16.085Z</time></trkpt><trkpt lat="41.1390983" lon="14.57089"><ele>1049.0</ele><time>2026-04-09T13:24:17.085Z</time></trkpt><trkpt lat="41.1390583" lon="14.5710183"><ele>1049.0</ele><time>2026-04-09T13:24:18.085Z</time></trkpt><trkpt lat="41.1390067" lon="14.571135"><ele>1049.0</ele><time>2026-04-09T13:24:19.085Z</time></trkpt><trkpt lat="41.1389433" lon="14.5712267"><ele>1049.0</ele><time>2026-04-09T13:24:20.085Z</time></trkpt><trkpt lat="41.1388767" lon="14.5713"><ele>1049.0</ele><time>2026-04-09T13:24:21.085Z</time></trkpt><trkpt lat="41.1387867" lon="14.5713417"><ele>1046.6000000000001</ele><time>2026-04-09T13:24:22.085Z</time></trkpt><trkpt lat="41.138685" lon="14.5713633"><ele>1044.2</ele><time>2026-04-09T13:24:23.085Z</time></trkpt><trkpt lat="41.13858" lon="14.5713667"><ele>1041.8000000000002</ele><time>2026-04-09T13:24:24.085Z</time></trkpt><trkpt lat="41.1384817" lon="14.57137"><ele>1039.4</ele><time>2026-04-09T13:24:25.085Z</time></trkpt><trkpt lat="41.13839" lon="14.5713683"><ele>1037.0</ele><time>2026-04-09T13:24:26.085Z</time></trkpt><trkpt lat="41.1383117" lon="14.5713433"><ele>1037.0</ele><time>2026-04-09T13:24:27.085Z</time></trkpt><trkpt lat="41.138235" lon="14.5712967"><ele>1037.0</ele><time>2026-04-09T13:24:28.085Z</time></trkpt><trkpt lat="41.138155" lon="14.571235"><ele>1037.0</ele><time>2026-04-09T13:24:29.085Z</time></trkpt><trkpt lat="41.1380733" lon="14.571165"><ele>1037.0</ele><time>2026-04-09T13:24:30.085Z</time></trkpt><trkpt lat="41.1379983" lon="14.5710767"><ele>1037.0</ele><time>2026-04-09T13:24:31.085Z</time></trkpt><trkpt lat="41.1379367" lon="14.5709767"><ele>1038.4</ele><time>2026-04-09T13:24:32.085Z</time></trkpt><trkpt lat="41.1378833" lon="14.5708583"><ele>1039.8000000000002</ele><time>2026-04-09T13:24:33.085Z</time></trkpt><trkpt lat="41.137825" lon="14.5707417"><ele>1041.2</ele><time>2026-04-09T13:24:34.085Z</time></trkpt><trkpt lat="41.137755" lon="14.5706317"><ele>1042.6000000000001</ele><time>2026-04-09T13:24:35.085Z</time></trkpt><trkpt lat="41.1376783" lon="14.5705417"><ele>1044.0</ele><time>2026-04-09T13:24:36.085Z</time></trkpt><trkpt lat="41.1375983" lon="14.5704683"><ele>1044.0</ele><time>2026-04-09T13:24:37.085Z</time></trkpt><trkpt lat="41.137525" lon="14.5703967"><ele>1044.0</ele><time>2026-04-09T13:24:38.085Z</time></trkpt><trkpt lat="41.137445" lon="14.57033"><ele>1044.0</ele><time>2026-04-09T13:24:39.085Z</time></trkpt><trkpt lat="41.137355" lon="14.5702833"><ele>1044.0</ele><time>2026-04-09T13:24:40.085Z</time></trkpt><trkpt lat="41.1372717" lon="14.570235"><ele>1044.0</ele><time>2026-04-09T13:24:41.085Z</time></trkpt><trkpt lat="41.1372067" lon="14.5701733"><ele>1044.8333333333333</ele><time>2026-04-09T13:24:42.085Z</time></trkpt><trkpt lat="41.1371517" lon="14.570095"><ele>1045.6666666666667</ele><time>2026-04-09T13:24:43.085Z</time></trkpt><trkpt lat="41.13711" lon="14.5700033"><ele>1046.5</ele><time>2026-04-09T13:24:44.085Z</time></trkpt><trkpt lat="41.13707" lon="14.5699033"><ele>1047.3333333333335</ele><time>2026-04-09T13:24:45.085Z</time></trkpt><trkpt lat="41.1370283" lon="14.56979"><ele>1048.1666666666667</ele><time>2026-04-09T13:24:46.085Z</time></trkpt><trkpt lat="41.1369767" lon="14.5696967"><ele>1049.0</ele><time>2026-04-09T13:24:47.085Z</time></trkpt><trkpt lat="41.1369083" lon="14.5696"><ele>1059.2</ele><time>2026-04-09T13:24:48.085Z</time></trkpt><trkpt lat="41.1368183" lon="14.56952"><ele>1069.4</ele><time>2026-04-09T13:24:49.085Z</time></trkpt><trkpt lat="41.1367183" lon="14.569465"><ele>1079.6</ele><time>2026-04-09T13:24:50.085Z</time></trkpt><trkpt lat="41.1366283" lon="14.569415"><ele>1089.8</ele><time>2026-04-09T13:24:51.085Z</time></trkpt><trkpt lat="41.136545" lon="14.569365"><ele>1100.0</ele><time>2026-04-09T13:24:52.085Z</time></trkpt><trkpt lat="41.136465" lon="14.5693167"><ele>1100.0</ele><time>2026-04-09T13:24:53.085Z</time></trkpt><trkpt lat="41.1363867" lon="14.5692833"><ele>1100.0</ele><time>2026-04-09T13:24:54.085Z</time></trkpt><trkpt lat="41.1363167" lon="14.5692767"><ele>1100.0</ele><time>2026-04-09T13:24:55.085Z</time></trkpt><trkpt lat="41.136245" lon="14.5692833"><ele>1100.0</ele><time>2026-04-09T13:24:56.085Z</time></trkpt><trkpt lat="41.13616" lon="14.5693067"><ele>1100.0</ele><time>2026-04-09T13:24:57.085Z</time></trkpt><trkpt lat="41.1360583" lon="14.5693483"><ele>1100.0</ele><time>2026-04-09T13:24:58.085Z</time></trkpt><trkpt lat="41.1359467" lon="14.5694167"><ele>1100.0</ele><time>2026-04-09T13:24:59.085Z</time></trkpt><trkpt lat="41.1358483" lon="14.5694833"><ele>1100.0</ele><time>2026-04-09T13:25:00.085Z</time></trkpt><trkpt lat="41.135755" lon="14.5695567"><ele>1100.0</ele><time>2026-04-09T13:25:01.085Z</time></trkpt><trkpt lat="41.13567" lon="14.5696483"><ele>1100.0</ele><time>2026-04-09T13:25:02.085Z</time></trkpt><trkpt lat="41.1355933" lon="14.5697633"><ele>1100.0</ele><time>2026-04-09T13:25:03.085Z</time></trkpt><trkpt lat="41.1355133" lon="14.5698817"><ele>1097.0</ele><time>2026-04-09T13:25:04.085Z</time></trkpt><trkpt lat="41.13544" lon="14.5699983"><ele>1094.0</ele><time>2026-04-09T13:25:05.085Z</time></trkpt><trkpt lat="41.1353683" lon="14.5701133"><ele>1091.0</ele><time>2026-04-09T13:25:06.085Z</time></trkpt><trkpt lat="41.1352917" lon="14.5702167"><ele>1088.0</ele><time>2026-04-09T13:25:07.085Z</time></trkpt><trkpt lat="41.1352183" lon="14.5703133"><ele>1085.0</ele><time>2026-04-09T13:25:08.085Z</time></trkpt><trkpt lat="41.1351517" lon="14.570405"><ele>1083.3333333333335</ele><time>2026-04-09T13:25:09.085Z</time></trkpt><trkpt lat="41.135075" lon="14.5704883"><ele>1081.6666666666667</ele><time>2026-04-09T13:25:10.085Z</time></trkpt><trkpt lat="41.1349917" lon="14.570555"><ele>1080.0</ele><time>2026-04-09T13:25:11.085Z</time></trkpt><trkpt lat="41.1349217" lon="14.5706"><ele>1078.3333333333333</ele><time>2026-04-09T13:25:12.085Z</time></trkpt><trkpt lat="41.13486" lon="14.5706333"><ele>1076.6666666666665</ele><time>2026-04-09T13:25:13.085Z</time></trkpt><trkpt lat="41.1347683" lon="14.5706717"><ele>1075.0</ele><time>2026-04-09T13:25:15.085Z</time></trkpt><trkpt lat="41.1347017" lon="14.5706717"><ele>1072.8333333333333</ele><time>2026-04-09T13:25:17.085Z</time></trkpt><trkpt lat="41.1346233" lon="14.57067"><ele>1070.6666666666665</ele><time>2026-04-09T13:25:20.085Z</time></trkpt><trkpt lat="41.134555" lon="14.570675"><ele>1068.5</ele><time>2026-04-09T13:25:24.085Z</time></trkpt><trkpt lat="41.134485" lon="14.570765"><ele>1066.3333333333333</ele><time>2026-04-09T13:30:00.086Z</time></trkpt><trkpt lat="41.1345333" lon="14.57082"><ele>1064.1666666666667</ele><time>2026-04-09T13:30:03.086Z</time></trkpt><trkpt lat="41.1346133" lon="14.5707667"><ele>1062.0</ele><time>2026-04-09T13:30:06.086Z</time></trkpt><trkpt lat="41.1346583" lon="14.5706633"><ele>1062.0</ele><time>2026-04-09T13:30:09.086Z</time></trkpt><trkpt lat="41.13468" lon="14.5705583"><ele>1062.0</ele><time>2026-04-09T13:30:40.086Z</time></trkpt><trkpt lat="41.1346733" lon="14.5704533"><ele>1062.0</ele><time>2026-04-09T13:30:43.086Z</time></trkpt><trkpt lat="41.1346617" lon="14.5703517"><ele>1062.0</ele><time>2026-04-09T13:30:45.086Z</time></trkpt><trkpt lat="41.1346467" lon="14.570235"><ele>1062.0</ele><time>2026-04-09T13:30:47.086Z</time></trkpt><trkpt lat="41.134635" lon="14.5701167"><ele>1062.0</ele><time>2026-04-09T13:30:49.086Z</time></trkpt><trkpt lat="41.1346183" lon="14.5700033"><ele>1062.3333333333333</ele><time>2026-04-09T13:30:51.086Z</time></trkpt><trkpt lat="41.1346" lon="14.5698967"><ele>1062.6666666666667</ele><time>2026-04-09T13:30:53.086Z</time></trkpt><trkpt lat="41.134575" lon="14.56979"><ele>1063.0</ele><time>2026-04-09T13:30:55.086Z</time></trkpt><trkpt lat="41.1345533" lon="14.5697033"><ele>1063.3333333333335</ele><time>2026-04-09T13:30:57.086Z</time></trkpt><trkpt lat="41.13453" lon="14.569595"><ele>1063.6666666666667</ele><time>2026-04-09T13:30:59.086Z</time></trkpt><trkpt lat="41.1344967" lon="14.5694867"><ele>1064.0</ele><time>2026-04-09T13:31:01.086Z</time></trkpt><trkpt lat="41.134455" lon="14.5693933"><ele>1065.0</ele><time>2026-04-09T13:31:03.086Z</time></trkpt><trkpt lat="41.1344167" lon="14.5692933"><ele>1066.0</ele><time>2026-04-09T13:31:06.086Z</time></trkpt><trkpt lat="41.134355" lon="14.56924"><ele>1067.0</ele><time>2026-04-09T13:31:09.086Z</time></trkpt><trkpt lat="41.1342767" lon="14.569085"><ele>1068.0</ele><time>2026-04-09T13:31:29.086Z</time></trkpt><trkpt lat="41.1342667" lon="14.56895"><ele>1069.0</ele><time>2026-04-09T13:31:31.086Z</time></trkpt><trkpt lat="41.1342733" lon="14.5688233"><ele>1070.8</ele><time>2026-04-09T13:31:33.086Z</time></trkpt><trkpt lat="41.1342717" lon="14.5686683"><ele>1072.6000000000001</ele><time>2026-04-09T13:31:35.086Z</time></trkpt><trkpt lat="41.13428" lon="14.568515"><ele>1074.4</ele><time>2026-04-09T13:31:37.086Z</time></trkpt><trkpt lat="41.1342733" lon="14.5684033"><ele>1076.2</ele><time>2026-04-09T13:31:39.086Z</time></trkpt><trkpt lat="41.1342617" lon="14.5682967"><ele>1078.0</ele><time>2026-04-09T13:31:41.086Z</time></trkpt><trkpt lat="41.1342717" lon="14.56818"><ele>1078.0</ele><time>2026-04-09T13:31:43.086Z</time></trkpt><trkpt lat="41.1342833" lon="14.5680633"><ele>1078.0</ele><time>2026-04-09T13:31:45.086Z</time></trkpt><trkpt lat="41.1342817" lon="14.5679433"><ele>1078.0</ele><time>2026-04-09T13:31:47.086Z</time></trkpt><trkpt lat="41.1342933" lon="14.5678367"><ele>1078.0</ele><time>2026-04-09T13:31:49.086Z</time></trkpt><trkpt lat="41.134295" lon="14.5677267"><ele>1078.0</ele><time>2026-04-09T13:31:51.086Z</time></trkpt><trkpt lat="41.1342917" lon="14.567595"><ele>1078.0</ele><time>2026-04-09T13:31:53.086Z</time></trkpt><trkpt lat="41.1342967" lon="14.56746"><ele>1078.1666666666665</ele><time>2026-04-09T13:31:55.086Z</time></trkpt><trkpt lat="41.1343033" lon="14.5673267"><ele>1078.3333333333333</ele><time>2026-04-09T13:31:57.086Z</time></trkpt><trkpt lat="41.134315" lon="14.5671967"><ele>1078.5</ele><time>2026-04-09T13:31:59.086Z</time></trkpt><trkpt lat="41.13432" lon="14.5670783"><ele>1078.6666666666667</ele><time>2026-04-09T13:32:01.086Z</time></trkpt><trkpt lat="41.13432" lon="14.566975"><ele>1078.8333333333335</ele><time>2026-04-09T13:32:03.086Z</time></trkpt><trkpt lat="41.134325" lon="14.5668883"><ele>1079.0</ele><time>2026-04-09T13:32:05.086Z</time></trkpt><trkpt lat="41.13433" lon="14.5668033"><ele>1079.6666666666667</ele><time>2026-04-09T13:32:07.086Z</time></trkpt><trkpt lat="41.13433" lon="14.5667133"><ele>1080.3333333333335</ele><time>2026-04-09T13:32:09.086Z</time></trkpt><trkpt lat="41.1343367" lon="14.5666217"><ele>1081.0</ele><time>2026-04-09T13:32:11.086Z</time></trkpt><trkpt lat="41.134345" lon="14.566505"><ele>1081.6666666666667</ele><time>2026-04-09T13:32:13.086Z</time></trkpt><trkpt lat="41.1343467" lon="14.56638"><ele>1082.3333333333333</ele><time>2026-04-09T13:32:15.086Z</time></trkpt><trkpt lat="41.13434" lon="14.56628"><ele>1083.0</ele><time>2026-04-09T13:32:17.086Z</time></trkpt><trkpt lat="41.134345" lon="14.56619"><ele>1084.8</ele><time>2026-04-09T13:32:19.086Z</time></trkpt><trkpt lat="41.134395" lon="14.5660033"><ele>1086.6</ele><time>2026-04-09T13:32:46.086Z</time></trkpt><trkpt lat="41.134375" lon="14.5659033"><ele>1088.4</ele><time>2026-04-09T13:32:48.086Z</time></trkpt><trkpt lat="41.134375" lon="14.5658067"><ele>1090.2</ele><time>2026-04-09T13:32:50.086Z</time></trkpt><trkpt lat="41.134385" lon="14.5657167"><ele>1092.0</ele><time>2026-04-09T13:32:52.086Z</time></trkpt><trkpt lat="41.1344067" lon="14.5656"><ele>1092.0</ele><time>2026-04-09T13:32:55.086Z</time></trkpt><trkpt lat="41.1344267" lon="14.5655"><ele>1092.0</ele><time>2026-04-09T13:32:58.086Z</time></trkpt><trkpt lat="41.134445" lon="14.5653917"><ele>1092.0</ele><time>2026-04-09T13:33:01.086Z</time></trkpt><trkpt lat="41.1344567" lon="14.5652983"><ele>1092.0</ele><time>2026-04-09T13:33:04.086Z</time></trkpt><trkpt lat="41.1344617" lon="14.56521"><ele>1092.0</ele><time>2026-04-09T13:33:06.086Z</time></trkpt><trkpt lat="41.1344767" lon="14.5651233"><ele>1092.0</ele><time>2026-04-09T13:33:08.086Z</time></trkpt><trkpt lat="41.1344833" lon="14.565015"><ele>1092.0</ele><time>2026-04-09T13:33:11.086Z</time></trkpt><trkpt lat="41.1345483" lon="14.56491"><ele>1092.6</ele><time>2026-04-09T13:33:47.086Z</time></trkpt><trkpt lat="41.1345133" lon="14.564805"><ele>1093.2</ele><time>2026-04-09T13:33:50.086Z</time></trkpt><trkpt lat="41.1344783" lon="14.5647183"><ele>1093.8</ele><time>2026-04-09T13:33:52.086Z</time></trkpt><trkpt lat="41.1344117" lon="14.5645583"><ele>1094.4</ele><time>2026-04-09T13:33:54.086Z</time></trkpt><trkpt lat="41.134385" lon="14.5644783"><ele>1095.0</ele><time>2026-04-09T13:33:55.086Z</time></trkpt><trkpt lat="41.1343383" lon="14.56435"><ele>1093.5</ele><time>2026-04-09T13:33:57.086Z</time></trkpt><trkpt lat="41.1343033" lon="14.5642483"><ele>1092.0</ele><time>2026-04-09T13:33:59.086Z</time></trkpt><trkpt lat="41.13427" lon="14.5641617"><ele>1090.5</ele><time>2026-04-09T13:34:01.086Z</time></trkpt><trkpt lat="41.1342383" lon="14.5640683"><ele>1089.0</ele><time>2026-04-09T13:34:03.086Z</time></trkpt><trkpt lat="41.1341967" lon="14.56396"><ele>1087.5</ele><time>2026-04-09T13:34:05.086Z</time></trkpt><trkpt lat="41.13416" lon="14.5638633"><ele>1086.0</ele><time>2026-04-09T13:34:07.086Z</time></trkpt><trkpt lat="41.1341317" lon="14.5637833"><ele>1084.3999999999999</ele><time>2026-04-09T13:34:09.086Z</time></trkpt><trkpt lat="41.134095" lon="14.563695"><ele>1082.8</ele><time>2026-04-09T13:34:11.086Z</time></trkpt><trkpt lat="41.1340517" lon="14.5636017"><ele>1081.1999999999998</ele><time>2026-04-09T13:34:13.086Z</time></trkpt><trkpt lat="41.1339883" lon="14.5635"><ele>1079.6</ele><time>2026-04-09T13:34:15.086Z</time></trkpt><trkpt lat="41.13393" lon="14.5633983"><ele>1078.0</ele><time>2026-04-09T13:34:17.086Z</time></trkpt><trkpt lat="41.1338583" lon="14.5633017"><ele>1078.0</ele><time>2026-04-09T13:34:19.086Z</time></trkpt><trkpt lat="41.1337767" lon="14.5632233"><ele>1078.0</ele><time>2026-04-09T13:34:21.086Z</time></trkpt><trkpt lat="41.1336967" lon="14.56317"><ele>1078.0</ele><time>2026-04-09T13:34:23.086Z</time></trkpt><trkpt lat="41.1336167" lon="14.5631133"><ele>1078.0</ele><time>2026-04-09T13:34:25.086Z</time></trkpt><trkpt lat="41.1335483" lon="14.56305"><ele>1078.0</ele><time>2026-04-09T13:34:27.086Z</time></trkpt><trkpt lat="41.1336117" lon="14.563085"><ele>1078.0</ele><time>2026-04-09T13:44:48.088Z</time></trkpt><trkpt lat="41.1336767" lon="14.56314"><ele>1078.0</ele><time>2026-04-09T13:44:50.088Z</time></trkpt><trkpt lat="41.1337417" lon="14.5631883"><ele>1078.0</ele><time>2026-04-09T13:44:52.088Z</time></trkpt><trkpt lat="41.1338" lon="14.5632383"><ele>1078.0</ele><time>2026-04-09T13:44:54.088Z</time></trkpt><trkpt lat="41.1338483" lon="14.5632933"><ele>1078.0</ele><time>2026-04-09T13:44:56.088Z</time></trkpt><trkpt lat="41.1338983" lon="14.56335"><ele>1078.0</ele><time>2026-04-09T13:44:58.088Z</time></trkpt><trkpt lat="41.1339633" lon="14.56344"><ele>1078.0</ele><time>2026-04-09T13:45:01.088Z</time></trkpt><trkpt lat="41.1340117" lon="14.56354"><ele>1078.0</ele><time>2026-04-09T13:45:04.088Z</time></trkpt><trkpt lat="41.13405" lon="14.5636133"><ele>1078.0</ele><time>2026-04-09T13:45:06.088Z</time></trkpt><trkpt lat="41.1341017" lon="14.5637117"><ele>1078.0</ele><time>2026-04-09T13:45:09.088Z</time></trkpt><trkpt lat="41.13414" lon="14.5638217"><ele>1078.0</ele><time>2026-04-09T13:45:12.088Z</time></trkpt><trkpt lat="41.1341733" lon="14.5639383"><ele>1078.0</ele><time>2026-04-09T13:45:15.088Z</time></trkpt><trkpt lat="41.1342033" lon="14.5640183"><ele>1078.0</ele><time>2026-04-09T13:45:17.088Z</time></trkpt><trkpt lat="41.1342367" lon="14.5641317"><ele>1079.3333333333333</ele><time>2026-04-09T13:45:20.088Z</time></trkpt><trkpt lat="41.134255" lon="14.564215"><ele>1080.6666666666665</ele><time>2026-04-09T13:45:22.088Z</time></trkpt><trkpt lat="41.134275" lon="14.5642967"><ele>1082.0</ele><time>2026-04-09T13:45:24.088Z</time></trkpt><trkpt lat="41.1343133" lon="14.564405"><ele>1083.3333333333333</ele><time>2026-04-09T13:45:27.088Z</time></trkpt><trkpt lat="41.13435" lon="14.564515"><ele>1084.6666666666667</ele><time>2026-04-09T13:45:30.088Z</time></trkpt><trkpt lat="41.13438" lon="14.564625"><ele>1086.0</ele><time>2026-04-09T13:45:33.088Z</time></trkpt><trkpt lat="41.1344183" lon="14.5646933"><ele>1087.5</ele><time>2026-04-09T13:45:35.088Z</time></trkpt><trkpt lat="41.13447" lon="14.56477"><ele>1089.0</ele><time>2026-04-09T13:45:37.088Z</time></trkpt><trkpt lat="41.1345083" lon="14.56486"><ele>1090.5</ele><time>2026-04-09T13:45:39.088Z</time></trkpt><trkpt lat="41.1345183" lon="14.5649533"><ele>1092.0</ele><time>2026-04-09T13:45:41.088Z</time></trkpt><trkpt lat="41.1345133" lon="14.5650417"><ele>1093.5</ele><time>2026-04-09T13:45:43.088Z</time></trkpt><trkpt lat="41.1344767" lon="14.5651567"><ele>1095.0</ele><time>2026-04-09T13:45:46.088Z</time></trkpt><trkpt lat="41.134455" lon="14.5652717"><ele>1094.9999999999998</ele><time>2026-04-09T13:45:49.088Z</time></trkpt><trkpt lat="41.134455" lon="14.5653617"><ele>1095.0</ele><time>2026-04-09T13:45:51.088Z</time></trkpt><trkpt lat="41.1344667" lon="14.56545"><ele>1095.0</ele><time>2026-04-09T13:45:53.088Z</time></trkpt><trkpt lat="41.134445" lon="14.5655517"><ele>1095.0</ele><time>2026-04-09T13:45:55.088Z</time></trkpt><trkpt lat="41.1344233" lon="14.5656517"><ele>1095.0</ele><time>2026-04-09T13:45:57.088Z</time></trkpt><trkpt lat="41.13441" lon="14.5657483"><ele>1094.9999999999998</ele><time>2026-04-09T13:45:59.088Z</time></trkpt><trkpt lat="41.1343983" lon="14.5658517"><ele>1095.0</ele><time>2026-04-09T13:46:01.088Z</time></trkpt><trkpt lat="41.1343917" lon="14.565955"><ele>1094.5</ele><time>2026-04-09T13:46:03.088Z</time></trkpt><trkpt lat="41.1343817" lon="14.5660533"><ele>1094.0</ele><time>2026-04-09T13:46:05.088Z</time></trkpt><trkpt lat="41.1343767" lon="14.56618"><ele>1093.5</ele><time>2026-04-09T13:46:07.088Z</time></trkpt><trkpt lat="41.1343767" lon="14.5663"><ele>1093.0</ele><time>2026-04-09T13:46:09.088Z</time></trkpt><trkpt lat="41.1343817" lon="14.5663933"><ele>1092.5</ele><time>2026-04-09T13:46:11.088Z</time></trkpt><trkpt lat="41.1343733" lon="14.5665117"><ele>1092.0</ele><time>2026-04-09T13:46:14.088Z</time></trkpt><trkpt lat="41.1343683" lon="14.5666383"><ele>1090.5</ele><time>2026-04-09T13:46:17.088Z</time></trkpt><trkpt lat="41.1343617" lon="14.566725"><ele>1089.0</ele><time>2026-04-09T13:46:19.088Z</time></trkpt><trkpt lat="41.1343517" lon="14.5668667"><ele>1087.5</ele><time>2026-04-09T13:46:21.088Z</time></trkpt><trkpt lat="41.1343383" lon="14.566995"><ele>1086.0</ele><time>2026-04-09T13:46:23.088Z</time></trkpt><trkpt lat="41.1343367" lon="14.5670967"><ele>1084.5</ele><time>2026-04-09T13:46:25.088Z</time></trkpt><trkpt lat="41.1343233" lon="14.5671883"><ele>1083.0</ele><time>2026-04-09T13:46:27.088Z</time></trkpt><trkpt lat="41.1343117" lon="14.567275"><ele>1082.3333333333333</ele><time>2026-04-09T13:46:29.088Z</time></trkpt><trkpt lat="41.1343033" lon="14.5673667"><ele>1081.6666666666667</ele><time>2026-04-09T13:46:31.088Z</time></trkpt><trkpt lat="41.1342917" lon="14.5674667"><ele>1081.0</ele><time>2026-04-09T13:46:33.088Z</time></trkpt><trkpt lat="41.134285" lon="14.5675933"><ele>1080.3333333333335</ele><time>2026-04-09T13:46:35.088Z</time></trkpt><trkpt lat="41.1342817" lon="14.5677283"><ele>1079.6666666666667</ele><time>2026-04-09T13:46:37.088Z</time></trkpt><trkpt lat="41.1342767" lon="14.56785"><ele>1079.0</ele><time>2026-04-09T13:46:39.088Z</time></trkpt><trkpt lat="41.1342717" lon="14.567955"><ele>1078.8333333333335</ele><time>2026-04-09T13:46:41.088Z</time></trkpt><trkpt lat="41.1342667" lon="14.5680667"><ele>1078.6666666666667</ele><time>2026-04-09T13:46:44.088Z</time></trkpt><trkpt lat="41.134265" lon="14.5681567"><ele>1078.5</ele><time>2026-04-09T13:46:46.088Z</time></trkpt><trkpt lat="41.13428" lon="14.5682567"><ele>1078.3333333333333</ele><time>2026-04-09T13:46:48.088Z</time></trkpt><trkpt lat="41.1342967" lon="14.56837"><ele>1078.1666666666665</ele><time>2026-04-09T13:46:51.088Z</time></trkpt><trkpt lat="41.1343067" lon="14.5684533"><ele>1078.0</ele><time>2026-04-09T13:46:53.088Z</time></trkpt><trkpt lat="41.1343083" lon="14.5685683"><ele>1078.0</ele><time>2026-04-09T13:46:56.088Z</time></trkpt><trkpt lat="41.1342983" lon="14.5686833"><ele>1078.0</ele><time>2026-04-09T13:46:59.088Z</time></trkpt><trkpt lat="41.1343" lon="14.5687817"><ele>1078.0</ele><time>2026-04-09T13:47:02.088Z</time></trkpt><trkpt lat="41.1343083" lon="14.5689183"><ele>1078.0</ele><time>2026-04-09T13:47:10.088Z</time></trkpt><trkpt lat="41.1343167" lon="14.5690317"><ele>1078.0</ele><time>2026-04-09T13:47:12.088Z</time></trkpt><trkpt lat="41.134355" lon="14.569125"><ele>1078.0</ele><time>2026-04-09T13:47:15.088Z</time></trkpt><trkpt lat="41.1343983" lon="14.569195"><ele>1076.2</ele><time>2026-04-09T13:47:17.088Z</time></trkpt><trkpt lat="41.134445" lon="14.5692833"><ele>1074.4</ele><time>2026-04-09T13:47:19.088Z</time></trkpt><trkpt lat="41.134505" lon="14.5694033"><ele>1072.6000000000001</ele><time>2026-04-09T13:47:21.088Z</time></trkpt><trkpt lat="41.1345383" lon="14.569515"><ele>1070.8</ele><time>2026-04-09T13:47:23.088Z</time></trkpt><trkpt lat="41.13456" lon="14.5696317"><ele>1069.0</ele><time>2026-04-09T13:47:25.088Z</time></trkpt><trkpt lat="41.13458" lon="14.569755"><ele>1068.1666666666665</ele><time>2026-04-09T13:47:27.088Z</time></trkpt><trkpt lat="41.1345983" lon="14.5698367"><ele>1067.3333333333333</ele><time>2026-04-09T13:47:29.088Z</time></trkpt><trkpt lat="41.1346" lon="14.56993"><ele>1066.5</ele><time>2026-04-09T13:47:31.088Z</time></trkpt><trkpt lat="41.1346183" lon="14.5700367"><ele>1065.6666666666667</ele><time>2026-04-09T13:47:33.088Z</time></trkpt><trkpt lat="41.1346417" lon="14.5701483"><ele>1064.8333333333335</ele><time>2026-04-09T13:47:35.088Z</time></trkpt><trkpt lat="41.1346583" lon="14.57025"><ele>1064.0</ele><time>2026-04-09T13:47:37.088Z</time></trkpt><trkpt lat="41.1346583" lon="14.570345"><ele>1063.6666666666667</ele><time>2026-04-09T13:47:39.088Z</time></trkpt><trkpt lat="41.134665" lon="14.5704367"><ele>1063.3333333333335</ele><time>2026-04-09T13:47:41.088Z</time></trkpt><trkpt lat="41.1346733" lon="14.5705317"><ele>1063.0</ele><time>2026-04-09T13:47:43.088Z</time></trkpt><trkpt lat="41.1346667" lon="14.570625"><ele>1062.6666666666667</ele><time>2026-04-09T13:47:45.088Z</time></trkpt><trkpt lat="41.1346317" lon="14.5707383"><ele>1062.3333333333333</ele><time>2026-04-09T13:47:47.088Z</time></trkpt><trkpt lat="41.1345433" lon="14.5708483"><ele>1062.0</ele><time>2026-04-09T13:47:49.088Z</time></trkpt><trkpt lat="41.134485" lon="14.5709083"><ele>1062.0</ele><time>2026-04-09T13:47:50.088Z</time></trkpt><trkpt lat="41.1344333" lon="14.5709767"><ele>1062.0</ele><time>2026-04-09T13:47:51.088Z</time></trkpt><trkpt lat="41.13439" lon="14.5710567"><ele>1062.0</ele><time>2026-04-09T13:47:52.088Z</time></trkpt><trkpt lat="41.13436" lon="14.5711583"><ele>1062.0</ele><time>2026-04-09T13:47:53.088Z</time></trkpt><trkpt lat="41.134345" lon="14.5712817"><ele>1062.0</ele><time>2026-04-09T13:47:54.088Z</time></trkpt><trkpt lat="41.1343433" lon="14.5714067"><ele>1062.0</ele><time>2026-04-09T13:47:55.088Z</time></trkpt><trkpt lat="41.1343383" lon="14.571535"><ele>1063.2</ele><time>2026-04-09T13:47:56.088Z</time></trkpt><trkpt lat="41.1343317" lon="14.5716667"><ele>1064.4</ele><time>2026-04-09T13:47:57.088Z</time></trkpt><trkpt lat="41.134305" lon="14.5717983"><ele>1065.6</ele><time>2026-04-09T13:47:58.088Z</time></trkpt><trkpt lat="41.1342733" lon="14.5719317"><ele>1066.8</ele><time>2026-04-09T13:47:59.088Z</time></trkpt><trkpt lat="41.1342317" lon="14.5720733"><ele>1068.0</ele><time>2026-04-09T13:48:00.088Z</time></trkpt><trkpt lat="41.13417" lon="14.5722183"><ele>1068.25</ele><time>2026-04-09T13:48:01.088Z</time></trkpt><trkpt lat="41.13411" lon="14.57237"><ele>1068.5</ele><time>2026-04-09T13:48:02.088Z</time></trkpt><trkpt lat="41.1340417" lon="14.572525"><ele>1068.75</ele><time>2026-04-09T13:48:03.088Z</time></trkpt><trkpt lat="41.1339733" lon="14.5726717"><ele>1069.0</ele><time>2026-04-09T13:48:04.088Z</time></trkpt><trkpt lat="41.133905" lon="14.57282"><ele>1066.5</ele><time>2026-04-09T13:48:05.088Z</time></trkpt><trkpt lat="41.13384" lon="14.5729683"><ele>1064.0</ele><time>2026-04-09T13:48:06.088Z</time></trkpt><trkpt lat="41.133775" lon="14.57311"><ele>1061.5</ele><time>2026-04-09T13:48:07.088Z</time></trkpt><trkpt lat="41.1337117" lon="14.5732633"><ele>1059.0</ele><time>2026-04-09T13:48:08.088Z</time></trkpt><trkpt lat="41.1336467" lon="14.5734167"><ele>1059.0</ele><time>2026-04-09T13:48:09.088Z</time></trkpt><trkpt lat="41.1335817" lon="14.573555"><ele>1059.0</ele><time>2026-04-09T13:48:10.088Z</time></trkpt><trkpt lat="41.1335083" lon="14.5737017"><ele>1059.0</ele><time>2026-04-09T13:48:11.088Z</time></trkpt><trkpt lat="41.133435" lon="14.5738467"><ele>1059.0</ele><time>2026-04-09T13:48:12.088Z</time></trkpt><trkpt lat="41.1333633" lon="14.5739967"><ele>1057.25</ele><time>2026-04-09T13:48:13.088Z</time></trkpt><trkpt lat="41.13329" lon="14.5741467"><ele>1055.5</ele><time>2026-04-09T13:48:14.088Z</time></trkpt><trkpt lat="41.1332167" lon="14.5742917"><ele>1053.75</ele><time>2026-04-09T13:48:15.088Z</time></trkpt><trkpt lat="41.1331483" lon="14.5744333"><ele>1052.0</ele><time>2026-04-09T13:48:16.088Z</time></trkpt><trkpt lat="41.13307" lon="14.5745733"><ele>1052.0</ele><time>2026-04-09T13:48:17.088Z</time></trkpt><trkpt lat="41.1329983" lon="14.5747183"><ele>1052.0</ele><time>2026-04-09T13:48:18.088Z</time></trkpt><trkpt lat="41.1329233" lon="14.5748633"><ele>1052.0</ele><time>2026-04-09T13:48:19.088Z</time></trkpt><trkpt lat="41.1328517" lon="14.5750117"><ele>1052.0</ele><time>2026-04-09T13:48:20.088Z</time></trkpt><trkpt lat="41.1327783" lon="14.5751633"><ele>1052.0</ele><time>2026-04-09T13:48:21.088Z</time></trkpt><trkpt lat="41.1327133" lon="14.57532"><ele>1052.0</ele><time>2026-04-09T13:48:22.088Z</time></trkpt><trkpt lat="41.1326433" lon="14.575465"><ele>1052.0</ele><time>2026-04-09T13:48:23.088Z</time></trkpt><trkpt lat="41.1325783" lon="14.5756"><ele>1052.0</ele><time>2026-04-09T13:48:24.088Z</time></trkpt><trkpt lat="41.132515" lon="14.5757233"><ele>1052.5</ele><time>2026-04-09T13:48:25.088Z</time></trkpt><trkpt lat="41.1324417" lon="14.5758283"><ele>1053.0</ele><time>2026-04-09T13:48:26.088Z</time></trkpt><trkpt lat="41.1323517" lon="14.57592"><ele>1053.5</ele><time>2026-04-09T13:48:27.088Z</time></trkpt><trkpt lat="41.13226" lon="14.5759983"><ele>1054.0</ele><time>2026-04-09T13:48:28.088Z</time></trkpt><trkpt lat="41.1321517" lon="14.5760667"><ele>1054.0</ele><time>2026-04-09T13:48:29.088Z</time></trkpt><trkpt lat="41.1320367" lon="14.576135"><ele>1054.0</ele><time>2026-04-09T13:48:30.088Z</time></trkpt><trkpt lat="41.1319217" lon="14.57622"><ele>1054.0</ele><time>2026-04-09T13:48:31.088Z</time></trkpt><trkpt lat="41.1318117" lon="14.5763133"><ele>1054.0</ele><time>2026-04-09T13:48:32.088Z</time></trkpt><trkpt lat="41.1317033" lon="14.5764067"><ele>1055.0</ele><time>2026-04-09T13:48:33.088Z</time></trkpt><trkpt lat="41.131595" lon="14.5764967"><ele>1056.0</ele><time>2026-04-09T13:48:34.088Z</time></trkpt><trkpt lat="41.1314867" lon="14.57658"><ele>1057.0</ele><time>2026-04-09T13:48:35.088Z</time></trkpt><trkpt lat="41.1313683" lon="14.5766767"><ele>1058.0</ele><time>2026-04-09T13:48:36.088Z</time></trkpt><trkpt lat="41.1312517" lon="14.5767783"><ele>1058.0</ele><time>2026-04-09T13:48:37.088Z</time></trkpt><trkpt lat="41.13114" lon="14.5768767"><ele>1058.0</ele><time>2026-04-09T13:48:38.088Z</time></trkpt><trkpt lat="41.1310367" lon="14.5769717"><ele>1058.0</ele><time>2026-04-09T13:48:39.088Z</time></trkpt><trkpt lat="41.130935" lon="14.5770667"><ele>1058.0</ele><time>2026-04-09T13:48:40.088Z</time></trkpt><trkpt lat="41.1308317" lon="14.5771717"><ele>1057.5</ele><time>2026-04-09T13:48:41.088Z</time></trkpt><trkpt lat="41.1307233" lon="14.5772633"><ele>1057.0</ele><time>2026-04-09T13:48:42.088Z</time></trkpt><trkpt lat="41.1306233" lon="14.5773567"><ele>1056.5</ele><time>2026-04-09T13:48:43.088Z</time></trkpt><trkpt lat="41.130525" lon="14.577455"><ele>1056.0</ele><time>2026-04-09T13:48:44.088Z</time></trkpt><trkpt lat="41.1304333" lon="14.5775583"><ele>1056.0</ele><time>2026-04-09T13:48:45.088Z</time></trkpt><trkpt lat="41.1303433" lon="14.5776717"><ele>1056.0</ele><time>2026-04-09T13:48:46.088Z</time></trkpt><trkpt lat="41.1302617" lon="14.5778033"><ele>1056.0</ele><time>2026-04-09T13:48:47.088Z</time></trkpt><trkpt lat="41.1301683" lon="14.577925"><ele>1056.0</ele><time>2026-04-09T13:48:48.088Z</time></trkpt><trkpt lat="41.1300983" lon="14.578055"><ele>1056.25</ele><time>2026-04-09T13:48:49.088Z</time></trkpt><trkpt lat="41.13003" lon="14.57818"><ele>1056.5</ele><time>2026-04-09T13:48:50.088Z</time></trkpt><trkpt lat="41.1299583" lon="14.5782867"><ele>1056.75</ele><time>2026-04-09T13:48:51.088Z</time></trkpt><trkpt lat="41.12989" lon="14.57841"><ele>1057.0</ele><time>2026-04-09T13:48:52.088Z</time></trkpt><trkpt lat="41.1298133" lon="14.5785267"><ele>1057.0</ele><time>2026-04-09T13:48:53.088Z</time></trkpt><trkpt lat="41.1297467" lon="14.57864"><ele>1057.0</ele><time>2026-04-09T13:48:54.088Z</time></trkpt><trkpt lat="41.1296667" lon="14.5787367"><ele>1057.0</ele><time>2026-04-09T13:48:55.088Z</time></trkpt><trkpt lat="41.1295783" lon="14.5788433"><ele>1057.0</ele><time>2026-04-09T13:48:56.088Z</time></trkpt><trkpt lat="41.1294783" lon="14.5789317"><ele>1059.75</ele><time>2026-04-09T13:48:57.088Z</time></trkpt><trkpt lat="41.129365" lon="14.5790033"><ele>1062.5</ele><time>2026-04-09T13:48:58.088Z</time></trkpt><trkpt lat="41.1292433" lon="14.5790667"><ele>1065.25</ele><time>2026-04-09T13:48:59.088Z</time></trkpt><trkpt lat="41.1291183" lon="14.579125"><ele>1068.0</ele><time>2026-04-09T13:49:00.089Z</time></trkpt><trkpt lat="41.1289883" lon="14.5791817"><ele>1068.0</ele><time>2026-04-09T13:49:01.089Z</time></trkpt><trkpt lat="41.1288683" lon="14.5792383"><ele>1068.0</ele><time>2026-04-09T13:49:02.089Z</time></trkpt><trkpt lat="41.1287567" lon="14.5792883"><ele>1068.0</ele><time>2026-04-09T13:49:03.089Z</time></trkpt><trkpt lat="41.1286467" lon="14.5793383"><ele>1068.0</ele><time>2026-04-09T13:49:04.089Z</time></trkpt><trkpt lat="41.1285417" lon="14.5793883"><ele>1068.0</ele><time>2026-04-09T13:49:05.089Z</time></trkpt><trkpt lat="41.12844" lon="14.579435"><ele>1068.0</ele><time>2026-04-09T13:49:06.089Z</time></trkpt><trkpt lat="41.128345" lon="14.5794883"><ele>1068.0</ele><time>2026-04-09T13:49:07.089Z</time></trkpt><trkpt lat="41.128255" lon="14.5795483"><ele>1068.0</ele><time>2026-04-09T13:49:08.089Z</time></trkpt><trkpt lat="41.1281517" lon="14.5796033"><ele>1068.0</ele><time>2026-04-09T13:49:09.089Z</time></trkpt><trkpt lat="41.1280517" lon="14.5796483"><ele>1069.8</ele><time>2026-04-09T13:49:10.089Z</time></trkpt><trkpt lat="41.1279533" lon="14.5797033"><ele>1071.6</ele><time>2026-04-09T13:49:11.089Z</time></trkpt><trkpt lat="41.127855" lon="14.5797567"><ele>1073.4</ele><time>2026-04-09T13:49:12.089Z</time></trkpt><trkpt lat="41.1277583" lon="14.5798"><ele>1075.2</ele><time>2026-04-09T13:49:13.089Z</time></trkpt><trkpt lat="41.1276633" lon="14.5798417"><ele>1077.0</ele><time>2026-04-09T13:49:14.089Z</time></trkpt><trkpt lat="41.1275717" lon="14.579895"><ele>1077.0</ele><time>2026-04-09T13:49:15.089Z</time></trkpt><trkpt lat="41.1274767" lon="14.5799467"><ele>1077.0</ele><time>2026-04-09T13:49:16.089Z</time></trkpt><trkpt lat="41.1273817" lon="14.57999"><ele>1077.0</ele><time>2026-04-09T13:49:17.089Z</time></trkpt><trkpt lat="41.1272817" lon="14.5800433"><ele>1077.0</ele><time>2026-04-09T13:49:18.089Z</time></trkpt><trkpt lat="41.127185" lon="14.5800917"><ele>1077.0</ele><time>2026-04-09T13:49:19.089Z</time></trkpt><trkpt lat="41.12709" lon="14.5801367"><ele>1075.5</ele><time>2026-04-09T13:49:20.089Z</time></trkpt><trkpt lat="41.126995" lon="14.580185"><ele>1074.0</ele><time>2026-04-09T13:49:21.089Z</time></trkpt><trkpt lat="41.1269083" lon="14.58024"><ele>1072.5</ele><time>2026-04-09T13:49:22.089Z</time></trkpt><trkpt lat="41.12683" lon="14.58029"><ele>1071.0</ele><time>2026-04-09T13:49:23.089Z</time></trkpt><trkpt lat="41.126755" lon="14.5803117"><ele>1069.5</ele><time>2026-04-09T13:49:24.089Z</time></trkpt><trkpt lat="41.1266733" lon="14.5802917"><ele>1068.0</ele><time>2026-04-09T13:49:25.089Z</time></trkpt><trkpt lat="41.126595" lon="14.5802417"><ele>1065.0</ele><time>2026-04-09T13:49:26.089Z</time></trkpt><trkpt lat="41.12651" lon="14.58017"><ele>1062.0</ele><time>2026-04-09T13:49:27.089Z</time></trkpt><trkpt lat="41.1264233" lon="14.5800833"><ele>1059.0</ele><time>2026-04-09T13:49:28.089Z</time></trkpt><trkpt lat="41.1263333" lon="14.5799817"><ele>1056.0</ele><time>2026-04-09T13:49:29.089Z</time></trkpt><trkpt lat="41.1262467" lon="14.5798783"><ele>1053.0</ele><time>2026-04-09T13:49:30.089Z</time></trkpt><trkpt lat="41.1261533" lon="14.5797833"><ele>1053.0</ele><time>2026-04-09T13:49:31.089Z</time></trkpt><trkpt lat="41.1260617" lon="14.5797"><ele>1053.0</ele><time>2026-04-09T13:49:32.089Z</time></trkpt><trkpt lat="41.125975" lon="14.5796267"><ele>1053.0</ele><time>2026-04-09T13:49:33.089Z</time></trkpt><trkpt lat="41.1258867" lon="14.5795683"><ele>1053.0</ele><time>2026-04-09T13:49:34.089Z</time></trkpt><trkpt lat="41.125805" lon="14.579535"><ele>1053.0</ele><time>2026-04-09T13:49:35.089Z</time></trkpt><trkpt lat="41.125715" lon="14.5795233"><ele>1057.6</ele><time>2026-04-09T13:49:36.089Z</time></trkpt><trkpt lat="41.1256233" lon="14.5795467"><ele>1062.1999999999998</ele><time>2026-04-09T13:49:37.089Z</time></trkpt><trkpt lat="41.12554" lon="14.5796017"><ele>1066.8</ele><time>2026-04-09T13:49:38.089Z</time></trkpt><trkpt lat="41.1254667" lon="14.5797033"><ele>1071.3999999999999</ele><time>2026-04-09T13:49:39.089Z</time></trkpt><trkpt lat="41.12539" lon="14.5798367"><ele>1076.0</ele><time>2026-04-09T13:49:40.089Z</time></trkpt><trkpt lat="41.1253233" lon="14.5799883"><ele>1076.0</ele><time>2026-04-09T13:49:41.089Z</time></trkpt><trkpt lat="41.1252617" lon="14.5801317"><ele>1076.0</ele><time>2026-04-09T13:49:42.089Z</time></trkpt><trkpt lat="41.1251867" lon="14.5802633"><ele>1076.0</ele><time>2026-04-09T13:49:43.089Z</time></trkpt><trkpt lat="41.1251" lon="14.5803867"><ele>1076.0</ele><time>2026-04-09T13:49:44.089Z</time></trkpt><trkpt lat="41.1250017" lon="14.580515"><ele>1078.75</ele><time>2026-04-09T13:49:45.089Z</time></trkpt><trkpt lat="41.1248867" lon="14.58063"><ele>1081.5</ele><time>2026-04-09T13:49:46.089Z</time></trkpt><trkpt lat="41.1247817" lon="14.5807467"><ele>1084.25</ele><time>2026-04-09T13:49:47.089Z</time></trkpt><trkpt lat="41.1246783" lon="14.5808483"><ele>1087.0</ele><time>2026-04-09T13:49:48.089Z</time></trkpt><trkpt lat="41.1245883" lon="14.580945"><ele>1087.0</ele><time>2026-04-09T13:49:49.089Z</time></trkpt><trkpt lat="41.12451" lon="14.5810517"><ele>1087.0</ele><time>2026-04-09T13:49:50.089Z</time></trkpt><trkpt lat="41.12445" lon="14.5811667"><ele>1087.0</ele><time>2026-04-09T13:49:51.089Z</time></trkpt><trkpt lat="41.1244133" lon="14.5812883"><ele>1087.0</ele><time>2026-04-09T13:49:52.089Z</time></trkpt><trkpt lat="41.124395" lon="14.5814217"><ele>1087.0</ele><time>2026-04-09T13:49:53.089Z</time></trkpt><trkpt lat="41.1243667" lon="14.5815383"><ele>1088.2</ele><time>2026-04-09T13:49:54.089Z</time></trkpt><trkpt lat="41.1243317" lon="14.58164"><ele>1089.4</ele><time>2026-04-09T13:49:55.089Z</time></trkpt><trkpt lat="41.1242933" lon="14.5817367"><ele>1090.6</ele><time>2026-04-09T13:49:56.089Z</time></trkpt><trkpt lat="41.1242383" lon="14.5818333"><ele>1091.8</ele><time>2026-04-09T13:49:57.089Z</time></trkpt><trkpt lat="41.1241583" lon="14.5819183"><ele>1093.0</ele><time>2026-04-09T13:49:58.089Z</time></trkpt><trkpt lat="41.12405" lon="14.5819717"><ele>1093.0</ele><time>2026-04-09T13:49:59.089Z</time></trkpt><trkpt lat="41.123925" lon="14.581995"><ele>1093.0</ele><time>2026-04-09T13:50:00.089Z</time></trkpt><trkpt lat="41.1238133" lon="14.5819933"><ele>1093.0</ele><time>2026-04-09T13:50:01.089Z</time></trkpt><trkpt lat="41.1237067" lon="14.58198"><ele>1093.0</ele><time>2026-04-09T13:50:02.089Z</time></trkpt><trkpt lat="41.1236083" lon="14.5819617"><ele>1093.0</ele><time>2026-04-09T13:50:03.089Z</time></trkpt><trkpt lat="41.1235183" lon="14.58196"><ele>1093.0</ele><time>2026-04-09T13:50:04.089Z</time></trkpt><trkpt lat="41.123435" lon="14.5819833"><ele>1093.0</ele><time>2026-04-09T13:50:05.089Z</time></trkpt><trkpt lat="41.123355" lon="14.5820483"><ele>1093.0</ele><time>2026-04-09T13:50:06.089Z</time></trkpt><trkpt lat="41.12329" lon="14.5821433"><ele>1093.0</ele><time>2026-04-09T13:50:07.089Z</time></trkpt><trkpt lat="41.12324" lon="14.5822483"><ele>1093.0</ele><time>2026-04-09T13:50:08.089Z</time></trkpt><trkpt lat="41.1231817" lon="14.5823617"><ele>1093.5</ele><time>2026-04-09T13:50:09.089Z</time></trkpt><trkpt lat="41.1231217" lon="14.582525"><ele>1094.0</ele><time>2026-04-09T13:50:10.089Z</time></trkpt><trkpt lat="41.12307" lon="14.5827"><ele>1094.5</ele><time>2026-04-09T13:50:11.089Z</time></trkpt><trkpt lat="41.1230067" lon="14.582865"><ele>1095.0</ele><time>2026-04-09T13:50:12.089Z</time></trkpt><trkpt lat="41.1229567" lon="14.5830133"><ele>1095.0</ele><time>2026-04-09T13:50:13.089Z</time></trkpt><trkpt lat="41.1229133" lon="14.5831567"><ele>1095.0</ele><time>2026-04-09T13:50:14.089Z</time></trkpt><trkpt lat="41.1228567" lon="14.5832933"><ele>1095.0</ele><time>2026-04-09T13:50:15.089Z</time></trkpt><trkpt lat="41.1227733" lon="14.583415"><ele>1095.0</ele><time>2026-04-09T13:50:16.089Z</time></trkpt><trkpt lat="41.122685" lon="14.583535"><ele>1095.0</ele><time>2026-04-09T13:50:17.089Z</time></trkpt><trkpt lat="41.1225817" lon="14.5836417"><ele>1095.0</ele><time>2026-04-09T13:50:18.089Z</time></trkpt><trkpt lat="41.1224817" lon="14.583735"><ele>1095.0</ele><time>2026-04-09T13:50:19.089Z</time></trkpt><trkpt lat="41.1223767" lon="14.5838183"><ele>1095.0</ele><time>2026-04-09T13:50:20.089Z</time></trkpt><trkpt lat="41.1222617" lon="14.5838733"><ele>1092.75</ele><time>2026-04-09T13:50:21.089Z</time></trkpt><trkpt lat="41.1221367" lon="14.5839183"><ele>1090.5</ele><time>2026-04-09T13:50:22.089Z</time></trkpt><trkpt lat="41.122005" lon="14.5839467"><ele>1088.25</ele><time>2026-04-09T13:50:23.089Z</time></trkpt><trkpt lat="41.1218617" lon="14.58397"><ele>1086.0</ele><time>2026-04-09T13:50:24.089Z</time></trkpt><trkpt lat="41.1217317" lon="14.5839933"><ele>1086.0</ele><time>2026-04-09T13:50:25.089Z</time></trkpt><trkpt lat="41.1216017" lon="14.584015"><ele>1086.0</ele><time>2026-04-09T13:50:26.089Z</time></trkpt><trkpt lat="41.1214783" lon="14.5840333"><ele>1086.0</ele><time>2026-04-09T13:50:27.089Z</time></trkpt><trkpt lat="41.121355" lon="14.5840517"><ele>1086.0</ele><time>2026-04-09T13:50:28.089Z</time></trkpt><trkpt lat="41.1212333" lon="14.5840517"><ele>1087.8</ele><time>2026-04-09T13:50:29.089Z</time></trkpt><trkpt lat="41.121125" lon="14.5840383"><ele>1089.6</ele><time>2026-04-09T13:50:30.089Z</time></trkpt><trkpt lat="41.1210317" lon="14.5840233"><ele>1091.4</ele><time>2026-04-09T13:50:31.089Z</time></trkpt><trkpt lat="41.12095" lon="14.584015"><ele>1093.2</ele><time>2026-04-09T13:50:32.089Z</time></trkpt><trkpt lat="41.1208533" lon="14.5839983"><ele>1095.0</ele><time>2026-04-09T13:50:33.089Z</time></trkpt><trkpt lat="41.12076" lon="14.5840017"><ele>1100.8</ele><time>2026-04-09T13:50:34.089Z</time></trkpt><trkpt lat="41.12066" lon="14.5840333"><ele>1106.6</ele><time>2026-04-09T13:50:35.089Z</time></trkpt><trkpt lat="41.1205617" lon="14.584085"><ele>1112.4</ele><time>2026-04-09T13:50:36.089Z</time></trkpt><trkpt lat="41.1204767" lon="14.584125"><ele>1118.2</ele><time>2026-04-09T13:50:37.089Z</time></trkpt><trkpt lat="41.1204067" lon="14.5841767"><ele>1124.0</ele><time>2026-04-09T13:50:38.089Z</time></trkpt><trkpt lat="41.1203433" lon="14.5842483"><ele>1124.0</ele><time>2026-04-09T13:50:39.089Z</time></trkpt><trkpt lat="41.120305" lon="14.5843367"><ele>1124.0</ele><time>2026-04-09T13:50:40.089Z</time></trkpt><trkpt lat="41.1202983" lon="14.5844633"><ele>1124.0</ele><time>2026-04-09T13:50:41.089Z</time></trkpt><trkpt lat="41.1203217" lon="14.5846183"><ele>1124.0</ele><time>2026-04-09T13:50:42.089Z</time></trkpt><trkpt lat="41.120335" lon="14.5847783"><ele>1124.0</ele><time>2026-04-09T13:50:43.089Z</time></trkpt><trkpt lat="41.1203583" lon="14.5849417"><ele>1124.0</ele><time>2026-04-09T13:50:44.089Z</time></trkpt><trkpt lat="41.1203683" lon="14.5851217"><ele>1124.0</ele><time>2026-04-09T13:50:45.089Z</time></trkpt><trkpt lat="41.1203883" lon="14.5853033"><ele>1124.0</ele><time>2026-04-09T13:50:46.089Z</time></trkpt><trkpt lat="41.1203933" lon="14.585475"><ele>1124.0</ele><time>2026-04-09T13:50:47.089Z</time></trkpt><trkpt lat="41.1203933" lon="14.5856517"><ele>1122.6000000000001</ele><time>2026-04-09T13:50:48.089Z</time></trkpt><trkpt lat="41.12038" lon="14.58581"><ele>1121.2</ele><time>2026-04-09T13:50:49.089Z</time></trkpt><trkpt lat="41.120355" lon="14.5859617"><ele>1119.8000000000002</ele><time>2026-04-09T13:50:50.089Z</time></trkpt><trkpt lat="41.1203267" lon="14.58609"><ele>1118.4</ele><time>2026-04-09T13:50:51.089Z</time></trkpt><trkpt lat="41.12029" lon="14.5862217"><ele>1117.0</ele><time>2026-04-09T13:50:52.089Z</time></trkpt><trkpt lat="41.1202417" lon="14.5863583"><ele>1114.0</ele><time>2026-04-09T13:50:53.089Z</time></trkpt><trkpt lat="41.1201967" lon="14.586495"><ele>1111.0</ele><time>2026-04-09T13:50:54.089Z</time></trkpt><trkpt lat="41.12013" lon="14.5866217"><ele>1108.0</ele><time>2026-04-09T13:50:55.089Z</time></trkpt><trkpt lat="41.120055" lon="14.5867467"><ele>1105.0</ele><time>2026-04-09T13:50:56.089Z</time></trkpt><trkpt lat="41.1199667" lon="14.586855"><ele>1103.4</ele><time>2026-04-09T13:50:57.089Z</time></trkpt><trkpt lat="41.1198717" lon="14.5869517"><ele>1101.8</ele><time>2026-04-09T13:50:58.089Z</time></trkpt><trkpt lat="41.1197767" lon="14.5870467"><ele>1100.2</ele><time>2026-04-09T13:50:59.089Z</time></trkpt><trkpt lat="41.1196967" lon="14.5871433"><ele>1098.6</ele><time>2026-04-09T13:51:00.089Z</time></trkpt><trkpt lat="41.1196217" lon="14.5872183"><ele>1097.0</ele><time>2026-04-09T13:51:01.089Z</time></trkpt><trkpt lat="41.119555" lon="14.5872833"><ele>1097.0</ele><time>2026-04-09T13:51:02.089Z</time></trkpt><trkpt lat="41.1194683" lon="14.5873267"><ele>1097.0</ele><time>2026-04-09T13:51:03.089Z</time></trkpt><trkpt lat="41.1193667" lon="14.58735"><ele>1097.0</ele><time>2026-04-09T13:51:04.089Z</time></trkpt><trkpt lat="41.119265" lon="14.5873717"><ele>1097.0</ele><time>2026-04-09T13:51:05.089Z</time></trkpt><trkpt lat="41.11916" lon="14.5873983"><ele>1097.0</ele><time>2026-04-09T13:51:06.089Z</time></trkpt><trkpt lat="41.1190433" lon="14.5874233"><ele>1098.75</ele><time>2026-04-09T13:51:07.089Z</time></trkpt><trkpt lat="41.1189217" lon="14.5874617"><ele>1100.5</ele><time>2026-04-09T13:51:08.089Z</time></trkpt><trkpt lat="41.1188" lon="14.5875033"><ele>1102.25</ele><time>2026-04-09T13:51:09.089Z</time></trkpt><trkpt lat="41.1186933" lon="14.5875633"><ele>1104.0</ele><time>2026-04-09T13:51:10.089Z</time></trkpt><trkpt lat="41.118595" lon="14.5876267"><ele>1104.0</ele><time>2026-04-09T13:51:11.089Z</time></trkpt><trkpt lat="41.1185117" lon="14.58769"><ele>1104.0</ele><time>2026-04-09T13:51:12.089Z</time></trkpt><trkpt lat="41.1184217" lon="14.5877267"><ele>1104.0</ele><time>2026-04-09T13:51:13.089Z</time></trkpt><trkpt lat="41.11833" lon="14.5877567"><ele>1104.0</ele><time>2026-04-09T13:51:14.089Z</time></trkpt><trkpt lat="41.1182317" lon="14.58776"><ele>1104.0</ele><time>2026-04-09T13:51:15.089Z</time></trkpt><trkpt lat="41.118135" lon="14.5877383"><ele>1104.5</ele><time>2026-04-09T13:51:16.089Z</time></trkpt><trkpt lat="41.11803" lon="14.5876967"><ele>1105.0</ele><time>2026-04-09T13:51:17.089Z</time></trkpt><trkpt lat="41.117925" lon="14.5876217"><ele>1105.5</ele><time>2026-04-09T13:51:18.089Z</time></trkpt><trkpt lat="41.1178133" lon="14.5875467"><ele>1106.0</ele><time>2026-04-09T13:51:19.089Z</time></trkpt><trkpt lat="41.1177133" lon="14.5874683"><ele>1106.0</ele><time>2026-04-09T13:51:20.089Z</time></trkpt><trkpt lat="41.1176267" lon="14.58741"><ele>1106.0</ele><time>2026-04-09T13:51:21.089Z</time></trkpt><trkpt lat="41.1175517" lon="14.587375"><ele>1106.0</ele><time>2026-04-09T13:51:22.089Z</time></trkpt><trkpt lat="41.1174833" lon="14.587355"><ele>1106.0</ele><time>2026-04-09T13:51:23.089Z</time></trkpt><trkpt lat="41.1174133" lon="14.5873567"><ele>1106.0</ele><time>2026-04-09T13:51:24.089Z</time></trkpt><trkpt lat="41.1173667" lon="14.5874183"><ele>1106.0</ele><time>2026-04-09T13:51:25.089Z</time></trkpt><trkpt lat="41.1173333" lon="14.5874967"><ele>1106.5</ele><time>2026-04-09T13:51:26.089Z</time></trkpt><trkpt lat="41.1173433" lon="14.5876667"><ele>1107.0</ele><time>2026-04-09T13:51:28.089Z</time></trkpt><trkpt lat="41.1173983" lon="14.5877833"><ele>1107.5</ele><time>2026-04-09T13:51:29.089Z</time></trkpt><trkpt lat="41.1174717" lon="14.5879167"><ele>1108.0</ele><time>2026-04-09T13:51:30.089Z</time></trkpt><trkpt lat="41.1175567" lon="14.5880733"><ele>1108.0</ele><time>2026-04-09T13:51:31.089Z</time></trkpt><trkpt lat="41.117625" lon="14.5882167"><ele>1108.0</ele><time>2026-04-09T13:51:32.089Z</time></trkpt><trkpt lat="41.117685" lon="14.5883467"><ele>1108.0</ele><time>2026-04-09T13:51:33.089Z</time></trkpt><trkpt lat="41.117715" lon="14.58847"><ele>1108.0</ele><time>2026-04-09T13:51:34.089Z</time></trkpt><trkpt lat="41.1177317" lon="14.5885817"><ele>1108.0</ele><time>2026-04-09T13:51:35.089Z</time></trkpt><trkpt lat="41.1177117" lon="14.588695"><ele>1107.0</ele><time>2026-04-09T13:51:36.089Z</time></trkpt><trkpt lat="41.11766" lon="14.5888083"><ele>1106.0</ele><time>2026-04-09T13:51:37.089Z</time></trkpt><trkpt lat="41.117565" lon="14.5889183"><ele>1105.0</ele><time>2026-04-09T13:51:38.089Z</time></trkpt><trkpt lat="41.1174567" lon="14.5890183"><ele>1104.0</ele><time>2026-04-09T13:51:39.089Z</time></trkpt><trkpt lat="41.1173517" lon="14.5891067"><ele>1104.0</ele><time>2026-04-09T13:51:40.089Z</time></trkpt><trkpt lat="41.117255" lon="14.5891833"><ele>1104.0</ele><time>2026-04-09T13:51:41.089Z</time></trkpt><trkpt lat="41.1171717" lon="14.5892417"><ele>1104.0</ele><time>2026-04-09T13:51:42.089Z</time></trkpt><trkpt lat="41.1170933" lon="14.5892833"><ele>1104.0</ele><time>2026-04-09T13:51:43.089Z</time></trkpt><trkpt lat="41.11702" lon="14.58931"><ele>1104.0</ele><time>2026-04-09T13:51:44.089Z</time></trkpt><trkpt lat="41.1169417" lon="14.5893117"><ele>1104.0</ele><time>2026-04-09T13:51:45.089Z</time></trkpt><trkpt lat="41.1168617" lon="14.589295"><ele>1104.0</ele><time>2026-04-09T13:51:46.089Z</time></trkpt><trkpt lat="41.11678" lon="14.589255"><ele>1104.0</ele><time>2026-04-09T13:51:47.089Z</time></trkpt><trkpt lat="41.1167017" lon="14.5891883"><ele>1104.0</ele><time>2026-04-09T13:51:48.089Z</time></trkpt><trkpt lat="41.116615" lon="14.5891017"><ele>1104.0</ele><time>2026-04-09T13:51:49.089Z</time></trkpt><trkpt lat="41.1165233" lon="14.5890017"><ele>1104.0</ele><time>2026-04-09T13:51:50.089Z</time></trkpt><trkpt lat="41.11644" lon="14.5889117"><ele>1103.8</ele><time>2026-04-09T13:51:51.089Z</time></trkpt><trkpt lat="41.1163667" lon="14.5888267"><ele>1103.6000000000001</ele><time>2026-04-09T13:51:52.089Z</time></trkpt><trkpt lat="41.1162967" lon="14.58875"><ele>1103.4</ele><time>2026-04-09T13:51:53.089Z</time></trkpt><trkpt lat="41.116225" lon="14.588665"><ele>1103.2</ele><time>2026-04-09T13:51:54.089Z</time></trkpt><trkpt lat="41.1161467" lon="14.5885733"><ele>1103.0</ele><time>2026-04-09T13:51:55.089Z</time></trkpt><trkpt lat="41.1160683" lon="14.5884767"><ele>1103.0</ele><time>2026-04-09T13:51:56.089Z</time></trkpt><trkpt lat="41.116" lon="14.5883617"><ele>1103.0</ele><time>2026-04-09T13:51:57.089Z</time></trkpt><trkpt lat="41.11594" lon="14.5882383"><ele>1103.0</ele><time>2026-04-09T13:51:58.089Z</time></trkpt><trkpt lat="41.1158867" lon="14.5881067"><ele>1103.0</ele><time>2026-04-09T13:51:59.089Z</time></trkpt><trkpt lat="41.1158367" lon="14.5879717"><ele>1103.0</ele><time>2026-04-09T13:52:00.089Z</time></trkpt><trkpt lat="41.1157983" lon="14.5878183"><ele>1107.0</ele><time>2026-04-09T13:52:01.089Z</time></trkpt><trkpt lat="41.1157633" lon="14.5876483"><ele>1111.0</ele><time>2026-04-09T13:52:02.089Z</time></trkpt><trkpt lat="41.1157217" lon="14.5874683"><ele>1115.0</ele><time>2026-04-09T13:52:03.089Z</time></trkpt><trkpt lat="41.1156667" lon="14.5872833"><ele>1119.0</ele><time>2026-04-09T13:52:04.089Z</time></trkpt><trkpt lat="41.1156067" lon="14.5871133"><ele>1116.0</ele><time>2026-04-09T13:52:05.089Z</time></trkpt><trkpt lat="41.1155467" lon="14.586945"><ele>1113.0</ele><time>2026-04-09T13:52:06.089Z</time></trkpt><trkpt lat="41.1154833" lon="14.5867817"><ele>1110.0</ele><time>2026-04-09T13:52:07.089Z</time></trkpt><trkpt lat="41.1154267" lon="14.58662"><ele>1107.0</ele><time>2026-04-09T13:52:08.089Z</time></trkpt><trkpt lat="41.1153733" lon="14.5864567"><ele>1107.0</ele><time>2026-04-09T13:52:09.089Z</time></trkpt><trkpt lat="41.115315" lon="14.5863017"><ele>1107.0</ele><time>2026-04-09T13:52:10.089Z</time></trkpt><trkpt lat="41.1152633" lon="14.586135"><ele>1107.0</ele><time>2026-04-09T13:52:11.089Z</time></trkpt><trkpt lat="41.1152133" lon="14.5859617"><ele>1107.0</ele><time>2026-04-09T13:52:12.089Z</time></trkpt><trkpt lat="41.1151733" lon="14.5857967"><ele>1111.0</ele><time>2026-04-09T13:52:13.089Z</time></trkpt><trkpt lat="41.1151333" lon="14.5856417"><ele>1115.0</ele><time>2026-04-09T13:52:14.089Z</time></trkpt><trkpt lat="41.1151" lon="14.5854767"><ele>1119.0</ele><time>2026-04-09T13:52:15.089Z</time></trkpt><trkpt lat="41.1150667" lon="14.5853233"><ele>1123.0</ele><time>2026-04-09T13:52:16.089Z</time></trkpt><trkpt lat="41.1150333" lon="14.58518"><ele>1122.4</ele><time>2026-04-09T13:52:17.089Z</time></trkpt><trkpt lat="41.11499" lon="14.5850467"><ele>1121.8</ele><time>2026-04-09T13:52:18.089Z</time></trkpt><trkpt lat="41.11495" lon="14.5849033"><ele>1121.2</ele><time>2026-04-09T13:52:19.089Z</time></trkpt><trkpt lat="41.1148883" lon="14.58479"><ele>1120.6</ele><time>2026-04-09T13:52:20.089Z</time></trkpt><trkpt lat="41.1148167" lon="14.5846767"><ele>1120.0</ele><time>2026-04-09T13:52:21.089Z</time></trkpt><trkpt lat="41.11473" lon="14.5845867"><ele>1120.0</ele><time>2026-04-09T13:52:22.089Z</time></trkpt><trkpt lat="41.1146333" lon="14.5845183"><ele>1120.0</ele><time>2026-04-09T13:52:23.089Z</time></trkpt><trkpt lat="41.1145283" lon="14.584475"><ele>1120.0</ele><time>2026-04-09T13:52:24.089Z</time></trkpt><trkpt lat="41.1144217" lon="14.5844467"><ele>1120.0</ele><time>2026-04-09T13:52:25.089Z</time></trkpt><trkpt lat="41.1143033" lon="14.5844083"><ele>1121.5</ele><time>2026-04-09T13:52:26.089Z</time></trkpt><trkpt lat="41.1141867" lon="14.58435"><ele>1123.0</ele><time>2026-04-09T13:52:27.089Z</time></trkpt><trkpt lat="41.1140683" lon="14.5842717"><ele>1124.5</ele><time>2026-04-09T13:52:28.089Z</time></trkpt><trkpt lat="41.1139667" lon="14.584185"><ele>1126.0</ele><time>2026-04-09T13:52:29.089Z</time></trkpt><trkpt lat="41.1138733" lon="14.5840733"><ele>1126.0</ele><time>2026-04-09T13:52:30.089Z</time></trkpt><trkpt lat="41.1137883" lon="14.5839467"><ele>1126.0</ele><time>2026-04-09T13:52:31.089Z</time></trkpt><trkpt lat="41.1136917" lon="14.58383"><ele>1126.0</ele><time>2026-04-09T13:52:32.089Z</time></trkpt><trkpt lat="41.1135817" lon="14.5837233"><ele>1126.0</ele><time>2026-04-09T13:52:33.089Z</time></trkpt><trkpt lat="41.11346" lon="14.583665"><ele>1132.25</ele><time>2026-04-09T13:52:34.089Z</time></trkpt><trkpt lat="41.1133417" lon="14.5835917"><ele>1138.5</ele><time>2026-04-09T13:52:35.089Z</time></trkpt><trkpt lat="41.1132217" lon="14.5835267"><ele>1144.75</ele><time>2026-04-09T13:52:36.089Z</time></trkpt><trkpt lat="41.11309" lon="14.5834733"><ele>1151.0</ele><time>2026-04-09T13:52:37.089Z</time></trkpt><trkpt lat="41.1129783" lon="14.5834133"><ele>1151.0</ele><time>2026-04-09T13:52:38.089Z</time></trkpt><trkpt lat="41.1128733" lon="14.583365"><ele>1151.0</ele><time>2026-04-09T13:52:39.089Z</time></trkpt><trkpt lat="41.11278" lon="14.5833317"><ele>1151.0</ele><time>2026-04-09T13:52:40.089Z</time></trkpt><trkpt lat="41.1126967" lon="14.5833083"><ele>1151.0</ele><time>2026-04-09T13:52:41.089Z</time></trkpt><trkpt lat="41.112615" lon="14.583315"><ele>1151.0</ele><time>2026-04-09T13:52:42.089Z</time></trkpt><trkpt lat="41.1125417" lon="14.583355"><ele>1151.0</ele><time>2026-04-09T13:52:43.089Z</time></trkpt><trkpt lat="41.112475" lon="14.58344"><ele>1151.0</ele><time>2026-04-09T13:52:44.089Z</time></trkpt><trkpt lat="41.1124217" lon="14.5835467"><ele>1151.0</ele><time>2026-04-09T13:52:45.089Z</time></trkpt><trkpt lat="41.1123833" lon="14.58367"><ele>1151.0</ele><time>2026-04-09T13:52:46.089Z</time></trkpt><trkpt lat="41.1123583" lon="14.5837933"><ele>1151.0</ele><time>2026-04-09T13:52:47.089Z</time></trkpt><trkpt lat="41.1123517" lon="14.58395"><ele>1163.75</ele><time>2026-04-09T13:52:48.089Z</time></trkpt><trkpt lat="41.1123517" lon="14.58413"><ele>1176.5</ele><time>2026-04-09T13:52:49.089Z</time></trkpt><trkpt lat="41.112365" lon="14.5843217"><ele>1189.25</ele><time>2026-04-09T13:52:50.089Z</time></trkpt><trkpt lat="41.11237" lon="14.5845267"><ele>1202.0</ele><time>2026-04-09T13:52:51.089Z</time></trkpt><trkpt lat="41.1123667" lon="14.5847517"><ele>1202.0</ele><time>2026-04-09T13:52:52.089Z</time></trkpt><trkpt lat="41.11238" lon="14.5849867"><ele>1202.0</ele><time>2026-04-09T13:52:53.089Z</time></trkpt><trkpt lat="41.1123917" lon="14.58521"><ele>1202.0</ele><time>2026-04-09T13:52:54.089Z</time></trkpt><trkpt lat="41.1123967" lon="14.5854267"><ele>1198.3333333333335</ele><time>2026-04-09T13:52:55.089Z</time></trkpt><trkpt lat="41.1124" lon="14.585635"><ele>1194.6666666666667</ele><time>2026-04-09T13:52:56.089Z</time></trkpt><trkpt lat="41.1123967" lon="14.5858417"><ele>1191.0</ele><time>2026-04-09T13:52:57.089Z</time></trkpt><trkpt lat="41.1123967" lon="14.5860617"><ele>1189.0</ele><time>2026-04-09T13:52:58.089Z</time></trkpt><trkpt lat="41.1123967" lon="14.5862733"><ele>1187.0</ele><time>2026-04-09T13:52:59.089Z</time></trkpt><trkpt lat="41.1123933" lon="14.586485"><ele>1185.0</ele><time>2026-04-09T13:53:00.089Z</time></trkpt><trkpt lat="41.1123783" lon="14.5866883"><ele>1185.0</ele><time>2026-04-09T13:53:01.089Z</time></trkpt><trkpt lat="41.1123683" lon="14.58688"><ele>1185.0</ele><time>2026-04-09T13:53:02.089Z</time></trkpt><trkpt lat="41.1123633" lon="14.5870683"><ele>1185.0</ele><time>2026-04-09T13:53:03.089Z</time></trkpt><trkpt lat="41.11237" lon="14.587255"><ele>1185.0</ele><time>2026-04-09T13:53:04.089Z</time></trkpt><trkpt lat="41.112385" lon="14.5874467"><ele>1168.25</ele><time>2026-04-09T13:53:05.089Z</time></trkpt><trkpt lat="41.11241" lon="14.5876367"><ele>1151.5</ele><time>2026-04-09T13:53:06.089Z</time></trkpt><trkpt lat="41.1124383" lon="14.5878017"><ele>1134.75</ele><time>2026-04-09T13:53:07.089Z</time></trkpt><trkpt lat="41.1124517" lon="14.5879567"><ele>1118.0</ele><time>2026-04-09T13:53:08.089Z</time></trkpt><trkpt lat="41.1124483" lon="14.5881"><ele>1116.0</ele><time>2026-04-09T13:53:09.089Z</time></trkpt><trkpt lat="41.1124333" lon="14.5882433"><ele>1114.0</ele><time>2026-04-09T13:53:10.089Z</time></trkpt><trkpt lat="41.1123983" lon="14.58839"><ele>1112.0</ele><time>2026-04-09T13:53:11.089Z</time></trkpt><trkpt lat="41.1123483" lon="14.588535"><ele>1110.0</ele><time>2026-04-09T13:53:12.089Z</time></trkpt><trkpt lat="41.1122983" lon="14.5886833"><ele>1118.25</ele><time>2026-04-09T13:53:13.089Z</time></trkpt><trkpt lat="41.1122433" lon="14.58883"><ele>1126.5</ele><time>2026-04-09T13:53:14.089Z</time></trkpt><trkpt lat="41.1121867" lon="14.5889833"><ele>1134.75</ele><time>2026-04-09T13:53:15.089Z</time></trkpt><trkpt lat="41.11212" lon="14.5891233"><ele>1143.0</ele><time>2026-04-09T13:53:16.089Z</time></trkpt><trkpt lat="41.1120367" lon="14.5892417"><ele>1143.0</ele><time>2026-04-09T13:53:17.089Z</time></trkpt><trkpt lat="41.111945" lon="14.5893733"><ele>1143.0</ele><time>2026-04-09T13:53:18.089Z</time></trkpt><trkpt lat="41.1118467" lon="14.5894983"><ele>1143.0</ele><time>2026-04-09T13:53:19.089Z</time></trkpt><trkpt lat="41.1117567" lon="14.5896333"><ele>1143.0</ele><time>2026-04-09T13:53:20.089Z</time></trkpt><trkpt lat="41.1116717" lon="14.5897583"><ele>1145.6</ele><time>2026-04-09T13:53:21.089Z</time></trkpt><trkpt lat="41.1115967" lon="14.5898683"><ele>1148.1999999999998</ele><time>2026-04-09T13:53:22.089Z</time></trkpt><trkpt lat="41.1115417" lon="14.5899683"><ele>1150.8</ele><time>2026-04-09T13:53:23.089Z</time></trkpt><trkpt lat="41.111505" lon="14.5900833"><ele>1153.3999999999999</ele><time>2026-04-09T13:53:24.089Z</time></trkpt><trkpt lat="41.1115017" lon="14.59023"><ele>1156.0</ele><time>2026-04-09T13:53:25.089Z</time></trkpt><trkpt lat="41.1115167" lon="14.59039"><ele>1156.0</ele><time>2026-04-09T13:53:26.089Z</time></trkpt><trkpt lat="41.1115333" lon="14.5905367"><ele>1156.0</ele><time>2026-04-09T13:53:27.089Z</time></trkpt><trkpt lat="41.1115333" lon="14.59068"><ele>1156.0</ele><time>2026-04-09T13:53:28.089Z</time></trkpt><trkpt lat="41.1115017" lon="14.5908267"><ele>1156.0</ele><time>2026-04-09T13:53:29.089Z</time></trkpt><trkpt lat="41.1114583" lon="14.5909667"><ele>1156.0</ele><time>2026-04-09T13:53:30.089Z</time></trkpt><trkpt lat="41.1114083" lon="14.5910917"><ele>1154.3999999999999</ele><time>2026-04-09T13:53:31.089Z</time></trkpt><trkpt lat="41.1113817" lon="14.5912133"><ele>1152.8</ele><time>2026-04-09T13:53:32.089Z</time></trkpt><trkpt lat="41.111365" lon="14.591305"><ele>1151.1999999999998</ele><time>2026-04-09T13:53:33.089Z</time></trkpt><trkpt lat="41.1113767" lon="14.5914183"><ele>1149.6</ele><time>2026-04-09T13:53:34.089Z</time></trkpt><trkpt lat="41.1114067" lon="14.5915317"><ele>1148.0</ele><time>2026-04-09T13:53:35.089Z</time></trkpt><trkpt lat="41.1114767" lon="14.5916417"><ele>1148.0</ele><time>2026-04-09T13:53:36.089Z</time></trkpt><trkpt lat="41.1115583" lon="14.5917467"><ele>1148.0</ele><time>2026-04-09T13:53:37.089Z</time></trkpt><trkpt lat="41.1116733" lon="14.5918367"><ele>1148.0</ele><time>2026-04-09T13:53:38.089Z</time></trkpt><trkpt lat="41.1117817" lon="14.591925"><ele>1148.0</ele><time>2026-04-09T13:53:39.089Z</time></trkpt><trkpt lat="41.1118583" lon="14.5920133"><ele>1142.8</ele><time>2026-04-09T13:53:40.089Z</time></trkpt><trkpt lat="41.11191" lon="14.5921283"><ele>1137.6</ele><time>2026-04-09T13:53:41.089Z</time></trkpt><trkpt lat="41.1119433" lon="14.5922567"><ele>1132.4</ele><time>2026-04-09T13:53:42.089Z</time></trkpt><trkpt lat="41.1119567" lon="14.59241"><ele>1127.2</ele><time>2026-04-09T13:53:43.089Z</time></trkpt><trkpt lat="41.1119583" lon="14.592575"><ele>1122.0</ele><time>2026-04-09T13:53:44.089Z</time></trkpt><trkpt lat="41.1119367" lon="14.5927167"><ele>1122.0</ele><time>2026-04-09T13:53:45.089Z</time></trkpt><trkpt lat="41.1118817" lon="14.5928367"><ele>1122.0</ele><time>2026-04-09T13:53:46.089Z</time></trkpt><trkpt lat="41.1117933" lon="14.5929367"><ele>1122.0</ele><time>2026-04-09T13:53:47.089Z</time></trkpt><trkpt lat="41.1116633" lon="14.5930267"><ele>1122.0</ele><time>2026-04-09T13:53:48.089Z</time></trkpt><trkpt lat="41.1115217" lon="14.59313"><ele>1123.0</ele><time>2026-04-09T13:53:49.089Z</time></trkpt><trkpt lat="41.1113717" lon="14.5932333"><ele>1124.0</ele><time>2026-04-09T13:53:50.089Z</time></trkpt><trkpt lat="41.111235" lon="14.5933417"><ele>1125.0</ele><time>2026-04-09T13:53:51.089Z</time></trkpt><trkpt lat="41.11111" lon="14.5934467"><ele>1125.0</ele><time>2026-04-09T13:53:52.089Z</time></trkpt><trkpt lat="41.1109833" lon="14.593535"><ele>1125.0</ele><time>2026-04-09T13:53:53.089Z</time></trkpt><trkpt lat="41.11087" lon="14.59362"><ele>1125.0</ele><time>2026-04-09T13:53:54.089Z</time></trkpt><trkpt lat="41.1107667" lon="14.5936967"><ele>1125.0</ele><time>2026-04-09T13:53:55.089Z</time></trkpt><trkpt lat="41.110675" lon="14.59377"><ele>1124.8</ele><time>2026-04-09T13:53:56.089Z</time></trkpt><trkpt lat="41.1105883" lon="14.5938367"><ele>1124.6</ele><time>2026-04-09T13:53:57.089Z</time></trkpt><trkpt lat="41.1105" lon="14.5939033"><ele>1124.4</ele><time>2026-04-09T13:53:58.089Z</time></trkpt><trkpt lat="41.1104133" lon="14.593975"><ele>1124.2</ele><time>2026-04-09T13:53:59.089Z</time></trkpt><trkpt lat="41.1103217" lon="14.5940433"><ele>1124.0</ele><time>2026-04-09T13:54:00.089Z</time></trkpt><trkpt lat="41.1102233" lon="14.5940967"><ele>1124.0</ele><time>2026-04-09T13:54:01.089Z</time></trkpt><trkpt lat="41.1101317" lon="14.5941633"><ele>1124.0</ele><time>2026-04-09T13:54:02.089Z</time></trkpt><trkpt lat="41.1100383" lon="14.5942317"><ele>1124.0</ele><time>2026-04-09T13:54:03.089Z</time></trkpt><trkpt lat="41.1099517" lon="14.5943083"><ele>1124.0</ele><time>2026-04-09T13:54:04.089Z</time></trkpt><trkpt lat="41.109865" lon="14.5943883"><ele>1124.0</ele><time>2026-04-09T13:54:05.089Z</time></trkpt><trkpt lat="41.1097783" lon="14.5944633"><ele>1124.0</ele><time>2026-04-09T13:54:06.089Z</time></trkpt><trkpt lat="41.1096883" lon="14.5945383"><ele>1124.0</ele><time>2026-04-09T13:54:07.089Z</time></trkpt><trkpt lat="41.1096" lon="14.594605"><ele>1124.0</ele><time>2026-04-09T13:54:08.089Z</time></trkpt><trkpt lat="41.1095167" lon="14.59468"><ele>1124.0</ele><time>2026-04-09T13:54:09.089Z</time></trkpt><trkpt lat="41.1094383" lon="14.5947333"><ele>1124.0</ele><time>2026-04-09T13:54:10.089Z</time></trkpt><trkpt lat="41.1093617" lon="14.5947883"><ele>1124.0</ele><time>2026-04-09T13:54:11.089Z</time></trkpt><trkpt lat="41.1092783" lon="14.59484"><ele>1124.0</ele><time>2026-04-09T13:54:12.089Z</time></trkpt><trkpt lat="41.1091933" lon="14.594885"><ele>1124.0</ele><time>2026-04-09T13:54:13.089Z</time></trkpt><trkpt lat="41.109105" lon="14.5949217"><ele>1124.0</ele><time>2026-04-09T13:54:14.089Z</time></trkpt><trkpt lat="41.1090083" lon="14.5949517"><ele>1124.0</ele><time>2026-04-09T13:54:15.089Z</time></trkpt><trkpt lat="41.1089117" lon="14.5949783"><ele>1122.6000000000001</ele><time>2026-04-09T13:54:16.089Z</time></trkpt><trkpt lat="41.1088133" lon="14.5950117"><ele>1121.2</ele><time>2026-04-09T13:54:17.089Z</time></trkpt><trkpt lat="41.1087133" lon="14.59506"><ele>1119.8000000000002</ele><time>2026-04-09T13:54:18.089Z</time></trkpt><trkpt lat="41.1086133" lon="14.5951017"><ele>1118.4</ele><time>2026-04-09T13:54:19.089Z</time></trkpt><trkpt lat="41.1085217" lon="14.595145"><ele>1117.0</ele><time>2026-04-09T13:54:20.089Z</time></trkpt><trkpt lat="41.1084333" lon="14.5951783"><ele>1117.0</ele><time>2026-04-09T13:54:21.089Z</time></trkpt><trkpt lat="41.108345" lon="14.59519"><ele>1117.0</ele><time>2026-04-09T13:54:22.089Z</time></trkpt><trkpt lat="41.1082583" lon="14.5952083"><ele>1117.0</ele><time>2026-04-09T13:54:23.089Z</time></trkpt><trkpt lat="41.10816" lon="14.595225"><ele>1117.0</ele><time>2026-04-09T13:54:24.089Z</time></trkpt><trkpt lat="41.1080583" lon="14.59524"><ele>1117.0</ele><time>2026-04-09T13:54:25.089Z</time></trkpt><trkpt lat="41.107955" lon="14.5952667"><ele>1116.0</ele><time>2026-04-09T13:54:26.089Z</time></trkpt><trkpt lat="41.10786" lon="14.5953017"><ele>1115.0</ele><time>2026-04-09T13:54:27.089Z</time></trkpt><trkpt lat="41.1077667" lon="14.595365"><ele>1114.0</ele><time>2026-04-09T13:54:28.089Z</time></trkpt><trkpt lat="41.10768" lon="14.5954267"><ele>1113.0</ele><time>2026-04-09T13:54:29.089Z</time></trkpt><trkpt lat="41.1076033" lon="14.5954917"><ele>1112.0</ele><time>2026-04-09T13:54:30.089Z</time></trkpt><trkpt lat="41.1075333" lon="14.5955517"><ele>1112.0</ele><time>2026-04-09T13:54:31.089Z</time></trkpt><trkpt lat="41.1074717" lon="14.5955883"><ele>1112.0</ele><time>2026-04-09T13:54:32.089Z</time></trkpt><trkpt lat="41.1074033" lon="14.595625"><ele>1112.0</ele><time>2026-04-09T13:54:33.089Z</time></trkpt><trkpt lat="41.1073367" lon="14.5956483"><ele>1112.0</ele><time>2026-04-09T13:54:34.089Z</time></trkpt><trkpt lat="41.1072717" lon="14.5956633"><ele>1112.0</ele><time>2026-04-09T13:54:35.089Z</time></trkpt><trkpt lat="41.1071933" lon="14.5956833"><ele>1112.0</ele><time>2026-04-09T13:54:36.089Z</time></trkpt><trkpt lat="41.1071083" lon="14.5956933"><ele>1112.0</ele><time>2026-04-09T13:54:37.089Z</time></trkpt><trkpt lat="41.1070133" lon="14.5957033"><ele>1109.8333333333335</ele><time>2026-04-09T13:54:38.089Z</time></trkpt><trkpt lat="41.106915" lon="14.5957"><ele>1107.6666666666667</ele><time>2026-04-09T13:54:39.089Z</time></trkpt><trkpt lat="41.1068217" lon="14.5957017"><ele>1105.5</ele><time>2026-04-09T13:54:40.089Z</time></trkpt><trkpt lat="41.10673" lon="14.5957133"><ele>1103.3333333333333</ele><time>2026-04-09T13:54:41.089Z</time></trkpt><trkpt lat="41.1066467" lon="14.59572"><ele>1101.1666666666665</ele><time>2026-04-09T13:54:42.089Z</time></trkpt><trkpt lat="41.1065717" lon="14.5957133"><ele>1099.0</ele><time>2026-04-09T13:54:43.089Z</time></trkpt><trkpt lat="41.1065067" lon="14.595695"><ele>1096.6666666666665</ele><time>2026-04-09T13:54:44.089Z</time></trkpt><trkpt lat="41.10644" lon="14.5956917"><ele>1094.3333333333333</ele><time>2026-04-09T13:54:45.089Z</time></trkpt><trkpt lat="41.106375" lon="14.5956883"><ele>1092.0</ele><time>2026-04-09T13:54:46.089Z</time></trkpt><trkpt lat="41.106265" lon="14.5956533"><ele>1089.6666666666667</ele><time>2026-04-09T13:54:48.09Z</time></trkpt><trkpt lat="41.1061483" lon="14.5956233"><ele>1087.3333333333335</ele><time>2026-04-09T13:54:50.09Z</time></trkpt><trkpt lat="41.106085" lon="14.595615"><ele>1085.0</ele><time>2026-04-09T13:54:51.09Z</time></trkpt><trkpt lat="41.1060217" lon="14.5956033"><ele>1085.0</ele><time>2026-04-09T13:54:52.09Z</time></trkpt><trkpt lat="41.1059083" lon="14.59555"><ele>1085.0</ele><time>2026-04-09T13:54:54.09Z</time></trkpt><trkpt lat="41.1058733" lon="14.5954533"><ele>1085.0</ele><time>2026-04-09T13:54:56.09Z</time></trkpt><trkpt lat="41.105905" lon="14.595315"><ele>1085.0</ele><time>2026-04-09T13:54:58.09Z</time></trkpt><trkpt lat="41.1059467" lon="14.5952317"><ele>1085.0</ele><time>2026-04-09T13:54:59.09Z</time></trkpt><trkpt lat="41.10601" lon="14.5951533"><ele>1084.6</ele><time>2026-04-09T13:55:00.09Z</time></trkpt><trkpt lat="41.1060867" lon="14.5950817"><ele>1084.2</ele><time>2026-04-09T13:55:01.09Z</time></trkpt><trkpt lat="41.10617" lon="14.59502"><ele>1083.8</ele><time>2026-04-09T13:55:02.09Z</time></trkpt><trkpt lat="41.1062617" lon="14.5949733"><ele>1083.4</ele><time>2026-04-09T13:55:03.09Z</time></trkpt><trkpt lat="41.10635" lon="14.5949333"><ele>1083.0</ele><time>2026-04-09T13:55:04.09Z</time></trkpt><trkpt lat="41.1064317" lon="14.5948917"><ele>1083.0</ele><time>2026-04-09T13:55:05.09Z</time></trkpt><trkpt lat="41.1065117" lon="14.5948567"><ele>1083.0</ele><time>2026-04-09T13:55:06.09Z</time></trkpt><trkpt lat="41.1065883" lon="14.5948233"><ele>1083.0</ele><time>2026-04-09T13:55:07.09Z</time></trkpt><trkpt lat="41.1066617" lon="14.5947983"><ele>1083.0</ele><time>2026-04-09T13:55:08.09Z</time></trkpt><trkpt lat="41.106725" lon="14.594775"><ele>1083.0</ele><time>2026-04-09T13:55:09.09Z</time></trkpt><trkpt lat="41.1067883" lon="14.5947517"><ele>1083.0</ele><time>2026-04-09T13:55:10.09Z</time></trkpt><trkpt lat="41.1068533" lon="14.5947317"><ele>1083.0</ele><time>2026-04-09T13:55:11.09Z</time></trkpt><trkpt lat="41.10692" lon="14.59471"><ele>1083.3333333333333</ele><time>2026-04-09T13:55:12.09Z</time></trkpt><trkpt lat="41.1069833" lon="14.594685"><ele>1083.6666666666667</ele><time>2026-04-09T13:55:13.09Z</time></trkpt><trkpt lat="41.1070383" lon="14.5946417"><ele>1084.0</ele><time>2026-04-09T13:55:14.09Z</time></trkpt><trkpt lat="41.1070917" lon="14.5945217"><ele>1084.3333333333335</ele><time>2026-04-09T13:55:16.09Z</time></trkpt><trkpt lat="41.10712" lon="14.5944083"><ele>1084.6666666666667</ele><time>2026-04-09T13:55:18.09Z</time></trkpt><trkpt lat="41.107105" lon="14.59425"><ele>1085.0</ele><time>2026-04-09T13:55:20.09Z</time></trkpt><trkpt lat="41.1070983" lon="14.5941467"><ele>1085.0</ele><time>2026-04-09T13:55:21.09Z</time></trkpt><trkpt lat="41.1071067" lon="14.5940417"><ele>1085.0</ele><time>2026-04-09T13:55:22.09Z</time></trkpt><trkpt lat="41.107145" lon="14.5939033"><ele>1085.0</ele><time>2026-04-09T13:55:23.09Z</time></trkpt><trkpt lat="41.1071933" lon="14.5937517"><ele>1085.0</ele><time>2026-04-09T13:55:24.09Z</time></trkpt><trkpt lat="41.1072483" lon="14.5936067"><ele>1085.0</ele><time>2026-04-09T13:55:25.09Z</time></trkpt><trkpt lat="41.1073067" lon="14.5934733"><ele>1084.3333333333335</ele><time>2026-04-09T13:55:26.09Z</time></trkpt><trkpt lat="41.1073733" lon="14.5933683"><ele>1083.6666666666667</ele><time>2026-04-09T13:55:27.09Z</time></trkpt><trkpt lat="41.107425" lon="14.593275"><ele>1083.0</ele><time>2026-04-09T13:55:28.09Z</time></trkpt><trkpt lat="41.1074583" lon="14.593185"><ele>1082.3333333333333</ele><time>2026-04-09T13:55:29.09Z</time></trkpt><trkpt lat="41.1074717" lon="14.5931017"><ele>1081.6666666666665</ele><time>2026-04-09T13:55:30.09Z</time></trkpt><trkpt lat="41.1074817" lon="14.593015"><ele>1081.0</ele><time>2026-04-09T13:55:31.09Z</time></trkpt><trkpt lat="41.1074767" lon="14.592925"><ele>1081.0</ele><time>2026-04-09T13:55:32.09Z</time></trkpt><trkpt lat="41.107455" lon="14.59284"><ele>1081.0</ele><time>2026-04-09T13:55:33.09Z</time></trkpt><trkpt lat="41.107415" lon="14.5927667"><ele>1081.0</ele><time>2026-04-09T13:55:34.09Z</time></trkpt><trkpt lat="41.1073617" lon="14.5926917"><ele>1081.0</ele><time>2026-04-09T13:55:35.09Z</time></trkpt><trkpt lat="41.1072883" lon="14.5926167"><ele>1081.0</ele><time>2026-04-09T13:55:36.09Z</time></trkpt><trkpt lat="41.1071917" lon="14.5925567"><ele>1081.0</ele><time>2026-04-09T13:55:37.09Z</time></trkpt><trkpt lat="41.107095" lon="14.592515"><ele>1080.0</ele><time>2026-04-09T13:55:38.09Z</time></trkpt><trkpt lat="41.1069967" lon="14.592495"><ele>1079.0</ele><time>2026-04-09T13:55:39.09Z</time></trkpt><trkpt lat="41.1068817" lon="14.5925267"><ele>1078.0</ele><time>2026-04-09T13:55:40.09Z</time></trkpt><trkpt lat="41.1067867" lon="14.5925783"><ele>1077.0</ele><time>2026-04-09T13:55:41.09Z</time></trkpt><trkpt lat="41.10669" lon="14.5926417"><ele>1076.0</ele><time>2026-04-09T13:55:42.09Z</time></trkpt><trkpt lat="41.1066083" lon="14.592725"><ele>1076.75</ele><time>2026-04-09T13:55:43.09Z</time></trkpt><trkpt lat="41.1065233" lon="14.59283"><ele>1077.5</ele><time>2026-04-09T13:55:44.09Z</time></trkpt><trkpt lat="41.1064217" lon="14.5929583"><ele>1078.25</ele><time>2026-04-09T13:55:45.09Z</time></trkpt><trkpt lat="41.10634" lon="14.5930883"><ele>1079.0</ele><time>2026-04-09T13:55:46.09Z</time></trkpt><trkpt lat="41.106255" lon="14.59319"><ele>1079.0</ele><time>2026-04-09T13:55:47.09Z</time></trkpt><trkpt lat="41.1061617" lon="14.5932833"><ele>1079.0</ele><time>2026-04-09T13:55:48.09Z</time></trkpt><trkpt lat="41.1060567" lon="14.5933617"><ele>1079.0</ele><time>2026-04-09T13:55:49.09Z</time></trkpt><trkpt lat="41.10594" lon="14.593445"><ele>1079.0</ele><time>2026-04-09T13:55:50.09Z</time></trkpt><trkpt lat="41.1058283" lon="14.5935167"><ele>1079.0</ele><time>2026-04-09T13:55:51.09Z</time></trkpt><trkpt lat="41.1057283" lon="14.593585"><ele>1079.0</ele><time>2026-04-09T13:55:52.09Z</time></trkpt><trkpt lat="41.1056383" lon="14.5936417"><ele>1079.0</ele><time>2026-04-09T13:55:53.09Z</time></trkpt><trkpt lat="41.1055633" lon="14.593685"><ele>1079.0</ele><time>2026-04-09T13:55:54.09Z</time></trkpt><trkpt lat="41.105495" lon="14.59373"><ele>1079.0</ele><time>2026-04-09T13:55:55.09Z</time></trkpt><trkpt lat="41.10542" lon="14.5937733"><ele>1076.5</ele><time>2026-04-09T13:55:56.09Z</time></trkpt><trkpt lat="41.105335" lon="14.5938033"><ele>1074.0</ele><time>2026-04-09T13:55:57.09Z</time></trkpt><trkpt lat="41.1052533" lon="14.5938417"><ele>1071.5</ele><time>2026-04-09T13:55:58.09Z</time></trkpt><trkpt lat="41.105165" lon="14.5938817"><ele>1069.0</ele><time>2026-04-09T13:55:59.09Z</time></trkpt><trkpt lat="41.1050817" lon="14.5939233"><ele>1066.5</ele><time>2026-04-09T13:56:00.09Z</time></trkpt><trkpt lat="41.1050017" lon="14.59397"><ele>1064.0</ele><time>2026-04-09T13:56:01.09Z</time></trkpt><trkpt lat="41.1049267" lon="14.5940367"><ele>1065.2</ele><time>2026-04-09T13:56:02.09Z</time></trkpt><trkpt lat="41.1048533" lon="14.5941033"><ele>1066.4</ele><time>2026-04-09T13:56:03.09Z</time></trkpt><trkpt lat="41.1047817" lon="14.5941683"><ele>1067.6</ele><time>2026-04-09T13:56:04.09Z</time></trkpt><trkpt lat="41.1047133" lon="14.5942383"><ele>1068.8</ele><time>2026-04-09T13:56:05.09Z</time></trkpt><trkpt lat="41.1046367" lon="14.5943333"><ele>1070.0</ele><time>2026-04-09T13:56:06.09Z</time></trkpt><trkpt lat="41.1045567" lon="14.5944217"><ele>1068.0</ele><time>2026-04-09T13:56:07.09Z</time></trkpt><trkpt lat="41.10448" lon="14.594515"><ele>1066.0</ele><time>2026-04-09T13:56:08.09Z</time></trkpt><trkpt lat="41.1043983" lon="14.5946067"><ele>1064.0</ele><time>2026-04-09T13:56:09.09Z</time></trkpt><trkpt lat="41.1043233" lon="14.5947"><ele>1062.0</ele><time>2026-04-09T13:56:10.09Z</time></trkpt><trkpt lat="41.1042567" lon="14.5947833"><ele>1060.0</ele><time>2026-04-09T13:56:11.09Z</time></trkpt><trkpt lat="41.1041917" lon="14.5948717"><ele>1060.0</ele><time>2026-04-09T13:56:12.09Z</time></trkpt><trkpt lat="41.10413" lon="14.5949567"><ele>1060.0</ele><time>2026-04-09T13:56:13.09Z</time></trkpt><trkpt lat="41.1040617" lon="14.5950333"><ele>1060.0</ele><time>2026-04-09T13:56:14.09Z</time></trkpt><trkpt lat="41.1039983" lon="14.5951017"><ele>1060.0</ele><time>2026-04-09T13:56:15.09Z</time></trkpt><trkpt lat="41.10394" lon="14.595165"><ele>1060.0</ele><time>2026-04-09T13:56:16.09Z</time></trkpt><trkpt lat="41.1038767" lon="14.5952317"><ele>1060.0</ele><time>2026-04-09T13:56:17.09Z</time></trkpt><trkpt lat="41.1038083" lon="14.595315"><ele>1059.2</ele><time>2026-04-09T13:56:18.09Z</time></trkpt><trkpt lat="41.1037483" lon="14.5953983"><ele>1058.4</ele><time>2026-04-09T13:56:19.09Z</time></trkpt><trkpt lat="41.1036833" lon="14.5954883"><ele>1057.6</ele><time>2026-04-09T13:56:20.09Z</time></trkpt><trkpt lat="41.1036183" lon="14.5955783"><ele>1056.8</ele><time>2026-04-09T13:56:21.09Z</time></trkpt><trkpt lat="41.1035567" lon="14.59567"><ele>1056.0</ele><time>2026-04-09T13:56:22.09Z</time></trkpt><trkpt lat="41.1035" lon="14.5957683"><ele>1056.0</ele><time>2026-04-09T13:56:23.09Z</time></trkpt><trkpt lat="41.10345" lon="14.59585"><ele>1056.0</ele><time>2026-04-09T13:56:24.09Z</time></trkpt><trkpt lat="41.1034083" lon="14.595935"><ele>1056.0</ele><time>2026-04-09T13:56:25.09Z</time></trkpt><trkpt lat="41.1033783" lon="14.5960217"><ele>1056.0</ele><time>2026-04-09T13:56:26.09Z</time></trkpt><trkpt lat="41.1033583" lon="14.59612"><ele>1056.0</ele><time>2026-04-09T13:56:27.09Z</time></trkpt><trkpt lat="41.1033333" lon="14.59622"><ele>1056.0</ele><time>2026-04-09T13:56:28.09Z</time></trkpt><trkpt lat="41.1033083" lon="14.596325"><ele>1057.0</ele><time>2026-04-09T13:56:29.09Z</time></trkpt><trkpt lat="41.1032683" lon="14.5964217"><ele>1058.0</ele><time>2026-04-09T13:56:30.09Z</time></trkpt><trkpt lat="41.103225" lon="14.5965133"><ele>1059.0</ele><time>2026-04-09T13:56:31.09Z</time></trkpt><trkpt lat="41.1031767" lon="14.5966"><ele>1060.0</ele><time>2026-04-09T13:56:32.09Z</time></trkpt><trkpt lat="41.103125" lon="14.5966667"><ele>1061.0</ele><time>2026-04-09T13:56:33.09Z</time></trkpt><trkpt lat="41.1030717" lon="14.59676"><ele>1062.0</ele><time>2026-04-09T13:56:34.09Z</time></trkpt><trkpt lat="41.1030183" lon="14.5968433"><ele>1062.0</ele><time>2026-04-09T13:56:35.09Z</time></trkpt><trkpt lat="41.1029683" lon="14.5969383"><ele>1062.0</ele><time>2026-04-09T13:56:36.09Z</time></trkpt><trkpt lat="41.1029217" lon="14.5970367"><ele>1062.0</ele><time>2026-04-09T13:56:37.09Z</time></trkpt><trkpt lat="41.1028867" lon="14.597155"><ele>1062.0</ele><time>2026-04-09T13:56:38.09Z</time></trkpt><trkpt lat="41.1028583" lon="14.5972717"><ele>1062.0</ele><time>2026-04-09T13:56:39.09Z</time></trkpt><trkpt lat="41.1028417" lon="14.5973967"><ele>1061.5</ele><time>2026-04-09T13:56:40.09Z</time></trkpt><trkpt lat="41.1028383" lon="14.5975183"><ele>1061.0</ele><time>2026-04-09T13:56:41.09Z</time></trkpt><trkpt lat="41.102845" lon="14.5976333"><ele>1060.5</ele><time>2026-04-09T13:56:42.09Z</time></trkpt><trkpt lat="41.1028567" lon="14.5977467"><ele>1060.0</ele><time>2026-04-09T13:56:43.09Z</time></trkpt><trkpt lat="41.102875" lon="14.59787"><ele>1059.5</ele><time>2026-04-09T13:56:44.09Z</time></trkpt><trkpt lat="41.10289" lon="14.5979817"><ele>1059.0</ele><time>2026-04-09T13:56:45.09Z</time></trkpt><trkpt lat="41.1029017" lon="14.598105"><ele>1058.8</ele><time>2026-04-09T13:56:46.09Z</time></trkpt><trkpt lat="41.1029067" lon="14.5982233"><ele>1058.6000000000001</ele><time>2026-04-09T13:56:47.09Z</time></trkpt><trkpt lat="41.10291" lon="14.5983433"><ele>1058.4</ele><time>2026-04-09T13:56:48.09Z</time></trkpt><trkpt lat="41.1029117" lon="14.5984767"><ele>1058.2</ele><time>2026-04-09T13:56:49.09Z</time></trkpt><trkpt lat="41.1029067" lon="14.598605"><ele>1058.0</ele><time>2026-04-09T13:56:50.09Z</time></trkpt><trkpt lat="41.102905" lon="14.5987433"><ele>1057.1666666666667</ele><time>2026-04-09T13:56:51.09Z</time></trkpt><trkpt lat="41.102905" lon="14.5988683"><ele>1056.3333333333335</ele><time>2026-04-09T13:56:52.09Z</time></trkpt><trkpt lat="41.102895" lon="14.598985"><ele>1055.5</ele><time>2026-04-09T13:56:53.09Z</time></trkpt><trkpt lat="41.10288" lon="14.5990883"><ele>1054.6666666666667</ele><time>2026-04-09T13:56:54.09Z</time></trkpt><trkpt lat="41.1028583" lon="14.5991867"><ele>1053.8333333333333</ele><time>2026-04-09T13:56:55.09Z</time></trkpt><trkpt lat="41.1028367" lon="14.5992817"><ele>1053.0</ele><time>2026-04-09T13:56:56.09Z</time></trkpt><trkpt lat="41.10281" lon="14.5993767"><ele>1053.0</ele><time>2026-04-09T13:56:57.09Z</time></trkpt><trkpt lat="41.1027717" lon="14.5994633"><ele>1053.0</ele><time>2026-04-09T13:56:58.09Z</time></trkpt><trkpt lat="41.10273" lon="14.5995567"><ele>1053.0</ele><time>2026-04-09T13:56:59.09Z</time></trkpt><trkpt lat="41.1026833" lon="14.5996533"><ele>1053.0</ele><time>2026-04-09T13:57:00.09Z</time></trkpt><trkpt lat="41.102635" lon="14.5997633"><ele>1053.0</ele><time>2026-04-09T13:57:01.09Z</time></trkpt><trkpt lat="41.102595" lon="14.5998583"><ele>1053.0</ele><time>2026-04-09T13:57:02.09Z</time></trkpt><trkpt lat="41.1025517" lon="14.5999383"><ele>1053.6</ele><time>2026-04-09T13:57:03.09Z</time></trkpt><trkpt lat="41.102515" lon="14.60001"><ele>1054.1999999999998</ele><time>2026-04-09T13:57:04.09Z</time></trkpt><trkpt lat="41.1024733" lon="14.6000767"><ele>1054.8</ele><time>2026-04-09T13:57:05.09Z</time></trkpt><trkpt lat="41.1024033" lon="14.6001833"><ele>1055.3999999999999</ele><time>2026-04-09T13:57:07.09Z</time></trkpt><trkpt lat="41.10234" lon="14.6003167"><ele>1056.0</ele><time>2026-04-09T13:57:09.09Z</time></trkpt><trkpt lat="41.1022917" lon="14.6004683"><ele>1056.0</ele><time>2026-04-09T13:57:11.09Z</time></trkpt><trkpt lat="41.1022617" lon="14.6006133"><ele>1056.0</ele><time>2026-04-09T13:57:13.09Z</time></trkpt><trkpt lat="41.102245" lon="14.6006967"><ele>1056.0</ele><time>2026-04-09T13:57:14.09Z</time></trkpt><trkpt lat="41.10221" lon="14.6008433"><ele>1056.0</ele><time>2026-04-09T13:57:16.09Z</time></trkpt><trkpt lat="41.1021983" lon="14.6009933"><ele>1056.0</ele><time>2026-04-09T13:57:18.09Z</time></trkpt><trkpt lat="41.1021817" lon="14.601145"><ele>1055.0</ele><time>2026-04-09T13:57:20.09Z</time></trkpt><trkpt lat="41.10215" lon="14.6012783"><ele>1054.0</ele><time>2026-04-09T13:57:22.09Z</time></trkpt><trkpt lat="41.102125" lon="14.6013567"><ele>1053.0</ele><time>2026-04-09T13:57:23.09Z</time></trkpt><trkpt lat="41.1020983" lon="14.60144"><ele>1052.0</ele><time>2026-04-09T13:57:24.09Z</time></trkpt><trkpt lat="41.1020667" lon="14.6015233"><ele>1051.0</ele><time>2026-04-09T13:57:25.09Z</time></trkpt><trkpt lat="41.1020317" lon="14.6016033"><ele>1050.0</ele><time>2026-04-09T13:57:26.09Z</time></trkpt><trkpt lat="41.1019917" lon="14.6017"><ele>1050.0</ele><time>2026-04-09T13:57:27.09Z</time></trkpt><trkpt lat="41.101945" lon="14.601795"><ele>1050.0</ele><time>2026-04-09T13:57:28.09Z</time></trkpt><trkpt lat="41.1019017" lon="14.60188"><ele>1050.0</ele><time>2026-04-09T13:57:29.09Z</time></trkpt><trkpt lat="41.1018583" lon="14.6019617"><ele>1050.0</ele><time>2026-04-09T13:57:30.09Z</time></trkpt><trkpt lat="41.10181" lon="14.6020617"><ele>1050.0</ele><time>2026-04-09T13:57:31.09Z</time></trkpt><trkpt lat="41.101765" lon="14.602155"><ele>1050.0</ele><time>2026-04-09T13:57:32.09Z</time></trkpt><trkpt lat="41.1017283" lon="14.602265"><ele>1048.3333333333333</ele><time>2026-04-09T13:57:33.09Z</time></trkpt><trkpt lat="41.1016933" lon="14.6023633"><ele>1046.6666666666667</ele><time>2026-04-09T13:57:34.09Z</time></trkpt><trkpt lat="41.10167" lon="14.602455"><ele>1045.0</ele><time>2026-04-09T13:57:35.09Z</time></trkpt><trkpt lat="41.1016483" lon="14.6025617"><ele>1043.3333333333335</ele><time>2026-04-09T13:57:36.09Z</time></trkpt><trkpt lat="41.10163" lon="14.6026767"><ele>1041.6666666666667</ele><time>2026-04-09T13:57:37.09Z</time></trkpt><trkpt lat="41.1016133" lon="14.60281"><ele>1040.0</ele><time>2026-04-09T13:57:38.09Z</time></trkpt><trkpt lat="41.1016033" lon="14.6029267"><ele>1039.0</ele><time>2026-04-09T13:57:39.09Z</time></trkpt><trkpt lat="41.1015917" lon="14.6030283"><ele>1038.0</ele><time>2026-04-09T13:57:40.09Z</time></trkpt><trkpt lat="41.1015817" lon="14.6031167"><ele>1037.0</ele><time>2026-04-09T13:57:41.09Z</time></trkpt><trkpt lat="41.1015817" lon="14.60325"><ele>1036.0</ele><time>2026-04-09T13:57:43.09Z</time></trkpt><trkpt lat="41.10159" lon="14.6033583"><ele>1035.0</ele><time>2026-04-09T13:57:46.09Z</time></trkpt><trkpt lat="41.1015967" lon="14.6034517"><ele>1034.0</ele><time>2026-04-09T13:57:50.09Z</time></trkpt><trkpt lat="41.1016067" lon="14.6035717"><ele>1034.0</ele><time>2026-04-09T13:58:13.09Z</time></trkpt><trkpt lat="41.1016133" lon="14.6036617"><ele>1034.0</ele><time>2026-04-09T13:58:15.09Z</time></trkpt><trkpt lat="41.101615" lon="14.6037683"><ele>1034.0</ele><time>2026-04-09T13:58:17.09Z</time></trkpt><trkpt lat="41.10165" lon="14.603905"><ele>1034.0</ele><time>2026-04-09T13:58:19.09Z</time></trkpt><trkpt lat="41.10171" lon="14.604075"><ele>1034.0</ele><time>2026-04-09T13:58:21.09Z</time></trkpt><trkpt lat="41.1017483" lon="14.604155"><ele>1033.4</ele><time>2026-04-09T13:58:22.09Z</time></trkpt><trkpt lat="41.10178" lon="14.604235"><ele>1032.8000000000002</ele><time>2026-04-09T13:58:23.09Z</time></trkpt><trkpt lat="41.1018267" lon="14.6043833"><ele>1032.1999999999998</ele><time>2026-04-09T13:58:25.09Z</time></trkpt><trkpt lat="41.1018517" lon="14.6045267"><ele>1031.6</ele><time>2026-04-09T13:58:27.09Z</time></trkpt><trkpt lat="41.1018433" lon="14.60462"><ele>1031.0</ele><time>2026-04-09T13:58:28.09Z</time></trkpt><trkpt lat="41.1017933" lon="14.604755"><ele>1030.3333333333335</ele><time>2026-04-09T13:58:30.09Z</time></trkpt><trkpt lat="41.1017467" lon="14.6048133"><ele>1029.6666666666667</ele><time>2026-04-09T13:58:31.09Z</time></trkpt><trkpt lat="41.1016833" lon="14.6048517"><ele>1029.0</ele><time>2026-04-09T13:58:32.09Z</time></trkpt><trkpt lat="41.1016183" lon="14.60488"><ele>1028.3333333333333</ele><time>2026-04-09T13:58:33.09Z</time></trkpt><trkpt lat="41.101555" lon="14.6048933"><ele>1027.6666666666665</ele><time>2026-04-09T13:58:34.09Z</time></trkpt><trkpt lat="41.1014417" lon="14.6048433"><ele>1027.0</ele><time>2026-04-09T13:58:36.09Z</time></trkpt><trkpt lat="41.1013383" lon="14.60479"><ele>1027.0</ele><time>2026-04-09T13:58:38.09Z</time></trkpt><trkpt lat="41.1012283" lon="14.6047067"><ele>1027.0</ele><time>2026-04-09T13:58:40.09Z</time></trkpt><trkpt lat="41.10116" lon="14.6046817"><ele>1027.0</ele><time>2026-04-09T13:58:41.09Z</time></trkpt><trkpt lat="41.1010667" lon="14.6046567"><ele>1027.0</ele><time>2026-04-09T13:58:42.09Z</time></trkpt><trkpt lat="41.1009967" lon="14.6046567"><ele>1027.0</ele><time>2026-04-09T13:58:43.09Z</time></trkpt><trkpt lat="41.1009333" lon="14.6046717"><ele>1027.0</ele><time>2026-04-09T13:58:44.09Z</time></trkpt><trkpt lat="41.100865" lon="14.6047133"><ele>1027.0</ele><time>2026-04-09T13:58:45.09Z</time></trkpt><trkpt lat="41.1007967" lon="14.604775"><ele>1027.0</ele><time>2026-04-09T13:58:46.09Z</time></trkpt><trkpt lat="41.1007333" lon="14.604835"><ele>1027.0</ele><time>2026-04-09T13:58:47.09Z</time></trkpt><trkpt lat="41.100675" lon="14.6048933"><ele>1027.0</ele><time>2026-04-09T13:58:48.09Z</time></trkpt><trkpt lat="41.100625" lon="14.6049467"><ele>1027.0</ele><time>2026-04-09T13:58:49.09Z</time></trkpt><trkpt lat="41.1005467" lon="14.6050617"><ele>1027.0</ele><time>2026-04-09T13:58:51.09Z</time></trkpt><trkpt lat="41.1004933" lon="14.6051867"><ele>1028.0</ele><time>2026-04-09T13:58:53.09Z</time></trkpt><trkpt lat="41.1004483" lon="14.6053433"><ele>1029.0</ele><time>2026-04-09T13:58:55.09Z</time></trkpt><trkpt lat="41.1004183" lon="14.6055"><ele>1030.0</ele><time>2026-04-09T13:58:57.09Z</time></trkpt><trkpt lat="41.1003933" lon="14.6055867"><ele>1031.0</ele><time>2026-04-09T13:58:58.09Z</time></trkpt><trkpt lat="41.100365" lon="14.605675"><ele>1032.0</ele><time>2026-04-09T13:58:59.09Z</time></trkpt><trkpt lat="41.1003333" lon="14.60576"><ele>1032.0</ele><time>2026-04-09T13:59:00.09Z</time></trkpt><trkpt lat="41.1003017" lon="14.60585"><ele>1032.0</ele><time>2026-04-09T13:59:01.09Z</time></trkpt><trkpt lat="41.100275" lon="14.605965"><ele>1032.0</ele><time>2026-04-09T13:59:02.09Z</time></trkpt><trkpt lat="41.10024" lon="14.6060783"><ele>1032.0</ele><time>2026-04-09T13:59:03.09Z</time></trkpt><trkpt lat="41.1002033" lon="14.606195"><ele>1032.0</ele><time>2026-04-09T13:59:04.09Z</time></trkpt><trkpt lat="41.10017" lon="14.6062983"><ele>1032.0</ele><time>2026-04-09T13:59:05.09Z</time></trkpt><trkpt lat="41.1001017" lon="14.6064433"><ele>1030.6</ele><time>2026-04-09T13:59:07.09Z</time></trkpt><trkpt lat="41.1000517" lon="14.6065083"><ele>1029.2</ele><time>2026-04-09T13:59:08.09Z</time></trkpt><trkpt lat="41.0999817" lon="14.6065633"><ele>1027.8</ele><time>2026-04-09T13:59:09.09Z</time></trkpt><trkpt lat="41.0998967" lon="14.60662"><ele>1026.4</ele><time>2026-04-09T13:59:10.09Z</time></trkpt><trkpt lat="41.099795" lon="14.60667"><ele>1025.0</ele><time>2026-04-09T13:59:11.09Z</time></trkpt><trkpt lat="41.0996833" lon="14.6067017"><ele>1026.0</ele><time>2026-04-09T13:59:12.09Z</time></trkpt><trkpt lat="41.0995833" lon="14.6067367"><ele>1027.0</ele><time>2026-04-09T13:59:13.09Z</time></trkpt><trkpt lat="41.099505" lon="14.606775"><ele>1028.0</ele><time>2026-04-09T13:59:14.09Z</time></trkpt><trkpt lat="41.0994333" lon="14.60681"><ele>1029.0</ele><time>2026-04-09T13:59:15.09Z</time></trkpt><trkpt lat="41.0993717" lon="14.6068567"><ele>1030.0</ele><time>2026-04-09T13:59:16.09Z</time></trkpt><trkpt lat="41.0992967" lon="14.607"><ele>1030.0</ele><time>2026-04-09T13:59:18.09Z</time></trkpt><trkpt lat="41.0992767" lon="14.6071017"><ele>1030.0</ele><time>2026-04-09T13:59:19.09Z</time></trkpt><trkpt lat="41.099265" lon="14.60722"><ele>1030.0</ele><time>2026-04-09T13:59:20.09Z</time></trkpt><trkpt lat="41.0992667" lon="14.6073633"><ele>1030.0</ele><time>2026-04-09T13:59:21.09Z</time></trkpt><trkpt lat="41.0992683" lon="14.6075267"><ele>1030.0</ele><time>2026-04-09T13:59:22.09Z</time></trkpt><trkpt lat="41.0992533" lon="14.6076833"><ele>1028.0</ele><time>2026-04-09T13:59:23.09Z</time></trkpt><trkpt lat="41.0992367" lon="14.60787"><ele>1026.0</ele><time>2026-04-09T13:59:24.09Z</time></trkpt><trkpt lat="41.099215" lon="14.608045"><ele>1024.0</ele><time>2026-04-09T13:59:25.09Z</time></trkpt><trkpt lat="41.0991883" lon="14.6081867"><ele>1022.0</ele><time>2026-04-09T13:59:26.09Z</time></trkpt><trkpt lat="41.0991667" lon="14.6083183"><ele>1022.0</ele><time>2026-04-09T13:59:27.09Z</time></trkpt><trkpt lat="41.0991467" lon="14.6084383"><ele>1022.0</ele><time>2026-04-09T13:59:28.09Z</time></trkpt><trkpt lat="41.0991417" lon="14.6085517"><ele>1022.0</ele><time>2026-04-09T13:59:29.09Z</time></trkpt><trkpt lat="41.0991617" lon="14.608685"><ele>1022.0</ele><time>2026-04-09T13:59:30.09Z</time></trkpt><trkpt lat="41.09919" lon="14.6088117"><ele>1022.0</ele><time>2026-04-09T13:59:31.09Z</time></trkpt><trkpt lat="41.0992283" lon="14.608935"><ele>1021.6</ele><time>2026-04-09T13:59:32.09Z</time></trkpt><trkpt lat="41.09927" lon="14.609055"><ele>1021.2</ele><time>2026-04-09T13:59:33.09Z</time></trkpt><trkpt lat="41.0993" lon="14.609195"><ele>1020.8</ele><time>2026-04-09T13:59:34.09Z</time></trkpt><trkpt lat="41.0993283" lon="14.60935"><ele>1020.4</ele><time>2026-04-09T13:59:35.09Z</time></trkpt><trkpt lat="41.0993417" lon="14.609495"><ele>1020.0</ele><time>2026-04-09T13:59:36.09Z</time></trkpt><trkpt lat="41.09935" lon="14.6096333"><ele>1018.6666666666666</ele><time>2026-04-09T13:59:37.09Z</time></trkpt><trkpt lat="41.09935" lon="14.609765"><ele>1017.3333333333333</ele><time>2026-04-09T13:59:38.09Z</time></trkpt><trkpt lat="41.099335" lon="14.60988"><ele>1016.0</ele><time>2026-04-09T13:59:39.09Z</time></trkpt><trkpt lat="41.0993183" lon="14.6099817"><ele>1014.6666666666666</ele><time>2026-04-09T13:59:40.09Z</time></trkpt><trkpt lat="41.099305" lon="14.61008"><ele>1013.3333333333333</ele><time>2026-04-09T13:59:41.09Z</time></trkpt><trkpt lat="41.0992983" lon="14.6101817"><ele>1012.0</ele><time>2026-04-09T13:59:42.09Z</time></trkpt><trkpt lat="41.0993067" lon="14.6102917"><ele>1009.2</ele><time>2026-04-09T13:59:43.09Z</time></trkpt><trkpt lat="41.0993233" lon="14.610415"><ele>1006.4000000000001</ele><time>2026-04-09T13:59:44.09Z</time></trkpt><trkpt lat="41.0993417" lon="14.61054"><ele>1003.5999999999999</ele><time>2026-04-09T13:59:45.09Z</time></trkpt><trkpt lat="41.0993767" lon="14.610675"><ele>1000.8</ele><time>2026-04-09T13:59:46.09Z</time></trkpt><trkpt lat="41.099415" lon="14.610815"><ele>998.0</ele><time>2026-04-09T13:59:47.09Z</time></trkpt><trkpt lat="41.0994467" lon="14.6109433"><ele>998.0</ele><time>2026-04-09T13:59:48.09Z</time></trkpt><trkpt lat="41.099485" lon="14.6110867"><ele>998.0</ele><time>2026-04-09T13:59:49.09Z</time></trkpt><trkpt lat="41.0995233" lon="14.6112333"><ele>998.0</ele><time>2026-04-09T13:59:50.09Z</time></trkpt><trkpt lat="41.099545" lon="14.611375"><ele>998.0</ele><time>2026-04-09T13:59:51.09Z</time></trkpt><trkpt lat="41.0995533" lon="14.61151"><ele>998.0</ele><time>2026-04-09T13:59:52.09Z</time></trkpt><trkpt lat="41.0995617" lon="14.6116483"><ele>994.5999999999999</ele><time>2026-04-09T13:59:53.091Z</time></trkpt><trkpt lat="41.0995717" lon="14.6117833"><ele>991.1999999999999</ele><time>2026-04-09T13:59:54.091Z</time></trkpt><trkpt lat="41.0995817" lon="14.6119167"><ele>987.8</ele><time>2026-04-09T13:59:55.091Z</time></trkpt><trkpt lat="41.099595" lon="14.6120517"><ele>984.4</ele><time>2026-04-09T13:59:56.091Z</time></trkpt><trkpt lat="41.099615" lon="14.61219"><ele>981.0</ele><time>2026-04-09T13:59:57.091Z</time></trkpt><trkpt lat="41.09963" lon="14.6123117"><ele>982.0</ele><time>2026-04-09T13:59:58.091Z</time></trkpt><trkpt lat="41.0996617" lon="14.6124117"><ele>983.0</ele><time>2026-04-09T13:59:59.091Z</time></trkpt><trkpt lat="41.0997067" lon="14.6125083"><ele>984.0</ele><time>2026-04-09T14:00:00.091Z</time></trkpt><trkpt lat="41.0997633" lon="14.6125783"><ele>985.0</ele><time>2026-04-09T14:00:01.091Z</time></trkpt><trkpt lat="41.0998333" lon="14.612635"><ele>986.0</ele><time>2026-04-09T14:00:02.091Z</time></trkpt><trkpt lat="41.0999117" lon="14.6126617"><ele>987.0</ele><time>2026-04-09T14:00:03.091Z</time></trkpt><trkpt lat="41.09999" lon="14.6126617"><ele>987.0</ele><time>2026-04-09T14:00:04.091Z</time></trkpt><trkpt lat="41.10007" lon="14.6126017"><ele>987.0</ele><time>2026-04-09T14:00:05.091Z</time></trkpt><trkpt lat="41.10015" lon="14.6125167"><ele>987.0</ele><time>2026-04-09T14:00:06.091Z</time></trkpt><trkpt lat="41.1002233" lon="14.612435"><ele>987.0</ele><time>2026-04-09T14:00:07.091Z</time></trkpt><trkpt lat="41.10029" lon="14.6123617"><ele>987.0</ele><time>2026-04-09T14:00:08.091Z</time></trkpt><trkpt lat="41.1003583" lon="14.612315"><ele>987.0</ele><time>2026-04-09T14:00:09.091Z</time></trkpt><trkpt lat="41.100435" lon="14.6122933"><ele>987.0</ele><time>2026-04-09T14:00:10.091Z</time></trkpt><trkpt lat="41.1005117" lon="14.612325"><ele>987.0</ele><time>2026-04-09T14:00:11.091Z</time></trkpt><trkpt lat="41.1005833" lon="14.61239"><ele>987.0</ele><time>2026-04-09T14:00:12.091Z</time></trkpt><trkpt lat="41.10064" lon="14.612485"><ele>987.0</ele><time>2026-04-09T14:00:13.091Z</time></trkpt><trkpt lat="41.100685" lon="14.6126017"><ele>987.0</ele><time>2026-04-09T14:00:14.091Z</time></trkpt><trkpt lat="41.1007333" lon="14.6127317"><ele>985.4000000000001</ele><time>2026-04-09T14:00:15.091Z</time></trkpt><trkpt lat="41.10078" lon="14.6128617"><ele>983.8000000000001</ele><time>2026-04-09T14:00:16.091Z</time></trkpt><trkpt lat="41.1008067" lon="14.61299"><ele>982.2</ele><time>2026-04-09T14:00:17.091Z</time></trkpt><trkpt lat="41.1008217" lon="14.6131267"><ele>980.6</ele><time>2026-04-09T14:00:18.091Z</time></trkpt><trkpt lat="41.1008183" lon="14.6132483"><ele>979.0</ele><time>2026-04-09T14:00:19.091Z</time></trkpt><trkpt lat="41.1008183" lon="14.61336"><ele>978.9999999999999</ele><time>2026-04-09T14:00:20.091Z</time></trkpt><trkpt lat="41.10081" lon="14.6134617"><ele>979.0</ele><time>2026-04-09T14:00:21.091Z</time></trkpt><trkpt lat="41.1007917" lon="14.6135617"><ele>979.0</ele><time>2026-04-09T14:00:22.091Z</time></trkpt><trkpt lat="41.1007717" lon="14.613655"><ele>979.0</ele><time>2026-04-09T14:00:23.091Z</time></trkpt><trkpt lat="41.1007533" lon="14.6137483"><ele>978.9999999999999</ele><time>2026-04-09T14:00:24.091Z</time></trkpt><trkpt lat="41.1007433" lon="14.6138517"><ele>979.0</ele><time>2026-04-09T14:00:25.091Z</time></trkpt><trkpt lat="41.1007417" lon="14.613965"><ele>978.2</ele><time>2026-04-09T14:00:26.091Z</time></trkpt><trkpt lat="41.1007483" lon="14.6140833"><ele>977.4000000000001</ele><time>2026-04-09T14:00:27.091Z</time></trkpt><trkpt lat="41.1007733" lon="14.6142183"><ele>976.6</ele><time>2026-04-09T14:00:28.091Z</time></trkpt><trkpt lat="41.1008083" lon="14.6143583"><ele>975.8</ele><time>2026-04-09T14:00:29.091Z</time></trkpt><trkpt lat="41.1008617" lon="14.6145017"><ele>975.0</ele><time>2026-04-09T14:00:30.091Z</time></trkpt><trkpt lat="41.1009083" lon="14.6146433"><ele>972.25</ele><time>2026-04-09T14:00:31.091Z</time></trkpt><trkpt lat="41.1009617" lon="14.6147883"><ele>969.5</ele><time>2026-04-09T14:00:32.091Z</time></trkpt><trkpt lat="41.1010133" lon="14.6149317"><ele>966.75</ele><time>2026-04-09T14:00:33.091Z</time></trkpt><trkpt lat="41.10106" lon="14.6150767"><ele>964.0</ele><time>2026-04-09T14:00:34.091Z</time></trkpt><trkpt lat="41.1010983" lon="14.6152117"><ele>960.75</ele><time>2026-04-09T14:00:35.091Z</time></trkpt><trkpt lat="41.1011283" lon="14.6153667"><ele>957.5</ele><time>2026-04-09T14:00:36.091Z</time></trkpt><trkpt lat="41.101135" lon="14.615525"><ele>954.25</ele><time>2026-04-09T14:00:37.091Z</time></trkpt><trkpt lat="41.1011417" lon="14.6156767"><ele>951.0</ele><time>2026-04-09T14:00:38.091Z</time></trkpt><trkpt lat="41.10115" lon="14.61581"><ele>951.0</ele><time>2026-04-09T14:00:39.091Z</time></trkpt><trkpt lat="41.1011733" lon="14.6159267"><ele>951.0</ele><time>2026-04-09T14:00:40.091Z</time></trkpt><trkpt lat="41.1012033" lon="14.6160383"><ele>951.0</ele><time>2026-04-09T14:00:41.091Z</time></trkpt><trkpt lat="41.101235" lon="14.616145"><ele>951.0</ele><time>2026-04-09T14:00:42.091Z</time></trkpt><trkpt lat="41.1012667" lon="14.616245"><ele>951.0</ele><time>2026-04-09T14:00:43.091Z</time></trkpt><trkpt lat="41.1012983" lon="14.61635"><ele>951.0</ele><time>2026-04-09T14:00:44.091Z</time></trkpt><trkpt lat="41.1013333" lon="14.616435"><ele>949.6666666666666</ele><time>2026-04-09T14:00:45.091Z</time></trkpt><trkpt lat="41.1013533" lon="14.6165267"><ele>948.3333333333333</ele><time>2026-04-09T14:00:46.091Z</time></trkpt><trkpt lat="41.101355" lon="14.616625"><ele>947.0</ele><time>2026-04-09T14:00:47.091Z</time></trkpt><trkpt lat="41.10134" lon="14.6167233"><ele>945.6666666666666</ele><time>2026-04-09T14:00:48.091Z</time></trkpt><trkpt lat="41.1013" lon="14.6168233"><ele>944.3333333333333</ele><time>2026-04-09T14:00:49.091Z</time></trkpt><trkpt lat="41.1012367" lon="14.6169233"><ele>943.0</ele><time>2026-04-09T14:00:50.091Z</time></trkpt><trkpt lat="41.10117" lon="14.6170167"><ele>941.8333333333333</ele><time>2026-04-09T14:00:51.091Z</time></trkpt><trkpt lat="41.1011117" lon="14.617085"><ele>940.6666666666666</ele><time>2026-04-09T14:00:52.091Z</time></trkpt><trkpt lat="41.1010517" lon="14.6171533"><ele>939.5</ele><time>2026-04-09T14:00:53.091Z</time></trkpt><trkpt lat="41.1009967" lon="14.6172283"><ele>938.3333333333333</ele><time>2026-04-09T14:00:54.091Z</time></trkpt><trkpt lat="41.100945" lon="14.6172967"><ele>937.1666666666666</ele><time>2026-04-09T14:00:55.091Z</time></trkpt><trkpt lat="41.1008883" lon="14.6173567"><ele>936.0</ele><time>2026-04-09T14:00:56.091Z</time></trkpt><trkpt lat="41.1008283" lon="14.6174033"><ele>936.0</ele><time>2026-04-09T14:00:57.091Z</time></trkpt><trkpt lat="41.100755" lon="14.6174433"><ele>936.0</ele><time>2026-04-09T14:00:58.091Z</time></trkpt><trkpt lat="41.1006783" lon="14.617465"><ele>936.0</ele><time>2026-04-09T14:00:59.091Z</time></trkpt><trkpt lat="41.1005917" lon="14.61747"><ele>936.0</ele><time>2026-04-09T14:01:00.091Z</time></trkpt><trkpt lat="41.1005117" lon="14.6174417"><ele>936.0</ele><time>2026-04-09T14:01:01.091Z</time></trkpt><trkpt lat="41.1004367" lon="14.61738"><ele>936.0</ele><time>2026-04-09T14:01:02.091Z</time></trkpt><trkpt lat="41.100375" lon="14.6172867"><ele>936.4</ele><time>2026-04-09T14:01:03.091Z</time></trkpt><trkpt lat="41.100325" lon="14.6171717"><ele>936.8</ele><time>2026-04-09T14:01:04.091Z</time></trkpt><trkpt lat="41.10028" lon="14.6170533"><ele>937.1999999999999</ele><time>2026-04-09T14:01:05.091Z</time></trkpt><trkpt lat="41.1002317" lon="14.6169267"><ele>937.5999999999999</ele><time>2026-04-09T14:01:06.091Z</time></trkpt><trkpt lat="41.100185" lon="14.6167933"><ele>938.0</ele><time>2026-04-09T14:01:07.091Z</time></trkpt><trkpt lat="41.100145" lon="14.6166833"><ele>938.0</ele><time>2026-04-09T14:01:08.091Z</time></trkpt><trkpt lat="41.100105" lon="14.616575"><ele>938.0</ele><time>2026-04-09T14:01:09.091Z</time></trkpt><trkpt lat="41.1000683" lon="14.61646"><ele>938.0</ele><time>2026-04-09T14:01:10.091Z</time></trkpt><trkpt lat="41.1000317" lon="14.6163533"><ele>938.0</ele><time>2026-04-09T14:01:11.091Z</time></trkpt><trkpt lat="41.099995" lon="14.6162383"><ele>938.0</ele><time>2026-04-09T14:01:12.091Z</time></trkpt><trkpt lat="41.099955" lon="14.6161317"><ele>937.1666666666667</ele><time>2026-04-09T14:01:13.091Z</time></trkpt><trkpt lat="41.0999117" lon="14.6160367"><ele>936.3333333333334</ele><time>2026-04-09T14:01:14.091Z</time></trkpt><trkpt lat="41.0998817" lon="14.6159617"><ele>935.5</ele><time>2026-04-09T14:01:15.091Z</time></trkpt><trkpt lat="41.09983" lon="14.6158983"><ele>934.6666666666667</ele><time>2026-04-09T14:01:16.091Z</time></trkpt><trkpt lat="41.0997533" lon="14.6158483"><ele>933.8333333333334</ele><time>2026-04-09T14:01:17.091Z</time></trkpt><trkpt lat="41.0996633" lon="14.6158133"><ele>933.0</ele><time>2026-04-09T14:01:18.091Z</time></trkpt><trkpt lat="41.099575" lon="14.6157933"><ele>933.0</ele><time>2026-04-09T14:01:19.091Z</time></trkpt><trkpt lat="41.0994933" lon="14.6157717"><ele>933.0</ele><time>2026-04-09T14:01:20.091Z</time></trkpt><trkpt lat="41.09941" lon="14.61575"><ele>933.0</ele><time>2026-04-09T14:01:21.091Z</time></trkpt><trkpt lat="41.0993283" lon="14.6157317"><ele>933.0</ele><time>2026-04-09T14:01:22.091Z</time></trkpt><trkpt lat="41.0992483" lon="14.6157133"><ele>933.0</ele><time>2026-04-09T14:01:23.091Z</time></trkpt><trkpt lat="41.0991733" lon="14.6156967"><ele>933.0</ele><time>2026-04-09T14:01:24.091Z</time></trkpt><trkpt lat="41.0991067" lon="14.6156817"><ele>927.1666666666666</ele><time>2026-04-09T14:01:25.091Z</time></trkpt><trkpt lat="41.0990367" lon="14.61569"><ele>921.3333333333333</ele><time>2026-04-09T14:01:26.091Z</time></trkpt><trkpt lat="41.0989683" lon="14.6157317"><ele>915.5</ele><time>2026-04-09T14:01:27.091Z</time></trkpt><trkpt lat="41.0989" lon="14.6158033"><ele>909.6666666666666</ele><time>2026-04-09T14:01:28.091Z</time></trkpt><trkpt lat="41.098835" lon="14.61589"><ele>903.8333333333333</ele><time>2026-04-09T14:01:29.091Z</time></trkpt><trkpt lat="41.0987767" lon="14.6159833"><ele>898.0</ele><time>2026-04-09T14:01:30.091Z</time></trkpt><trkpt lat="41.09872" lon="14.616075"><ele>898.0</ele><time>2026-04-09T14:01:31.091Z</time></trkpt><trkpt lat="41.098685" lon="14.61618"><ele>898.0</ele><time>2026-04-09T14:01:32.091Z</time></trkpt><trkpt lat="41.0986633" lon="14.6162867"><ele>898.0</ele><time>2026-04-09T14:01:33.091Z</time></trkpt><trkpt lat="41.0986667" lon="14.6164067"><ele>898.0</ele><time>2026-04-09T14:01:34.091Z</time></trkpt><trkpt lat="41.0986933" lon="14.6165467"><ele>898.0</ele><time>2026-04-09T14:01:35.091Z</time></trkpt><trkpt lat="41.0987117" lon="14.6167"><ele>898.0</ele><time>2026-04-09T14:01:36.091Z</time></trkpt><trkpt lat="41.0987283" lon="14.6168483"><ele>898.0</ele><time>2026-04-09T14:01:37.091Z</time></trkpt><trkpt lat="41.0987317" lon="14.6169817"><ele>898.0</ele><time>2026-04-09T14:01:38.091Z</time></trkpt><trkpt lat="41.0987433" lon="14.6171033"><ele>898.0</ele><time>2026-04-09T14:01:39.091Z</time></trkpt><trkpt lat="41.0987833" lon="14.6172017"><ele>898.0</ele><time>2026-04-09T14:01:40.091Z</time></trkpt><trkpt lat="41.098855" lon="14.6172833"><ele>895.5999999999999</ele><time>2026-04-09T14:01:41.091Z</time></trkpt><trkpt lat="41.0989433" lon="14.6173517"><ele>893.1999999999999</ele><time>2026-04-09T14:01:42.091Z</time></trkpt><trkpt lat="41.0990333" lon="14.617395"><ele>890.8</ele><time>2026-04-09T14:01:43.091Z</time></trkpt><trkpt lat="41.0991183" lon="14.6174217"><ele>888.4</ele><time>2026-04-09T14:01:44.091Z</time></trkpt><trkpt lat="41.099205" lon="14.6174633"><ele>886.0</ele><time>2026-04-09T14:01:45.091Z</time></trkpt><trkpt lat="41.099285" lon="14.617515"><ele>887.9999999999999</ele><time>2026-04-09T14:01:46.091Z</time></trkpt><trkpt lat="41.0993633" lon="14.617575"><ele>890.0</ele><time>2026-04-09T14:01:47.091Z</time></trkpt><trkpt lat="41.099435" lon="14.6176483"><ele>892.0</ele><time>2026-04-09T14:01:48.091Z</time></trkpt><trkpt lat="41.0995" lon="14.6177167"><ele>894.0</ele><time>2026-04-09T14:01:49.091Z</time></trkpt><trkpt lat="41.0995633" lon="14.6177817"><ele>895.9999999999999</ele><time>2026-04-09T14:01:50.091Z</time></trkpt><trkpt lat="41.0996267" lon="14.6178583"><ele>898.0</ele><time>2026-04-09T14:01:51.091Z</time></trkpt><trkpt lat="41.09969" lon="14.6179317"><ele>897.9999999999999</ele><time>2026-04-09T14:01:52.091Z</time></trkpt><trkpt lat="41.0997567" lon="14.6180017"><ele>898.0</ele><time>2026-04-09T14:01:53.091Z</time></trkpt><trkpt lat="41.0998217" lon="14.6180717"><ele>898.0</ele><time>2026-04-09T14:01:54.091Z</time></trkpt><trkpt lat="41.0998917" lon="14.6181367"><ele>898.0</ele><time>2026-04-09T14:01:55.091Z</time></trkpt><trkpt lat="41.0999633" lon="14.6181983"><ele>897.9999999999999</ele><time>2026-04-09T14:01:56.091Z</time></trkpt><trkpt lat="41.1000383" lon="14.6182517"><ele>898.0</ele><time>2026-04-09T14:01:57.091Z</time></trkpt><trkpt lat="41.10012" lon="14.6183"><ele>900.6666666666666</ele><time>2026-04-09T14:01:58.091Z</time></trkpt><trkpt lat="41.1002083" lon="14.6183317"><ele>903.3333333333333</ele><time>2026-04-09T14:01:59.091Z</time></trkpt><trkpt lat="41.1002983" lon="14.6183683"><ele>906.0</ele><time>2026-04-09T14:02:00.091Z</time></trkpt><trkpt lat="41.100385" lon="14.6184017"><ele>908.6666666666667</ele><time>2026-04-09T14:02:01.091Z</time></trkpt><trkpt lat="41.1004583" lon="14.618445"><ele>911.3333333333334</ele><time>2026-04-09T14:02:02.091Z</time></trkpt><trkpt lat="41.100535" lon="14.6184683"><ele>914.0</ele><time>2026-04-09T14:02:03.091Z</time></trkpt><trkpt lat="41.1006117" lon="14.6184867"><ele>914.0000000000001</ele><time>2026-04-09T14:02:04.091Z</time></trkpt><trkpt lat="41.1006833" lon="14.6185117"><ele>914.0</ele><time>2026-04-09T14:02:05.091Z</time></trkpt><trkpt lat="41.1007483" lon="14.618535"><ele>914.0</ele><time>2026-04-09T14:02:06.091Z</time></trkpt><trkpt lat="41.1008167" lon="14.6185667"><ele>914.0</ele><time>2026-04-09T14:02:07.091Z</time></trkpt><trkpt lat="41.1008883" lon="14.6186267"><ele>914.0000000000001</ele><time>2026-04-09T14:02:08.091Z</time></trkpt><trkpt lat="41.1009583" lon="14.6186967"><ele>914.0</ele><time>2026-04-09T14:02:09.091Z</time></trkpt><trkpt lat="41.1010233" lon="14.6187833"><ele>909.0000000000001</ele><time>2026-04-09T14:02:10.091Z</time></trkpt><trkpt lat="41.101085" lon="14.6188767"><ele>904.0</ele><time>2026-04-09T14:02:11.091Z</time></trkpt><trkpt lat="41.1011433" lon="14.6189517"><ele>899.0</ele><time>2026-04-09T14:02:12.091Z</time></trkpt><trkpt lat="41.1012167" lon="14.619005"><ele>894.0</ele><time>2026-04-09T14:02:13.091Z</time></trkpt><trkpt lat="41.1012933" lon="14.6190333"><ele>889.0000000000001</ele><time>2026-04-09T14:02:14.091Z</time></trkpt><trkpt lat="41.1013767" lon="14.6190483"><ele>884.0</ele><time>2026-04-09T14:02:15.091Z</time></trkpt><trkpt lat="41.1014533" lon="14.61904"><ele>884.0</ele><time>2026-04-09T14:02:16.091Z</time></trkpt><trkpt lat="41.1015217" lon="14.6190183"><ele>884.0000000000001</ele><time>2026-04-09T14:02:17.091Z</time></trkpt><trkpt lat="41.1015933" lon="14.6190017"><ele>884.0000000000001</ele><time>2026-04-09T14:02:18.091Z</time></trkpt><trkpt lat="41.1016667" lon="14.61898"><ele>884.0</ele><time>2026-04-09T14:02:19.091Z</time></trkpt><trkpt lat="41.101765" lon="14.6188817"><ele>884.0</ele><time>2026-04-09T14:02:21.091Z</time></trkpt><trkpt lat="41.10179" lon="14.6187317"><ele>886.8333333333334</ele><time>2026-04-09T14:02:23.091Z</time></trkpt><trkpt lat="41.1017917" lon="14.61864"><ele>889.6666666666667</ele><time>2026-04-09T14:02:24.091Z</time></trkpt><trkpt lat="41.101795" lon="14.6185483"><ele>892.5</ele><time>2026-04-09T14:02:25.091Z</time></trkpt><trkpt lat="41.101845" lon="14.6184117"><ele>895.3333333333333</ele><time>2026-04-09T14:02:27.091Z</time></trkpt><trkpt lat="41.1019583" lon="14.6183733"><ele>898.1666666666666</ele><time>2026-04-09T14:02:29.091Z</time></trkpt><trkpt lat="41.102025" lon="14.6183933"><ele>901.0</ele><time>2026-04-09T14:02:30.091Z</time></trkpt><trkpt lat="41.1020867" lon="14.61843"><ele>900.9999999999999</ele><time>2026-04-09T14:02:31.091Z</time></trkpt><trkpt lat="41.1021467" lon="14.6184617"><ele>901.0</ele><time>2026-04-09T14:02:32.091Z</time></trkpt><trkpt lat="41.10222" lon="14.6184783"><ele>901.0</ele><time>2026-04-09T14:02:33.091Z</time></trkpt><trkpt lat="41.1023017" lon="14.6184567"><ele>901.0</ele><time>2026-04-09T14:02:34.091Z</time></trkpt><trkpt lat="41.102385" lon="14.6183983"><ele>900.9999999999999</ele><time>2026-04-09T14:02:35.091Z</time></trkpt><trkpt lat="41.10248" lon="14.61832"><ele>901.0</ele><time>2026-04-09T14:02:36.091Z</time></trkpt><trkpt lat="41.1025633" lon="14.6182483"><ele>898.8</ele><time>2026-04-09T14:02:37.091Z</time></trkpt><trkpt lat="41.1026417" lon="14.6181767"><ele>896.5999999999999</ele><time>2026-04-09T14:02:38.091Z</time></trkpt><trkpt lat="41.10272" lon="14.6181217"><ele>894.4</ele><time>2026-04-09T14:02:39.091Z</time></trkpt><trkpt lat="41.102795" lon="14.618065"><ele>892.2</ele><time>2026-04-09T14:02:40.091Z</time></trkpt><trkpt lat="41.1029167" lon="14.61796"><ele>890.0</ele><time>2026-04-09T14:02:42.091Z</time></trkpt><trkpt lat="41.1029917" lon="14.6178933"><ele>889.8333333333334</ele><time>2026-04-09T14:02:43.091Z</time></trkpt><trkpt lat="41.103065" lon="14.6178117"><ele>889.6666666666667</ele><time>2026-04-09T14:02:44.091Z</time></trkpt><trkpt lat="41.10314" lon="14.6177583"><ele>889.5</ele><time>2026-04-09T14:02:45.091Z</time></trkpt><trkpt lat="41.10321" lon="14.6177133"><ele>889.3333333333333</ele><time>2026-04-09T14:02:46.091Z</time></trkpt><trkpt lat="41.10329" lon="14.6176817"><ele>889.1666666666666</ele><time>2026-04-09T14:02:47.091Z</time></trkpt><trkpt lat="41.103375" lon="14.6176733"><ele>889.0</ele><time>2026-04-09T14:02:48.091Z</time></trkpt><trkpt lat="41.1034583" lon="14.6176683"><ele>888.9999999999999</ele><time>2026-04-09T14:02:49.091Z</time></trkpt><trkpt lat="41.1035417" lon="14.6176667"><ele>889.0</ele><time>2026-04-09T14:02:50.091Z</time></trkpt><trkpt lat="41.10363" lon="14.61766"><ele>889.0</ele><time>2026-04-09T14:02:51.091Z</time></trkpt><trkpt lat="41.103715" lon="14.6176617"><ele>889.0</ele><time>2026-04-09T14:02:52.091Z</time></trkpt><trkpt lat="41.1038017" lon="14.617675"><ele>888.9999999999999</ele><time>2026-04-09T14:02:53.091Z</time></trkpt><trkpt lat="41.1038867" lon="14.6176883"><ele>889.0</ele><time>2026-04-09T14:02:54.091Z</time></trkpt><trkpt lat="41.1039733" lon="14.617695"><ele>888.9999999999999</ele><time>2026-04-09T14:02:55.091Z</time></trkpt><trkpt lat="41.1040567" lon="14.6176817"><ele>889.0</ele><time>2026-04-09T14:02:56.091Z</time></trkpt><trkpt lat="41.1041233" lon="14.6176667"><ele>889.0</ele><time>2026-04-09T14:02:57.091Z</time></trkpt><trkpt lat="41.1042367" lon="14.617655"><ele>889.0</ele><time>2026-04-09T14:02:59.091Z</time></trkpt><trkpt lat="41.10433" lon="14.6177"><ele>888.9999999999999</ele><time>2026-04-09T14:03:01.091Z</time></trkpt><trkpt lat="41.1043533" lon="14.6177783"><ele>889.0</ele><time>2026-04-09T14:03:02.091Z</time></trkpt><trkpt lat="41.1043583" lon="14.6178717"><ele>884.3333333333333</ele><time>2026-04-09T14:03:03.091Z</time></trkpt><trkpt lat="41.104335" lon="14.617955"><ele>879.6666666666666</ele><time>2026-04-09T14:03:04.091Z</time></trkpt><trkpt lat="41.1042817" lon="14.618025"><ele>875.0</ele><time>2026-04-09T14:03:05.091Z</time></trkpt><trkpt lat="41.1042" lon="14.618075"><ele>870.3333333333333</ele><time>2026-04-09T14:03:06.091Z</time></trkpt><trkpt lat="41.104105" lon="14.618085"><ele>865.6666666666666</ele><time>2026-04-09T14:03:07.091Z</time></trkpt><trkpt lat="41.10401" lon="14.6180767"><ele>861.0</ele><time>2026-04-09T14:03:08.091Z</time></trkpt><trkpt lat="41.1039233" lon="14.6180617"><ele>861.0</ele><time>2026-04-09T14:03:09.091Z</time></trkpt><trkpt lat="41.1038417" lon="14.6180483"><ele>861.0</ele><time>2026-04-09T14:03:10.091Z</time></trkpt><trkpt lat="41.1037683" lon="14.6180567"><ele>861.0</ele><time>2026-04-09T14:03:11.091Z</time></trkpt><trkpt lat="41.1036983" lon="14.618095"><ele>861.0</ele><time>2026-04-09T14:03:12.091Z</time></trkpt><trkpt lat="41.103635" lon="14.6181533"><ele>861.0</ele><time>2026-04-09T14:03:13.091Z</time></trkpt><trkpt lat="41.10358" lon="14.6182183"><ele>861.0</ele><time>2026-04-09T14:03:14.091Z</time></trkpt><trkpt lat="41.10353" lon="14.6182983"><ele>861.0</ele><time>2026-04-09T14:03:15.091Z</time></trkpt><trkpt lat="41.1034933" lon="14.6183833"><ele>861.0</ele><time>2026-04-09T14:03:16.091Z</time></trkpt><trkpt lat="41.1034767" lon="14.6184767"><ele>861.0</ele><time>2026-04-09T14:03:17.091Z</time></trkpt><trkpt lat="41.1034883" lon="14.6185667"><ele>861.0</ele><time>2026-04-09T14:03:18.091Z</time></trkpt><trkpt lat="41.10351" lon="14.6186733"><ele>861.0</ele><time>2026-04-09T14:03:19.091Z</time></trkpt><trkpt lat="41.1035267" lon="14.6187867"><ele>861.0</ele><time>2026-04-09T14:03:20.091Z</time></trkpt><trkpt lat="41.1035283" lon="14.6189033"><ele>861.5999999999999</ele><time>2026-04-09T14:03:21.091Z</time></trkpt><trkpt lat="41.1035117" lon="14.619025"><ele>862.1999999999999</ele><time>2026-04-09T14:03:22.091Z</time></trkpt><trkpt lat="41.1034717" lon="14.619105"><ele>862.8000000000001</ele><time>2026-04-09T14:03:23.091Z</time></trkpt><trkpt lat="41.1034" lon="14.6191783"><ele>863.4000000000001</ele><time>2026-04-09T14:03:24.091Z</time></trkpt><trkpt lat="41.1032933" lon="14.6192"><ele>864.0</ele><time>2026-04-09T14:03:25.091Z</time></trkpt><trkpt lat="41.1032033" lon="14.619205"><ele>864.0</ele><time>2026-04-09T14:03:26.091Z</time></trkpt><trkpt lat="41.1031283" lon="14.6191917"><ele>864.0000000000001</ele><time>2026-04-09T14:03:27.091Z</time></trkpt><trkpt lat="41.1030567" lon="14.61918"><ele>864.0000000000001</ele><time>2026-04-09T14:03:28.091Z</time></trkpt><trkpt lat="41.1029383" lon="14.619175"><ele>864.0</ele><time>2026-04-09T14:03:30.091Z</time></trkpt><trkpt lat="41.102845" lon="14.6191883"><ele>864.0</ele><time>2026-04-09T14:03:32.091Z</time></trkpt><trkpt lat="41.102755" lon="14.6192883"><ele>864.0</ele><time>2026-04-09T14:03:34.091Z</time></trkpt><trkpt lat="41.1027283" lon="14.619365"><ele>864.0000000000001</ele><time>2026-04-09T14:03:35.091Z</time></trkpt><trkpt lat="41.1027233" lon="14.6195233"><ele>864.0000000000001</ele><time>2026-04-09T14:03:37.091Z</time></trkpt><trkpt lat="41.1028033" lon="14.619635"><ele>864.0</ele><time>2026-04-09T14:03:39.091Z</time></trkpt><trkpt lat="41.10289" lon="14.6196367"><ele>864.0</ele><time>2026-04-09T14:03:40.091Z</time></trkpt><trkpt lat="41.1029767" lon="14.6196433"><ele>859.4000000000001</ele><time>2026-04-09T14:03:41.091Z</time></trkpt><trkpt lat="41.1030533" lon="14.6196517"><ele>854.8000000000001</ele><time>2026-04-09T14:03:42.091Z</time></trkpt><trkpt lat="41.1031233" lon="14.6196717"><ele>850.2</ele><time>2026-04-09T14:03:43.091Z</time></trkpt><trkpt lat="41.1032433" lon="14.6196983"><ele>845.5999999999999</ele><time>2026-04-09T14:03:45.091Z</time></trkpt><trkpt lat="41.1033483" lon="14.6197617"><ele>841.0</ele><time>2026-04-09T14:03:47.091Z</time></trkpt><trkpt lat="41.1034233" lon="14.619905"><ele>839.7142857142858</ele><time>2026-04-09T14:03:49.091Z</time></trkpt><trkpt lat="41.1034533" lon="14.6200067"><ele>838.4285714285713</ele><time>2026-04-09T14:03:50.091Z</time></trkpt><trkpt lat="41.10348" lon="14.6201067"><ele>837.1428571428571</ele><time>2026-04-09T14:03:51.091Z</time></trkpt><trkpt lat="41.1034867" lon="14.6202067"><ele>835.8571428571429</ele><time>2026-04-09T14:03:52.091Z</time></trkpt><trkpt lat="41.103495" lon="14.6203017"><ele>834.5714285714287</ele><time>2026-04-09T14:03:53.091Z</time></trkpt><trkpt lat="41.103495" lon="14.620395"><ele>833.2857142857142</ele><time>2026-04-09T14:03:54.091Z</time></trkpt><trkpt lat="41.1034983" lon="14.6204867"><ele>832.0</ele><time>2026-04-09T14:03:55.091Z</time></trkpt><trkpt lat="41.1034867" lon="14.62057"><ele>830.0</ele><time>2026-04-09T14:03:56.091Z</time></trkpt><trkpt lat="41.10343" lon="14.6207183"><ele>828.0</ele><time>2026-04-09T14:03:58.091Z</time></trkpt><trkpt lat="41.10336" lon="14.620775"><ele>826.0</ele><time>2026-04-09T14:03:59.091Z</time></trkpt><trkpt lat="41.10327" lon="14.6208183"><ele>824.0</ele><time>2026-04-09T14:04:00.091Z</time></trkpt><trkpt lat="41.1031767" lon="14.62085"><ele>822.0</ele><time>2026-04-09T14:04:01.091Z</time></trkpt><trkpt lat="41.1030867" lon="14.62088"><ele>822.0</ele><time>2026-04-09T14:04:02.091Z</time></trkpt><trkpt lat="41.103005" lon="14.6208967"><ele>822.0</ele><time>2026-04-09T14:04:03.091Z</time></trkpt><trkpt lat="41.1029233" lon="14.620915"><ele>822.0</ele><time>2026-04-09T14:04:04.091Z</time></trkpt><trkpt lat="41.1028517" lon="14.6209483"><ele>822.0</ele><time>2026-04-09T14:04:05.091Z</time></trkpt><trkpt lat="41.1027867" lon="14.620995"><ele>822.0</ele><time>2026-04-09T14:04:06.091Z</time></trkpt><trkpt lat="41.1027283" lon="14.621055"><ele>822.0</ele><time>2026-04-09T14:04:07.091Z</time></trkpt><trkpt lat="41.102665" lon="14.6211867"><ele>817.8</ele><time>2026-04-09T14:04:09.091Z</time></trkpt><trkpt lat="41.10266" lon="14.6213283"><ele>813.6</ele><time>2026-04-09T14:04:11.091Z</time></trkpt><trkpt lat="41.1027417" lon="14.6214767"><ele>809.4</ele><time>2026-04-09T14:04:13.091Z</time></trkpt><trkpt lat="41.1028067" lon="14.6215167"><ele>805.1999999999999</ele><time>2026-04-09T14:04:14.091Z</time></trkpt><trkpt lat="41.1028783" lon="14.6215283"><ele>801.0</ele><time>2026-04-09T14:04:15.091Z</time></trkpt><trkpt lat="41.1029683" lon="14.6215167"><ele>801.0</ele><time>2026-04-09T14:04:16.091Z</time></trkpt><trkpt lat="41.1030567" lon="14.6214933"><ele>801.0</ele><time>2026-04-09T14:04:17.091Z</time></trkpt><trkpt lat="41.10315" lon="14.6214667"><ele>801.0</ele><time>2026-04-09T14:04:18.091Z</time></trkpt><trkpt lat="41.1032517" lon="14.6214467"><ele>801.0</ele><time>2026-04-09T14:04:19.091Z</time></trkpt><trkpt lat="41.103345" lon="14.6214483"><ele>801.0</ele><time>2026-04-09T14:04:20.091Z</time></trkpt><trkpt lat="41.10343" lon="14.6214483"><ele>800.5</ele><time>2026-04-09T14:04:21.091Z</time></trkpt><trkpt lat="41.10351" lon="14.6214733"><ele>800.0</ele><time>2026-04-09T14:04:22.091Z</time></trkpt><trkpt lat="41.1035867" lon="14.6215133"><ele>799.5</ele><time>2026-04-09T14:04:23.091Z</time></trkpt><trkpt lat="41.1036533" lon="14.62157"><ele>799.0</ele><time>2026-04-09T14:04:24.091Z</time></trkpt><trkpt lat="41.1037083" lon="14.6216483"><ele>798.5</ele><time>2026-04-09T14:04:25.091Z</time></trkpt><trkpt lat="41.10375" lon="14.6217483"><ele>798.0</ele><time>2026-04-09T14:04:26.091Z</time></trkpt><trkpt lat="41.1037633" lon="14.621855"><ele>798.0</ele><time>2026-04-09T14:04:27.091Z</time></trkpt><trkpt lat="41.1037633" lon="14.6219733"><ele>798.0</ele><time>2026-04-09T14:04:28.091Z</time></trkpt><trkpt lat="41.10375" lon="14.622095"><ele>798.0</ele><time>2026-04-09T14:04:29.091Z</time></trkpt><trkpt lat="41.1037283" lon="14.622215"><ele>798.0</ele><time>2026-04-09T14:04:30.091Z</time></trkpt><trkpt lat="41.1037017" lon="14.6223267"><ele>798.0</ele><time>2026-04-09T14:04:31.091Z</time></trkpt><trkpt lat="41.10368" lon="14.6224367"><ele>798.0</ele><time>2026-04-09T14:04:32.091Z</time></trkpt><trkpt lat="41.103655" lon="14.622545"><ele>796.1666666666666</ele><time>2026-04-09T14:04:33.091Z</time></trkpt><trkpt lat="41.1036217" lon="14.622655"><ele>794.3333333333333</ele><time>2026-04-09T14:04:34.091Z</time></trkpt><trkpt lat="41.1035833" lon="14.6227533"><ele>792.5</ele><time>2026-04-09T14:04:35.091Z</time></trkpt><trkpt lat="41.103525" lon="14.62284"><ele>790.6666666666666</ele><time>2026-04-09T14:04:36.091Z</time></trkpt><trkpt lat="41.1034567" lon="14.6229083"><ele>788.8333333333333</ele><time>2026-04-09T14:04:37.091Z</time></trkpt><trkpt lat="41.1033867" lon="14.6229567"><ele>787.0</ele><time>2026-04-09T14:04:38.091Z</time></trkpt><trkpt lat="41.10332" lon="14.6230017"><ele>784.9999999999999</ele><time>2026-04-09T14:04:39.091Z</time></trkpt><trkpt lat="41.1032483" lon="14.6230433"><ele>783.0</ele><time>2026-04-09T14:04:40.091Z</time></trkpt><trkpt lat="41.1031683" lon="14.6230767"><ele>781.0</ele><time>2026-04-09T14:04:41.091Z</time></trkpt><trkpt lat="41.10309" lon="14.6231067"><ele>779.0</ele><time>2026-04-09T14:04:42.091Z</time></trkpt><trkpt lat="41.1030117" lon="14.6231467"><ele>776.9999999999999</ele><time>2026-04-09T14:04:43.091Z</time></trkpt><trkpt lat="41.1029417" lon="14.6232067"><ele>775.0</ele><time>2026-04-09T14:04:44.091Z</time></trkpt><trkpt lat="41.10288" lon="14.6232733"><ele>774.6666666666666</ele><time>2026-04-09T14:04:45.091Z</time></trkpt><trkpt lat="41.1028317" lon="14.6233533"><ele>774.3333333333333</ele><time>2026-04-09T14:04:46.091Z</time></trkpt><trkpt lat="41.102805" lon="14.6234533"><ele>774.0</ele><time>2026-04-09T14:04:47.091Z</time></trkpt><trkpt lat="41.1027933" lon="14.62357"><ele>773.6666666666667</ele><time>2026-04-09T14:04:48.091Z</time></trkpt><trkpt lat="41.102795" lon="14.6236967"><ele>773.3333333333334</ele><time>2026-04-09T14:04:49.091Z</time></trkpt><trkpt lat="41.102815" lon="14.6238333"><ele>773.0</ele><time>2026-04-09T14:04:50.091Z</time></trkpt><trkpt lat="41.1028383" lon="14.623965"><ele>770.8</ele><time>2026-04-09T14:04:51.091Z</time></trkpt><trkpt lat="41.1028667" lon="14.6240917"><ele>768.5999999999999</ele><time>2026-04-09T14:04:52.091Z</time></trkpt><trkpt lat="41.102895" lon="14.6242167"><ele>766.4000000000001</ele><time>2026-04-09T14:04:53.091Z</time></trkpt><trkpt lat="41.1029217" lon="14.62434"><ele>764.2</ele><time>2026-04-09T14:04:54.091Z</time></trkpt><trkpt lat="41.1029517" lon="14.6244617"><ele>762.0</ele><time>2026-04-09T14:04:55.091Z</time></trkpt><trkpt lat="41.1029817" lon="14.6245867"><ele>760.4000000000001</ele><time>2026-04-09T14:04:56.091Z</time></trkpt><trkpt lat="41.1030117" lon="14.6247167"><ele>758.8000000000001</ele><time>2026-04-09T14:04:57.091Z</time></trkpt><trkpt lat="41.103035" lon="14.6248367"><ele>757.2</ele><time>2026-04-09T14:04:58.091Z</time></trkpt><trkpt lat="41.1030583" lon="14.6249533"><ele>755.6</ele><time>2026-04-09T14:04:59.091Z</time></trkpt><trkpt lat="41.1030817" lon="14.6250767"><ele>754.0</ele><time>2026-04-09T14:05:00.091Z</time></trkpt><trkpt lat="41.10311" lon="14.6251933"><ele>754.0</ele><time>2026-04-09T14:05:01.091Z</time></trkpt><trkpt lat="41.1031367" lon="14.6253067"><ele>754.0</ele><time>2026-04-09T14:05:02.091Z</time></trkpt><trkpt lat="41.1031633" lon="14.6254033"><ele>754.0</ele><time>2026-04-09T14:05:03.091Z</time></trkpt><trkpt lat="41.10318" lon="14.6254933"><ele>754.0</ele><time>2026-04-09T14:05:04.091Z</time></trkpt><trkpt lat="41.1031917" lon="14.6255767"><ele>754.0</ele><time>2026-04-09T14:05:05.091Z</time></trkpt><trkpt lat="41.1031967" lon="14.6256767"><ele>754.0</ele><time>2026-04-09T14:05:06.091Z</time></trkpt><trkpt lat="41.103195" lon="14.62578"><ele>753.8333333333334</ele><time>2026-04-09T14:05:07.091Z</time></trkpt><trkpt lat="41.10319" lon="14.6258817"><ele>753.6666666666667</ele><time>2026-04-09T14:05:08.091Z</time></trkpt><trkpt lat="41.1031833" lon="14.6259817"><ele>753.5</ele><time>2026-04-09T14:05:09.091Z</time></trkpt><trkpt lat="41.1031683" lon="14.6260917"><ele>753.3333333333334</ele><time>2026-04-09T14:05:10.091Z</time></trkpt><trkpt lat="41.10315" lon="14.62621"><ele>753.1666666666666</ele><time>2026-04-09T14:05:11.091Z</time></trkpt><trkpt lat="41.1031217" lon="14.6263333"><ele>753.0</ele><time>2026-04-09T14:05:12.091Z</time></trkpt><trkpt lat="41.1030883" lon="14.626455"><ele>752.5714285714286</ele><time>2026-04-09T14:05:13.091Z</time></trkpt><trkpt lat="41.1030533" lon="14.62656"><ele>752.1428571428571</ele><time>2026-04-09T14:05:14.091Z</time></trkpt><trkpt lat="41.1030267" lon="14.626655"><ele>751.7142857142858</ele><time>2026-04-09T14:05:15.091Z</time></trkpt><trkpt lat="41.1029967" lon="14.62674"><ele>751.2857142857142</ele><time>2026-04-09T14:05:16.091Z</time></trkpt><trkpt lat="41.1029633" lon="14.62682"><ele>750.8571428571428</ele><time>2026-04-09T14:05:17.091Z</time></trkpt><trkpt lat="41.10292" lon="14.6268817"><ele>750.4285714285714</ele><time>2026-04-09T14:05:18.091Z</time></trkpt><trkpt lat="41.10286" lon="14.6269217"><ele>750.0</ele><time>2026-04-09T14:05:19.091Z</time></trkpt><trkpt lat="41.1027883" lon="14.6269383"><ele>750.0</ele><time>2026-04-09T14:05:20.091Z</time></trkpt><trkpt lat="41.1026967" lon="14.62693"><ele>750.0</ele><time>2026-04-09T14:05:21.092Z</time></trkpt><trkpt lat="41.1025983" lon="14.6268967"><ele>750.0</ele><time>2026-04-09T14:05:22.092Z</time></trkpt><trkpt lat="41.1025" lon="14.626835"><ele>750.0</ele><time>2026-04-09T14:05:23.092Z</time></trkpt><trkpt lat="41.10241" lon="14.6267733"><ele>750.0</ele><time>2026-04-09T14:05:24.092Z</time></trkpt><trkpt lat="41.1023167" lon="14.6267"><ele>747.2</ele><time>2026-04-09T14:05:25.092Z</time></trkpt><trkpt lat="41.1022383" lon="14.6266233"><ele>744.4</ele><time>2026-04-09T14:05:26.092Z</time></trkpt><trkpt lat="41.1021733" lon="14.6265433"><ele>741.5999999999999</ele><time>2026-04-09T14:05:27.092Z</time></trkpt><trkpt lat="41.1021183" lon="14.62645"><ele>738.8</ele><time>2026-04-09T14:05:28.092Z</time></trkpt><trkpt lat="41.1020767" lon="14.62635"><ele>736.0</ele><time>2026-04-09T14:05:29.092Z</time></trkpt><trkpt lat="41.1020417" lon="14.62624"><ele>736.1666666666667</ele><time>2026-04-09T14:05:30.092Z</time></trkpt><trkpt lat="41.10202" lon="14.626135"><ele>736.3333333333334</ele><time>2026-04-09T14:05:31.092Z</time></trkpt><trkpt lat="41.1019967" lon="14.626025"><ele>736.5</ele><time>2026-04-09T14:05:32.092Z</time></trkpt><trkpt lat="41.1019667" lon="14.6259267"><ele>736.6666666666666</ele><time>2026-04-09T14:05:33.092Z</time></trkpt><trkpt lat="41.1019333" lon="14.62584"><ele>736.8333333333333</ele><time>2026-04-09T14:05:34.092Z</time></trkpt><trkpt lat="41.101895" lon="14.62577"><ele>737.0</ele><time>2026-04-09T14:05:35.092Z</time></trkpt><trkpt lat="41.1018417" lon="14.6257167"><ele>737.0</ele><time>2026-04-09T14:05:36.092Z</time></trkpt><trkpt lat="41.1017233" lon="14.6257217"><ele>737.0</ele><time>2026-04-09T14:05:38.092Z</time></trkpt><trkpt lat="41.10167" lon="14.6257833"><ele>737.0</ele><time>2026-04-09T14:05:39.092Z</time></trkpt><trkpt lat="41.101635" lon="14.625875"><ele>737.0</ele><time>2026-04-09T14:05:40.092Z</time></trkpt><trkpt lat="41.1016267" lon="14.6259917"><ele>737.0</ele><time>2026-04-09T14:05:41.092Z</time></trkpt><trkpt lat="41.1016267" lon="14.6261317"><ele>736.75</ele><time>2026-04-09T14:05:42.092Z</time></trkpt><trkpt lat="41.1016233" lon="14.626295"><ele>736.5</ele><time>2026-04-09T14:05:43.092Z</time></trkpt><trkpt lat="41.10161" lon="14.62645"><ele>736.25</ele><time>2026-04-09T14:05:44.092Z</time></trkpt><trkpt lat="41.10159" lon="14.6266"><ele>736.0</ele><time>2026-04-09T14:05:45.092Z</time></trkpt><trkpt lat="41.10157" lon="14.626755"><ele>732.4</ele><time>2026-04-09T14:05:46.092Z</time></trkpt><trkpt lat="41.1015467" lon="14.6269083"><ele>728.8</ele><time>2026-04-09T14:05:47.092Z</time></trkpt><trkpt lat="41.1015167" lon="14.6270467"><ele>725.1999999999999</ele><time>2026-04-09T14:05:48.092Z</time></trkpt><trkpt lat="41.1014833" lon="14.627165"><ele>721.5999999999999</ele><time>2026-04-09T14:05:49.092Z</time></trkpt><trkpt lat="41.101445" lon="14.6272683"><ele>718.0</ele><time>2026-04-09T14:05:50.092Z</time></trkpt><trkpt lat="41.1014117" lon="14.6273517"><ele>717.6666666666667</ele><time>2026-04-09T14:05:51.092Z</time></trkpt><trkpt lat="41.1013767" lon="14.627435"><ele>717.3333333333334</ele><time>2026-04-09T14:05:52.092Z</time></trkpt><trkpt lat="41.10136" lon="14.6275317"><ele>717.0</ele><time>2026-04-09T14:05:53.092Z</time></trkpt><trkpt lat="41.1013683" lon="14.62763"><ele>716.6666666666666</ele><time>2026-04-09T14:05:54.092Z</time></trkpt><trkpt lat="41.1014083" lon="14.6277267"><ele>716.3333333333333</ele><time>2026-04-09T14:05:55.092Z</time></trkpt><trkpt lat="41.1014767" lon="14.627795"><ele>716.0</ele><time>2026-04-09T14:05:56.092Z</time></trkpt><trkpt lat="41.1015583" lon="14.627845"><ele>717.0</ele><time>2026-04-09T14:05:57.092Z</time></trkpt><trkpt lat="41.1016467" lon="14.62788"><ele>718.0</ele><time>2026-04-09T14:05:58.092Z</time></trkpt><trkpt lat="41.1017317" lon="14.6279233"><ele>719.0</ele><time>2026-04-09T14:05:59.092Z</time></trkpt><trkpt lat="41.1018" lon="14.6279883"><ele>720.0</ele><time>2026-04-09T14:06:00.092Z</time></trkpt><trkpt lat="41.1018517" lon="14.628095"><ele>721.0</ele><time>2026-04-09T14:06:01.092Z</time></trkpt><trkpt lat="41.1018767" lon="14.6282267"><ele>721.0</ele><time>2026-04-09T14:06:02.092Z</time></trkpt><trkpt lat="41.1018767" lon="14.62839"><ele>721.0</ele><time>2026-04-09T14:06:03.092Z</time></trkpt><trkpt lat="41.1018667" lon="14.62856"><ele>721.0</ele><time>2026-04-09T14:06:04.092Z</time></trkpt><trkpt lat="41.1018433" lon="14.62872"><ele>721.0</ele><time>2026-04-09T14:06:05.092Z</time></trkpt><trkpt lat="41.1018183" lon="14.6288783"><ele>719.5999999999999</ele><time>2026-04-09T14:06:06.092Z</time></trkpt><trkpt lat="41.1017917" lon="14.62903"><ele>718.2</ele><time>2026-04-09T14:06:07.092Z</time></trkpt><trkpt lat="41.1017717" lon="14.62918"><ele>716.8</ele><time>2026-04-09T14:06:08.092Z</time></trkpt><trkpt lat="41.1017667" lon="14.6293317"><ele>715.4000000000001</ele><time>2026-04-09T14:06:09.092Z</time></trkpt><trkpt lat="41.1017683" lon="14.629465"><ele>714.0</ele><time>2026-04-09T14:06:10.092Z</time></trkpt><trkpt lat="41.10177" lon="14.6295867"><ele>713.4000000000001</ele><time>2026-04-09T14:06:11.092Z</time></trkpt><trkpt lat="41.1017467" lon="14.6297183"><ele>712.8</ele><time>2026-04-09T14:06:12.092Z</time></trkpt><trkpt lat="41.1017017" lon="14.6298433"><ele>712.2</ele><time>2026-04-09T14:06:13.092Z</time></trkpt><trkpt lat="41.1016433" lon="14.6299617"><ele>711.5999999999999</ele><time>2026-04-09T14:06:14.092Z</time></trkpt><trkpt lat="41.1015883" lon="14.630075"><ele>711.0</ele><time>2026-04-09T14:06:15.092Z</time></trkpt><trkpt lat="41.101545" lon="14.630175"><ele>709.5999999999999</ele><time>2026-04-09T14:06:16.092Z</time></trkpt><trkpt lat="41.1015233" lon="14.63028"><ele>708.2</ele><time>2026-04-09T14:06:17.092Z</time></trkpt><trkpt lat="41.1015283" lon="14.6303867"><ele>706.8</ele><time>2026-04-09T14:06:18.092Z</time></trkpt><trkpt lat="41.10156" lon="14.630505"><ele>705.4000000000001</ele><time>2026-04-09T14:06:19.092Z</time></trkpt><trkpt lat="41.10162" lon="14.630615"><ele>704.0</ele><time>2026-04-09T14:06:20.092Z</time></trkpt><trkpt lat="41.1016983" lon="14.630725"><ele>704.0</ele><time>2026-04-09T14:06:21.092Z</time></trkpt><trkpt lat="41.1017883" lon="14.630835"><ele>704.0</ele><time>2026-04-09T14:06:22.092Z</time></trkpt><trkpt lat="41.1018817" lon="14.63093"><ele>704.0</ele><time>2026-04-09T14:06:23.092Z</time></trkpt><trkpt lat="41.101975" lon="14.63102"><ele>704.0</ele><time>2026-04-09T14:06:24.092Z</time></trkpt><trkpt lat="41.1020567" lon="14.6311133"><ele>701.2</ele><time>2026-04-09T14:06:25.092Z</time></trkpt><trkpt lat="41.102135" lon="14.6312"><ele>698.4000000000001</ele><time>2026-04-09T14:06:26.092Z</time></trkpt><trkpt lat="41.1021933" lon="14.6313"><ele>695.6</ele><time>2026-04-09T14:06:27.092Z</time></trkpt><trkpt lat="41.102235" lon="14.63141"><ele>692.8</ele><time>2026-04-09T14:06:28.092Z</time></trkpt><trkpt lat="41.102265" lon="14.6315367"><ele>690.0</ele><time>2026-04-09T14:06:29.092Z</time></trkpt><trkpt lat="41.102285" lon="14.63168"><ele>690.0</ele><time>2026-04-09T14:06:30.092Z</time></trkpt><trkpt lat="41.1022983" lon="14.6318183"><ele>690.0</ele><time>2026-04-09T14:06:31.092Z</time></trkpt><trkpt lat="41.1022917" lon="14.6319467"><ele>690.0</ele><time>2026-04-09T14:06:32.092Z</time></trkpt><trkpt lat="41.1022717" lon="14.6320767"><ele>690.0</ele><time>2026-04-09T14:06:33.092Z</time></trkpt><trkpt lat="41.1022333" lon="14.63219"><ele>690.0</ele><time>2026-04-09T14:06:34.092Z</time></trkpt><trkpt lat="41.1021717" lon="14.6322883"><ele>690.0</ele><time>2026-04-09T14:06:35.092Z</time></trkpt><trkpt lat="41.1020883" lon="14.63238"><ele>690.0</ele><time>2026-04-09T14:06:36.092Z</time></trkpt><trkpt lat="41.102015" lon="14.632475"><ele>690.0</ele><time>2026-04-09T14:06:37.092Z</time></trkpt><trkpt lat="41.1019567" lon="14.6325883"><ele>690.0</ele><time>2026-04-09T14:06:38.092Z</time></trkpt><trkpt lat="41.1019167" lon="14.632735"><ele>690.0</ele><time>2026-04-09T14:06:39.092Z</time></trkpt><trkpt lat="41.1018833" lon="14.63288"><ele>689.8</ele><time>2026-04-09T14:06:40.092Z</time></trkpt><trkpt lat="41.1018533" lon="14.6330267"><ele>689.6</ele><time>2026-04-09T14:06:41.092Z</time></trkpt><trkpt lat="41.1018267" lon="14.633165"><ele>689.4000000000001</ele><time>2026-04-09T14:06:42.092Z</time></trkpt><trkpt lat="41.101785" lon="14.6332917"><ele>689.2</ele><time>2026-04-09T14:06:43.092Z</time></trkpt><trkpt lat="41.1017483" lon="14.6334217"><ele>689.0</ele><time>2026-04-09T14:06:44.092Z</time></trkpt><trkpt lat="41.1017183" lon="14.6335367"><ele>687.1666666666666</ele><time>2026-04-09T14:06:45.092Z</time></trkpt><trkpt lat="41.1016983" lon="14.6336417"><ele>685.3333333333333</ele><time>2026-04-09T14:06:46.092Z</time></trkpt><trkpt lat="41.1016867" lon="14.6337483"><ele>683.5</ele><time>2026-04-09T14:06:47.092Z</time></trkpt><trkpt lat="41.1016883" lon="14.6338483"><ele>681.6666666666666</ele><time>2026-04-09T14:06:48.092Z</time></trkpt><trkpt lat="41.1017083" lon="14.6339433"><ele>679.8333333333334</ele><time>2026-04-09T14:06:49.092Z</time></trkpt><trkpt lat="41.1017517" lon="14.634035"><ele>678.0</ele><time>2026-04-09T14:06:50.092Z</time></trkpt><trkpt lat="41.101815" lon="14.63411"><ele>678.0</ele><time>2026-04-09T14:06:51.092Z</time></trkpt><trkpt lat="41.10189" lon="14.63416"><ele>678.0</ele><time>2026-04-09T14:06:52.092Z</time></trkpt><trkpt lat="41.10198" lon="14.6342183"><ele>678.0</ele><time>2026-04-09T14:06:53.092Z</time></trkpt><trkpt lat="41.1020717" lon="14.634275"><ele>678.0</ele><time>2026-04-09T14:06:54.092Z</time></trkpt><trkpt lat="41.1021633" lon="14.6343283"><ele>678.0</ele><time>2026-04-09T14:06:55.092Z</time></trkpt><trkpt lat="41.10226" lon="14.6343817"><ele>678.0</ele><time>2026-04-09T14:06:56.092Z</time></trkpt><trkpt lat="41.1023533" lon="14.6344433"><ele>678.0</ele><time>2026-04-09T14:06:57.092Z</time></trkpt><trkpt lat="41.1024517" lon="14.6345067"><ele>678.0</ele><time>2026-04-09T14:06:58.092Z</time></trkpt><trkpt lat="41.102545" lon="14.6345567"><ele>678.0</ele><time>2026-04-09T14:06:59.092Z</time></trkpt><trkpt lat="41.1026333" lon="14.6346033"><ele>678.0</ele><time>2026-04-09T14:07:00.092Z</time></trkpt><trkpt lat="41.1027233" lon="14.6346483"><ele>676.5999999999999</ele><time>2026-04-09T14:07:01.092Z</time></trkpt><trkpt lat="41.1028167" lon="14.6346983"><ele>675.1999999999999</ele><time>2026-04-09T14:07:02.092Z</time></trkpt><trkpt lat="41.1029117" lon="14.634765"><ele>673.8</ele><time>2026-04-09T14:07:03.092Z</time></trkpt><trkpt lat="41.103" lon="14.6348217"><ele>672.4</ele><time>2026-04-09T14:07:04.092Z</time></trkpt><trkpt lat="41.1030917" lon="14.6348667"><ele>671.0</ele><time>2026-04-09T14:07:05.092Z</time></trkpt><trkpt lat="41.1031867" lon="14.634905"><ele>671.8</ele><time>2026-04-09T14:07:06.092Z</time></trkpt><trkpt lat="41.103285" lon="14.63495"><ele>672.5999999999999</ele><time>2026-04-09T14:07:07.092Z</time></trkpt><trkpt lat="41.103385" lon="14.63501"><ele>673.4</ele><time>2026-04-09T14:07:08.092Z</time></trkpt><trkpt lat="41.10349" lon="14.6350717"><ele>674.2</ele><time>2026-04-09T14:07:09.092Z</time></trkpt><trkpt lat="41.1035867" lon="14.6351333"><ele>675.0</ele><time>2026-04-09T14:07:10.092Z</time></trkpt><trkpt lat="41.1036783" lon="14.6352033"><ele>675.0</ele><time>2026-04-09T14:07:11.092Z</time></trkpt><trkpt lat="41.1037667" lon="14.635275"><ele>675.0</ele><time>2026-04-09T14:07:12.092Z</time></trkpt><trkpt lat="41.1038517" lon="14.6353517"><ele>675.0</ele><time>2026-04-09T14:07:13.092Z</time></trkpt><trkpt lat="41.1039167" lon="14.635445"><ele>675.0</ele><time>2026-04-09T14:07:14.092Z</time></trkpt><trkpt lat="41.1039717" lon="14.6355533"><ele>675.0</ele><time>2026-04-09T14:07:15.092Z</time></trkpt><trkpt lat="41.1040167" lon="14.6356917"><ele>672.75</ele><time>2026-04-09T14:07:16.092Z</time></trkpt><trkpt lat="41.1040467" lon="14.6358467"><ele>670.5</ele><time>2026-04-09T14:07:17.092Z</time></trkpt><trkpt lat="41.1040733" lon="14.6360117"><ele>668.25</ele><time>2026-04-09T14:07:18.092Z</time></trkpt><trkpt lat="41.1040933" lon="14.6361683"><ele>666.0</ele><time>2026-04-09T14:07:19.092Z</time></trkpt><trkpt lat="41.1041117" lon="14.6363283"><ele>666.0</ele><time>2026-04-09T14:07:20.092Z</time></trkpt><trkpt lat="41.1041233" lon="14.6364767"><ele>666.0</ele><time>2026-04-09T14:07:21.092Z</time></trkpt><trkpt lat="41.10413" lon="14.6366333"><ele>666.0</ele><time>2026-04-09T14:07:22.092Z</time></trkpt><trkpt lat="41.1041383" lon="14.6367883"><ele>666.0</ele><time>2026-04-09T14:07:23.092Z</time></trkpt><trkpt lat="41.1041433" lon="14.6369483"><ele>663.5</ele><time>2026-04-09T14:07:24.092Z</time></trkpt><trkpt lat="41.1041483" lon="14.637105"><ele>661.0</ele><time>2026-04-09T14:07:25.092Z</time></trkpt><trkpt lat="41.1041483" lon="14.6372583"><ele>658.5</ele><time>2026-04-09T14:07:26.092Z</time></trkpt><trkpt lat="41.1041483" lon="14.637405"><ele>656.0</ele><time>2026-04-09T14:07:27.092Z</time></trkpt><trkpt lat="41.1041517" lon="14.637545"><ele>656.0</ele><time>2026-04-09T14:07:28.092Z</time></trkpt><trkpt lat="41.104145" lon="14.6376883"><ele>656.0</ele><time>2026-04-09T14:07:29.092Z</time></trkpt><trkpt lat="41.104135" lon="14.6378383"><ele>656.0</ele><time>2026-04-09T14:07:30.092Z</time></trkpt><trkpt lat="41.10412" lon="14.6379767"><ele>656.0</ele><time>2026-04-09T14:07:31.092Z</time></trkpt><trkpt lat="41.1041133" lon="14.6381"><ele>656.0</ele><time>2026-04-09T14:07:32.092Z</time></trkpt><trkpt lat="41.1041083" lon="14.6382283"><ele>655.0</ele><time>2026-04-09T14:07:33.092Z</time></trkpt><trkpt lat="41.1041117" lon="14.6383533"><ele>654.0</ele><time>2026-04-09T14:07:34.092Z</time></trkpt><trkpt lat="41.1041133" lon="14.638475"><ele>653.0</ele><time>2026-04-09T14:07:35.092Z</time></trkpt><trkpt lat="41.104115" lon="14.6385933"><ele>652.0</ele><time>2026-04-09T14:07:36.092Z</time></trkpt><trkpt lat="41.10413" lon="14.638715"><ele>651.0</ele><time>2026-04-09T14:07:37.092Z</time></trkpt><trkpt lat="41.1041417" lon="14.6388333"><ele>649.4</ele><time>2026-04-09T14:07:38.092Z</time></trkpt><trkpt lat="41.10415" lon="14.6389617"><ele>647.8</ele><time>2026-04-09T14:07:39.092Z</time></trkpt><trkpt lat="41.104145" lon="14.6390917"><ele>646.1999999999999</ele><time>2026-04-09T14:07:40.092Z</time></trkpt><trkpt lat="41.10413" lon="14.639225"><ele>644.5999999999999</ele><time>2026-04-09T14:07:41.092Z</time></trkpt><trkpt lat="41.1041117" lon="14.6393533"><ele>643.0</ele><time>2026-04-09T14:07:42.092Z</time></trkpt><trkpt lat="41.1040933" lon="14.6394767"><ele>641.1666666666667</ele><time>2026-04-09T14:07:43.092Z</time></trkpt><trkpt lat="41.1040767" lon="14.63959"><ele>639.3333333333334</ele><time>2026-04-09T14:07:44.092Z</time></trkpt><trkpt lat="41.10406" lon="14.6397"><ele>637.5</ele><time>2026-04-09T14:07:45.092Z</time></trkpt><trkpt lat="41.1040417" lon="14.6398117"><ele>635.6666666666666</ele><time>2026-04-09T14:07:46.092Z</time></trkpt><trkpt lat="41.10401" lon="14.6399117"><ele>633.8333333333333</ele><time>2026-04-09T14:07:47.092Z</time></trkpt><trkpt lat="41.1039633" lon="14.6399917"><ele>632.0</ele><time>2026-04-09T14:07:48.092Z</time></trkpt><trkpt lat="41.1039033" lon="14.6400633"><ele>632.0</ele><time>2026-04-09T14:07:49.092Z</time></trkpt><trkpt lat="41.1038267" lon="14.640115"><ele>632.0</ele><time>2026-04-09T14:07:50.092Z</time></trkpt><trkpt lat="41.1037483" lon="14.6401367"><ele>632.0</ele><time>2026-04-09T14:07:51.092Z</time></trkpt><trkpt lat="41.1036667" lon="14.6401233"><ele>632.0</ele><time>2026-04-09T14:07:52.092Z</time></trkpt><trkpt lat="41.1035883" lon="14.6400817"><ele>632.0</ele><time>2026-04-09T14:07:53.092Z</time></trkpt><trkpt lat="41.10353" lon="14.64001"><ele>632.0</ele><time>2026-04-09T14:07:54.092Z</time></trkpt><trkpt lat="41.1034817" lon="14.63991"><ele>632.0</ele><time>2026-04-09T14:07:55.092Z</time></trkpt><trkpt lat="41.1034483" lon="14.6398017"><ele>632.0</ele><time>2026-04-09T14:07:56.092Z</time></trkpt><trkpt lat="41.10343" lon="14.6397"><ele>632.0</ele><time>2026-04-09T14:07:57.092Z</time></trkpt><trkpt lat="41.1034067" lon="14.639615"><ele>632.0</ele><time>2026-04-09T14:07:58.092Z</time></trkpt><trkpt lat="41.1033683" lon="14.6395467"><ele>632.0</ele><time>2026-04-09T14:07:59.092Z</time></trkpt><trkpt lat="41.1032567" lon="14.6395"><ele>632.0</ele><time>2026-04-09T14:08:01.092Z</time></trkpt><trkpt lat="41.10318" lon="14.63952"><ele>629.5</ele><time>2026-04-09T14:08:02.092Z</time></trkpt><trkpt lat="41.1031067" lon="14.6395717"><ele>627.0</ele><time>2026-04-09T14:08:03.092Z</time></trkpt><trkpt lat="41.103055" lon="14.6396517"><ele>624.5</ele><time>2026-04-09T14:08:04.092Z</time></trkpt><trkpt lat="41.103015" lon="14.63975"><ele>622.0</ele><time>2026-04-09T14:08:05.092Z</time></trkpt><trkpt lat="41.1030033" lon="14.63986"><ele>619.5</ele><time>2026-04-09T14:08:06.092Z</time></trkpt><trkpt lat="41.1029967" lon="14.6399583"><ele>617.0</ele><time>2026-04-09T14:08:07.092Z</time></trkpt><trkpt lat="41.1029833" lon="14.6400633"><ele>617.0</ele><time>2026-04-09T14:08:08.092Z</time></trkpt><trkpt lat="41.1029583" lon="14.64016"><ele>617.0</ele><time>2026-04-09T14:08:09.092Z</time></trkpt><trkpt lat="41.10292" lon="14.6402267"><ele>617.0</ele><time>2026-04-09T14:08:10.092Z</time></trkpt><trkpt lat="41.1028683" lon="14.6402817"><ele>617.0</ele><time>2026-04-09T14:08:11.092Z</time></trkpt><trkpt lat="41.1028" lon="14.64031"><ele>617.0</ele><time>2026-04-09T14:08:12.092Z</time></trkpt><trkpt lat="41.1027217" lon="14.6403017"><ele>617.0</ele><time>2026-04-09T14:08:13.092Z</time></trkpt><trkpt lat="41.10265" lon="14.640265"><ele>617.0</ele><time>2026-04-09T14:08:14.092Z</time></trkpt><trkpt lat="41.1025983" lon="14.640175"><ele>617.0</ele><time>2026-04-09T14:08:15.092Z</time></trkpt><trkpt lat="41.1025617" lon="14.6400517"><ele>617.0</ele><time>2026-04-09T14:08:16.092Z</time></trkpt><trkpt lat="41.1025317" lon="14.6399367"><ele>617.0</ele><time>2026-04-09T14:08:17.092Z</time></trkpt><trkpt lat="41.10251" lon="14.6398317"><ele>617.0</ele><time>2026-04-09T14:08:18.092Z</time></trkpt><trkpt lat="41.102485" lon="14.639735"><ele>617.0</ele><time>2026-04-09T14:08:19.092Z</time></trkpt><trkpt lat="41.1024667" lon="14.639645"><ele>617.0</ele><time>2026-04-09T14:08:20.092Z</time></trkpt><trkpt lat="41.1024533" lon="14.63955"><ele>617.4285714285714</ele><time>2026-04-09T14:08:21.092Z</time></trkpt><trkpt lat="41.102425" lon="14.6394617"><ele>617.8571428571428</ele><time>2026-04-09T14:08:22.092Z</time></trkpt><trkpt lat="41.1023833" lon="14.6393883"><ele>618.2857142857142</ele><time>2026-04-09T14:08:23.092Z</time></trkpt><trkpt lat="41.10232" lon="14.6393483"><ele>618.7142857142858</ele><time>2026-04-09T14:08:24.092Z</time></trkpt><trkpt lat="41.1022533" lon="14.6393433"><ele>619.1428571428571</ele><time>2026-04-09T14:08:25.092Z</time></trkpt><trkpt lat="41.10218" lon="14.63937"><ele>619.5714285714286</ele><time>2026-04-09T14:08:26.092Z</time></trkpt><trkpt lat="41.10211" lon="14.639425"><ele>620.0</ele><time>2026-04-09T14:08:27.092Z</time></trkpt><trkpt lat="41.102045" lon="14.6395"><ele>616.4</ele><time>2026-04-09T14:08:28.092Z</time></trkpt><trkpt lat="41.10199" lon="14.6396017"><ele>612.8</ele><time>2026-04-09T14:08:29.092Z</time></trkpt><trkpt lat="41.1019533" lon="14.6397167"><ele>609.2</ele><time>2026-04-09T14:08:30.092Z</time></trkpt><trkpt lat="41.101945" lon="14.639845"><ele>605.6</ele><time>2026-04-09T14:08:31.092Z</time></trkpt><trkpt lat="41.1019583" lon="14.6399817"><ele>602.0</ele><time>2026-04-09T14:08:32.092Z</time></trkpt><trkpt lat="41.10197" lon="14.6401133"><ele>602.0</ele><time>2026-04-09T14:08:33.092Z</time></trkpt><trkpt lat="41.1019767" lon="14.64024"><ele>602.0</ele><time>2026-04-09T14:08:34.092Z</time></trkpt><trkpt lat="41.1019817" lon="14.6403617"><ele>602.0</ele><time>2026-04-09T14:08:35.092Z</time></trkpt><trkpt lat="41.1019783" lon="14.6404783"><ele>602.0</ele><time>2026-04-09T14:08:36.092Z</time></trkpt><trkpt lat="41.10197" lon="14.6405967"><ele>602.0</ele><time>2026-04-09T14:08:37.092Z</time></trkpt><trkpt lat="41.1019517" lon="14.640715"><ele>601.4</ele><time>2026-04-09T14:08:38.092Z</time></trkpt><trkpt lat="41.1019167" lon="14.640825"><ele>600.8000000000001</ele><time>2026-04-09T14:08:39.092Z</time></trkpt><trkpt lat="41.10186" lon="14.6409233"><ele>600.2</ele><time>2026-04-09T14:08:40.092Z</time></trkpt><trkpt lat="41.101795" lon="14.641015"><ele>599.6</ele><time>2026-04-09T14:08:41.092Z</time></trkpt><trkpt lat="41.1017" lon="14.6410783"><ele>599.0</ele><time>2026-04-09T14:08:42.092Z</time></trkpt><trkpt lat="41.1015983" lon="14.6411333"><ele>594.8</ele><time>2026-04-09T14:08:43.092Z</time></trkpt><trkpt lat="41.101495" lon="14.6411783"><ele>590.5999999999999</ele><time>2026-04-09T14:08:44.092Z</time></trkpt><trkpt lat="41.1013983" lon="14.6412067"><ele>586.4</ele><time>2026-04-09T14:08:45.092Z</time></trkpt><trkpt lat="41.1013083" lon="14.6412233"><ele>582.1999999999999</ele><time>2026-04-09T14:08:46.092Z</time></trkpt><trkpt lat="41.1012233" lon="14.64121"><ele>578.0</ele><time>2026-04-09T14:08:47.092Z</time></trkpt><trkpt lat="41.1011517" lon="14.641165"><ele>579.1666666666666</ele><time>2026-04-09T14:08:48.092Z</time></trkpt><trkpt lat="41.1011" lon="14.6410717"><ele>580.3333333333333</ele><time>2026-04-09T14:08:49.092Z</time></trkpt><trkpt lat="41.10108" lon="14.6409567"><ele>581.5</ele><time>2026-04-09T14:08:50.092Z</time></trkpt><trkpt lat="41.1010817" lon="14.64084"><ele>582.6666666666666</ele><time>2026-04-09T14:08:51.092Z</time></trkpt><trkpt lat="41.1010983" lon="14.6407433"><ele>583.8333333333334</ele><time>2026-04-09T14:08:52.092Z</time></trkpt><trkpt lat="41.1011083" lon="14.6406567"><ele>585.0</ele><time>2026-04-09T14:08:53.092Z</time></trkpt><trkpt lat="41.1011233" lon="14.6405467"><ele>585.0</ele><time>2026-04-09T14:08:55.092Z</time></trkpt><trkpt lat="41.1011339" lon="14.6404585"><ele>585.0</ele><time>2026-04-09T14:13:21.095Z</time></trkpt><trkpt lat="41.10113" lon="14.6403683"><ele>585.0</ele><time>2026-04-09T14:24:46.092Z</time></trkpt><trkpt lat="41.101115" lon="14.6402867"><ele>585.0</ele><time>2026-04-09T14:24:47.092Z</time></trkpt><trkpt lat="41.1011033" lon="14.6402"><ele>585.0</ele><time>2026-04-09T14:24:48.092Z</time></trkpt><trkpt lat="41.101095" lon="14.6400983"><ele>585.0</ele><time>2026-04-09T14:24:49.092Z</time></trkpt><trkpt lat="41.1010833" lon="14.6399683"><ele>585.0</ele><time>2026-04-09T14:24:50.092Z</time></trkpt><trkpt lat="41.10106" lon="14.639845"><ele>585.0</ele><time>2026-04-09T14:24:51.092Z</time></trkpt><trkpt lat="41.1010183" lon="14.6397267"><ele>585.0</ele><time>2026-04-09T14:24:52.092Z</time></trkpt><trkpt lat="41.10097" lon="14.63962"><ele>585.0</ele><time>2026-04-09T14:24:53.092Z</time></trkpt><trkpt lat="41.100915" lon="14.6395133"><ele>585.0</ele><time>2026-04-09T14:24:54.092Z</time></trkpt><trkpt lat="41.100855" lon="14.6394283"><ele>585.0</ele><time>2026-04-09T14:24:55.092Z</time></trkpt><trkpt lat="41.1007883" lon="14.6393433"><ele>585.6</ele><time>2026-04-09T14:24:56.092Z</time></trkpt><trkpt lat="41.10071" lon="14.6392767"><ele>586.2</ele><time>2026-04-09T14:24:57.092Z</time></trkpt><trkpt lat="41.1006183" lon="14.6392233"><ele>586.8</ele><time>2026-04-09T14:24:58.092Z</time></trkpt><trkpt lat="41.10051" lon="14.63918"><ele>587.4</ele><time>2026-04-09T14:24:59.092Z</time></trkpt><trkpt lat="41.1004" lon="14.63917"><ele>588.0</ele><time>2026-04-09T14:25:00.092Z</time></trkpt><trkpt lat="41.1002917" lon="14.6391767"><ele>588.0</ele><time>2026-04-09T14:25:01.092Z</time></trkpt><trkpt lat="41.1001883" lon="14.63921"><ele>588.0</ele><time>2026-04-09T14:25:02.092Z</time></trkpt><trkpt lat="41.1000867" lon="14.6392717"><ele>588.0</ele><time>2026-04-09T14:25:03.092Z</time></trkpt><trkpt lat="41.0999917" lon="14.6393433"><ele>588.0</ele><time>2026-04-09T14:25:04.092Z</time></trkpt><trkpt lat="41.0999017" lon="14.6394283"><ele>588.0</ele><time>2026-04-09T14:25:05.092Z</time></trkpt><trkpt lat="41.09982" lon="14.6395283"><ele>587.4</ele><time>2026-04-09T14:25:06.092Z</time></trkpt><trkpt lat="41.0997417" lon="14.6396267"><ele>586.8</ele><time>2026-04-09T14:25:07.092Z</time></trkpt><trkpt lat="41.099665" lon="14.639735"><ele>586.2</ele><time>2026-04-09T14:25:08.092Z</time></trkpt><trkpt lat="41.0995867" lon="14.6398433"><ele>585.6</ele><time>2026-04-09T14:25:09.092Z</time></trkpt><trkpt lat="41.099515" lon="14.6399467"><ele>585.0</ele><time>2026-04-09T14:25:10.092Z</time></trkpt><trkpt lat="41.0994383" lon="14.6400433"><ele>585.0</ele><time>2026-04-09T14:25:11.092Z</time></trkpt><trkpt lat="41.0993683" lon="14.6401383"><ele>585.0</ele><time>2026-04-09T14:25:12.092Z</time></trkpt><trkpt lat="41.0992967" lon="14.6402283"><ele>585.0</ele><time>2026-04-09T14:25:13.092Z</time></trkpt><trkpt lat="41.099225" lon="14.64032"><ele>585.0</ele><time>2026-04-09T14:25:14.092Z</time></trkpt><trkpt lat="41.0991467" lon="14.640415"><ele>585.0</ele><time>2026-04-09T14:25:15.092Z</time></trkpt><trkpt lat="41.0990617" lon="14.6404967"><ele>583.6</ele><time>2026-04-09T14:25:16.092Z</time></trkpt><trkpt lat="41.0989783" lon="14.6405667"><ele>582.2</ele><time>2026-04-09T14:25:17.092Z</time></trkpt><trkpt lat="41.0988833" lon="14.6406117"><ele>580.8</ele><time>2026-04-09T14:25:18.092Z</time></trkpt><trkpt lat="41.0987767" lon="14.64065"><ele>579.4</ele><time>2026-04-09T14:25:19.092Z</time></trkpt><trkpt lat="41.09866" lon="14.6406767"><ele>578.0</ele><time>2026-04-09T14:25:20.092Z</time></trkpt><trkpt lat="41.0985383" lon="14.6407083"><ele>578.0</ele><time>2026-04-09T14:25:21.092Z</time></trkpt><trkpt lat="41.0984167" lon="14.640735"><ele>578.0</ele><time>2026-04-09T14:25:22.092Z</time></trkpt><trkpt lat="41.0982933" lon="14.6407583"><ele>578.0</ele><time>2026-04-09T14:25:23.092Z</time></trkpt><trkpt lat="41.0981717" lon="14.6407817"><ele>578.0</ele><time>2026-04-09T14:25:24.092Z</time></trkpt><trkpt lat="41.0980517" lon="14.6408017"><ele>577.75</ele><time>2026-04-09T14:25:25.092Z</time></trkpt><trkpt lat="41.0979383" lon="14.640825"><ele>577.5</ele><time>2026-04-09T14:25:26.092Z</time></trkpt><trkpt lat="41.097825" lon="14.6408517"><ele>577.25</ele><time>2026-04-09T14:25:27.092Z</time></trkpt><trkpt lat="41.0977033" lon="14.6408783"><ele>577.0</ele><time>2026-04-09T14:25:28.092Z</time></trkpt><trkpt lat="41.09758" lon="14.6409033"><ele>577.0</ele><time>2026-04-09T14:25:29.092Z</time></trkpt><trkpt lat="41.097455" lon="14.640925"><ele>577.0</ele><time>2026-04-09T14:25:30.092Z</time></trkpt><trkpt lat="41.09733" lon="14.6409567"><ele>577.0</ele><time>2026-04-09T14:25:31.092Z</time></trkpt><trkpt lat="41.0972" lon="14.6409833"><ele>577.0</ele><time>2026-04-09T14:25:32.092Z</time></trkpt><trkpt lat="41.0970733" lon="14.6410083"><ele>575.25</ele><time>2026-04-09T14:25:33.092Z</time></trkpt><trkpt lat="41.096945" lon="14.64103"><ele>573.5</ele><time>2026-04-09T14:25:34.092Z</time></trkpt><trkpt lat="41.096815" lon="14.6410433"><ele>571.75</ele><time>2026-04-09T14:25:35.092Z</time></trkpt><trkpt lat="41.0966967" lon="14.64104"><ele>570.0</ele><time>2026-04-09T14:25:36.092Z</time></trkpt><trkpt lat="41.0965767" lon="14.6410233"><ele>568.4</ele><time>2026-04-09T14:25:37.092Z</time></trkpt><trkpt lat="41.096455" lon="14.6409933"><ele>566.8</ele><time>2026-04-09T14:25:38.092Z</time></trkpt><trkpt lat="41.096345" lon="14.640965"><ele>565.2</ele><time>2026-04-09T14:25:39.092Z</time></trkpt><trkpt lat="41.0962433" lon="14.64095"><ele>563.6</ele><time>2026-04-09T14:25:40.092Z</time></trkpt><trkpt lat="41.0961417" lon="14.6409583"><ele>562.0</ele><time>2026-04-09T14:25:41.092Z</time></trkpt><trkpt lat="41.09605" lon="14.6409933"><ele>562.0</ele><time>2026-04-09T14:25:42.092Z</time></trkpt><trkpt lat="41.0959733" lon="14.6410583"><ele>562.0</ele><time>2026-04-09T14:25:43.092Z</time></trkpt><trkpt lat="41.095915" lon="14.6411417"><ele>562.0</ele><time>2026-04-09T14:25:44.092Z</time></trkpt><trkpt lat="41.095885" lon="14.64126"><ele>562.0</ele><time>2026-04-09T14:25:45.092Z</time></trkpt><trkpt lat="41.0958883" lon="14.641395"><ele>562.0</ele><time>2026-04-09T14:25:46.092Z</time></trkpt><trkpt lat="41.0959267" lon="14.6415167"><ele>562.5</ele><time>2026-04-09T14:25:47.092Z</time></trkpt><trkpt lat="41.0959983" lon="14.6416317"><ele>563.0</ele><time>2026-04-09T14:25:48.092Z</time></trkpt><trkpt lat="41.0960783" lon="14.64176"><ele>563.5</ele><time>2026-04-09T14:25:49.092Z</time></trkpt><trkpt lat="41.0961483" lon="14.6418917"><ele>564.0</ele><time>2026-04-09T14:25:50.092Z</time></trkpt><trkpt lat="41.0962017" lon="14.64203"><ele>564.0</ele><time>2026-04-09T14:25:51.092Z</time></trkpt><trkpt lat="41.0962433" lon="14.6421783"><ele>564.0</ele><time>2026-04-09T14:25:52.092Z</time></trkpt><trkpt lat="41.096265" lon="14.642335"><ele>564.0</ele><time>2026-04-09T14:25:53.092Z</time></trkpt><trkpt lat="41.0962583" lon="14.6425067"><ele>564.0</ele><time>2026-04-09T14:25:54.092Z</time></trkpt><trkpt lat="41.0962333" lon="14.6426633"><ele>565.25</ele><time>2026-04-09T14:25:55.092Z</time></trkpt><trkpt lat="41.0961933" lon="14.6428167"><ele>566.5</ele><time>2026-04-09T14:25:56.092Z</time></trkpt><trkpt lat="41.096145" lon="14.6429567"><ele>567.75</ele><time>2026-04-09T14:25:57.092Z</time></trkpt><trkpt lat="41.0960817" lon="14.643085"><ele>569.0</ele><time>2026-04-09T14:25:58.092Z</time></trkpt><trkpt lat="41.096" lon="14.643205"><ele>569.0</ele><time>2026-04-09T14:25:59.092Z</time></trkpt><trkpt lat="41.0959067" lon="14.64333"><ele>569.0</ele><time>2026-04-09T14:26:00.092Z</time></trkpt><trkpt lat="41.0958017" lon="14.6434467"><ele>569.0</ele><time>2026-04-09T14:26:01.092Z</time></trkpt><trkpt lat="41.095695" lon="14.6435617"><ele>569.0</ele><time>2026-04-09T14:26:02.092Z</time></trkpt><trkpt lat="41.0955967" lon="14.6436767"><ele>569.0</ele><time>2026-04-09T14:26:03.092Z</time></trkpt><trkpt lat="41.0955067" lon="14.6437717"><ele>569.0</ele><time>2026-04-09T14:26:04.092Z</time></trkpt><trkpt lat="41.0954117" lon="14.6438667"><ele>569.0</ele><time>2026-04-09T14:26:05.092Z</time></trkpt><trkpt lat="41.0953233" lon="14.6439617"><ele>569.0</ele><time>2026-04-09T14:26:06.092Z</time></trkpt><trkpt lat="41.0952217" lon="14.64405"><ele>569.0</ele><time>2026-04-09T14:26:07.092Z</time></trkpt><trkpt lat="41.0951133" lon="14.64414"><ele>569.0</ele><time>2026-04-09T14:26:08.092Z</time></trkpt><trkpt lat="41.0950133" lon="14.644225"><ele>569.0</ele><time>2026-04-09T14:26:09.092Z</time></trkpt><trkpt lat="41.0949067" lon="14.644295"><ele>569.0</ele><time>2026-04-09T14:26:10.092Z</time></trkpt><trkpt lat="41.0947967" lon="14.6443433"><ele>566.75</ele><time>2026-04-09T14:26:11.092Z</time></trkpt><trkpt lat="41.0946783" lon="14.64438"><ele>564.5</ele><time>2026-04-09T14:26:12.092Z</time></trkpt><trkpt lat="41.0945533" lon="14.6444167"><ele>562.25</ele><time>2026-04-09T14:26:13.092Z</time></trkpt><trkpt lat="41.09444" lon="14.6444367"><ele>560.0</ele><time>2026-04-09T14:26:14.092Z</time></trkpt><trkpt lat="41.0943333" lon="14.64445"><ele>558.8333333333333</ele><time>2026-04-09T14:26:15.092Z</time></trkpt><trkpt lat="41.0942417" lon="14.6444767"><ele>557.6666666666666</ele><time>2026-04-09T14:26:16.092Z</time></trkpt><trkpt lat="41.0941533" lon="14.6445217"><ele>556.5</ele><time>2026-04-09T14:26:17.092Z</time></trkpt><trkpt lat="41.09408" lon="14.6445833"><ele>555.3333333333334</ele><time>2026-04-09T14:26:18.092Z</time></trkpt><trkpt lat="41.0940233" lon="14.644665"><ele>554.1666666666667</ele><time>2026-04-09T14:26:19.092Z</time></trkpt><trkpt lat="41.093985" lon="14.644765"><ele>553.0</ele><time>2026-04-09T14:26:20.092Z</time></trkpt><trkpt lat="41.0939583" lon="14.644875"><ele>553.0</ele><time>2026-04-09T14:26:21.092Z</time></trkpt><trkpt lat="41.0939417" lon="14.6449867"><ele>553.0</ele><time>2026-04-09T14:26:22.092Z</time></trkpt><trkpt lat="41.0939183" lon="14.6451133"><ele>553.0</ele><time>2026-04-09T14:26:23.092Z</time></trkpt><trkpt lat="41.0938883" lon="14.645245"><ele>553.0</ele><time>2026-04-09T14:26:24.092Z</time></trkpt><trkpt lat="41.0938583" lon="14.6453767"><ele>553.0</ele><time>2026-04-09T14:26:25.092Z</time></trkpt><trkpt lat="41.0938167" lon="14.6455067"><ele>554.75</ele><time>2026-04-09T14:26:26.092Z</time></trkpt><trkpt lat="41.0937517" lon="14.6456367"><ele>556.5</ele><time>2026-04-09T14:26:27.092Z</time></trkpt><trkpt lat="41.0936633" lon="14.64576"><ele>558.25</ele><time>2026-04-09T14:26:28.092Z</time></trkpt><trkpt lat="41.093575" lon="14.6458767"><ele>560.0</ele><time>2026-04-09T14:26:29.092Z</time></trkpt><trkpt lat="41.0934883" lon="14.645975"><ele>560.0</ele><time>2026-04-09T14:26:30.092Z</time></trkpt><trkpt lat="41.0934" lon="14.646065"><ele>560.0</ele><time>2026-04-09T14:26:31.092Z</time></trkpt><trkpt lat="41.0933233" lon="14.6461633"><ele>560.0</ele><time>2026-04-09T14:26:32.092Z</time></trkpt><trkpt lat="41.093265" lon="14.6462683"><ele>560.0</ele><time>2026-04-09T14:26:33.092Z</time></trkpt><trkpt lat="41.0932283" lon="14.6464017"><ele>560.0</ele><time>2026-04-09T14:26:34.092Z</time></trkpt><trkpt lat="41.0931983" lon="14.6465417"><ele>561.2</ele><time>2026-04-09T14:26:35.092Z</time></trkpt><trkpt lat="41.093195" lon="14.64668"><ele>562.4</ele><time>2026-04-09T14:26:36.092Z</time></trkpt><trkpt lat="41.0931983" lon="14.6468167"><ele>563.6</ele><time>2026-04-09T14:26:37.092Z</time></trkpt><trkpt lat="41.0932267" lon="14.646955"><ele>564.8</ele><time>2026-04-09T14:26:38.092Z</time></trkpt><trkpt lat="41.093265" lon="14.647105"><ele>566.0</ele><time>2026-04-09T14:26:39.092Z</time></trkpt><trkpt lat="41.093275" lon="14.6472467"><ele>566.0</ele><time>2026-04-09T14:26:40.092Z</time></trkpt><trkpt lat="41.0932683" lon="14.6473933"><ele>566.0</ele><time>2026-04-09T14:26:41.092Z</time></trkpt><trkpt lat="41.0932183" lon="14.6475283"><ele>566.0</ele><time>2026-04-09T14:26:42.092Z</time></trkpt><trkpt lat="41.09314" lon="14.6476233"><ele>566.0</ele><time>2026-04-09T14:26:43.092Z</time></trkpt><trkpt lat="41.09304" lon="14.647665"><ele>566.0</ele><time>2026-04-09T14:26:44.092Z</time></trkpt><trkpt lat="41.0929417" lon="14.64765"><ele>565.0</ele><time>2026-04-09T14:26:45.092Z</time></trkpt><trkpt lat="41.092845" lon="14.64759"><ele>564.0</ele><time>2026-04-09T14:26:46.092Z</time></trkpt><trkpt lat="41.0927517" lon="14.6475117"><ele>563.0</ele><time>2026-04-09T14:26:47.092Z</time></trkpt><trkpt lat="41.09266" lon="14.647455"><ele>562.0</ele><time>2026-04-09T14:26:48.092Z</time></trkpt><trkpt lat="41.0925667" lon="14.6474333"><ele>561.0</ele><time>2026-04-09T14:26:49.092Z</time></trkpt><trkpt lat="41.0924767" lon="14.6474717"><ele>558.75</ele><time>2026-04-09T14:26:50.092Z</time></trkpt><trkpt lat="41.092405" lon="14.647545"><ele>556.5</ele><time>2026-04-09T14:26:51.092Z</time></trkpt><trkpt lat="41.0923683" lon="14.6476767"><ele>554.25</ele><time>2026-04-09T14:26:52.092Z</time></trkpt><trkpt lat="41.0923617" lon="14.6478533"><ele>552.0</ele><time>2026-04-09T14:26:53.092Z</time></trkpt><trkpt lat="41.09237" lon="14.6480317"><ele>552.0</ele><time>2026-04-09T14:26:54.092Z</time></trkpt><trkpt lat="41.0923817" lon="14.648205"><ele>552.0</ele><time>2026-04-09T14:26:55.092Z</time></trkpt><trkpt lat="41.0924067" lon="14.64837"><ele>552.0</ele><time>2026-04-09T14:26:56.092Z</time></trkpt><trkpt lat="41.0924117" lon="14.648525"><ele>552.0</ele><time>2026-04-09T14:26:57.092Z</time></trkpt><trkpt lat="41.0923933" lon="14.6486667"><ele>554.2</ele><time>2026-04-09T14:26:58.092Z</time></trkpt><trkpt lat="41.092345" lon="14.64879"><ele>556.4000000000001</ele><time>2026-04-09T14:26:59.092Z</time></trkpt><trkpt lat="41.0922667" lon="14.6488717"><ele>558.5999999999999</ele><time>2026-04-09T14:27:00.092Z</time></trkpt><trkpt lat="41.0921717" lon="14.6489067"><ele>560.8</ele><time>2026-04-09T14:27:01.092Z</time></trkpt><trkpt lat="41.092065" lon="14.64891"><ele>563.0</ele><time>2026-04-09T14:27:02.092Z</time></trkpt><trkpt lat="41.0919517" lon="14.64888"><ele>563.0</ele><time>2026-04-09T14:27:03.092Z</time></trkpt><trkpt lat="41.091845" lon="14.6488233"><ele>563.0</ele><time>2026-04-09T14:27:04.092Z</time></trkpt><trkpt lat="41.0917383" lon="14.64877"><ele>563.0</ele><time>2026-04-09T14:27:05.092Z</time></trkpt><trkpt lat="41.091625" lon="14.6487533"><ele>563.0</ele><time>2026-04-09T14:27:06.092Z</time></trkpt><trkpt lat="41.0915067" lon="14.6487867"><ele>559.75</ele><time>2026-04-09T14:27:07.092Z</time></trkpt><trkpt lat="41.0913867" lon="14.6488567"><ele>556.5</ele><time>2026-04-09T14:27:08.092Z</time></trkpt><trkpt lat="41.0912717" lon="14.6489383"><ele>553.25</ele><time>2026-04-09T14:27:09.092Z</time></trkpt><trkpt lat="41.0911683" lon="14.6490317"><ele>550.0</ele><time>2026-04-09T14:27:10.092Z</time></trkpt><trkpt lat="41.0910817" lon="14.6491233"><ele>550.0</ele><time>2026-04-09T14:27:11.092Z</time></trkpt><trkpt lat="41.0910083" lon="14.64922"><ele>550.0</ele><time>2026-04-09T14:27:12.092Z</time></trkpt><trkpt lat="41.0909533" lon="14.6493517"><ele>550.0</ele><time>2026-04-09T14:27:13.092Z</time></trkpt><trkpt lat="41.0909117" lon="14.6495"><ele>550.0</ele><time>2026-04-09T14:27:14.092Z</time></trkpt><trkpt lat="41.0908683" lon="14.6496417"><ele>551.2</ele><time>2026-04-09T14:27:15.092Z</time></trkpt><trkpt lat="41.0908183" lon="14.6497717"><ele>552.4</ele><time>2026-04-09T14:27:16.092Z</time></trkpt><trkpt lat="41.09075" lon="14.6498683"><ele>553.6</ele><time>2026-04-09T14:27:17.092Z</time></trkpt><trkpt lat="41.0906667" lon="14.6499283"><ele>554.8</ele><time>2026-04-09T14:27:18.092Z</time></trkpt><trkpt lat="41.09057" lon="14.64998"><ele>556.0</ele><time>2026-04-09T14:27:19.092Z</time></trkpt><trkpt lat="41.0904517" lon="14.6500133"><ele>556.0</ele><time>2026-04-09T14:27:20.092Z</time></trkpt><trkpt lat="41.0903217" lon="14.6500267"><ele>556.0</ele><time>2026-04-09T14:27:21.092Z</time></trkpt><trkpt lat="41.0901867" lon="14.65003"><ele>556.0</ele><time>2026-04-09T14:27:22.092Z</time></trkpt><trkpt lat="41.0900483" lon="14.6500317"><ele>556.0</ele><time>2026-04-09T14:27:23.092Z</time></trkpt><trkpt lat="41.0899117" lon="14.650035"><ele>555.0</ele><time>2026-04-09T14:27:24.092Z</time></trkpt><trkpt lat="41.0897667" lon="14.650055"><ele>554.0</ele><time>2026-04-09T14:27:25.092Z</time></trkpt><trkpt lat="41.08962" lon="14.6500667"><ele>553.0</ele><time>2026-04-09T14:27:26.092Z</time></trkpt><trkpt lat="41.0894783" lon="14.6500817"><ele>552.0</ele><time>2026-04-09T14:27:27.092Z</time></trkpt><trkpt lat="41.0893333" lon="14.6500967"><ele>552.0</ele><time>2026-04-09T14:27:28.092Z</time></trkpt><trkpt lat="41.0891967" lon="14.65011"><ele>552.0</ele><time>2026-04-09T14:27:29.092Z</time></trkpt><trkpt lat="41.0890583" lon="14.650115"><ele>552.0</ele><time>2026-04-09T14:27:30.092Z</time></trkpt><trkpt lat="41.0889367" lon="14.650135"><ele>552.0</ele><time>2026-04-09T14:27:31.092Z</time></trkpt><trkpt lat="41.0888167" lon="14.6501433"><ele>552.0</ele><time>2026-04-09T14:27:32.092Z</time></trkpt><trkpt lat="41.08871" lon="14.650155"><ele>552.0</ele><time>2026-04-09T14:27:33.092Z</time></trkpt><trkpt lat="41.0886117" lon="14.6501783"><ele>552.0</ele><time>2026-04-09T14:27:34.092Z</time></trkpt><trkpt lat="41.0885133" lon="14.65021"><ele>552.0</ele><time>2026-04-09T14:27:35.092Z</time></trkpt><trkpt lat="41.0884283" lon="14.6502583"><ele>552.0</ele><time>2026-04-09T14:27:36.092Z</time></trkpt><trkpt lat="41.08837" lon="14.6503483"><ele>552.0</ele><time>2026-04-09T14:27:37.092Z</time></trkpt><trkpt lat="41.0883167" lon="14.65046"><ele>552.0</ele><time>2026-04-09T14:27:38.092Z</time></trkpt><trkpt lat="41.088285" lon="14.6505983"><ele>552.0</ele><time>2026-04-09T14:27:39.092Z</time></trkpt><trkpt lat="41.088275" lon="14.6507467"><ele>552.0</ele><time>2026-04-09T14:27:40.092Z</time></trkpt><trkpt lat="41.0882683" lon="14.65091"><ele>552.0</ele><time>2026-04-09T14:27:41.092Z</time></trkpt><trkpt lat="41.0882683" lon="14.6510883"><ele>552.0</ele><time>2026-04-09T14:27:42.092Z</time></trkpt><trkpt lat="41.0882667" lon="14.65127"><ele>552.0</ele><time>2026-04-09T14:27:43.092Z</time></trkpt><trkpt lat="41.0882783" lon="14.6514567"><ele>552.0</ele><time>2026-04-09T14:27:44.092Z</time></trkpt><trkpt lat="41.0883033" lon="14.65165"><ele>552.0</ele><time>2026-04-09T14:27:45.092Z</time></trkpt><trkpt lat="41.0883333" lon="14.6518483"><ele>551.75</ele><time>2026-04-09T14:27:46.092Z</time></trkpt><trkpt lat="41.08836" lon="14.65203"><ele>551.5</ele><time>2026-04-09T14:27:47.092Z</time></trkpt><trkpt lat="41.0883667" lon="14.6522017"><ele>551.25</ele><time>2026-04-09T14:27:48.092Z</time></trkpt><trkpt lat="41.0883633" lon="14.6523633"><ele>551.0</ele><time>2026-04-09T14:27:49.092Z</time></trkpt><trkpt lat="41.0883483" lon="14.6525083"><ele>551.0</ele><time>2026-04-09T14:27:50.092Z</time></trkpt><trkpt lat="41.0883217" lon="14.652655"><ele>551.0</ele><time>2026-04-09T14:27:51.092Z</time></trkpt><trkpt lat="41.0882867" lon="14.6527983"><ele>551.0</ele><time>2026-04-09T14:27:52.092Z</time></trkpt><trkpt lat="41.0882317" lon="14.65293"><ele>551.0</ele><time>2026-04-09T14:27:53.092Z</time></trkpt><trkpt lat="41.0881617" lon="14.6530417"><ele>550.8</ele><time>2026-04-09T14:27:54.092Z</time></trkpt><trkpt lat="41.08808" lon="14.653135"><ele>550.6</ele><time>2026-04-09T14:27:55.092Z</time></trkpt><trkpt lat="41.0879833" lon="14.6532117"><ele>550.4</ele><time>2026-04-09T14:27:56.092Z</time></trkpt><trkpt lat="41.0878767" lon="14.6532667"><ele>550.2</ele><time>2026-04-09T14:27:57.092Z</time></trkpt><trkpt lat="41.0877667" lon="14.653305"><ele>550.0</ele><time>2026-04-09T14:27:58.092Z</time></trkpt><trkpt lat="41.0876633" lon="14.653335"><ele>550.0</ele><time>2026-04-09T14:27:59.092Z</time></trkpt><trkpt lat="41.0875533" lon="14.6533633"><ele>550.0</ele><time>2026-04-09T14:28:00.092Z</time></trkpt><trkpt lat="41.0874517" lon="14.6533967"><ele>550.0</ele><time>2026-04-09T14:28:01.092Z</time></trkpt><trkpt lat="41.0873617" lon="14.6534517"><ele>550.0</ele><time>2026-04-09T14:28:02.092Z</time></trkpt><trkpt lat="41.0872733" lon="14.6535267"><ele>550.0</ele><time>2026-04-09T14:28:03.092Z</time></trkpt><trkpt lat="41.0871867" lon="14.653625"><ele>549.0</ele><time>2026-04-09T14:28:04.092Z</time></trkpt><trkpt lat="41.0871067" lon="14.653735"><ele>548.0</ele><time>2026-04-09T14:28:05.092Z</time></trkpt><trkpt lat="41.0870183" lon="14.6538567"><ele>547.0</ele><time>2026-04-09T14:28:06.092Z</time></trkpt><trkpt lat="41.0869383" lon="14.6539817"><ele>546.0</ele><time>2026-04-09T14:28:07.092Z</time></trkpt><trkpt lat="41.0868567" lon="14.65411"><ele>546.0</ele><time>2026-04-09T14:28:08.092Z</time></trkpt><trkpt lat="41.0867733" lon="14.65423"><ele>546.0</ele><time>2026-04-09T14:28:09.092Z</time></trkpt><trkpt lat="41.0866917" lon="14.65436"><ele>546.0</ele><time>2026-04-09T14:28:10.092Z</time></trkpt><trkpt lat="41.0866067" lon="14.654485"><ele>546.0</ele><time>2026-04-09T14:28:11.092Z</time></trkpt><trkpt lat="41.0865133" lon="14.6546"><ele>545.75</ele><time>2026-04-09T14:28:12.092Z</time></trkpt><trkpt lat="41.08642" lon="14.65471"><ele>545.5</ele><time>2026-04-09T14:28:13.092Z</time></trkpt><trkpt lat="41.0863317" lon="14.6548233"><ele>545.25</ele><time>2026-04-09T14:28:14.092Z</time></trkpt><trkpt lat="41.086245" lon="14.6549333"><ele>545.0</ele><time>2026-04-09T14:28:15.092Z</time></trkpt><trkpt lat="41.0861617" lon="14.65504"><ele>545.0</ele><time>2026-04-09T14:28:16.092Z</time></trkpt><trkpt lat="41.0860717" lon="14.6551333"><ele>545.0</ele><time>2026-04-09T14:28:17.092Z</time></trkpt><trkpt lat="41.08598" lon="14.6552167"><ele>545.0</ele><time>2026-04-09T14:28:18.092Z</time></trkpt><trkpt lat="41.0858867" lon="14.6552817"><ele>545.0</ele><time>2026-04-09T14:28:19.092Z</time></trkpt><trkpt lat="41.0858083" lon="14.6553333"><ele>545.0</ele><time>2026-04-09T14:28:20.092Z</time></trkpt><trkpt lat="41.0857483" lon="14.655365"><ele>544.8</ele><time>2026-04-09T14:28:21.092Z</time></trkpt><trkpt lat="41.08564" lon="14.6553467"><ele>544.6</ele><time>2026-04-09T14:28:23.092Z</time></trkpt><trkpt lat="41.0855883" lon="14.655295"><ele>544.4</ele><time>2026-04-09T14:28:24.092Z</time></trkpt><trkpt lat="41.085535" lon="14.655215"><ele>544.2</ele><time>2026-04-09T14:28:25.092Z</time></trkpt><trkpt lat="41.08547" lon="14.6551267"><ele>544.0</ele><time>2026-04-09T14:28:26.092Z</time></trkpt><trkpt lat="41.0853867" lon="14.6550483"><ele>545.2</ele><time>2026-04-09T14:28:27.092Z</time></trkpt><trkpt lat="41.0853067" lon="14.65497"><ele>546.4</ele><time>2026-04-09T14:28:28.092Z</time></trkpt><trkpt lat="41.085235" lon="14.6548867"><ele>547.6</ele><time>2026-04-09T14:28:29.092Z</time></trkpt><trkpt lat="41.0851633" lon="14.654785"><ele>548.8</ele><time>2026-04-09T14:28:30.092Z</time></trkpt><trkpt lat="41.0851033" lon="14.6546633"><ele>550.0</ele><time>2026-04-09T14:28:31.092Z</time></trkpt><trkpt lat="41.0850433" lon="14.654545"><ele>548.8</ele><time>2026-04-09T14:28:32.092Z</time></trkpt><trkpt lat="41.08499" lon="14.6544117"><ele>547.6</ele><time>2026-04-09T14:28:33.092Z</time></trkpt><trkpt lat="41.0849317" lon="14.6542933"><ele>546.4</ele><time>2026-04-09T14:28:34.092Z</time></trkpt><trkpt lat="41.0848783" lon="14.6541783"><ele>545.2</ele><time>2026-04-09T14:28:35.092Z</time></trkpt><trkpt lat="41.0848167" lon="14.65406"><ele>544.0</ele><time>2026-04-09T14:28:36.092Z</time></trkpt><trkpt lat="41.0847483" lon="14.6539333"><ele>547.25</ele><time>2026-04-09T14:28:37.092Z</time></trkpt><trkpt lat="41.0846783" lon="14.6538"><ele>550.5</ele><time>2026-04-09T14:28:38.092Z</time></trkpt><trkpt lat="41.0846183" lon="14.653665"><ele>553.75</ele><time>2026-04-09T14:28:39.092Z</time></trkpt><trkpt lat="41.0845583" lon="14.65351"><ele>557.0</ele><time>2026-04-09T14:28:40.092Z</time></trkpt><trkpt lat="41.0844967" lon="14.6533517"><ele>557.0</ele><time>2026-04-09T14:28:41.092Z</time></trkpt><trkpt lat="41.08443" lon="14.65319"><ele>557.0</ele><time>2026-04-09T14:28:42.092Z</time></trkpt><trkpt lat="41.0843667" lon="14.6530317"><ele>557.0</ele><time>2026-04-09T14:28:43.092Z</time></trkpt><trkpt lat="41.0842983" lon="14.65288"><ele>557.0</ele><time>2026-04-09T14:28:44.092Z</time></trkpt><trkpt lat="41.0842417" lon="14.6527217"><ele>555.8000000000001</ele><time>2026-04-09T14:28:45.092Z</time></trkpt><trkpt lat="41.0841883" lon="14.6525833"><ele>554.6</ele><time>2026-04-09T14:28:46.092Z</time></trkpt><trkpt lat="41.0841417" lon="14.6524517"><ele>553.4000000000001</ele><time>2026-04-09T14:28:47.092Z</time></trkpt><trkpt lat="41.0840817" lon="14.652325"><ele>552.2</ele><time>2026-04-09T14:28:48.092Z</time></trkpt><trkpt lat="41.0840183" lon="14.652215"><ele>551.0</ele><time>2026-04-09T14:28:49.092Z</time></trkpt><trkpt lat="41.0839417" lon="14.6521133"><ele>551.0</ele><time>2026-04-09T14:28:50.092Z</time></trkpt><trkpt lat="41.0838483" lon="14.65202"><ele>551.0</ele><time>2026-04-09T14:28:51.092Z</time></trkpt><trkpt lat="41.0837433" lon="14.6519267"><ele>551.0</ele><time>2026-04-09T14:28:52.092Z</time></trkpt><trkpt lat="41.083635" lon="14.65184"><ele>551.0</ele><time>2026-04-09T14:28:53.092Z</time></trkpt><trkpt lat="41.0835367" lon="14.6517517"><ele>549.0</ele><time>2026-04-09T14:28:54.092Z</time></trkpt><trkpt lat="41.0834483" lon="14.65168"><ele>547.0</ele><time>2026-04-09T14:28:55.092Z</time></trkpt><trkpt lat="41.0833633" lon="14.6516117"><ele>545.0</ele><time>2026-04-09T14:28:56.092Z</time></trkpt><trkpt lat="41.0832683" lon="14.65157"><ele>543.0</ele><time>2026-04-09T14:28:57.092Z</time></trkpt><trkpt lat="41.08315" lon="14.651565"><ele>541.0</ele><time>2026-04-09T14:28:58.092Z</time></trkpt><trkpt lat="41.0830217" lon="14.6515767"><ele>539.25</ele><time>2026-04-09T14:28:59.092Z</time></trkpt><trkpt lat="41.0828967" lon="14.651585"><ele>537.5</ele><time>2026-04-09T14:29:00.092Z</time></trkpt><trkpt lat="41.0827683" lon="14.6515633"><ele>535.75</ele><time>2026-04-09T14:29:01.092Z</time></trkpt><trkpt lat="41.0826417" lon="14.6515083"><ele>534.0</ele><time>2026-04-09T14:29:02.092Z</time></trkpt><trkpt lat="41.0825117" lon="14.651415"><ele>530.75</ele><time>2026-04-09T14:29:03.092Z</time></trkpt><trkpt lat="41.0823833" lon="14.6513083"><ele>527.5</ele><time>2026-04-09T14:29:04.092Z</time></trkpt><trkpt lat="41.0822667" lon="14.6512"><ele>524.25</ele><time>2026-04-09T14:29:05.092Z</time></trkpt><trkpt lat="41.0821483" lon="14.6511033"><ele>521.0</ele><time>2026-04-09T14:29:06.092Z</time></trkpt><trkpt lat="41.0820283" lon="14.6510067"><ele>521.0</ele><time>2026-04-09T14:29:07.092Z</time></trkpt><trkpt lat="41.0819167" lon="14.6509083"><ele>521.0</ele><time>2026-04-09T14:29:08.092Z</time></trkpt><trkpt lat="41.0818083" lon="14.6508017"><ele>521.0</ele><time>2026-04-09T14:29:09.092Z</time></trkpt><trkpt lat="41.0817117" lon="14.65068"><ele>521.0</ele><time>2026-04-09T14:29:10.092Z</time></trkpt><trkpt lat="41.0816167" lon="14.650555"><ele>520.6</ele><time>2026-04-09T14:29:11.092Z</time></trkpt><trkpt lat="41.0815333" lon="14.65043"><ele>520.2</ele><time>2026-04-09T14:29:12.092Z</time></trkpt><trkpt lat="41.0814583" lon="14.6503183"><ele>519.8</ele><time>2026-04-09T14:29:13.092Z</time></trkpt><trkpt lat="41.08139" lon="14.65022"><ele>519.4</ele><time>2026-04-09T14:29:14.092Z</time></trkpt><trkpt lat="41.0813267" lon="14.6501333"><ele>519.0</ele><time>2026-04-09T14:29:15.092Z</time></trkpt><trkpt lat="41.08126" lon="14.65005"><ele>519.0</ele><time>2026-04-09T14:29:16.092Z</time></trkpt><trkpt lat="41.0811933" lon="14.6499617"><ele>519.0</ele><time>2026-04-09T14:29:17.092Z</time></trkpt><trkpt lat="41.0811167" lon="14.6498783"><ele>519.0</ele><time>2026-04-09T14:29:18.092Z</time></trkpt><trkpt lat="41.0810483" lon="14.6498"><ele>519.0</ele><time>2026-04-09T14:29:19.092Z</time></trkpt><trkpt lat="41.080975" lon="14.6497417"><ele>519.0</ele><time>2026-04-09T14:29:20.092Z</time></trkpt><trkpt lat="41.0809083" lon="14.6496917"><ele>519.0</ele><time>2026-04-09T14:29:21.092Z</time></trkpt><trkpt lat="41.080835" lon="14.6496583"><ele>518.3333333333334</ele><time>2026-04-09T14:29:22.092Z</time></trkpt><trkpt lat="41.080755" lon="14.6496483"><ele>517.6666666666666</ele><time>2026-04-09T14:29:23.092Z</time></trkpt><trkpt lat="41.08067" lon="14.649645"><ele>517.0</ele><time>2026-04-09T14:29:24.092Z</time></trkpt><trkpt lat="41.0805817" lon="14.6496433"><ele>516.3333333333333</ele><time>2026-04-09T14:29:25.092Z</time></trkpt><trkpt lat="41.0804933" lon="14.649645"><ele>515.6666666666666</ele><time>2026-04-09T14:29:26.092Z</time></trkpt><trkpt lat="41.0804017" lon="14.6496483"><ele>515.0</ele><time>2026-04-09T14:29:27.092Z</time></trkpt><trkpt lat="41.0803117" lon="14.6496717"><ele>515.0</ele><time>2026-04-09T14:29:28.092Z</time></trkpt><trkpt lat="41.0802383" lon="14.6497067"><ele>515.0</ele><time>2026-04-09T14:29:29.092Z</time></trkpt><trkpt lat="41.0801617" lon="14.6497583"><ele>515.0</ele><time>2026-04-09T14:29:30.092Z</time></trkpt><trkpt lat="41.08009" lon="14.6498233"><ele>515.0</ele><time>2026-04-09T14:29:31.092Z</time></trkpt><trkpt lat="41.0800167" lon="14.6498883"><ele>515.0</ele><time>2026-04-09T14:29:32.092Z</time></trkpt><trkpt lat="41.0799483" lon="14.6499383"><ele>515.0</ele><time>2026-04-09T14:29:33.092Z</time></trkpt><trkpt lat="41.079875" lon="14.6499767"><ele>513.1666666666666</ele><time>2026-04-09T14:29:34.092Z</time></trkpt><trkpt lat="41.0797967" lon="14.65"><ele>511.3333333333333</ele><time>2026-04-09T14:29:35.092Z</time></trkpt><trkpt lat="41.0797133" lon="14.6500117"><ele>509.5</ele><time>2026-04-09T14:29:36.092Z</time></trkpt><trkpt lat="41.079625" lon="14.650015"><ele>507.66666666666663</ele><time>2026-04-09T14:29:37.092Z</time></trkpt><trkpt lat="41.0795317" lon="14.6500183"><ele>505.8333333333333</ele><time>2026-04-09T14:29:38.092Z</time></trkpt><trkpt lat="41.0794333" lon="14.6500117"><ele>504.0</ele><time>2026-04-09T14:29:39.092Z</time></trkpt><trkpt lat="41.07933" lon="14.6500033"><ele>504.0</ele><time>2026-04-09T14:29:40.092Z</time></trkpt><trkpt lat="41.0792283" lon="14.6499983"><ele>504.0</ele><time>2026-04-09T14:29:41.092Z</time></trkpt><trkpt lat="41.07913" lon="14.649995"><ele>504.0</ele><time>2026-04-09T14:29:42.092Z</time></trkpt><trkpt lat="41.079025" lon="14.6499917"><ele>504.0</ele><time>2026-04-09T14:29:43.092Z</time></trkpt><trkpt lat="41.0789283" lon="14.6499883"><ele>504.0</ele><time>2026-04-09T14:29:44.092Z</time></trkpt><trkpt lat="41.0788283" lon="14.6499833"><ele>500.6</ele><time>2026-04-09T14:29:45.092Z</time></trkpt><trkpt lat="41.0787233" lon="14.64998"><ele>497.2</ele><time>2026-04-09T14:29:46.092Z</time></trkpt><trkpt lat="41.0786283" lon="14.649975"><ele>493.80000000000007</ele><time>2026-04-09T14:29:47.092Z</time></trkpt><trkpt lat="41.0785317" lon="14.64997"><ele>490.40000000000003</ele><time>2026-04-09T14:29:48.092Z</time></trkpt><trkpt lat="41.0784283" lon="14.6499583"><ele>487.0</ele><time>2026-04-09T14:29:49.092Z</time></trkpt><trkpt lat="41.0783267" lon="14.6499433"><ele>483.6</ele><time>2026-04-09T14:29:50.092Z</time></trkpt><trkpt lat="41.0782267" lon="14.64993"><ele>480.20000000000005</ele><time>2026-04-09T14:29:51.092Z</time></trkpt><trkpt lat="41.0781217" lon="14.6499167"><ele>476.8</ele><time>2026-04-09T14:29:52.092Z</time></trkpt><trkpt lat="41.07802" lon="14.64991"><ele>473.4</ele><time>2026-04-09T14:29:53.092Z</time></trkpt><trkpt lat="41.0779183" lon="14.649905"><ele>470.0</ele><time>2026-04-09T14:29:54.092Z</time></trkpt><trkpt lat="41.0778167" lon="14.6499033"><ele>470.0</ele><time>2026-04-09T14:29:55.092Z</time></trkpt><trkpt lat="41.0777183" lon="14.6499133"><ele>470.0</ele><time>2026-04-09T14:29:56.092Z</time></trkpt><trkpt lat="41.0776067" lon="14.6499183"><ele>470.0</ele><time>2026-04-09T14:29:57.092Z</time></trkpt><trkpt lat="41.0774883" lon="14.6499233"><ele>470.0</ele><time>2026-04-09T14:29:58.092Z</time></trkpt><trkpt lat="41.0773667" lon="14.6499167"><ele>466.25</ele><time>2026-04-09T14:29:59.092Z</time></trkpt><trkpt lat="41.0772467" lon="14.6499167"><ele>462.5</ele><time>2026-04-09T14:30:00.092Z</time></trkpt><trkpt lat="41.077125" lon="14.6499167"><ele>458.75</ele><time>2026-04-09T14:30:01.092Z</time></trkpt><trkpt lat="41.0770067" lon="14.6499267"><ele>455.0</ele><time>2026-04-09T14:30:02.092Z</time></trkpt><trkpt lat="41.07689" lon="14.6499333"><ele>455.0</ele><time>2026-04-09T14:30:03.092Z</time></trkpt><trkpt lat="41.0767833" lon="14.64994"><ele>455.0</ele><time>2026-04-09T14:30:04.092Z</time></trkpt><trkpt lat="41.0766833" lon="14.64994"><ele>455.0</ele><time>2026-04-09T14:30:05.092Z</time></trkpt><trkpt lat="41.07659" lon="14.649935"><ele>455.0</ele><time>2026-04-09T14:30:06.092Z</time></trkpt><trkpt lat="41.076495" lon="14.6499267"><ele>455.0</ele><time>2026-04-09T14:30:07.092Z</time></trkpt><trkpt lat="41.0764033" lon="14.6499083"><ele>452.2</ele><time>2026-04-09T14:30:08.092Z</time></trkpt><trkpt lat="41.076305" lon="14.6498867"><ele>449.4</ele><time>2026-04-09T14:30:09.092Z</time></trkpt><trkpt lat="41.0762067" lon="14.64986"><ele>446.6</ele><time>2026-04-09T14:30:10.092Z</time></trkpt><trkpt lat="41.0761167" lon="14.6498183"><ele>443.8</ele><time>2026-04-09T14:30:11.092Z</time></trkpt><trkpt lat="41.0760317" lon="14.6497783"><ele>441.0</ele><time>2026-04-09T14:30:12.092Z</time></trkpt><trkpt lat="41.0759567" lon="14.6497483"><ele>441.0</ele><time>2026-04-09T14:30:13.092Z</time></trkpt><trkpt lat="41.07589" lon="14.6497283"><ele>441.0</ele><time>2026-04-09T14:30:14.092Z</time></trkpt><trkpt lat="41.0758233" lon="14.6497217"><ele>441.0</ele><time>2026-04-09T14:30:15.092Z</time></trkpt><trkpt lat="41.0757167" lon="14.64976"><ele>441.0</ele><time>2026-04-09T14:30:17.092Z</time></trkpt><trkpt lat="41.07565" lon="14.6498083"><ele>441.0</ele><time>2026-04-09T14:30:19.092Z</time></trkpt><trkpt lat="41.0755517" lon="14.64982"><ele>441.0</ele><time>2026-04-09T14:30:22.092Z</time></trkpt><trkpt lat="41.0754417" lon="14.6497783"><ele>439.3333333333333</ele><time>2026-04-09T14:30:24.092Z</time></trkpt><trkpt lat="41.0753817" lon="14.6497417"><ele>437.66666666666663</ele><time>2026-04-09T14:30:25.092Z</time></trkpt><trkpt lat="41.0753067" lon="14.6497067"><ele>436.0</ele><time>2026-04-09T14:30:26.092Z</time></trkpt><trkpt lat="41.0752233" lon="14.6496617"><ele>434.3333333333333</ele><time>2026-04-09T14:30:27.092Z</time></trkpt><trkpt lat="41.0751283" lon="14.6496117"><ele>432.66666666666663</ele><time>2026-04-09T14:30:28.092Z</time></trkpt><trkpt lat="41.0750367" lon="14.6495683"><ele>431.0</ele><time>2026-04-09T14:30:29.092Z</time></trkpt><trkpt lat="41.0749367" lon="14.64952"><ele>430.8</ele><time>2026-04-09T14:30:30.092Z</time></trkpt><trkpt lat="41.074835" lon="14.6494667"><ele>430.6</ele><time>2026-04-09T14:30:31.092Z</time></trkpt><trkpt lat="41.074735" lon="14.6494133"><ele>430.4</ele><time>2026-04-09T14:30:32.092Z</time></trkpt><trkpt lat="41.0746367" lon="14.6493567"><ele>430.2</ele><time>2026-04-09T14:30:33.092Z</time></trkpt><trkpt lat="41.0745433" lon="14.6493083"><ele>430.0</ele><time>2026-04-09T14:30:34.092Z</time></trkpt><trkpt lat="41.0744533" lon="14.6492533"><ele>430.00000000000006</ele><time>2026-04-09T14:30:35.092Z</time></trkpt><trkpt lat="41.0743667" lon="14.6492"><ele>430.0</ele><time>2026-04-09T14:30:36.092Z</time></trkpt><trkpt lat="41.0742867" lon="14.6491533"><ele>430.0</ele><time>2026-04-09T14:30:37.092Z</time></trkpt><trkpt lat="41.0742117" lon="14.64911"><ele>430.0</ele><time>2026-04-09T14:30:38.092Z</time></trkpt><trkpt lat="41.074145" lon="14.649075"><ele>430.00000000000006</ele><time>2026-04-09T14:30:39.092Z</time></trkpt><trkpt lat="41.07407" lon="14.6490467"><ele>430.0</ele><time>2026-04-09T14:30:40.092Z</time></trkpt><trkpt lat="41.074" lon="14.649005"><ele>428.2</ele><time>2026-04-09T14:30:41.092Z</time></trkpt><trkpt lat="41.07393" lon="14.6489367"><ele>426.4</ele><time>2026-04-09T14:30:42.092Z</time></trkpt><trkpt lat="41.0738617" lon="14.648845"><ele>424.6</ele><time>2026-04-09T14:30:43.092Z</time></trkpt><trkpt lat="41.073795" lon="14.64875"><ele>422.8</ele><time>2026-04-09T14:30:44.092Z</time></trkpt><trkpt lat="41.07373" lon="14.648655"><ele>421.0</ele><time>2026-04-09T14:30:45.092Z</time></trkpt><trkpt lat="41.0736667" lon="14.6485733"><ele>421.0</ele><time>2026-04-09T14:30:46.092Z</time></trkpt><trkpt lat="41.073595" lon="14.6485"><ele>421.0</ele><time>2026-04-09T14:30:47.092Z</time></trkpt><trkpt lat="41.073515" lon="14.6484333"><ele>421.0</ele><time>2026-04-09T14:30:48.092Z</time></trkpt><trkpt lat="41.0734183" lon="14.6483733"><ele>421.0</ele><time>2026-04-09T14:30:49.092Z</time></trkpt><trkpt lat="41.0733183" lon="14.648315"><ele>421.0</ele><time>2026-04-09T14:30:50.092Z</time></trkpt><trkpt lat="41.073225" lon="14.6482667"><ele>420.0</ele><time>2026-04-09T14:30:51.093Z</time></trkpt><trkpt lat="41.073135" lon="14.6482133"><ele>419.0</ele><time>2026-04-09T14:30:52.092Z</time></trkpt><trkpt lat="41.07304" lon="14.648155"><ele>418.0</ele><time>2026-04-09T14:30:53.092Z</time></trkpt><trkpt lat="41.0729367" lon="14.6481033"><ele>417.0</ele><time>2026-04-09T14:30:54.092Z</time></trkpt><trkpt lat="41.0728383" lon="14.6480417"><ele>416.0</ele><time>2026-04-09T14:30:55.092Z</time></trkpt><trkpt lat="41.0727367" lon="14.6479933"><ele>416.0</ele><time>2026-04-09T14:30:56.092Z</time></trkpt><trkpt lat="41.0726367" lon="14.6479583"><ele>416.0</ele><time>2026-04-09T14:30:57.092Z</time></trkpt><trkpt lat="41.0725333" lon="14.64793"><ele>416.0</ele><time>2026-04-09T14:30:58.092Z</time></trkpt><trkpt lat="41.0724317" lon="14.6479067"><ele>416.0</ele><time>2026-04-09T14:30:59.092Z</time></trkpt><trkpt lat="41.07233" lon="14.6478867"><ele>416.0</ele><time>2026-04-09T14:31:00.092Z</time></trkpt><trkpt lat="41.0722417" lon="14.6478517"><ele>414.8333333333333</ele><time>2026-04-09T14:31:01.092Z</time></trkpt><trkpt lat="41.0721667" lon="14.647795"><ele>413.66666666666663</ele><time>2026-04-09T14:31:02.092Z</time></trkpt><trkpt lat="41.0720967" lon="14.647735"><ele>412.5</ele><time>2026-04-09T14:31:03.092Z</time></trkpt><trkpt lat="41.07204" lon="14.6476733"><ele>411.33333333333337</ele><time>2026-04-09T14:31:04.093Z</time></trkpt><trkpt lat="41.0719783" lon="14.6476117"><ele>410.1666666666667</ele><time>2026-04-09T14:31:05.092Z</time></trkpt><trkpt lat="41.0719183" lon="14.6475567"><ele>409.0</ele><time>2026-04-09T14:31:06.092Z</time></trkpt><trkpt lat="41.0718617" lon="14.6474967"><ele>409.0</ele><time>2026-04-09T14:31:07.092Z</time></trkpt><trkpt lat="41.0718017" lon="14.6474267"><ele>409.0</ele><time>2026-04-09T14:31:08.092Z</time></trkpt><trkpt lat="41.0717417" lon="14.6473367"><ele>409.0</ele><time>2026-04-09T14:31:09.092Z</time></trkpt><trkpt lat="41.071685" lon="14.6472383"><ele>409.0</ele><time>2026-04-09T14:31:10.092Z</time></trkpt><trkpt lat="41.0716317" lon="14.6471333"><ele>409.0</ele><time>2026-04-09T14:31:11.092Z</time></trkpt><trkpt lat="41.07158" lon="14.6470283"><ele>405.1666666666667</ele><time>2026-04-09T14:31:12.092Z</time></trkpt><trkpt lat="41.071535" lon="14.6469283"><ele>401.33333333333337</ele><time>2026-04-09T14:31:13.092Z</time></trkpt><trkpt lat="41.071495" lon="14.6468383"><ele>397.5</ele><time>2026-04-09T14:31:14.092Z</time></trkpt><trkpt lat="41.07146" lon="14.646765"><ele>393.66666666666663</ele><time>2026-04-09T14:31:15.092Z</time></trkpt><trkpt lat="41.07142" lon="14.64669"><ele>389.8333333333333</ele><time>2026-04-09T14:31:16.092Z</time></trkpt><trkpt lat="41.0713733" lon="14.64661"><ele>386.0</ele><time>2026-04-09T14:31:17.092Z</time></trkpt><trkpt lat="41.0713217" lon="14.6465117"><ele>385.99999999999994</ele><time>2026-04-09T14:31:18.092Z</time></trkpt><trkpt lat="41.0712767" lon="14.6464117"><ele>386.0</ele><time>2026-04-09T14:31:19.092Z</time></trkpt><trkpt lat="41.0712333" lon="14.646305"><ele>386.0</ele><time>2026-04-09T14:31:20.092Z</time></trkpt><trkpt lat="41.0711917" lon="14.6461983"><ele>386.0</ele><time>2026-04-09T14:31:21.092Z</time></trkpt><trkpt lat="41.071155" lon="14.64609"><ele>385.99999999999994</ele><time>2026-04-09T14:31:22.092Z</time></trkpt><trkpt lat="41.0711217" lon="14.64598"><ele>386.0</ele><time>2026-04-09T14:31:23.092Z</time></trkpt><trkpt lat="41.0710867" lon="14.6458767"><ele>385.66666666666663</ele><time>2026-04-09T14:31:24.092Z</time></trkpt><trkpt lat="41.0710517" lon="14.6457733"><ele>385.3333333333333</ele><time>2026-04-09T14:31:25.092Z</time></trkpt><trkpt lat="41.0710183" lon="14.6456667"><ele>385.0</ele><time>2026-04-09T14:31:26.092Z</time></trkpt><trkpt lat="41.0709883" lon="14.64557"><ele>384.66666666666663</ele><time>2026-04-09T14:31:27.092Z</time></trkpt><trkpt lat="41.0709533" lon="14.6454833"><ele>384.3333333333333</ele><time>2026-04-09T14:31:28.092Z</time></trkpt><trkpt lat="41.0709233" lon="14.6453983"><ele>384.0</ele><time>2026-04-09T14:31:29.092Z</time></trkpt><trkpt lat="41.0708683" lon="14.6452767"><ele>383.0</ele><time>2026-04-09T14:31:31.092Z</time></trkpt><trkpt lat="41.0708217" lon="14.645155"><ele>382.0</ele><time>2026-04-09T14:31:33.092Z</time></trkpt><trkpt lat="41.0707817" lon="14.644995"><ele>381.0</ele><time>2026-04-09T14:31:35.092Z</time></trkpt><trkpt lat="41.07075" lon="14.6448667"><ele>380.0</ele><time>2026-04-09T14:31:37.092Z</time></trkpt><trkpt lat="41.0707017" lon="14.6447883"><ele>379.0</ele><time>2026-04-09T14:31:39.092Z</time></trkpt><trkpt lat="41.070605" lon="14.6447783"><ele>377.66666666666663</ele><time>2026-04-09T14:31:41.092Z</time></trkpt><trkpt lat="41.0704783" lon="14.644795"><ele>376.3333333333333</ele><time>2026-04-09T14:31:43.092Z</time></trkpt><trkpt lat="41.0704017" lon="14.64479"><ele>375.0</ele><time>2026-04-09T14:31:44.092Z</time></trkpt><trkpt lat="41.070325" lon="14.64477"><ele>373.6666666666667</ele><time>2026-04-09T14:31:45.092Z</time></trkpt><trkpt lat="41.0702467" lon="14.64476"><ele>372.33333333333337</ele><time>2026-04-09T14:31:46.092Z</time></trkpt><trkpt lat="41.0701617" lon="14.6447567"><ele>371.0</ele><time>2026-04-09T14:31:47.092Z</time></trkpt><trkpt lat="41.0700667" lon="14.64476"><ele>371.0</ele><time>2026-04-09T14:31:48.092Z</time></trkpt><trkpt lat="41.06997" lon="14.6447633"><ele>371.0</ele><time>2026-04-09T14:31:49.092Z</time></trkpt><trkpt lat="41.0698717" lon="14.644775"><ele>371.0</ele><time>2026-04-09T14:31:50.092Z</time></trkpt><trkpt lat="41.06978" lon="14.6447883"><ele>371.0</ele><time>2026-04-09T14:31:51.092Z</time></trkpt><trkpt lat="41.0696967" lon="14.64481"><ele>371.0</ele><time>2026-04-09T14:31:52.092Z</time></trkpt><trkpt lat="41.0696167" lon="14.64487"><ele>371.0</ele><time>2026-04-09T14:31:53.092Z</time></trkpt><trkpt lat="41.0695417" lon="14.6449417"><ele>371.0</ele><time>2026-04-09T14:31:54.092Z</time></trkpt><trkpt lat="41.0694667" lon="14.6450317"><ele>371.0</ele><time>2026-04-09T14:31:55.092Z</time></trkpt><trkpt lat="41.0693933" lon="14.645115"><ele>371.0</ele><time>2026-04-09T14:31:56.092Z</time></trkpt><trkpt lat="41.069325" lon="14.64518"><ele>371.0</ele><time>2026-04-09T14:31:57.092Z</time></trkpt><trkpt lat="41.069255" lon="14.6452167"><ele>371.0</ele><time>2026-04-09T14:31:58.092Z</time></trkpt><trkpt lat="41.0691833" lon="14.64522"><ele>368.5</ele><time>2026-04-09T14:31:59.092Z</time></trkpt><trkpt lat="41.0691083" lon="14.645185"><ele>366.0</ele><time>2026-04-09T14:32:00.092Z</time></trkpt><trkpt lat="41.0690367" lon="14.6451183"><ele>363.5</ele><time>2026-04-09T14:32:01.092Z</time></trkpt><trkpt lat="41.0689717" lon="14.6450467"><ele>361.0</ele><time>2026-04-09T14:32:02.092Z</time></trkpt><trkpt lat="41.068915" lon="14.6449783"><ele>358.5</ele><time>2026-04-09T14:32:03.092Z</time></trkpt><trkpt lat="41.0688583" lon="14.644915"><ele>356.0</ele><time>2026-04-09T14:32:04.092Z</time></trkpt><trkpt lat="41.0688" lon="14.6448683"><ele>356.0</ele><time>2026-04-09T14:32:05.092Z</time></trkpt><trkpt lat="41.06874" lon="14.6448133"><ele>356.0</ele><time>2026-04-09T14:32:06.092Z</time></trkpt><trkpt lat="41.06868" lon="14.644755"><ele>356.0</ele><time>2026-04-09T14:32:07.092Z</time></trkpt><trkpt lat="41.0686233" lon="14.644705"><ele>356.0</ele><time>2026-04-09T14:32:08.092Z</time></trkpt><trkpt lat="41.0685317" lon="14.6446367"><ele>356.0</ele><time>2026-04-09T14:32:10.092Z</time></trkpt><trkpt lat="41.0684583" lon="14.6445667"><ele>356.0</ele><time>2026-04-09T14:32:12.092Z</time></trkpt><trkpt lat="41.0683917" lon="14.6445233"><ele>356.5</ele><time>2026-04-09T14:32:14.092Z</time></trkpt><trkpt lat="41.0683067" lon="14.6444483"><ele>357.0</ele><time>2026-04-09T14:32:17.092Z</time></trkpt><trkpt lat="41.0682417" lon="14.6444"><ele>357.5</ele><time>2026-04-09T14:32:19.092Z</time></trkpt><trkpt lat="41.0681767" lon="14.6444133"><ele>358.0</ele><time>2026-04-09T14:32:21.092Z</time></trkpt><trkpt lat="41.0681383" lon="14.6443467"><ele>358.5</ele><time>2026-04-09T14:32:35.092Z</time></trkpt><trkpt lat="41.068075" lon="14.64427"><ele>359.0</ele><time>2026-04-09T14:32:41.092Z</time></trkpt><trkpt lat="41.0679833" lon="14.64425"><ele>359.0</ele><time>2026-04-09T14:32:44.092Z</time></trkpt><trkpt lat="41.0679033" lon="14.64422"><ele>359.0</ele><time>2026-04-09T14:32:47.092Z</time></trkpt><trkpt lat="41.0678233" lon="14.64419"><ele>359.0</ele><time>2026-04-09T14:32:50.092Z</time></trkpt><trkpt lat="41.067745" lon="14.6442183"><ele>359.0</ele><time>2026-04-09T14:32:52.092Z</time></trkpt><trkpt lat="41.0676417" lon="14.6442633"><ele>359.0</ele><time>2026-04-09T14:32:54.092Z</time></trkpt><trkpt lat="41.0675117" lon="14.644275"><ele>359.0</ele><time>2026-04-09T14:32:56.092Z</time></trkpt><trkpt lat="41.067445" lon="14.644275"><ele>359.0</ele><time>2026-04-09T14:32:57.092Z</time></trkpt><trkpt lat="41.06738" lon="14.644265"><ele>359.0</ele><time>2026-04-09T14:32:58.092Z</time></trkpt><trkpt lat="41.067255" lon="14.64426"><ele>359.0</ele><time>2026-04-09T14:33:00.092Z</time></trkpt><trkpt lat="41.067135" lon="14.6443"><ele>359.0</ele><time>2026-04-09T14:33:02.092Z</time></trkpt><trkpt lat="41.0670617" lon="14.6443167"><ele>356.6666666666667</ele><time>2026-04-09T14:33:03.092Z</time></trkpt><trkpt lat="41.0669817" lon="14.6443467"><ele>354.33333333333337</ele><time>2026-04-09T14:33:04.092Z</time></trkpt><trkpt lat="41.0669" lon="14.6443733"><ele>352.0</ele><time>2026-04-09T14:33:05.092Z</time></trkpt><trkpt lat="41.0668183" lon="14.64441"><ele>349.6666666666667</ele><time>2026-04-09T14:33:06.092Z</time></trkpt><trkpt lat="41.066735" lon="14.644445"><ele>347.3333333333333</ele><time>2026-04-09T14:33:07.092Z</time></trkpt><trkpt lat="41.0666467" lon="14.6444717"><ele>345.0</ele><time>2026-04-09T14:33:08.092Z</time></trkpt><trkpt lat="41.0665633" lon="14.644495"><ele>341.8333333333333</ele><time>2026-04-09T14:33:09.092Z</time></trkpt><trkpt lat="41.0664817" lon="14.64451"><ele>338.6666666666667</ele><time>2026-04-09T14:33:10.092Z</time></trkpt><trkpt lat="41.066395" lon="14.6445117"><ele>335.5</ele><time>2026-04-09T14:33:11.092Z</time></trkpt><trkpt lat="41.06631" lon="14.6445117"><ele>332.33333333333337</ele><time>2026-04-09T14:33:12.092Z</time></trkpt><trkpt lat="41.0662233" lon="14.644505"><ele>329.1666666666667</ele><time>2026-04-09T14:33:13.092Z</time></trkpt><trkpt lat="41.0661317" lon="14.6444983"><ele>326.0</ele><time>2026-04-09T14:33:14.092Z</time></trkpt><trkpt lat="41.0660433" lon="14.6444833"><ele>326.0</ele><time>2026-04-09T14:33:15.092Z</time></trkpt><trkpt lat="41.06596" lon="14.644475"><ele>326.0</ele><time>2026-04-09T14:33:16.092Z</time></trkpt><trkpt lat="41.0658833" lon="14.6444633"><ele>326.0</ele><time>2026-04-09T14:33:17.092Z</time></trkpt><trkpt lat="41.0658133" lon="14.64445"><ele>326.0</ele><time>2026-04-09T14:33:18.092Z</time></trkpt><trkpt lat="41.0657083" lon="14.6444333"><ele>326.0</ele><time>2026-04-09T14:33:20.092Z</time></trkpt><trkpt lat="41.0656267" lon="14.644455"><ele>326.0</ele><time>2026-04-09T14:33:23.092Z</time></trkpt><trkpt lat="41.065585" lon="14.6445583"><ele>324.5</ele><time>2026-04-09T14:33:25.092Z</time></trkpt><trkpt lat="41.0655417" lon="14.6447117"><ele>323.0</ele><time>2026-04-09T14:33:27.092Z</time></trkpt><trkpt lat="41.065515" lon="14.6447917"><ele>321.5</ele><time>2026-04-09T14:33:28.092Z</time></trkpt><trkpt lat="41.0654817" lon="14.64487"><ele>320.0</ele><time>2026-04-09T14:33:29.092Z</time></trkpt><trkpt lat="41.065435" lon="14.644945"><ele>318.5</ele><time>2026-04-09T14:33:30.092Z</time></trkpt><trkpt lat="41.065385" lon="14.645015"><ele>317.0</ele><time>2026-04-09T14:33:31.092Z</time></trkpt><trkpt lat="41.0653267" lon="14.6450767"><ele>317.0</ele><time>2026-04-09T14:33:32.092Z</time></trkpt><trkpt lat="41.065265" lon="14.6451467"><ele>317.0</ele><time>2026-04-09T14:33:33.092Z</time></trkpt><trkpt lat="41.065205" lon="14.6452133"><ele>317.0</ele><time>2026-04-09T14:33:34.092Z</time></trkpt><trkpt lat="41.06515" lon="14.64529"><ele>317.0</ele><time>2026-04-09T14:33:35.092Z</time></trkpt><trkpt lat="41.0650867" lon="14.6453683"><ele>317.0</ele><time>2026-04-09T14:33:36.092Z</time></trkpt><trkpt lat="41.0650167" lon="14.64544"><ele>317.0</ele><time>2026-04-09T14:33:37.092Z</time></trkpt><trkpt lat="41.0649533" lon="14.6455133"><ele>315.83333333333337</ele><time>2026-04-09T14:33:38.092Z</time></trkpt><trkpt lat="41.0648983" lon="14.6455717"><ele>314.6666666666667</ele><time>2026-04-09T14:33:39.092Z</time></trkpt><trkpt lat="41.0648483" lon="14.645625"><ele>313.5</ele><time>2026-04-09T14:33:40.092Z</time></trkpt><trkpt lat="41.06477" lon="14.6456917"><ele>312.3333333333333</ele><time>2026-04-09T14:33:42.092Z</time></trkpt><trkpt lat="41.0646867" lon="14.6457167"><ele>311.16666666666663</ele><time>2026-04-09T14:34:00.092Z</time></trkpt><trkpt lat="41.06464" lon="14.6456567"><ele>310.0</ele><time>2026-04-09T14:34:02.092Z</time></trkpt><trkpt lat="41.064595" lon="14.6455567"><ele>310.0</ele><time>2026-04-09T14:34:04.092Z</time></trkpt><trkpt lat="41.0645383" lon="14.64545"><ele>310.0</ele><time>2026-04-09T14:34:06.092Z</time></trkpt><trkpt lat="41.064475" lon="14.6453617"><ele>310.0</ele><time>2026-04-09T14:34:08.092Z</time></trkpt><trkpt lat="41.064395" lon="14.6452617"><ele>310.0</ele><time>2026-04-09T14:34:10.092Z</time></trkpt><trkpt lat="41.0643233" lon="14.6451667"><ele>310.0</ele><time>2026-04-09T14:34:16.092Z</time></trkpt><trkpt lat="41.0642417" lon="14.645055"><ele>310.16666666666663</ele><time>2026-04-09T14:34:18.092Z</time></trkpt><trkpt lat="41.0641567" lon="14.64494"><ele>310.3333333333333</ele><time>2026-04-09T14:34:20.092Z</time></trkpt><trkpt lat="41.0641133" lon="14.6448717"><ele>310.5</ele><time>2026-04-09T14:34:21.092Z</time></trkpt><trkpt lat="41.0640633" lon="14.644805"><ele>310.6666666666667</ele><time>2026-04-09T14:34:22.092Z</time></trkpt><trkpt lat="41.0640183" lon="14.6447317"><ele>310.83333333333337</ele><time>2026-04-09T14:34:23.092Z</time></trkpt><trkpt lat="41.0639717" lon="14.6446667"><ele>311.0</ele><time>2026-04-09T14:34:24.092Z</time></trkpt><trkpt lat="41.0639267" lon="14.6446083"><ele>309.8</ele><time>2026-04-09T14:34:25.092Z</time></trkpt><trkpt lat="41.0638533" lon="14.6445033"><ele>308.6</ele><time>2026-04-09T14:34:27.092Z</time></trkpt><trkpt lat="41.063775" lon="14.6444133"><ele>307.4</ele><time>2026-04-09T14:34:29.092Z</time></trkpt><trkpt lat="41.0636817" lon="14.6444317"><ele>306.2</ele><time>2026-04-09T14:34:31.092Z</time></trkpt><trkpt lat="41.0635667" lon="14.64448"><ele>305.0</ele><time>2026-04-09T14:34:33.092Z</time></trkpt><trkpt lat="41.063505" lon="14.644505"><ele>305.0</ele><time>2026-04-09T14:34:34.092Z</time></trkpt><trkpt lat="41.063405" lon="14.6445417"><ele>305.0</ele><time>2026-04-09T14:34:36.092Z</time></trkpt><trkpt lat="41.06331" lon="14.6445833"><ele>305.0</ele><time>2026-04-09T14:34:38.092Z</time></trkpt><trkpt lat="41.0632067" lon="14.6446267"><ele>305.0</ele><time>2026-04-09T14:34:40.092Z</time></trkpt><trkpt lat="41.0631033" lon="14.6446717"><ele>305.0</ele><time>2026-04-09T14:34:42.092Z</time></trkpt><trkpt lat="41.0630133" lon="14.6447133"><ele>304.33333333333337</ele><time>2026-04-09T14:34:44.092Z</time></trkpt><trkpt lat="41.062935" lon="14.644745"><ele>303.6666666666667</ele><time>2026-04-09T14:34:46.092Z</time></trkpt><trkpt lat="41.062855" lon="14.6447767"><ele>303.0</ele><time>2026-04-09T14:34:48.092Z</time></trkpt><trkpt lat="41.062775" lon="14.6448117"><ele>302.3333333333333</ele><time>2026-04-09T14:34:50.092Z</time></trkpt><trkpt lat="41.0626933" lon="14.6448483"><ele>301.66666666666663</ele><time>2026-04-09T14:34:52.092Z</time></trkpt><trkpt lat="41.0625933" lon="14.644875"><ele>301.0</ele><time>2026-04-09T14:34:54.092Z</time></trkpt><trkpt lat="41.0624983" lon="14.6449"><ele>301.0</ele><time>2026-04-09T14:34:56.092Z</time></trkpt><trkpt lat="41.0624" lon="14.6449183"><ele>301.0</ele><time>2026-04-09T14:34:58.092Z</time></trkpt><trkpt lat="41.06229" lon="14.64494"><ele>301.0</ele><time>2026-04-09T14:35:00.092Z</time></trkpt><trkpt lat="41.062215" lon="14.6450417"><ele>301.0</ele><time>2026-04-09T14:35:02.092Z</time></trkpt><trkpt lat="41.06217" lon="14.6451717"><ele>301.0</ele><time>2026-04-09T14:35:04.092Z</time></trkpt><trkpt lat="41.0621283" lon="14.6453067"><ele>301.0</ele><time>2026-04-09T14:35:06.092Z</time></trkpt><trkpt lat="41.0620917" lon="14.6454367"><ele>301.0</ele><time>2026-04-09T14:35:08.092Z</time></trkpt><trkpt lat="41.0620567" lon="14.6455733"><ele>301.0</ele><time>2026-04-09T14:35:10.092Z</time></trkpt><trkpt lat="41.0620317" lon="14.645695"><ele>301.0</ele><time>2026-04-09T14:35:12.092Z</time></trkpt><trkpt lat="41.0620117" lon="14.6457767"><ele>301.0</ele><time>2026-04-09T14:35:14.092Z</time></trkpt><trkpt lat="41.0620067" lon="14.6459217"><ele>301.0</ele><time>2026-04-09T14:35:28.092Z</time></trkpt><trkpt lat="41.0619517" lon="14.6459783"><ele>301.0</ele><time>2026-04-09T14:35:30.092Z</time></trkpt><trkpt lat="41.06184" lon="14.6460117"><ele>301.0</ele><time>2026-04-09T14:35:32.092Z</time></trkpt><trkpt lat="41.0617283" lon="14.646065"><ele>301.0</ele><time>2026-04-09T14:35:34.092Z</time></trkpt><trkpt lat="41.0616317" lon="14.6461133"><ele>301.0</ele><time>2026-04-09T14:35:36.092Z</time></trkpt><trkpt lat="41.0615467" lon="14.6461633"><ele>300.40000000000003</ele><time>2026-04-09T14:35:38.092Z</time></trkpt><trkpt lat="41.0614367" lon="14.646205"><ele>299.8</ele><time>2026-04-09T14:35:40.092Z</time></trkpt><trkpt lat="41.061335" lon="14.64626"><ele>299.20000000000005</ele><time>2026-04-09T14:35:42.092Z</time></trkpt><trkpt lat="41.0612317" lon="14.646295"><ele>298.6</ele><time>2026-04-09T14:35:44.092Z</time></trkpt><trkpt lat="41.061135" lon="14.6463267"><ele>298.0</ele><time>2026-04-09T14:35:46.092Z</time></trkpt><trkpt lat="41.0610267" lon="14.6463633"><ele>298.0</ele><time>2026-04-09T14:35:48.092Z</time></trkpt><trkpt lat="41.060905" lon="14.6463867"><ele>298.0</ele><time>2026-04-09T14:35:50.092Z</time></trkpt><trkpt lat="41.0607883" lon="14.6464017"><ele>298.0</ele><time>2026-04-09T14:35:52.092Z</time></trkpt><trkpt lat="41.060675" lon="14.6463967"><ele>298.0</ele><time>2026-04-09T14:35:54.092Z</time></trkpt><trkpt lat="41.0605667" lon="14.6463867"><ele>297.4</ele><time>2026-04-09T14:35:56.092Z</time></trkpt><trkpt lat="41.0604667" lon="14.646365"><ele>296.8</ele><time>2026-04-09T14:35:58.092Z</time></trkpt><trkpt lat="41.06038" lon="14.646345"><ele>296.2</ele><time>2026-04-09T14:36:00.092Z</time></trkpt><trkpt lat="41.060285" lon="14.64633"><ele>295.6</ele><time>2026-04-09T14:36:02.092Z</time></trkpt><trkpt lat="41.0601917" lon="14.646315"><ele>295.0</ele><time>2026-04-09T14:36:04.092Z</time></trkpt><trkpt lat="41.0601217" lon="14.6462867"><ele>295.0</ele><time>2026-04-09T14:36:06.092Z</time></trkpt><trkpt lat="41.06004" lon="14.646275"><ele>295.0</ele><time>2026-04-09T14:36:12.092Z</time></trkpt><trkpt lat="41.0599633" lon="14.646245"><ele>295.0</ele><time>2026-04-09T14:36:20.092Z</time></trkpt><trkpt lat="41.059895" lon="14.6462167"><ele>295.0</ele><time>2026-04-09T14:36:22.092Z</time></trkpt><trkpt lat="41.0598317" lon="14.646245"><ele>295.0</ele><time>2026-04-09T14:36:24.092Z</time></trkpt><trkpt lat="41.0597833" lon="14.6463483"><ele>295.0</ele><time>2026-04-09T14:36:26.092Z</time></trkpt><trkpt lat="41.0597533" lon="14.646425"><ele>294.4</ele><time>2026-04-09T14:36:27.092Z</time></trkpt><trkpt lat="41.0597167" lon="14.64652"><ele>293.8</ele><time>2026-04-09T14:36:28.092Z</time></trkpt><trkpt lat="41.0596683" lon="14.6466167"><ele>293.2</ele><time>2026-04-09T14:36:29.092Z</time></trkpt><trkpt lat="41.0596233" lon="14.6467117"><ele>292.6</ele><time>2026-04-09T14:36:30.092Z</time></trkpt><trkpt lat="41.0595717" lon="14.6468233"><ele>292.0</ele><time>2026-04-09T14:36:31.092Z</time></trkpt><trkpt lat="41.0595167" lon="14.6469367"><ele>292.0</ele><time>2026-04-09T14:36:32.092Z</time></trkpt><trkpt lat="41.0594617" lon="14.6470617"><ele>292.0</ele><time>2026-04-09T14:36:33.092Z</time></trkpt><trkpt lat="41.0594083" lon="14.6471883"><ele>292.0</ele><time>2026-04-09T14:36:34.092Z</time></trkpt><trkpt lat="41.0593483" lon="14.6473183"><ele>292.0</ele><time>2026-04-09T14:36:35.092Z</time></trkpt><trkpt lat="41.0592933" lon="14.647445"><ele>292.0</ele><time>2026-04-09T14:36:36.092Z</time></trkpt><trkpt lat="41.0592383" lon="14.647575"><ele>292.0</ele><time>2026-04-09T14:36:37.092Z</time></trkpt><trkpt lat="41.0591783" lon="14.647715"><ele>292.0</ele><time>2026-04-09T14:36:38.092Z</time></trkpt><trkpt lat="41.059115" lon="14.6478567"><ele>292.0</ele><time>2026-04-09T14:36:39.092Z</time></trkpt><trkpt lat="41.0590533" lon="14.648"><ele>292.0</ele><time>2026-04-09T14:36:40.092Z</time></trkpt><trkpt lat="41.0589867" lon="14.6481417"><ele>292.0</ele><time>2026-04-09T14:36:41.092Z</time></trkpt><trkpt lat="41.0589267" lon="14.64829"><ele>292.0</ele><time>2026-04-09T14:36:42.092Z</time></trkpt><trkpt lat="41.058865" lon="14.648435"><ele>292.0</ele><time>2026-04-09T14:36:43.092Z</time></trkpt><trkpt lat="41.0588017" lon="14.64857"><ele>292.0</ele><time>2026-04-09T14:36:44.092Z</time></trkpt><trkpt lat="41.058745" lon="14.648695"><ele>292.5</ele><time>2026-04-09T14:36:45.092Z</time></trkpt><trkpt lat="41.0586933" lon="14.64882"><ele>293.0</ele><time>2026-04-09T14:36:46.092Z</time></trkpt><trkpt lat="41.05864" lon="14.6489483"><ele>293.5</ele><time>2026-04-09T14:36:47.092Z</time></trkpt><trkpt lat="41.0585817" lon="14.6490817"><ele>294.0</ele><time>2026-04-09T14:36:48.092Z</time></trkpt><trkpt lat="41.058525" lon="14.6492283"><ele>294.0</ele><time>2026-04-09T14:36:49.092Z</time></trkpt><trkpt lat="41.058455" lon="14.6493883"><ele>294.0</ele><time>2026-04-09T14:36:50.092Z</time></trkpt><trkpt lat="41.0583767" lon="14.64955"><ele>294.0</ele><time>2026-04-09T14:36:51.092Z</time></trkpt><trkpt lat="41.0583117" lon="14.6497167"><ele>294.0</ele><time>2026-04-09T14:36:52.092Z</time></trkpt><trkpt lat="41.0582417" lon="14.6498783"><ele>294.0</ele><time>2026-04-09T14:36:53.092Z</time></trkpt><trkpt lat="41.05817" lon="14.6500383"><ele>294.0</ele><time>2026-04-09T14:36:54.092Z</time></trkpt><trkpt lat="41.0580967" lon="14.6502033"><ele>294.0</ele><time>2026-04-09T14:36:55.092Z</time></trkpt><trkpt lat="41.058025" lon="14.650375"><ele>294.0</ele><time>2026-04-09T14:36:56.092Z</time></trkpt><trkpt lat="41.0579583" lon="14.650545"><ele>294.0</ele><time>2026-04-09T14:36:57.092Z</time></trkpt><trkpt lat="41.0578933" lon="14.6507033"><ele>294.0</ele><time>2026-04-09T14:36:58.092Z</time></trkpt><trkpt lat="41.0578267" lon="14.65085"><ele>294.0</ele><time>2026-04-09T14:36:59.092Z</time></trkpt><trkpt lat="41.0577683" lon="14.650975"><ele>294.0</ele><time>2026-04-09T14:37:00.092Z</time></trkpt><trkpt lat="41.0577183" lon="14.6510883"><ele>293.8</ele><time>2026-04-09T14:37:01.092Z</time></trkpt><trkpt lat="41.05767" lon="14.651185"><ele>293.59999999999997</ele><time>2026-04-09T14:37:02.092Z</time></trkpt><trkpt lat="41.05763" lon="14.651265"><ele>293.4</ele><time>2026-04-09T14:37:03.092Z</time></trkpt><trkpt lat="41.0575933" lon="14.65134"><ele>293.2</ele><time>2026-04-09T14:37:04.092Z</time></trkpt><trkpt lat="41.05754" lon="14.6514667"><ele>293.0</ele><time>2026-04-09T14:37:06.092Z</time></trkpt><trkpt lat="41.0574783" lon="14.6516"><ele>292.6666666666667</ele><time>2026-04-09T14:37:08.092Z</time></trkpt><trkpt lat="41.0574367" lon="14.651675"><ele>292.33333333333337</ele><time>2026-04-09T14:37:09.092Z</time></trkpt><trkpt lat="41.0574" lon="14.6517667"><ele>292.0</ele><time>2026-04-09T14:37:10.092Z</time></trkpt><trkpt lat="41.0573617" lon="14.65187"><ele>291.6666666666667</ele><time>2026-04-09T14:37:11.092Z</time></trkpt><trkpt lat="41.05731" lon="14.651985"><ele>291.3333333333333</ele><time>2026-04-09T14:37:12.092Z</time></trkpt><trkpt lat="41.0572583" lon="14.6521167"><ele>291.0</ele><time>2026-04-09T14:37:13.092Z</time></trkpt><trkpt lat="41.0572" lon="14.6522517"><ele>291.0</ele><time>2026-04-09T14:37:14.092Z</time></trkpt><trkpt lat="41.0571383" lon="14.652385"><ele>291.0</ele><time>2026-04-09T14:37:15.092Z</time></trkpt><trkpt lat="41.057075" lon="14.6525217"><ele>291.0</ele><time>2026-04-09T14:37:16.092Z</time></trkpt><trkpt lat="41.05701" lon="14.65266"><ele>291.0</ele><time>2026-04-09T14:37:17.092Z</time></trkpt><trkpt lat="41.0569483" lon="14.6528017"><ele>290.75</ele><time>2026-04-09T14:37:18.092Z</time></trkpt><trkpt lat="41.0568867" lon="14.6529483"><ele>290.5</ele><time>2026-04-09T14:37:19.092Z</time></trkpt><trkpt lat="41.0568233" lon="14.6531"><ele>290.25</ele><time>2026-04-09T14:37:20.092Z</time></trkpt><trkpt lat="41.0567633" lon="14.6532517"><ele>290.0</ele><time>2026-04-09T14:37:21.092Z</time></trkpt><trkpt lat="41.056695" lon="14.6534033"><ele>290.0</ele><time>2026-04-09T14:37:22.092Z</time></trkpt><trkpt lat="41.0566367" lon="14.6535633"><ele>290.0</ele><time>2026-04-09T14:37:23.092Z</time></trkpt><trkpt lat="41.0565717" lon="14.653715"><ele>290.0</ele><time>2026-04-09T14:37:24.092Z</time></trkpt><trkpt lat="41.0564983" lon="14.6538717"><ele>290.0</ele><time>2026-04-09T14:37:25.092Z</time></trkpt><trkpt lat="41.0564267" lon="14.65403"><ele>290.0</ele><time>2026-04-09T14:37:26.092Z</time></trkpt><trkpt lat="41.0563567" lon="14.6541917"><ele>290.0</ele><time>2026-04-09T14:37:27.092Z</time></trkpt><trkpt lat="41.05628" lon="14.6543517"><ele>290.0</ele><time>2026-04-09T14:37:28.092Z</time></trkpt><trkpt lat="41.0562017" lon="14.6545167"><ele>290.0</ele><time>2026-04-09T14:37:29.092Z</time></trkpt><trkpt lat="41.056125" lon="14.6546883"><ele>290.0</ele><time>2026-04-09T14:37:30.092Z</time></trkpt><trkpt lat="41.05605" lon="14.6548583"><ele>290.0</ele><time>2026-04-09T14:37:31.092Z</time></trkpt><trkpt lat="41.0559667" lon="14.6550283"><ele>290.0</ele><time>2026-04-09T14:37:32.092Z</time></trkpt><trkpt lat="41.0558933" lon="14.6552017"><ele>290.25</ele><time>2026-04-09T14:37:33.092Z</time></trkpt><trkpt lat="41.0558117" lon="14.655375"><ele>290.5</ele><time>2026-04-09T14:37:34.092Z</time></trkpt><trkpt lat="41.0557383" lon="14.6555433"><ele>290.75</ele><time>2026-04-09T14:37:35.092Z</time></trkpt><trkpt lat="41.0556717" lon="14.6556967"><ele>291.0</ele><time>2026-04-09T14:37:36.092Z</time></trkpt><trkpt lat="41.0556083" lon="14.6558433"><ele>290.75</ele><time>2026-04-09T14:37:37.092Z</time></trkpt><trkpt lat="41.05554" lon="14.6559883"><ele>290.5</ele><time>2026-04-09T14:37:38.092Z</time></trkpt><trkpt lat="41.0554683" lon="14.656135"><ele>290.25</ele><time>2026-04-09T14:37:39.092Z</time></trkpt><trkpt lat="41.0554033" lon="14.6562817"><ele>290.0</ele><time>2026-04-09T14:37:40.092Z</time></trkpt><trkpt lat="41.055335" lon="14.6564267"><ele>290.0</ele><time>2026-04-09T14:37:41.092Z</time></trkpt><trkpt lat="41.0552733" lon="14.656575"><ele>290.0</ele><time>2026-04-09T14:37:42.092Z</time></trkpt><trkpt lat="41.055215" lon="14.6567133"><ele>290.0</ele><time>2026-04-09T14:37:43.092Z</time></trkpt><trkpt lat="41.055155" lon="14.6568417"><ele>290.0</ele><time>2026-04-09T14:37:44.092Z</time></trkpt><trkpt lat="41.0550983" lon="14.656955"><ele>290.33333333333337</ele><time>2026-04-09T14:37:45.092Z</time></trkpt><trkpt lat="41.0550483" lon="14.6570483"><ele>290.6666666666667</ele><time>2026-04-09T14:37:46.092Z</time></trkpt><trkpt lat="41.0550033" lon="14.6571133"><ele>291.0</ele><time>2026-04-09T14:37:47.092Z</time></trkpt><trkpt lat="41.0549433" lon="14.6571617"><ele>291.3333333333333</ele><time>2026-04-09T14:37:48.092Z</time></trkpt><trkpt lat="41.0548717" lon="14.6572033"><ele>291.66666666666663</ele><time>2026-04-09T14:37:49.092Z</time></trkpt><trkpt lat="41.05481" lon="14.65725"><ele>292.0</ele><time>2026-04-09T14:37:50.092Z</time></trkpt><trkpt lat="41.0547433" lon="14.6573333"><ele>292.0</ele><time>2026-04-09T14:37:52.092Z</time></trkpt><trkpt lat="41.05473" lon="14.6574583"><ele>292.0</ele><time>2026-04-09T14:37:54.092Z</time></trkpt><trkpt lat="41.0547217" lon="14.65755"><ele>292.0</ele><time>2026-04-09T14:37:55.092Z</time></trkpt><trkpt lat="41.0547117" lon="14.65766"><ele>292.0</ele><time>2026-04-09T14:37:56.092Z</time></trkpt><trkpt lat="41.0546967" lon="14.6577767"><ele>292.0</ele><time>2026-04-09T14:37:57.092Z</time></trkpt><trkpt lat="41.0546683" lon="14.6578983"><ele>292.0</ele><time>2026-04-09T14:37:58.092Z</time></trkpt><trkpt lat="41.05462" lon="14.6580267"><ele>292.25</ele><time>2026-04-09T14:37:59.092Z</time></trkpt><trkpt lat="41.0545617" lon="14.6581683"><ele>292.5</ele><time>2026-04-09T14:38:00.092Z</time></trkpt><trkpt lat="41.0544967" lon="14.6583133"><ele>292.75</ele><time>2026-04-09T14:38:01.092Z</time></trkpt><trkpt lat="41.0544383" lon="14.658455"><ele>293.0</ele><time>2026-04-09T14:38:02.092Z</time></trkpt><trkpt lat="41.05438" lon="14.6585933"><ele>293.25</ele><time>2026-04-09T14:38:03.092Z</time></trkpt><trkpt lat="41.0543183" lon="14.65874"><ele>293.5</ele><time>2026-04-09T14:38:04.092Z</time></trkpt><trkpt lat="41.05425" lon="14.658885"><ele>293.75</ele><time>2026-04-09T14:38:05.092Z</time></trkpt><trkpt lat="41.05418" lon="14.6590317"><ele>294.0</ele><time>2026-04-09T14:38:06.092Z</time></trkpt><trkpt lat="41.0541117" lon="14.6591833"><ele>293.3333333333333</ele><time>2026-04-09T14:38:07.092Z</time></trkpt><trkpt lat="41.05404" lon="14.659345"><ele>292.66666666666663</ele><time>2026-04-09T14:38:08.092Z</time></trkpt><trkpt lat="41.0539667" lon="14.65952"><ele>292.0</ele><time>2026-04-09T14:38:09.092Z</time></trkpt><trkpt lat="41.053885" lon="14.6596983"><ele>292.0</ele><time>2026-04-09T14:38:10.092Z</time></trkpt><trkpt lat="41.05381" lon="14.6598767"><ele>292.0</ele><time>2026-04-09T14:38:11.092Z</time></trkpt><trkpt lat="41.0537333" lon="14.66005"><ele>292.0</ele><time>2026-04-09T14:38:12.092Z</time></trkpt><trkpt lat="41.0536583" lon="14.6602283"><ele>292.25</ele><time>2026-04-09T14:38:13.092Z</time></trkpt><trkpt lat="41.0535817" lon="14.6604017"><ele>292.5</ele><time>2026-04-09T14:38:14.092Z</time></trkpt><trkpt lat="41.05351" lon="14.66057"><ele>292.75</ele><time>2026-04-09T14:38:15.092Z</time></trkpt><trkpt lat="41.053445" lon="14.6607333"><ele>293.0</ele><time>2026-04-09T14:38:16.092Z</time></trkpt><trkpt lat="41.0533717" lon="14.660895"><ele>293.0</ele><time>2026-04-09T14:38:17.092Z</time></trkpt><trkpt lat="41.0532933" lon="14.6610567"><ele>293.0</ele><time>2026-04-09T14:38:18.092Z</time></trkpt><trkpt lat="41.0532183" lon="14.6612233"><ele>293.0</ele><time>2026-04-09T14:38:19.092Z</time></trkpt><trkpt lat="41.0531383" lon="14.6613983"><ele>293.0</ele><time>2026-04-09T14:38:20.092Z</time></trkpt><trkpt lat="41.0530617" lon="14.6615783"><ele>292.6666666666667</ele><time>2026-04-09T14:38:21.092Z</time></trkpt><trkpt lat="41.0529817" lon="14.6617633"><ele>292.3333333333333</ele><time>2026-04-09T14:38:22.092Z</time></trkpt><trkpt lat="41.052905" lon="14.6619467"><ele>292.0</ele><time>2026-04-09T14:38:23.092Z</time></trkpt><trkpt lat="41.0528233" lon="14.6621317"><ele>293.0</ele><time>2026-04-09T14:38:24.092Z</time></trkpt><trkpt lat="41.0527383" lon="14.662315"><ele>294.0</ele><time>2026-04-09T14:38:25.092Z</time></trkpt><trkpt lat="41.0526483" lon="14.6625"><ele>295.0</ele><time>2026-04-09T14:38:26.092Z</time></trkpt><trkpt lat="41.0525583" lon="14.662675"><ele>295.3333333333333</ele><time>2026-04-09T14:38:27.092Z</time></trkpt><trkpt lat="41.0524783" lon="14.6628567"><ele>295.6666666666667</ele><time>2026-04-09T14:38:28.092Z</time></trkpt><trkpt lat="41.0523967" lon="14.66304"><ele>296.0</ele><time>2026-04-09T14:38:29.092Z</time></trkpt><trkpt lat="41.0523133" lon="14.663225"><ele>296.33333333333337</ele><time>2026-04-09T14:38:30.092Z</time></trkpt><trkpt lat="41.052225" lon="14.66341"><ele>296.6666666666667</ele><time>2026-04-09T14:38:31.092Z</time></trkpt><trkpt lat="41.052145" lon="14.6636017"><ele>297.0</ele><time>2026-04-09T14:38:32.092Z</time></trkpt><trkpt lat="41.0520533" lon="14.6637933"><ele>297.0</ele><time>2026-04-09T14:38:33.092Z</time></trkpt><trkpt lat="41.05196" lon="14.66398"><ele>297.0</ele><time>2026-04-09T14:38:34.092Z</time></trkpt><trkpt lat="41.051865" lon="14.66416"><ele>297.0</ele><time>2026-04-09T14:38:35.092Z</time></trkpt><trkpt lat="41.0517683" lon="14.664335"><ele>296.6666666666667</ele><time>2026-04-09T14:38:36.092Z</time></trkpt><trkpt lat="41.051655" lon="14.6644967"><ele>296.33333333333337</ele><time>2026-04-09T14:38:37.092Z</time></trkpt><trkpt lat="41.0515317" lon="14.6646467"><ele>296.0</ele><time>2026-04-09T14:38:38.092Z</time></trkpt><trkpt lat="41.0514" lon="14.6647817"><ele>296.0</ele><time>2026-04-09T14:38:39.092Z</time></trkpt><trkpt lat="41.0512633" lon="14.6649083"><ele>296.0</ele><time>2026-04-09T14:38:40.092Z</time></trkpt><trkpt lat="41.0511117" lon="14.6650217"><ele>296.0</ele><time>2026-04-09T14:38:41.092Z</time></trkpt><trkpt lat="41.05096" lon="14.665135"><ele>296.0</ele><time>2026-04-09T14:38:42.092Z</time></trkpt><trkpt lat="41.0508" lon="14.6652383"><ele>296.0</ele><time>2026-04-09T14:38:43.092Z</time></trkpt><trkpt lat="41.0506417" lon="14.6653283"><ele>296.0</ele><time>2026-04-09T14:38:44.092Z</time></trkpt><trkpt lat="41.0504883" lon="14.66543"><ele>295.33333333333337</ele><time>2026-04-09T14:38:45.092Z</time></trkpt><trkpt lat="41.0503383" lon="14.6655133"><ele>294.6666666666667</ele><time>2026-04-09T14:38:46.092Z</time></trkpt><trkpt lat="41.0501817" lon="14.6656067"><ele>294.0</ele><time>2026-04-09T14:38:47.092Z</time></trkpt><trkpt lat="41.0500367" lon="14.6657"><ele>292.3333333333333</ele><time>2026-04-09T14:38:48.092Z</time></trkpt><trkpt lat="41.0498967" lon="14.665795"><ele>290.66666666666663</ele><time>2026-04-09T14:38:49.092Z</time></trkpt><trkpt lat="41.049755" lon="14.6658883"><ele>289.0</ele><time>2026-04-09T14:38:50.092Z</time></trkpt><trkpt lat="41.0496267" lon="14.6659933"><ele>289.0</ele><time>2026-04-09T14:38:51.092Z</time></trkpt><trkpt lat="41.0495033" lon="14.6661"><ele>289.0</ele><time>2026-04-09T14:38:52.092Z</time></trkpt><trkpt lat="41.049385" lon="14.6662183"><ele>289.0</ele><time>2026-04-09T14:38:53.092Z</time></trkpt><trkpt lat="41.0492767" lon="14.666345"><ele>289.0</ele><time>2026-04-09T14:38:54.092Z</time></trkpt><trkpt lat="41.049165" lon="14.6664767"><ele>289.0</ele><time>2026-04-09T14:38:55.092Z</time></trkpt><trkpt lat="41.0490583" lon="14.6666267"><ele>289.0</ele><time>2026-04-09T14:38:56.092Z</time></trkpt><trkpt lat="41.04896" lon="14.6667783"><ele>289.0</ele><time>2026-04-09T14:38:57.092Z</time></trkpt><trkpt lat="41.0488633" lon="14.66694"><ele>289.66666666666663</ele><time>2026-04-09T14:38:58.092Z</time></trkpt><trkpt lat="41.048775" lon="14.66711"><ele>290.3333333333333</ele><time>2026-04-09T14:38:59.092Z</time></trkpt><trkpt lat="41.0486967" lon="14.6672867"><ele>291.0</ele><time>2026-04-09T14:39:00.092Z</time></trkpt><trkpt lat="41.0486267" lon="14.6674717"><ele>291.0</ele><time>2026-04-09T14:39:01.092Z</time></trkpt><trkpt lat="41.0485617" lon="14.6676567"><ele>291.0</ele><time>2026-04-09T14:39:02.092Z</time></trkpt><trkpt lat="41.0485083" lon="14.6678467"><ele>291.0</ele><time>2026-04-09T14:39:03.092Z</time></trkpt><trkpt lat="41.048465" lon="14.6680433"><ele>290.3333333333333</ele><time>2026-04-09T14:39:04.092Z</time></trkpt><trkpt lat="41.0484317" lon="14.6682433"><ele>289.66666666666663</ele><time>2026-04-09T14:39:05.092Z</time></trkpt><trkpt lat="41.0484117" lon="14.6684417"><ele>289.0</ele><time>2026-04-09T14:39:06.092Z</time></trkpt><trkpt lat="41.0483967" lon="14.6686433"><ele>287.3333333333333</ele><time>2026-04-09T14:39:07.092Z</time></trkpt><trkpt lat="41.0483933" lon="14.6688617"><ele>285.6666666666667</ele><time>2026-04-09T14:39:08.092Z</time></trkpt><trkpt lat="41.0483883" lon="14.6690783"><ele>284.0</ele><time>2026-04-09T14:39:09.092Z</time></trkpt><trkpt lat="41.0483917" lon="14.669295"><ele>282.6666666666667</ele><time>2026-04-09T14:39:10.092Z</time></trkpt><trkpt lat="41.0483983" lon="14.6695083"><ele>281.3333333333333</ele><time>2026-04-09T14:39:11.092Z</time></trkpt><trkpt lat="41.0484067" lon="14.6697133"><ele>280.0</ele><time>2026-04-09T14:39:12.092Z</time></trkpt><trkpt lat="41.0484083" lon="14.66992"><ele>280.0</ele><time>2026-04-09T14:39:13.092Z</time></trkpt><trkpt lat="41.04841" lon="14.6701267"><ele>280.0</ele><time>2026-04-09T14:39:14.092Z</time></trkpt><trkpt lat="41.0484183" lon="14.670335"><ele>280.0</ele><time>2026-04-09T14:39:15.092Z</time></trkpt><trkpt lat="41.0484217" lon="14.670545"><ele>279.3333333333333</ele><time>2026-04-09T14:39:16.092Z</time></trkpt><trkpt lat="41.0484283" lon="14.6707533"><ele>278.6666666666667</ele><time>2026-04-09T14:39:17.092Z</time></trkpt><trkpt lat="41.0484417" lon="14.6709583"><ele>278.0</ele><time>2026-04-09T14:39:18.092Z</time></trkpt><trkpt lat="41.0484517" lon="14.671155"><ele>277.6666666666667</ele><time>2026-04-09T14:39:19.092Z</time></trkpt><trkpt lat="41.048475" lon="14.6713533"><ele>277.3333333333333</ele><time>2026-04-09T14:39:20.092Z</time></trkpt><trkpt lat="41.0485033" lon="14.6715417"><ele>277.0</ele><time>2026-04-09T14:39:21.092Z</time></trkpt><trkpt lat="41.04855" lon="14.6717383"><ele>277.0</ele><time>2026-04-09T14:39:22.092Z</time></trkpt><trkpt lat="41.0486033" lon="14.6719383"><ele>277.0</ele><time>2026-04-09T14:39:23.092Z</time></trkpt><trkpt lat="41.0486617" lon="14.67213"><ele>277.0</ele><time>2026-04-09T14:39:24.092Z</time></trkpt><trkpt lat="41.048715" lon="14.6723217"><ele>276.3333333333333</ele><time>2026-04-09T14:39:25.092Z</time></trkpt><trkpt lat="41.04879" lon="14.6725067"><ele>275.6666666666667</ele><time>2026-04-09T14:39:26.092Z</time></trkpt><trkpt lat="41.048865" lon="14.6726917"><ele>275.0</ele><time>2026-04-09T14:39:27.092Z</time></trkpt><trkpt lat="41.0489483" lon="14.67288"><ele>274.6666666666667</ele><time>2026-04-09T14:39:28.092Z</time></trkpt><trkpt lat="41.04905" lon="14.6730633"><ele>274.3333333333333</ele><time>2026-04-09T14:39:29.092Z</time></trkpt><trkpt lat="41.049165" lon="14.6732317"><ele>274.0</ele><time>2026-04-09T14:39:30.092Z</time></trkpt><trkpt lat="41.0492767" lon="14.6733933"><ele>272.66666666666663</ele><time>2026-04-09T14:39:31.092Z</time></trkpt><trkpt lat="41.0493967" lon="14.6735467"><ele>271.3333333333333</ele><time>2026-04-09T14:39:32.092Z</time></trkpt><trkpt lat="41.04951" lon="14.6736817"><ele>270.0</ele><time>2026-04-09T14:39:33.092Z</time></trkpt><trkpt lat="41.049655" lon="14.6738017"><ele>270.0</ele><time>2026-04-09T14:39:34.092Z</time></trkpt><trkpt lat="41.049795" lon="14.67392"><ele>270.0</ele><time>2026-04-09T14:39:35.092Z</time></trkpt><trkpt lat="41.0499283" lon="14.6740417"><ele>270.0</ele><time>2026-04-09T14:39:36.092Z</time></trkpt><trkpt lat="41.0500633" lon="14.674175"><ele>268.6666666666667</ele><time>2026-04-09T14:39:37.092Z</time></trkpt><trkpt lat="41.0501983" lon="14.674305"><ele>267.33333333333337</ele><time>2026-04-09T14:39:38.092Z</time></trkpt><trkpt lat="41.0503367" lon="14.6744433"><ele>266.0</ele><time>2026-04-09T14:39:39.092Z</time></trkpt><trkpt lat="41.0504683" lon="14.674585"><ele>266.0</ele><time>2026-04-09T14:39:40.092Z</time></trkpt><trkpt lat="41.0505967" lon="14.6747317"><ele>266.0</ele><time>2026-04-09T14:39:41.092Z</time></trkpt><trkpt lat="41.0507217" lon="14.67489"><ele>266.0</ele><time>2026-04-09T14:39:42.092Z</time></trkpt><trkpt lat="41.0508367" lon="14.6750567"><ele>261.33333333333337</ele><time>2026-04-09T14:39:43.092Z</time></trkpt><trkpt lat="41.05095" lon="14.6752233"><ele>256.6666666666667</ele><time>2026-04-09T14:39:44.092Z</time></trkpt><trkpt lat="41.05106" lon="14.6754017"><ele>252.0</ele><time>2026-04-09T14:39:45.092Z</time></trkpt><trkpt lat="41.05116" lon="14.6755883"><ele>252.0</ele><time>2026-04-09T14:39:46.092Z</time></trkpt><trkpt lat="41.0512583" lon="14.6757767"><ele>252.0</ele><time>2026-04-09T14:39:47.092Z</time></trkpt><trkpt lat="41.0513533" lon="14.6759767"><ele>252.0</ele><time>2026-04-09T14:39:48.092Z</time></trkpt><trkpt lat="41.051445" lon="14.6761717"><ele>253.0</ele><time>2026-04-09T14:39:49.092Z</time></trkpt><trkpt lat="41.0515383" lon="14.6763583"><ele>254.0</ele><time>2026-04-09T14:39:50.092Z</time></trkpt><trkpt lat="41.0516333" lon="14.6765467"><ele>255.0</ele><time>2026-04-09T14:39:51.092Z</time></trkpt><trkpt lat="41.05174" lon="14.67674"><ele>251.66666666666669</ele><time>2026-04-09T14:39:52.092Z</time></trkpt><trkpt lat="41.05185" lon="14.676925"><ele>248.33333333333334</ele><time>2026-04-09T14:39:53.092Z</time></trkpt><trkpt lat="41.0519733" lon="14.6771233"><ele>245.0</ele><time>2026-04-09T14:39:54.092Z</time></trkpt><trkpt lat="41.052105" lon="14.677305"><ele>245.0</ele><time>2026-04-09T14:39:55.092Z</time></trkpt><trkpt lat="41.0522467" lon="14.677475"><ele>245.0</ele><time>2026-04-09T14:39:56.092Z</time></trkpt><trkpt lat="41.0523867" lon="14.6776267"><ele>245.0</ele><time>2026-04-09T14:39:57.092Z</time></trkpt><trkpt lat="41.05253" lon="14.6777717"><ele>241.0</ele><time>2026-04-09T14:39:58.092Z</time></trkpt><trkpt lat="41.0526667" lon="14.6779167"><ele>237.0</ele><time>2026-04-09T14:39:59.092Z</time></trkpt><trkpt lat="41.052795" lon="14.6780633"><ele>233.0</ele><time>2026-04-09T14:40:00.092Z</time></trkpt><trkpt lat="41.0529033" lon="14.678215"><ele>233.0</ele><time>2026-04-09T14:40:01.092Z</time></trkpt><trkpt lat="41.0530117" lon="14.6783717"><ele>233.0</ele><time>2026-04-09T14:40:02.092Z</time></trkpt><trkpt lat="41.0531067" lon="14.6785383"><ele>233.0</ele><time>2026-04-09T14:40:03.092Z</time></trkpt><trkpt lat="41.0531967" lon="14.6787083"><ele>234.33333333333334</ele><time>2026-04-09T14:40:04.092Z</time></trkpt><trkpt lat="41.0532733" lon="14.6788867"><ele>235.66666666666669</ele><time>2026-04-09T14:40:05.092Z</time></trkpt><trkpt lat="41.0533417" lon="14.6790633"><ele>237.0</ele><time>2026-04-09T14:40:06.092Z</time></trkpt><trkpt lat="41.0534033" lon="14.679255"><ele>232.33333333333331</ele><time>2026-04-09T14:40:07.092Z</time></trkpt><trkpt lat="41.0534533" lon="14.67945"><ele>227.66666666666666</ele><time>2026-04-09T14:40:08.092Z</time></trkpt><trkpt lat="41.053485" lon="14.679655"><ele>223.0</ele><time>2026-04-09T14:40:09.092Z</time></trkpt><trkpt lat="41.0535067" lon="14.67987"><ele>223.0</ele><time>2026-04-09T14:40:10.092Z</time></trkpt><trkpt lat="41.0535133" lon="14.6800933"><ele>223.0</ele><time>2026-04-09T14:40:11.092Z</time></trkpt><trkpt lat="41.0535067" lon="14.68033"><ele>223.0</ele><time>2026-04-09T14:40:12.092Z</time></trkpt><trkpt lat="41.053485" lon="14.6805783"><ele>222.33333333333331</ele><time>2026-04-09T14:40:13.092Z</time></trkpt><trkpt lat="41.053455" lon="14.6808267"><ele>221.66666666666669</ele><time>2026-04-09T14:40:14.092Z</time></trkpt><trkpt lat="41.0534283" lon="14.68107"><ele>221.0</ele><time>2026-04-09T14:40:15.092Z</time></trkpt><trkpt lat="41.0534133" lon="14.6813117"><ele>220.33333333333334</ele><time>2026-04-09T14:40:16.092Z</time></trkpt><trkpt lat="41.0533983" lon="14.6815533"><ele>219.66666666666669</ele><time>2026-04-09T14:40:17.092Z</time></trkpt><trkpt lat="41.0534" lon="14.6818033"><ele>219.0</ele><time>2026-04-09T14:40:18.092Z</time></trkpt><trkpt lat="41.053415" lon="14.6820467"><ele>218.66666666666669</ele><time>2026-04-09T14:40:19.092Z</time></trkpt><trkpt lat="41.0534367" lon="14.6822783"><ele>218.33333333333334</ele><time>2026-04-09T14:40:20.092Z</time></trkpt><trkpt lat="41.0534667" lon="14.682505"><ele>218.0</ele><time>2026-04-09T14:40:21.092Z</time></trkpt><trkpt lat="41.0535017" lon="14.6827333"><ele>218.0</ele><time>2026-04-09T14:40:22.092Z</time></trkpt><trkpt lat="41.0535317" lon="14.682955"><ele>218.0</ele><time>2026-04-09T14:40:23.092Z</time></trkpt><trkpt lat="41.0535617" lon="14.6831667"><ele>218.0</ele><time>2026-04-09T14:40:24.092Z</time></trkpt><trkpt lat="41.0535933" lon="14.683375"><ele>218.0</ele><time>2026-04-09T14:40:25.092Z</time></trkpt><trkpt lat="41.0536233" lon="14.6835733"><ele>218.0</ele><time>2026-04-09T14:40:26.092Z</time></trkpt><trkpt lat="41.0536517" lon="14.68376"><ele>218.0</ele><time>2026-04-09T14:40:27.092Z</time></trkpt><trkpt lat="41.0536867" lon="14.6839483"><ele>218.0</ele><time>2026-04-09T14:40:28.092Z</time></trkpt><trkpt lat="41.053725" lon="14.6841333"><ele>218.0</ele><time>2026-04-09T14:40:29.092Z</time></trkpt><trkpt lat="41.05377" lon="14.6843233"><ele>218.0</ele><time>2026-04-09T14:40:30.092Z</time></trkpt><trkpt lat="41.05381" lon="14.6845167"><ele>218.0</ele><time>2026-04-09T14:40:31.092Z</time></trkpt><trkpt lat="41.053855" lon="14.6847033"><ele>218.0</ele><time>2026-04-09T14:40:32.092Z</time></trkpt><trkpt lat="41.0539033" lon="14.684875"><ele>218.0</ele><time>2026-04-09T14:40:33.092Z</time></trkpt><trkpt lat="41.05395" lon="14.68504"><ele>218.0</ele><time>2026-04-09T14:40:34.092Z</time></trkpt><trkpt lat="41.0540017" lon="14.6851983"><ele>218.0</ele><time>2026-04-09T14:40:35.092Z</time></trkpt><trkpt lat="41.054055" lon="14.68536"><ele>218.0</ele><time>2026-04-09T14:40:36.092Z</time></trkpt><trkpt lat="41.0541133" lon="14.6855333"><ele>217.25</ele><time>2026-04-09T14:40:37.092Z</time></trkpt><trkpt lat="41.05417" lon="14.6857033"><ele>216.5</ele><time>2026-04-09T14:40:38.092Z</time></trkpt><trkpt lat="41.05423" lon="14.6858817"><ele>215.75</ele><time>2026-04-09T14:40:39.092Z</time></trkpt><trkpt lat="41.05429" lon="14.6860667"><ele>215.0</ele><time>2026-04-09T14:40:40.092Z</time></trkpt><trkpt lat="41.054345" lon="14.6862617"><ele>215.0</ele><time>2026-04-09T14:40:41.092Z</time></trkpt><trkpt lat="41.0543967" lon="14.6864717"><ele>215.0</ele><time>2026-04-09T14:40:42.092Z</time></trkpt><trkpt lat="41.0544367" lon="14.6866833"><ele>215.0</ele><time>2026-04-09T14:40:43.092Z</time></trkpt><trkpt lat="41.054465" lon="14.68688"><ele>214.5</ele><time>2026-04-09T14:40:44.092Z</time></trkpt><trkpt lat="41.0544867" lon="14.6870633"><ele>214.0</ele><time>2026-04-09T14:40:45.092Z</time></trkpt><trkpt lat="41.0545017" lon="14.687235"><ele>213.5</ele><time>2026-04-09T14:40:46.092Z</time></trkpt><trkpt lat="41.0545217" lon="14.6874117"><ele>213.0</ele><time>2026-04-09T14:40:47.092Z</time></trkpt><trkpt lat="41.0545467" lon="14.6875833"><ele>213.0</ele><time>2026-04-09T14:40:48.092Z</time></trkpt><trkpt lat="41.0545667" lon="14.6877567"><ele>213.0</ele><time>2026-04-09T14:40:49.092Z</time></trkpt><trkpt lat="41.0545917" lon="14.687935"><ele>213.0</ele><time>2026-04-09T14:40:50.092Z</time></trkpt><trkpt lat="41.054615" lon="14.6881"><ele>213.0</ele><time>2026-04-09T14:40:51.092Z</time></trkpt><trkpt lat="41.0546317" lon="14.6882533"><ele>212.60000000000002</ele><time>2026-04-09T14:40:52.092Z</time></trkpt><trkpt lat="41.05465" lon="14.6883983"><ele>212.20000000000002</ele><time>2026-04-09T14:40:53.092Z</time></trkpt><trkpt lat="41.0546633" lon="14.6885417"><ele>211.8</ele><time>2026-04-09T14:40:54.092Z</time></trkpt><trkpt lat="41.0546833" lon="14.68868"><ele>211.4</ele><time>2026-04-09T14:40:55.092Z</time></trkpt><trkpt lat="41.0546967" lon="14.688815"><ele>211.0</ele><time>2026-04-09T14:40:56.092Z</time></trkpt><trkpt lat="41.0547133" lon="14.68896"><ele>210.4</ele><time>2026-04-09T14:40:57.092Z</time></trkpt><trkpt lat="41.0547267" lon="14.6891"><ele>209.8</ele><time>2026-04-09T14:40:58.092Z</time></trkpt><trkpt lat="41.05474" lon="14.6892417"><ele>209.20000000000002</ele><time>2026-04-09T14:40:59.092Z</time></trkpt><trkpt lat="41.0547617" lon="14.6893867"><ele>208.60000000000002</ele><time>2026-04-09T14:41:00.092Z</time></trkpt><trkpt lat="41.05478" lon="14.689525"><ele>208.0</ele><time>2026-04-09T14:41:01.092Z</time></trkpt><trkpt lat="41.0547983" lon="14.68967"><ele>207.8</ele><time>2026-04-09T14:41:02.092Z</time></trkpt><trkpt lat="41.0548183" lon="14.6898133"><ele>207.60000000000002</ele><time>2026-04-09T14:41:03.092Z</time></trkpt><trkpt lat="41.054835" lon="14.6899583"><ele>207.39999999999998</ele><time>2026-04-09T14:41:04.092Z</time></trkpt><trkpt lat="41.0548533" lon="14.6900983"><ele>207.2</ele><time>2026-04-09T14:41:05.092Z</time></trkpt><trkpt lat="41.0548633" lon="14.6902367"><ele>207.0</ele><time>2026-04-09T14:41:06.092Z</time></trkpt><trkpt lat="41.0548767" lon="14.69038"><ele>207.39999999999998</ele><time>2026-04-09T14:41:07.092Z</time></trkpt><trkpt lat="41.0548933" lon="14.6905217"><ele>207.79999999999998</ele><time>2026-04-09T14:41:08.092Z</time></trkpt><trkpt lat="41.0549067" lon="14.6906567"><ele>208.2</ele><time>2026-04-09T14:41:09.092Z</time></trkpt><trkpt lat="41.054925" lon="14.6907917"><ele>208.6</ele><time>2026-04-09T14:41:10.092Z</time></trkpt><trkpt lat="41.0549383" lon="14.6909333"><ele>209.0</ele><time>2026-04-09T14:41:11.092Z</time></trkpt><trkpt lat="41.0549483" lon="14.6910833"><ele>209.0</ele><time>2026-04-09T14:41:12.092Z</time></trkpt><trkpt lat="41.0549617" lon="14.691235"><ele>209.0</ele><time>2026-04-09T14:41:13.092Z</time></trkpt><trkpt lat="41.0549767" lon="14.6913883"><ele>209.0</ele><time>2026-04-09T14:41:14.092Z</time></trkpt><trkpt lat="41.0549917" lon="14.691545"><ele>209.0</ele><time>2026-04-09T14:41:15.092Z</time></trkpt><trkpt lat="41.055005" lon="14.6917017"><ele>209.0</ele><time>2026-04-09T14:41:16.092Z</time></trkpt><trkpt lat="41.0550167" lon="14.691855"><ele>209.0</ele><time>2026-04-09T14:41:17.092Z</time></trkpt><trkpt lat="41.05503" lon="14.6920133"><ele>209.0</ele><time>2026-04-09T14:41:18.092Z</time></trkpt><trkpt lat="41.0550467" lon="14.69217"><ele>209.0</ele><time>2026-04-09T14:41:19.092Z</time></trkpt><trkpt lat="41.0550617" lon="14.6923217"><ele>208.5</ele><time>2026-04-09T14:41:20.092Z</time></trkpt><trkpt lat="41.0550783" lon="14.6924817"><ele>208.0</ele><time>2026-04-09T14:41:21.092Z</time></trkpt><trkpt lat="41.055095" lon="14.6926383"><ele>207.5</ele><time>2026-04-09T14:41:22.092Z</time></trkpt><trkpt lat="41.0551117" lon="14.6927917"><ele>207.0</ele><time>2026-04-09T14:41:23.092Z</time></trkpt><trkpt lat="41.0551283" lon="14.6929383"><ele>206.8</ele><time>2026-04-09T14:41:24.092Z</time></trkpt><trkpt lat="41.0551433" lon="14.6930817"><ele>206.6</ele><time>2026-04-09T14:41:25.092Z</time></trkpt><trkpt lat="41.05516" lon="14.6932183"><ele>206.4</ele><time>2026-04-09T14:41:26.092Z</time></trkpt><trkpt lat="41.055175" lon="14.69336"><ele>206.20000000000002</ele><time>2026-04-09T14:41:27.092Z</time></trkpt><trkpt lat="41.0551867" lon="14.6934967"><ele>206.0</ele><time>2026-04-09T14:41:28.092Z</time></trkpt><trkpt lat="41.0552017" lon="14.693635"><ele>205.4</ele><time>2026-04-09T14:41:29.092Z</time></trkpt><trkpt lat="41.0552233" lon="14.693775"><ele>204.8</ele><time>2026-04-09T14:41:30.092Z</time></trkpt><trkpt lat="41.055245" lon="14.6939183"><ele>204.20000000000002</ele><time>2026-04-09T14:41:31.092Z</time></trkpt><trkpt lat="41.05527" lon="14.6940633"><ele>203.60000000000002</ele><time>2026-04-09T14:41:32.092Z</time></trkpt><trkpt lat="41.0552883" lon="14.694205"><ele>203.0</ele><time>2026-04-09T14:41:33.092Z</time></trkpt><trkpt lat="41.055315" lon="14.694345"><ele>203.0</ele><time>2026-04-09T14:41:34.092Z</time></trkpt><trkpt lat="41.0553367" lon="14.6944817"><ele>203.0</ele><time>2026-04-09T14:41:35.092Z</time></trkpt><trkpt lat="41.0553617" lon="14.6946183"><ele>203.0</ele><time>2026-04-09T14:41:36.092Z</time></trkpt><trkpt lat="41.05539" lon="14.6947583"><ele>203.0</ele><time>2026-04-09T14:41:37.092Z</time></trkpt><trkpt lat="41.0554167" lon="14.6948983"><ele>203.0</ele><time>2026-04-09T14:41:38.092Z</time></trkpt><trkpt lat="41.055445" lon="14.69504"><ele>203.0</ele><time>2026-04-09T14:41:39.092Z</time></trkpt><trkpt lat="41.0554633" lon="14.6951717"><ele>203.0</ele><time>2026-04-09T14:41:40.092Z</time></trkpt><trkpt lat="41.05549" lon="14.69531"><ele>203.0</ele><time>2026-04-09T14:41:41.092Z</time></trkpt><trkpt lat="41.0555167" lon="14.6954467"><ele>203.0</ele><time>2026-04-09T14:41:42.092Z</time></trkpt><trkpt lat="41.0555433" lon="14.695585"><ele>203.0</ele><time>2026-04-09T14:41:43.092Z</time></trkpt><trkpt lat="41.0555717" lon="14.6957267"><ele>203.0</ele><time>2026-04-09T14:41:44.092Z</time></trkpt><trkpt lat="41.0555917" lon="14.6958667"><ele>203.0</ele><time>2026-04-09T14:41:45.092Z</time></trkpt><trkpt lat="41.055605" lon="14.6960017"><ele>203.0</ele><time>2026-04-09T14:41:46.092Z</time></trkpt><trkpt lat="41.0556267" lon="14.6961467"><ele>203.0</ele><time>2026-04-09T14:41:47.092Z</time></trkpt><trkpt lat="41.0556433" lon="14.6962917"><ele>203.0</ele><time>2026-04-09T14:41:48.092Z</time></trkpt><trkpt lat="41.0556617" lon="14.69644"><ele>203.25</ele><time>2026-04-09T14:41:49.092Z</time></trkpt><trkpt lat="41.05568" lon="14.6965867"><ele>203.5</ele><time>2026-04-09T14:41:50.092Z</time></trkpt><trkpt lat="41.0557017" lon="14.69674"><ele>203.75</ele><time>2026-04-09T14:41:51.092Z</time></trkpt><trkpt lat="41.055715" lon="14.6968883"><ele>204.0</ele><time>2026-04-09T14:41:52.092Z</time></trkpt><trkpt lat="41.0557167" lon="14.6970433"><ele>203.5</ele><time>2026-04-09T14:41:53.092Z</time></trkpt><trkpt lat="41.05569" lon="14.697205"><ele>203.0</ele><time>2026-04-09T14:41:54.092Z</time></trkpt><trkpt lat="41.0556583" lon="14.6973733"><ele>202.5</ele><time>2026-04-09T14:41:55.092Z</time></trkpt><trkpt lat="41.0556183" lon="14.6975367"><ele>202.0</ele><time>2026-04-09T14:41:56.092Z</time></trkpt><trkpt lat="41.0555783" lon="14.6977017"><ele>201.5</ele><time>2026-04-09T14:41:57.092Z</time></trkpt><trkpt lat="41.0555417" lon="14.6978767"><ele>201.0</ele><time>2026-04-09T14:41:58.092Z</time></trkpt><trkpt lat="41.0554967" lon="14.6980533"><ele>200.5</ele><time>2026-04-09T14:41:59.092Z</time></trkpt><trkpt lat="41.0554533" lon="14.6982333"><ele>200.0</ele><time>2026-04-09T14:42:00.092Z</time></trkpt><trkpt lat="41.0554217" lon="14.6984117"><ele>200.0</ele><time>2026-04-09T14:42:01.092Z</time></trkpt><trkpt lat="41.05538" lon="14.6985783"><ele>200.0</ele><time>2026-04-09T14:42:02.092Z</time></trkpt><trkpt lat="41.055345" lon="14.69874"><ele>200.0</ele><time>2026-04-09T14:42:03.092Z</time></trkpt><trkpt lat="41.0553133" lon="14.698895"><ele>200.0</ele><time>2026-04-09T14:42:04.092Z</time></trkpt><trkpt lat="41.0552717" lon="14.6990517"><ele>200.0</ele><time>2026-04-09T14:42:05.092Z</time></trkpt><trkpt lat="41.0552317" lon="14.6992"><ele>200.0</ele><time>2026-04-09T14:42:06.092Z</time></trkpt><trkpt lat="41.0551983" lon="14.6993483"><ele>200.0</ele><time>2026-04-09T14:42:07.092Z</time></trkpt><trkpt lat="41.055175" lon="14.6995"><ele>200.0</ele><time>2026-04-09T14:42:08.092Z</time></trkpt><trkpt lat="41.0551617" lon="14.6996567"><ele>199.5</ele><time>2026-04-09T14:42:09.092Z</time></trkpt><trkpt lat="41.0551483" lon="14.6998167"><ele>199.0</ele><time>2026-04-09T14:42:10.092Z</time></trkpt><trkpt lat="41.055155" lon="14.6999817"><ele>198.5</ele><time>2026-04-09T14:42:11.092Z</time></trkpt><trkpt lat="41.0551617" lon="14.7001433"><ele>198.0</ele><time>2026-04-09T14:42:12.092Z</time></trkpt><trkpt lat="41.0551683" lon="14.700315"><ele>197.5</ele><time>2026-04-09T14:42:13.092Z</time></trkpt><trkpt lat="41.05519" lon="14.7004933"><ele>197.0</ele><time>2026-04-09T14:42:14.092Z</time></trkpt><trkpt lat="41.0552067" lon="14.70067"><ele>196.5</ele><time>2026-04-09T14:42:15.092Z</time></trkpt><trkpt lat="41.05522" lon="14.7008467"><ele>196.0</ele><time>2026-04-09T14:42:16.092Z</time></trkpt><trkpt lat="41.0552317" lon="14.7010217"><ele>195.75</ele><time>2026-04-09T14:42:17.092Z</time></trkpt><trkpt lat="41.0552467" lon="14.701195"><ele>195.5</ele><time>2026-04-09T14:42:18.092Z</time></trkpt><trkpt lat="41.0552583" lon="14.70137"><ele>195.25</ele><time>2026-04-09T14:42:19.092Z</time></trkpt><trkpt lat="41.0552683" lon="14.701545"><ele>195.0</ele><time>2026-04-09T14:42:20.092Z</time></trkpt><trkpt lat="41.0552817" lon="14.70173"><ele>195.0</ele><time>2026-04-09T14:42:21.092Z</time></trkpt><trkpt lat="41.0553017" lon="14.7019117"><ele>195.0</ele><time>2026-04-09T14:42:22.092Z</time></trkpt><trkpt lat="41.0553167" lon="14.702085"><ele>195.0</ele><time>2026-04-09T14:42:23.092Z</time></trkpt><trkpt lat="41.0553283" lon="14.702255"><ele>195.0</ele><time>2026-04-09T14:42:24.092Z</time></trkpt><trkpt lat="41.055345" lon="14.7024133"><ele>195.8</ele><time>2026-04-09T14:42:25.092Z</time></trkpt><trkpt lat="41.0553617" lon="14.7025567"><ele>196.6</ele><time>2026-04-09T14:42:26.092Z</time></trkpt><trkpt lat="41.0553717" lon="14.70269"><ele>197.39999999999998</ele><time>2026-04-09T14:42:27.092Z</time></trkpt><trkpt lat="41.05538" lon="14.7027983"><ele>198.2</ele><time>2026-04-09T14:42:28.092Z</time></trkpt><trkpt lat="41.0553683" lon="14.702925"><ele>199.0</ele><time>2026-04-09T14:42:30.092Z</time></trkpt><trkpt lat="41.055285" lon="14.7028983"><ele>199.0</ele><time>2026-04-09T14:42:32.092Z</time></trkpt><trkpt lat="41.0551883" lon="14.7027933"><ele>199.0</ele><time>2026-04-09T14:42:34.092Z</time></trkpt><trkpt lat="41.0551367" lon="14.7027133"><ele>199.0</ele><time>2026-04-09T14:42:35.092Z</time></trkpt><trkpt lat="41.0550667" lon="14.70265"><ele>199.0</ele><time>2026-04-09T14:42:36.092Z</time></trkpt><trkpt lat="41.054985" lon="14.7026067"><ele>199.0</ele><time>2026-04-09T14:42:37.092Z</time></trkpt><trkpt lat="41.05491" lon="14.7025917"><ele>198.83333333333331</ele><time>2026-04-09T14:42:38.092Z</time></trkpt><trkpt lat="41.0548367" lon="14.7025933"><ele>198.66666666666666</ele><time>2026-04-09T14:42:39.092Z</time></trkpt><trkpt lat="41.0547567" lon="14.7026067"><ele>198.5</ele><time>2026-04-09T14:42:40.092Z</time></trkpt><trkpt lat="41.0546717" lon="14.7026317"><ele>198.33333333333331</ele><time>2026-04-09T14:42:41.092Z</time></trkpt><trkpt lat="41.0545833" lon="14.702655"><ele>198.16666666666666</ele><time>2026-04-09T14:42:42.092Z</time></trkpt><trkpt lat="41.0544983" lon="14.7026733"><ele>198.0</ele><time>2026-04-09T14:42:43.092Z</time></trkpt><trkpt lat="41.0544083" lon="14.702675"><ele>198.0</ele><time>2026-04-09T14:42:44.092Z</time></trkpt><trkpt lat="41.0543183" lon="14.7026633"><ele>198.0</ele><time>2026-04-09T14:42:45.092Z</time></trkpt><trkpt lat="41.0542367" lon="14.7026483"><ele>198.0</ele><time>2026-04-09T14:42:46.092Z</time></trkpt><trkpt lat="41.0541483" lon="14.7026317"><ele>198.0</ele><time>2026-04-09T14:42:47.092Z</time></trkpt><trkpt lat="41.0540533" lon="14.7026117"><ele>198.0</ele><time>2026-04-09T14:42:48.092Z</time></trkpt><trkpt lat="41.0539467" lon="14.7025867"><ele>197.75</ele><time>2026-04-09T14:42:49.092Z</time></trkpt><trkpt lat="41.053835" lon="14.702565"><ele>197.5</ele><time>2026-04-09T14:42:50.092Z</time></trkpt><trkpt lat="41.0537167" lon="14.70253"><ele>197.25</ele><time>2026-04-09T14:42:51.092Z</time></trkpt><trkpt lat="41.0536083" lon="14.7024883"><ele>197.0</ele><time>2026-04-09T14:42:52.092Z</time></trkpt><trkpt lat="41.0534983" lon="14.7024383"><ele>197.0</ele><time>2026-04-09T14:42:53.092Z</time></trkpt><trkpt lat="41.05338" lon="14.7023767"><ele>197.0</ele><time>2026-04-09T14:42:54.092Z</time></trkpt><trkpt lat="41.053265" lon="14.7023067"><ele>197.0</ele><time>2026-04-09T14:42:55.092Z</time></trkpt><trkpt lat="41.0531417" lon="14.702225"><ele>197.0</ele><time>2026-04-09T14:42:56.092Z</time></trkpt><trkpt lat="41.0530183" lon="14.702145"><ele>197.75</ele><time>2026-04-09T14:42:57.092Z</time></trkpt><trkpt lat="41.0529017" lon="14.702065"><ele>198.5</ele><time>2026-04-09T14:42:58.092Z</time></trkpt><trkpt lat="41.0527883" lon="14.7019967"><ele>199.25</ele><time>2026-04-09T14:42:59.092Z</time></trkpt><trkpt lat="41.0526683" lon="14.701935"><ele>200.0</ele><time>2026-04-09T14:43:00.092Z</time></trkpt><trkpt lat="41.0525467" lon="14.7018917"><ele>200.0</ele><time>2026-04-09T14:43:01.092Z</time></trkpt><trkpt lat="41.0524133" lon="14.7018567"><ele>200.0</ele><time>2026-04-09T14:43:02.092Z</time></trkpt><trkpt lat="41.0522733" lon="14.7018417"><ele>200.0</ele><time>2026-04-09T14:43:03.092Z</time></trkpt><trkpt lat="41.0521317" lon="14.7018433"><ele>200.0</ele><time>2026-04-09T14:43:04.092Z</time></trkpt><trkpt lat="41.0519817" lon="14.7018533"><ele>200.0</ele><time>2026-04-09T14:43:05.092Z</time></trkpt><trkpt lat="41.0518267" lon="14.7018633"><ele>200.0</ele><time>2026-04-09T14:43:06.092Z</time></trkpt><trkpt lat="41.0516667" lon="14.701875"><ele>200.0</ele><time>2026-04-09T14:43:07.092Z</time></trkpt><trkpt lat="41.0515083" lon="14.7018683"><ele>200.0</ele><time>2026-04-09T14:43:08.092Z</time></trkpt><trkpt lat="41.0513383" lon="14.7018533"><ele>200.0</ele><time>2026-04-09T14:43:09.092Z</time></trkpt><trkpt lat="41.05116" lon="14.7018267"><ele>200.0</ele><time>2026-04-09T14:43:10.092Z</time></trkpt><trkpt lat="41.0509833" lon="14.7017883"><ele>200.0</ele><time>2026-04-09T14:43:11.092Z</time></trkpt><trkpt lat="41.050815" lon="14.701755"><ele>200.0</ele><time>2026-04-09T14:43:12.092Z</time></trkpt><trkpt lat="41.0506383" lon="14.7017083"><ele>200.0</ele><time>2026-04-09T14:43:13.092Z</time></trkpt><trkpt lat="41.0504633" lon="14.7016667"><ele>200.33333333333334</ele><time>2026-04-09T14:43:14.092Z</time></trkpt><trkpt lat="41.05029" lon="14.701635"><ele>200.66666666666669</ele><time>2026-04-09T14:43:15.092Z</time></trkpt><trkpt lat="41.0501133" lon="14.7016033"><ele>201.0</ele><time>2026-04-09T14:43:16.092Z</time></trkpt><trkpt lat="41.04994" lon="14.7015567"><ele>201.66666666666669</ele><time>2026-04-09T14:43:17.092Z</time></trkpt><trkpt lat="41.0497783" lon="14.701515"><ele>202.33333333333334</ele><time>2026-04-09T14:43:18.092Z</time></trkpt><trkpt lat="41.0496183" lon="14.7014817"><ele>203.0</ele><time>2026-04-09T14:43:19.092Z</time></trkpt><trkpt lat="41.0494617" lon="14.7014417"><ele>203.0</ele><time>2026-04-09T14:43:20.092Z</time></trkpt><trkpt lat="41.0493033" lon="14.7014067"><ele>203.0</ele><time>2026-04-09T14:43:21.092Z</time></trkpt><trkpt lat="41.0491417" lon="14.70137"><ele>203.0</ele><time>2026-04-09T14:43:22.092Z</time></trkpt><trkpt lat="41.0489883" lon="14.701335"><ele>203.0</ele><time>2026-04-09T14:43:23.092Z</time></trkpt><trkpt lat="41.0488333" lon="14.7012983"><ele>203.0</ele><time>2026-04-09T14:43:24.092Z</time></trkpt><trkpt lat="41.0486783" lon="14.7012633"><ele>203.0</ele><time>2026-04-09T14:43:25.092Z</time></trkpt><trkpt lat="41.0485283" lon="14.7012367"><ele>203.0</ele><time>2026-04-09T14:43:26.092Z</time></trkpt><trkpt lat="41.048385" lon="14.7012183"><ele>203.0</ele><time>2026-04-09T14:43:27.092Z</time></trkpt><trkpt lat="41.04824" lon="14.701195"><ele>203.0</ele><time>2026-04-09T14:43:28.092Z</time></trkpt><trkpt lat="41.0480933" lon="14.7011867"><ele>203.0</ele><time>2026-04-09T14:43:29.092Z</time></trkpt><trkpt lat="41.047945" lon="14.7011817"><ele>203.5</ele><time>2026-04-09T14:43:30.092Z</time></trkpt><trkpt lat="41.0477967" lon="14.7011883"><ele>204.0</ele><time>2026-04-09T14:43:31.092Z</time></trkpt><trkpt lat="41.0476567" lon="14.7012017"><ele>204.5</ele><time>2026-04-09T14:43:32.092Z</time></trkpt><trkpt lat="41.0475217" lon="14.70122"><ele>205.0</ele><time>2026-04-09T14:43:33.092Z</time></trkpt><trkpt lat="41.0473933" lon="14.70124"><ele>205.5</ele><time>2026-04-09T14:43:34.092Z</time></trkpt><trkpt lat="41.0472633" lon="14.701255"><ele>206.0</ele><time>2026-04-09T14:43:35.092Z</time></trkpt><trkpt lat="41.0471417" lon="14.7012767"><ele>206.5</ele><time>2026-04-09T14:43:36.092Z</time></trkpt><trkpt lat="41.0470167" lon="14.7012967"><ele>207.0</ele><time>2026-04-09T14:43:37.092Z</time></trkpt><trkpt lat="41.0468833" lon="14.7013217"><ele>207.0</ele><time>2026-04-09T14:43:38.092Z</time></trkpt><trkpt lat="41.046735" lon="14.7013417"><ele>207.0</ele><time>2026-04-09T14:43:39.092Z</time></trkpt><trkpt lat="41.0465867" lon="14.7013717"><ele>207.0</ele><time>2026-04-09T14:43:40.092Z</time></trkpt><trkpt lat="41.0464417" lon="14.7013967"><ele>207.0</ele><time>2026-04-09T14:43:41.092Z</time></trkpt><trkpt lat="41.046305" lon="14.7014267"><ele>207.75</ele><time>2026-04-09T14:43:42.092Z</time></trkpt><trkpt lat="41.0461683" lon="14.7014517"><ele>208.5</ele><time>2026-04-09T14:43:43.092Z</time></trkpt><trkpt lat="41.0460383" lon="14.7014833"><ele>209.25</ele><time>2026-04-09T14:43:44.092Z</time></trkpt><trkpt lat="41.04592" lon="14.70151"><ele>210.0</ele><time>2026-04-09T14:43:45.092Z</time></trkpt><trkpt lat="41.0458033" lon="14.7015367"><ele>210.75</ele><time>2026-04-09T14:43:46.092Z</time></trkpt><trkpt lat="41.045685" lon="14.7015583"><ele>211.5</ele><time>2026-04-09T14:43:47.092Z</time></trkpt><trkpt lat="41.0455633" lon="14.7015817"><ele>212.25</ele><time>2026-04-09T14:43:48.092Z</time></trkpt><trkpt lat="41.0454383" lon="14.7016083"><ele>213.0</ele><time>2026-04-09T14:43:49.092Z</time></trkpt><trkpt lat="41.0453167" lon="14.7016317"><ele>213.0</ele><time>2026-04-09T14:43:50.092Z</time></trkpt><trkpt lat="41.0451917" lon="14.7016583"><ele>213.0</ele><time>2026-04-09T14:43:51.092Z</time></trkpt><trkpt lat="41.045065" lon="14.7016867"><ele>213.0</ele><time>2026-04-09T14:43:52.092Z</time></trkpt><trkpt lat="41.0449433" lon="14.7017083"><ele>213.0</ele><time>2026-04-09T14:43:53.092Z</time></trkpt><trkpt lat="41.0448233" lon="14.701715"><ele>214.75</ele><time>2026-04-09T14:43:54.092Z</time></trkpt><trkpt lat="41.0447067" lon="14.701705"><ele>216.5</ele><time>2026-04-09T14:43:55.092Z</time></trkpt><trkpt lat="41.0445867" lon="14.7016833"><ele>218.25</ele><time>2026-04-09T14:43:56.092Z</time></trkpt><trkpt lat="41.0444633" lon="14.7016483"><ele>220.0</ele><time>2026-04-09T14:43:57.092Z</time></trkpt><trkpt lat="41.044345" lon="14.7015933"><ele>220.0</ele><time>2026-04-09T14:43:58.092Z</time></trkpt><trkpt lat="41.04423" lon="14.7015233"><ele>220.0</ele><time>2026-04-09T14:43:59.092Z</time></trkpt><trkpt lat="41.044115" lon="14.7014333"><ele>220.0</ele><time>2026-04-09T14:44:00.092Z</time></trkpt><trkpt lat="41.0440017" lon="14.70133"><ele>220.0</ele><time>2026-04-09T14:44:01.092Z</time></trkpt><trkpt lat="41.0438917" lon="14.7012217"><ele>219.5</ele><time>2026-04-09T14:44:02.092Z</time></trkpt><trkpt lat="41.0437867" lon="14.70109"><ele>219.0</ele><time>2026-04-09T14:44:03.092Z</time></trkpt><trkpt lat="41.0436767" lon="14.700955"><ele>218.5</ele><time>2026-04-09T14:44:04.092Z</time></trkpt><trkpt lat="41.0435633" lon="14.700815"><ele>218.0</ele><time>2026-04-09T14:44:05.092Z</time></trkpt><trkpt lat="41.04344" lon="14.7006833"><ele>218.0</ele><time>2026-04-09T14:44:06.092Z</time></trkpt><trkpt lat="41.043325" lon="14.7005467"><ele>218.0</ele><time>2026-04-09T14:44:07.092Z</time></trkpt><trkpt lat="41.0432117" lon="14.7004117"><ele>218.0</ele><time>2026-04-09T14:44:08.092Z</time></trkpt><trkpt lat="41.0430983" lon="14.7002783"><ele>218.0</ele><time>2026-04-09T14:44:09.092Z</time></trkpt><trkpt lat="41.042985" lon="14.7001367"><ele>218.0</ele><time>2026-04-09T14:44:10.092Z</time></trkpt><trkpt lat="41.0428683" lon="14.6999983"><ele>218.0</ele><time>2026-04-09T14:44:11.092Z</time></trkpt><trkpt lat="41.0427617" lon="14.699865"><ele>218.0</ele><time>2026-04-09T14:44:12.092Z</time></trkpt><trkpt lat="41.0426583" lon="14.6997383"><ele>218.0</ele><time>2026-04-09T14:44:13.092Z</time></trkpt><trkpt lat="41.0425533" lon="14.6996183"><ele>218.0</ele><time>2026-04-09T14:44:14.092Z</time></trkpt><trkpt lat="41.0424467" lon="14.699495"><ele>218.0</ele><time>2026-04-09T14:44:15.092Z</time></trkpt><trkpt lat="41.042335" lon="14.6993733"><ele>217.75</ele><time>2026-04-09T14:44:16.092Z</time></trkpt><trkpt lat="41.04222" lon="14.69926"><ele>217.5</ele><time>2026-04-09T14:44:17.092Z</time></trkpt><trkpt lat="41.0421117" lon="14.6991533"><ele>217.25</ele><time>2026-04-09T14:44:18.092Z</time></trkpt><trkpt lat="41.0420033" lon="14.6990617"><ele>217.0</ele><time>2026-04-09T14:44:19.092Z</time></trkpt><trkpt lat="41.0418917" lon="14.69898"><ele>217.0</ele><time>2026-04-09T14:44:20.092Z</time></trkpt><trkpt lat="41.04177" lon="14.6989183"><ele>217.0</ele><time>2026-04-09T14:44:21.092Z</time></trkpt><trkpt lat="41.041645" lon="14.6988683"><ele>217.0</ele><time>2026-04-09T14:44:22.092Z</time></trkpt><trkpt lat="41.0415167" lon="14.6988367"><ele>217.0</ele><time>2026-04-09T14:44:23.092Z</time></trkpt><trkpt lat="41.0413783" lon="14.6988183"><ele>217.25</ele><time>2026-04-09T14:44:24.092Z</time></trkpt><trkpt lat="41.0412383" lon="14.6988233"><ele>217.5</ele><time>2026-04-09T14:44:25.092Z</time></trkpt><trkpt lat="41.04109" lon="14.6988483"><ele>217.75</ele><time>2026-04-09T14:44:26.092Z</time></trkpt><trkpt lat="41.0409383" lon="14.6988667"><ele>218.0</ele><time>2026-04-09T14:44:27.092Z</time></trkpt><trkpt lat="41.0407933" lon="14.69888"><ele>219.25</ele><time>2026-04-09T14:44:28.092Z</time></trkpt><trkpt lat="41.0406483" lon="14.6988983"><ele>220.5</ele><time>2026-04-09T14:44:29.092Z</time></trkpt><trkpt lat="41.0404967" lon="14.698915"><ele>221.75</ele><time>2026-04-09T14:44:30.092Z</time></trkpt><trkpt lat="41.0403567" lon="14.69892"><ele>223.0</ele><time>2026-04-09T14:44:31.092Z</time></trkpt><trkpt lat="41.0402083" lon="14.698925"><ele>223.0</ele><time>2026-04-09T14:44:32.092Z</time></trkpt><trkpt lat="41.0400583" lon="14.6989417"><ele>223.0</ele><time>2026-04-09T14:44:33.092Z</time></trkpt><trkpt lat="41.0399267" lon="14.698955"><ele>223.0</ele><time>2026-04-09T14:44:34.092Z</time></trkpt><trkpt lat="41.0398" lon="14.6989633"><ele>223.0</ele><time>2026-04-09T14:44:35.092Z</time></trkpt><trkpt lat="41.03967" lon="14.6989717"><ele>223.75</ele><time>2026-04-09T14:44:36.092Z</time></trkpt><trkpt lat="41.0395383" lon="14.6989833"><ele>224.5</ele><time>2026-04-09T14:44:37.092Z</time></trkpt><trkpt lat="41.039405" lon="14.6989833"><ele>225.25</ele><time>2026-04-09T14:44:38.092Z</time></trkpt><trkpt lat="41.0392667" lon="14.6989583"><ele>226.0</ele><time>2026-04-09T14:44:39.092Z</time></trkpt><trkpt lat="41.0391333" lon="14.698925"><ele>228.75</ele><time>2026-04-09T14:44:40.092Z</time></trkpt><trkpt lat="41.039" lon="14.6988783"><ele>231.5</ele><time>2026-04-09T14:44:41.092Z</time></trkpt><trkpt lat="41.03886" lon="14.6988183"><ele>234.25</ele><time>2026-04-09T14:44:42.092Z</time></trkpt><trkpt lat="41.0387183" lon="14.698765"><ele>237.0</ele><time>2026-04-09T14:44:43.092Z</time></trkpt><trkpt lat="41.0385817" lon="14.6987167"><ele>237.0</ele><time>2026-04-09T14:44:44.092Z</time></trkpt><trkpt lat="41.0384483" lon="14.6986567"><ele>237.0</ele><time>2026-04-09T14:44:45.092Z</time></trkpt><trkpt lat="41.03831" lon="14.6986017"><ele>237.0</ele><time>2026-04-09T14:44:46.092Z</time></trkpt><trkpt lat="41.0381717" lon="14.69855"><ele>237.0</ele><time>2026-04-09T14:44:47.092Z</time></trkpt><trkpt lat="41.0380317" lon="14.698485"><ele>232.66666666666669</ele><time>2026-04-09T14:44:48.092Z</time></trkpt><trkpt lat="41.0378883" lon="14.6984333"><ele>228.33333333333334</ele><time>2026-04-09T14:44:49.092Z</time></trkpt><trkpt lat="41.0377417" lon="14.6983883"><ele>224.0</ele><time>2026-04-09T14:44:50.092Z</time></trkpt><trkpt lat="41.03759" lon="14.6983483"><ele>224.0</ele><time>2026-04-09T14:44:51.092Z</time></trkpt><trkpt lat="41.03745" lon="14.6983083"><ele>224.0</ele><time>2026-04-09T14:44:52.092Z</time></trkpt><trkpt lat="41.0373117" lon="14.698285"><ele>224.0</ele><time>2026-04-09T14:44:53.092Z</time></trkpt><trkpt lat="41.03718" lon="14.6982683"><ele>224.0</ele><time>2026-04-09T14:44:54.092Z</time></trkpt><trkpt lat="41.0370483" lon="14.6982467"><ele>224.0</ele><time>2026-04-09T14:44:55.092Z</time></trkpt><trkpt lat="41.03692" lon="14.6982267"><ele>224.0</ele><time>2026-04-09T14:44:56.092Z</time></trkpt><trkpt lat="41.0367933" lon="14.6982117"><ele>224.0</ele><time>2026-04-09T14:44:57.092Z</time></trkpt><trkpt lat="41.0366617" lon="14.6981883"><ele>224.0</ele><time>2026-04-09T14:44:58.092Z</time></trkpt><trkpt lat="41.0365333" lon="14.698165"><ele>224.75</ele><time>2026-04-09T14:44:59.092Z</time></trkpt><trkpt lat="41.0364083" lon="14.6981367"><ele>225.5</ele><time>2026-04-09T14:45:00.092Z</time></trkpt><trkpt lat="41.0362833" lon="14.698115"><ele>226.25</ele><time>2026-04-09T14:45:01.092Z</time></trkpt><trkpt lat="41.0361567" lon="14.6980983"><ele>227.0</ele><time>2026-04-09T14:45:02.092Z</time></trkpt><trkpt lat="41.0360267" lon="14.69808"><ele>227.0</ele><time>2026-04-09T14:45:03.092Z</time></trkpt><trkpt lat="41.0358983" lon="14.6980533"><ele>227.0</ele><time>2026-04-09T14:45:04.092Z</time></trkpt><trkpt lat="41.0357683" lon="14.698025"><ele>227.0</ele><time>2026-04-09T14:45:05.092Z</time></trkpt><trkpt lat="41.0356367" lon="14.6979983"><ele>227.0</ele><time>2026-04-09T14:45:06.092Z</time></trkpt><trkpt lat="41.03551" lon="14.6979733"><ele>227.5</ele><time>2026-04-09T14:45:07.092Z</time></trkpt><trkpt lat="41.0353883" lon="14.6979483"><ele>228.0</ele><time>2026-04-09T14:45:08.092Z</time></trkpt><trkpt lat="41.03526" lon="14.697925"><ele>228.5</ele><time>2026-04-09T14:45:09.092Z</time></trkpt><trkpt lat="41.03513" lon="14.6979"><ele>229.0</ele><time>2026-04-09T14:45:10.092Z</time></trkpt><trkpt lat="41.0350083" lon="14.697885"><ele>229.6</ele><time>2026-04-09T14:45:11.092Z</time></trkpt><trkpt lat="41.0348883" lon="14.6978783"><ele>230.2</ele><time>2026-04-09T14:45:12.092Z</time></trkpt><trkpt lat="41.03478" lon="14.6978767"><ele>230.79999999999998</ele><time>2026-04-09T14:45:13.092Z</time></trkpt><trkpt lat="41.03467" lon="14.6978933"><ele>231.39999999999998</ele><time>2026-04-09T14:45:14.092Z</time></trkpt><trkpt lat="41.034565" lon="14.6979183"><ele>232.0</ele><time>2026-04-09T14:45:15.092Z</time></trkpt><trkpt lat="41.0344617" lon="14.6979433"><ele>232.0</ele><time>2026-04-09T14:45:16.092Z</time></trkpt><trkpt lat="41.03435" lon="14.6979783"><ele>232.0</ele><time>2026-04-09T14:45:17.092Z</time></trkpt><trkpt lat="41.03424" lon="14.6980267"><ele>232.0</ele><time>2026-04-09T14:45:18.092Z</time></trkpt><trkpt lat="41.0341267" lon="14.6980717"><ele>232.0</ele><time>2026-04-09T14:45:19.092Z</time></trkpt><trkpt lat="41.0340133" lon="14.6981217"><ele>231.5</ele><time>2026-04-09T14:45:20.092Z</time></trkpt><trkpt lat="41.0338933" lon="14.6981733"><ele>231.0</ele><time>2026-04-09T14:45:21.092Z</time></trkpt><trkpt lat="41.0337617" lon="14.6982233"><ele>230.5</ele><time>2026-04-09T14:45:22.092Z</time></trkpt><trkpt lat="41.0336267" lon="14.6982783"><ele>230.0</ele><time>2026-04-09T14:45:23.092Z</time></trkpt><trkpt lat="41.033495" lon="14.69834"><ele>230.0</ele><time>2026-04-09T14:45:24.092Z</time></trkpt><trkpt lat="41.0333667" lon="14.6983983"><ele>230.0</ele><time>2026-04-09T14:45:25.092Z</time></trkpt><trkpt lat="41.03324" lon="14.698455"><ele>230.0</ele><time>2026-04-09T14:45:26.092Z</time></trkpt><trkpt lat="41.03311" lon="14.6985083"><ele>230.0</ele><time>2026-04-09T14:45:27.092Z</time></trkpt><trkpt lat="41.0329717" lon="14.6985633"><ele>230.25</ele><time>2026-04-09T14:45:28.092Z</time></trkpt><trkpt lat="41.0328367" lon="14.6986333"><ele>230.5</ele><time>2026-04-09T14:45:29.092Z</time></trkpt><trkpt lat="41.032705" lon="14.6986883"><ele>230.75</ele><time>2026-04-09T14:45:30.092Z</time></trkpt><trkpt lat="41.0325617" lon="14.69876"><ele>231.0</ele><time>2026-04-09T14:45:31.092Z</time></trkpt><trkpt lat="41.0324167" lon="14.6988283"><ele>230.0</ele><time>2026-04-09T14:45:32.092Z</time></trkpt><trkpt lat="41.0322717" lon="14.6988933"><ele>229.0</ele><time>2026-04-09T14:45:33.092Z</time></trkpt><trkpt lat="41.032125" lon="14.6989567"><ele>228.0</ele><time>2026-04-09T14:45:34.092Z</time></trkpt><trkpt lat="41.0319767" lon="14.6990233"><ele>228.0</ele><time>2026-04-09T14:45:35.092Z</time></trkpt><trkpt lat="41.0318333" lon="14.6990883"><ele>228.0</ele><time>2026-04-09T14:45:36.092Z</time></trkpt><trkpt lat="41.0316933" lon="14.69915"><ele>228.0</ele><time>2026-04-09T14:45:37.092Z</time></trkpt><trkpt lat="41.0315583" lon="14.6992033"><ele>228.0</ele><time>2026-04-09T14:45:38.092Z</time></trkpt><trkpt lat="41.031425" lon="14.69925"><ele>228.0</ele><time>2026-04-09T14:45:39.092Z</time></trkpt><trkpt lat="41.0312933" lon="14.6993017"><ele>228.0</ele><time>2026-04-09T14:45:40.092Z</time></trkpt><trkpt lat="41.0311667" lon="14.6993583"><ele>228.0</ele><time>2026-04-09T14:45:41.092Z</time></trkpt><trkpt lat="41.031045" lon="14.69942"><ele>228.0</ele><time>2026-04-09T14:45:42.092Z</time></trkpt><trkpt lat="41.0309333" lon="14.69947"><ele>228.5</ele><time>2026-04-09T14:45:43.092Z</time></trkpt><trkpt lat="41.03083" lon="14.69951"><ele>229.0</ele><time>2026-04-09T14:45:44.092Z</time></trkpt><trkpt lat="41.0307383" lon="14.6995467"><ele>229.5</ele><time>2026-04-09T14:45:45.092Z</time></trkpt><trkpt lat="41.0306567" lon="14.6995867"><ele>230.0</ele><time>2026-04-09T14:45:46.092Z</time></trkpt><trkpt lat="41.0305933" lon="14.6996383"><ele>230.5</ele><time>2026-04-09T14:45:47.092Z</time></trkpt><trkpt lat="41.0305467" lon="14.6997033"><ele>231.0</ele><time>2026-04-09T14:45:48.092Z</time></trkpt><trkpt lat="41.0305117" lon="14.69978"><ele>231.0</ele><time>2026-04-09T14:45:49.092Z</time></trkpt><trkpt lat="41.0305133" lon="14.6998717"><ele>231.0</ele><time>2026-04-09T14:45:50.092Z</time></trkpt><trkpt lat="41.0305417" lon="14.6999583"><ele>231.0</ele><time>2026-04-09T14:45:51.092Z</time></trkpt><trkpt lat="41.030595" lon="14.7000267"><ele>231.0</ele><time>2026-04-09T14:45:52.092Z</time></trkpt><trkpt lat="41.0306683" lon="14.7000917"><ele>231.0</ele><time>2026-04-09T14:45:53.092Z</time></trkpt><trkpt lat="41.0307617" lon="14.7001533"><ele>231.0</ele><time>2026-04-09T14:45:54.092Z</time></trkpt><trkpt lat="41.0308533" lon="14.7002167"><ele>231.60000000000002</ele><time>2026-04-09T14:45:55.092Z</time></trkpt><trkpt lat="41.0309583" lon="14.7002817"><ele>232.20000000000002</ele><time>2026-04-09T14:45:56.092Z</time></trkpt><trkpt lat="41.0310583" lon="14.70035"><ele>232.79999999999998</ele><time>2026-04-09T14:45:57.092Z</time></trkpt><trkpt lat="41.0311567" lon="14.7004283"><ele>233.39999999999998</ele><time>2026-04-09T14:45:58.092Z</time></trkpt><trkpt lat="41.0312433" lon="14.7005067"><ele>234.0</ele><time>2026-04-09T14:45:59.092Z</time></trkpt><trkpt lat="41.0313233" lon="14.700595"><ele>234.0</ele><time>2026-04-09T14:46:00.092Z</time></trkpt><trkpt lat="41.03139" lon="14.7006917"><ele>233.99999999999997</ele><time>2026-04-09T14:46:01.092Z</time></trkpt><trkpt lat="41.0314483" lon="14.700805"><ele>233.99999999999997</ele><time>2026-04-09T14:46:02.092Z</time></trkpt><trkpt lat="41.0315017" lon="14.7009317"><ele>234.0</ele><time>2026-04-09T14:46:03.092Z</time></trkpt><trkpt lat="41.03154" lon="14.7010667"><ele>234.0</ele><time>2026-04-09T14:46:04.092Z</time></trkpt><trkpt lat="41.0315633" lon="14.7012083"><ele>235.25</ele><time>2026-04-09T14:46:05.092Z</time></trkpt><trkpt lat="41.0315533" lon="14.70135"><ele>236.5</ele><time>2026-04-09T14:46:06.092Z</time></trkpt><trkpt lat="41.0315283" lon="14.701495"><ele>237.75</ele><time>2026-04-09T14:46:07.092Z</time></trkpt><trkpt lat="41.03148" lon="14.7016383"><ele>239.0</ele><time>2026-04-09T14:46:08.092Z</time></trkpt><trkpt lat="41.03142" lon="14.70177"><ele>239.0</ele><time>2026-04-09T14:46:09.092Z</time></trkpt><trkpt lat="41.031345" lon="14.7018883"><ele>239.0</ele><time>2026-04-09T14:46:10.092Z</time></trkpt><trkpt lat="41.0312583" lon="14.702"><ele>239.0</ele><time>2026-04-09T14:46:11.092Z</time></trkpt><trkpt lat="41.0311617" lon="14.7021167"><ele>239.0</ele><time>2026-04-09T14:46:12.092Z</time></trkpt><trkpt lat="41.031045" lon="14.7022417"><ele>242.33333333333334</ele><time>2026-04-09T14:46:13.092Z</time></trkpt><trkpt lat="41.0309067" lon="14.7023833"><ele>245.66666666666669</ele><time>2026-04-09T14:46:14.092Z</time></trkpt><trkpt lat="41.0307517" lon="14.7025283"><ele>249.0</ele><time>2026-04-09T14:46:15.092Z</time></trkpt><trkpt lat="41.030585" lon="14.70266"><ele>256.6666666666667</ele><time>2026-04-09T14:46:16.092Z</time></trkpt><trkpt lat="41.0304133" lon="14.70278"><ele>264.33333333333337</ele><time>2026-04-09T14:46:17.092Z</time></trkpt><trkpt lat="41.0302383" lon="14.702885"><ele>272.0</ele><time>2026-04-09T14:46:18.092Z</time></trkpt><trkpt lat="41.030055" lon="14.7029833"><ele>274.0</ele><time>2026-04-09T14:46:19.092Z</time></trkpt><trkpt lat="41.02987" lon="14.7030633"><ele>276.0</ele><time>2026-04-09T14:46:20.092Z</time></trkpt><trkpt lat="41.029695" lon="14.7031367"><ele>278.0</ele><time>2026-04-09T14:46:21.092Z</time></trkpt><trkpt lat="41.0295317" lon="14.7032033"><ele>278.0</ele><time>2026-04-09T14:46:22.092Z</time></trkpt><trkpt lat="41.0293683" lon="14.7032667"><ele>278.0</ele><time>2026-04-09T14:46:23.092Z</time></trkpt><trkpt lat="41.0292017" lon="14.7033383"><ele>278.0</ele><time>2026-04-09T14:46:24.092Z</time></trkpt><trkpt lat="41.0290317" lon="14.70341"><ele>277.0</ele><time>2026-04-09T14:46:25.092Z</time></trkpt><trkpt lat="41.0288633" lon="14.70348"><ele>276.0</ele><time>2026-04-09T14:46:26.092Z</time></trkpt><trkpt lat="41.0286933" lon="14.70355"><ele>275.0</ele><time>2026-04-09T14:46:27.092Z</time></trkpt><trkpt lat="41.0270033" lon="14.7039683"><ele>275.0</ele><time>2026-04-09T14:46:36.084Z</time></trkpt><trkpt lat="41.0268033" lon="14.7040583"><ele>275.0</ele><time>2026-04-09T14:46:37.084Z</time></trkpt><trkpt lat="41.0266067" lon="14.7040733"><ele>275.0</ele><time>2026-04-09T14:46:38.084Z</time></trkpt><trkpt lat="41.02642" lon="14.70413"><ele>269.0</ele><time>2026-04-09T14:46:39.084Z</time></trkpt><trkpt lat="41.0262433" lon="14.7042033"><ele>263.0</ele><time>2026-04-09T14:46:40.084Z</time></trkpt><trkpt lat="41.0260683" lon="14.7042767"><ele>257.0</ele><time>2026-04-09T14:46:41.084Z</time></trkpt><trkpt lat="41.02589" lon="14.704355"><ele>256.0</ele><time>2026-04-09T14:46:42.084Z</time></trkpt><trkpt lat="41.0257183" lon="14.70444"><ele>255.0</ele><time>2026-04-09T14:46:43.084Z</time></trkpt><trkpt lat="41.0255517" lon="14.7045317"><ele>254.0</ele><time>2026-04-09T14:46:44.084Z</time></trkpt><trkpt lat="41.0253867" lon="14.704635"><ele>254.0</ele><time>2026-04-09T14:46:45.084Z</time></trkpt><trkpt lat="41.0252233" lon="14.7047433"><ele>254.0</ele><time>2026-04-09T14:46:46.084Z</time></trkpt><trkpt lat="41.0250717" lon="14.7048517"><ele>254.0</ele><time>2026-04-09T14:46:47.084Z</time></trkpt><trkpt lat="41.02493" lon="14.7049667"><ele>255.66666666666669</ele><time>2026-04-09T14:46:48.084Z</time></trkpt><trkpt lat="41.024795" lon="14.70509"><ele>257.3333333333333</ele><time>2026-04-09T14:46:49.084Z</time></trkpt><trkpt lat="41.024665" lon="14.7052283"><ele>259.0</ele><time>2026-04-09T14:46:50.084Z</time></trkpt><trkpt lat="41.0245367" lon="14.7053783"><ele>261.3333333333333</ele><time>2026-04-09T14:46:51.084Z</time></trkpt><trkpt lat="41.02441" lon="14.7055433"><ele>263.6666666666667</ele><time>2026-04-09T14:46:52.084Z</time></trkpt><trkpt lat="41.02429" lon="14.70572"><ele>266.0</ele><time>2026-04-09T14:46:53.084Z</time></trkpt><trkpt lat="41.0241833" lon="14.7059067"><ele>272.6666666666667</ele><time>2026-04-09T14:46:54.084Z</time></trkpt><trkpt lat="41.0240833" lon="14.706105"><ele>279.3333333333333</ele><time>2026-04-09T14:46:55.084Z</time></trkpt><trkpt lat="41.0239983" lon="14.7063133"><ele>286.0</ele><time>2026-04-09T14:46:56.084Z</time></trkpt><trkpt lat="41.0239183" lon="14.7065267"><ele>286.0</ele><time>2026-04-09T14:46:57.084Z</time></trkpt><trkpt lat="41.0238417" lon="14.7067467"><ele>286.0</ele><time>2026-04-09T14:46:58.084Z</time></trkpt><trkpt lat="41.0237767" lon="14.7069783"><ele>286.0</ele><time>2026-04-09T14:46:59.084Z</time></trkpt><trkpt lat="41.0237333" lon="14.7072183"><ele>287.66666666666663</ele><time>2026-04-09T14:47:00.084Z</time></trkpt><trkpt lat="41.0237083" lon="14.70747"><ele>289.3333333333333</ele><time>2026-04-09T14:47:01.084Z</time></trkpt><trkpt lat="41.0236833" lon="14.7077217"><ele>291.0</ele><time>2026-04-09T14:47:02.084Z</time></trkpt><trkpt lat="41.02366" lon="14.7079683"><ele>292.3333333333333</ele><time>2026-04-09T14:47:03.084Z</time></trkpt><trkpt lat="41.02365" lon="14.70822"><ele>293.66666666666663</ele><time>2026-04-09T14:47:04.084Z</time></trkpt><trkpt lat="41.02365" lon="14.7084683"><ele>295.0</ele><time>2026-04-09T14:47:05.084Z</time></trkpt><trkpt lat="41.02365" lon="14.708705"><ele>295.0</ele><time>2026-04-09T14:47:06.084Z</time></trkpt><trkpt lat="41.0236633" lon="14.7089483"><ele>295.0</ele><time>2026-04-09T14:47:07.084Z</time></trkpt><trkpt lat="41.02368" lon="14.7091983"><ele>295.0</ele><time>2026-04-09T14:47:08.084Z</time></trkpt><trkpt lat="41.0237033" lon="14.7094433"><ele>296.3333333333333</ele><time>2026-04-09T14:47:09.084Z</time></trkpt><trkpt lat="41.0237267" lon="14.7096967"><ele>297.6666666666667</ele><time>2026-04-09T14:47:10.084Z</time></trkpt><trkpt lat="41.0237517" lon="14.7099467"><ele>299.0</ele><time>2026-04-09T14:47:11.084Z</time></trkpt><trkpt lat="41.0237767" lon="14.710185"><ele>301.6666666666667</ele><time>2026-04-09T14:47:12.084Z</time></trkpt><trkpt lat="41.0238067" lon="14.7104217"><ele>304.3333333333333</ele><time>2026-04-09T14:47:13.084Z</time></trkpt><trkpt lat="41.0238367" lon="14.71066"><ele>307.0</ele><time>2026-04-09T14:47:14.084Z</time></trkpt><trkpt lat="41.0238633" lon="14.7108983"><ele>307.66666666666663</ele><time>2026-04-09T14:47:15.084Z</time></trkpt><trkpt lat="41.0238917" lon="14.711135"><ele>308.3333333333333</ele><time>2026-04-09T14:47:16.084Z</time></trkpt><trkpt lat="41.02391" lon="14.7113683"><ele>309.0</ele><time>2026-04-09T14:47:17.084Z</time></trkpt><trkpt lat="41.0239467" lon="14.71161"><ele>309.0</ele><time>2026-04-09T14:47:18.084Z</time></trkpt><trkpt lat="41.0239867" lon="14.7118483"><ele>309.0</ele><time>2026-04-09T14:47:19.084Z</time></trkpt><trkpt lat="41.0240117" lon="14.71208"><ele>309.0</ele><time>2026-04-09T14:47:20.084Z</time></trkpt><trkpt lat="41.02402" lon="14.7123083"><ele>309.6666666666667</ele><time>2026-04-09T14:47:21.084Z</time></trkpt><trkpt lat="41.0240483" lon="14.7125283"><ele>310.33333333333337</ele><time>2026-04-09T14:47:22.084Z</time></trkpt><trkpt lat="41.02407" lon="14.7127417"><ele>311.0</ele><time>2026-04-09T14:47:23.084Z</time></trkpt><trkpt lat="41.0240917" lon="14.71295"><ele>310.6666666666667</ele><time>2026-04-09T14:47:24.084Z</time></trkpt><trkpt lat="41.02412" lon="14.7131517"><ele>310.3333333333333</ele><time>2026-04-09T14:47:25.084Z</time></trkpt><trkpt lat="41.024145" lon="14.7133567"><ele>310.0</ele><time>2026-04-09T14:47:26.084Z</time></trkpt><trkpt lat="41.024165" lon="14.71356"><ele>312.66666666666663</ele><time>2026-04-09T14:47:27.084Z</time></trkpt><trkpt lat="41.0241717" lon="14.713765"><ele>315.3333333333333</ele><time>2026-04-09T14:47:28.084Z</time></trkpt><trkpt lat="41.0241783" lon="14.713975"><ele>318.0</ele><time>2026-04-09T14:47:29.084Z</time></trkpt><trkpt lat="41.02419" lon="14.7141667"><ele>318.0</ele><time>2026-04-09T14:47:30.084Z</time></trkpt><trkpt lat="41.0241917" lon="14.7143367"><ele>318.0</ele><time>2026-04-09T14:47:31.084Z</time></trkpt><trkpt lat="41.0241817" lon="14.7144917"><ele>318.0</ele><time>2026-04-09T14:47:32.084Z</time></trkpt><trkpt lat="41.024165" lon="14.71465"><ele>318.0</ele><time>2026-04-09T14:47:33.084Z</time></trkpt><trkpt lat="41.0241267" lon="14.7148117"><ele>320.3333333333333</ele><time>2026-04-09T14:47:34.084Z</time></trkpt><trkpt lat="41.024085" lon="14.714955"><ele>322.6666666666667</ele><time>2026-04-09T14:47:35.084Z</time></trkpt><trkpt lat="41.0240317" lon="14.7150683"><ele>325.0</ele><time>2026-04-09T14:47:36.084Z</time></trkpt><trkpt lat="41.0239883" lon="14.7151633"><ele>327.33333333333337</ele><time>2026-04-09T14:47:37.084Z</time></trkpt><trkpt lat="41.0239467" lon="14.7152433"><ele>329.6666666666667</ele><time>2026-04-09T14:47:38.084Z</time></trkpt><trkpt lat="41.0239067" lon="14.7153167"><ele>332.0</ele><time>2026-04-09T14:47:39.084Z</time></trkpt><trkpt lat="41.0238567" lon="14.7154067"><ele>333.0</ele><time>2026-04-09T14:47:41.084Z</time></trkpt><trkpt lat="41.0238283" lon="14.7155083"><ele>334.0</ele><time>2026-04-09T14:47:44.084Z</time></trkpt><trkpt lat="41.023835" lon="14.715635"><ele>335.0</ele><time>2026-04-09T14:47:46.084Z</time></trkpt><trkpt lat="41.0238433" lon="14.71572"><ele>336.0</ele><time>2026-04-09T14:47:47.084Z</time></trkpt><trkpt lat="41.0238633" lon="14.7158167"><ele>337.0</ele><time>2026-04-09T14:47:48.084Z</time></trkpt><trkpt lat="41.02389" lon="14.715925"><ele>338.0</ele><time>2026-04-09T14:47:49.084Z</time></trkpt><trkpt lat="41.0239117" lon="14.7160317"><ele>338.5</ele><time>2026-04-09T14:47:50.084Z</time></trkpt><trkpt lat="41.0239333" lon="14.7161417"><ele>339.0</ele><time>2026-04-09T14:47:51.084Z</time></trkpt><trkpt lat="41.02395" lon="14.7162467"><ele>339.5</ele><time>2026-04-09T14:47:52.084Z</time></trkpt><trkpt lat="41.023955" lon="14.7163467"><ele>340.0</ele><time>2026-04-09T14:47:53.084Z</time></trkpt><trkpt lat="41.0239533" lon="14.716455"><ele>340.5</ele><time>2026-04-09T14:47:54.084Z</time></trkpt><trkpt lat="41.0239483" lon="14.7165633"><ele>341.0</ele><time>2026-04-09T14:47:55.084Z</time></trkpt><trkpt lat="41.0239367" lon="14.7166767"><ele>341.0</ele><time>2026-04-09T14:47:56.084Z</time></trkpt><trkpt lat="41.0239233" lon="14.7167917"><ele>341.0</ele><time>2026-04-09T14:47:57.085Z</time></trkpt><trkpt lat="41.0239017" lon="14.7169083"><ele>341.0</ele><time>2026-04-09T14:47:58.084Z</time></trkpt><trkpt lat="41.0238717" lon="14.7170167"><ele>341.0</ele><time>2026-04-09T14:47:59.084Z</time></trkpt><trkpt lat="41.0238367" lon="14.7171183"><ele>341.0</ele><time>2026-04-09T14:48:00.084Z</time></trkpt><trkpt lat="41.0237983" lon="14.7172"><ele>341.0</ele><time>2026-04-09T14:48:01.084Z</time></trkpt><trkpt lat="41.02372" lon="14.71731"><ele>340.20000000000005</ele><time>2026-04-09T14:48:03.084Z</time></trkpt><trkpt lat="41.0236267" lon="14.717395"><ele>339.40000000000003</ele><time>2026-04-09T14:48:05.084Z</time></trkpt><trkpt lat="41.0235617" lon="14.7174283"><ele>338.6</ele><time>2026-04-09T14:48:06.084Z</time></trkpt><trkpt lat="41.02348" lon="14.7174583"><ele>337.8</ele><time>2026-04-09T14:48:07.084Z</time></trkpt><trkpt lat="41.02339" lon="14.7174867"><ele>337.0</ele><time>2026-04-09T14:48:08.084Z</time></trkpt><trkpt lat="41.02329" lon="14.7175133"><ele>339.0</ele><time>2026-04-09T14:48:09.084Z</time></trkpt><trkpt lat="41.0231933" lon="14.7175317"><ele>341.0</ele><time>2026-04-09T14:48:10.084Z</time></trkpt><trkpt lat="41.0230883" lon="14.7175583"><ele>343.0</ele><time>2026-04-09T14:48:11.084Z</time></trkpt><trkpt lat="41.0229667" lon="14.7175817"><ele>345.0</ele><time>2026-04-09T14:48:12.084Z</time></trkpt><trkpt lat="41.022845" lon="14.71761"><ele>345.0</ele><time>2026-04-09T14:48:13.084Z</time></trkpt><trkpt lat="41.022725" lon="14.7176317"><ele>345.0</ele><time>2026-04-09T14:48:14.084Z</time></trkpt><trkpt lat="41.0226083" lon="14.7176533"><ele>345.0</ele><time>2026-04-09T14:48:15.084Z</time></trkpt><trkpt lat="41.0224933" lon="14.7176883"><ele>345.0</ele><time>2026-04-09T14:48:16.084Z</time></trkpt><trkpt lat="41.0223883" lon="14.7177083"><ele>348.25</ele><time>2026-04-09T14:48:17.084Z</time></trkpt><trkpt lat="41.0222717" lon="14.7177417"><ele>351.5</ele><time>2026-04-09T14:48:18.084Z</time></trkpt><trkpt lat="41.0221467" lon="14.7177683"><ele>354.75</ele><time>2026-04-09T14:48:19.084Z</time></trkpt><trkpt lat="41.0220233" lon="14.7177983"><ele>358.0</ele><time>2026-04-09T14:48:20.084Z</time></trkpt><trkpt lat="41.0219133" lon="14.7178233"><ele>358.0</ele><time>2026-04-09T14:48:21.084Z</time></trkpt><trkpt lat="41.0218167" lon="14.7178367"><ele>358.0</ele><time>2026-04-09T14:48:22.084Z</time></trkpt><trkpt lat="41.0217233" lon="14.7178533"><ele>358.0</ele><time>2026-04-09T14:48:23.084Z</time></trkpt><trkpt lat="41.0216367" lon="14.71786"><ele>358.0</ele><time>2026-04-09T14:48:24.084Z</time></trkpt><trkpt lat="41.0215517" lon="14.71787"><ele>358.0</ele><time>2026-04-09T14:48:25.084Z</time></trkpt><trkpt lat="41.0214767" lon="14.7178733"><ele>358.0</ele><time>2026-04-09T14:48:26.084Z</time></trkpt><trkpt lat="41.0214117" lon="14.7178683"><ele>360.2</ele><time>2026-04-09T14:48:27.084Z</time></trkpt><trkpt lat="41.0213467" lon="14.7178733"><ele>362.4</ele><time>2026-04-09T14:48:28.084Z</time></trkpt><trkpt lat="41.0212517" lon="14.7179533"><ele>364.59999999999997</ele><time>2026-04-09T14:48:30.084Z</time></trkpt><trkpt lat="41.0212317" lon="14.7181167"><ele>366.79999999999995</ele><time>2026-04-09T14:48:32.084Z</time></trkpt><trkpt lat="41.021235" lon="14.7182233"><ele>369.0</ele><time>2026-04-09T14:48:33.084Z</time></trkpt><trkpt lat="41.0212467" lon="14.718345"><ele>369.0</ele><time>2026-04-09T14:48:34.084Z</time></trkpt><trkpt lat="41.02126" lon="14.7184767"><ele>369.0</ele><time>2026-04-09T14:48:35.084Z</time></trkpt><trkpt lat="41.0212783" lon="14.718615"><ele>369.0</ele><time>2026-04-09T14:48:36.084Z</time></trkpt><trkpt lat="41.0212983" lon="14.718745"><ele>369.0</ele><time>2026-04-09T14:48:37.084Z</time></trkpt><trkpt lat="41.02132" lon="14.71889"><ele>369.0</ele><time>2026-04-09T14:48:38.084Z</time></trkpt><trkpt lat="41.021345" lon="14.7190333"><ele>371.75</ele><time>2026-04-09T14:48:39.084Z</time></trkpt><trkpt lat="41.0213833" lon="14.7191917"><ele>374.5</ele><time>2026-04-09T14:48:40.084Z</time></trkpt><trkpt lat="41.02142" lon="14.7193583"><ele>377.25</ele><time>2026-04-09T14:48:41.084Z</time></trkpt><trkpt lat="41.0214533" lon="14.7195283"><ele>380.0</ele><time>2026-04-09T14:48:42.084Z</time></trkpt><trkpt lat="41.0214817" lon="14.7196983"><ele>382.25</ele><time>2026-04-09T14:48:43.084Z</time></trkpt><trkpt lat="41.02151" lon="14.7198667"><ele>384.5</ele><time>2026-04-09T14:48:44.084Z</time></trkpt><trkpt lat="41.021545" lon="14.7200417"><ele>386.75</ele><time>2026-04-09T14:48:45.084Z</time></trkpt><trkpt lat="41.0215767" lon="14.720215"><ele>389.0</ele><time>2026-04-09T14:48:46.084Z</time></trkpt><trkpt lat="41.0216017" lon="14.7203933"><ele>390.0</ele><time>2026-04-09T14:48:47.084Z</time></trkpt><trkpt lat="41.021625" lon="14.7205667"><ele>391.0</ele><time>2026-04-09T14:48:48.084Z</time></trkpt><trkpt lat="41.0216417" lon="14.7207483"><ele>392.0</ele><time>2026-04-09T14:48:49.084Z</time></trkpt><trkpt lat="41.02166" lon="14.720935"><ele>393.0</ele><time>2026-04-09T14:48:50.084Z</time></trkpt><trkpt lat="41.0216867" lon="14.7211433"><ele>389.25</ele><time>2026-04-09T14:48:51.084Z</time></trkpt><trkpt lat="41.0217167" lon="14.7213383"><ele>385.5</ele><time>2026-04-09T14:48:52.084Z</time></trkpt><trkpt lat="41.021745" lon="14.7215183"><ele>381.75</ele><time>2026-04-09T14:48:53.084Z</time></trkpt><trkpt lat="41.0217683" lon="14.7217"><ele>378.0</ele><time>2026-04-09T14:48:54.084Z</time></trkpt><trkpt lat="41.0217833" lon="14.7218767"><ele>377.5</ele><time>2026-04-09T14:48:55.084Z</time></trkpt><trkpt lat="41.0217833" lon="14.7220467"><ele>377.0</ele><time>2026-04-09T14:48:56.084Z</time></trkpt><trkpt lat="41.0217783" lon="14.7222033"><ele>376.5</ele><time>2026-04-09T14:48:57.084Z</time></trkpt><trkpt lat="41.0217583" lon="14.7223517"><ele>376.0</ele><time>2026-04-09T14:48:58.084Z</time></trkpt><trkpt lat="41.0217233" lon="14.7225033"><ele>376.0</ele><time>2026-04-09T14:48:59.084Z</time></trkpt><trkpt lat="41.0216717" lon="14.722645"><ele>376.0</ele><time>2026-04-09T14:49:00.084Z</time></trkpt><trkpt lat="41.0216067" lon="14.72279"><ele>376.0</ele><time>2026-04-09T14:49:01.084Z</time></trkpt><trkpt lat="41.0215383" lon="14.7229367"><ele>376.0</ele><time>2026-04-09T14:49:02.084Z</time></trkpt><trkpt lat="41.0214667" lon="14.7230733"><ele>377.25</ele><time>2026-04-09T14:49:03.084Z</time></trkpt><trkpt lat="41.0213967" lon="14.7232017"><ele>378.5</ele><time>2026-04-09T14:49:04.084Z</time></trkpt><trkpt lat="41.0213233" lon="14.7233333"><ele>379.75</ele><time>2026-04-09T14:49:05.084Z</time></trkpt><trkpt lat="41.0212283" lon="14.7234617"><ele>381.0</ele><time>2026-04-09T14:49:06.084Z</time></trkpt><trkpt lat="41.021125" lon="14.7235817"><ele>381.0</ele><time>2026-04-09T14:49:07.084Z</time></trkpt><trkpt lat="41.0210183" lon="14.7237033"><ele>381.0</ele><time>2026-04-09T14:49:08.084Z</time></trkpt><trkpt lat="41.0209167" lon="14.7238317"><ele>381.0</ele><time>2026-04-09T14:49:09.084Z</time></trkpt><trkpt lat="41.0208117" lon="14.7239467"><ele>381.0</ele><time>2026-04-09T14:49:10.084Z</time></trkpt><trkpt lat="41.02071" lon="14.724045"><ele>383.5</ele><time>2026-04-09T14:49:11.084Z</time></trkpt><trkpt lat="41.0206033" lon="14.7241333"><ele>386.0</ele><time>2026-04-09T14:49:12.084Z</time></trkpt><trkpt lat="41.0205" lon="14.72423"><ele>388.5</ele><time>2026-04-09T14:49:13.084Z</time></trkpt><trkpt lat="41.0204" lon="14.7243333"><ele>391.0</ele><time>2026-04-09T14:49:14.084Z</time></trkpt><trkpt lat="41.0202967" lon="14.724445"><ele>391.0</ele><time>2026-04-09T14:49:15.084Z</time></trkpt><trkpt lat="41.0202017" lon="14.7245717"><ele>391.0</ele><time>2026-04-09T14:49:16.084Z</time></trkpt><trkpt lat="41.0201117" lon="14.7247167"><ele>391.0</ele><time>2026-04-09T14:49:17.084Z</time></trkpt><trkpt lat="41.02002" lon="14.7248617"><ele>391.0</ele><time>2026-04-09T14:49:18.084Z</time></trkpt><trkpt lat="41.0199283" lon="14.7250017"><ele>394.0</ele><time>2026-04-09T14:49:19.084Z</time></trkpt><trkpt lat="41.0198433" lon="14.7251367"><ele>397.0</ele><time>2026-04-09T14:49:20.084Z</time></trkpt><trkpt lat="41.01976" lon="14.72527"><ele>400.0</ele><time>2026-04-09T14:49:21.084Z</time></trkpt><trkpt lat="41.0196817" lon="14.7253967"><ele>403.0</ele><time>2026-04-09T14:49:22.084Z</time></trkpt><trkpt lat="41.0196017" lon="14.7255267"><ele>403.0</ele><time>2026-04-09T14:49:23.084Z</time></trkpt><trkpt lat="41.0195167" lon="14.7256533"><ele>403.0</ele><time>2026-04-09T14:49:24.084Z</time></trkpt><trkpt lat="41.0194383" lon="14.725795"><ele>403.0</ele><time>2026-04-09T14:49:25.084Z</time></trkpt><trkpt lat="41.0193567" lon="14.7259367"><ele>403.0</ele><time>2026-04-09T14:49:26.084Z</time></trkpt><trkpt lat="41.0192733" lon="14.7260767"><ele>400.5</ele><time>2026-04-09T14:49:27.084Z</time></trkpt><trkpt lat="41.01919" lon="14.726225"><ele>398.0</ele><time>2026-04-09T14:49:28.084Z</time></trkpt><trkpt lat="41.0191" lon="14.726385"><ele>395.5</ele><time>2026-04-09T14:49:29.084Z</time></trkpt><trkpt lat="41.0190133" lon="14.726545"><ele>393.0</ele><time>2026-04-09T14:49:30.084Z</time></trkpt><trkpt lat="41.01894" lon="14.72671"><ele>396.25</ele><time>2026-04-09T14:49:31.084Z</time></trkpt><trkpt lat="41.0188417" lon="14.72687"><ele>399.5</ele><time>2026-04-09T14:49:32.084Z</time></trkpt><trkpt lat="41.01876" lon="14.7270317"><ele>402.75</ele><time>2026-04-09T14:49:33.084Z</time></trkpt><trkpt lat="41.018685" lon="14.7271883"><ele>406.0</ele><time>2026-04-09T14:49:34.084Z</time></trkpt><trkpt lat="41.0186017" lon="14.7273383"><ele>406.0</ele><time>2026-04-09T14:49:35.084Z</time></trkpt><trkpt lat="41.0185217" lon="14.72748"><ele>406.0</ele><time>2026-04-09T14:49:36.084Z</time></trkpt><trkpt lat="41.0184517" lon="14.7276183"><ele>406.0</ele><time>2026-04-09T14:49:37.084Z</time></trkpt><trkpt lat="41.0183933" lon="14.7277567"><ele>406.0</ele><time>2026-04-09T14:49:38.084Z</time></trkpt><trkpt lat="41.018345" lon="14.7278967"><ele>406.6</ele><time>2026-04-09T14:49:39.084Z</time></trkpt><trkpt lat="41.0183033" lon="14.7280333"><ele>407.20000000000005</ele><time>2026-04-09T14:49:40.084Z</time></trkpt><trkpt lat="41.0182783" lon="14.7281767"><ele>407.79999999999995</ele><time>2026-04-09T14:49:41.084Z</time></trkpt><trkpt lat="41.0182733" lon="14.728315"><ele>408.4</ele><time>2026-04-09T14:49:42.084Z</time></trkpt><trkpt lat="41.0183" lon="14.7284433"><ele>409.0</ele><time>2026-04-09T14:49:43.084Z</time></trkpt><trkpt lat="41.0183333" lon="14.7285833"><ele>409.0</ele><time>2026-04-09T14:49:44.084Z</time></trkpt><trkpt lat="41.0183733" lon="14.7287017"><ele>409.0</ele><time>2026-04-09T14:49:45.084Z</time></trkpt><trkpt lat="41.0184233" lon="14.728815"><ele>409.0</ele><time>2026-04-09T14:49:46.084Z</time></trkpt><trkpt lat="41.018455" lon="14.7289183"><ele>409.0</ele><time>2026-04-09T14:49:47.084Z</time></trkpt><trkpt lat="41.0184683" lon="14.7290283"><ele>409.0</ele><time>2026-04-09T14:49:48.084Z</time></trkpt><trkpt lat="41.0184333" lon="14.72914"><ele>409.0</ele><time>2026-04-09T14:49:49.084Z</time></trkpt><trkpt lat="41.0183967" lon="14.7292717"><ele>409.0</ele><time>2026-04-09T14:49:50.084Z</time></trkpt><trkpt lat="41.018335" lon="14.7294133"><ele>409.0</ele><time>2026-04-09T14:49:51.084Z</time></trkpt><trkpt lat="41.0182667" lon="14.7295333"><ele>409.0</ele><time>2026-04-09T14:49:52.084Z</time></trkpt><trkpt lat="41.0181767" lon="14.7296467"><ele>410.75</ele><time>2026-04-09T14:49:53.084Z</time></trkpt><trkpt lat="41.018065" lon="14.7297617"><ele>412.5</ele><time>2026-04-09T14:49:54.084Z</time></trkpt><trkpt lat="41.017945" lon="14.7298633"><ele>414.25</ele><time>2026-04-09T14:49:55.084Z</time></trkpt><trkpt lat="41.0178317" lon="14.7299433"><ele>416.0</ele><time>2026-04-09T14:49:56.084Z</time></trkpt><trkpt lat="41.0177217" lon="14.7300133"><ele>416.0</ele><time>2026-04-09T14:49:57.084Z</time></trkpt><trkpt lat="41.0175983" lon="14.7300717"><ele>416.0</ele><time>2026-04-09T14:49:58.084Z</time></trkpt><trkpt lat="41.0174717" lon="14.7301133"><ele>416.0</ele><time>2026-04-09T14:49:59.084Z</time></trkpt><trkpt lat="41.01734" lon="14.7301483"><ele>416.0</ele><time>2026-04-09T14:50:00.084Z</time></trkpt><trkpt lat="41.01721" lon="14.7301817"><ele>416.66666666666663</ele><time>2026-04-09T14:50:01.084Z</time></trkpt><trkpt lat="41.0170667" lon="14.7302017"><ele>417.33333333333337</ele><time>2026-04-09T14:50:02.084Z</time></trkpt><trkpt lat="41.0169183" lon="14.7302067"><ele>418.0</ele><time>2026-04-09T14:50:03.084Z</time></trkpt><trkpt lat="41.016755" lon="14.7302017"><ele>420.33333333333337</ele><time>2026-04-09T14:50:04.084Z</time></trkpt><trkpt lat="41.0165983" lon="14.7301883"><ele>422.66666666666663</ele><time>2026-04-09T14:50:05.084Z</time></trkpt><trkpt lat="41.0164467" lon="14.7301783"><ele>425.0</ele><time>2026-04-09T14:50:06.084Z</time></trkpt><trkpt lat="41.0162867" lon="14.7301633"><ele>425.0</ele><time>2026-04-09T14:50:07.084Z</time></trkpt><trkpt lat="41.0161367" lon="14.73015"><ele>425.0</ele><time>2026-04-09T14:50:08.084Z</time></trkpt><trkpt lat="41.0159833" lon="14.7301383"><ele>425.0</ele><time>2026-04-09T14:50:09.084Z</time></trkpt><trkpt lat="41.015835" lon="14.7301133"><ele>425.5</ele><time>2026-04-09T14:50:10.084Z</time></trkpt><trkpt lat="41.0156933" lon="14.7300867"><ele>426.0</ele><time>2026-04-09T14:50:11.084Z</time></trkpt><trkpt lat="41.01556" lon="14.7300617"><ele>426.5</ele><time>2026-04-09T14:50:12.084Z</time></trkpt><trkpt lat="41.015435" lon="14.73004"><ele>427.0</ele><time>2026-04-09T14:50:13.084Z</time></trkpt><trkpt lat="41.0153183" lon="14.7300233"><ele>427.0</ele><time>2026-04-09T14:50:14.084Z</time></trkpt><trkpt lat="41.01521" lon="14.730025"><ele>427.00000000000006</ele><time>2026-04-09T14:50:15.084Z</time></trkpt><trkpt lat="41.0151067" lon="14.7300533"><ele>427.00000000000006</ele><time>2026-04-09T14:50:16.084Z</time></trkpt><trkpt lat="41.01501" lon="14.7301083"><ele>427.0</ele><time>2026-04-09T14:50:17.084Z</time></trkpt><trkpt lat="41.0149067" lon="14.73019"><ele>427.0</ele><time>2026-04-09T14:50:18.084Z</time></trkpt><trkpt lat="41.01482" lon="14.7303067"><ele>429.0</ele><time>2026-04-09T14:50:19.084Z</time></trkpt><trkpt lat="41.014735" lon="14.73043"><ele>431.0</ele><time>2026-04-09T14:50:20.084Z</time></trkpt><trkpt lat="41.0146333" lon="14.7305667"><ele>433.0</ele><time>2026-04-09T14:50:21.084Z</time></trkpt><trkpt lat="41.014535" lon="14.7307117"><ele>435.0</ele><time>2026-04-09T14:50:22.084Z</time></trkpt><trkpt lat="41.0144483" lon="14.7308583"><ele>435.0</ele><time>2026-04-09T14:50:23.084Z</time></trkpt><trkpt lat="41.01436" lon="14.7309933"><ele>435.0</ele><time>2026-04-09T14:50:24.084Z</time></trkpt><trkpt lat="41.014275" lon="14.7311283"><ele>435.0</ele><time>2026-04-09T14:50:25.084Z</time></trkpt><trkpt lat="41.0141917" lon="14.7312617"><ele>435.0</ele><time>2026-04-09T14:50:26.084Z</time></trkpt><trkpt lat="41.014105" lon="14.7313933"><ele>435.75</ele><time>2026-04-09T14:50:27.084Z</time></trkpt><trkpt lat="41.0140167" lon="14.73152"><ele>436.5</ele><time>2026-04-09T14:50:28.084Z</time></trkpt><trkpt lat="41.0139367" lon="14.7316367"><ele>437.25</ele><time>2026-04-09T14:50:29.084Z</time></trkpt><trkpt lat="41.01386" lon="14.7317433"><ele>438.0</ele><time>2026-04-09T14:50:30.084Z</time></trkpt><trkpt lat="41.0137883" lon="14.7318317"><ele>438.0</ele><time>2026-04-09T14:50:31.084Z</time></trkpt><trkpt lat="41.01372" lon="14.7318867"><ele>437.99999999999994</ele><time>2026-04-09T14:50:32.084Z</time></trkpt><trkpt lat="41.0136283" lon="14.7319033"><ele>437.99999999999994</ele><time>2026-04-09T14:50:33.084Z</time></trkpt><trkpt lat="41.0135283" lon="14.731905"><ele>438.0</ele><time>2026-04-09T14:50:34.084Z</time></trkpt><trkpt lat="41.01342" lon="14.731875"><ele>438.0</ele><time>2026-04-09T14:50:35.084Z</time></trkpt><trkpt lat="41.0133167" lon="14.731815"><ele>438.0</ele><time>2026-04-09T14:50:36.084Z</time></trkpt><trkpt lat="41.0132083" lon="14.7317383"><ele>438.0</ele><time>2026-04-09T14:50:37.084Z</time></trkpt><trkpt lat="41.0131067" lon="14.7316417"><ele>438.0</ele><time>2026-04-09T14:50:38.084Z</time></trkpt><trkpt lat="41.0129933" lon="14.73156"><ele>438.0</ele><time>2026-04-09T14:50:39.084Z</time></trkpt><trkpt lat="41.01288" lon="14.7314767"><ele>438.0</ele><time>2026-04-09T14:50:40.084Z</time></trkpt><trkpt lat="41.0127633" lon="14.7314067"><ele>438.0</ele><time>2026-04-09T14:50:41.084Z</time></trkpt><trkpt lat="41.0126417" lon="14.73135"><ele>438.0</ele><time>2026-04-09T14:50:42.084Z</time></trkpt><trkpt lat="41.0125133" lon="14.7312983"><ele>438.0</ele><time>2026-04-09T14:50:43.084Z</time></trkpt><trkpt lat="41.0123933" lon="14.7312633"><ele>440.75</ele><time>2026-04-09T14:50:44.084Z</time></trkpt><trkpt lat="41.0122783" lon="14.7312583"><ele>443.5</ele><time>2026-04-09T14:50:45.084Z</time></trkpt><trkpt lat="41.0121633" lon="14.7312617"><ele>446.25</ele><time>2026-04-09T14:50:46.084Z</time></trkpt><trkpt lat="41.0120483" lon="14.731275"><ele>449.0</ele><time>2026-04-09T14:50:47.084Z</time></trkpt><trkpt lat="41.0119467" lon="14.731325"><ele>449.0</ele><time>2026-04-09T14:50:48.084Z</time></trkpt><trkpt lat="41.0118617" lon="14.73138"><ele>449.0</ele><time>2026-04-09T14:50:49.084Z</time></trkpt><trkpt lat="41.011785" lon="14.731475"><ele>449.0</ele><time>2026-04-09T14:50:50.084Z</time></trkpt><trkpt lat="41.0117283" lon="14.7315917"><ele>449.0</ele><time>2026-04-09T14:50:51.084Z</time></trkpt><trkpt lat="41.0116867" lon="14.7317283"><ele>449.0</ele><time>2026-04-09T14:50:52.084Z</time></trkpt><trkpt lat="41.0116567" lon="14.731875"><ele>448.75</ele><time>2026-04-09T14:50:53.084Z</time></trkpt><trkpt lat="41.0116567" lon="14.7320317"><ele>448.5</ele><time>2026-04-09T14:50:54.084Z</time></trkpt><trkpt lat="41.0116767" lon="14.7322017"><ele>448.25</ele><time>2026-04-09T14:50:55.084Z</time></trkpt><trkpt lat="41.0117083" lon="14.7323883"><ele>448.0</ele><time>2026-04-09T14:50:56.084Z</time></trkpt><trkpt lat="41.0117317" lon="14.7325883"><ele>449.0</ele><time>2026-04-09T14:50:57.084Z</time></trkpt><trkpt lat="41.0117767" lon="14.7328033"><ele>450.0</ele><time>2026-04-09T14:50:58.084Z</time></trkpt><trkpt lat="41.011825" lon="14.733005"><ele>451.0</ele><time>2026-04-09T14:50:59.084Z</time></trkpt><trkpt lat="41.0118667" lon="14.73319"><ele>451.0</ele><time>2026-04-09T14:51:00.084Z</time></trkpt><trkpt lat="41.0119067" lon="14.7333617"><ele>451.0</ele><time>2026-04-09T14:51:01.084Z</time></trkpt><trkpt lat="41.01194" lon="14.7335233"><ele>451.0</ele><time>2026-04-09T14:51:02.084Z</time></trkpt><trkpt lat="41.0119717" lon="14.733665"><ele>451.0</ele><time>2026-04-09T14:51:03.084Z</time></trkpt><trkpt lat="41.0120017" lon="14.733805"><ele>450.20000000000005</ele><time>2026-04-09T14:51:04.084Z</time></trkpt><trkpt lat="41.012025" lon="14.7339467"><ele>449.40000000000003</ele><time>2026-04-09T14:51:05.084Z</time></trkpt><trkpt lat="41.0120483" lon="14.7340883"><ele>448.6</ele><time>2026-04-09T14:51:06.084Z</time></trkpt><trkpt lat="41.0120783" lon="14.7342233"><ele>447.8</ele><time>2026-04-09T14:51:07.084Z</time></trkpt><trkpt lat="41.0120983" lon="14.734345"><ele>447.0</ele><time>2026-04-09T14:51:08.084Z</time></trkpt><trkpt lat="41.01212" lon="14.73445"><ele>445.0</ele><time>2026-04-09T14:51:09.084Z</time></trkpt><trkpt lat="41.012155" lon="14.7345367"><ele>443.0</ele><time>2026-04-09T14:51:10.084Z</time></trkpt><trkpt lat="41.012205" lon="14.7346333"><ele>441.0</ele><time>2026-04-09T14:51:11.084Z</time></trkpt><trkpt lat="41.0122483" lon="14.7347367"><ele>439.0</ele><time>2026-04-09T14:51:12.084Z</time></trkpt><trkpt lat="41.0123" lon="14.7348383"><ele>437.0</ele><time>2026-04-09T14:51:13.084Z</time></trkpt><trkpt lat="41.01236" lon="14.7349317"><ele>435.0</ele><time>2026-04-09T14:51:14.084Z</time></trkpt><trkpt lat="41.01242" lon="14.7350183"><ele>435.0</ele><time>2026-04-09T14:51:15.084Z</time></trkpt><trkpt lat="41.0124883" lon="14.7351033"><ele>435.0</ele><time>2026-04-09T14:51:16.084Z</time></trkpt><trkpt lat="41.0125767" lon="14.7351933"><ele>435.0</ele><time>2026-04-09T14:51:17.084Z</time></trkpt><trkpt lat="41.01269" lon="14.7352633"><ele>435.0</ele><time>2026-04-09T14:51:18.084Z</time></trkpt><trkpt lat="41.0128017" lon="14.73533"><ele>433.25</ele><time>2026-04-09T14:51:19.084Z</time></trkpt><trkpt lat="41.0129117" lon="14.7353917"><ele>431.5</ele><time>2026-04-09T14:51:20.084Z</time></trkpt><trkpt lat="41.0130217" lon="14.7354533"><ele>429.75</ele><time>2026-04-09T14:51:21.084Z</time></trkpt><trkpt lat="41.0131383" lon="14.735525"><ele>428.0</ele><time>2026-04-09T14:51:22.084Z</time></trkpt><trkpt lat="41.013245" lon="14.7355983"><ele>429.4</ele><time>2026-04-09T14:51:23.084Z</time></trkpt><trkpt lat="41.013345" lon="14.7356667"><ele>430.79999999999995</ele><time>2026-04-09T14:51:24.084Z</time></trkpt><trkpt lat="41.013435" lon="14.735735"><ele>432.2</ele><time>2026-04-09T14:51:25.084Z</time></trkpt><trkpt lat="41.013525" lon="14.735805"><ele>433.6</ele><time>2026-04-09T14:51:26.084Z</time></trkpt><trkpt lat="41.013605" lon="14.7358767"><ele>435.0</ele><time>2026-04-09T14:51:27.084Z</time></trkpt><trkpt lat="41.0136717" lon="14.7359517"><ele>435.0</ele><time>2026-04-09T14:51:28.084Z</time></trkpt><trkpt lat="41.0137317" lon="14.7360267"><ele>435.0</ele><time>2026-04-09T14:51:29.084Z</time></trkpt><trkpt lat="41.0137733" lon="14.7361133"><ele>435.0</ele><time>2026-04-09T14:51:30.084Z</time></trkpt><trkpt lat="41.0137917" lon="14.7362033"><ele>435.0</ele><time>2026-04-09T14:51:31.084Z</time></trkpt><trkpt lat="41.0137733" lon="14.736285"><ele>435.0</ele><time>2026-04-09T14:51:32.084Z</time></trkpt><trkpt lat="41.0136667" lon="14.7363667"><ele>435.0</ele><time>2026-04-09T14:51:34.084Z</time></trkpt><trkpt lat="41.0135833" lon="14.736365"><ele>432.4</ele><time>2026-04-09T14:51:35.084Z</time></trkpt><trkpt lat="41.0134883" lon="14.7363333"><ele>429.8</ele><time>2026-04-09T14:51:36.084Z</time></trkpt><trkpt lat="41.0133817" lon="14.7362933"><ele>427.20000000000005</ele><time>2026-04-09T14:51:37.084Z</time></trkpt><trkpt lat="41.013275" lon="14.73624"><ele>424.6</ele><time>2026-04-09T14:51:38.084Z</time></trkpt><trkpt lat="41.0131767" lon="14.736195"><ele>422.0</ele><time>2026-04-09T14:51:39.084Z</time></trkpt><trkpt lat="41.0130817" lon="14.73615"><ele>422.99999999999994</ele><time>2026-04-09T14:51:40.084Z</time></trkpt><trkpt lat="41.0129883" lon="14.7361117"><ele>424.0</ele><time>2026-04-09T14:51:41.084Z</time></trkpt><trkpt lat="41.0129117" lon="14.736085"><ele>425.0</ele><time>2026-04-09T14:51:42.084Z</time></trkpt><trkpt lat="41.0128333" lon="14.73606"><ele>426.0</ele><time>2026-04-09T14:51:43.084Z</time></trkpt><trkpt lat="41.012755" lon="14.7360283"><ele>426.99999999999994</ele><time>2026-04-09T14:51:44.084Z</time></trkpt><trkpt lat="41.012675" lon="14.7360033"><ele>428.0</ele><time>2026-04-09T14:51:45.084Z</time></trkpt><trkpt lat="41.0125833" lon="14.7359817"><ele>428.0</ele><time>2026-04-09T14:51:46.084Z</time></trkpt><trkpt lat="41.0124967" lon="14.7359617"><ele>427.99999999999994</ele><time>2026-04-09T14:51:47.084Z</time></trkpt><trkpt lat="41.0124033" lon="14.7359467"><ele>427.99999999999994</ele><time>2026-04-09T14:51:48.084Z</time></trkpt><trkpt lat="41.0123083" lon="14.7359333"><ele>428.0</ele><time>2026-04-09T14:51:49.084Z</time></trkpt><trkpt lat="41.012215" lon="14.7359183"><ele>428.0</ele><time>2026-04-09T14:51:50.084Z</time></trkpt><trkpt lat="41.012125" lon="14.7359117"><ele>426.99999999999994</ele><time>2026-04-09T14:51:51.084Z</time></trkpt><trkpt lat="41.0120383" lon="14.7359167"><ele>426.0</ele><time>2026-04-09T14:51:52.084Z</time></trkpt><trkpt lat="41.01196" lon="14.735935"><ele>425.0</ele><time>2026-04-09T14:51:53.084Z</time></trkpt><trkpt lat="41.0118933" lon="14.73598"><ele>424.0</ele><time>2026-04-09T14:51:54.084Z</time></trkpt><trkpt lat="41.01184" lon="14.7360417"><ele>422.99999999999994</ele><time>2026-04-09T14:51:55.084Z</time></trkpt><trkpt lat="41.0118067" lon="14.73613"><ele>422.0</ele><time>2026-04-09T14:51:56.084Z</time></trkpt><trkpt lat="41.0117967" lon="14.7362233"><ele>419.0</ele><time>2026-04-09T14:51:57.084Z</time></trkpt><trkpt lat="41.01182" lon="14.7363083"><ele>416.0</ele><time>2026-04-09T14:51:58.084Z</time></trkpt><trkpt lat="41.0118883" lon="14.736385"><ele>413.0</ele><time>2026-04-09T14:51:59.084Z</time></trkpt><trkpt lat="41.011975" lon="14.73644"><ele>410.0</ele><time>2026-04-09T14:52:00.084Z</time></trkpt><trkpt lat="41.0120767" lon="14.7364717"><ele>407.0</ele><time>2026-04-09T14:52:01.084Z</time></trkpt><trkpt lat="41.01219" lon="14.7364917"><ele>407.0</ele><time>2026-04-09T14:52:02.084Z</time></trkpt><trkpt lat="41.012305" lon="14.7365167"><ele>407.0</ele><time>2026-04-09T14:52:03.084Z</time></trkpt><trkpt lat="41.0124133" lon="14.7365567"><ele>407.0</ele><time>2026-04-09T14:52:04.084Z</time></trkpt><trkpt lat="41.012505" lon="14.7365833"><ele>407.0</ele><time>2026-04-09T14:52:05.084Z</time></trkpt><trkpt lat="41.0125867" lon="14.7366083"><ele>407.0</ele><time>2026-04-09T14:52:06.084Z</time></trkpt><trkpt lat="41.0126617" lon="14.7366433"><ele>405.8</ele><time>2026-04-09T14:52:07.084Z</time></trkpt><trkpt lat="41.0127317" lon="14.736685"><ele>404.6</ele><time>2026-04-09T14:52:08.084Z</time></trkpt><trkpt lat="41.0128133" lon="14.7367433"><ele>403.40000000000003</ele><time>2026-04-09T14:52:09.084Z</time></trkpt><trkpt lat="41.012895" lon="14.7368217"><ele>402.20000000000005</ele><time>2026-04-09T14:52:10.084Z</time></trkpt><trkpt lat="41.0129717" lon="14.7369117"><ele>401.0</ele><time>2026-04-09T14:52:11.084Z</time></trkpt><trkpt lat="41.01304" lon="14.7369983"><ele>401.0</ele><time>2026-04-09T14:52:12.084Z</time></trkpt><trkpt lat="41.0131033" lon="14.7370883"><ele>401.0</ele><time>2026-04-09T14:52:13.084Z</time></trkpt><trkpt lat="41.0131683" lon="14.737195"><ele>401.0</ele><time>2026-04-09T14:52:14.084Z</time></trkpt><trkpt lat="41.013235" lon="14.7373133"><ele>401.0</ele><time>2026-04-09T14:52:15.084Z</time></trkpt><trkpt lat="41.0133" lon="14.737445"><ele>401.0</ele><time>2026-04-09T14:52:16.084Z</time></trkpt><trkpt lat="41.0133617" lon="14.737585"><ele>400.25</ele><time>2026-04-09T14:52:17.084Z</time></trkpt><trkpt lat="41.0134183" lon="14.737725"><ele>399.5</ele><time>2026-04-09T14:52:18.084Z</time></trkpt><trkpt lat="41.0134717" lon="14.7378683"><ele>398.75</ele><time>2026-04-09T14:52:19.084Z</time></trkpt><trkpt lat="41.0135217" lon="14.7380017"><ele>398.0</ele><time>2026-04-09T14:52:20.084Z</time></trkpt><trkpt lat="41.0135683" lon="14.7381417"><ele>398.0</ele><time>2026-04-09T14:52:21.084Z</time></trkpt><trkpt lat="41.0136083" lon="14.7382767"><ele>398.0</ele><time>2026-04-09T14:52:22.084Z</time></trkpt><trkpt lat="41.0136433" lon="14.7384083"><ele>398.0</ele><time>2026-04-09T14:52:23.084Z</time></trkpt><trkpt lat="41.0136717" lon="14.73855"><ele>398.0</ele><time>2026-04-09T14:52:24.084Z</time></trkpt><trkpt lat="41.0137033" lon="14.7386967"><ele>398.0</ele><time>2026-04-09T14:52:25.084Z</time></trkpt><trkpt lat="41.0137383" lon="14.7388467"><ele>396.75</ele><time>2026-04-09T14:52:26.084Z</time></trkpt><trkpt lat="41.01375" lon="14.7389883"><ele>395.5</ele><time>2026-04-09T14:52:27.084Z</time></trkpt><trkpt lat="41.013745" lon="14.739135"><ele>394.25</ele><time>2026-04-09T14:52:28.084Z</time></trkpt><trkpt lat="41.013715" lon="14.739285"><ele>393.0</ele><time>2026-04-09T14:52:29.084Z</time></trkpt><trkpt lat="41.0136733" lon="14.7394417"><ele>392.59999999999997</ele><time>2026-04-09T14:52:30.084Z</time></trkpt><trkpt lat="41.013625" lon="14.73958"><ele>392.2</ele><time>2026-04-09T14:52:31.084Z</time></trkpt><trkpt lat="41.0135817" lon="14.7397117"><ele>391.8</ele><time>2026-04-09T14:52:32.084Z</time></trkpt><trkpt lat="41.013545" lon="14.739835"><ele>391.4</ele><time>2026-04-09T14:52:33.084Z</time></trkpt><trkpt lat="41.013535" lon="14.7399533"><ele>391.0</ele><time>2026-04-09T14:52:34.084Z</time></trkpt><trkpt lat="41.013555" lon="14.7400717"><ele>391.0</ele><time>2026-04-09T14:52:35.084Z</time></trkpt><trkpt lat="41.0135933" lon="14.7401733"><ele>391.0</ele><time>2026-04-09T14:52:36.084Z</time></trkpt><trkpt lat="41.0136517" lon="14.7402783"><ele>391.0</ele><time>2026-04-09T14:52:37.084Z</time></trkpt><trkpt lat="41.01373" lon="14.74036"><ele>391.0</ele><time>2026-04-09T14:52:38.084Z</time></trkpt><trkpt lat="41.0138167" lon="14.74042"><ele>391.0</ele><time>2026-04-09T14:52:39.084Z</time></trkpt><trkpt lat="41.0139183" lon="14.7404667"><ele>390.25</ele><time>2026-04-09T14:52:40.084Z</time></trkpt><trkpt lat="41.01403" lon="14.7404933"><ele>389.5</ele><time>2026-04-09T14:52:41.084Z</time></trkpt><trkpt lat="41.0141517" lon="14.7405183"><ele>388.75</ele><time>2026-04-09T14:52:42.084Z</time></trkpt><trkpt lat="41.0142767" lon="14.7405483"><ele>388.0</ele><time>2026-04-09T14:52:43.084Z</time></trkpt><trkpt lat="41.0144017" lon="14.7405833"><ele>388.0</ele><time>2026-04-09T14:52:44.084Z</time></trkpt><trkpt lat="41.014515" lon="14.7406283"><ele>388.0</ele><time>2026-04-09T14:52:45.084Z</time></trkpt><trkpt lat="41.0146317" lon="14.740695"><ele>388.0</ele><time>2026-04-09T14:52:46.084Z</time></trkpt><trkpt lat="41.0147517" lon="14.7407767"><ele>388.0</ele><time>2026-04-09T14:52:47.084Z</time></trkpt><trkpt lat="41.0148683" lon="14.7408783"><ele>388.0</ele><time>2026-04-09T14:52:48.084Z</time></trkpt><trkpt lat="41.0149733" lon="14.7409683"><ele>388.0</ele><time>2026-04-09T14:52:49.084Z</time></trkpt><trkpt lat="41.0150717" lon="14.7410683"><ele>388.0</ele><time>2026-04-09T14:52:50.084Z</time></trkpt><trkpt lat="41.0151567" lon="14.741175"><ele>388.0</ele><time>2026-04-09T14:52:51.084Z</time></trkpt><trkpt lat="41.0152367" lon="14.74129"><ele>386.4</ele><time>2026-04-09T14:52:52.084Z</time></trkpt><trkpt lat="41.0153083" lon="14.7413967"><ele>384.79999999999995</ele><time>2026-04-09T14:52:53.084Z</time></trkpt><trkpt lat="41.0153583" lon="14.7415067"><ele>383.2</ele><time>2026-04-09T14:52:54.084Z</time></trkpt><trkpt lat="41.0153983" lon="14.7416333"><ele>381.6</ele><time>2026-04-09T14:52:55.084Z</time></trkpt><trkpt lat="41.0154233" lon="14.7417817"><ele>380.0</ele><time>2026-04-09T14:52:56.084Z</time></trkpt><trkpt lat="41.0154067" lon="14.7419333"><ele>378.75</ele><time>2026-04-09T14:52:57.084Z</time></trkpt><trkpt lat="41.0153683" lon="14.7420917"><ele>377.5</ele><time>2026-04-09T14:52:58.084Z</time></trkpt><trkpt lat="41.0153233" lon="14.7422567"><ele>376.25</ele><time>2026-04-09T14:52:59.084Z</time></trkpt><trkpt lat="41.0152683" lon="14.7424283"><ele>375.0</ele><time>2026-04-09T14:53:00.084Z</time></trkpt><trkpt lat="41.01522" lon="14.742605"><ele>374.25</ele><time>2026-04-09T14:53:01.084Z</time></trkpt><trkpt lat="41.0151717" lon="14.742775"><ele>373.5</ele><time>2026-04-09T14:53:02.084Z</time></trkpt><trkpt lat="41.0151267" lon="14.7429467"><ele>372.75</ele><time>2026-04-09T14:53:03.084Z</time></trkpt><trkpt lat="41.0150783" lon="14.7431067"><ele>372.0</ele><time>2026-04-09T14:53:04.084Z</time></trkpt><trkpt lat="41.0150317" lon="14.7432567"><ele>369.0</ele><time>2026-04-09T14:53:05.084Z</time></trkpt><trkpt lat="41.0149867" lon="14.7434033"><ele>366.0</ele><time>2026-04-09T14:53:06.084Z</time></trkpt><trkpt lat="41.014945" lon="14.7435417"><ele>363.0</ele><time>2026-04-09T14:53:07.084Z</time></trkpt><trkpt lat="41.0149017" lon="14.7436717"><ele>360.0</ele><time>2026-04-09T14:53:08.084Z</time></trkpt><trkpt lat="41.0148517" lon="14.74378"><ele>357.0</ele><time>2026-04-09T14:53:09.084Z</time></trkpt><trkpt lat="41.01479" lon="14.743865"><ele>355.0</ele><time>2026-04-09T14:53:10.084Z</time></trkpt><trkpt lat="41.01472" lon="14.7439133"><ele>353.0</ele><time>2026-04-09T14:53:11.084Z</time></trkpt><trkpt lat="41.0146417" lon="14.74394"><ele>351.0</ele><time>2026-04-09T14:53:12.084Z</time></trkpt><trkpt lat="41.0145567" lon="14.7439317"><ele>349.0</ele><time>2026-04-09T14:53:13.084Z</time></trkpt><trkpt lat="41.0144817" lon="14.74389"><ele>347.0</ele><time>2026-04-09T14:53:14.084Z</time></trkpt><trkpt lat="41.0144267" lon="14.74382"><ele>345.0</ele><time>2026-04-09T14:53:15.084Z</time></trkpt><trkpt lat="41.014395" lon="14.7436983"><ele>348.0</ele><time>2026-04-09T14:53:16.084Z</time></trkpt><trkpt lat="41.014385" lon="14.743535"><ele>351.0</ele><time>2026-04-09T14:53:17.084Z</time></trkpt><trkpt lat="41.0143883" lon="14.7433583"><ele>354.0</ele><time>2026-04-09T14:53:18.084Z</time></trkpt><trkpt lat="41.014395" lon="14.74319"><ele>357.0</ele><time>2026-04-09T14:53:19.084Z</time></trkpt><trkpt lat="41.014405" lon="14.7430333"><ele>357.0</ele><time>2026-04-09T14:53:20.084Z</time></trkpt><trkpt lat="41.0144183" lon="14.7428817"><ele>357.0</ele><time>2026-04-09T14:53:21.084Z</time></trkpt><trkpt lat="41.0144267" lon="14.7427467"><ele>357.0</ele><time>2026-04-09T14:53:22.084Z</time></trkpt><trkpt lat="41.01442" lon="14.742625"><ele>357.0</ele><time>2026-04-09T14:53:23.084Z</time></trkpt><trkpt lat="41.0144017" lon="14.7425217"><ele>357.0</ele><time>2026-04-09T14:53:24.084Z</time></trkpt><trkpt lat="41.01436" lon="14.7424417"><ele>357.8</ele><time>2026-04-09T14:53:25.084Z</time></trkpt><trkpt lat="41.0143017" lon="14.7423783"><ele>358.6</ele><time>2026-04-09T14:53:26.084Z</time></trkpt><trkpt lat="41.0142083" lon="14.7423533"><ele>359.40000000000003</ele><time>2026-04-09T14:53:27.084Z</time></trkpt><trkpt lat="41.0141" lon="14.7423683"><ele>360.20000000000005</ele><time>2026-04-09T14:53:28.084Z</time></trkpt><trkpt lat="41.013985" lon="14.74241"><ele>361.0</ele><time>2026-04-09T14:53:29.084Z</time></trkpt><trkpt lat="41.0138567" lon="14.7424683"><ele>361.0</ele><time>2026-04-09T14:53:30.084Z</time></trkpt><trkpt lat="41.01373" lon="14.742525"><ele>361.0</ele><time>2026-04-09T14:53:31.084Z</time></trkpt><trkpt lat="41.013605" lon="14.7425717"><ele>361.0</ele><time>2026-04-09T14:53:32.084Z</time></trkpt><trkpt lat="41.013485" lon="14.7426267"><ele>361.0</ele><time>2026-04-09T14:53:33.084Z</time></trkpt><trkpt lat="41.0133567" lon="14.7426567"><ele>359.5</ele><time>2026-04-09T14:53:34.084Z</time></trkpt><trkpt lat="41.0132217" lon="14.7426833"><ele>358.0</ele><time>2026-04-09T14:53:35.084Z</time></trkpt><trkpt lat="41.0130833" lon="14.7427067"><ele>356.5</ele><time>2026-04-09T14:53:36.084Z</time></trkpt><trkpt lat="41.0129467" lon="14.7427233"><ele>355.0</ele><time>2026-04-09T14:53:37.084Z</time></trkpt><trkpt lat="41.0128183" lon="14.7427333"><ele>352.5</ele><time>2026-04-09T14:53:38.084Z</time></trkpt><trkpt lat="41.0127017" lon="14.7427383"><ele>350.0</ele><time>2026-04-09T14:53:39.084Z</time></trkpt><trkpt lat="41.0125867" lon="14.7427417"><ele>347.5</ele><time>2026-04-09T14:53:40.084Z</time></trkpt><trkpt lat="41.012475" lon="14.74274"><ele>345.0</ele><time>2026-04-09T14:53:41.084Z</time></trkpt><trkpt lat="41.0123667" lon="14.742735"><ele>344.8</ele><time>2026-04-09T14:53:42.084Z</time></trkpt><trkpt lat="41.012255" lon="14.74272"><ele>344.6</ele><time>2026-04-09T14:53:43.084Z</time></trkpt><trkpt lat="41.012155" lon="14.7426883"><ele>344.4</ele><time>2026-04-09T14:53:44.084Z</time></trkpt><trkpt lat="41.0120617" lon="14.7426317"><ele>344.2</ele><time>2026-04-09T14:53:45.084Z</time></trkpt><trkpt lat="41.0119767" lon="14.74256"><ele>344.0</ele><time>2026-04-09T14:53:46.084Z</time></trkpt><trkpt lat="41.0118967" lon="14.742475"><ele>344.0</ele><time>2026-04-09T14:53:47.084Z</time></trkpt><trkpt lat="41.0118233" lon="14.74236"><ele>344.0</ele><time>2026-04-09T14:53:48.084Z</time></trkpt><trkpt lat="41.0117633" lon="14.7422217"><ele>344.0</ele><time>2026-04-09T14:53:49.084Z</time></trkpt><trkpt lat="41.011705" lon="14.7420833"><ele>344.0</ele><time>2026-04-09T14:53:50.084Z</time></trkpt><trkpt lat="41.0116433" lon="14.7419567"><ele>342.2</ele><time>2026-04-09T14:53:51.084Z</time></trkpt><trkpt lat="41.011575" lon="14.7418367"><ele>340.4</ele><time>2026-04-09T14:53:52.084Z</time></trkpt><trkpt lat="41.0115067" lon="14.7417333"><ele>338.6</ele><time>2026-04-09T14:53:53.084Z</time></trkpt><trkpt lat="41.0114283" lon="14.7416333"><ele>336.8</ele><time>2026-04-09T14:53:54.084Z</time></trkpt><trkpt lat="41.0113333" lon="14.741555"><ele>335.0</ele><time>2026-04-09T14:53:55.084Z</time></trkpt><trkpt lat="41.0112183" lon="14.7414817"><ele>335.0</ele><time>2026-04-09T14:53:56.084Z</time></trkpt><trkpt lat="41.011105" lon="14.74142"><ele>335.0</ele><time>2026-04-09T14:53:57.084Z</time></trkpt><trkpt lat="41.0109933" lon="14.7413683"><ele>335.0</ele><time>2026-04-09T14:53:58.084Z</time></trkpt><trkpt lat="41.0108867" lon="14.7413033"><ele>335.0</ele><time>2026-04-09T14:53:59.084Z</time></trkpt><trkpt lat="41.0107917" lon="14.7412333"><ele>333.5</ele><time>2026-04-09T14:54:00.084Z</time></trkpt><trkpt lat="41.0106917" lon="14.741155"><ele>332.0</ele><time>2026-04-09T14:54:01.084Z</time></trkpt><trkpt lat="41.01059" lon="14.7410833"><ele>330.5</ele><time>2026-04-09T14:54:02.084Z</time></trkpt><trkpt lat="41.0104883" lon="14.7410067"><ele>329.0</ele><time>2026-04-09T14:54:03.084Z</time></trkpt><trkpt lat="41.01039" lon="14.7409467"><ele>331.6</ele><time>2026-04-09T14:54:04.084Z</time></trkpt><trkpt lat="41.0102933" lon="14.7408967"><ele>334.2</ele><time>2026-04-09T14:54:05.084Z</time></trkpt><trkpt lat="41.0101967" lon="14.740865"><ele>336.8</ele><time>2026-04-09T14:54:06.084Z</time></trkpt><trkpt lat="41.0101083" lon="14.74086"><ele>339.40000000000003</ele><time>2026-04-09T14:54:07.084Z</time></trkpt><trkpt lat="41.010025" lon="14.7408717"><ele>342.0</ele><time>2026-04-09T14:54:08.084Z</time></trkpt><trkpt lat="41.0099467" lon="14.7409167"><ele>343.8333333333333</ele><time>2026-04-09T14:54:09.084Z</time></trkpt><trkpt lat="41.0098717" lon="14.74098"><ele>345.6666666666667</ele><time>2026-04-09T14:54:10.084Z</time></trkpt><trkpt lat="41.00981" lon="14.7410533"><ele>347.5</ele><time>2026-04-09T14:54:11.084Z</time></trkpt><trkpt lat="41.0098" lon="14.741145"><ele>349.33333333333337</ele><time>2026-04-09T14:54:12.084Z</time></trkpt><trkpt lat="41.0098233" lon="14.7412383"><ele>351.1666666666667</ele><time>2026-04-09T14:54:13.084Z</time></trkpt><trkpt lat="41.0098883" lon="14.7413133"><ele>353.0</ele><time>2026-04-09T14:54:14.084Z</time></trkpt><trkpt lat="41.0099967" lon="14.7413967"><ele>347.0</ele><time>2026-04-09T14:54:15.084Z</time></trkpt><trkpt lat="41.0101033" lon="14.7414817"><ele>341.0</ele><time>2026-04-09T14:54:16.084Z</time></trkpt><trkpt lat="41.0102017" lon="14.74157"><ele>335.0</ele><time>2026-04-09T14:54:17.084Z</time></trkpt><trkpt lat="41.0102917" lon="14.74166"><ele>329.0</ele><time>2026-04-09T14:54:18.084Z</time></trkpt><trkpt lat="41.01037" lon="14.7417467"><ele>329.0</ele><time>2026-04-09T14:54:19.084Z</time></trkpt><trkpt lat="41.0104433" lon="14.74182"><ele>329.0</ele><time>2026-04-09T14:54:20.084Z</time></trkpt><trkpt lat="41.0105117" lon="14.7419117"><ele>329.0</ele><time>2026-04-09T14:54:21.084Z</time></trkpt><trkpt lat="41.0105733" lon="14.742005"><ele>329.0</ele><time>2026-04-09T14:54:22.084Z</time></trkpt><trkpt lat="41.01063" lon="14.7421117"><ele>329.0</ele><time>2026-04-09T14:54:23.084Z</time></trkpt><trkpt lat="41.0106767" lon="14.742235"><ele>326.59999999999997</ele><time>2026-04-09T14:54:24.084Z</time></trkpt><trkpt lat="41.0107217" lon="14.7423683"><ele>324.2</ele><time>2026-04-09T14:54:25.084Z</time></trkpt><trkpt lat="41.01076" lon="14.7425033"><ele>321.79999999999995</ele><time>2026-04-09T14:54:26.084Z</time></trkpt><trkpt lat="41.0107883" lon="14.74264"><ele>319.4</ele><time>2026-04-09T14:54:27.084Z</time></trkpt><trkpt lat="41.0108033" lon="14.7427817"><ele>317.0</ele><time>2026-04-09T14:54:28.084Z</time></trkpt><trkpt lat="41.0108067" lon="14.7429167"><ele>316.2</ele><time>2026-04-09T14:54:29.084Z</time></trkpt><trkpt lat="41.0107983" lon="14.743055"><ele>315.4</ele><time>2026-04-09T14:54:30.084Z</time></trkpt><trkpt lat="41.0107717" lon="14.743185"><ele>314.6</ele><time>2026-04-09T14:54:31.084Z</time></trkpt><trkpt lat="41.0107317" lon="14.7433133"><ele>313.8</ele><time>2026-04-09T14:54:32.084Z</time></trkpt><trkpt lat="41.0106833" lon="14.7434383"><ele>313.0</ele><time>2026-04-09T14:54:33.084Z</time></trkpt><trkpt lat="41.0106283" lon="14.7435617"><ele>312.4</ele><time>2026-04-09T14:54:34.084Z</time></trkpt><trkpt lat="41.0105633" lon="14.7436717"><ele>311.8</ele><time>2026-04-09T14:54:35.084Z</time></trkpt><trkpt lat="41.01049" lon="14.7437683"><ele>311.2</ele><time>2026-04-09T14:54:36.084Z</time></trkpt><trkpt lat="41.0104317" lon="14.7438467"><ele>310.6</ele><time>2026-04-09T14:54:37.084Z</time></trkpt><trkpt lat="41.0103917" lon="14.7439383"><ele>310.0</ele><time>2026-04-09T14:54:38.084Z</time></trkpt><trkpt lat="41.0103567" lon="14.7440417"><ele>310.0</ele><time>2026-04-09T14:54:39.084Z</time></trkpt><trkpt lat="41.0103267" lon="14.7441417"><ele>310.0</ele><time>2026-04-09T14:54:40.084Z</time></trkpt><trkpt lat="41.01032" lon="14.7442567"><ele>310.0</ele><time>2026-04-09T14:54:41.084Z</time></trkpt><trkpt lat="41.010335" lon="14.744375"><ele>310.0</ele><time>2026-04-09T14:54:42.084Z</time></trkpt><trkpt lat="41.010385" lon="14.7444967"><ele>310.0</ele><time>2026-04-09T14:54:43.084Z</time></trkpt><trkpt lat="41.0104517" lon="14.744615"><ele>311.0</ele><time>2026-04-09T14:54:44.084Z</time></trkpt><trkpt lat="41.0105283" lon="14.7447133"><ele>312.0</ele><time>2026-04-09T14:54:45.084Z</time></trkpt><trkpt lat="41.01062" lon="14.7448183"><ele>313.0</ele><time>2026-04-09T14:54:46.084Z</time></trkpt><trkpt lat="41.0107217" lon="14.7449133"><ele>314.0</ele><time>2026-04-09T14:54:47.084Z</time></trkpt><trkpt lat="41.010835" lon="14.74499"><ele>314.0</ele><time>2026-04-09T14:54:48.084Z</time></trkpt><trkpt lat="41.010945" lon="14.74507"><ele>314.0</ele><time>2026-04-09T14:54:49.084Z</time></trkpt><trkpt lat="41.0110533" lon="14.7451517"><ele>314.0</ele><time>2026-04-09T14:54:50.084Z</time></trkpt><trkpt lat="41.0111583" lon="14.7452533"><ele>314.0</ele><time>2026-04-09T14:54:51.084Z</time></trkpt><trkpt lat="41.0112633" lon="14.7453583"><ele>310.75</ele><time>2026-04-09T14:54:52.084Z</time></trkpt><trkpt lat="41.0113733" lon="14.74544"><ele>307.5</ele><time>2026-04-09T14:54:53.084Z</time></trkpt><trkpt lat="41.011475" lon="14.7455"><ele>304.25</ele><time>2026-04-09T14:54:54.084Z</time></trkpt><trkpt lat="41.0115883" lon="14.7455417"><ele>301.0</ele><time>2026-04-09T14:54:55.084Z</time></trkpt><trkpt lat="41.01171" lon="14.74556"><ele>301.0</ele><time>2026-04-09T14:54:56.084Z</time></trkpt><trkpt lat="41.0118467" lon="14.74555"><ele>301.0</ele><time>2026-04-09T14:54:57.084Z</time></trkpt><trkpt lat="41.011985" lon="14.745525"><ele>301.0</ele><time>2026-04-09T14:54:58.084Z</time></trkpt><trkpt lat="41.01212" lon="14.7454917"><ele>301.0</ele><time>2026-04-09T14:54:59.084Z</time></trkpt><trkpt lat="41.012245" lon="14.74545"><ele>301.0</ele><time>2026-04-09T14:55:00.084Z</time></trkpt><trkpt lat="41.0123683" lon="14.7454167"><ele>301.0</ele><time>2026-04-09T14:55:01.084Z</time></trkpt><trkpt lat="41.0124817" lon="14.74538"><ele>301.0</ele><time>2026-04-09T14:55:02.084Z</time></trkpt><trkpt lat="41.0125983" lon="14.7453617"><ele>301.0</ele><time>2026-04-09T14:55:03.084Z</time></trkpt><trkpt lat="41.012705" lon="14.7453617"><ele>301.2</ele><time>2026-04-09T14:55:04.084Z</time></trkpt><trkpt lat="41.0128033" lon="14.745395"><ele>301.40000000000003</ele><time>2026-04-09T14:55:05.084Z</time></trkpt><trkpt lat="41.0128933" lon="14.7454633"><ele>301.6</ele><time>2026-04-09T14:55:06.084Z</time></trkpt><trkpt lat="41.0129633" lon="14.7455717"><ele>301.8</ele><time>2026-04-09T14:55:07.084Z</time></trkpt><trkpt lat="41.0130067" lon="14.7456983"><ele>302.0</ele><time>2026-04-09T14:55:08.084Z</time></trkpt><trkpt lat="41.0130333" lon="14.74585"><ele>302.0</ele><time>2026-04-09T14:55:09.084Z</time></trkpt><trkpt lat="41.01305" lon="14.7460133"><ele>302.0</ele><time>2026-04-09T14:55:10.084Z</time></trkpt><trkpt lat="41.013055" lon="14.7461767"><ele>302.0</ele><time>2026-04-09T14:55:11.084Z</time></trkpt><trkpt lat="41.0130433" lon="14.7463367"><ele>302.0</ele><time>2026-04-09T14:55:12.084Z</time></trkpt><trkpt lat="41.0130267" lon="14.7464867"><ele>300.0</ele><time>2026-04-09T14:55:13.084Z</time></trkpt><trkpt lat="41.013" lon="14.746635"><ele>298.0</ele><time>2026-04-09T14:55:14.084Z</time></trkpt><trkpt lat="41.0129633" lon="14.7467717"><ele>296.0</ele><time>2026-04-09T14:55:15.084Z</time></trkpt><trkpt lat="41.0129083" lon="14.7469083"><ele>294.0</ele><time>2026-04-09T14:55:16.084Z</time></trkpt><trkpt lat="41.0128367" lon="14.7470383"><ele>293.5</ele><time>2026-04-09T14:55:17.084Z</time></trkpt><trkpt lat="41.0127483" lon="14.747155"><ele>293.0</ele><time>2026-04-09T14:55:18.084Z</time></trkpt><trkpt lat="41.012655" lon="14.74726"><ele>292.5</ele><time>2026-04-09T14:55:19.084Z</time></trkpt><trkpt lat="41.0125667" lon="14.7473717"><ele>292.0</ele><time>2026-04-09T14:55:20.084Z</time></trkpt><trkpt lat="41.0124967" lon="14.7474917"><ele>290.0</ele><time>2026-04-09T14:55:21.084Z</time></trkpt><trkpt lat="41.0124417" lon="14.747625"><ele>288.0</ele><time>2026-04-09T14:55:22.084Z</time></trkpt><trkpt lat="41.0123983" lon="14.747775"><ele>286.0</ele><time>2026-04-09T14:55:23.084Z</time></trkpt><trkpt lat="41.012365" lon="14.74793"><ele>284.0</ele><time>2026-04-09T14:55:24.084Z</time></trkpt><trkpt lat="41.01236" lon="14.7480967"><ele>283.0</ele><time>2026-04-09T14:55:25.084Z</time></trkpt><trkpt lat="41.0123717" lon="14.7482733"><ele>282.0</ele><time>2026-04-09T14:55:26.084Z</time></trkpt><trkpt lat="41.0123917" lon="14.7484583"><ele>281.0</ele><time>2026-04-09T14:55:27.084Z</time></trkpt><trkpt lat="41.0124117" lon="14.7486367"><ele>280.0</ele><time>2026-04-09T14:55:28.084Z</time></trkpt><trkpt lat="41.0124333" lon="14.74881"><ele>278.0</ele><time>2026-04-09T14:55:29.084Z</time></trkpt><trkpt lat="41.0124433" lon="14.7489683"><ele>276.0</ele><time>2026-04-09T14:55:30.084Z</time></trkpt><trkpt lat="41.01245" lon="14.74912"><ele>274.0</ele><time>2026-04-09T14:55:31.084Z</time></trkpt><trkpt lat="41.0124433" lon="14.7492667"><ele>272.0</ele><time>2026-04-09T14:55:32.084Z</time></trkpt><trkpt lat="41.0124183" lon="14.749415"><ele>272.0</ele><time>2026-04-09T14:55:33.084Z</time></trkpt><trkpt lat="41.01237" lon="14.749565"><ele>272.0</ele><time>2026-04-09T14:55:34.084Z</time></trkpt><trkpt lat="41.0123117" lon="14.74972"><ele>272.0</ele><time>2026-04-09T14:55:35.084Z</time></trkpt><trkpt lat="41.0122517" lon="14.7498867"><ele>272.0</ele><time>2026-04-09T14:55:36.084Z</time></trkpt><trkpt lat="41.0121883" lon="14.7500567"><ele>272.25</ele><time>2026-04-09T14:55:37.084Z</time></trkpt><trkpt lat="41.01212" lon="14.750225"><ele>272.5</ele><time>2026-04-09T14:55:38.084Z</time></trkpt><trkpt lat="41.01205" lon="14.750385"><ele>272.75</ele><time>2026-04-09T14:55:39.084Z</time></trkpt><trkpt lat="41.0119767" lon="14.7505333"><ele>273.0</ele><time>2026-04-09T14:55:40.084Z</time></trkpt><trkpt lat="41.0119067" lon="14.7506817"><ele>273.0</ele><time>2026-04-09T14:55:41.084Z</time></trkpt><trkpt lat="41.0118383" lon="14.750825"><ele>273.0</ele><time>2026-04-09T14:55:42.084Z</time></trkpt><trkpt lat="41.0117733" lon="14.7509617"><ele>273.0</ele><time>2026-04-09T14:55:43.084Z</time></trkpt><trkpt lat="41.011705" lon="14.7511017"><ele>273.0</ele><time>2026-04-09T14:55:44.084Z</time></trkpt><trkpt lat="41.0116383" lon="14.7512467"><ele>269.75</ele><time>2026-04-09T14:55:45.084Z</time></trkpt><trkpt lat="41.0115717" lon="14.751395"><ele>266.5</ele><time>2026-04-09T14:55:46.084Z</time></trkpt><trkpt lat="41.01151" lon="14.7515383"><ele>263.25</ele><time>2026-04-09T14:55:47.084Z</time></trkpt><trkpt lat="41.0114517" lon="14.751685"><ele>260.0</ele><time>2026-04-09T14:55:48.084Z</time></trkpt><trkpt lat="41.0113983" lon="14.7518333"><ele>260.25</ele><time>2026-04-09T14:55:49.084Z</time></trkpt><trkpt lat="41.0113467" lon="14.7519767"><ele>260.5</ele><time>2026-04-09T14:55:50.084Z</time></trkpt><trkpt lat="41.0112983" lon="14.752125"><ele>260.75</ele><time>2026-04-09T14:55:51.084Z</time></trkpt><trkpt lat="41.011265" lon="14.7522767"><ele>261.0</ele><time>2026-04-09T14:55:52.084Z</time></trkpt><trkpt lat="41.01124" lon="14.75244"><ele>261.0</ele><time>2026-04-09T14:55:53.084Z</time></trkpt><trkpt lat="41.011215" lon="14.7525983"><ele>261.0</ele><time>2026-04-09T14:55:54.084Z</time></trkpt><trkpt lat="41.01119" lon="14.7527583"><ele>261.0</ele><time>2026-04-09T14:55:55.084Z</time></trkpt><trkpt lat="41.0111683" lon="14.7529233"><ele>261.0</ele><time>2026-04-09T14:55:56.084Z</time></trkpt><trkpt lat="41.0111567" lon="14.7530883"><ele>260.0</ele><time>2026-04-09T14:55:57.084Z</time></trkpt><trkpt lat="41.0111417" lon="14.75325"><ele>259.0</ele><time>2026-04-09T14:55:58.084Z</time></trkpt><trkpt lat="41.0111233" lon="14.7534017"><ele>258.0</ele><time>2026-04-09T14:55:59.084Z</time></trkpt><trkpt lat="41.0111167" lon="14.7535583"><ele>257.0</ele><time>2026-04-09T14:56:00.084Z</time></trkpt><trkpt lat="41.011125" lon="14.7537"><ele>256.0</ele><time>2026-04-09T14:56:01.084Z</time></trkpt><trkpt lat="41.0111433" lon="14.7538267"><ele>255.0</ele><time>2026-04-09T14:56:02.084Z</time></trkpt><trkpt lat="41.01118" lon="14.75395"><ele>254.0</ele><time>2026-04-09T14:56:03.084Z</time></trkpt><trkpt lat="41.011235" lon="14.7540783"><ele>253.0</ele><time>2026-04-09T14:56:04.084Z</time></trkpt><trkpt lat="41.0112967" lon="14.7542"><ele>252.0</ele><time>2026-04-09T14:56:05.084Z</time></trkpt><trkpt lat="41.0113433" lon="14.7543217"><ele>251.83333333333334</ele><time>2026-04-09T14:56:06.084Z</time></trkpt><trkpt lat="41.0113817" lon="14.7544367"><ele>251.66666666666669</ele><time>2026-04-09T14:56:07.084Z</time></trkpt><trkpt lat="41.0113967" lon="14.75455"><ele>251.5</ele><time>2026-04-09T14:56:08.084Z</time></trkpt><trkpt lat="41.0113867" lon="14.754655"><ele>251.33333333333334</ele><time>2026-04-09T14:56:09.084Z</time></trkpt><trkpt lat="41.01135" lon="14.7547467"><ele>251.16666666666669</ele><time>2026-04-09T14:56:10.084Z</time></trkpt><trkpt lat="41.011285" lon="14.7548233"><ele>251.0</ele><time>2026-04-09T14:56:11.084Z</time></trkpt><trkpt lat="41.0111933" lon="14.7548767"><ele>251.0</ele><time>2026-04-09T14:56:12.084Z</time></trkpt><trkpt lat="41.011085" lon="14.7549217"><ele>251.00000000000003</ele><time>2026-04-09T14:56:13.084Z</time></trkpt><trkpt lat="41.0109683" lon="14.7549733"><ele>251.00000000000003</ele><time>2026-04-09T14:56:14.084Z</time></trkpt><trkpt lat="41.010865" lon="14.7550367"><ele>251.0</ele><time>2026-04-09T14:56:15.084Z</time></trkpt><trkpt lat="41.0107817" lon="14.7551067"><ele>251.0</ele><time>2026-04-09T14:56:16.084Z</time></trkpt><trkpt lat="41.0107083" lon="14.7551817"><ele>248.60000000000002</ele><time>2026-04-09T14:56:17.084Z</time></trkpt><trkpt lat="41.0106417" lon="14.7552717"><ele>246.20000000000002</ele><time>2026-04-09T14:56:18.084Z</time></trkpt><trkpt lat="41.0105933" lon="14.75538"><ele>243.79999999999998</ele><time>2026-04-09T14:56:19.084Z</time></trkpt><trkpt lat="41.0105567" lon="14.7555033"><ele>241.39999999999998</ele><time>2026-04-09T14:56:20.084Z</time></trkpt><trkpt lat="41.0105267" lon="14.7556483"><ele>239.0</ele><time>2026-04-09T14:56:21.084Z</time></trkpt><trkpt lat="41.0105017" lon="14.7557967"><ele>239.0</ele><time>2026-04-09T14:56:22.084Z</time></trkpt><trkpt lat="41.01048" lon="14.75594"><ele>238.99999999999997</ele><time>2026-04-09T14:56:23.084Z</time></trkpt><trkpt lat="41.01045" lon="14.756075"><ele>238.99999999999997</ele><time>2026-04-09T14:56:24.084Z</time></trkpt><trkpt lat="41.010425" lon="14.7562167"><ele>239.0</ele><time>2026-04-09T14:56:25.084Z</time></trkpt><trkpt lat="41.010415" lon="14.7563733"><ele>239.0</ele><time>2026-04-09T14:56:26.084Z</time></trkpt><trkpt lat="41.010405" lon="14.7565383"><ele>238.75</ele><time>2026-04-09T14:56:27.084Z</time></trkpt><trkpt lat="41.010405" lon="14.756705"><ele>238.5</ele><time>2026-04-09T14:56:28.084Z</time></trkpt><trkpt lat="41.010415" lon="14.7568883"><ele>238.25</ele><time>2026-04-09T14:56:29.084Z</time></trkpt><trkpt lat="41.0104317" lon="14.7570883"><ele>238.0</ele><time>2026-04-09T14:56:30.084Z</time></trkpt><trkpt lat="41.0104533" lon="14.7572683"><ele>236.75</ele><time>2026-04-09T14:56:31.084Z</time></trkpt><trkpt lat="41.01047" lon="14.7574433"><ele>235.5</ele><time>2026-04-09T14:56:32.084Z</time></trkpt><trkpt lat="41.0104917" lon="14.75762"><ele>234.25</ele><time>2026-04-09T14:56:33.084Z</time></trkpt><trkpt lat="41.0105117" lon="14.7578117"><ele>233.0</ele><time>2026-04-09T14:56:34.084Z</time></trkpt><trkpt lat="41.01054" lon="14.7580083"><ele>232.25</ele><time>2026-04-09T14:56:35.084Z</time></trkpt><trkpt lat="41.0105667" lon="14.7582"><ele>231.5</ele><time>2026-04-09T14:56:36.084Z</time></trkpt><trkpt lat="41.0106" lon="14.7583967"><ele>230.75</ele><time>2026-04-09T14:56:37.084Z</time></trkpt><trkpt lat="41.01063" lon="14.758585"><ele>230.0</ele><time>2026-04-09T14:56:38.084Z</time></trkpt><trkpt lat="41.010665" lon="14.7587683"><ele>229.75</ele><time>2026-04-09T14:56:39.084Z</time></trkpt><trkpt lat="41.0107" lon="14.7589467"><ele>229.5</ele><time>2026-04-09T14:56:40.084Z</time></trkpt><trkpt lat="41.010725" lon="14.75911"><ele>229.25</ele><time>2026-04-09T14:56:41.084Z</time></trkpt><trkpt lat="41.010755" lon="14.7592667"><ele>229.0</ele><time>2026-04-09T14:56:42.084Z</time></trkpt><trkpt lat="41.01078" lon="14.7594233"><ele>228.5</ele><time>2026-04-09T14:56:43.084Z</time></trkpt><trkpt lat="41.0108083" lon="14.75959"><ele>228.0</ele><time>2026-04-09T14:56:44.084Z</time></trkpt><trkpt lat="41.0108467" lon="14.759755"><ele>227.5</ele><time>2026-04-09T14:56:45.084Z</time></trkpt><trkpt lat="41.0108733" lon="14.75994"><ele>227.0</ele><time>2026-04-09T14:56:46.084Z</time></trkpt><trkpt lat="41.0109117" lon="14.7601283"><ele>227.0</ele><time>2026-04-09T14:56:47.084Z</time></trkpt><trkpt lat="41.0109433" lon="14.7603117"><ele>227.0</ele><time>2026-04-09T14:56:48.084Z</time></trkpt><trkpt lat="41.0109717" lon="14.7605017"><ele>227.0</ele><time>2026-04-09T14:56:49.084Z</time></trkpt><trkpt lat="41.011" lon="14.760695"><ele>227.0</ele><time>2026-04-09T14:56:50.084Z</time></trkpt><trkpt lat="41.0110333" lon="14.760875"><ele>226.75</ele><time>2026-04-09T14:56:51.084Z</time></trkpt><trkpt lat="41.01106" lon="14.761045"><ele>226.5</ele><time>2026-04-09T14:56:52.084Z</time></trkpt><trkpt lat="41.0110833" lon="14.7612083"><ele>226.25</ele><time>2026-04-09T14:56:53.084Z</time></trkpt><trkpt lat="41.0111033" lon="14.7613667"><ele>226.0</ele><time>2026-04-09T14:56:54.084Z</time></trkpt><trkpt lat="41.0111267" lon="14.76154"><ele>226.0</ele><time>2026-04-09T14:56:55.084Z</time></trkpt><trkpt lat="41.011155" lon="14.7617133"><ele>226.0</ele><time>2026-04-09T14:56:56.084Z</time></trkpt><trkpt lat="41.0111783" lon="14.76188"><ele>226.0</ele><time>2026-04-09T14:56:57.084Z</time></trkpt><trkpt lat="41.0111833" lon="14.7620433"><ele>226.0</ele><time>2026-04-09T14:56:58.084Z</time></trkpt><trkpt lat="41.0111983" lon="14.7622033"><ele>225.75</ele><time>2026-04-09T14:56:59.084Z</time></trkpt><trkpt lat="41.01121" lon="14.7623667"><ele>225.5</ele><time>2026-04-09T14:57:00.084Z</time></trkpt><trkpt lat="41.011215" lon="14.76253"><ele>225.25</ele><time>2026-04-09T14:57:01.084Z</time></trkpt><trkpt lat="41.0112183" lon="14.762695"><ele>225.0</ele><time>2026-04-09T14:57:02.084Z</time></trkpt><trkpt lat="41.01122" lon="14.7628683"><ele>224.5</ele><time>2026-04-09T14:57:03.084Z</time></trkpt><trkpt lat="41.011215" lon="14.7630367"><ele>224.0</ele><time>2026-04-09T14:57:04.084Z</time></trkpt><trkpt lat="41.0112033" lon="14.76321"><ele>223.5</ele><time>2026-04-09T14:57:05.084Z</time></trkpt><trkpt lat="41.0111967" lon="14.7633833"><ele>223.0</ele><time>2026-04-09T14:57:06.084Z</time></trkpt><trkpt lat="41.01119" lon="14.763535"><ele>222.60000000000002</ele><time>2026-04-09T14:57:07.084Z</time></trkpt><trkpt lat="41.0111817" lon="14.763685"><ele>222.20000000000002</ele><time>2026-04-09T14:57:08.084Z</time></trkpt><trkpt lat="41.0111583" lon="14.7638283"><ele>221.8</ele><time>2026-04-09T14:57:09.084Z</time></trkpt><trkpt lat="41.011145" lon="14.7639783"><ele>221.4</ele><time>2026-04-09T14:57:10.084Z</time></trkpt><trkpt lat="41.0111267" lon="14.7641117"><ele>221.0</ele><time>2026-04-09T14:57:11.084Z</time></trkpt><trkpt lat="41.0111133" lon="14.7642533"><ele>220.5</ele><time>2026-04-09T14:57:12.084Z</time></trkpt><trkpt lat="41.0110917" lon="14.7644033"><ele>220.0</ele><time>2026-04-09T14:57:13.084Z</time></trkpt><trkpt lat="41.01106" lon="14.7645583"><ele>219.5</ele><time>2026-04-09T14:57:14.084Z</time></trkpt><trkpt lat="41.0110217" lon="14.7647133"><ele>219.0</ele><time>2026-04-09T14:57:15.084Z</time></trkpt><trkpt lat="41.0109833" lon="14.7648733"><ele>219.0</ele><time>2026-04-09T14:57:16.084Z</time></trkpt><trkpt lat="41.0109467" lon="14.765035"><ele>219.0</ele><time>2026-04-09T14:57:17.084Z</time></trkpt><trkpt lat="41.0109017" lon="14.765195"><ele>219.0</ele><time>2026-04-09T14:57:18.084Z</time></trkpt><trkpt lat="41.0108533" lon="14.7653567"><ele>219.0</ele><time>2026-04-09T14:57:19.084Z</time></trkpt><trkpt lat="41.0108033" lon="14.7655133"><ele>219.0</ele><time>2026-04-09T14:57:20.084Z</time></trkpt><trkpt lat="41.0107533" lon="14.7656617"><ele>219.0</ele><time>2026-04-09T14:57:21.084Z</time></trkpt><trkpt lat="41.0107067" lon="14.7658"><ele>219.0</ele><time>2026-04-09T14:57:22.084Z</time></trkpt><trkpt lat="41.0106517" lon="14.76596"><ele>219.0</ele><time>2026-04-09T14:57:23.084Z</time></trkpt><trkpt lat="41.01059" lon="14.7661367"><ele>219.0</ele><time>2026-04-09T14:57:24.084Z</time></trkpt><trkpt lat="41.0105217" lon="14.76631"><ele>219.0</ele><time>2026-04-09T14:57:25.084Z</time></trkpt><trkpt lat="41.0104467" lon="14.76648"><ele>219.0</ele><time>2026-04-09T14:57:26.084Z</time></trkpt><trkpt lat="41.0103567" lon="14.7666417"><ele>219.0</ele><time>2026-04-09T14:57:27.084Z</time></trkpt><trkpt lat="41.0102833" lon="14.766805"><ele>218.5</ele><time>2026-04-09T14:57:28.084Z</time></trkpt><trkpt lat="41.010215" lon="14.76697"><ele>218.0</ele><time>2026-04-09T14:57:29.084Z</time></trkpt><trkpt lat="41.0101517" lon="14.7671217"><ele>217.5</ele><time>2026-04-09T14:57:30.084Z</time></trkpt><trkpt lat="41.01008" lon="14.7672717"><ele>217.0</ele><time>2026-04-09T14:57:31.084Z</time></trkpt><trkpt lat="41.0099967" lon="14.7674233"><ele>218.0</ele><time>2026-04-09T14:57:32.084Z</time></trkpt><trkpt lat="41.0099183" lon="14.7675833"><ele>219.0</ele><time>2026-04-09T14:57:33.084Z</time></trkpt><trkpt lat="41.00984" lon="14.7677333"><ele>220.0</ele><time>2026-04-09T14:57:34.084Z</time></trkpt><trkpt lat="41.0097633" lon="14.7678767"><ele>221.0</ele><time>2026-04-09T14:57:35.084Z</time></trkpt><trkpt lat="41.0096967" lon="14.768"><ele>221.0</ele><time>2026-04-09T14:57:36.084Z</time></trkpt><trkpt lat="41.0096317" lon="14.7681117"><ele>221.00000000000003</ele><time>2026-04-09T14:57:37.084Z</time></trkpt><trkpt lat="41.0095583" lon="14.7682133"><ele>221.00000000000003</ele><time>2026-04-09T14:57:38.084Z</time></trkpt><trkpt lat="41.00947" lon="14.7682967"><ele>221.0</ele><time>2026-04-09T14:57:39.084Z</time></trkpt><trkpt lat="41.0093833" lon="14.7683617"><ele>221.0</ele><time>2026-04-09T14:57:40.084Z</time></trkpt><trkpt lat="41.0092833" lon="14.768395"><ele>221.0</ele><time>2026-04-09T14:57:41.084Z</time></trkpt><trkpt lat="41.00918" lon="14.7684183"><ele>221.0</ele><time>2026-04-09T14:57:42.084Z</time></trkpt><trkpt lat="41.009065" lon="14.7684233"><ele>221.0</ele><time>2026-04-09T14:57:43.084Z</time></trkpt><trkpt lat="41.0089317" lon="14.768425"><ele>221.0</ele><time>2026-04-09T14:57:44.084Z</time></trkpt><trkpt lat="41.0087983" lon="14.76842"><ele>221.25</ele><time>2026-04-09T14:57:45.084Z</time></trkpt><trkpt lat="41.0086617" lon="14.7684133"><ele>221.5</ele><time>2026-04-09T14:57:46.084Z</time></trkpt><trkpt lat="41.0085233" lon="14.76842"><ele>221.75</ele><time>2026-04-09T14:57:47.084Z</time></trkpt><trkpt lat="41.0083917" lon="14.7684383"><ele>222.0</ele><time>2026-04-09T14:57:48.084Z</time></trkpt><trkpt lat="41.00826" lon="14.76846"><ele>222.25</ele><time>2026-04-09T14:57:49.084Z</time></trkpt><trkpt lat="41.008145" lon="14.7684867"><ele>222.5</ele><time>2026-04-09T14:57:50.084Z</time></trkpt><trkpt lat="41.0080217" lon="14.7685283"><ele>222.75</ele><time>2026-04-09T14:57:51.084Z</time></trkpt><trkpt lat="41.0079183" lon="14.768585"><ele>223.0</ele><time>2026-04-09T14:57:52.084Z</time></trkpt><trkpt lat="41.0078283" lon="14.768645"><ele>224.33333333333331</ele><time>2026-04-09T14:57:53.084Z</time></trkpt><trkpt lat="41.0077567" lon="14.7687117"><ele>225.66666666666666</ele><time>2026-04-09T14:57:54.084Z</time></trkpt><trkpt lat="41.0077067" lon="14.7687883"><ele>227.0</ele><time>2026-04-09T14:57:55.084Z</time></trkpt><trkpt lat="41.00767" lon="14.7688867"><ele>228.33333333333331</ele><time>2026-04-09T14:57:56.084Z</time></trkpt><trkpt lat="41.007655" lon="14.768985"><ele>229.66666666666666</ele><time>2026-04-09T14:57:57.084Z</time></trkpt><trkpt lat="41.0076683" lon="14.769095"><ele>231.0</ele><time>2026-04-09T14:57:58.084Z</time></trkpt><trkpt lat="41.0077017" lon="14.7692"><ele>231.0</ele><time>2026-04-09T14:57:59.084Z</time></trkpt><trkpt lat="41.0077567" lon="14.7693067"><ele>231.0</ele><time>2026-04-09T14:58:00.084Z</time></trkpt><trkpt lat="41.0078333" lon="14.76943"><ele>231.0</ele><time>2026-04-09T14:58:01.084Z</time></trkpt><trkpt lat="41.007925" lon="14.7695667"><ele>231.0</ele><time>2026-04-09T14:58:02.084Z</time></trkpt><trkpt lat="41.0080183" lon="14.7697"><ele>233.4</ele><time>2026-04-09T14:58:03.084Z</time></trkpt><trkpt lat="41.0080967" lon="14.76982"><ele>235.8</ele><time>2026-04-09T14:58:04.084Z</time></trkpt><trkpt lat="41.0081533" lon="14.7699217"><ele>238.20000000000002</ele><time>2026-04-09T14:58:05.084Z</time></trkpt><trkpt lat="41.0081933" lon="14.7700533"><ele>240.60000000000002</ele><time>2026-04-09T14:58:06.084Z</time></trkpt><trkpt lat="41.0082217" lon="14.770195"><ele>243.0</ele><time>2026-04-09T14:58:07.084Z</time></trkpt><trkpt lat="41.0082433" lon="14.770335"><ele>241.4</ele><time>2026-04-09T14:58:08.084Z</time></trkpt><trkpt lat="41.0082633" lon="14.7704567"><ele>239.8</ele><time>2026-04-09T14:58:09.084Z</time></trkpt><trkpt lat="41.0082983" lon="14.7705783"><ele>238.2</ele><time>2026-04-09T14:58:10.084Z</time></trkpt><trkpt lat="41.0083517" lon="14.770705"><ele>236.6</ele><time>2026-04-09T14:58:11.084Z</time></trkpt><trkpt lat="41.0084133" lon="14.77083"><ele>235.0</ele><time>2026-04-09T14:58:12.084Z</time></trkpt><trkpt lat="41.0085017" lon="14.7709517"><ele>239.75</ele><time>2026-04-09T14:58:13.084Z</time></trkpt><trkpt lat="41.00859" lon="14.771075"><ele>244.5</ele><time>2026-04-09T14:58:14.084Z</time></trkpt><trkpt lat="41.00869" lon="14.7711983"><ele>249.25</ele><time>2026-04-09T14:58:15.084Z</time></trkpt><trkpt lat="41.0088083" lon="14.7713067"><ele>254.0</ele><time>2026-04-09T14:58:16.084Z</time></trkpt><trkpt lat="41.0089283" lon="14.7714017"><ele>254.0</ele><time>2026-04-09T14:58:17.084Z</time></trkpt><trkpt lat="41.009055" lon="14.7714983"><ele>254.0</ele><time>2026-04-09T14:58:18.084Z</time></trkpt><trkpt lat="41.00918" lon="14.7716033"><ele>254.0</ele><time>2026-04-09T14:58:19.084Z</time></trkpt><trkpt lat="41.009305" lon="14.7717117"><ele>254.0</ele><time>2026-04-09T14:58:20.084Z</time></trkpt><trkpt lat="41.0094233" lon="14.77181"><ele>254.0</ele><time>2026-04-09T14:58:21.084Z</time></trkpt><trkpt lat="41.0095233" lon="14.7719017"><ele>253.99999999999997</ele><time>2026-04-09T14:58:22.084Z</time></trkpt><trkpt lat="41.0096167" lon="14.771985"><ele>253.99999999999997</ele><time>2026-04-09T14:58:23.084Z</time></trkpt><trkpt lat="41.0096983" lon="14.7720733"><ele>254.0</ele><time>2026-04-09T14:58:24.084Z</time></trkpt><trkpt lat="41.009775" lon="14.7721617"><ele>254.0</ele><time>2026-04-09T14:58:25.084Z</time></trkpt><trkpt lat="41.0098383" lon="14.7722583"><ele>254.00000000000003</ele><time>2026-04-09T14:58:26.084Z</time></trkpt><trkpt lat="41.0098817" lon="14.7723483"><ele>254.0</ele><time>2026-04-09T14:58:27.084Z</time></trkpt><trkpt lat="41.0099117" lon="14.7724383"><ele>254.0</ele><time>2026-04-09T14:58:28.084Z</time></trkpt><trkpt lat="41.00993" lon="14.7725183"><ele>254.0</ele><time>2026-04-09T14:58:29.084Z</time></trkpt><trkpt lat="41.0099417" lon="14.772615"><ele>254.00000000000003</ele><time>2026-04-09T14:58:31.084Z</time></trkpt><trkpt lat="41.0099533" lon="14.77273"><ele>254.0</ele><time>2026-04-09T14:58:36.084Z</time></trkpt><trkpt lat="41.01003" lon="14.7728683"><ele>253.6</ele><time>2026-04-09T14:58:38.084Z</time></trkpt><trkpt lat="41.0100917" lon="14.7729533"><ele>253.2</ele><time>2026-04-09T14:58:39.084Z</time></trkpt><trkpt lat="41.0101633" lon="14.7730567"><ele>252.79999999999998</ele><time>2026-04-09T14:58:40.084Z</time></trkpt><trkpt lat="41.0102367" lon="14.77317"><ele>252.39999999999998</ele><time>2026-04-09T14:58:41.084Z</time></trkpt><trkpt lat="41.0103017" lon="14.7732867"><ele>252.0</ele><time>2026-04-09T14:58:42.084Z</time></trkpt><trkpt lat="41.01036" lon="14.7733967"><ele>252.0</ele><time>2026-04-09T14:58:43.084Z</time></trkpt><trkpt lat="41.0104133" lon="14.7734867"><ele>252.0</ele><time>2026-04-09T14:58:44.084Z</time></trkpt><trkpt lat="41.0104667" lon="14.77357"><ele>252.0</ele><time>2026-04-09T14:58:45.084Z</time></trkpt><trkpt lat="41.0105267" lon="14.77365"><ele>252.0</ele><time>2026-04-09T14:58:46.084Z</time></trkpt><trkpt lat="41.01058" lon="14.7737083"><ele>252.0</ele><time>2026-04-09T14:58:47.084Z</time></trkpt><trkpt lat="41.0106533" lon="14.7737917"><ele>252.0</ele><time>2026-04-09T14:58:49.084Z</time></trkpt><trkpt lat="41.0106717" lon="14.773875"><ele>252.39999999999998</ele><time>2026-04-09T14:58:51.084Z</time></trkpt><trkpt lat="41.0106183" lon="14.7739617"><ele>252.79999999999998</ele><time>2026-04-09T14:58:53.084Z</time></trkpt><trkpt lat="41.0105433" lon="14.774015"><ele>253.2</ele><time>2026-04-09T14:58:55.084Z</time></trkpt><trkpt lat="41.0104533" lon="14.7740917"><ele>253.6</ele><time>2026-04-09T14:58:57.084Z</time></trkpt><trkpt lat="41.0103483" lon="14.7741633"><ele>254.0</ele><time>2026-04-09T14:58:59.084Z</time></trkpt><trkpt lat="41.01026" lon="14.7742333"><ele>254.00000000000003</ele><time>2026-04-09T14:59:01.084Z</time></trkpt><trkpt lat="41.01015" lon="14.7743133"><ele>254.0</ele><time>2026-04-09T14:59:03.084Z</time></trkpt><trkpt lat="41.010095" lon="14.7743567"><ele>254.0</ele><time>2026-04-09T14:59:04.084Z</time></trkpt><trkpt lat="41.01003" lon="14.774405"><ele>254.0</ele><time>2026-04-09T14:59:05.084Z</time></trkpt><trkpt lat="41.0099633" lon="14.7744533"><ele>254.00000000000003</ele><time>2026-04-09T14:59:06.084Z</time></trkpt><trkpt lat="41.009895" lon="14.7745083"><ele>254.0</ele><time>2026-04-09T14:59:07.084Z</time></trkpt><trkpt lat="41.00984" lon="14.774555"><ele>256.7142857142857</ele><time>2026-04-09T14:59:08.084Z</time></trkpt><trkpt lat="41.0097933" lon="14.7746183"><ele>259.42857142857144</ele><time>2026-04-09T14:59:09.084Z</time></trkpt><trkpt lat="41.0097617" lon="14.7746917"><ele>262.1428571428571</ele><time>2026-04-09T14:59:10.084Z</time></trkpt><trkpt lat="41.0097433" lon="14.7747717"><ele>264.8571428571429</ele><time>2026-04-09T14:59:11.084Z</time></trkpt><trkpt lat="41.0097417" lon="14.7748717"><ele>267.57142857142856</ele><time>2026-04-09T14:59:12.084Z</time></trkpt><trkpt lat="41.0097517" lon="14.7749817"><ele>270.2857142857143</ele><time>2026-04-09T14:59:13.084Z</time></trkpt><trkpt lat="41.009765" lon="14.7750983"><ele>273.0</ele><time>2026-04-09T14:59:14.084Z</time></trkpt><trkpt lat="41.00978" lon="14.7752233"><ele>276.3333333333333</ele><time>2026-04-09T14:59:15.084Z</time></trkpt><trkpt lat="41.0098" lon="14.7753483"><ele>279.6666666666667</ele><time>2026-04-09T14:59:16.084Z</time></trkpt><trkpt lat="41.00982" lon="14.7754683"><ele>283.0</ele><time>2026-04-09T14:59:17.084Z</time></trkpt><trkpt lat="41.009835" lon="14.7755833"><ele>286.33333333333337</ele><time>2026-04-09T14:59:18.084Z</time></trkpt><trkpt lat="41.009845" lon="14.77569"><ele>289.6666666666667</ele><time>2026-04-09T14:59:19.084Z</time></trkpt><trkpt lat="41.0098583" lon="14.77579"><ele>293.0</ele><time>2026-04-09T14:59:20.084Z</time></trkpt><trkpt lat="41.0098633" lon="14.775925"><ele>293.0</ele><time>2026-04-09T14:59:22.084Z</time></trkpt><trkpt lat="41.00981" lon="14.7760067"><ele>293.0</ele><time>2026-04-09T14:59:24.084Z</time></trkpt><trkpt lat="41.0097067" lon="14.7759883"><ele>293.0</ele><time>2026-04-09T14:59:26.084Z</time></trkpt><trkpt lat="41.0095967" lon="14.7758967"><ele>293.0</ele><time>2026-04-09T14:59:28.084Z</time></trkpt><trkpt lat="41.0095383" lon="14.7758467"><ele>293.0</ele><time>2026-04-09T14:59:29.084Z</time></trkpt><trkpt lat="41.0094333" lon="14.7757683"><ele>293.0</ele><time>2026-04-09T14:59:31.084Z</time></trkpt><trkpt lat="41.0093667" lon="14.77574"><ele>293.0</ele><time>2026-04-09T14:59:32.084Z</time></trkpt><trkpt lat="41.0092933" lon="14.77572"><ele>293.0</ele><time>2026-04-09T14:59:33.084Z</time></trkpt><trkpt lat="41.0092133" lon="14.775705"><ele>293.0</ele><time>2026-04-09T14:59:34.084Z</time></trkpt><trkpt lat="41.0091267" lon="14.7757067"><ele>293.0</ele><time>2026-04-09T14:59:35.084Z</time></trkpt><trkpt lat="41.0090417" lon="14.7757183"><ele>293.0</ele><time>2026-04-09T14:59:36.084Z</time></trkpt><trkpt lat="41.0089517" lon="14.7757317"><ele>294.0</ele><time>2026-04-09T14:59:37.084Z</time></trkpt><trkpt lat="41.0088633" lon="14.7757433"><ele>295.0</ele><time>2026-04-09T14:59:38.084Z</time></trkpt><trkpt lat="41.0087783" lon="14.7757633"><ele>296.0</ele><time>2026-04-09T14:59:39.084Z</time></trkpt><trkpt lat="41.0086967" lon="14.7757833"><ele>297.0</ele><time>2026-04-09T14:59:40.084Z</time></trkpt><trkpt lat="41.0086117" lon="14.7757983"><ele>298.0</ele><time>2026-04-09T14:59:41.084Z</time></trkpt><trkpt lat="41.008525" lon="14.775805"><ele>299.0</ele><time>2026-04-09T14:59:42.084Z</time></trkpt><trkpt lat="41.0084467" lon="14.7758133"><ele>299.0</ele><time>2026-04-09T14:59:43.084Z</time></trkpt><trkpt lat="41.0083617" lon="14.7758033"><ele>299.0</ele><time>2026-04-09T14:59:44.084Z</time></trkpt><trkpt lat="41.0082767" lon="14.7757933"><ele>299.0</ele><time>2026-04-09T14:59:45.084Z</time></trkpt><trkpt lat="41.0082133" lon="14.7757967"><ele>299.0</ele><time>2026-04-09T14:59:46.084Z</time></trkpt><trkpt lat="41.0081517" lon="14.7758217"><ele>299.0</ele><time>2026-04-09T14:59:47.084Z</time></trkpt><trkpt lat="41.0080717" lon="14.7759267"><ele>299.0</ele><time>2026-04-09T14:59:49.084Z</time></trkpt><trkpt lat="41.0080233" lon="14.77607"><ele>304.2</ele><time>2026-04-09T14:59:51.084Z</time></trkpt><trkpt lat="41.0079217" lon="14.7761383"><ele>309.4</ele><time>2026-04-09T14:59:53.084Z</time></trkpt><trkpt lat="41.0078583" lon="14.776175"><ele>314.6</ele><time>2026-04-09T14:59:54.084Z</time></trkpt><trkpt lat="41.007775" lon="14.7762217"><ele>319.8</ele><time>2026-04-09T14:59:55.084Z</time></trkpt><trkpt lat="41.0076733" lon="14.7762717"><ele>325.0</ele><time>2026-04-09T14:59:56.084Z</time></trkpt><trkpt lat="41.0075767" lon="14.776325"><ele>325.8</ele><time>2026-04-09T14:59:57.084Z</time></trkpt><trkpt lat="41.007485" lon="14.7763767"><ele>326.6</ele><time>2026-04-09T14:59:58.084Z</time></trkpt><trkpt lat="41.0073983" lon="14.7764267"><ele>327.4</ele><time>2026-04-09T14:59:59.084Z</time></trkpt><trkpt lat="41.0073167" lon="14.7764667"><ele>328.2</ele><time>2026-04-09T15:00:00.084Z</time></trkpt><trkpt lat="41.0072267" lon="14.7765067"><ele>329.0</ele><time>2026-04-09T15:00:01.084Z</time></trkpt><trkpt lat="41.0071233" lon="14.7765167"><ele>329.0</ele><time>2026-04-09T15:00:02.084Z</time></trkpt><trkpt lat="41.0070233" lon="14.7765167"><ele>329.0</ele><time>2026-04-09T15:00:03.084Z</time></trkpt><trkpt lat="41.0069283" lon="14.7765017"><ele>329.0</ele><time>2026-04-09T15:00:04.084Z</time></trkpt><trkpt lat="41.006835" lon="14.77648"><ele>329.0</ele><time>2026-04-09T15:00:05.084Z</time></trkpt><trkpt lat="41.0067417" lon="14.7764483"><ele>329.0</ele><time>2026-04-09T15:00:06.084Z</time></trkpt><trkpt lat="41.0066517" lon="14.7764283"><ele>328.4</ele><time>2026-04-09T15:00:07.084Z</time></trkpt><trkpt lat="41.0065583" lon="14.776415"><ele>327.79999999999995</ele><time>2026-04-09T15:00:08.084Z</time></trkpt><trkpt lat="41.0064583" lon="14.7764017"><ele>327.20000000000005</ele><time>2026-04-09T15:00:09.084Z</time></trkpt><trkpt lat="41.00636" lon="14.7763967"><ele>326.6</ele><time>2026-04-09T15:00:10.084Z</time></trkpt><trkpt lat="41.0062767" lon="14.7763883"><ele>326.0</ele><time>2026-04-09T15:00:11.084Z</time></trkpt><trkpt lat="41.0062" lon="14.7764067"><ele>326.0</ele><time>2026-04-09T15:00:12.084Z</time></trkpt><trkpt lat="41.00611" lon="14.7764467"><ele>326.0</ele><time>2026-04-09T15:00:13.084Z</time></trkpt><trkpt lat="41.0060317" lon="14.7765017"><ele>326.0</ele><time>2026-04-09T15:00:14.084Z</time></trkpt><trkpt lat="41.0059767" lon="14.776575"><ele>326.0</ele><time>2026-04-09T15:00:15.084Z</time></trkpt><trkpt lat="41.0059317" lon="14.7766617"><ele>326.0</ele><time>2026-04-09T15:00:16.084Z</time></trkpt><trkpt lat="41.0058967" lon="14.7767567"><ele>326.0</ele><time>2026-04-09T15:00:17.084Z</time></trkpt><trkpt lat="41.005885" lon="14.7768683"><ele>327.8</ele><time>2026-04-09T15:00:18.084Z</time></trkpt><trkpt lat="41.00588" lon="14.776955"><ele>329.6</ele><time>2026-04-09T15:00:19.084Z</time></trkpt><trkpt lat="41.00586" lon="14.7770967"><ele>331.4</ele><time>2026-04-09T15:00:21.084Z</time></trkpt><trkpt lat="41.0058083" lon="14.7771617"><ele>333.2</ele><time>2026-04-09T15:00:23.084Z</time></trkpt><trkpt lat="41.0057183" lon="14.7771683"><ele>335.0</ele><time>2026-04-09T15:00:25.084Z</time></trkpt><trkpt lat="41.005605" lon="14.77714"><ele>335.4</ele><time>2026-04-09T15:00:27.084Z</time></trkpt><trkpt lat="41.005515" lon="14.7771333"><ele>335.8</ele><time>2026-04-09T15:00:29.084Z</time></trkpt><trkpt lat="41.0054283" lon="14.7771633"><ele>336.20000000000005</ele><time>2026-04-09T15:00:31.084Z</time></trkpt><trkpt lat="41.0053283" lon="14.7772017"><ele>336.6</ele><time>2026-04-09T15:00:33.084Z</time></trkpt><trkpt lat="41.00521" lon="14.77722"><ele>337.0</ele><time>2026-04-09T15:00:35.084Z</time></trkpt><trkpt lat="41.0051167" lon="14.777235"><ele>337.0</ele><time>2026-04-09T15:00:37.084Z</time></trkpt><trkpt lat="41.0050467" lon="14.7772867"><ele>337.0</ele><time>2026-04-09T15:00:43.084Z</time></trkpt><trkpt lat="41.0050467" lon="14.777415"><ele>337.0</ele><time>2026-04-09T15:00:45.084Z</time></trkpt><trkpt lat="41.0050517" lon="14.7775233"><ele>337.0</ele><time>2026-04-09T15:00:47.084Z</time></trkpt><trkpt lat="41.0051183" lon="14.777585"><ele>337.0</ele><time>2026-04-09T15:00:49.084Z</time></trkpt><trkpt lat="41.0052033" lon="14.7776333"><ele>337.0</ele><time>2026-04-09T15:00:51.084Z</time></trkpt><trkpt lat="41.0052867" lon="14.7776667"><ele>338.16666666666663</ele><time>2026-04-09T15:00:53.084Z</time></trkpt><trkpt lat="41.0053717" lon="14.7777117"><ele>339.3333333333333</ele><time>2026-04-09T15:00:55.084Z</time></trkpt><trkpt lat="41.005445" lon="14.77775"><ele>340.5</ele><time>2026-04-09T15:00:57.084Z</time></trkpt><trkpt lat="41.0055283" lon="14.7777433"><ele>341.6666666666667</ele><time>2026-04-09T15:00:59.084Z</time></trkpt><trkpt lat="41.0055933" lon="14.77775"><ele>342.83333333333337</ele><time>2026-04-09T15:01:01.084Z</time></trkpt><trkpt lat="41.005675" lon="14.77775"><ele>344.0</ele><time>2026-04-09T15:01:04.084Z</time></trkpt><trkpt lat="41.0057617" lon="14.7777517"><ele>344.0</ele><time>2026-04-09T15:01:06.084Z</time></trkpt><trkpt lat="41.0058367" lon="14.7777683"><ele>344.0</ele><time>2026-04-09T15:01:08.084Z</time></trkpt><trkpt lat="41.0058717" lon="14.77787"><ele>344.0</ele><time>2026-04-09T15:01:11.084Z</time></trkpt><trkpt lat="41.0058567" lon="14.7779717"><ele>344.0</ele><time>2026-04-09T15:01:13.084Z</time></trkpt><trkpt lat="41.0057767" lon="14.778065"><ele>344.0</ele><time>2026-04-09T15:01:15.084Z</time></trkpt><trkpt lat="41.00569" lon="14.7781683"><ele>344.0</ele><time>2026-04-09T15:01:17.084Z</time></trkpt><trkpt lat="41.00561" lon="14.7782433"><ele>344.0</ele><time>2026-04-09T15:01:19.084Z</time></trkpt><trkpt lat="41.0055333" lon="14.7783483"><ele>344.0</ele><time>2026-04-09T15:01:21.084Z</time></trkpt><trkpt lat="41.005465" lon="14.7784667"><ele>344.0</ele><time>2026-04-09T15:01:23.084Z</time></trkpt><trkpt lat="41.0053833" lon="14.77858"><ele>344.0</ele><time>2026-04-09T15:01:25.084Z</time></trkpt><trkpt lat="41.0052983" lon="14.7786933"><ele>344.2</ele><time>2026-04-09T15:01:27.084Z</time></trkpt><trkpt lat="41.0052367" lon="14.77879"><ele>344.4</ele><time>2026-04-09T15:01:29.084Z</time></trkpt><trkpt lat="41.005195" lon="14.7789083"><ele>344.6</ele><time>2026-04-09T15:01:31.084Z</time></trkpt><trkpt lat="41.0051483" lon="14.77905"><ele>344.8</ele><time>2026-04-09T15:01:33.084Z</time></trkpt><trkpt lat="41.0051183" lon="14.779125"><ele>345.0</ele><time>2026-04-09T15:01:34.084Z</time></trkpt><trkpt lat="41.00505" lon="14.7792717"><ele>345.0</ele><time>2026-04-09T15:01:36.084Z</time></trkpt><trkpt lat="41.005025" lon="14.7793533"><ele>345.0</ele><time>2026-04-09T15:01:37.084Z</time></trkpt><trkpt lat="41.0049783" lon="14.7795"><ele>345.0</ele><time>2026-04-09T15:01:39.084Z</time></trkpt><trkpt lat="41.0049283" lon="14.77965"><ele>345.0</ele><time>2026-04-09T15:01:41.084Z</time></trkpt><trkpt lat="41.004895" lon="14.7797367"><ele>345.0</ele><time>2026-04-09T15:01:42.084Z</time></trkpt><trkpt lat="41.0048617" lon="14.7798267"><ele>346.0</ele><time>2026-04-09T15:01:43.084Z</time></trkpt><trkpt lat="41.00482" lon="14.7799183"><ele>347.0</ele><time>2026-04-09T15:01:44.084Z</time></trkpt><trkpt lat="41.0047917" lon="14.7800083"><ele>348.0</ele><time>2026-04-09T15:01:45.084Z</time></trkpt><trkpt lat="41.0047583" lon="14.7801017"><ele>349.0</ele><time>2026-04-09T15:01:46.084Z</time></trkpt><trkpt lat="41.004725" lon="14.7801967"><ele>350.0</ele><time>2026-04-09T15:01:47.084Z</time></trkpt><trkpt lat="41.0047" lon="14.7802917"><ele>351.0</ele><time>2026-04-09T15:01:48.084Z</time></trkpt><trkpt lat="41.0046783" lon="14.7803717"><ele>351.0</ele><time>2026-04-09T15:01:49.084Z</time></trkpt><trkpt lat="41.004665" lon="14.7804617"><ele>351.0</ele><time>2026-04-09T15:01:50.084Z</time></trkpt><trkpt lat="41.00466" lon="14.78056"><ele>351.0</ele><time>2026-04-09T15:01:51.084Z</time></trkpt><trkpt lat="41.004675" lon="14.7806583"><ele>351.0</ele><time>2026-04-09T15:01:52.084Z</time></trkpt><trkpt lat="41.0046983" lon="14.78075"><ele>351.0</ele><time>2026-04-09T15:01:53.084Z</time></trkpt><trkpt lat="41.0047183" lon="14.7808983"><ele>351.0</ele><time>2026-04-09T15:01:55.084Z</time></trkpt><trkpt lat="41.0047317" lon="14.7809833"><ele>351.6666666666667</ele><time>2026-04-09T15:01:56.084Z</time></trkpt><trkpt lat="41.004765" lon="14.78114"><ele>352.3333333333333</ele><time>2026-04-09T15:01:58.084Z</time></trkpt><trkpt lat="41.0047833" lon="14.7812317"><ele>353.0</ele><time>2026-04-09T15:01:59.084Z</time></trkpt><trkpt lat="41.0048067" lon="14.7813283"><ele>353.66666666666663</ele><time>2026-04-09T15:02:00.084Z</time></trkpt><trkpt lat="41.00483" lon="14.7814333"><ele>354.3333333333333</ele><time>2026-04-09T15:02:01.084Z</time></trkpt><trkpt lat="41.0048517" lon="14.781535"><ele>355.0</ele><time>2026-04-09T15:02:02.084Z</time></trkpt><trkpt lat="41.0048733" lon="14.7816317"><ele>355.0</ele><time>2026-04-09T15:02:03.084Z</time></trkpt><trkpt lat="41.0048917" lon="14.781725"><ele>355.0</ele><time>2026-04-09T15:02:04.084Z</time></trkpt><trkpt lat="41.00491" lon="14.7818117"><ele>355.0</ele><time>2026-04-09T15:02:05.084Z</time></trkpt><trkpt lat="41.0049317" lon="14.781895"><ele>355.0</ele><time>2026-04-09T15:02:06.084Z</time></trkpt><trkpt lat="41.0049583" lon="14.7819767"><ele>355.0</ele><time>2026-04-09T15:02:07.084Z</time></trkpt><trkpt lat="41.0049983" lon="14.7820533"><ele>355.0</ele><time>2026-04-09T15:02:08.084Z</time></trkpt><trkpt lat="41.005035" lon="14.78213"><ele>355.0</ele><time>2026-04-09T15:02:09.084Z</time></trkpt><trkpt lat="41.005095" lon="14.7822733"><ele>356.0</ele><time>2026-04-09T15:02:11.084Z</time></trkpt><trkpt lat="41.005145" lon="14.782415"><ele>357.0</ele><time>2026-04-09T15:02:13.084Z</time></trkpt><trkpt lat="41.0051633" lon="14.7825"><ele>358.0</ele><time>2026-04-09T15:02:14.084Z</time></trkpt><trkpt lat="41.005215" lon="14.782645"><ele>359.0</ele><time>2026-04-09T15:02:16.084Z</time></trkpt><trkpt lat="41.0052583" lon="14.7827633"><ele>360.0</ele><time>2026-04-09T15:02:18.084Z</time></trkpt><trkpt lat="41.0052733" lon="14.782855"><ele>360.4</ele><time>2026-04-09T15:02:20.084Z</time></trkpt><trkpt lat="41.0052733" lon="14.7829433"><ele>360.8</ele><time>2026-04-09T15:02:23.084Z</time></trkpt><trkpt lat="41.005195" lon="14.7830267"><ele>361.20000000000005</ele><time>2026-04-09T15:02:26.084Z</time></trkpt><trkpt lat="41.00508" lon="14.783065"><ele>361.6</ele><time>2026-04-09T15:02:28.084Z</time></trkpt><trkpt lat="41.0049583" lon="14.7831133"><ele>362.0</ele><time>2026-04-09T15:02:30.084Z</time></trkpt><trkpt lat="41.0048883" lon="14.78315"><ele>363.6</ele><time>2026-04-09T15:02:31.084Z</time></trkpt><trkpt lat="41.0048167" lon="14.7832033"><ele>365.20000000000005</ele><time>2026-04-09T15:02:32.084Z</time></trkpt><trkpt lat="41.0047383" lon="14.7832667"><ele>366.8</ele><time>2026-04-09T15:02:33.084Z</time></trkpt><trkpt lat="41.0046617" lon="14.78335"><ele>368.4</ele><time>2026-04-09T15:02:34.084Z</time></trkpt><trkpt lat="41.0045967" lon="14.7834333"><ele>370.0</ele><time>2026-04-09T15:02:35.084Z</time></trkpt><trkpt lat="41.0045317" lon="14.7835167"><ele>370.6</ele><time>2026-04-09T15:02:36.084Z</time></trkpt><trkpt lat="41.004475" lon="14.7836083"><ele>371.2</ele><time>2026-04-09T15:02:37.084Z</time></trkpt><trkpt lat="41.00442" lon="14.7837067"><ele>371.79999999999995</ele><time>2026-04-09T15:02:38.084Z</time></trkpt><trkpt lat="41.00436" lon="14.7838033"><ele>372.4</ele><time>2026-04-09T15:02:39.084Z</time></trkpt><trkpt lat="41.0043017" lon="14.7839133"><ele>373.0</ele><time>2026-04-09T15:02:40.084Z</time></trkpt><trkpt lat="41.0042317" lon="14.784045"><ele>375.75</ele><time>2026-04-09T15:02:41.084Z</time></trkpt><trkpt lat="41.00415" lon="14.7841983"><ele>378.5</ele><time>2026-04-09T15:02:42.084Z</time></trkpt><trkpt lat="41.004055" lon="14.7843617"><ele>381.25</ele><time>2026-04-09T15:02:43.084Z</time></trkpt><trkpt lat="41.00396" lon="14.78451"><ele>384.0</ele><time>2026-04-09T15:02:44.084Z</time></trkpt><trkpt lat="41.003865" lon="14.784645"><ele>384.0</ele><time>2026-04-09T15:02:45.084Z</time></trkpt><trkpt lat="41.0037783" lon="14.7847717"><ele>384.0</ele><time>2026-04-09T15:02:46.084Z</time></trkpt><trkpt lat="41.003695" lon="14.7848983"><ele>384.0</ele><time>2026-04-09T15:02:47.084Z</time></trkpt><trkpt lat="41.003605" lon="14.785005"><ele>384.0</ele><time>2026-04-09T15:02:48.084Z</time></trkpt><trkpt lat="41.0035083" lon="14.7851083"><ele>382.75</ele><time>2026-04-09T15:02:49.084Z</time></trkpt><trkpt lat="41.0034067" lon="14.7852017"><ele>381.5</ele><time>2026-04-09T15:02:50.084Z</time></trkpt><trkpt lat="41.0033067" lon="14.78529"><ele>380.25</ele><time>2026-04-09T15:02:51.084Z</time></trkpt><trkpt lat="41.0032017" lon="14.7853767"><ele>379.0</ele><time>2026-04-09T15:02:52.084Z</time></trkpt><trkpt lat="41.0031017" lon="14.7854717"><ele>383.25</ele><time>2026-04-09T15:02:53.084Z</time></trkpt><trkpt lat="41.0030017" lon="14.785565"><ele>387.5</ele><time>2026-04-09T15:02:54.084Z</time></trkpt><trkpt lat="41.002915" lon="14.7856583"><ele>391.75</ele><time>2026-04-09T15:02:55.084Z</time></trkpt><trkpt lat="41.0028417" lon="14.7857667"><ele>396.0</ele><time>2026-04-09T15:02:56.084Z</time></trkpt><trkpt lat="41.0027917" lon="14.7858983"><ele>396.75</ele><time>2026-04-09T15:02:57.084Z</time></trkpt><trkpt lat="41.00274" lon="14.786035"><ele>397.5</ele><time>2026-04-09T15:02:58.084Z</time></trkpt><trkpt lat="41.0027067" lon="14.78618"><ele>398.25</ele><time>2026-04-09T15:02:59.084Z</time></trkpt><trkpt lat="41.0026833" lon="14.7863333"><ele>399.0</ele><time>2026-04-09T15:03:00.084Z</time></trkpt><trkpt lat="41.0026783" lon="14.7865017"><ele>399.0</ele><time>2026-04-09T15:03:01.084Z</time></trkpt><trkpt lat="41.0026817" lon="14.7866683"><ele>399.0</ele><time>2026-04-09T15:03:02.084Z</time></trkpt><trkpt lat="41.00269" lon="14.7868417"><ele>399.0</ele><time>2026-04-09T15:03:03.084Z</time></trkpt><trkpt lat="41.0026983" lon="14.7870217"><ele>399.0</ele><time>2026-04-09T15:03:04.084Z</time></trkpt><trkpt lat="41.0027017" lon="14.7871883"><ele>400.75</ele><time>2026-04-09T15:03:05.084Z</time></trkpt><trkpt lat="41.0026983" lon="14.7873633"><ele>402.5</ele><time>2026-04-09T15:03:06.084Z</time></trkpt><trkpt lat="41.002695" lon="14.7875417"><ele>404.25</ele><time>2026-04-09T15:03:07.084Z</time></trkpt><trkpt lat="41.002675" lon="14.7877"><ele>406.0</ele><time>2026-04-09T15:03:08.084Z</time></trkpt><trkpt lat="41.00264" lon="14.7878617"><ele>406.5</ele><time>2026-04-09T15:03:09.084Z</time></trkpt><trkpt lat="41.0025967" lon="14.7880317"><ele>407.0</ele><time>2026-04-09T15:03:10.084Z</time></trkpt><trkpt lat="41.00255" lon="14.7882017"><ele>407.5</ele><time>2026-04-09T15:03:11.084Z</time></trkpt><trkpt lat="41.002495" lon="14.7883683"><ele>408.0</ele><time>2026-04-09T15:03:12.084Z</time></trkpt><trkpt lat="41.0024183" lon="14.7885283"><ele>410.0</ele><time>2026-04-09T15:03:13.084Z</time></trkpt><trkpt lat="41.002345" lon="14.7886867"><ele>412.0</ele><time>2026-04-09T15:03:14.084Z</time></trkpt><trkpt lat="41.00226" lon="14.7888467"><ele>414.0</ele><time>2026-04-09T15:03:15.084Z</time></trkpt><trkpt lat="41.0021767" lon="14.7890033"><ele>416.0</ele><time>2026-04-09T15:03:16.084Z</time></trkpt><trkpt lat="41.0020917" lon="14.789165"><ele>416.0</ele><time>2026-04-09T15:03:17.084Z</time></trkpt><trkpt lat="41.0020117" lon="14.7893317"><ele>416.0</ele><time>2026-04-09T15:03:18.084Z</time></trkpt><trkpt lat="41.0019333" lon="14.7894917"><ele>416.0</ele><time>2026-04-09T15:03:19.084Z</time></trkpt><trkpt lat="41.0018533" lon="14.7896467"><ele>416.0</ele><time>2026-04-09T15:03:20.084Z</time></trkpt><trkpt lat="41.001785" lon="14.7897917"><ele>416.75</ele><time>2026-04-09T15:03:21.084Z</time></trkpt><trkpt lat="41.0017167" lon="14.7899267"><ele>417.5</ele><time>2026-04-09T15:03:22.084Z</time></trkpt><trkpt lat="41.0016567" lon="14.7900617"><ele>418.25</ele><time>2026-04-09T15:03:23.084Z</time></trkpt><trkpt lat="41.0015883" lon="14.7901817"><ele>419.0</ele><time>2026-04-09T15:03:24.084Z</time></trkpt><trkpt lat="41.0015117" lon="14.7902817"><ele>421.0</ele><time>2026-04-09T15:03:25.084Z</time></trkpt><trkpt lat="41.0014233" lon="14.79036"><ele>423.0</ele><time>2026-04-09T15:03:26.084Z</time></trkpt><trkpt lat="41.0013183" lon="14.790425"><ele>425.0</ele><time>2026-04-09T15:03:27.084Z</time></trkpt><trkpt lat="41.0012083" lon="14.7904733"><ele>427.0</ele><time>2026-04-09T15:03:28.084Z</time></trkpt><trkpt lat="41.0010983" lon="14.790515"><ele>427.0</ele><time>2026-04-09T15:03:29.084Z</time></trkpt><trkpt lat="41.0009867" lon="14.79056"><ele>427.0</ele><time>2026-04-09T15:03:30.084Z</time></trkpt><trkpt lat="41.0008683" lon="14.7906067"><ele>427.0</ele><time>2026-04-09T15:03:31.084Z</time></trkpt><trkpt lat="41.0007483" lon="14.7906683"><ele>427.0</ele><time>2026-04-09T15:03:32.084Z</time></trkpt><trkpt lat="41.0006383" lon="14.7907333"><ele>429.25</ele><time>2026-04-09T15:03:33.084Z</time></trkpt><trkpt lat="41.000545" lon="14.7908267"><ele>431.5</ele><time>2026-04-09T15:03:34.084Z</time></trkpt><trkpt lat="41.0004617" lon="14.7909417"><ele>433.75</ele><time>2026-04-09T15:03:35.084Z</time></trkpt><trkpt lat="41.0003883" lon="14.7910683"><ele>436.0</ele><time>2026-04-09T15:03:36.084Z</time></trkpt><trkpt lat="41.00032" lon="14.7912117"><ele>436.0</ele><time>2026-04-09T15:03:37.084Z</time></trkpt><trkpt lat="41.000255" lon="14.7913617"><ele>436.0</ele><time>2026-04-09T15:03:38.084Z</time></trkpt><trkpt lat="41.00019" lon="14.7915183"><ele>436.0</ele><time>2026-04-09T15:03:39.084Z</time></trkpt><trkpt lat="41.0001267" lon="14.7916767"><ele>436.0</ele><time>2026-04-09T15:03:40.084Z</time></trkpt><trkpt lat="41.00007" lon="14.7918333"><ele>435.75</ele><time>2026-04-09T15:03:41.084Z</time></trkpt><trkpt lat="41.0000133" lon="14.7919867"><ele>435.5</ele><time>2026-04-09T15:03:42.084Z</time></trkpt><trkpt lat="40.999955" lon="14.79214"><ele>435.25</ele><time>2026-04-09T15:03:43.084Z</time></trkpt><trkpt lat="40.99989" lon="14.7922833"><ele>435.0</ele><time>2026-04-09T15:03:44.084Z</time></trkpt><trkpt lat="40.9998333" lon="14.792425"><ele>435.0</ele><time>2026-04-09T15:03:45.084Z</time></trkpt><trkpt lat="40.9997683" lon="14.7925583"><ele>435.0</ele><time>2026-04-09T15:03:46.084Z</time></trkpt><trkpt lat="40.9997017" lon="14.7926817"><ele>435.0</ele><time>2026-04-09T15:03:47.084Z</time></trkpt><trkpt lat="40.999635" lon="14.7927883"><ele>435.0</ele><time>2026-04-09T15:03:48.084Z</time></trkpt><trkpt lat="40.9995583" lon="14.792885"><ele>435.0</ele><time>2026-04-09T15:03:49.084Z</time></trkpt><trkpt lat="40.9994717" lon="14.7929667"><ele>434.5</ele><time>2026-04-09T15:03:50.084Z</time></trkpt><trkpt lat="40.9993733" lon="14.7930467"><ele>434.0</ele><time>2026-04-09T15:03:51.084Z</time></trkpt><trkpt lat="40.99927" lon="14.7931317"><ele>433.5</ele><time>2026-04-09T15:03:52.084Z</time></trkpt><trkpt lat="40.99917" lon="14.7932433"><ele>433.0</ele><time>2026-04-09T15:03:53.084Z</time></trkpt><trkpt lat="40.9990667" lon="14.79335"><ele>434.5</ele><time>2026-04-09T15:03:54.084Z</time></trkpt><trkpt lat="40.9989717" lon="14.7934633"><ele>436.0</ele><time>2026-04-09T15:03:55.084Z</time></trkpt><trkpt lat="40.9988833" lon="14.7935867"><ele>437.5</ele><time>2026-04-09T15:03:56.084Z</time></trkpt><trkpt lat="40.99879" lon="14.79371"><ele>439.0</ele><time>2026-04-09T15:03:57.084Z</time></trkpt><trkpt lat="40.998695" lon="14.7938433"><ele>439.0</ele><time>2026-04-09T15:03:58.084Z</time></trkpt><trkpt lat="40.9986017" lon="14.793975"><ele>439.0</ele><time>2026-04-09T15:03:59.084Z</time></trkpt><trkpt lat="40.99851" lon="14.7940967"><ele>439.0</ele><time>2026-04-09T15:04:00.084Z</time></trkpt><trkpt lat="40.9984133" lon="14.7942067"><ele>439.0</ele><time>2026-04-09T15:04:01.084Z</time></trkpt><trkpt lat="40.9983133" lon="14.79431"><ele>441.5</ele><time>2026-04-09T15:04:02.084Z</time></trkpt><trkpt lat="40.998215" lon="14.7944133"><ele>444.0</ele><time>2026-04-09T15:04:03.084Z</time></trkpt><trkpt lat="40.998105" lon="14.7945183"><ele>446.5</ele><time>2026-04-09T15:04:04.084Z</time></trkpt><trkpt lat="40.9979983" lon="14.7946183"><ele>449.0</ele><time>2026-04-09T15:04:05.084Z</time></trkpt><trkpt lat="40.997885" lon="14.7947117"><ele>449.0</ele><time>2026-04-09T15:04:06.084Z</time></trkpt><trkpt lat="40.9977667" lon="14.7948033"><ele>449.0</ele><time>2026-04-09T15:04:07.084Z</time></trkpt><trkpt lat="40.9976417" lon="14.7948817"><ele>449.0</ele><time>2026-04-09T15:04:08.084Z</time></trkpt><trkpt lat="40.9975117" lon="14.7949567"><ele>449.0</ele><time>2026-04-09T15:04:09.084Z</time></trkpt><trkpt lat="40.9973783" lon="14.7950267"><ele>449.25</ele><time>2026-04-09T15:04:10.084Z</time></trkpt><trkpt lat="40.9972417" lon="14.795085"><ele>449.5</ele><time>2026-04-09T15:04:11.084Z</time></trkpt><trkpt lat="40.9971067" lon="14.795155"><ele>449.75</ele><time>2026-04-09T15:04:12.084Z</time></trkpt><trkpt lat="40.9969817" lon="14.7952117"><ele>450.0</ele><time>2026-04-09T15:04:13.084Z</time></trkpt><trkpt lat="40.9968567" lon="14.7952717"><ele>450.0</ele><time>2026-04-09T15:04:14.084Z</time></trkpt><trkpt lat="40.99674" lon="14.7953417"><ele>450.0</ele><time>2026-04-09T15:04:15.084Z</time></trkpt><trkpt lat="40.99663" lon="14.795415"><ele>450.0</ele><time>2026-04-09T15:04:16.084Z</time></trkpt><trkpt lat="40.996505" lon="14.7954867"><ele>450.0</ele><time>2026-04-09T15:04:17.084Z</time></trkpt><trkpt lat="40.9963783" lon="14.7955683"><ele>452.33333333333337</ele><time>2026-04-09T15:04:18.084Z</time></trkpt><trkpt lat="40.9962433" lon="14.7956567"><ele>454.6666666666667</ele><time>2026-04-09T15:04:19.084Z</time></trkpt><trkpt lat="40.9961017" lon="14.7957367"><ele>457.0</ele><time>2026-04-09T15:04:20.084Z</time></trkpt><trkpt lat="40.9959583" lon="14.7958117"><ele>458.33333333333337</ele><time>2026-04-09T15:04:21.084Z</time></trkpt><trkpt lat="40.9958167" lon="14.7958883"><ele>459.66666666666663</ele><time>2026-04-09T15:04:22.084Z</time></trkpt><trkpt lat="40.9956717" lon="14.7959767"><ele>461.0</ele><time>2026-04-09T15:04:23.084Z</time></trkpt><trkpt lat="40.995525" lon="14.7960683"><ele>461.0</ele><time>2026-04-09T15:04:24.084Z</time></trkpt><trkpt lat="40.9953767" lon="14.7961517"><ele>461.0</ele><time>2026-04-09T15:04:25.084Z</time></trkpt><trkpt lat="40.9952217" lon="14.7962333"><ele>461.0</ele><time>2026-04-09T15:04:26.084Z</time></trkpt><trkpt lat="40.9950633" lon="14.796315"><ele>464.0</ele><time>2026-04-09T15:04:27.084Z</time></trkpt><trkpt lat="40.9949067" lon="14.7963983"><ele>467.0</ele><time>2026-04-09T15:04:28.084Z</time></trkpt><trkpt lat="40.9947583" lon="14.7964767"><ele>470.0</ele><time>2026-04-09T15:04:29.084Z</time></trkpt><trkpt lat="40.9946067" lon="14.7965467"><ele>470.0</ele><time>2026-04-09T15:04:30.084Z</time></trkpt><trkpt lat="40.9944617" lon="14.7966167"><ele>470.0</ele><time>2026-04-09T15:04:31.084Z</time></trkpt><trkpt lat="40.9943117" lon="14.7966817"><ele>470.0</ele><time>2026-04-09T15:04:32.084Z</time></trkpt><trkpt lat="40.9941517" lon="14.7967433"><ele>471.0</ele><time>2026-04-09T15:04:33.084Z</time></trkpt><trkpt lat="40.9939867" lon="14.7968033"><ele>472.0</ele><time>2026-04-09T15:04:34.084Z</time></trkpt><trkpt lat="40.993805" lon="14.7968667"><ele>473.0</ele><time>2026-04-09T15:04:35.084Z</time></trkpt><trkpt lat="40.9936317" lon="14.7969283"><ele>473.0</ele><time>2026-04-09T15:04:36.084Z</time></trkpt><trkpt lat="40.9934567" lon="14.7969883"><ele>473.0</ele><time>2026-04-09T15:04:37.084Z</time></trkpt><trkpt lat="40.9932833" lon="14.79705"><ele>473.0</ele><time>2026-04-09T15:04:38.084Z</time></trkpt><trkpt lat="40.9931183" lon="14.79711"><ele>475.0</ele><time>2026-04-09T15:04:39.084Z</time></trkpt><trkpt lat="40.99295" lon="14.7971667"><ele>477.0</ele><time>2026-04-09T15:04:40.084Z</time></trkpt><trkpt lat="40.99278" lon="14.7972233"><ele>479.0</ele><time>2026-04-09T15:04:41.084Z</time></trkpt><trkpt lat="40.9926183" lon="14.79728"><ele>480.66666666666663</ele><time>2026-04-09T15:04:42.084Z</time></trkpt><trkpt lat="40.9924567" lon="14.7973317"><ele>482.33333333333337</ele><time>2026-04-09T15:04:43.084Z</time></trkpt><trkpt lat="40.9923017" lon="14.797385"><ele>484.0</ele><time>2026-04-09T15:04:44.084Z</time></trkpt><trkpt lat="40.992145" lon="14.797435"><ele>484.0</ele><time>2026-04-09T15:04:45.084Z</time></trkpt><trkpt lat="40.9919867" lon="14.79748"><ele>484.0</ele><time>2026-04-09T15:04:46.084Z</time></trkpt><trkpt lat="40.9918217" lon="14.797535"><ele>484.0</ele><time>2026-04-09T15:04:47.084Z</time></trkpt><trkpt lat="40.9916583" lon="14.7975967"><ele>483.0</ele><time>2026-04-09T15:04:48.084Z</time></trkpt><trkpt lat="40.991485" lon="14.7976533"><ele>482.0</ele><time>2026-04-09T15:04:49.084Z</time></trkpt><trkpt lat="40.99132" lon="14.7977167"><ele>481.0</ele><time>2026-04-09T15:04:50.084Z</time></trkpt><trkpt lat="40.991165" lon="14.797775"><ele>481.0</ele><time>2026-04-09T15:04:51.084Z</time></trkpt><trkpt lat="40.9910217" lon="14.7978167"><ele>481.0</ele><time>2026-04-09T15:04:52.084Z</time></trkpt><trkpt lat="40.99089" lon="14.7978567"><ele>481.0</ele><time>2026-04-09T15:04:53.084Z</time></trkpt><trkpt lat="40.990775" lon="14.7979"><ele>481.0</ele><time>2026-04-09T15:04:54.084Z</time></trkpt><trkpt lat="40.9906633" lon="14.797935"><ele>482.6</ele><time>2026-04-09T15:04:55.084Z</time></trkpt><trkpt lat="40.99056" lon="14.79797"><ele>484.20000000000005</ele><time>2026-04-09T15:04:56.084Z</time></trkpt><trkpt lat="40.9904583" lon="14.7980033"><ele>485.79999999999995</ele><time>2026-04-09T15:04:57.084Z</time></trkpt><trkpt lat="40.990355" lon="14.7980433"><ele>487.4</ele><time>2026-04-09T15:04:58.084Z</time></trkpt><trkpt lat="40.9902467" lon="14.79808"><ele>489.0</ele><time>2026-04-09T15:04:59.084Z</time></trkpt><trkpt lat="40.99013" lon="14.79812"><ele>490.25</ele><time>2026-04-09T15:05:00.084Z</time></trkpt><trkpt lat="40.9900083" lon="14.7981583"><ele>491.5</ele><time>2026-04-09T15:05:01.084Z</time></trkpt><trkpt lat="40.9898817" lon="14.7982033"><ele>492.75</ele><time>2026-04-09T15:05:02.084Z</time></trkpt><trkpt lat="40.98975" lon="14.7982483"><ele>494.0</ele><time>2026-04-09T15:05:03.084Z</time></trkpt><trkpt lat="40.9896167" lon="14.7982967"><ele>494.0</ele><time>2026-04-09T15:05:04.084Z</time></trkpt><trkpt lat="40.9894833" lon="14.7983417"><ele>494.0</ele><time>2026-04-09T15:05:05.084Z</time></trkpt><trkpt lat="40.9893567" lon="14.79839"><ele>494.0</ele><time>2026-04-09T15:05:06.084Z</time></trkpt><trkpt lat="40.98924" lon="14.7984283"><ele>494.0</ele><time>2026-04-09T15:05:07.084Z</time></trkpt><trkpt lat="40.9891283" lon="14.79845"><ele>496.0</ele><time>2026-04-09T15:05:08.084Z</time></trkpt><trkpt lat="40.9890167" lon="14.7984567"><ele>498.0</ele><time>2026-04-09T15:05:09.084Z</time></trkpt><trkpt lat="40.988895" lon="14.7984583"><ele>500.0</ele><time>2026-04-09T15:05:10.084Z</time></trkpt><trkpt lat="40.9887717" lon="14.7984383"><ele>502.0</ele><time>2026-04-09T15:05:11.084Z</time></trkpt><trkpt lat="40.9886533" lon="14.7984067"><ele>502.0</ele><time>2026-04-09T15:05:12.084Z</time></trkpt><trkpt lat="40.9885267" lon="14.798355"><ele>502.0</ele><time>2026-04-09T15:05:13.084Z</time></trkpt><trkpt lat="40.9883933" lon="14.7982933"><ele>502.0</ele><time>2026-04-09T15:05:14.084Z</time></trkpt><trkpt lat="40.988255" lon="14.798215"><ele>502.0</ele><time>2026-04-09T15:05:15.084Z</time></trkpt><trkpt lat="40.9881117" lon="14.798135"><ele>504.33333333333337</ele><time>2026-04-09T15:05:16.084Z</time></trkpt><trkpt lat="40.9879683" lon="14.7980467"><ele>506.66666666666663</ele><time>2026-04-09T15:05:17.084Z</time></trkpt><trkpt lat="40.9878333" lon="14.7979583"><ele>509.0</ele><time>2026-04-09T15:05:18.084Z</time></trkpt><trkpt lat="40.9876967" lon="14.7978767"><ele>509.0</ele><time>2026-04-09T15:05:19.084Z</time></trkpt><trkpt lat="40.9875783" lon="14.7978083"><ele>509.0</ele><time>2026-04-09T15:05:20.084Z</time></trkpt><trkpt lat="40.9874683" lon="14.7977367"><ele>509.0</ele><time>2026-04-09T15:05:21.084Z</time></trkpt><trkpt lat="40.9873567" lon="14.797665"><ele>509.0</ele><time>2026-04-09T15:05:22.084Z</time></trkpt><trkpt lat="40.9872467" lon="14.7976"><ele>512.0</ele><time>2026-04-09T15:05:23.084Z</time></trkpt><trkpt lat="40.9871417" lon="14.7975367"><ele>515.0</ele><time>2026-04-09T15:05:24.084Z</time></trkpt><trkpt lat="40.987045" lon="14.79747"><ele>518.0</ele><time>2026-04-09T15:05:25.084Z</time></trkpt><trkpt lat="40.98696" lon="14.7973933"><ele>521.0</ele><time>2026-04-09T15:05:26.084Z</time></trkpt><trkpt lat="40.9868867" lon="14.7972983"><ele>524.0</ele><time>2026-04-09T15:05:27.084Z</time></trkpt><trkpt lat="40.986825" lon="14.7971917"><ele>524.0</ele><time>2026-04-09T15:05:28.084Z</time></trkpt><trkpt lat="40.98678" lon="14.7970767"><ele>524.0</ele><time>2026-04-09T15:05:29.084Z</time></trkpt><trkpt lat="40.9867417" lon="14.7969583"><ele>524.0</ele><time>2026-04-09T15:05:30.084Z</time></trkpt><trkpt lat="40.9867117" lon="14.7968183"><ele>524.0</ele><time>2026-04-09T15:05:31.084Z</time></trkpt><trkpt lat="40.986695" lon="14.7966733"><ele>524.0</ele><time>2026-04-09T15:05:32.084Z</time></trkpt><trkpt lat="40.9866867" lon="14.7965167"><ele>524.5</ele><time>2026-04-09T15:05:33.084Z</time></trkpt><trkpt lat="40.9866817" lon="14.7963617"><ele>525.0</ele><time>2026-04-09T15:05:34.084Z</time></trkpt><trkpt lat="40.98666" lon="14.7962117"><ele>525.5</ele><time>2026-04-09T15:05:35.084Z</time></trkpt><trkpt lat="40.986625" lon="14.796055"><ele>526.0</ele><time>2026-04-09T15:05:36.084Z</time></trkpt><trkpt lat="40.9865767" lon="14.79591"><ele>526.25</ele><time>2026-04-09T15:05:37.084Z</time></trkpt><trkpt lat="40.9865183" lon="14.7957683"><ele>526.5</ele><time>2026-04-09T15:05:38.084Z</time></trkpt><trkpt lat="40.986435" lon="14.7956417"><ele>526.75</ele><time>2026-04-09T15:05:39.084Z</time></trkpt><trkpt lat="40.9863383" lon="14.79552"><ele>527.0</ele><time>2026-04-09T15:05:40.084Z</time></trkpt><trkpt lat="40.986225" lon="14.7953917"><ele>527.0</ele><time>2026-04-09T15:05:41.084Z</time></trkpt><trkpt lat="40.98609" lon="14.7952717"><ele>527.0</ele><time>2026-04-09T15:05:42.084Z</time></trkpt><trkpt lat="40.98595" lon="14.7951583"><ele>527.0</ele><time>2026-04-09T15:05:43.084Z</time></trkpt><trkpt lat="40.9858133" lon="14.795055"><ele>527.25</ele><time>2026-04-09T15:05:44.084Z</time></trkpt><trkpt lat="40.9856883" lon="14.7949667"><ele>527.5</ele><time>2026-04-09T15:05:45.084Z</time></trkpt><trkpt lat="40.9855683" lon="14.7948783"><ele>527.75</ele><time>2026-04-09T15:05:46.084Z</time></trkpt><trkpt lat="40.9854567" lon="14.7947867"><ele>528.0</ele><time>2026-04-09T15:05:47.084Z</time></trkpt><trkpt lat="40.9853433" lon="14.7946933"><ele>528.0</ele><time>2026-04-09T15:05:48.084Z</time></trkpt><trkpt lat="40.9852283" lon="14.794615"><ele>528.0</ele><time>2026-04-09T15:05:49.084Z</time></trkpt><trkpt lat="40.9851067" lon="14.794545"><ele>528.0</ele><time>2026-04-09T15:05:50.084Z</time></trkpt><trkpt lat="40.9849783" lon="14.7944917"><ele>528.0</ele><time>2026-04-09T15:05:51.084Z</time></trkpt><trkpt lat="40.9848483" lon="14.7944417"><ele>527.0</ele><time>2026-04-09T15:05:52.084Z</time></trkpt><trkpt lat="40.98472" lon="14.7944183"><ele>526.0</ele><time>2026-04-09T15:05:53.084Z</time></trkpt><trkpt lat="40.9845883" lon="14.7943983"><ele>525.0</ele><time>2026-04-09T15:05:54.084Z</time></trkpt><trkpt lat="40.98445" lon="14.794395"><ele>524.0</ele><time>2026-04-09T15:05:55.084Z</time></trkpt><trkpt lat="40.9843083" lon="14.7943983"><ele>525.3333333333333</ele><time>2026-04-09T15:05:56.084Z</time></trkpt><trkpt lat="40.9841617" lon="14.7944217"><ele>526.6666666666666</ele><time>2026-04-09T15:05:57.084Z</time></trkpt><trkpt lat="40.984005" lon="14.7944483"><ele>528.0</ele><time>2026-04-09T15:05:58.084Z</time></trkpt><trkpt lat="40.9838433" lon="14.794475"><ele>528.0</ele><time>2026-04-09T15:05:59.084Z</time></trkpt><trkpt lat="40.9836733" lon="14.794505"><ele>528.0</ele><time>2026-04-09T15:06:00.084Z</time></trkpt><trkpt lat="40.983525" lon="14.79454"><ele>528.0</ele><time>2026-04-09T15:06:01.084Z</time></trkpt><trkpt lat="40.9833717" lon="14.79457"><ele>528.6666666666666</ele><time>2026-04-09T15:06:02.084Z</time></trkpt><trkpt lat="40.9832217" lon="14.794605"><ele>529.3333333333333</ele><time>2026-04-09T15:06:03.084Z</time></trkpt><trkpt lat="40.983065" lon="14.794635"><ele>530.0</ele><time>2026-04-09T15:06:04.084Z</time></trkpt><trkpt lat="40.9829133" lon="14.7946667"><ele>530.0</ele><time>2026-04-09T15:06:05.084Z</time></trkpt><trkpt lat="40.9827617" lon="14.7946983"><ele>530.0</ele><time>2026-04-09T15:06:06.084Z</time></trkpt><trkpt lat="40.98261" lon="14.7947133"><ele>530.0</ele><time>2026-04-09T15:06:07.084Z</time></trkpt><trkpt lat="40.98245" lon="14.7947233"><ele>528.6666666666666</ele><time>2026-04-09T15:06:08.084Z</time></trkpt><trkpt lat="40.9822867" lon="14.79473"><ele>527.3333333333334</ele><time>2026-04-09T15:06:09.084Z</time></trkpt><trkpt lat="40.9821267" lon="14.7947167"><ele>526.0</ele><time>2026-04-09T15:06:10.084Z</time></trkpt><trkpt lat="40.9819817" lon="14.794705"><ele>526.0</ele><time>2026-04-09T15:06:11.084Z</time></trkpt><trkpt lat="40.981835" lon="14.7946967"><ele>526.0</ele><time>2026-04-09T15:06:12.084Z</time></trkpt><trkpt lat="40.9816983" lon="14.7946967"><ele>526.0</ele><time>2026-04-09T15:06:13.084Z</time></trkpt><trkpt lat="40.98157" lon="14.794695"><ele>526.0</ele><time>2026-04-09T15:06:14.084Z</time></trkpt><trkpt lat="40.9814383" lon="14.79469"><ele>526.0</ele><time>2026-04-09T15:06:15.084Z</time></trkpt><trkpt lat="40.9813083" lon="14.79467"><ele>526.0</ele><time>2026-04-09T15:06:16.084Z</time></trkpt><trkpt lat="40.9811733" lon="14.7946317"><ele>526.0</ele><time>2026-04-09T15:06:17.084Z</time></trkpt><trkpt lat="40.98104" lon="14.79457"><ele>526.0</ele><time>2026-04-09T15:06:18.084Z</time></trkpt><trkpt lat="40.98091" lon="14.7944883"><ele>526.3333333333334</ele><time>2026-04-09T15:06:19.084Z</time></trkpt><trkpt lat="40.9807683" lon="14.7943867"><ele>526.6666666666666</ele><time>2026-04-09T15:06:20.084Z</time></trkpt><trkpt lat="40.98062" lon="14.79427"><ele>527.0</ele><time>2026-04-09T15:06:21.084Z</time></trkpt><trkpt lat="40.98049" lon="14.7941567"><ele>528.0</ele><time>2026-04-09T15:06:22.084Z</time></trkpt><trkpt lat="40.980365" lon="14.79405"><ele>529.0</ele><time>2026-04-09T15:06:23.084Z</time></trkpt><trkpt lat="40.98024" lon="14.793975"><ele>530.0</ele><time>2026-04-09T15:06:24.084Z</time></trkpt><trkpt lat="40.9801083" lon="14.7939067"><ele>531.0</ele><time>2026-04-09T15:06:25.084Z</time></trkpt><trkpt lat="40.97997" lon="14.793855"><ele>532.25</ele><time>2026-04-09T15:06:26.084Z</time></trkpt><trkpt lat="40.9798317" lon="14.793805"><ele>533.5</ele><time>2026-04-09T15:06:27.084Z</time></trkpt><trkpt lat="40.9796867" lon="14.793755"><ele>534.75</ele><time>2026-04-09T15:06:28.084Z</time></trkpt><trkpt lat="40.9795367" lon="14.7937317"><ele>536.0</ele><time>2026-04-09T15:06:29.084Z</time></trkpt><trkpt lat="40.97939" lon="14.7937"><ele>536.0</ele><time>2026-04-09T15:06:30.084Z</time></trkpt><trkpt lat="40.979245" lon="14.79369"><ele>536.0</ele><time>2026-04-09T15:06:31.084Z</time></trkpt><trkpt lat="40.979105" lon="14.7936767"><ele>536.0</ele><time>2026-04-09T15:06:32.084Z</time></trkpt><trkpt lat="40.9789733" lon="14.793665"><ele>536.0</ele><time>2026-04-09T15:06:33.084Z</time></trkpt><trkpt lat="40.9788483" lon="14.7936667"><ele>536.5</ele><time>2026-04-09T15:06:34.084Z</time></trkpt><trkpt lat="40.9787317" lon="14.7936667"><ele>537.0</ele><time>2026-04-09T15:06:35.084Z</time></trkpt><trkpt lat="40.9786117" lon="14.7937067"><ele>537.5</ele><time>2026-04-09T15:06:36.084Z</time></trkpt><trkpt lat="40.9784867" lon="14.7937683"><ele>538.0</ele><time>2026-04-09T15:06:37.084Z</time></trkpt><trkpt lat="40.9783583" lon="14.7938433"><ele>539.75</ele><time>2026-04-09T15:06:38.084Z</time></trkpt><trkpt lat="40.9782317" lon="14.7939283"><ele>541.5</ele><time>2026-04-09T15:06:39.084Z</time></trkpt><trkpt lat="40.9781083" lon="14.7940117"><ele>543.25</ele><time>2026-04-09T15:06:40.084Z</time></trkpt><trkpt lat="40.9779933" lon="14.7940833"><ele>545.0</ele><time>2026-04-09T15:06:41.084Z</time></trkpt><trkpt lat="40.9778733" lon="14.7941617"><ele>545.0</ele><time>2026-04-09T15:06:42.084Z</time></trkpt><trkpt lat="40.977765" lon="14.794225"><ele>545.0</ele><time>2026-04-09T15:06:43.084Z</time></trkpt><trkpt lat="40.97765" lon="14.794275"><ele>545.0</ele><time>2026-04-09T15:06:44.084Z</time></trkpt><trkpt lat="40.9775233" lon="14.7942983"><ele>545.0</ele><time>2026-04-09T15:06:45.084Z</time></trkpt><trkpt lat="40.977395" lon="14.7943133"><ele>548.0</ele><time>2026-04-09T15:06:46.084Z</time></trkpt><trkpt lat="40.9772683" lon="14.7943167"><ele>551.0</ele><time>2026-04-09T15:06:47.084Z</time></trkpt><trkpt lat="40.9771533" lon="14.7943083"><ele>554.0</ele><time>2026-04-09T15:06:48.084Z</time></trkpt><trkpt lat="40.977045" lon="14.7942783"><ele>557.0</ele><time>2026-04-09T15:06:49.084Z</time></trkpt><trkpt lat="40.97693" lon="14.794235"><ele>557.0</ele><time>2026-04-09T15:06:50.084Z</time></trkpt><trkpt lat="40.97682" lon="14.794175"><ele>557.0</ele><time>2026-04-09T15:06:51.084Z</time></trkpt><trkpt lat="40.976705" lon="14.7940917"><ele>557.0</ele><time>2026-04-09T15:06:52.084Z</time></trkpt><trkpt lat="40.9765967" lon="14.793995"><ele>557.0</ele><time>2026-04-09T15:06:53.084Z</time></trkpt><trkpt lat="40.976485" lon="14.793895"><ele>558.25</ele><time>2026-04-09T15:06:54.084Z</time></trkpt><trkpt lat="40.97637" lon="14.7938017"><ele>559.5</ele><time>2026-04-09T15:06:55.084Z</time></trkpt><trkpt lat="40.9762533" lon="14.793725"><ele>560.75</ele><time>2026-04-09T15:06:56.084Z</time></trkpt><trkpt lat="40.9761383" lon="14.7936717"><ele>562.0</ele><time>2026-04-09T15:06:57.084Z</time></trkpt><trkpt lat="40.9760117" lon="14.7936183"><ele>562.0</ele><time>2026-04-09T15:06:58.084Z</time></trkpt><trkpt lat="40.9758933" lon="14.7935617"><ele>562.0</ele><time>2026-04-09T15:06:59.084Z</time></trkpt><trkpt lat="40.9757733" lon="14.7935083"><ele>562.0</ele><time>2026-04-09T15:07:00.084Z</time></trkpt><trkpt lat="40.975645" lon="14.7934383"><ele>562.0</ele><time>2026-04-09T15:07:01.084Z</time></trkpt><trkpt lat="40.975515" lon="14.7933683"><ele>565.25</ele><time>2026-04-09T15:07:02.084Z</time></trkpt><trkpt lat="40.9753833" lon="14.7932933"><ele>568.5</ele><time>2026-04-09T15:07:03.084Z</time></trkpt><trkpt lat="40.9752467" lon="14.7932233"><ele>571.75</ele><time>2026-04-09T15:07:04.084Z</time></trkpt><trkpt lat="40.9751133" lon="14.79317"><ele>575.0</ele><time>2026-04-09T15:07:05.084Z</time></trkpt><trkpt lat="40.9749783" lon="14.7931217"><ele>575.5</ele><time>2026-04-09T15:07:06.084Z</time></trkpt><trkpt lat="40.9748483" lon="14.793085"><ele>576.0</ele><time>2026-04-09T15:07:07.084Z</time></trkpt><trkpt lat="40.974725" lon="14.7930517"><ele>576.5</ele><time>2026-04-09T15:07:08.084Z</time></trkpt><trkpt lat="40.9745967" lon="14.7930283"><ele>577.0</ele><time>2026-04-09T15:07:09.084Z</time></trkpt><trkpt lat="40.9744717" lon="14.7930183"><ele>577.0</ele><time>2026-04-09T15:07:10.084Z</time></trkpt><trkpt lat="40.97435" lon="14.7930167"><ele>577.0</ele><time>2026-04-09T15:07:11.084Z</time></trkpt><trkpt lat="40.9742267" lon="14.7930233"><ele>577.0</ele><time>2026-04-09T15:07:12.084Z</time></trkpt><trkpt lat="40.9741067" lon="14.79302"><ele>577.0</ele><time>2026-04-09T15:07:13.084Z</time></trkpt><trkpt lat="40.9739783" lon="14.7930117"><ele>579.75</ele><time>2026-04-09T15:07:14.084Z</time></trkpt><trkpt lat="40.9738467" lon="14.7929933"><ele>582.5</ele><time>2026-04-09T15:07:15.084Z</time></trkpt><trkpt lat="40.973715" lon="14.7929583"><ele>585.25</ele><time>2026-04-09T15:07:16.084Z</time></trkpt><trkpt lat="40.9735817" lon="14.7929217"><ele>588.0</ele><time>2026-04-09T15:07:17.084Z</time></trkpt><trkpt lat="40.9734517" lon="14.7928683"><ele>588.25</ele><time>2026-04-09T15:07:18.084Z</time></trkpt><trkpt lat="40.9733167" lon="14.7928117"><ele>588.5</ele><time>2026-04-09T15:07:19.084Z</time></trkpt><trkpt lat="40.97319" lon="14.7927633"><ele>588.75</ele><time>2026-04-09T15:07:20.084Z</time></trkpt><trkpt lat="40.973055" lon="14.7927267"><ele>589.0</ele><time>2026-04-09T15:07:21.084Z</time></trkpt><trkpt lat="40.9729217" lon="14.7926833"><ele>590.5</ele><time>2026-04-09T15:07:22.084Z</time></trkpt><trkpt lat="40.9727883" lon="14.792645"><ele>592.0</ele><time>2026-04-09T15:07:23.084Z</time></trkpt><trkpt lat="40.9726617" lon="14.7926117"><ele>593.5</ele><time>2026-04-09T15:07:24.084Z</time></trkpt><trkpt lat="40.9725583" lon="14.79256"><ele>595.0</ele><time>2026-04-09T15:07:25.084Z</time></trkpt><trkpt lat="40.97244" lon="14.792535"><ele>595.4</ele><time>2026-04-09T15:07:26.084Z</time></trkpt><trkpt lat="40.9723267" lon="14.7924983"><ele>595.8</ele><time>2026-04-09T15:07:27.084Z</time></trkpt><trkpt lat="40.9722183" lon="14.7924567"><ele>596.2</ele><time>2026-04-09T15:07:28.084Z</time></trkpt><trkpt lat="40.9721233" lon="14.7924017"><ele>596.6</ele><time>2026-04-09T15:07:29.084Z</time></trkpt><trkpt lat="40.97204" lon="14.7923533"><ele>597.0</ele><time>2026-04-09T15:07:30.084Z</time></trkpt><trkpt lat="40.9719667" lon="14.7922983"><ele>597.0</ele><time>2026-04-09T15:07:31.084Z</time></trkpt><trkpt lat="40.971895" lon="14.7922433"><ele>597.0</ele><time>2026-04-09T15:07:32.084Z</time></trkpt><trkpt lat="40.9718317" lon="14.792185"><ele>597.0</ele><time>2026-04-09T15:07:33.084Z</time></trkpt><trkpt lat="40.971765" lon="14.79214"><ele>597.0</ele><time>2026-04-09T15:07:34.084Z</time></trkpt><trkpt lat="40.9716717" lon="14.7920967"><ele>597.0</ele><time>2026-04-09T15:07:36.084Z</time></trkpt><trkpt lat="40.9716017" lon="14.7920883"><ele>597.0</ele><time>2026-04-09T15:07:38.084Z</time></trkpt><trkpt lat="40.9715317" lon="14.79216"><ele>597.4</ele><time>2026-04-09T15:07:40.084Z</time></trkpt><trkpt lat="40.9715017" lon="14.7922983"><ele>597.8000000000001</ele><time>2026-04-09T15:07:42.084Z</time></trkpt><trkpt lat="40.9714917" lon="14.792395"><ele>598.2</ele><time>2026-04-09T15:07:43.084Z</time></trkpt><trkpt lat="40.971475" lon="14.79251"><ele>598.6</ele><time>2026-04-09T15:07:44.084Z</time></trkpt><trkpt lat="40.9714367" lon="14.7926283"><ele>599.0</ele><time>2026-04-09T15:07:45.084Z</time></trkpt><trkpt lat="40.9713933" lon="14.7927483"><ele>598.2</ele><time>2026-04-09T15:07:46.084Z</time></trkpt><trkpt lat="40.9713517" lon="14.7928783"><ele>597.4</ele><time>2026-04-09T15:07:47.084Z</time></trkpt><trkpt lat="40.9713067" lon="14.7930067"><ele>596.6</ele><time>2026-04-09T15:07:48.084Z</time></trkpt><trkpt lat="40.9712617" lon="14.7931417"><ele>595.8</ele><time>2026-04-09T15:07:49.084Z</time></trkpt><trkpt lat="40.971215" lon="14.79328"><ele>595.0</ele><time>2026-04-09T15:07:50.084Z</time></trkpt><trkpt lat="40.9711733" lon="14.79342"><ele>594.2</ele><time>2026-04-09T15:07:51.084Z</time></trkpt><trkpt lat="40.9711333" lon="14.7935533"><ele>593.4</ele><time>2026-04-09T15:07:52.084Z</time></trkpt><trkpt lat="40.9710967" lon="14.7936867"><ele>592.6</ele><time>2026-04-09T15:07:53.084Z</time></trkpt><trkpt lat="40.97106" lon="14.7938167"><ele>591.8</ele><time>2026-04-09T15:07:54.084Z</time></trkpt><trkpt lat="40.9710433" lon="14.7939433"><ele>591.0</ele><time>2026-04-09T15:07:55.084Z</time></trkpt><trkpt lat="40.97103" lon="14.794075"><ele>591.0</ele><time>2026-04-09T15:07:56.084Z</time></trkpt><trkpt lat="40.97102" lon="14.79421"><ele>591.0</ele><time>2026-04-09T15:07:57.084Z</time></trkpt><trkpt lat="40.9710083" lon="14.79435"><ele>591.0</ele><time>2026-04-09T15:07:58.084Z</time></trkpt><trkpt lat="40.9709933" lon="14.7944833"><ele>591.0</ele><time>2026-04-09T15:07:59.084Z</time></trkpt><trkpt lat="40.97097" lon="14.7946117"><ele>591.0</ele><time>2026-04-09T15:08:00.084Z</time></trkpt><trkpt lat="40.970925" lon="14.79474"><ele>591.0</ele><time>2026-04-09T15:08:01.084Z</time></trkpt><trkpt lat="40.9708683" lon="14.7948717"><ele>591.0</ele><time>2026-04-09T15:08:02.084Z</time></trkpt><trkpt lat="40.970805" lon="14.7950067"><ele>591.0</ele><time>2026-04-09T15:08:03.084Z</time></trkpt><trkpt lat="40.9707317" lon="14.795145"><ele>591.0</ele><time>2026-04-09T15:08:04.084Z</time></trkpt><trkpt lat="40.9706567" lon="14.7952667"><ele>591.0</ele><time>2026-04-09T15:08:05.084Z</time></trkpt><trkpt lat="40.9705733" lon="14.7953867"><ele>591.0</ele><time>2026-04-09T15:08:06.084Z</time></trkpt><trkpt lat="40.97049" lon="14.7954933"><ele>591.0</ele><time>2026-04-09T15:08:07.084Z</time></trkpt><trkpt lat="40.9704133" lon="14.7955933"><ele>591.0</ele><time>2026-04-09T15:08:08.084Z</time></trkpt><trkpt lat="40.9703283" lon="14.79568"><ele>591.0</ele><time>2026-04-09T15:08:09.084Z</time></trkpt><trkpt lat="40.9702433" lon="14.7957617"><ele>591.0</ele><time>2026-04-09T15:08:10.084Z</time></trkpt><trkpt lat="40.9701467" lon="14.7958333"><ele>591.0</ele><time>2026-04-09T15:08:11.084Z</time></trkpt><trkpt lat="40.9700433" lon="14.7959"><ele>591.0</ele><time>2026-04-09T15:08:12.084Z</time></trkpt><trkpt lat="40.9699233" lon="14.7959433"><ele>592.5</ele><time>2026-04-09T15:08:13.084Z</time></trkpt><trkpt lat="40.9698133" lon="14.7960017"><ele>594.0</ele><time>2026-04-09T15:08:14.084Z</time></trkpt><trkpt lat="40.9697033" lon="14.796085"><ele>595.5</ele><time>2026-04-09T15:08:15.084Z</time></trkpt><trkpt lat="40.9695767" lon="14.7961767"><ele>597.0</ele><time>2026-04-09T15:08:16.084Z</time></trkpt><trkpt lat="40.9694583" lon="14.7962767"><ele>597.25</ele><time>2026-04-09T15:08:17.084Z</time></trkpt><trkpt lat="40.9693317" lon="14.7963733"><ele>597.5</ele><time>2026-04-09T15:08:18.084Z</time></trkpt><trkpt lat="40.96921" lon="14.7964717"><ele>597.75</ele><time>2026-04-09T15:08:19.084Z</time></trkpt><trkpt lat="40.969095" lon="14.7965583"><ele>598.0</ele><time>2026-04-09T15:08:20.084Z</time></trkpt><trkpt lat="40.9689817" lon="14.7966367"><ele>598.0</ele><time>2026-04-09T15:08:21.084Z</time></trkpt><trkpt lat="40.96886" lon="14.7966967"><ele>598.0</ele><time>2026-04-09T15:08:22.084Z</time></trkpt><trkpt lat="40.9687367" lon="14.7967583"><ele>598.0</ele><time>2026-04-09T15:08:23.084Z</time></trkpt><trkpt lat="40.9686133" lon="14.796805"><ele>598.0</ele><time>2026-04-09T15:08:24.084Z</time></trkpt><trkpt lat="40.96849" lon="14.7968467"><ele>596.0</ele><time>2026-04-09T15:08:25.084Z</time></trkpt><trkpt lat="40.968365" lon="14.7968867"><ele>594.0</ele><time>2026-04-09T15:08:26.084Z</time></trkpt><trkpt lat="40.96824" lon="14.796925"><ele>592.0</ele><time>2026-04-09T15:08:27.084Z</time></trkpt><trkpt lat="40.968125" lon="14.79696"><ele>590.0</ele><time>2026-04-09T15:08:28.084Z</time></trkpt><trkpt lat="40.9680067" lon="14.7969933"><ele>590.0</ele><time>2026-04-09T15:08:29.084Z</time></trkpt><trkpt lat="40.9678983" lon="14.797025"><ele>590.0</ele><time>2026-04-09T15:08:30.084Z</time></trkpt><trkpt lat="40.9677867" lon="14.7970467"><ele>590.0</ele><time>2026-04-09T15:08:31.084Z</time></trkpt><trkpt lat="40.9676767" lon="14.7970933"><ele>590.0</ele><time>2026-04-09T15:08:32.084Z</time></trkpt><trkpt lat="40.9675833" lon="14.7971583"><ele>590.0</ele><time>2026-04-09T15:08:33.084Z</time></trkpt><trkpt lat="40.9675017" lon="14.797245"><ele>591.0</ele><time>2026-04-09T15:08:34.084Z</time></trkpt><trkpt lat="40.9674333" lon="14.7973483"><ele>592.0</ele><time>2026-04-09T15:08:35.084Z</time></trkpt><trkpt lat="40.9673767" lon="14.7974617"><ele>593.0</ele><time>2026-04-09T15:08:36.084Z</time></trkpt><trkpt lat="40.967335" lon="14.79758"><ele>594.0</ele><time>2026-04-09T15:08:37.084Z</time></trkpt><trkpt lat="40.9673117" lon="14.7977017"><ele>595.0</ele><time>2026-04-09T15:08:38.084Z</time></trkpt><trkpt lat="40.9673033" lon="14.7978333"><ele>595.5</ele><time>2026-04-09T15:08:39.084Z</time></trkpt><trkpt lat="40.96731" lon="14.7979783"><ele>596.0</ele><time>2026-04-09T15:08:40.084Z</time></trkpt><trkpt lat="40.9673233" lon="14.7981333"><ele>596.5</ele><time>2026-04-09T15:08:41.084Z</time></trkpt><trkpt lat="40.9673333" lon="14.79829"><ele>597.0</ele><time>2026-04-09T15:08:42.084Z</time></trkpt><trkpt lat="40.967335" lon="14.7984417"><ele>598.0</ele><time>2026-04-09T15:08:43.084Z</time></trkpt><trkpt lat="40.9673367" lon="14.7986017"><ele>599.0</ele><time>2026-04-09T15:08:44.084Z</time></trkpt><trkpt lat="40.9673283" lon="14.7987483"><ele>600.0</ele><time>2026-04-09T15:08:45.084Z</time></trkpt><trkpt lat="40.9673217" lon="14.7988867"><ele>601.0</ele><time>2026-04-09T15:08:46.084Z</time></trkpt><trkpt lat="40.967315" lon="14.7990083"><ele>602.0</ele><time>2026-04-09T15:08:47.084Z</time></trkpt><trkpt lat="40.9672967" lon="14.7991067"><ele>602.0</ele><time>2026-04-09T15:08:48.084Z</time></trkpt><trkpt lat="40.9672717" lon="14.799185"><ele>602.0</ele><time>2026-04-09T15:08:49.084Z</time></trkpt><trkpt lat="40.9672367" lon="14.7992583"><ele>602.0</ele><time>2026-04-09T15:08:50.084Z</time></trkpt><trkpt lat="40.9671917" lon="14.79933"><ele>602.0</ele><time>2026-04-09T15:08:51.084Z</time></trkpt><trkpt lat="40.9671217" lon="14.7994083"><ele>602.0</ele><time>2026-04-09T15:08:52.084Z</time></trkpt><trkpt lat="40.9670433" lon="14.799495"><ele>602.0</ele><time>2026-04-09T15:08:53.084Z</time></trkpt><trkpt lat="40.9669533" lon="14.7995883"><ele>602.4</ele><time>2026-04-09T15:08:54.084Z</time></trkpt><trkpt lat="40.9668583" lon="14.7996717"><ele>602.8000000000001</ele><time>2026-04-09T15:08:55.084Z</time></trkpt><trkpt lat="40.9667683" lon="14.7997467"><ele>603.2</ele><time>2026-04-09T15:08:56.084Z</time></trkpt><trkpt lat="40.9666783" lon="14.7998233"><ele>603.6</ele><time>2026-04-09T15:08:57.084Z</time></trkpt><trkpt lat="40.9665833" lon="14.7999"><ele>604.0</ele><time>2026-04-09T15:08:58.084Z</time></trkpt><trkpt lat="40.9664983" lon="14.7999633"><ele>603.1666666666667</ele><time>2026-04-09T15:08:59.084Z</time></trkpt><trkpt lat="40.9664183" lon="14.8000183"><ele>602.3333333333334</ele><time>2026-04-09T15:09:00.084Z</time></trkpt><trkpt lat="40.966345" lon="14.8000483"><ele>601.5</ele><time>2026-04-09T15:09:01.084Z</time></trkpt><trkpt lat="40.966275" lon="14.8000433"><ele>600.6666666666666</ele><time>2026-04-09T15:09:02.084Z</time></trkpt><trkpt lat="40.9662117" lon="14.7999917"><ele>599.8333333333333</ele><time>2026-04-09T15:09:03.084Z</time></trkpt><trkpt lat="40.9661683" lon="14.7998933"><ele>599.0</ele><time>2026-04-09T15:09:04.084Z</time></trkpt><trkpt lat="40.9661267" lon="14.7997533"><ele>599.0</ele><time>2026-04-09T15:09:05.084Z</time></trkpt><trkpt lat="40.9660817" lon="14.7996133"><ele>599.0</ele><time>2026-04-09T15:09:06.084Z</time></trkpt><trkpt lat="40.966025" lon="14.79947"><ele>599.0</ele><time>2026-04-09T15:09:07.084Z</time></trkpt><trkpt lat="40.965955" lon="14.7993217"><ele>599.0</ele><time>2026-04-09T15:09:08.084Z</time></trkpt><trkpt lat="40.965875" lon="14.7991783"><ele>597.5</ele><time>2026-04-09T15:09:09.084Z</time></trkpt><trkpt lat="40.9658117" lon="14.799055"><ele>596.0</ele><time>2026-04-09T15:09:10.084Z</time></trkpt><trkpt lat="40.96573" lon="14.7989533"><ele>594.5</ele><time>2026-04-09T15:09:11.084Z</time></trkpt><trkpt lat="40.96563" lon="14.7988717"><ele>593.0</ele><time>2026-04-09T15:09:12.084Z</time></trkpt><trkpt lat="40.9655133" lon="14.7988"><ele>593.0</ele><time>2026-04-09T15:09:13.084Z</time></trkpt><trkpt lat="40.9654083" lon="14.79875"><ele>593.0</ele><time>2026-04-09T15:09:14.084Z</time></trkpt><trkpt lat="40.9652967" lon="14.79871"><ele>593.0</ele><time>2026-04-09T15:09:15.084Z</time></trkpt><trkpt lat="40.9651883" lon="14.7986717"><ele>593.0</ele><time>2026-04-09T15:09:16.084Z</time></trkpt><trkpt lat="40.965075" lon="14.79862"><ele>588.25</ele><time>2026-04-09T15:09:17.084Z</time></trkpt><trkpt lat="40.964975" lon="14.7985267"><ele>583.5</ele><time>2026-04-09T15:09:18.084Z</time></trkpt><trkpt lat="40.9648783" lon="14.798405"><ele>578.75</ele><time>2026-04-09T15:09:19.084Z</time></trkpt><trkpt lat="40.9647833" lon="14.79826"><ele>574.0</ele><time>2026-04-09T15:09:20.084Z</time></trkpt><trkpt lat="40.9646917" lon="14.7981183"><ele>574.0</ele><time>2026-04-09T15:09:21.084Z</time></trkpt><trkpt lat="40.9646233" lon="14.7979717"><ele>574.0</ele><time>2026-04-09T15:09:22.084Z</time></trkpt><trkpt lat="40.9645583" lon="14.7978467"><ele>574.0</ele><time>2026-04-09T15:09:23.084Z</time></trkpt><trkpt lat="40.9644883" lon="14.7977417"><ele>574.0</ele><time>2026-04-09T15:09:24.084Z</time></trkpt><trkpt lat="40.9643967" lon="14.79765"><ele>573.75</ele><time>2026-04-09T15:09:25.084Z</time></trkpt><trkpt lat="40.9642983" lon="14.7975917"><ele>573.5</ele><time>2026-04-09T15:09:26.084Z</time></trkpt><trkpt lat="40.9641867" lon="14.7975633"><ele>573.25</ele><time>2026-04-09T15:09:27.084Z</time></trkpt><trkpt lat="40.96406" lon="14.7975517"><ele>573.0</ele><time>2026-04-09T15:09:28.084Z</time></trkpt><trkpt lat="40.9639267" lon="14.7975433"><ele>573.0</ele><time>2026-04-09T15:09:29.084Z</time></trkpt><trkpt lat="40.9638083" lon="14.7975233"><ele>573.0</ele><time>2026-04-09T15:09:30.084Z</time></trkpt><trkpt lat="40.9636933" lon="14.7974983"><ele>573.0</ele><time>2026-04-09T15:09:31.084Z</time></trkpt><trkpt lat="40.9635867" lon="14.7974767"><ele>573.0</ele><time>2026-04-09T15:09:32.084Z</time></trkpt><trkpt lat="40.963495" lon="14.79746"><ele>573.0</ele><time>2026-04-09T15:09:33.084Z</time></trkpt><trkpt lat="40.9634233" lon="14.79745"><ele>570.6666666666666</ele><time>2026-04-09T15:09:34.084Z</time></trkpt><trkpt lat="40.96336" lon="14.797445"><ele>568.3333333333334</ele><time>2026-04-09T15:09:35.084Z</time></trkpt><trkpt lat="40.9632667" lon="14.7974683"><ele>566.0</ele><time>2026-04-09T15:09:37.084Z</time></trkpt><trkpt lat="40.9631967" lon="14.7975733"><ele>563.6666666666667</ele><time>2026-04-09T15:09:39.084Z</time></trkpt><trkpt lat="40.9631733" lon="14.7976633"><ele>561.3333333333334</ele><time>2026-04-09T15:09:40.084Z</time></trkpt><trkpt lat="40.9631433" lon="14.7977717"><ele>559.0</ele><time>2026-04-09T15:09:41.084Z</time></trkpt><trkpt lat="40.9631067" lon="14.7978883"><ele>557.2</ele><time>2026-04-09T15:09:42.084Z</time></trkpt><trkpt lat="40.9630683" lon="14.7979983"><ele>555.4</ele><time>2026-04-09T15:09:43.084Z</time></trkpt><trkpt lat="40.963035" lon="14.7981167"><ele>553.6</ele><time>2026-04-09T15:09:44.084Z</time></trkpt><trkpt lat="40.9629983" lon="14.7982367"><ele>551.8</ele><time>2026-04-09T15:09:45.084Z</time></trkpt><trkpt lat="40.9629617" lon="14.7983417"><ele>550.0</ele><time>2026-04-09T15:09:46.084Z</time></trkpt><trkpt lat="40.9629233" lon="14.7984383"><ele>549.0</ele><time>2026-04-09T15:09:47.084Z</time></trkpt><trkpt lat="40.9628617" lon="14.7985167"><ele>548.0</ele><time>2026-04-09T15:09:48.084Z</time></trkpt><trkpt lat="40.96279" lon="14.7985833"><ele>547.0</ele><time>2026-04-09T15:09:49.084Z</time></trkpt><trkpt lat="40.9627083" lon="14.7986383"><ele>546.0</ele><time>2026-04-09T15:09:50.084Z</time></trkpt><trkpt lat="40.9626167" lon="14.7986817"><ele>545.0</ele><time>2026-04-09T15:09:51.084Z</time></trkpt><trkpt lat="40.9625167" lon="14.7987217"><ele>543.2</ele><time>2026-04-09T15:09:52.084Z</time></trkpt><trkpt lat="40.962415" lon="14.7987533"><ele>541.4</ele><time>2026-04-09T15:09:53.084Z</time></trkpt><trkpt lat="40.9623183" lon="14.7987883"><ele>539.6</ele><time>2026-04-09T15:09:54.084Z</time></trkpt><trkpt lat="40.962225" lon="14.7988167"><ele>537.8</ele><time>2026-04-09T15:09:55.084Z</time></trkpt><trkpt lat="40.9621217" lon="14.79883"><ele>536.0</ele><time>2026-04-09T15:09:56.084Z</time></trkpt><trkpt lat="40.9620133" lon="14.7988333"><ele>536.0</ele><time>2026-04-09T15:09:57.084Z</time></trkpt><trkpt lat="40.9619033" lon="14.7988183"><ele>536.0</ele><time>2026-04-09T15:09:58.084Z</time></trkpt><trkpt lat="40.9617917" lon="14.798795"><ele>536.0</ele><time>2026-04-09T15:09:59.084Z</time></trkpt><trkpt lat="40.961675" lon="14.7987567"><ele>536.0</ele><time>2026-04-09T15:10:00.084Z</time></trkpt><trkpt lat="40.961565" lon="14.79872"><ele>534.3333333333333</ele><time>2026-04-09T15:10:01.084Z</time></trkpt><trkpt lat="40.961465" lon="14.7986933"><ele>532.6666666666666</ele><time>2026-04-09T15:10:02.084Z</time></trkpt><trkpt lat="40.9613783" lon="14.7986733"><ele>531.0</ele><time>2026-04-09T15:10:03.084Z</time></trkpt><trkpt lat="40.9612917" lon="14.79867"><ele>529.3333333333334</ele><time>2026-04-09T15:10:04.084Z</time></trkpt><trkpt lat="40.961215" lon="14.79867"><ele>527.6666666666667</ele><time>2026-04-09T15:10:05.084Z</time></trkpt><trkpt lat="40.9611417" lon="14.798705"><ele>526.0</ele><time>2026-04-09T15:10:06.084Z</time></trkpt><trkpt lat="40.9610617" lon="14.7987383"><ele>526.0</ele><time>2026-04-09T15:10:07.084Z</time></trkpt><trkpt lat="40.9609683" lon="14.79879"><ele>526.0</ele><time>2026-04-09T15:10:08.084Z</time></trkpt><trkpt lat="40.960875" lon="14.7988467"><ele>526.0</ele><time>2026-04-09T15:10:09.084Z</time></trkpt><trkpt lat="40.9607667" lon="14.7988983"><ele>526.0</ele><time>2026-04-09T15:10:10.084Z</time></trkpt><trkpt lat="40.9606567" lon="14.798955"><ele>526.0</ele><time>2026-04-09T15:10:11.084Z</time></trkpt><trkpt lat="40.9605383" lon="14.79902"><ele>523.5</ele><time>2026-04-09T15:10:12.084Z</time></trkpt><trkpt lat="40.960425" lon="14.7990967"><ele>521.0</ele><time>2026-04-09T15:10:13.084Z</time></trkpt><trkpt lat="40.9603033" lon="14.7991617"><ele>518.5</ele><time>2026-04-09T15:10:14.084Z</time></trkpt><trkpt lat="40.9601867" lon="14.7992217"><ele>516.0</ele><time>2026-04-09T15:10:15.084Z</time></trkpt><trkpt lat="40.9600733" lon="14.7992683"><ele>514.4</ele><time>2026-04-09T15:10:16.084Z</time></trkpt><trkpt lat="40.9599683" lon="14.7992983"><ele>512.8</ele><time>2026-04-09T15:10:17.084Z</time></trkpt><trkpt lat="40.9598617" lon="14.799305"><ele>511.19999999999993</ele><time>2026-04-09T15:10:18.084Z</time></trkpt><trkpt lat="40.9597683" lon="14.79931"><ele>509.59999999999997</ele><time>2026-04-09T15:10:19.084Z</time></trkpt><trkpt lat="40.9596817" lon="14.799315"><ele>508.0</ele><time>2026-04-09T15:10:20.084Z</time></trkpt><trkpt lat="40.9595883" lon="14.7993467"><ele>507.0</ele><time>2026-04-09T15:10:21.084Z</time></trkpt><trkpt lat="40.9594917" lon="14.7993867"><ele>505.99999999999994</ele><time>2026-04-09T15:10:22.084Z</time></trkpt><trkpt lat="40.9593867" lon="14.7994383"><ele>504.99999999999994</ele><time>2026-04-09T15:10:23.084Z</time></trkpt><trkpt lat="40.9592817" lon="14.7994917"><ele>504.0</ele><time>2026-04-09T15:10:24.084Z</time></trkpt><trkpt lat="40.959185" lon="14.7995517"><ele>503.0</ele><time>2026-04-09T15:10:25.084Z</time></trkpt><trkpt lat="40.95909" lon="14.7996133"><ele>501.49999999999994</ele><time>2026-04-09T15:10:26.084Z</time></trkpt><trkpt lat="40.958995" lon="14.7996617"><ele>500.0</ele><time>2026-04-09T15:10:27.084Z</time></trkpt><trkpt lat="40.9589167" lon="14.7997"><ele>498.5</ele><time>2026-04-09T15:10:28.084Z</time></trkpt><trkpt lat="40.958835" lon="14.7997167"><ele>497.0</ele><time>2026-04-09T15:10:29.084Z</time></trkpt><trkpt lat="40.9587483" lon="14.7997183"><ele>495.49999999999994</ele><time>2026-04-09T15:10:30.084Z</time></trkpt><trkpt lat="40.958655" lon="14.7997033"><ele>494.0</ele><time>2026-04-09T15:10:31.084Z</time></trkpt><trkpt lat="40.9585533" lon="14.79967"><ele>494.0</ele><time>2026-04-09T15:10:32.084Z</time></trkpt><trkpt lat="40.958445" lon="14.79963"><ele>494.0</ele><time>2026-04-09T15:10:33.084Z</time></trkpt><trkpt lat="40.9583367" lon="14.7995833"><ele>494.0</ele><time>2026-04-09T15:10:34.084Z</time></trkpt><trkpt lat="40.9582333" lon="14.7995483"><ele>494.0</ele><time>2026-04-09T15:10:35.084Z</time></trkpt><trkpt lat="40.95813" lon="14.7995267"><ele>494.0</ele><time>2026-04-09T15:10:36.084Z</time></trkpt><trkpt lat="40.9580333" lon="14.7995133"><ele>492.0</ele><time>2026-04-09T15:10:37.084Z</time></trkpt><trkpt lat="40.9579367" lon="14.7995083"><ele>490.0</ele><time>2026-04-09T15:10:38.084Z</time></trkpt><trkpt lat="40.9578333" lon="14.7995167"><ele>488.0</ele><time>2026-04-09T15:10:39.084Z</time></trkpt><trkpt lat="40.95773" lon="14.79953"><ele>486.0</ele><time>2026-04-09T15:10:40.084Z</time></trkpt><trkpt lat="40.9576333" lon="14.79954"><ele>484.0</ele><time>2026-04-09T15:10:41.084Z</time></trkpt><trkpt lat="40.95755" lon="14.79955"><ele>482.6666666666667</ele><time>2026-04-09T15:10:42.084Z</time></trkpt><trkpt lat="40.9574667" lon="14.79956"><ele>481.33333333333337</ele><time>2026-04-09T15:10:43.084Z</time></trkpt><trkpt lat="40.957385" lon="14.7995767"><ele>480.0</ele><time>2026-04-09T15:10:44.084Z</time></trkpt><trkpt lat="40.957305" lon="14.7995867"><ele>478.66666666666663</ele><time>2026-04-09T15:10:45.084Z</time></trkpt><trkpt lat="40.9572233" lon="14.799605"><ele>477.3333333333333</ele><time>2026-04-09T15:10:46.084Z</time></trkpt><trkpt lat="40.9571283" lon="14.7996283"><ele>476.0</ele><time>2026-04-09T15:10:47.084Z</time></trkpt><trkpt lat="40.9570333" lon="14.79965"><ele>476.0</ele><time>2026-04-09T15:10:48.084Z</time></trkpt><trkpt lat="40.95695" lon="14.7996733"><ele>476.0</ele><time>2026-04-09T15:10:49.084Z</time></trkpt><trkpt lat="40.956865" lon="14.7997033"><ele>476.0</ele><time>2026-04-09T15:10:50.084Z</time></trkpt><trkpt lat="40.95678" lon="14.7997333"><ele>476.0</ele><time>2026-04-09T15:10:51.084Z</time></trkpt><trkpt lat="40.9566817" lon="14.7997567"><ele>476.0</ele><time>2026-04-09T15:10:52.084Z</time></trkpt><trkpt lat="40.956575" lon="14.7997733"><ele>472.8</ele><time>2026-04-09T15:10:53.084Z</time></trkpt><trkpt lat="40.9564633" lon="14.7997733"><ele>469.6</ele><time>2026-04-09T15:10:54.084Z</time></trkpt><trkpt lat="40.956355" lon="14.799765"><ele>466.4</ele><time>2026-04-09T15:10:55.084Z</time></trkpt><trkpt lat="40.9562483" lon="14.7997533"><ele>463.2</ele><time>2026-04-09T15:10:56.084Z</time></trkpt><trkpt lat="40.9561417" lon="14.7997317"><ele>460.0</ele><time>2026-04-09T15:10:57.084Z</time></trkpt><trkpt lat="40.9560383" lon="14.7997183"><ele>460.0</ele><time>2026-04-09T15:10:58.084Z</time></trkpt><trkpt lat="40.9559417" lon="14.7997033"><ele>460.0</ele><time>2026-04-09T15:10:59.084Z</time></trkpt><trkpt lat="40.955835" lon="14.79969"><ele>460.0</ele><time>2026-04-09T15:11:00.084Z</time></trkpt><trkpt lat="40.9557367" lon="14.7996733"><ele>460.0</ele><time>2026-04-09T15:11:01.084Z</time></trkpt><trkpt lat="40.9556333" lon="14.7996683"><ele>460.0</ele><time>2026-04-09T15:11:02.084Z</time></trkpt><trkpt lat="40.95553" lon="14.7996783"><ele>456.5</ele><time>2026-04-09T15:11:03.084Z</time></trkpt><trkpt lat="40.9554133" lon="14.7997033"><ele>453.0</ele><time>2026-04-09T15:11:04.084Z</time></trkpt><trkpt lat="40.955295" lon="14.7997333"><ele>449.5</ele><time>2026-04-09T15:11:05.084Z</time></trkpt><trkpt lat="40.9551783" lon="14.79977"><ele>446.0</ele><time>2026-04-09T15:11:06.084Z</time></trkpt><trkpt lat="40.955065" lon="14.7997983"><ele>442.8</ele><time>2026-04-09T15:11:07.084Z</time></trkpt><trkpt lat="40.9549517" lon="14.7998333"><ele>439.6</ele><time>2026-04-09T15:11:08.084Z</time></trkpt><trkpt lat="40.9548467" lon="14.7998633"><ele>436.4</ele><time>2026-04-09T15:11:09.084Z</time></trkpt><trkpt lat="40.9547417" lon="14.7999033"><ele>433.2</ele><time>2026-04-09T15:11:10.084Z</time></trkpt><trkpt lat="40.9546467" lon="14.799945"><ele>430.0</ele><time>2026-04-09T15:11:11.084Z</time></trkpt><trkpt lat="40.9545533" lon="14.7999867"><ele>430.0</ele><time>2026-04-09T15:11:12.084Z</time></trkpt><trkpt lat="40.95446" lon="14.8000283"><ele>430.0</ele><time>2026-04-09T15:11:13.084Z</time></trkpt><trkpt lat="40.954365" lon="14.8000583"><ele>430.0</ele><time>2026-04-09T15:11:14.084Z</time></trkpt><trkpt lat="40.9542583" lon="14.800075"><ele>430.0</ele><time>2026-04-09T15:11:15.084Z</time></trkpt><trkpt lat="40.9541417" lon="14.8000783"><ele>430.0</ele><time>2026-04-09T15:11:16.084Z</time></trkpt><trkpt lat="40.9540183" lon="14.8000817"><ele>427.25</ele><time>2026-04-09T15:11:17.084Z</time></trkpt><trkpt lat="40.9538967" lon="14.8000883"><ele>424.5</ele><time>2026-04-09T15:11:18.084Z</time></trkpt><trkpt lat="40.9537717" lon="14.80009"><ele>421.75</ele><time>2026-04-09T15:11:19.084Z</time></trkpt><trkpt lat="40.9536533" lon="14.8000867"><ele>419.0</ele><time>2026-04-09T15:11:20.084Z</time></trkpt><trkpt lat="40.9535433" lon="14.8000917"><ele>419.0</ele><time>2026-04-09T15:11:21.084Z</time></trkpt><trkpt lat="40.9534217" lon="14.800105"><ele>419.0</ele><time>2026-04-09T15:11:22.084Z</time></trkpt><trkpt lat="40.9532933" lon="14.800135"><ele>419.0</ele><time>2026-04-09T15:11:23.084Z</time></trkpt><trkpt lat="40.9531767" lon="14.8001733"><ele>419.0</ele><time>2026-04-09T15:11:24.084Z</time></trkpt><trkpt lat="40.9530667" lon="14.8002183"><ele>416.2</ele><time>2026-04-09T15:11:25.084Z</time></trkpt><trkpt lat="40.9529617" lon="14.8002617"><ele>413.4</ele><time>2026-04-09T15:11:26.084Z</time></trkpt><trkpt lat="40.9528583" lon="14.8002933"><ele>410.6</ele><time>2026-04-09T15:11:27.084Z</time></trkpt><trkpt lat="40.9527533" lon="14.80032"><ele>407.8</ele><time>2026-04-09T15:11:28.084Z</time></trkpt><trkpt lat="40.95264" lon="14.80034"><ele>405.0</ele><time>2026-04-09T15:11:29.084Z</time></trkpt><trkpt lat="40.952515" lon="14.8003567"><ele>403.8</ele><time>2026-04-09T15:11:30.084Z</time></trkpt><trkpt lat="40.952405" lon="14.8003617"><ele>402.6</ele><time>2026-04-09T15:11:31.084Z</time></trkpt><trkpt lat="40.9523017" lon="14.800365"><ele>401.4</ele><time>2026-04-09T15:11:32.084Z</time></trkpt><trkpt lat="40.9521983" lon="14.8003817"><ele>400.2</ele><time>2026-04-09T15:11:33.084Z</time></trkpt><trkpt lat="40.9521" lon="14.800405"><ele>399.0</ele><time>2026-04-09T15:11:34.084Z</time></trkpt><trkpt lat="40.95201" lon="14.8004183"><ele>399.0</ele><time>2026-04-09T15:11:35.084Z</time></trkpt><trkpt lat="40.9519117" lon="14.80041"><ele>399.0</ele><time>2026-04-09T15:11:36.084Z</time></trkpt><trkpt lat="40.9518267" lon="14.8003867"><ele>399.0</ele><time>2026-04-09T15:11:37.084Z</time></trkpt><trkpt lat="40.95174" lon="14.8003517"><ele>399.0</ele><time>2026-04-09T15:11:38.084Z</time></trkpt><trkpt lat="40.9516617" lon="14.8002867"><ele>399.0</ele><time>2026-04-09T15:11:39.084Z</time></trkpt><trkpt lat="40.9515783" lon="14.8002183"><ele>397.0</ele><time>2026-04-09T15:11:40.084Z</time></trkpt><trkpt lat="40.951505" lon="14.8001267"><ele>395.0</ele><time>2026-04-09T15:11:41.084Z</time></trkpt><trkpt lat="40.95143" lon="14.80003"><ele>393.0</ele><time>2026-04-09T15:11:42.084Z</time></trkpt><trkpt lat="40.9513517" lon="14.79995"><ele>391.0</ele><time>2026-04-09T15:11:43.084Z</time></trkpt><trkpt lat="40.9512683" lon="14.7998833"><ele>389.0</ele><time>2026-04-09T15:11:44.084Z</time></trkpt><trkpt lat="40.9511717" lon="14.7998483"><ele>389.0</ele><time>2026-04-09T15:11:45.084Z</time></trkpt><trkpt lat="40.951075" lon="14.799835"><ele>389.0</ele><time>2026-04-09T15:11:46.084Z</time></trkpt><trkpt lat="40.9509633" lon="14.7998367"><ele>389.0</ele><time>2026-04-09T15:11:47.084Z</time></trkpt><trkpt lat="40.9508517" lon="14.7998433"><ele>389.0</ele><time>2026-04-09T15:11:48.084Z</time></trkpt><trkpt lat="40.9507517" lon="14.79985"><ele>389.0</ele><time>2026-04-09T15:11:49.084Z</time></trkpt><trkpt lat="40.950655" lon="14.7998617"><ele>387.79999999999995</ele><time>2026-04-09T15:11:50.084Z</time></trkpt><trkpt lat="40.950555" lon="14.7998767"><ele>386.59999999999997</ele><time>2026-04-09T15:11:51.084Z</time></trkpt><trkpt lat="40.9504533" lon="14.7998883"><ele>385.4</ele><time>2026-04-09T15:11:52.084Z</time></trkpt><trkpt lat="40.95035" lon="14.7998883"><ele>384.2</ele><time>2026-04-09T15:11:53.084Z</time></trkpt><trkpt lat="40.9502467" lon="14.79989"><ele>383.0</ele><time>2026-04-09T15:11:54.084Z</time></trkpt><trkpt lat="40.95015" lon="14.7998967"><ele>383.0</ele><time>2026-04-09T15:11:55.084Z</time></trkpt><trkpt lat="40.9500483" lon="14.7999083"><ele>383.0</ele><time>2026-04-09T15:11:56.084Z</time></trkpt><trkpt lat="40.949945" lon="14.79992"><ele>383.0</ele><time>2026-04-09T15:11:57.084Z</time></trkpt><trkpt lat="40.949835" lon="14.7999433"><ele>383.0</ele><time>2026-04-09T15:11:58.084Z</time></trkpt><trkpt lat="40.9497233" lon="14.799965"><ele>383.0</ele><time>2026-04-09T15:11:59.084Z</time></trkpt><trkpt lat="40.949615" lon="14.7999933"><ele>381.2</ele><time>2026-04-09T15:12:00.084Z</time></trkpt><trkpt lat="40.94952" lon="14.8000383"><ele>379.4</ele><time>2026-04-09T15:12:01.084Z</time></trkpt><trkpt lat="40.9494283" lon="14.8001"><ele>377.59999999999997</ele><time>2026-04-09T15:12:02.084Z</time></trkpt><trkpt lat="40.9493517" lon="14.8001683"><ele>375.79999999999995</ele><time>2026-04-09T15:12:03.084Z</time></trkpt><trkpt lat="40.949285" lon="14.80026"><ele>374.0</ele><time>2026-04-09T15:12:04.084Z</time></trkpt><trkpt lat="40.949215" lon="14.8003483"><ele>373.2</ele><time>2026-04-09T15:12:05.084Z</time></trkpt><trkpt lat="40.9491433" lon="14.8004417"><ele>372.4</ele><time>2026-04-09T15:12:06.084Z</time></trkpt><trkpt lat="40.9490633" lon="14.80053"><ele>371.6</ele><time>2026-04-09T15:12:07.084Z</time></trkpt><trkpt lat="40.948975" lon="14.800595"><ele>370.8</ele><time>2026-04-09T15:12:08.084Z</time></trkpt><trkpt lat="40.948895" lon="14.8006567"><ele>370.0</ele><time>2026-04-09T15:12:09.084Z</time></trkpt><trkpt lat="40.94882" lon="14.8007167"><ele>370.0</ele><time>2026-04-09T15:12:10.084Z</time></trkpt><trkpt lat="40.9487433" lon="14.8007817"><ele>370.0</ele><time>2026-04-09T15:12:11.084Z</time></trkpt><trkpt lat="40.9486733" lon="14.80084"><ele>370.0</ele><time>2026-04-09T15:12:12.084Z</time></trkpt><trkpt lat="40.948605" lon="14.8009017"><ele>370.0</ele><time>2026-04-09T15:12:13.084Z</time></trkpt><trkpt lat="40.9485433" lon="14.8009683"><ele>370.0</ele><time>2026-04-09T15:12:14.084Z</time></trkpt><trkpt lat="40.9484783" lon="14.801035"><ele>370.0</ele><time>2026-04-09T15:12:15.084Z</time></trkpt><trkpt lat="40.9484167" lon="14.801115"><ele>368.16666666666663</ele><time>2026-04-09T15:12:16.084Z</time></trkpt><trkpt lat="40.9483617" lon="14.8011867"><ele>366.3333333333333</ele><time>2026-04-09T15:12:17.084Z</time></trkpt><trkpt lat="40.9483017" lon="14.8012683"><ele>364.5</ele><time>2026-04-09T15:12:18.084Z</time></trkpt><trkpt lat="40.9482483" lon="14.80135"><ele>362.6666666666667</ele><time>2026-04-09T15:12:19.084Z</time></trkpt><trkpt lat="40.9482017" lon="14.8014333"><ele>360.83333333333337</ele><time>2026-04-09T15:12:20.084Z</time></trkpt><trkpt lat="40.948155" lon="14.8015167"><ele>359.0</ele><time>2026-04-09T15:12:21.084Z</time></trkpt><trkpt lat="40.9481033" lon="14.8015983"><ele>359.0</ele><time>2026-04-09T15:12:22.084Z</time></trkpt><trkpt lat="40.9480567" lon="14.801675"><ele>359.0</ele><time>2026-04-09T15:12:23.084Z</time></trkpt><trkpt lat="40.9480133" lon="14.8017617"><ele>359.0</ele><time>2026-04-09T15:12:24.084Z</time></trkpt><trkpt lat="40.9479683" lon="14.801845"><ele>359.0</ele><time>2026-04-09T15:12:25.084Z</time></trkpt><trkpt lat="40.94794" lon="14.8019417"><ele>359.0</ele><time>2026-04-09T15:12:26.084Z</time></trkpt><trkpt lat="40.9478917" lon="14.8020133"><ele>359.0</ele><time>2026-04-09T15:12:27.084Z</time></trkpt><trkpt lat="40.9478483" lon="14.80208"><ele>359.0</ele><time>2026-04-09T15:12:28.084Z</time></trkpt><trkpt lat="40.9477683" lon="14.80218"><ele>358.0</ele><time>2026-04-09T15:12:30.084Z</time></trkpt><trkpt lat="40.9476967" lon="14.8022667"><ele>357.0</ele><time>2026-04-09T15:12:33.084Z</time></trkpt><trkpt lat="40.94761" lon="14.8023867"><ele>356.0</ele><time>2026-04-09T15:12:35.084Z</time></trkpt><trkpt lat="40.9475517" lon="14.80246"><ele>355.0</ele><time>2026-04-09T15:12:36.084Z</time></trkpt><trkpt lat="40.9474983" lon="14.802545"><ele>354.0</ele><time>2026-04-09T15:12:37.084Z</time></trkpt><trkpt lat="40.947445" lon="14.80263"><ele>352.4</ele><time>2026-04-09T15:12:38.084Z</time></trkpt><trkpt lat="40.9473717" lon="14.8027117"><ele>350.79999999999995</ele><time>2026-04-09T15:12:39.084Z</time></trkpt><trkpt lat="40.9473" lon="14.8027933"><ele>349.20000000000005</ele><time>2026-04-09T15:12:40.084Z</time></trkpt><trkpt lat="40.9472283" lon="14.8028667"><ele>347.6</ele><time>2026-04-09T15:12:41.084Z</time></trkpt><trkpt lat="40.9471383" lon="14.80294"><ele>346.0</ele><time>2026-04-09T15:12:42.084Z</time></trkpt><trkpt lat="40.947035" lon="14.803015"><ele>346.0</ele><time>2026-04-09T15:12:43.084Z</time></trkpt><trkpt lat="40.9469367" lon="14.803085"><ele>346.0</ele><time>2026-04-09T15:12:44.084Z</time></trkpt><trkpt lat="40.94684" lon="14.8031633"><ele>346.0</ele><time>2026-04-09T15:12:45.084Z</time></trkpt><trkpt lat="40.9467333" lon="14.8032417"><ele>346.0</ele><time>2026-04-09T15:12:46.084Z</time></trkpt><trkpt lat="40.9466383" lon="14.803325"><ele>346.20000000000005</ele><time>2026-04-09T15:12:47.084Z</time></trkpt><trkpt lat="40.94654" lon="14.8034033"><ele>346.40000000000003</ele><time>2026-04-09T15:12:48.084Z</time></trkpt><trkpt lat="40.9464433" lon="14.8034683"><ele>346.6</ele><time>2026-04-09T15:12:49.084Z</time></trkpt><trkpt lat="40.9463467" lon="14.8035317"><ele>346.8</ele><time>2026-04-09T15:12:50.084Z</time></trkpt><trkpt lat="40.9462583" lon="14.8035967"><ele>347.0</ele><time>2026-04-09T15:12:51.084Z</time></trkpt><trkpt lat="40.94618" lon="14.8036683"><ele>345.0</ele><time>2026-04-09T15:12:52.084Z</time></trkpt><trkpt lat="40.94611" lon="14.8037533"><ele>343.0</ele><time>2026-04-09T15:12:53.084Z</time></trkpt><trkpt lat="40.94604" lon="14.8038483"><ele>341.0</ele><time>2026-04-09T15:12:54.084Z</time></trkpt><trkpt lat="40.9459683" lon="14.803955"><ele>339.0</ele><time>2026-04-09T15:12:55.084Z</time></trkpt><trkpt lat="40.9459017" lon="14.8040667"><ele>337.0</ele><time>2026-04-09T15:12:56.084Z</time></trkpt><trkpt lat="40.9458333" lon="14.8041783"><ele>336.6</ele><time>2026-04-09T15:12:57.084Z</time></trkpt><trkpt lat="40.9457683" lon="14.80429"><ele>336.20000000000005</ele><time>2026-04-09T15:12:58.084Z</time></trkpt><trkpt lat="40.9457017" lon="14.8044117"><ele>335.8</ele><time>2026-04-09T15:12:59.084Z</time></trkpt><trkpt lat="40.9456433" lon="14.8045283"><ele>335.4</ele><time>2026-04-09T15:13:00.084Z</time></trkpt><trkpt lat="40.9455767" lon="14.8046467"><ele>335.0</ele><time>2026-04-09T15:13:01.084Z</time></trkpt><trkpt lat="40.94551" lon="14.8047633"><ele>333.6</ele><time>2026-04-09T15:13:02.084Z</time></trkpt><trkpt lat="40.9454517" lon="14.8048667"><ele>332.2</ele><time>2026-04-09T15:13:03.084Z</time></trkpt><trkpt lat="40.9453783" lon="14.8049533"><ele>330.79999999999995</ele><time>2026-04-09T15:13:04.084Z</time></trkpt><trkpt lat="40.9452983" lon="14.8050133"><ele>329.4</ele><time>2026-04-09T15:13:05.084Z</time></trkpt><trkpt lat="40.9452017" lon="14.8050433"><ele>328.0</ele><time>2026-04-09T15:13:06.084Z</time></trkpt><trkpt lat="40.9450817" lon="14.80506"><ele>328.0</ele><time>2026-04-09T15:13:07.084Z</time></trkpt><trkpt lat="40.94496" lon="14.805055"><ele>328.0</ele><time>2026-04-09T15:13:08.084Z</time></trkpt><trkpt lat="40.9448417" lon="14.805045"><ele>328.0</ele><time>2026-04-09T15:13:09.084Z</time></trkpt><trkpt lat="40.9447333" lon="14.8050283"><ele>328.0</ele><time>2026-04-09T15:13:10.084Z</time></trkpt><trkpt lat="40.94463" lon="14.80502"><ele>328.0</ele><time>2026-04-09T15:13:11.084Z</time></trkpt><trkpt lat="40.9445333" lon="14.80503"><ele>328.0</ele><time>2026-04-09T15:13:12.084Z</time></trkpt><trkpt lat="40.9444367" lon="14.805065"><ele>328.0</ele><time>2026-04-09T15:13:13.084Z</time></trkpt><trkpt lat="40.9443533" lon="14.8051133"><ele>328.0</ele><time>2026-04-09T15:13:14.084Z</time></trkpt><trkpt lat="40.94428" lon="14.8051983"><ele>328.0</ele><time>2026-04-09T15:13:15.084Z</time></trkpt><trkpt lat="40.9442467" lon="14.8053167"><ele>327.5</ele><time>2026-04-09T15:13:16.084Z</time></trkpt><trkpt lat="40.9442133" lon="14.805455"><ele>327.0</ele><time>2026-04-09T15:13:17.084Z</time></trkpt><trkpt lat="40.9441833" lon="14.8056083"><ele>326.5</ele><time>2026-04-09T15:13:18.084Z</time></trkpt><trkpt lat="40.944145" lon="14.8057517"><ele>326.0</ele><time>2026-04-09T15:13:19.084Z</time></trkpt><trkpt lat="40.9441183" lon="14.8058967"><ele>325.0</ele><time>2026-04-09T15:13:20.084Z</time></trkpt><trkpt lat="40.9440917" lon="14.80603"><ele>324.0</ele><time>2026-04-09T15:13:21.084Z</time></trkpt><trkpt lat="40.94406" lon="14.806165"><ele>323.0</ele><time>2026-04-09T15:13:22.084Z</time></trkpt><trkpt lat="40.9440333" lon="14.8062867"><ele>322.0</ele><time>2026-04-09T15:13:23.084Z</time></trkpt><trkpt lat="40.943995" lon="14.8063933"><ele>321.0</ele><time>2026-04-09T15:13:24.084Z</time></trkpt><trkpt lat="40.94392" lon="14.8064817"><ele>321.0</ele><time>2026-04-09T15:13:25.084Z</time></trkpt><trkpt lat="40.9438333" lon="14.8065567"><ele>321.0</ele><time>2026-04-09T15:13:26.084Z</time></trkpt><trkpt lat="40.9437317" lon="14.8066183"><ele>321.0</ele><time>2026-04-09T15:13:27.084Z</time></trkpt><trkpt lat="40.9436183" lon="14.8066633"><ele>321.0</ele><time>2026-04-09T15:13:28.084Z</time></trkpt><trkpt lat="40.9435133" lon="14.8066867"><ele>321.0</ele><time>2026-04-09T15:13:29.084Z</time></trkpt><trkpt lat="40.943405" lon="14.8067017"><ele>320.0</ele><time>2026-04-09T15:13:30.084Z</time></trkpt><trkpt lat="40.9433" lon="14.8067017"><ele>319.0</ele><time>2026-04-09T15:13:31.084Z</time></trkpt><trkpt lat="40.9431917" lon="14.80671"><ele>318.0</ele><time>2026-04-09T15:13:32.084Z</time></trkpt><trkpt lat="40.9430783" lon="14.8067167"><ele>317.0</ele><time>2026-04-09T15:13:33.084Z</time></trkpt><trkpt lat="40.9429667" lon="14.80672"><ele>316.0</ele><time>2026-04-09T15:13:34.084Z</time></trkpt><trkpt lat="40.9428517" lon="14.8067233"><ele>316.0</ele><time>2026-04-09T15:13:35.084Z</time></trkpt><trkpt lat="40.9427367" lon="14.806745"><ele>316.0</ele><time>2026-04-09T15:13:36.084Z</time></trkpt><trkpt lat="40.9426283" lon="14.8067917"><ele>316.0</ele><time>2026-04-09T15:13:37.084Z</time></trkpt><trkpt lat="40.942525" lon="14.80685"><ele>316.0</ele><time>2026-04-09T15:13:38.084Z</time></trkpt><trkpt lat="40.9424283" lon="14.8069317"><ele>315.8</ele><time>2026-04-09T15:13:39.084Z</time></trkpt><trkpt lat="40.9423367" lon="14.8070217"><ele>315.6</ele><time>2026-04-09T15:13:40.084Z</time></trkpt><trkpt lat="40.9422533" lon="14.8071167"><ele>315.4</ele><time>2026-04-09T15:13:41.084Z</time></trkpt><trkpt lat="40.942185" lon="14.8072133"><ele>315.2</ele><time>2026-04-09T15:13:42.084Z</time></trkpt><trkpt lat="40.942125" lon="14.807325"><ele>315.0</ele><time>2026-04-09T15:13:43.084Z</time></trkpt><trkpt lat="40.9420717" lon="14.8074517"><ele>315.0</ele><time>2026-04-09T15:13:44.084Z</time></trkpt><trkpt lat="40.94202" lon="14.80759"><ele>315.0</ele><time>2026-04-09T15:13:45.084Z</time></trkpt><trkpt lat="40.9419817" lon="14.807745"><ele>315.0</ele><time>2026-04-09T15:13:46.084Z</time></trkpt><trkpt lat="40.941945" lon="14.8079117"><ele>315.0</ele><time>2026-04-09T15:13:47.084Z</time></trkpt><trkpt lat="40.941915" lon="14.8080817"><ele>314.75</ele><time>2026-04-09T15:13:48.084Z</time></trkpt><trkpt lat="40.941885" lon="14.8082417"><ele>314.5</ele><time>2026-04-09T15:13:49.084Z</time></trkpt><trkpt lat="40.941855" lon="14.8083967"><ele>314.25</ele><time>2026-04-09T15:13:50.084Z</time></trkpt><trkpt lat="40.9418083" lon="14.8085517"><ele>314.0</ele><time>2026-04-09T15:13:51.084Z</time></trkpt><trkpt lat="40.9417633" lon="14.80871"><ele>312.25</ele><time>2026-04-09T15:13:52.084Z</time></trkpt><trkpt lat="40.9417117" lon="14.80886"><ele>310.5</ele><time>2026-04-09T15:13:53.084Z</time></trkpt><trkpt lat="40.9416617" lon="14.8090117"><ele>308.75</ele><time>2026-04-09T15:13:54.084Z</time></trkpt><trkpt lat="40.9416133" lon="14.809165"><ele>307.0</ele><time>2026-04-09T15:13:55.084Z</time></trkpt><trkpt lat="40.9415567" lon="14.8093167"><ele>306.6</ele><time>2026-04-09T15:13:56.084Z</time></trkpt><trkpt lat="40.9414983" lon="14.8094633"><ele>306.2</ele><time>2026-04-09T15:13:57.084Z</time></trkpt><trkpt lat="40.94145" lon="14.8095883"><ele>305.8</ele><time>2026-04-09T15:13:58.084Z</time></trkpt><trkpt lat="40.941395" lon="14.8096983"><ele>305.4</ele><time>2026-04-09T15:13:59.084Z</time></trkpt><trkpt lat="40.941315" lon="14.80978"><ele>305.0</ele><time>2026-04-09T15:14:00.084Z</time></trkpt><trkpt lat="40.941225" lon="14.8098217"><ele>305.0</ele><time>2026-04-09T15:14:01.084Z</time></trkpt><trkpt lat="40.941125" lon="14.80985"><ele>305.0</ele><time>2026-04-09T15:14:02.084Z</time></trkpt><trkpt lat="40.9410183" lon="14.809875"><ele>305.0</ele><time>2026-04-09T15:14:03.084Z</time></trkpt><trkpt lat="40.9409067" lon="14.80991"><ele>305.0</ele><time>2026-04-09T15:14:04.084Z</time></trkpt><trkpt lat="40.9408017" lon="14.80997"><ele>305.0</ele><time>2026-04-09T15:14:05.084Z</time></trkpt><trkpt lat="40.9406917" lon="14.810065"><ele>305.5</ele><time>2026-04-09T15:14:06.084Z</time></trkpt><trkpt lat="40.940585" lon="14.8101633"><ele>306.0</ele><time>2026-04-09T15:14:07.084Z</time></trkpt><trkpt lat="40.9404817" lon="14.8102617"><ele>306.5</ele><time>2026-04-09T15:14:08.084Z</time></trkpt><trkpt lat="40.9403783" lon="14.8103583"><ele>307.0</ele><time>2026-04-09T15:14:09.084Z</time></trkpt><trkpt lat="40.94028" lon="14.8104517"><ele>307.0</ele><time>2026-04-09T15:14:10.084Z</time></trkpt><trkpt lat="40.9401717" lon="14.8105433"><ele>307.0</ele><time>2026-04-09T15:14:11.084Z</time></trkpt><trkpt lat="40.9400583" lon="14.8106267"><ele>307.0</ele><time>2026-04-09T15:14:12.084Z</time></trkpt><trkpt lat="40.93996" lon="14.8107117"><ele>307.0</ele><time>2026-04-09T15:14:13.084Z</time></trkpt><trkpt lat="40.93987" lon="14.8107833"><ele>307.8</ele><time>2026-04-09T15:14:14.084Z</time></trkpt><trkpt lat="40.93979" lon="14.8108667"><ele>308.6</ele><time>2026-04-09T15:14:15.084Z</time></trkpt><trkpt lat="40.9397217" lon="14.8109683"><ele>309.40000000000003</ele><time>2026-04-09T15:14:16.084Z</time></trkpt><trkpt lat="40.9396733" lon="14.8110933"><ele>310.2</ele><time>2026-04-09T15:14:17.084Z</time></trkpt><trkpt lat="40.9396367" lon="14.8112333"><ele>311.0</ele><time>2026-04-09T15:14:18.084Z</time></trkpt><trkpt lat="40.9395917" lon="14.811385"><ele>311.0</ele><time>2026-04-09T15:14:19.084Z</time></trkpt><trkpt lat="40.9395483" lon="14.8115583"><ele>311.0</ele><time>2026-04-09T15:14:20.084Z</time></trkpt><trkpt lat="40.9394883" lon="14.8117133"><ele>311.0</ele><time>2026-04-09T15:14:21.084Z</time></trkpt><trkpt lat="40.9394317" lon="14.8118767"><ele>311.0</ele><time>2026-04-09T15:14:22.084Z</time></trkpt><trkpt lat="40.93937" lon="14.8120433"><ele>310.5</ele><time>2026-04-09T15:14:23.084Z</time></trkpt><trkpt lat="40.9393183" lon="14.8122067"><ele>310.0</ele><time>2026-04-09T15:14:24.084Z</time></trkpt><trkpt lat="40.9392767" lon="14.81237"><ele>309.5</ele><time>2026-04-09T15:14:25.084Z</time></trkpt><trkpt lat="40.9392417" lon="14.81253"><ele>309.0</ele><time>2026-04-09T15:14:26.084Z</time></trkpt><trkpt lat="40.9391967" lon="14.81269"><ele>310.5</ele><time>2026-04-09T15:14:27.084Z</time></trkpt><trkpt lat="40.9391433" lon="14.8128517"><ele>312.0</ele><time>2026-04-09T15:14:28.084Z</time></trkpt><trkpt lat="40.9390967" lon="14.8130033"><ele>313.5</ele><time>2026-04-09T15:14:29.084Z</time></trkpt><trkpt lat="40.9390533" lon="14.8131517"><ele>315.0</ele><time>2026-04-09T15:14:30.084Z</time></trkpt><trkpt lat="40.9390167" lon="14.8133083"><ele>315.0</ele><time>2026-04-09T15:14:31.084Z</time></trkpt><trkpt lat="40.9389883" lon="14.813465"><ele>315.0</ele><time>2026-04-09T15:14:32.084Z</time></trkpt><trkpt lat="40.9389533" lon="14.8136017"><ele>315.0</ele><time>2026-04-09T15:14:33.084Z</time></trkpt><trkpt lat="40.9388967" lon="14.8137283"><ele>315.0</ele><time>2026-04-09T15:14:34.084Z</time></trkpt><trkpt lat="40.9388267" lon="14.8138283"><ele>315.0</ele><time>2026-04-09T15:14:35.084Z</time></trkpt><trkpt lat="40.938755" lon="14.81391"><ele>314.8333333333333</ele><time>2026-04-09T15:14:36.084Z</time></trkpt><trkpt lat="40.9386833" lon="14.8139667"><ele>314.6666666666667</ele><time>2026-04-09T15:14:37.084Z</time></trkpt><trkpt lat="40.9386117" lon="14.8140117"><ele>314.5</ele><time>2026-04-09T15:14:38.084Z</time></trkpt><trkpt lat="40.93854" lon="14.8140483"><ele>314.33333333333337</ele><time>2026-04-09T15:14:39.084Z</time></trkpt><trkpt lat="40.9384767" lon="14.8140967"><ele>314.1666666666667</ele><time>2026-04-09T15:14:40.084Z</time></trkpt><trkpt lat="40.9384067" lon="14.8141717"><ele>314.0</ele><time>2026-04-09T15:14:41.084Z</time></trkpt><trkpt lat="40.938345" lon="14.8142517"><ele>314.6666666666667</ele><time>2026-04-09T15:14:42.084Z</time></trkpt><trkpt lat="40.9382883" lon="14.81433"><ele>315.33333333333337</ele><time>2026-04-09T15:14:43.084Z</time></trkpt><trkpt lat="40.9382267" lon="14.8144017"><ele>316.0</ele><time>2026-04-09T15:14:44.084Z</time></trkpt><trkpt lat="40.9381667" lon="14.8144633"><ele>316.6666666666667</ele><time>2026-04-09T15:14:45.084Z</time></trkpt><trkpt lat="40.9380933" lon="14.8145217"><ele>317.3333333333333</ele><time>2026-04-09T15:14:46.084Z</time></trkpt><trkpt lat="40.9380333" lon="14.8145967"><ele>318.0</ele><time>2026-04-09T15:14:47.084Z</time></trkpt><trkpt lat="40.9379567" lon="14.8146867"><ele>318.0</ele><time>2026-04-09T15:14:48.084Z</time></trkpt><trkpt lat="40.9378767" lon="14.814765"><ele>318.0</ele><time>2026-04-09T15:14:49.084Z</time></trkpt><trkpt lat="40.937795" lon="14.8148367"><ele>318.0</ele><time>2026-04-09T15:14:50.084Z</time></trkpt><trkpt lat="40.937705" lon="14.8149067"><ele>318.0</ele><time>2026-04-09T15:14:51.084Z</time></trkpt><trkpt lat="40.937615" lon="14.8149733"><ele>318.0</ele><time>2026-04-09T15:14:52.084Z</time></trkpt><trkpt lat="40.937525" lon="14.8150333"><ele>317.4</ele><time>2026-04-09T15:14:53.084Z</time></trkpt><trkpt lat="40.9374283" lon="14.81509"><ele>316.8</ele><time>2026-04-09T15:14:54.084Z</time></trkpt><trkpt lat="40.9373233" lon="14.815145"><ele>316.2</ele><time>2026-04-09T15:14:55.084Z</time></trkpt><trkpt lat="40.9372183" lon="14.8151833"><ele>315.6</ele><time>2026-04-09T15:14:56.084Z</time></trkpt><trkpt lat="40.9371217" lon="14.8152383"><ele>315.0</ele><time>2026-04-09T15:14:57.084Z</time></trkpt><trkpt lat="40.93702" lon="14.8152917"><ele>315.0</ele><time>2026-04-09T15:14:58.084Z</time></trkpt><trkpt lat="40.93692" lon="14.8153467"><ele>315.0</ele><time>2026-04-09T15:14:59.084Z</time></trkpt><trkpt lat="40.9368267" lon="14.8154017"><ele>315.0</ele><time>2026-04-09T15:15:00.084Z</time></trkpt><trkpt lat="40.93673" lon="14.8154567"><ele>315.0</ele><time>2026-04-09T15:15:01.084Z</time></trkpt><trkpt lat="40.9366317" lon="14.8155083"><ele>315.0</ele><time>2026-04-09T15:15:02.084Z</time></trkpt><trkpt lat="40.93654" lon="14.81556"><ele>313.1666666666667</ele><time>2026-04-09T15:15:03.084Z</time></trkpt><trkpt lat="40.9364417" lon="14.8156117"><ele>311.3333333333333</ele><time>2026-04-09T15:15:04.084Z</time></trkpt><trkpt lat="40.93636" lon="14.8156567"><ele>309.5</ele><time>2026-04-09T15:15:05.084Z</time></trkpt><trkpt lat="40.9362883" lon="14.81569"><ele>307.66666666666663</ele><time>2026-04-09T15:15:06.084Z</time></trkpt><trkpt lat="40.9362267" lon="14.8157233"><ele>305.8333333333333</ele><time>2026-04-09T15:15:07.084Z</time></trkpt><trkpt lat="40.9361383" lon="14.8158067"><ele>304.0</ele><time>2026-04-09T15:15:09.084Z</time></trkpt><trkpt lat="40.9361517" lon="14.8159383"><ele>303.59999999999997</ele><time>2026-04-09T15:15:11.084Z</time></trkpt><trkpt lat="40.9361833" lon="14.816015"><ele>303.2</ele><time>2026-04-09T15:15:12.084Z</time></trkpt><trkpt lat="40.93623" lon="14.8161"><ele>302.79999999999995</ele><time>2026-04-09T15:15:13.084Z</time></trkpt><trkpt lat="40.9362817" lon="14.8162083"><ele>302.4</ele><time>2026-04-09T15:15:14.084Z</time></trkpt><trkpt lat="40.936335" lon="14.8163333"><ele>302.0</ele><time>2026-04-09T15:15:15.084Z</time></trkpt><trkpt lat="40.936395" lon="14.8164667"><ele>302.0</ele><time>2026-04-09T15:15:16.084Z</time></trkpt><trkpt lat="40.9364567" lon="14.8166"><ele>302.0</ele><time>2026-04-09T15:15:17.084Z</time></trkpt><trkpt lat="40.9365167" lon="14.81674"><ele>302.0</ele><time>2026-04-09T15:15:18.084Z</time></trkpt><trkpt lat="40.93657" lon="14.8168767"><ele>302.0</ele><time>2026-04-09T15:15:19.084Z</time></trkpt><trkpt lat="40.9366367" lon="14.8170133"><ele>301.75</ele><time>2026-04-09T15:15:20.084Z</time></trkpt><trkpt lat="40.9366983" lon="14.8171533"><ele>301.5</ele><time>2026-04-09T15:15:21.084Z</time></trkpt><trkpt lat="40.93676" lon="14.8173"><ele>301.25</ele><time>2026-04-09T15:15:22.084Z</time></trkpt><trkpt lat="40.9368317" lon="14.81745"><ele>301.0</ele><time>2026-04-09T15:15:23.084Z</time></trkpt><trkpt lat="40.9369017" lon="14.8176017"><ele>301.75</ele><time>2026-04-09T15:15:24.084Z</time></trkpt><trkpt lat="40.9369683" lon="14.8177533"><ele>302.5</ele><time>2026-04-09T15:15:25.084Z</time></trkpt><trkpt lat="40.9370467" lon="14.8179117"><ele>303.25</ele><time>2026-04-09T15:15:26.084Z</time></trkpt><trkpt lat="40.93712" lon="14.81808"><ele>304.0</ele><time>2026-04-09T15:15:27.084Z</time></trkpt><trkpt lat="40.9371967" lon="14.81824"><ele>304.0</ele><time>2026-04-09T15:15:28.084Z</time></trkpt><trkpt lat="40.9372617" lon="14.81839"><ele>304.0</ele><time>2026-04-09T15:15:29.084Z</time></trkpt><trkpt lat="40.9373283" lon="14.8185317"><ele>304.0</ele><time>2026-04-09T15:15:30.084Z</time></trkpt><trkpt lat="40.937395" lon="14.8186717"><ele>304.0</ele><time>2026-04-09T15:15:31.084Z</time></trkpt><trkpt lat="40.93747" lon="14.8188083"><ele>303.75</ele><time>2026-04-09T15:15:32.084Z</time></trkpt><trkpt lat="40.93755" lon="14.818945"><ele>303.5</ele><time>2026-04-09T15:15:33.084Z</time></trkpt><trkpt lat="40.9376383" lon="14.8190833"><ele>303.25</ele><time>2026-04-09T15:15:34.084Z</time></trkpt><trkpt lat="40.9377333" lon="14.8192117"><ele>303.0</ele><time>2026-04-09T15:15:35.084Z</time></trkpt><trkpt lat="40.937835" lon="14.819335"><ele>302.5</ele><time>2026-04-09T15:15:36.084Z</time></trkpt><trkpt lat="40.9379383" lon="14.8194417"><ele>302.0</ele><time>2026-04-09T15:15:37.084Z</time></trkpt><trkpt lat="40.938045" lon="14.8195483"><ele>301.5</ele><time>2026-04-09T15:15:38.084Z</time></trkpt><trkpt lat="40.9381467" lon="14.81965"><ele>301.0</ele><time>2026-04-09T15:15:39.084Z</time></trkpt><trkpt lat="40.93823" lon="14.8197517"><ele>301.0</ele><time>2026-04-09T15:15:40.084Z</time></trkpt><trkpt lat="40.9383083" lon="14.8198483"><ele>301.0</ele><time>2026-04-09T15:15:41.084Z</time></trkpt><trkpt lat="40.9383783" lon="14.8199617"><ele>301.0</ele><time>2026-04-09T15:15:42.084Z</time></trkpt><trkpt lat="40.93844" lon="14.8200767"><ele>301.0</ele><time>2026-04-09T15:15:43.084Z</time></trkpt><trkpt lat="40.9384817" lon="14.8202017"><ele>301.0</ele><time>2026-04-09T15:15:44.084Z</time></trkpt><trkpt lat="40.938515" lon="14.8203167"><ele>300.8333333333333</ele><time>2026-04-09T15:15:45.084Z</time></trkpt><trkpt lat="40.9385467" lon="14.8204217"><ele>300.66666666666663</ele><time>2026-04-09T15:15:46.084Z</time></trkpt><trkpt lat="40.9385667" lon="14.82051"><ele>300.5</ele><time>2026-04-09T15:15:47.084Z</time></trkpt><trkpt lat="40.93858" lon="14.8206"><ele>300.3333333333333</ele><time>2026-04-09T15:15:49.084Z</time></trkpt><trkpt lat="40.9385667" lon="14.8207133"><ele>300.1666666666667</ele><time>2026-04-09T15:15:54.084Z</time></trkpt><trkpt lat="40.9385733" lon="14.8208567"><ele>300.0</ele><time>2026-04-09T15:15:56.084Z</time></trkpt><trkpt lat="40.9385867" lon="14.82095"><ele>299.4</ele><time>2026-04-09T15:15:57.084Z</time></trkpt><trkpt lat="40.9385967" lon="14.8210667"><ele>298.8</ele><time>2026-04-09T15:15:58.084Z</time></trkpt><trkpt lat="40.9385967" lon="14.8212033"><ele>298.2</ele><time>2026-04-09T15:15:59.084Z</time></trkpt><trkpt lat="40.9385933" lon="14.8213433"><ele>297.6</ele><time>2026-04-09T15:16:00.084Z</time></trkpt><trkpt lat="40.9385967" lon="14.821485"><ele>297.0</ele><time>2026-04-09T15:16:01.084Z</time></trkpt><trkpt lat="40.9385983" lon="14.8216367"><ele>297.0</ele><time>2026-04-09T15:16:02.084Z</time></trkpt><trkpt lat="40.9385967" lon="14.821795"><ele>297.0</ele><time>2026-04-09T15:16:03.084Z</time></trkpt><trkpt lat="40.93859" lon="14.8219433"><ele>297.0</ele><time>2026-04-09T15:16:04.084Z</time></trkpt><trkpt lat="40.938585" lon="14.822085"><ele>297.0</ele><time>2026-04-09T15:16:05.084Z</time></trkpt><trkpt lat="40.9385817" lon="14.8222283"><ele>297.0</ele><time>2026-04-09T15:16:06.084Z</time></trkpt><trkpt lat="40.9385767" lon="14.8223733"><ele>296.6</ele><time>2026-04-09T15:16:07.084Z</time></trkpt><trkpt lat="40.9385717" lon="14.8225183"><ele>296.2</ele><time>2026-04-09T15:16:08.084Z</time></trkpt><trkpt lat="40.9385817" lon="14.8226633"><ele>295.8</ele><time>2026-04-09T15:16:09.084Z</time></trkpt><trkpt lat="40.9385833" lon="14.8228083"><ele>295.4</ele><time>2026-04-09T15:16:10.084Z</time></trkpt><trkpt lat="40.9385917" lon="14.8229533"><ele>295.0</ele><time>2026-04-09T15:16:11.084Z</time></trkpt><trkpt lat="40.9385933" lon="14.8230967"><ele>294.6</ele><time>2026-04-09T15:16:12.084Z</time></trkpt><trkpt lat="40.9385933" lon="14.8232467"><ele>294.2</ele><time>2026-04-09T15:16:13.084Z</time></trkpt><trkpt lat="40.9385867" lon="14.8233833"><ele>293.8</ele><time>2026-04-09T15:16:14.084Z</time></trkpt><trkpt lat="40.9385817" lon="14.8235183"><ele>293.4</ele><time>2026-04-09T15:16:15.084Z</time></trkpt><trkpt lat="40.93858" lon="14.8236417"><ele>293.0</ele><time>2026-04-09T15:16:16.084Z</time></trkpt><trkpt lat="40.9385767" lon="14.82376"><ele>292.83333333333337</ele><time>2026-04-09T15:16:17.084Z</time></trkpt><trkpt lat="40.938565" lon="14.8238633"><ele>292.6666666666667</ele><time>2026-04-09T15:16:18.084Z</time></trkpt><trkpt lat="40.93856" lon="14.8239567"><ele>292.5</ele><time>2026-04-09T15:16:19.084Z</time></trkpt><trkpt lat="40.9385233" lon="14.82407"><ele>292.3333333333333</ele><time>2026-04-09T15:16:21.084Z</time></trkpt><trkpt lat="40.9384717" lon="14.8241383"><ele>292.16666666666663</ele><time>2026-04-09T15:16:23.084Z</time></trkpt><trkpt lat="40.9384483" lon="14.82422"><ele>292.0</ele><time>2026-04-09T15:16:25.084Z</time></trkpt><trkpt lat="40.93845" lon="14.8243983"><ele>291.8</ele><time>2026-04-09T15:17:10.084Z</time></trkpt><trkpt lat="40.9385233" lon="14.8245183"><ele>291.6</ele><time>2026-04-09T15:33:36.084Z</time></trkpt><trkpt lat="40.93855" lon="14.8246383"><ele>291.40000000000003</ele><time>2026-04-09T15:33:38.084Z</time></trkpt><trkpt lat="40.9385517" lon="14.8247883"><ele>291.2</ele><time>2026-04-09T15:33:40.084Z</time></trkpt><trkpt lat="40.93855" lon="14.824875"><ele>291.0</ele><time>2026-04-09T15:33:41.084Z</time></trkpt><trkpt lat="40.9385483" lon="14.824975"><ele>291.0</ele><time>2026-04-09T15:33:42.084Z</time></trkpt><trkpt lat="40.938545" lon="14.825085"><ele>291.0</ele><time>2026-04-09T15:33:43.084Z</time></trkpt><trkpt lat="40.9385417" lon="14.82518"><ele>291.0</ele><time>2026-04-09T15:33:44.084Z</time></trkpt><trkpt lat="40.9385417" lon="14.825275"><ele>291.0</ele><time>2026-04-09T15:33:45.084Z</time></trkpt><trkpt lat="40.9385383" lon="14.8253617"><ele>291.0</ele><time>2026-04-09T15:33:46.084Z</time></trkpt><trkpt lat="40.9385367" lon="14.8254467"><ele>291.0</ele><time>2026-04-09T15:33:47.084Z</time></trkpt><trkpt lat="40.938535" lon="14.8255317"><ele>291.0</ele><time>2026-04-09T15:33:48.084Z</time></trkpt><trkpt lat="40.9385317" lon="14.825615"><ele>290.5</ele><time>2026-04-09T15:33:49.084Z</time></trkpt><trkpt lat="40.9385183" lon="14.825745"><ele>290.0</ele><time>2026-04-09T15:33:51.084Z</time></trkpt><trkpt lat="40.93851" lon="14.8258617"><ele>289.5</ele><time>2026-04-09T15:33:54.084Z</time></trkpt><trkpt lat="40.938505" lon="14.8259817"><ele>289.0</ele><time>2026-04-09T15:33:56.084Z</time></trkpt><trkpt lat="40.93851" lon="14.8260767"><ele>288.5</ele><time>2026-04-09T15:33:57.084Z</time></trkpt><trkpt lat="40.9385067" lon="14.8261817"><ele>288.0</ele><time>2026-04-09T15:33:58.084Z</time></trkpt><trkpt lat="40.9385117" lon="14.8262933"><ele>287.4</ele><time>2026-04-09T15:33:59.084Z</time></trkpt><trkpt lat="40.938515" lon="14.826415"><ele>286.8</ele><time>2026-04-09T15:34:00.084Z</time></trkpt><trkpt lat="40.93852" lon="14.826535"><ele>286.2</ele><time>2026-04-09T15:34:01.084Z</time></trkpt><trkpt lat="40.9385183" lon="14.826655"><ele>285.6</ele><time>2026-04-09T15:34:02.084Z</time></trkpt><trkpt lat="40.9385183" lon="14.82677"><ele>285.0</ele><time>2026-04-09T15:34:03.084Z</time></trkpt><trkpt lat="40.9385217" lon="14.8269017"><ele>284.8</ele><time>2026-04-09T15:34:04.084Z</time></trkpt><trkpt lat="40.9385167" lon="14.8270433"><ele>284.6</ele><time>2026-04-09T15:34:05.084Z</time></trkpt><trkpt lat="40.9385083" lon="14.82719"><ele>284.4</ele><time>2026-04-09T15:34:06.084Z</time></trkpt><trkpt lat="40.9384967" lon="14.8273317"><ele>284.2</ele><time>2026-04-09T15:34:07.084Z</time></trkpt><trkpt lat="40.9384883" lon="14.8274767"><ele>284.0</ele><time>2026-04-09T15:34:08.084Z</time></trkpt><trkpt lat="40.9384733" lon="14.827625"><ele>283.0</ele><time>2026-04-09T15:34:09.084Z</time></trkpt><trkpt lat="40.93845" lon="14.8277783"><ele>282.0</ele><time>2026-04-09T15:34:10.084Z</time></trkpt><trkpt lat="40.93842" lon="14.8279267"><ele>281.0</ele><time>2026-04-09T15:34:11.084Z</time></trkpt><trkpt lat="40.9383883" lon="14.82808"><ele>280.0</ele><time>2026-04-09T15:34:12.084Z</time></trkpt><trkpt lat="40.938355" lon="14.8282267"><ele>280.0</ele><time>2026-04-09T15:34:13.084Z</time></trkpt><trkpt lat="40.9383133" lon="14.8283767"><ele>280.0</ele><time>2026-04-09T15:34:14.084Z</time></trkpt><trkpt lat="40.9382667" lon="14.828525"><ele>280.0</ele><time>2026-04-09T15:34:15.084Z</time></trkpt><trkpt lat="40.9382117" lon="14.8286767"><ele>280.0</ele><time>2026-04-09T15:34:16.084Z</time></trkpt><trkpt lat="40.9381467" lon="14.82883"><ele>280.0</ele><time>2026-04-09T15:34:17.084Z</time></trkpt><trkpt lat="40.9380867" lon="14.8289783"><ele>280.0</ele><time>2026-04-09T15:34:18.084Z</time></trkpt><trkpt lat="40.9380233" lon="14.829125"><ele>280.0</ele><time>2026-04-09T15:34:19.084Z</time></trkpt><trkpt lat="40.937955" lon="14.8292633"><ele>280.0</ele><time>2026-04-09T15:34:20.084Z</time></trkpt><trkpt lat="40.9378817" lon="14.8293983"><ele>280.5</ele><time>2026-04-09T15:34:21.084Z</time></trkpt><trkpt lat="40.9378017" lon="14.82952"><ele>281.0</ele><time>2026-04-09T15:34:22.084Z</time></trkpt><trkpt lat="40.93772" lon="14.8296417"><ele>281.5</ele><time>2026-04-09T15:34:23.084Z</time></trkpt><trkpt lat="40.9376333" lon="14.8297583"><ele>282.0</ele><time>2026-04-09T15:34:24.084Z</time></trkpt><trkpt lat="40.9375467" lon="14.8298717"><ele>282.5</ele><time>2026-04-09T15:34:25.084Z</time></trkpt><trkpt lat="40.9374533" lon="14.829975"><ele>283.0</ele><time>2026-04-09T15:34:26.084Z</time></trkpt><trkpt lat="40.93735" lon="14.8300683"><ele>283.5</ele><time>2026-04-09T15:34:27.084Z</time></trkpt><trkpt lat="40.9372433" lon="14.8301483"><ele>284.0</ele><time>2026-04-09T15:34:28.084Z</time></trkpt><trkpt lat="40.93714" lon="14.8302133"><ele>285.0</ele><time>2026-04-09T15:34:29.084Z</time></trkpt><trkpt lat="40.9370233" lon="14.8302667"><ele>286.0</ele><time>2026-04-09T15:34:30.084Z</time></trkpt><trkpt lat="40.936905" lon="14.8303083"><ele>287.0</ele><time>2026-04-09T15:34:31.084Z</time></trkpt><trkpt lat="40.9367833" lon="14.8303317"><ele>288.0</ele><time>2026-04-09T15:34:32.084Z</time></trkpt><trkpt lat="40.93666" lon="14.8303567"><ele>288.75</ele><time>2026-04-09T15:34:33.084Z</time></trkpt><trkpt lat="40.93653" lon="14.8303883"><ele>289.5</ele><time>2026-04-09T15:34:34.084Z</time></trkpt><trkpt lat="40.9363967" lon="14.8304167"><ele>290.25</ele><time>2026-04-09T15:34:35.084Z</time></trkpt><trkpt lat="40.9362683" lon="14.83045"><ele>291.0</ele><time>2026-04-09T15:34:36.084Z</time></trkpt><trkpt lat="40.9361333" lon="14.8304917"><ele>291.0</ele><time>2026-04-09T15:34:37.084Z</time></trkpt><trkpt lat="40.9359933" lon="14.8305383"><ele>291.0</ele><time>2026-04-09T15:34:38.084Z</time></trkpt><trkpt lat="40.935855" lon="14.8306033"><ele>291.0</ele><time>2026-04-09T15:34:39.084Z</time></trkpt><trkpt lat="40.9357267" lon="14.8306933"><ele>291.0</ele><time>2026-04-09T15:34:40.084Z</time></trkpt><trkpt lat="40.93561" lon="14.8307767"><ele>291.25</ele><time>2026-04-09T15:34:41.084Z</time></trkpt><trkpt lat="40.9354967" lon="14.8308683"><ele>291.5</ele><time>2026-04-09T15:34:42.084Z</time></trkpt><trkpt lat="40.9353783" lon="14.8309517"><ele>291.75</ele><time>2026-04-09T15:34:43.084Z</time></trkpt><trkpt lat="40.93526" lon="14.8310317"><ele>292.0</ele><time>2026-04-09T15:34:44.084Z</time></trkpt><trkpt lat="40.9351417" lon="14.8311017"><ele>293.0</ele><time>2026-04-09T15:34:45.084Z</time></trkpt><trkpt lat="40.9350267" lon="14.83115"><ele>294.0</ele><time>2026-04-09T15:34:46.084Z</time></trkpt><trkpt lat="40.9349183" lon="14.8311783"><ele>295.0</ele><time>2026-04-09T15:34:47.084Z</time></trkpt><trkpt lat="40.9348133" lon="14.8311967"><ele>296.0</ele><time>2026-04-09T15:34:48.084Z</time></trkpt><trkpt lat="40.9347117" lon="14.8312133"><ele>297.0</ele><time>2026-04-09T15:34:49.084Z</time></trkpt><trkpt lat="40.9345983" lon="14.8312183"><ele>297.0</ele><time>2026-04-09T15:34:50.084Z</time></trkpt><trkpt lat="40.9344833" lon="14.831215"><ele>297.0</ele><time>2026-04-09T15:34:51.084Z</time></trkpt><trkpt lat="40.9343567" lon="14.8312083"><ele>297.0</ele><time>2026-04-09T15:34:52.084Z</time></trkpt><trkpt lat="40.934225" lon="14.8312"><ele>297.0</ele><time>2026-04-09T15:34:53.084Z</time></trkpt><trkpt lat="40.9340783" lon="14.8311883"><ele>296.3333333333333</ele><time>2026-04-09T15:34:54.084Z</time></trkpt><trkpt lat="40.9339267" lon="14.831165"><ele>295.66666666666663</ele><time>2026-04-09T15:34:55.084Z</time></trkpt><trkpt lat="40.93378" lon="14.8311367"><ele>295.0</ele><time>2026-04-09T15:34:56.084Z</time></trkpt><trkpt lat="40.9336283" lon="14.8311133"><ele>295.0</ele><time>2026-04-09T15:34:57.084Z</time></trkpt><trkpt lat="40.9334767" lon="14.8310833"><ele>295.0</ele><time>2026-04-09T15:34:58.084Z</time></trkpt><trkpt lat="40.933325" lon="14.8310667"><ele>295.0</ele><time>2026-04-09T15:34:59.084Z</time></trkpt><trkpt lat="40.9331783" lon="14.8310483"><ele>296.0</ele><time>2026-04-09T15:35:00.084Z</time></trkpt><trkpt lat="40.933025" lon="14.831025"><ele>297.0</ele><time>2026-04-09T15:35:01.084Z</time></trkpt><trkpt lat="40.9328683" lon="14.8310067"><ele>298.0</ele><time>2026-04-09T15:35:02.084Z</time></trkpt><trkpt lat="40.9327167" lon="14.8309817"><ele>296.0</ele><time>2026-04-09T15:35:03.084Z</time></trkpt><trkpt lat="40.932555" lon="14.830955"><ele>294.0</ele><time>2026-04-09T15:35:04.084Z</time></trkpt><trkpt lat="40.9323967" lon="14.8309183"><ele>292.0</ele><time>2026-04-09T15:35:05.084Z</time></trkpt><trkpt lat="40.93224" lon="14.8308867"><ele>292.0</ele><time>2026-04-09T15:35:06.084Z</time></trkpt><trkpt lat="40.9320867" lon="14.83086"><ele>292.0</ele><time>2026-04-09T15:35:07.084Z</time></trkpt><trkpt lat="40.931935" lon="14.830835"><ele>292.0</ele><time>2026-04-09T15:35:08.084Z</time></trkpt><trkpt lat="40.931775" lon="14.8308117"><ele>291.3333333333333</ele><time>2026-04-09T15:35:09.084Z</time></trkpt><trkpt lat="40.9316167" lon="14.8307833"><ele>290.6666666666667</ele><time>2026-04-09T15:35:10.084Z</time></trkpt><trkpt lat="40.93146" lon="14.8307667"><ele>290.0</ele><time>2026-04-09T15:35:11.084Z</time></trkpt><trkpt lat="40.9312983" lon="14.8307433"><ele>290.0</ele><time>2026-04-09T15:35:12.084Z</time></trkpt><trkpt lat="40.9311333" lon="14.8307133"><ele>290.0</ele><time>2026-04-09T15:35:13.084Z</time></trkpt><trkpt lat="40.9309717" lon="14.8306983"><ele>290.0</ele><time>2026-04-09T15:35:14.084Z</time></trkpt><trkpt lat="40.9308" lon="14.8306667"><ele>289.33333333333337</ele><time>2026-04-09T15:35:15.084Z</time></trkpt><trkpt lat="40.9306317" lon="14.8306367"><ele>288.6666666666667</ele><time>2026-04-09T15:35:16.084Z</time></trkpt><trkpt lat="40.9304617" lon="14.830595"><ele>288.0</ele><time>2026-04-09T15:35:17.084Z</time></trkpt><trkpt lat="40.9302967" lon="14.83057"><ele>288.0</ele><time>2026-04-09T15:35:18.084Z</time></trkpt><trkpt lat="40.9301267" lon="14.8305417"><ele>288.0</ele><time>2026-04-09T15:35:19.084Z</time></trkpt><trkpt lat="40.929955" lon="14.8305117"><ele>288.0</ele><time>2026-04-09T15:35:20.084Z</time></trkpt><trkpt lat="40.929785" lon="14.8304867"><ele>287.6666666666667</ele><time>2026-04-09T15:35:21.084Z</time></trkpt><trkpt lat="40.929615" lon="14.8304483"><ele>287.33333333333337</ele><time>2026-04-09T15:35:22.084Z</time></trkpt><trkpt lat="40.9294483" lon="14.8304067"><ele>287.0</ele><time>2026-04-09T15:35:23.084Z</time></trkpt><trkpt lat="40.9292817" lon="14.8303617"><ele>287.0</ele><time>2026-04-09T15:35:24.084Z</time></trkpt><trkpt lat="40.92911" lon="14.83032"><ele>287.0</ele><time>2026-04-09T15:35:25.084Z</time></trkpt><trkpt lat="40.9289467" lon="14.8302633"><ele>287.0</ele><time>2026-04-09T15:35:26.084Z</time></trkpt><trkpt lat="40.9287817" lon="14.8302167"><ele>287.0</ele><time>2026-04-09T15:35:27.084Z</time></trkpt><trkpt lat="40.9286133" lon="14.83015"><ele>287.0</ele><time>2026-04-09T15:35:28.084Z</time></trkpt><trkpt lat="40.9284467" lon="14.8300733"><ele>287.0</ele><time>2026-04-09T15:35:29.084Z</time></trkpt><trkpt lat="40.9282833" lon="14.8300083"><ele>287.0</ele><time>2026-04-09T15:35:30.084Z</time></trkpt><trkpt lat="40.9281233" lon="14.8299367"><ele>287.0</ele><time>2026-04-09T15:35:31.084Z</time></trkpt><trkpt lat="40.9279717" lon="14.8298683"><ele>287.0</ele><time>2026-04-09T15:35:32.084Z</time></trkpt><trkpt lat="40.9278283" lon="14.8297817"><ele>287.0</ele><time>2026-04-09T15:35:33.084Z</time></trkpt><trkpt lat="40.9276817" lon="14.8297"><ele>287.0</ele><time>2026-04-09T15:35:34.084Z</time></trkpt><trkpt lat="40.92753" lon="14.82962"><ele>287.0</ele><time>2026-04-09T15:35:35.084Z</time></trkpt><trkpt lat="40.9273717" lon="14.82953"><ele>287.33333333333337</ele><time>2026-04-09T15:35:36.084Z</time></trkpt><trkpt lat="40.9272133" lon="14.8294417"><ele>287.6666666666667</ele><time>2026-04-09T15:35:37.084Z</time></trkpt><trkpt lat="40.9270567" lon="14.8293417"><ele>288.0</ele><time>2026-04-09T15:35:38.084Z</time></trkpt><trkpt lat="40.9269033" lon="14.829225"><ele>289.3333333333333</ele><time>2026-04-09T15:35:39.084Z</time></trkpt><trkpt lat="40.926745" lon="14.8291183"><ele>290.66666666666663</ele><time>2026-04-09T15:35:40.084Z</time></trkpt><trkpt lat="40.9265883" lon="14.829005"><ele>292.0</ele><time>2026-04-09T15:35:41.084Z</time></trkpt><trkpt lat="40.9264433" lon="14.82889"><ele>292.3333333333333</ele><time>2026-04-09T15:35:42.084Z</time></trkpt><trkpt lat="40.9263033" lon="14.8287667"><ele>292.6666666666667</ele><time>2026-04-09T15:35:43.084Z</time></trkpt><trkpt lat="40.9261717" lon="14.8286567"><ele>293.0</ele><time>2026-04-09T15:35:44.084Z</time></trkpt><trkpt lat="40.9260317" lon="14.8285417"><ele>294.33333333333337</ele><time>2026-04-09T15:35:45.084Z</time></trkpt><trkpt lat="40.925895" lon="14.8284283"><ele>295.6666666666667</ele><time>2026-04-09T15:35:46.084Z</time></trkpt><trkpt lat="40.9257583" lon="14.8283133"><ele>297.0</ele><time>2026-04-09T15:35:47.084Z</time></trkpt><trkpt lat="40.9256267" lon="14.82818"><ele>297.0</ele><time>2026-04-09T15:35:48.084Z</time></trkpt><trkpt lat="40.9254983" lon="14.8280433"><ele>297.0</ele><time>2026-04-09T15:35:49.084Z</time></trkpt><trkpt lat="40.925365" lon="14.8278967"><ele>297.0</ele><time>2026-04-09T15:35:50.084Z</time></trkpt><trkpt lat="40.9252383" lon="14.8277567"><ele>299.0</ele><time>2026-04-09T15:35:51.084Z</time></trkpt><trkpt lat="40.9251033" lon="14.827615"><ele>301.0</ele><time>2026-04-09T15:35:52.084Z</time></trkpt><trkpt lat="40.9249683" lon="14.827465"><ele>303.0</ele><time>2026-04-09T15:35:53.084Z</time></trkpt><trkpt lat="40.9248367" lon="14.8273167"><ele>304.3333333333333</ele><time>2026-04-09T15:35:54.084Z</time></trkpt><trkpt lat="40.9247033" lon="14.827165"><ele>305.66666666666663</ele><time>2026-04-09T15:35:55.084Z</time></trkpt><trkpt lat="40.9245633" lon="14.8270167"><ele>307.0</ele><time>2026-04-09T15:35:56.084Z</time></trkpt><trkpt lat="40.9244267" lon="14.8268767"><ele>307.0</ele><time>2026-04-09T15:35:57.084Z</time></trkpt><trkpt lat="40.9242817" lon="14.82674"><ele>307.0</ele><time>2026-04-09T15:35:58.084Z</time></trkpt><trkpt lat="40.9241367" lon="14.8266133"><ele>307.0</ele><time>2026-04-09T15:35:59.084Z</time></trkpt><trkpt lat="40.9239817" lon="14.826495"><ele>307.0</ele><time>2026-04-09T15:36:00.084Z</time></trkpt><trkpt lat="40.9238267" lon="14.8263717"><ele>307.0</ele><time>2026-04-09T15:36:01.084Z</time></trkpt><trkpt lat="40.9236733" lon="14.826265"><ele>307.0</ele><time>2026-04-09T15:36:02.084Z</time></trkpt><trkpt lat="40.9235067" lon="14.8261933"><ele>308.3333333333333</ele><time>2026-04-09T15:36:03.084Z</time></trkpt><trkpt lat="40.9233383" lon="14.8261267"><ele>309.6666666666667</ele><time>2026-04-09T15:36:04.084Z</time></trkpt><trkpt lat="40.923165" lon="14.826065"><ele>311.0</ele><time>2026-04-09T15:36:05.084Z</time></trkpt><trkpt lat="40.922995" lon="14.8260033"><ele>308.6666666666667</ele><time>2026-04-09T15:36:06.084Z</time></trkpt><trkpt lat="40.9228183" lon="14.8259733"><ele>306.3333333333333</ele><time>2026-04-09T15:36:07.084Z</time></trkpt><trkpt lat="40.922645" lon="14.8259533"><ele>304.0</ele><time>2026-04-09T15:36:08.084Z</time></trkpt><trkpt lat="40.9224767" lon="14.8259167"><ele>302.66666666666663</ele><time>2026-04-09T15:36:09.084Z</time></trkpt><trkpt lat="40.9222917" lon="14.825935"><ele>301.3333333333333</ele><time>2026-04-09T15:36:10.084Z</time></trkpt><trkpt lat="40.922125" lon="14.825955"><ele>300.0</ele><time>2026-04-09T15:36:11.084Z</time></trkpt><trkpt lat="40.92196" lon="14.8259783"><ele>303.6666666666667</ele><time>2026-04-09T15:36:12.084Z</time></trkpt><trkpt lat="40.9217883" lon="14.8260017"><ele>307.33333333333337</ele><time>2026-04-09T15:36:13.084Z</time></trkpt><trkpt lat="40.9216183" lon="14.8260367"><ele>311.0</ele><time>2026-04-09T15:36:14.084Z</time></trkpt><trkpt lat="40.9214417" lon="14.8260717"><ele>311.0</ele><time>2026-04-09T15:36:15.084Z</time></trkpt><trkpt lat="40.9212867" lon="14.826115"><ele>311.0</ele><time>2026-04-09T15:36:16.084Z</time></trkpt><trkpt lat="40.9211317" lon="14.8261617"><ele>311.0</ele><time>2026-04-09T15:36:17.084Z</time></trkpt><trkpt lat="40.92098" lon="14.826205"><ele>310.33333333333337</ele><time>2026-04-09T15:36:18.084Z</time></trkpt><trkpt lat="40.920825" lon="14.8262433"><ele>309.6666666666667</ele><time>2026-04-09T15:36:19.084Z</time></trkpt><trkpt lat="40.920665" lon="14.826275"><ele>309.0</ele><time>2026-04-09T15:36:20.084Z</time></trkpt><trkpt lat="40.9205017" lon="14.8262967"><ele>309.0</ele><time>2026-04-09T15:36:21.084Z</time></trkpt><trkpt lat="40.92034" lon="14.8263333"><ele>309.0</ele><time>2026-04-09T15:36:22.084Z</time></trkpt><trkpt lat="40.9201767" lon="14.826355"><ele>309.0</ele><time>2026-04-09T15:36:23.084Z</time></trkpt><trkpt lat="40.92002" lon="14.82637"><ele>307.6666666666667</ele><time>2026-04-09T15:36:24.084Z</time></trkpt><trkpt lat="40.9198667" lon="14.826375"><ele>306.33333333333337</ele><time>2026-04-09T15:36:25.084Z</time></trkpt><trkpt lat="40.919715" lon="14.82638"><ele>305.0</ele><time>2026-04-09T15:36:26.084Z</time></trkpt><trkpt lat="40.9195667" lon="14.82638"><ele>305.0</ele><time>2026-04-09T15:36:27.084Z</time></trkpt><trkpt lat="40.9194283" lon="14.8263733"><ele>305.0</ele><time>2026-04-09T15:36:28.084Z</time></trkpt><trkpt lat="40.9192917" lon="14.8263583"><ele>305.0</ele><time>2026-04-09T15:36:29.084Z</time></trkpt><trkpt lat="40.9191517" lon="14.82634"><ele>305.0</ele><time>2026-04-09T15:36:30.084Z</time></trkpt><trkpt lat="40.9190183" lon="14.8263167"><ele>304.5</ele><time>2026-04-09T15:36:31.084Z</time></trkpt><trkpt lat="40.9188717" lon="14.8262867"><ele>304.0</ele><time>2026-04-09T15:36:32.084Z</time></trkpt><trkpt lat="40.9187217" lon="14.8262617"><ele>303.5</ele><time>2026-04-09T15:36:33.084Z</time></trkpt><trkpt lat="40.9185767" lon="14.8262183"><ele>303.0</ele><time>2026-04-09T15:36:34.084Z</time></trkpt><trkpt lat="40.9184267" lon="14.8261833"><ele>303.25</ele><time>2026-04-09T15:36:35.084Z</time></trkpt><trkpt lat="40.9182867" lon="14.826125"><ele>303.5</ele><time>2026-04-09T15:36:36.084Z</time></trkpt><trkpt lat="40.91815" lon="14.826065"><ele>303.75</ele><time>2026-04-09T15:36:37.084Z</time></trkpt><trkpt lat="40.9180083" lon="14.8260133"><ele>304.0</ele><time>2026-04-09T15:36:38.084Z</time></trkpt><trkpt lat="40.9178633" lon="14.825965"><ele>304.0</ele><time>2026-04-09T15:36:39.084Z</time></trkpt><trkpt lat="40.9177117" lon="14.825915"><ele>304.0</ele><time>2026-04-09T15:36:40.084Z</time></trkpt><trkpt lat="40.9175667" lon="14.8258633"><ele>304.0</ele><time>2026-04-09T15:36:41.084Z</time></trkpt><trkpt lat="40.91742" lon="14.8258067"><ele>304.0</ele><time>2026-04-09T15:36:42.084Z</time></trkpt><trkpt lat="40.9172783" lon="14.8257617"><ele>304.0</ele><time>2026-04-09T15:36:43.084Z</time></trkpt><trkpt lat="40.91713" lon="14.8257067"><ele>304.0</ele><time>2026-04-09T15:36:44.084Z</time></trkpt><trkpt lat="40.91698" lon="14.8256567"><ele>304.0</ele><time>2026-04-09T15:36:45.084Z</time></trkpt><trkpt lat="40.9168333" lon="14.825605"><ele>304.0</ele><time>2026-04-09T15:36:46.084Z</time></trkpt><trkpt lat="40.9166883" lon="14.8255383"><ele>304.0</ele><time>2026-04-09T15:36:47.084Z</time></trkpt><trkpt lat="40.9165467" lon="14.8254583"><ele>304.5</ele><time>2026-04-09T15:36:48.084Z</time></trkpt><trkpt lat="40.9164133" lon="14.82538"><ele>305.0</ele><time>2026-04-09T15:36:49.084Z</time></trkpt><trkpt lat="40.916285" lon="14.8253033"><ele>305.5</ele><time>2026-04-09T15:36:50.084Z</time></trkpt><trkpt lat="40.9161583" lon="14.8252267"><ele>306.0</ele><time>2026-04-09T15:36:51.084Z</time></trkpt><trkpt lat="40.9160317" lon="14.8251517"><ele>306.25</ele><time>2026-04-09T15:36:52.084Z</time></trkpt><trkpt lat="40.91591" lon="14.825065"><ele>306.5</ele><time>2026-04-09T15:36:53.084Z</time></trkpt><trkpt lat="40.9157833" lon="14.8249767"><ele>306.75</ele><time>2026-04-09T15:36:54.084Z</time></trkpt><trkpt lat="40.91566" lon="14.82488"><ele>307.0</ele><time>2026-04-09T15:36:55.084Z</time></trkpt><trkpt lat="40.9155333" lon="14.82478"><ele>308.5</ele><time>2026-04-09T15:36:56.084Z</time></trkpt><trkpt lat="40.9154133" lon="14.8246783"><ele>310.0</ele><time>2026-04-09T15:36:57.084Z</time></trkpt><trkpt lat="40.91531" lon="14.82458"><ele>311.5</ele><time>2026-04-09T15:36:58.084Z</time></trkpt><trkpt lat="40.9152083" lon="14.8244717"><ele>313.0</ele><time>2026-04-09T15:36:59.084Z</time></trkpt><trkpt lat="40.9151" lon="14.824365"><ele>314.0</ele><time>2026-04-09T15:37:00.084Z</time></trkpt><trkpt lat="40.914995" lon="14.82425"><ele>315.0</ele><time>2026-04-09T15:37:01.084Z</time></trkpt><trkpt lat="40.9148917" lon="14.8241383"><ele>316.0</ele><time>2026-04-09T15:37:02.084Z</time></trkpt><trkpt lat="40.9147917" lon="14.824025"><ele>317.0</ele><time>2026-04-09T15:37:03.084Z</time></trkpt><trkpt lat="40.914695" lon="14.8239067"><ele>317.0</ele><time>2026-04-09T15:37:04.084Z</time></trkpt><trkpt lat="40.9145917" lon="14.8237983"><ele>317.0</ele><time>2026-04-09T15:37:05.084Z</time></trkpt><trkpt lat="40.9144917" lon="14.82369"><ele>317.0</ele><time>2026-04-09T15:37:06.084Z</time></trkpt><trkpt lat="40.9143867" lon="14.82359"><ele>317.0</ele><time>2026-04-09T15:37:07.084Z</time></trkpt><trkpt lat="40.9142883" lon="14.8234883"><ele>317.75</ele><time>2026-04-09T15:37:08.084Z</time></trkpt><trkpt lat="40.9141883" lon="14.8233783"><ele>318.5</ele><time>2026-04-09T15:37:09.084Z</time></trkpt><trkpt lat="40.9140817" lon="14.82328"><ele>319.25</ele><time>2026-04-09T15:37:10.084Z</time></trkpt><trkpt lat="40.9139817" lon="14.8231717"><ele>320.0</ele><time>2026-04-09T15:37:11.084Z</time></trkpt><trkpt lat="40.9138917" lon="14.82306"><ele>320.0</ele><time>2026-04-09T15:37:12.084Z</time></trkpt><trkpt lat="40.9137933" lon="14.8229617"><ele>320.0</ele><time>2026-04-09T15:37:13.084Z</time></trkpt><trkpt lat="40.913705" lon="14.822845"><ele>320.0</ele><time>2026-04-09T15:37:14.084Z</time></trkpt><trkpt lat="40.9136117" lon="14.8227267"><ele>320.0</ele><time>2026-04-09T15:37:15.084Z</time></trkpt><trkpt lat="40.9135233" lon="14.8226017"><ele>320.0</ele><time>2026-04-09T15:37:16.084Z</time></trkpt><trkpt lat="40.913435" lon="14.822465"><ele>320.0</ele><time>2026-04-09T15:37:17.084Z</time></trkpt><trkpt lat="40.9133517" lon="14.8223317"><ele>320.0</ele><time>2026-04-09T15:37:18.084Z</time></trkpt><trkpt lat="40.913275" lon="14.8222"><ele>320.0</ele><time>2026-04-09T15:37:19.084Z</time></trkpt><trkpt lat="40.9132067" lon="14.8220767"><ele>320.0</ele><time>2026-04-09T15:37:20.084Z</time></trkpt><trkpt lat="40.91314" lon="14.8219567"><ele>320.0</ele><time>2026-04-09T15:37:21.084Z</time></trkpt><trkpt lat="40.9130817" lon="14.8218467"><ele>320.0</ele><time>2026-04-09T15:37:22.084Z</time></trkpt><trkpt lat="40.91303" lon="14.8217467"><ele>320.0</ele><time>2026-04-09T15:37:23.084Z</time></trkpt><trkpt lat="40.912985" lon="14.821645"><ele>320.0</ele><time>2026-04-09T15:37:24.084Z</time></trkpt><trkpt lat="40.9129417" lon="14.8215517"><ele>320.0</ele><time>2026-04-09T15:37:25.084Z</time></trkpt><trkpt lat="40.912905" lon="14.8214567"><ele>320.0</ele><time>2026-04-09T15:37:26.084Z</time></trkpt><trkpt lat="40.9128917" lon="14.821365"><ele>320.0</ele><time>2026-04-09T15:37:27.084Z</time></trkpt><trkpt lat="40.912905" lon="14.8212817"><ele>320.0</ele><time>2026-04-09T15:37:28.084Z</time></trkpt><trkpt lat="40.912985" lon="14.8211617"><ele>320.0</ele><time>2026-04-09T15:37:30.084Z</time></trkpt><trkpt lat="40.9130483" lon="14.8211183"><ele>320.0</ele><time>2026-04-09T15:37:31.084Z</time></trkpt><trkpt lat="40.9131783" lon="14.821095"><ele>320.0</ele><time>2026-04-09T15:37:33.084Z</time></trkpt><trkpt lat="40.9132433" lon="14.8211117"><ele>320.0</ele><time>2026-04-09T15:37:34.084Z</time></trkpt><trkpt lat="40.9133033" lon="14.82114"><ele>320.0</ele><time>2026-04-09T15:37:35.084Z</time></trkpt><trkpt lat="40.9134017" lon="14.8212"><ele>320.0</ele><time>2026-04-09T15:37:37.084Z</time></trkpt><trkpt lat="40.9134883" lon="14.8212767"><ele>320.0</ele><time>2026-04-09T15:37:39.084Z</time></trkpt><trkpt lat="40.9135483" lon="14.8213717"><ele>320.0</ele><time>2026-04-09T15:37:41.084Z</time></trkpt><trkpt lat="40.91359" lon="14.8214633"><ele>320.0</ele><time>2026-04-09T15:37:44.084Z</time></trkpt><trkpt lat="40.9136017" lon="14.8215933"><ele>320.0</ele><time>2026-04-09T15:37:47.084Z</time></trkpt><trkpt lat="40.9135867" lon="14.821675"><ele>320.0</ele><time>2026-04-09T15:37:48.084Z</time></trkpt><trkpt lat="40.91356" lon="14.8217633"><ele>320.0</ele><time>2026-04-09T15:37:49.084Z</time></trkpt><trkpt lat="40.913525" lon="14.8218667"><ele>320.0</ele><time>2026-04-09T15:37:50.084Z</time></trkpt><trkpt lat="40.9134833" lon="14.82198"><ele>320.0</ele><time>2026-04-09T15:37:51.084Z</time></trkpt><trkpt lat="40.91344" lon="14.822105"><ele>320.0</ele><time>2026-04-09T15:37:52.084Z</time></trkpt><trkpt lat="40.91339" lon="14.822255"><ele>320.0</ele><time>2026-04-09T15:37:53.084Z</time></trkpt><trkpt lat="40.9133233" lon="14.8224217"><ele>320.0</ele><time>2026-04-09T15:37:54.084Z</time></trkpt><trkpt lat="40.9132367" lon="14.82263"><ele>320.0</ele><time>2026-04-09T15:37:55.084Z</time></trkpt><trkpt lat="40.9131367" lon="14.8228683"><ele>320.33333333333337</ele><time>2026-04-09T15:37:56.084Z</time></trkpt><trkpt lat="40.9130383" lon="14.82311"><ele>320.6666666666667</ele><time>2026-04-09T15:37:57.084Z</time></trkpt><trkpt lat="40.91295" lon="14.82334"><ele>321.0</ele><time>2026-04-09T15:37:58.084Z</time></trkpt><trkpt lat="40.912845" lon="14.8235667"><ele>321.0</ele><time>2026-04-09T15:37:59.084Z</time></trkpt><trkpt lat="40.9127467" lon="14.8238"><ele>321.0</ele><time>2026-04-09T15:38:00.084Z</time></trkpt><trkpt lat="40.912645" lon="14.824035"><ele>321.0</ele><time>2026-04-09T15:38:01.084Z</time></trkpt><trkpt lat="40.9125533" lon="14.8242667"><ele>320.6666666666667</ele><time>2026-04-09T15:38:02.084Z</time></trkpt><trkpt lat="40.9124533" lon="14.8244933"><ele>320.33333333333337</ele><time>2026-04-09T15:38:03.084Z</time></trkpt><trkpt lat="40.9123467" lon="14.82472"><ele>320.0</ele><time>2026-04-09T15:38:04.084Z</time></trkpt><trkpt lat="40.9122333" lon="14.8249367"><ele>319.0</ele><time>2026-04-09T15:38:05.084Z</time></trkpt><trkpt lat="40.91211" lon="14.8251467"><ele>318.0</ele><time>2026-04-09T15:38:06.084Z</time></trkpt><trkpt lat="40.91198" lon="14.8253517"><ele>317.0</ele><time>2026-04-09T15:38:07.084Z</time></trkpt><trkpt lat="40.9118467" lon="14.8255617"><ele>316.6666666666667</ele><time>2026-04-09T15:38:08.084Z</time></trkpt><trkpt lat="40.91172" lon="14.8257783"><ele>316.3333333333333</ele><time>2026-04-09T15:38:09.084Z</time></trkpt><trkpt lat="40.9115883" lon="14.82599"><ele>316.0</ele><time>2026-04-09T15:38:10.084Z</time></trkpt><trkpt lat="40.91146" lon="14.8262033"><ele>316.0</ele><time>2026-04-09T15:38:11.084Z</time></trkpt><trkpt lat="40.911335" lon="14.8264017"><ele>316.0</ele><time>2026-04-09T15:38:12.084Z</time></trkpt><trkpt lat="40.911215" lon="14.8265883"><ele>316.0</ele><time>2026-04-09T15:38:13.084Z</time></trkpt><trkpt lat="40.9111" lon="14.82677"><ele>314.66666666666663</ele><time>2026-04-09T15:38:14.084Z</time></trkpt><trkpt lat="40.910985" lon="14.8269583"><ele>313.3333333333333</ele><time>2026-04-09T15:38:15.084Z</time></trkpt><trkpt lat="40.9108633" lon="14.8271533"><ele>312.0</ele><time>2026-04-09T15:38:16.084Z</time></trkpt><trkpt lat="40.9107417" lon="14.82735"><ele>312.0</ele><time>2026-04-09T15:38:17.084Z</time></trkpt><trkpt lat="40.9106367" lon="14.8275533"><ele>312.0</ele><time>2026-04-09T15:38:18.084Z</time></trkpt><trkpt lat="40.910535" lon="14.8277683"><ele>312.0</ele><time>2026-04-09T15:38:19.084Z</time></trkpt><trkpt lat="40.9104417" lon="14.8279917"><ele>309.6666666666667</ele><time>2026-04-09T15:38:20.084Z</time></trkpt><trkpt lat="40.910355" lon="14.8282333"><ele>307.33333333333337</ele><time>2026-04-09T15:38:21.084Z</time></trkpt><trkpt lat="40.910275" lon="14.8284783"><ele>305.0</ele><time>2026-04-09T15:38:22.084Z</time></trkpt><trkpt lat="40.9102083" lon="14.8287233"><ele>305.0</ele><time>2026-04-09T15:38:23.084Z</time></trkpt><trkpt lat="40.9101517" lon="14.82897"><ele>305.0</ele><time>2026-04-09T15:38:24.084Z</time></trkpt><trkpt lat="40.91009" lon="14.8292167"><ele>305.0</ele><time>2026-04-09T15:38:25.084Z</time></trkpt><trkpt lat="40.9100283" lon="14.8294583"><ele>305.0</ele><time>2026-04-09T15:38:26.084Z</time></trkpt><trkpt lat="40.909965" lon="14.8296933"><ele>305.0</ele><time>2026-04-09T15:38:27.084Z</time></trkpt><trkpt lat="40.9098967" lon="14.8299367"><ele>305.0</ele><time>2026-04-09T15:38:28.084Z</time></trkpt><trkpt lat="40.90983" lon="14.8301667"><ele>304.6666666666667</ele><time>2026-04-09T15:38:29.084Z</time></trkpt><trkpt lat="40.909765" lon="14.8303917"><ele>304.3333333333333</ele><time>2026-04-09T15:38:30.084Z</time></trkpt><trkpt lat="40.9097033" lon="14.8306133"><ele>304.0</ele><time>2026-04-09T15:38:31.084Z</time></trkpt><trkpt lat="40.90963" lon="14.830835"><ele>305.3333333333333</ele><time>2026-04-09T15:38:32.084Z</time></trkpt><trkpt lat="40.909555" lon="14.8310433"><ele>306.6666666666667</ele><time>2026-04-09T15:38:33.084Z</time></trkpt><trkpt lat="40.9094733" lon="14.831245"><ele>308.0</ele><time>2026-04-09T15:38:34.084Z</time></trkpt><trkpt lat="40.9093867" lon="14.83145"><ele>308.0</ele><time>2026-04-09T15:38:35.084Z</time></trkpt><trkpt lat="40.9092917" lon="14.8316567"><ele>308.0</ele><time>2026-04-09T15:38:36.084Z</time></trkpt><trkpt lat="40.9091883" lon="14.8318583"><ele>308.0</ele><time>2026-04-09T15:38:37.084Z</time></trkpt><trkpt lat="40.90908" lon="14.8320617"><ele>309.33333333333337</ele><time>2026-04-09T15:38:38.084Z</time></trkpt><trkpt lat="40.908965" lon="14.8322633"><ele>310.6666666666667</ele><time>2026-04-09T15:38:39.084Z</time></trkpt><trkpt lat="40.9088433" lon="14.8324583"><ele>312.0</ele><time>2026-04-09T15:38:40.084Z</time></trkpt><trkpt lat="40.9087183" lon="14.8326533"><ele>312.0</ele><time>2026-04-09T15:38:41.084Z</time></trkpt><trkpt lat="40.90859" lon="14.8328367"><ele>312.0</ele><time>2026-04-09T15:38:42.084Z</time></trkpt><trkpt lat="40.908455" lon="14.8330017"><ele>312.0</ele><time>2026-04-09T15:38:43.084Z</time></trkpt><trkpt lat="40.9083183" lon="14.8331617"><ele>312.0</ele><time>2026-04-09T15:38:44.084Z</time></trkpt><trkpt lat="40.9081883" lon="14.8333067"><ele>312.0</ele><time>2026-04-09T15:38:45.084Z</time></trkpt><trkpt lat="40.9080583" lon="14.8334433"><ele>312.0</ele><time>2026-04-09T15:38:46.084Z</time></trkpt><trkpt lat="40.9079267" lon="14.83357"><ele>312.0</ele><time>2026-04-09T15:38:47.084Z</time></trkpt><trkpt lat="40.9078" lon="14.8337067"><ele>312.0</ele><time>2026-04-09T15:38:48.084Z</time></trkpt><trkpt lat="40.907675" lon="14.833845"><ele>312.0</ele><time>2026-04-09T15:38:49.084Z</time></trkpt><trkpt lat="40.9075583" lon="14.8339867"><ele>312.0</ele><time>2026-04-09T15:38:50.084Z</time></trkpt><trkpt lat="40.90744" lon="14.8341233"><ele>312.0</ele><time>2026-04-09T15:38:51.084Z</time></trkpt><trkpt lat="40.9073183" lon="14.8342583"><ele>312.0</ele><time>2026-04-09T15:38:52.084Z</time></trkpt><trkpt lat="40.9071983" lon="14.8344"><ele>315.0</ele><time>2026-04-09T15:38:53.084Z</time></trkpt><trkpt lat="40.9070783" lon="14.8345483"><ele>318.0</ele><time>2026-04-09T15:38:54.084Z</time></trkpt><trkpt lat="40.9069483" lon="14.8347"><ele>321.0</ele><time>2026-04-09T15:38:55.084Z</time></trkpt><trkpt lat="40.90682" lon="14.8348433"><ele>319.0</ele><time>2026-04-09T15:38:56.084Z</time></trkpt><trkpt lat="40.9066883" lon="14.8349883"><ele>317.0</ele><time>2026-04-09T15:38:57.084Z</time></trkpt><trkpt lat="40.9065583" lon="14.83514"><ele>315.0</ele><time>2026-04-09T15:38:58.084Z</time></trkpt><trkpt lat="40.9064267" lon="14.83528"><ele>315.0</ele><time>2026-04-09T15:38:59.084Z</time></trkpt><trkpt lat="40.9063" lon="14.835415"><ele>315.0</ele><time>2026-04-09T15:39:00.084Z</time></trkpt><trkpt lat="40.90617" lon="14.835545"><ele>315.0</ele><time>2026-04-09T15:39:01.084Z</time></trkpt><trkpt lat="40.906035" lon="14.835675"><ele>315.0</ele><time>2026-04-09T15:39:02.084Z</time></trkpt><trkpt lat="40.905895" lon="14.8358083"><ele>315.0</ele><time>2026-04-09T15:39:03.084Z</time></trkpt><trkpt lat="40.9057567" lon="14.8359417"><ele>315.0</ele><time>2026-04-09T15:39:04.084Z</time></trkpt><trkpt lat="40.9056117" lon="14.83607"><ele>315.0</ele><time>2026-04-09T15:39:05.084Z</time></trkpt><trkpt lat="40.905465" lon="14.8361967"><ele>315.0</ele><time>2026-04-09T15:39:06.084Z</time></trkpt><trkpt lat="40.9053233" lon="14.8363233"><ele>315.0</ele><time>2026-04-09T15:39:07.084Z</time></trkpt><trkpt lat="40.9051717" lon="14.8364417"><ele>315.0</ele><time>2026-04-09T15:39:08.084Z</time></trkpt><trkpt lat="40.9050183" lon="14.8365533"><ele>315.0</ele><time>2026-04-09T15:39:09.084Z</time></trkpt><trkpt lat="40.9048683" lon="14.836675"><ele>315.0</ele><time>2026-04-09T15:39:10.084Z</time></trkpt><trkpt lat="40.90471" lon="14.836795"><ele>317.0</ele><time>2026-04-09T15:39:11.084Z</time></trkpt><trkpt lat="40.904545" lon="14.836905"><ele>319.0</ele><time>2026-04-09T15:39:12.084Z</time></trkpt><trkpt lat="40.9043883" lon="14.8370083"><ele>321.0</ele><time>2026-04-09T15:39:13.084Z</time></trkpt><trkpt lat="40.9042217" lon="14.8371167"><ele>321.0</ele><time>2026-04-09T15:39:14.084Z</time></trkpt><trkpt lat="40.9040517" lon="14.83723"><ele>321.0</ele><time>2026-04-09T15:39:15.084Z</time></trkpt><trkpt lat="40.9038883" lon="14.8373433"><ele>321.0</ele><time>2026-04-09T15:39:16.084Z</time></trkpt><trkpt lat="40.9037217" lon="14.8374583"><ele>321.0</ele><time>2026-04-09T15:39:17.084Z</time></trkpt><trkpt lat="40.9035583" lon="14.8375733"><ele>321.0</ele><time>2026-04-09T15:39:18.084Z</time></trkpt><trkpt lat="40.90339" lon="14.8376833"><ele>321.0</ele><time>2026-04-09T15:39:19.084Z</time></trkpt><trkpt lat="40.9032183" lon="14.8377933"><ele>324.6666666666667</ele><time>2026-04-09T15:39:20.084Z</time></trkpt><trkpt lat="40.9030583" lon="14.8379083"><ele>328.33333333333337</ele><time>2026-04-09T15:39:21.084Z</time></trkpt><trkpt lat="40.9028983" lon="14.8380317"><ele>332.0</ele><time>2026-04-09T15:39:22.084Z</time></trkpt><trkpt lat="40.9027367" lon="14.8381467"><ele>330.0</ele><time>2026-04-09T15:39:23.084Z</time></trkpt><trkpt lat="40.9025783" lon="14.8382667"><ele>328.0</ele><time>2026-04-09T15:39:24.084Z</time></trkpt><trkpt lat="40.90242" lon="14.83839"><ele>326.0</ele><time>2026-04-09T15:39:25.084Z</time></trkpt><trkpt lat="40.90226" lon="14.8385133"><ele>326.0</ele><time>2026-04-09T15:39:26.084Z</time></trkpt><trkpt lat="40.9021033" lon="14.838645"><ele>326.0</ele><time>2026-04-09T15:39:27.084Z</time></trkpt><trkpt lat="40.9019483" lon="14.8387767"><ele>326.0</ele><time>2026-04-09T15:39:28.084Z</time></trkpt><trkpt lat="40.9017917" lon="14.8388983"><ele>324.0</ele><time>2026-04-09T15:39:29.084Z</time></trkpt><trkpt lat="40.9016383" lon="14.8390383"><ele>322.0</ele><time>2026-04-09T15:39:30.084Z</time></trkpt><trkpt lat="40.901485" lon="14.8391783"><ele>320.0</ele><time>2026-04-09T15:39:31.084Z</time></trkpt><trkpt lat="40.901335" lon="14.83933"><ele>320.0</ele><time>2026-04-09T15:39:32.084Z</time></trkpt><trkpt lat="40.9011917" lon="14.8394783"><ele>320.0</ele><time>2026-04-09T15:39:33.084Z</time></trkpt><trkpt lat="40.9010467" lon="14.8396267"><ele>320.0</ele><time>2026-04-09T15:39:34.084Z</time></trkpt><trkpt lat="40.9009117" lon="14.8397717"><ele>320.0</ele><time>2026-04-09T15:39:35.084Z</time></trkpt><trkpt lat="40.9007817" lon="14.839915"><ele>320.0</ele><time>2026-04-09T15:39:36.084Z</time></trkpt><trkpt lat="40.900655" lon="14.8400533"><ele>320.0</ele><time>2026-04-09T15:39:37.084Z</time></trkpt><trkpt lat="40.9005317" lon="14.8402033"><ele>321.33333333333337</ele><time>2026-04-09T15:39:38.084Z</time></trkpt><trkpt lat="40.9003967" lon="14.8403433"><ele>322.6666666666667</ele><time>2026-04-09T15:39:39.084Z</time></trkpt><trkpt lat="40.9002667" lon="14.8404883"><ele>324.0</ele><time>2026-04-09T15:39:40.084Z</time></trkpt><trkpt lat="40.9001383" lon="14.840635"><ele>324.6666666666667</ele><time>2026-04-09T15:39:41.084Z</time></trkpt><trkpt lat="40.9000083" lon="14.8407817"><ele>325.33333333333337</ele><time>2026-04-09T15:39:42.084Z</time></trkpt><trkpt lat="40.8998783" lon="14.8409283"><ele>326.0</ele><time>2026-04-09T15:39:43.084Z</time></trkpt><trkpt lat="40.8997517" lon="14.8410783"><ele>327.33333333333337</ele><time>2026-04-09T15:39:44.084Z</time></trkpt><trkpt lat="40.8996217" lon="14.8412283"><ele>328.6666666666667</ele><time>2026-04-09T15:39:45.084Z</time></trkpt><trkpt lat="40.8994867" lon="14.8413783"><ele>330.0</ele><time>2026-04-09T15:39:46.084Z</time></trkpt><trkpt lat="40.8993583" lon="14.8415233"><ele>329.3333333333333</ele><time>2026-04-09T15:39:47.084Z</time></trkpt><trkpt lat="40.8992283" lon="14.8416667"><ele>328.66666666666663</ele><time>2026-04-09T15:39:48.084Z</time></trkpt><trkpt lat="40.8990883" lon="14.8418067"><ele>328.0</ele><time>2026-04-09T15:39:49.084Z</time></trkpt><trkpt lat="40.898955" lon="14.8419383"><ele>329.3333333333333</ele><time>2026-04-09T15:39:50.084Z</time></trkpt><trkpt lat="40.8988083" lon="14.8420733"><ele>330.6666666666667</ele><time>2026-04-09T15:39:51.084Z</time></trkpt><trkpt lat="40.8986583" lon="14.8421917"><ele>332.0</ele><time>2026-04-09T15:39:52.084Z</time></trkpt><trkpt lat="40.8985117" lon="14.8423117"><ele>329.33333333333337</ele><time>2026-04-09T15:39:53.085Z</time></trkpt><trkpt lat="40.898365" lon="14.8424133"><ele>326.6666666666667</ele><time>2026-04-09T15:39:54.084Z</time></trkpt><trkpt lat="40.8982083" lon="14.842505"><ele>324.0</ele><time>2026-04-09T15:39:55.084Z</time></trkpt><trkpt lat="40.8980433" lon="14.8425983"><ele>324.6666666666667</ele><time>2026-04-09T15:39:56.084Z</time></trkpt><trkpt lat="40.8978683" lon="14.8426833"><ele>325.33333333333337</ele><time>2026-04-09T15:39:57.084Z</time></trkpt><trkpt lat="40.8977017" lon="14.8427383"><ele>326.0</ele><time>2026-04-09T15:39:58.084Z</time></trkpt><trkpt lat="40.8975367" lon="14.84279"><ele>326.0</ele><time>2026-04-09T15:39:59.084Z</time></trkpt><trkpt lat="40.89737" lon="14.8428367"><ele>326.0</ele><time>2026-04-09T15:40:00.084Z</time></trkpt><trkpt lat="40.897205" lon="14.8428683"><ele>326.0</ele><time>2026-04-09T15:40:01.084Z</time></trkpt><trkpt lat="40.8970383" lon="14.8429117"><ele>326.0</ele><time>2026-04-09T15:40:02.084Z</time></trkpt><trkpt lat="40.8968733" lon="14.842945"><ele>326.0</ele><time>2026-04-09T15:40:03.084Z</time></trkpt><trkpt lat="40.8967117" lon="14.8429683"><ele>326.0</ele><time>2026-04-09T15:40:04.084Z</time></trkpt><trkpt lat="40.89656" lon="14.84298"><ele>325.0</ele><time>2026-04-09T15:40:05.084Z</time></trkpt><trkpt lat="40.8963983" lon="14.8429867"><ele>324.0</ele><time>2026-04-09T15:40:06.084Z</time></trkpt><trkpt lat="40.896235" lon="14.8429867"><ele>323.0</ele><time>2026-04-09T15:40:07.084Z</time></trkpt><trkpt lat="40.8960767" lon="14.8429817"><ele>323.0</ele><time>2026-04-09T15:40:08.084Z</time></trkpt><trkpt lat="40.8959183" lon="14.842965"><ele>323.0</ele><time>2026-04-09T15:40:09.084Z</time></trkpt><trkpt lat="40.8957533" lon="14.8429517"><ele>323.0</ele><time>2026-04-09T15:40:10.084Z</time></trkpt><trkpt lat="40.8955917" lon="14.8429267"><ele>323.0</ele><time>2026-04-09T15:40:11.084Z</time></trkpt><trkpt lat="40.89543" lon="14.8429033"><ele>323.0</ele><time>2026-04-09T15:40:12.084Z</time></trkpt><trkpt lat="40.8952583" lon="14.8428867"><ele>323.0</ele><time>2026-04-09T15:40:13.084Z</time></trkpt><trkpt lat="40.89509" lon="14.84287"><ele>323.33333333333337</ele><time>2026-04-09T15:40:14.084Z</time></trkpt><trkpt lat="40.8949117" lon="14.8428467"><ele>323.6666666666667</ele><time>2026-04-09T15:40:15.084Z</time></trkpt><trkpt lat="40.894735" lon="14.8428283"><ele>324.0</ele><time>2026-04-09T15:40:16.084Z</time></trkpt><trkpt lat="40.89456" lon="14.84282"><ele>324.0</ele><time>2026-04-09T15:40:17.084Z</time></trkpt><trkpt lat="40.894385" lon="14.842805"><ele>324.0</ele><time>2026-04-09T15:40:18.084Z</time></trkpt><trkpt lat="40.894205" lon="14.8428033"><ele>324.0</ele><time>2026-04-09T15:40:19.084Z</time></trkpt><trkpt lat="40.8940383" lon="14.842805"><ele>324.3333333333333</ele><time>2026-04-09T15:40:20.084Z</time></trkpt><trkpt lat="40.8938683" lon="14.8428167"><ele>324.66666666666663</ele><time>2026-04-09T15:40:21.084Z</time></trkpt><trkpt lat="40.8937" lon="14.84283"><ele>325.0</ele><time>2026-04-09T15:40:22.084Z</time></trkpt><trkpt lat="40.893535" lon="14.8428383"><ele>325.3333333333333</ele><time>2026-04-09T15:40:23.084Z</time></trkpt><trkpt lat="40.8933683" lon="14.8428517"><ele>325.6666666666667</ele><time>2026-04-09T15:40:24.084Z</time></trkpt><trkpt lat="40.893205" lon="14.8428833"><ele>326.0</ele><time>2026-04-09T15:40:25.084Z</time></trkpt><trkpt lat="40.893035" lon="14.8428967"><ele>326.0</ele><time>2026-04-09T15:40:26.084Z</time></trkpt><trkpt lat="40.8928633" lon="14.8429317"><ele>326.0</ele><time>2026-04-09T15:40:27.084Z</time></trkpt><trkpt lat="40.8926867" lon="14.8429683"><ele>326.0</ele><time>2026-04-09T15:40:28.084Z</time></trkpt><trkpt lat="40.8925133" lon="14.843005"><ele>326.33333333333337</ele><time>2026-04-09T15:40:29.084Z</time></trkpt><trkpt lat="40.892345" lon="14.8430233"><ele>326.6666666666667</ele><time>2026-04-09T15:40:30.084Z</time></trkpt><trkpt lat="40.8921767" lon="14.8430617"><ele>327.0</ele><time>2026-04-09T15:40:31.084Z</time></trkpt><trkpt lat="40.8919967" lon="14.843105"><ele>327.0</ele><time>2026-04-09T15:40:32.084Z</time></trkpt><trkpt lat="40.8918133" lon="14.8431383"><ele>327.0</ele><time>2026-04-09T15:40:33.084Z</time></trkpt><trkpt lat="40.8916383" lon="14.8431733"><ele>327.0</ele><time>2026-04-09T15:40:34.084Z</time></trkpt><trkpt lat="40.8914667" lon="14.84321"><ele>327.6666666666667</ele><time>2026-04-09T15:40:35.084Z</time></trkpt><trkpt lat="40.8913" lon="14.843245"><ele>328.33333333333337</ele><time>2026-04-09T15:40:36.084Z</time></trkpt><trkpt lat="40.891125" lon="14.8432767"><ele>329.0</ele><time>2026-04-09T15:40:37.084Z</time></trkpt><trkpt lat="40.8909567" lon="14.8433133"><ele>329.0</ele><time>2026-04-09T15:40:38.084Z</time></trkpt><trkpt lat="40.8907883" lon="14.843345"><ele>329.0</ele><time>2026-04-09T15:40:39.084Z</time></trkpt><trkpt lat="40.8906167" lon="14.84338"><ele>329.0</ele><time>2026-04-09T15:40:40.084Z</time></trkpt><trkpt lat="40.890445" lon="14.84342"><ele>329.6666666666667</ele><time>2026-04-09T15:40:41.084Z</time></trkpt><trkpt lat="40.89027" lon="14.8434667"><ele>330.3333333333333</ele><time>2026-04-09T15:40:42.084Z</time></trkpt><trkpt lat="40.8900967" lon="14.8435067"><ele>331.0</ele><time>2026-04-09T15:40:43.084Z</time></trkpt><trkpt lat="40.8899367" lon="14.8435383"><ele>331.3333333333333</ele><time>2026-04-09T15:40:44.084Z</time></trkpt><trkpt lat="40.8897833" lon="14.843565"><ele>331.6666666666667</ele><time>2026-04-09T15:40:45.084Z</time></trkpt><trkpt lat="40.889635" lon="14.8435967"><ele>332.0</ele><time>2026-04-09T15:40:46.084Z</time></trkpt><trkpt lat="40.8894867" lon="14.8436333"><ele>332.0</ele><time>2026-04-09T15:40:47.084Z</time></trkpt><trkpt lat="40.889345" lon="14.8436667"><ele>332.0</ele><time>2026-04-09T15:40:48.084Z</time></trkpt><trkpt lat="40.8892" lon="14.8437033"><ele>332.0</ele><time>2026-04-09T15:40:49.084Z</time></trkpt><trkpt lat="40.88905" lon="14.8437383"><ele>332.0</ele><time>2026-04-09T15:40:50.084Z</time></trkpt><trkpt lat="40.8889" lon="14.8437683"><ele>330.6666666666667</ele><time>2026-04-09T15:40:51.084Z</time></trkpt><trkpt lat="40.8887533" lon="14.8438"><ele>329.3333333333333</ele><time>2026-04-09T15:40:52.084Z</time></trkpt><trkpt lat="40.888605" lon="14.8438317"><ele>328.0</ele><time>2026-04-09T15:40:53.084Z</time></trkpt><trkpt lat="40.888455" lon="14.84386"><ele>328.66666666666663</ele><time>2026-04-09T15:40:54.084Z</time></trkpt><trkpt lat="40.888305" lon="14.8439"><ele>329.3333333333333</ele><time>2026-04-09T15:40:55.084Z</time></trkpt><trkpt lat="40.8881567" lon="14.8439333"><ele>330.0</ele><time>2026-04-09T15:40:56.084Z</time></trkpt><trkpt lat="40.8880017" lon="14.8439667"><ele>330.0</ele><time>2026-04-09T15:40:57.084Z</time></trkpt><trkpt lat="40.8878417" lon="14.8440083"><ele>330.0</ele><time>2026-04-09T15:40:58.084Z</time></trkpt><trkpt lat="40.8876783" lon="14.8440317"><ele>330.0</ele><time>2026-04-09T15:40:59.084Z</time></trkpt><trkpt lat="40.8875117" lon="14.84406"><ele>330.6666666666667</ele><time>2026-04-09T15:41:00.084Z</time></trkpt><trkpt lat="40.8873467" lon="14.844085"><ele>331.33333333333337</ele><time>2026-04-09T15:41:01.084Z</time></trkpt><trkpt lat="40.88718" lon="14.8441267"><ele>332.0</ele><time>2026-04-09T15:41:02.084Z</time></trkpt><trkpt lat="40.8870233" lon="14.844165"><ele>332.0</ele><time>2026-04-09T15:41:03.084Z</time></trkpt><trkpt lat="40.8868767" lon="14.8441983"><ele>332.0</ele><time>2026-04-09T15:41:04.084Z</time></trkpt><trkpt lat="40.8867283" lon="14.844235"><ele>332.0</ele><time>2026-04-09T15:41:05.084Z</time></trkpt><trkpt lat="40.886585" lon="14.8442633"><ele>332.0</ele><time>2026-04-09T15:41:06.084Z</time></trkpt><trkpt lat="40.88644" lon="14.844315"><ele>332.75</ele><time>2026-04-09T15:41:07.084Z</time></trkpt><trkpt lat="40.8863" lon="14.844365"><ele>333.5</ele><time>2026-04-09T15:41:08.084Z</time></trkpt><trkpt lat="40.8861733" lon="14.8444167"><ele>334.25</ele><time>2026-04-09T15:41:09.084Z</time></trkpt><trkpt lat="40.8860583" lon="14.8444667"><ele>335.0</ele><time>2026-04-09T15:41:10.084Z</time></trkpt><trkpt lat="40.88595" lon="14.8445117"><ele>335.1666666666667</ele><time>2026-04-09T15:41:11.084Z</time></trkpt><trkpt lat="40.88585" lon="14.8445483"><ele>335.33333333333337</ele><time>2026-04-09T15:41:12.084Z</time></trkpt><trkpt lat="40.8857667" lon="14.8445833"><ele>335.5</ele><time>2026-04-09T15:41:13.084Z</time></trkpt><trkpt lat="40.8856933" lon="14.8446183"><ele>335.6666666666667</ele><time>2026-04-09T15:41:14.084Z</time></trkpt><trkpt lat="40.885625" lon="14.8446533"><ele>335.8333333333333</ele><time>2026-04-09T15:41:15.084Z</time></trkpt><trkpt lat="40.885565" lon="14.8446883"><ele>336.0</ele><time>2026-04-09T15:41:16.084Z</time></trkpt><trkpt lat="40.8855067" lon="14.8447217"><ele>336.0</ele><time>2026-04-09T15:41:17.084Z</time></trkpt><trkpt lat="40.8854417" lon="14.844755"><ele>336.0</ele><time>2026-04-09T15:41:18.084Z</time></trkpt><trkpt lat="40.885365" lon="14.8448017"><ele>336.0</ele><time>2026-04-09T15:41:19.084Z</time></trkpt><trkpt lat="40.8852733" lon="14.8448567"><ele>336.0</ele><time>2026-04-09T15:41:20.084Z</time></trkpt><trkpt lat="40.8851667" lon="14.8449283"><ele>336.0</ele><time>2026-04-09T15:41:21.084Z</time></trkpt><trkpt lat="40.8850467" lon="14.845005"><ele>336.0</ele><time>2026-04-09T15:41:22.084Z</time></trkpt><trkpt lat="40.8849333" lon="14.84508"><ele>336.0</ele><time>2026-04-09T15:41:23.084Z</time></trkpt><trkpt lat="40.8848167" lon="14.8451567"><ele>336.0</ele><time>2026-04-09T15:41:24.084Z</time></trkpt><trkpt lat="40.8847" lon="14.8452333"><ele>336.0</ele><time>2026-04-09T15:41:25.084Z</time></trkpt><trkpt lat="40.88458" lon="14.845325"><ele>335.6666666666667</ele><time>2026-04-09T15:41:26.084Z</time></trkpt><trkpt lat="40.8844533" lon="14.8454183"><ele>335.33333333333337</ele><time>2026-04-09T15:41:27.084Z</time></trkpt><trkpt lat="40.88432" lon="14.8455183"><ele>335.0</ele><time>2026-04-09T15:41:28.084Z</time></trkpt><trkpt lat="40.8841817" lon="14.8456167"><ele>335.6666666666667</ele><time>2026-04-09T15:41:29.084Z</time></trkpt><trkpt lat="40.8840467" lon="14.8457267"><ele>336.3333333333333</ele><time>2026-04-09T15:41:30.084Z</time></trkpt><trkpt lat="40.8839083" lon="14.8458383"><ele>337.0</ele><time>2026-04-09T15:41:31.084Z</time></trkpt><trkpt lat="40.8837667" lon="14.84596"><ele>337.0</ele><time>2026-04-09T15:41:32.084Z</time></trkpt><trkpt lat="40.883625" lon="14.8460783"><ele>337.0</ele><time>2026-04-09T15:41:33.084Z</time></trkpt><trkpt lat="40.8834817" lon="14.8462133"><ele>337.0</ele><time>2026-04-09T15:41:34.084Z</time></trkpt><trkpt lat="40.8833317" lon="14.846355"><ele>337.0</ele><time>2026-04-09T15:41:35.084Z</time></trkpt><trkpt lat="40.883185" lon="14.8464883"><ele>337.0</ele><time>2026-04-09T15:41:36.084Z</time></trkpt><trkpt lat="40.88304" lon="14.8466117"><ele>337.0</ele><time>2026-04-09T15:41:37.084Z</time></trkpt><trkpt lat="40.8828917" lon="14.8467433"><ele>337.0</ele><time>2026-04-09T15:41:38.084Z</time></trkpt><trkpt lat="40.8827417" lon="14.84688"><ele>337.0</ele><time>2026-04-09T15:41:39.084Z</time></trkpt><trkpt lat="40.8825883" lon="14.847025"><ele>337.0</ele><time>2026-04-09T15:41:40.084Z</time></trkpt><trkpt lat="40.8824333" lon="14.8471717"><ele>338.3333333333333</ele><time>2026-04-09T15:41:41.084Z</time></trkpt><trkpt lat="40.8822767" lon="14.8473167"><ele>339.6666666666667</ele><time>2026-04-09T15:41:42.084Z</time></trkpt><trkpt lat="40.8821167" lon="14.8474583"><ele>341.0</ele><time>2026-04-09T15:41:43.084Z</time></trkpt><trkpt lat="40.88196" lon="14.8476"><ele>341.0</ele><time>2026-04-09T15:41:44.084Z</time></trkpt><trkpt lat="40.8818033" lon="14.8477333"><ele>341.0</ele><time>2026-04-09T15:41:45.084Z</time></trkpt><trkpt lat="40.881665" lon="14.84787"><ele>341.0</ele><time>2026-04-09T15:41:46.084Z</time></trkpt><trkpt lat="40.881525" lon="14.848"><ele>341.6666666666667</ele><time>2026-04-09T15:41:47.084Z</time></trkpt><trkpt lat="40.8813867" lon="14.8481317"><ele>342.3333333333333</ele><time>2026-04-09T15:41:48.084Z</time></trkpt><trkpt lat="40.8812467" lon="14.8482567"><ele>343.0</ele><time>2026-04-09T15:41:49.084Z</time></trkpt><trkpt lat="40.8811067" lon="14.8483883"><ele>343.3333333333333</ele><time>2026-04-09T15:41:50.084Z</time></trkpt><trkpt lat="40.8809683" lon="14.848515"><ele>343.6666666666667</ele><time>2026-04-09T15:41:51.084Z</time></trkpt><trkpt lat="40.8808467" lon="14.84863"><ele>344.0</ele><time>2026-04-09T15:41:52.084Z</time></trkpt><trkpt lat="40.8807283" lon="14.8487433"><ele>344.0</ele><time>2026-04-09T15:41:53.084Z</time></trkpt><trkpt lat="40.8806083" lon="14.84886"><ele>344.0</ele><time>2026-04-09T15:41:54.084Z</time></trkpt><trkpt lat="40.88048" lon="14.8489783"><ele>344.0</ele><time>2026-04-09T15:41:55.084Z</time></trkpt><trkpt lat="40.8803467" lon="14.8491"><ele>344.0</ele><time>2026-04-09T15:41:56.084Z</time></trkpt><trkpt lat="40.8802117" lon="14.8492217"><ele>344.0</ele><time>2026-04-09T15:41:57.084Z</time></trkpt><trkpt lat="40.8800733" lon="14.8493483"><ele>344.0</ele><time>2026-04-09T15:41:58.084Z</time></trkpt><trkpt lat="40.8799283" lon="14.8494617"><ele>344.0</ele><time>2026-04-09T15:41:59.084Z</time></trkpt><trkpt lat="40.8797817" lon="14.8495717"><ele>344.0</ele><time>2026-04-09T15:42:00.084Z</time></trkpt><trkpt lat="40.879625" lon="14.8496867"><ele>344.0</ele><time>2026-04-09T15:42:01.084Z</time></trkpt><trkpt lat="40.8794733" lon="14.8497933"><ele>344.0</ele><time>2026-04-09T15:42:02.084Z</time></trkpt><trkpt lat="40.8793233" lon="14.8498867"><ele>344.0</ele><time>2026-04-09T15:42:03.084Z</time></trkpt><trkpt lat="40.8791733" lon="14.8499833"><ele>344.0</ele><time>2026-04-09T15:42:04.084Z</time></trkpt><trkpt lat="40.8790183" lon="14.8500683"><ele>344.6666666666667</ele><time>2026-04-09T15:42:05.084Z</time></trkpt><trkpt lat="40.8788583" lon="14.8501483"><ele>345.3333333333333</ele><time>2026-04-09T15:42:06.084Z</time></trkpt><trkpt lat="40.878695" lon="14.8502233"><ele>346.0</ele><time>2026-04-09T15:42:07.084Z</time></trkpt><trkpt lat="40.8785333" lon="14.8502917"><ele>346.3333333333333</ele><time>2026-04-09T15:42:08.084Z</time></trkpt><trkpt lat="40.8783717" lon="14.8503583"><ele>346.6666666666667</ele><time>2026-04-09T15:42:09.084Z</time></trkpt><trkpt lat="40.8782033" lon="14.8504217"><ele>347.0</ele><time>2026-04-09T15:42:10.084Z</time></trkpt><trkpt lat="40.87803" lon="14.8504767"><ele>347.0</ele><time>2026-04-09T15:42:11.084Z</time></trkpt><trkpt lat="40.8778617" lon="14.8505117"><ele>347.0</ele><time>2026-04-09T15:42:12.084Z</time></trkpt><trkpt lat="40.877685" lon="14.8505517"><ele>347.0</ele><time>2026-04-09T15:42:13.084Z</time></trkpt><trkpt lat="40.8775117" lon="14.8505933"><ele>348.0</ele><time>2026-04-09T15:42:14.084Z</time></trkpt><trkpt lat="40.87733" lon="14.85063"><ele>349.0</ele><time>2026-04-09T15:42:15.084Z</time></trkpt><trkpt lat="40.877155" lon="14.85066"><ele>350.0</ele><time>2026-04-09T15:42:16.084Z</time></trkpt><trkpt lat="40.8769733" lon="14.8506883"><ele>350.0</ele><time>2026-04-09T15:42:17.084Z</time></trkpt><trkpt lat="40.8767983" lon="14.8507183"><ele>350.0</ele><time>2026-04-09T15:42:18.084Z</time></trkpt><trkpt lat="40.876625" lon="14.85076"><ele>350.0</ele><time>2026-04-09T15:42:19.084Z</time></trkpt><trkpt lat="40.8764483" lon="14.8507967"><ele>350.0</ele><time>2026-04-09T15:42:20.084Z</time></trkpt><trkpt lat="40.8762717" lon="14.8508283"><ele>350.0</ele><time>2026-04-09T15:42:21.084Z</time></trkpt><trkpt lat="40.8760933" lon="14.85087"><ele>350.0</ele><time>2026-04-09T15:42:22.084Z</time></trkpt><trkpt lat="40.8759167" lon="14.8509233"><ele>351.0</ele><time>2026-04-09T15:42:23.084Z</time></trkpt><trkpt lat="40.875735" lon="14.8509833"><ele>352.0</ele><time>2026-04-09T15:42:24.084Z</time></trkpt><trkpt lat="40.8755583" lon="14.85106"><ele>353.0</ele><time>2026-04-09T15:42:25.084Z</time></trkpt><trkpt lat="40.8753767" lon="14.85114"><ele>353.0</ele><time>2026-04-09T15:42:26.084Z</time></trkpt><trkpt lat="40.8751983" lon="14.8512267"><ele>353.0</ele><time>2026-04-09T15:42:27.084Z</time></trkpt><trkpt lat="40.8750183" lon="14.8513233"><ele>353.0</ele><time>2026-04-09T15:42:28.084Z</time></trkpt><trkpt lat="40.8748483" lon="14.8514167"><ele>352.6666666666667</ele><time>2026-04-09T15:42:29.084Z</time></trkpt><trkpt lat="40.8746717" lon="14.8515183"><ele>352.3333333333333</ele><time>2026-04-09T15:42:30.084Z</time></trkpt><trkpt lat="40.8744983" lon="14.8516283"><ele>352.0</ele><time>2026-04-09T15:42:31.084Z</time></trkpt><trkpt lat="40.8743283" lon="14.8517467"><ele>352.66666666666663</ele><time>2026-04-09T15:42:32.084Z</time></trkpt><trkpt lat="40.874155" lon="14.851865"><ele>353.3333333333333</ele><time>2026-04-09T15:42:33.084Z</time></trkpt><trkpt lat="40.8739883" lon="14.8519833"><ele>354.0</ele><time>2026-04-09T15:42:34.084Z</time></trkpt><trkpt lat="40.873825" lon="14.8520867"><ele>354.0</ele><time>2026-04-09T15:42:35.084Z</time></trkpt><trkpt lat="40.8736733" lon="14.852195"><ele>354.0</ele><time>2026-04-09T15:42:36.084Z</time></trkpt><trkpt lat="40.8735267" lon="14.8522983"><ele>354.0</ele><time>2026-04-09T15:42:37.084Z</time></trkpt><trkpt lat="40.873385" lon="14.8523983"><ele>354.0</ele><time>2026-04-09T15:42:38.084Z</time></trkpt><trkpt lat="40.8732417" lon="14.852495"><ele>354.0</ele><time>2026-04-09T15:42:39.084Z</time></trkpt><trkpt lat="40.8730967" lon="14.8525983"><ele>354.0</ele><time>2026-04-09T15:42:40.084Z</time></trkpt><trkpt lat="40.8729533" lon="14.8526983"><ele>354.6666666666667</ele><time>2026-04-09T15:42:41.084Z</time></trkpt><trkpt lat="40.87281" lon="14.852805"><ele>355.33333333333337</ele><time>2026-04-09T15:42:42.084Z</time></trkpt><trkpt lat="40.8726583" lon="14.852905"><ele>356.0</ele><time>2026-04-09T15:42:43.084Z</time></trkpt><trkpt lat="40.8725033" lon="14.85301"><ele>356.0</ele><time>2026-04-09T15:42:44.084Z</time></trkpt><trkpt lat="40.87236" lon="14.8531167"><ele>356.0</ele><time>2026-04-09T15:42:45.084Z</time></trkpt><trkpt lat="40.8722133" lon="14.8532133"><ele>356.0</ele><time>2026-04-09T15:42:46.084Z</time></trkpt><trkpt lat="40.8720733" lon="14.8533117"><ele>356.0</ele><time>2026-04-09T15:42:47.084Z</time></trkpt><trkpt lat="40.8719317" lon="14.8534017"><ele>356.0</ele><time>2026-04-09T15:42:48.084Z</time></trkpt><trkpt lat="40.8717967" lon="14.8535"><ele>356.0</ele><time>2026-04-09T15:42:49.084Z</time></trkpt><trkpt lat="40.8716633" lon="14.853595"><ele>356.6666666666667</ele><time>2026-04-09T15:42:50.084Z</time></trkpt><trkpt lat="40.87153" lon="14.8536917"><ele>357.3333333333333</ele><time>2026-04-09T15:42:51.084Z</time></trkpt><trkpt lat="40.871395" lon="14.8537867"><ele>358.0</ele><time>2026-04-09T15:42:52.084Z</time></trkpt><trkpt lat="40.8712633" lon="14.8538833"><ele>358.0</ele><time>2026-04-09T15:42:53.084Z</time></trkpt><trkpt lat="40.8711317" lon="14.8539783"><ele>358.0</ele><time>2026-04-09T15:42:54.084Z</time></trkpt><trkpt lat="40.8710033" lon="14.8540733"><ele>358.0</ele><time>2026-04-09T15:42:55.084Z</time></trkpt><trkpt lat="40.870875" lon="14.8541683"><ele>358.0</ele><time>2026-04-09T15:42:56.084Z</time></trkpt><trkpt lat="40.8707467" lon="14.85425"><ele>358.25</ele><time>2026-04-09T15:42:57.084Z</time></trkpt><trkpt lat="40.870625" lon="14.8543233"><ele>358.5</ele><time>2026-04-09T15:42:58.084Z</time></trkpt><trkpt lat="40.8705083" lon="14.8543967"><ele>358.75</ele><time>2026-04-09T15:42:59.084Z</time></trkpt><trkpt lat="40.8703917" lon="14.85447"><ele>359.0</ele><time>2026-04-09T15:43:00.084Z</time></trkpt><trkpt lat="40.8702733" lon="14.85455"><ele>359.0</ele><time>2026-04-09T15:43:01.084Z</time></trkpt><trkpt lat="40.8701583" lon="14.8546267"><ele>359.0</ele><time>2026-04-09T15:43:02.084Z</time></trkpt><trkpt lat="40.8700433" lon="14.8547067"><ele>359.0</ele><time>2026-04-09T15:43:03.084Z</time></trkpt><trkpt lat="40.86993" lon="14.8547833"><ele>359.0</ele><time>2026-04-09T15:43:04.084Z</time></trkpt><trkpt lat="40.8698217" lon="14.8548617"><ele>359.0</ele><time>2026-04-09T15:43:05.084Z</time></trkpt><trkpt lat="40.8697083" lon="14.8549367"><ele>359.0</ele><time>2026-04-09T15:43:06.084Z</time></trkpt><trkpt lat="40.8696033" lon="14.855015"><ele>359.0</ele><time>2026-04-09T15:43:07.084Z</time></trkpt><trkpt lat="40.8695033" lon="14.8550933"><ele>359.0</ele><time>2026-04-09T15:43:08.084Z</time></trkpt><trkpt lat="40.869395" lon="14.8551617"><ele>359.25</ele><time>2026-04-09T15:43:09.084Z</time></trkpt><trkpt lat="40.8692867" lon="14.855235"><ele>359.5</ele><time>2026-04-09T15:43:10.084Z</time></trkpt><trkpt lat="40.8691717" lon="14.8553067"><ele>359.75</ele><time>2026-04-09T15:43:11.084Z</time></trkpt><trkpt lat="40.8690583" lon="14.8553767"><ele>360.0</ele><time>2026-04-09T15:43:12.084Z</time></trkpt><trkpt lat="40.8689433" lon="14.855445"><ele>359.5</ele><time>2026-04-09T15:43:13.084Z</time></trkpt><trkpt lat="40.86883" lon="14.8555317"><ele>359.0</ele><time>2026-04-09T15:43:14.084Z</time></trkpt><trkpt lat="40.8687067" lon="14.8556233"><ele>358.5</ele><time>2026-04-09T15:43:15.084Z</time></trkpt><trkpt lat="40.868585" lon="14.855705"><ele>358.0</ele><time>2026-04-09T15:43:16.084Z</time></trkpt><trkpt lat="40.8684633" lon="14.8557867"><ele>358.5</ele><time>2026-04-09T15:43:17.084Z</time></trkpt><trkpt lat="40.868335" lon="14.8558817"><ele>359.0</ele><time>2026-04-09T15:43:18.084Z</time></trkpt><trkpt lat="40.8682067" lon="14.8559767"><ele>359.5</ele><time>2026-04-09T15:43:19.084Z</time></trkpt><trkpt lat="40.8680717" lon="14.856065"><ele>360.0</ele><time>2026-04-09T15:43:20.084Z</time></trkpt><trkpt lat="40.8679433" lon="14.856155"><ele>360.0</ele><time>2026-04-09T15:43:21.084Z</time></trkpt><trkpt lat="40.8678083" lon="14.8562567"><ele>360.0</ele><time>2026-04-09T15:43:22.084Z</time></trkpt><trkpt lat="40.8676583" lon="14.85636"><ele>360.0</ele><time>2026-04-09T15:43:23.084Z</time></trkpt><trkpt lat="40.86751" lon="14.85646"><ele>361.0</ele><time>2026-04-09T15:43:24.084Z</time></trkpt><trkpt lat="40.8673633" lon="14.8565567"><ele>362.0</ele><time>2026-04-09T15:43:25.084Z</time></trkpt><trkpt lat="40.86723" lon="14.8566533"><ele>363.0</ele><time>2026-04-09T15:43:26.084Z</time></trkpt><trkpt lat="40.8671017" lon="14.8567483"><ele>363.0</ele><time>2026-04-09T15:43:27.084Z</time></trkpt><trkpt lat="40.8669633" lon="14.856845"><ele>363.0</ele><time>2026-04-09T15:43:28.084Z</time></trkpt><trkpt lat="40.8668283" lon="14.85694"><ele>363.0</ele><time>2026-04-09T15:43:29.084Z</time></trkpt><trkpt lat="40.866685" lon="14.8570367"><ele>363.0</ele><time>2026-04-09T15:43:30.084Z</time></trkpt><trkpt lat="40.8665433" lon="14.85713"><ele>363.0</ele><time>2026-04-09T15:43:31.084Z</time></trkpt><trkpt lat="40.8664033" lon="14.8572217"><ele>363.0</ele><time>2026-04-09T15:43:32.084Z</time></trkpt><trkpt lat="40.8662667" lon="14.8573167"><ele>363.0</ele><time>2026-04-09T15:43:33.084Z</time></trkpt><trkpt lat="40.8661317" lon="14.8574133"><ele>363.0</ele><time>2026-04-09T15:43:34.084Z</time></trkpt><trkpt lat="40.866" lon="14.8575067"><ele>363.0</ele><time>2026-04-09T15:43:35.084Z</time></trkpt><trkpt lat="40.8658717" lon="14.8575933"><ele>363.0</ele><time>2026-04-09T15:43:36.084Z</time></trkpt><trkpt lat="40.8657467" lon="14.8576767"><ele>364.5</ele><time>2026-04-09T15:43:37.084Z</time></trkpt><trkpt lat="40.8656183" lon="14.8577667"><ele>366.0</ele><time>2026-04-09T15:43:38.084Z</time></trkpt><trkpt lat="40.8654833" lon="14.857855"><ele>367.5</ele><time>2026-04-09T15:43:39.084Z</time></trkpt><trkpt lat="40.8653567" lon="14.85795"><ele>369.0</ele><time>2026-04-09T15:43:40.084Z</time></trkpt><trkpt lat="40.86522" lon="14.8580483"><ele>369.0</ele><time>2026-04-09T15:43:41.084Z</time></trkpt><trkpt lat="40.865075" lon="14.858145"><ele>369.0</ele><time>2026-04-09T15:43:42.084Z</time></trkpt><trkpt lat="40.8649333" lon="14.8582517"><ele>369.0</ele><time>2026-04-09T15:43:43.084Z</time></trkpt><trkpt lat="40.8647883" lon="14.8583483"><ele>369.0</ele><time>2026-04-09T15:43:44.084Z</time></trkpt><trkpt lat="40.8646517" lon="14.8584417"><ele>369.0</ele><time>2026-04-09T15:43:45.084Z</time></trkpt><trkpt lat="40.864525" lon="14.8585317"><ele>369.0</ele><time>2026-04-09T15:43:46.084Z</time></trkpt><trkpt lat="40.8643983" lon="14.85862"><ele>369.0</ele><time>2026-04-09T15:43:47.084Z</time></trkpt><trkpt lat="40.8642583" lon="14.8587133"><ele>371.0</ele><time>2026-04-09T15:43:48.084Z</time></trkpt><trkpt lat="40.86412" lon="14.858805"><ele>373.0</ele><time>2026-04-09T15:43:49.084Z</time></trkpt><trkpt lat="40.863985" lon="14.8588883"><ele>375.0</ele><time>2026-04-09T15:43:50.084Z</time></trkpt><trkpt lat="40.8638433" lon="14.8589667"><ele>375.0</ele><time>2026-04-09T15:43:51.084Z</time></trkpt><trkpt lat="40.863715" lon="14.8590333"><ele>375.0</ele><time>2026-04-09T15:43:52.084Z</time></trkpt><trkpt lat="40.863585" lon="14.85909"><ele>375.0</ele><time>2026-04-09T15:43:53.084Z</time></trkpt><trkpt lat="40.863445" lon="14.8591483"><ele>375.0</ele><time>2026-04-09T15:43:54.084Z</time></trkpt><trkpt lat="40.8633017" lon="14.8592"><ele>375.0</ele><time>2026-04-09T15:43:55.084Z</time></trkpt><trkpt lat="40.8631533" lon="14.8592533"><ele>375.0</ele><time>2026-04-09T15:43:56.084Z</time></trkpt><trkpt lat="40.863005" lon="14.8593017"><ele>375.0</ele><time>2026-04-09T15:43:57.084Z</time></trkpt><trkpt lat="40.8628467" lon="14.8593483"><ele>375.0</ele><time>2026-04-09T15:43:58.084Z</time></trkpt><trkpt lat="40.8626933" lon="14.859385"><ele>375.0</ele><time>2026-04-09T15:43:59.084Z</time></trkpt><trkpt lat="40.8625433" lon="14.8594183"><ele>375.0</ele><time>2026-04-09T15:44:00.084Z</time></trkpt><trkpt lat="40.8623967" lon="14.8594467"><ele>374.3333333333333</ele><time>2026-04-09T15:44:01.084Z</time></trkpt><trkpt lat="40.862245" lon="14.8594683"><ele>373.66666666666663</ele><time>2026-04-09T15:44:02.084Z</time></trkpt><trkpt lat="40.8620883" lon="14.8594817"><ele>373.0</ele><time>2026-04-09T15:44:03.084Z</time></trkpt><trkpt lat="40.8619383" lon="14.85949"><ele>373.0</ele><time>2026-04-09T15:44:04.084Z</time></trkpt><trkpt lat="40.8617933" lon="14.8594933"><ele>373.0</ele><time>2026-04-09T15:44:05.084Z</time></trkpt><trkpt lat="40.861655" lon="14.8594967"><ele>373.0</ele><time>2026-04-09T15:44:06.084Z</time></trkpt><trkpt lat="40.8615167" lon="14.8594933"><ele>373.0</ele><time>2026-04-09T15:44:07.084Z</time></trkpt><trkpt lat="40.8613817" lon="14.8594917"><ele>373.0</ele><time>2026-04-09T15:44:08.084Z</time></trkpt><trkpt lat="40.86124" lon="14.8594817"><ele>373.0</ele><time>2026-04-09T15:44:09.084Z</time></trkpt><trkpt lat="40.861095" lon="14.85947"><ele>373.0</ele><time>2026-04-09T15:44:10.084Z</time></trkpt><trkpt lat="40.86095" lon="14.8594433"><ele>373.0</ele><time>2026-04-09T15:44:11.084Z</time></trkpt><trkpt lat="40.8608083" lon="14.8594233"><ele>373.75</ele><time>2026-04-09T15:44:12.084Z</time></trkpt><trkpt lat="40.860665" lon="14.8593917"><ele>374.5</ele><time>2026-04-09T15:44:13.084Z</time></trkpt><trkpt lat="40.8605183" lon="14.859355"><ele>375.25</ele><time>2026-04-09T15:44:14.084Z</time></trkpt><trkpt lat="40.86037" lon="14.8593067"><ele>376.0</ele><time>2026-04-09T15:44:15.084Z</time></trkpt><trkpt lat="40.8602317" lon="14.8592633"><ele>376.25</ele><time>2026-04-09T15:44:16.084Z</time></trkpt><trkpt lat="40.8601" lon="14.8592233"><ele>376.5</ele><time>2026-04-09T15:44:17.084Z</time></trkpt><trkpt lat="40.8599717" lon="14.859175"><ele>376.75</ele><time>2026-04-09T15:44:18.084Z</time></trkpt><trkpt lat="40.8598483" lon="14.859135"><ele>377.0</ele><time>2026-04-09T15:44:19.084Z</time></trkpt><trkpt lat="40.8597283" lon="14.8590883"><ele>377.0</ele><time>2026-04-09T15:44:20.084Z</time></trkpt><trkpt lat="40.8596" lon="14.8590417"><ele>377.0</ele><time>2026-04-09T15:44:21.084Z</time></trkpt><trkpt lat="40.85947" lon="14.8589883"><ele>377.0</ele><time>2026-04-09T15:44:22.084Z</time></trkpt><trkpt lat="40.8593383" lon="14.858935"><ele>377.0</ele><time>2026-04-09T15:44:23.084Z</time></trkpt><trkpt lat="40.8592017" lon="14.858885"><ele>378.0</ele><time>2026-04-09T15:44:24.084Z</time></trkpt><trkpt lat="40.8590633" lon="14.8588317"><ele>379.0</ele><time>2026-04-09T15:44:25.084Z</time></trkpt><trkpt lat="40.8589267" lon="14.8587833"><ele>380.0</ele><time>2026-04-09T15:44:26.084Z</time></trkpt><trkpt lat="40.8587883" lon="14.8587317"><ele>381.0</ele><time>2026-04-09T15:44:27.084Z</time></trkpt><trkpt lat="40.8586533" lon="14.8586783"><ele>381.0</ele><time>2026-04-09T15:44:28.084Z</time></trkpt><trkpt lat="40.8585267" lon="14.8586233"><ele>381.0</ele><time>2026-04-09T15:44:29.084Z</time></trkpt><trkpt lat="40.858405" lon="14.85857"><ele>381.0</ele><time>2026-04-09T15:44:30.084Z</time></trkpt><trkpt lat="40.8582783" lon="14.8585167"><ele>381.0</ele><time>2026-04-09T15:44:31.084Z</time></trkpt><trkpt lat="40.8581583" lon="14.858465"><ele>381.5</ele><time>2026-04-09T15:44:32.084Z</time></trkpt><trkpt lat="40.858035" lon="14.8584217"><ele>382.0</ele><time>2026-04-09T15:44:33.084Z</time></trkpt><trkpt lat="40.8579117" lon="14.8583717"><ele>382.5</ele><time>2026-04-09T15:44:34.084Z</time></trkpt><trkpt lat="40.85779" lon="14.8583283"><ele>383.0</ele><time>2026-04-09T15:44:35.084Z</time></trkpt><trkpt lat="40.85767" lon="14.858285"><ele>383.5</ele><time>2026-04-09T15:44:36.084Z</time></trkpt><trkpt lat="40.85755" lon="14.8582367"><ele>384.0</ele><time>2026-04-09T15:44:37.084Z</time></trkpt><trkpt lat="40.85743" lon="14.8581833"><ele>384.5</ele><time>2026-04-09T15:44:38.084Z</time></trkpt><trkpt lat="40.85731" lon="14.8581367"><ele>385.0</ele><time>2026-04-09T15:44:39.084Z</time></trkpt><trkpt lat="40.8571967" lon="14.85809"><ele>385.0</ele><time>2026-04-09T15:44:40.084Z</time></trkpt><trkpt lat="40.8570867" lon="14.858035"><ele>385.0</ele><time>2026-04-09T15:44:41.084Z</time></trkpt><trkpt lat="40.8569683" lon="14.8579833"><ele>385.0</ele><time>2026-04-09T15:44:42.084Z</time></trkpt><trkpt lat="40.8568483" lon="14.857935"><ele>385.0</ele><time>2026-04-09T15:44:43.084Z</time></trkpt><trkpt lat="40.8567333" lon="14.85789"><ele>385.6</ele><time>2026-04-09T15:44:44.084Z</time></trkpt><trkpt lat="40.8566217" lon="14.8578483"><ele>386.2</ele><time>2026-04-09T15:44:45.084Z</time></trkpt><trkpt lat="40.8565183" lon="14.8578083"><ele>386.79999999999995</ele><time>2026-04-09T15:44:46.084Z</time></trkpt><trkpt lat="40.8564183" lon="14.8577633"><ele>387.4</ele><time>2026-04-09T15:44:47.084Z</time></trkpt><trkpt lat="40.8563267" lon="14.8577233"><ele>388.0</ele><time>2026-04-09T15:44:48.084Z</time></trkpt><trkpt lat="40.856235" lon="14.85769"><ele>388.0</ele><time>2026-04-09T15:44:49.084Z</time></trkpt><trkpt lat="40.8561383" lon="14.857665"><ele>388.0</ele><time>2026-04-09T15:44:50.084Z</time></trkpt><trkpt lat="40.8560467" lon="14.8576433"><ele>388.0</ele><time>2026-04-09T15:44:51.084Z</time></trkpt><trkpt lat="40.8559517" lon="14.85763"><ele>388.0</ele><time>2026-04-09T15:44:52.084Z</time></trkpt><trkpt lat="40.855855" lon="14.85761"><ele>388.0</ele><time>2026-04-09T15:44:53.084Z</time></trkpt><trkpt lat="40.855755" lon="14.857575"><ele>389.75</ele><time>2026-04-09T15:44:54.085Z</time></trkpt><trkpt lat="40.8556533" lon="14.8575333"><ele>391.5</ele><time>2026-04-09T15:44:55.084Z</time></trkpt><trkpt lat="40.855545" lon="14.857485"><ele>393.25</ele><time>2026-04-09T15:44:56.084Z</time></trkpt><trkpt lat="40.8554367" lon="14.8574317"><ele>395.0</ele><time>2026-04-09T15:44:57.084Z</time></trkpt><trkpt lat="40.85533" lon="14.8573733"><ele>395.0</ele><time>2026-04-09T15:44:58.084Z</time></trkpt><trkpt lat="40.8552217" lon="14.8573117"><ele>395.0</ele><time>2026-04-09T15:44:59.084Z</time></trkpt><trkpt lat="40.8551183" lon="14.85725"><ele>395.0</ele><time>2026-04-09T15:45:00.084Z</time></trkpt><trkpt lat="40.85502" lon="14.8571917"><ele>395.0</ele><time>2026-04-09T15:45:01.084Z</time></trkpt><trkpt lat="40.8549233" lon="14.8571367"><ele>395.0</ele><time>2026-04-09T15:45:02.084Z</time></trkpt><trkpt lat="40.8548217" lon="14.857075"><ele>395.75</ele><time>2026-04-09T15:45:03.084Z</time></trkpt><trkpt lat="40.8547167" lon="14.8570083"><ele>396.5</ele><time>2026-04-09T15:45:04.084Z</time></trkpt><trkpt lat="40.8546133" lon="14.8569433"><ele>397.25</ele><time>2026-04-09T15:45:05.084Z</time></trkpt><trkpt lat="40.8545083" lon="14.856865"><ele>398.0</ele><time>2026-04-09T15:45:06.084Z</time></trkpt><trkpt lat="40.8544033" lon="14.8567933"><ele>398.75</ele><time>2026-04-09T15:45:07.084Z</time></trkpt><trkpt lat="40.8542933" lon="14.8567167"><ele>399.5</ele><time>2026-04-09T15:45:08.084Z</time></trkpt><trkpt lat="40.8541883" lon="14.8566467"><ele>400.25</ele><time>2026-04-09T15:45:09.084Z</time></trkpt><trkpt lat="40.85409" lon="14.85658"><ele>401.0</ele><time>2026-04-09T15:45:10.084Z</time></trkpt><trkpt lat="40.8539967" lon="14.8565067"><ele>402.0</ele><time>2026-04-09T15:45:11.084Z</time></trkpt><trkpt lat="40.8539017" lon="14.856455"><ele>403.0</ele><time>2026-04-09T15:45:12.084Z</time></trkpt><trkpt lat="40.8538033" lon="14.856385"><ele>404.0</ele><time>2026-04-09T15:45:13.084Z</time></trkpt><trkpt lat="40.8537083" lon="14.8563133"><ele>405.0</ele><time>2026-04-09T15:45:14.084Z</time></trkpt><trkpt lat="40.853615" lon="14.8562417"><ele>406.0</ele><time>2026-04-09T15:45:15.084Z</time></trkpt><trkpt lat="40.8535233" lon="14.85617"><ele>384.0</ele><time>2026-04-09T15:45:16.084Z</time></trkpt><trkpt lat="40.8370967" lon="14.8413617"><ele>383.99999999999994</ele><time>2026-04-09T15:48:09.084Z</time></trkpt><trkpt lat="40.8370283" lon="14.8413383"><ele>384.0</ele><time>2026-04-09T15:48:11.084Z</time></trkpt><trkpt lat="40.8369667" lon="14.8412783"><ele>384.0</ele><time>2026-04-09T15:48:12.084Z</time></trkpt><trkpt lat="40.8369033" lon="14.8412083"><ele>384.0</ele><time>2026-04-09T15:48:13.084Z</time></trkpt><trkpt lat="40.8368533" lon="14.8411433"><ele>384.0</ele><time>2026-04-09T15:48:14.084Z</time></trkpt><trkpt lat="40.8368067" lon="14.8410717"><ele>383.99999999999994</ele><time>2026-04-09T15:48:15.084Z</time></trkpt><trkpt lat="40.8367633" lon="14.8409883"><ele>384.0</ele><time>2026-04-09T15:48:16.084Z</time></trkpt><trkpt lat="40.83673" lon="14.8408883"><ele>379.79999999999995</ele><time>2026-04-09T15:48:17.084Z</time></trkpt><trkpt lat="40.836695" lon="14.8407917"><ele>375.59999999999997</ele><time>2026-04-09T15:48:18.084Z</time></trkpt><trkpt lat="40.8366433" lon="14.8406967"><ele>371.4</ele><time>2026-04-09T15:48:19.084Z</time></trkpt><trkpt lat="40.8365867" lon="14.8405917"><ele>367.2</ele><time>2026-04-09T15:48:20.084Z</time></trkpt><trkpt lat="40.8365117" lon="14.840495"><ele>363.0</ele><time>2026-04-09T15:48:21.085Z</time></trkpt><trkpt lat="40.8364183" lon="14.8404"><ele>363.0</ele><time>2026-04-09T15:48:22.084Z</time></trkpt><trkpt lat="40.8363133" lon="14.8402983"><ele>363.0</ele><time>2026-04-09T15:48:23.084Z</time></trkpt><trkpt lat="40.8362083" lon="14.8402"><ele>363.0</ele><time>2026-04-09T15:48:24.084Z</time></trkpt><trkpt lat="40.83609" lon="14.8401"><ele>363.0</ele><time>2026-04-09T15:48:25.084Z</time></trkpt><trkpt lat="40.83597" lon="14.8399933"><ele>362.25</ele><time>2026-04-09T15:48:26.084Z</time></trkpt><trkpt lat="40.83585" lon="14.8398783"><ele>361.5</ele><time>2026-04-09T15:48:27.084Z</time></trkpt><trkpt lat="40.8357333" lon="14.8397667"><ele>360.75</ele><time>2026-04-09T15:48:28.084Z</time></trkpt><trkpt lat="40.835625" lon="14.83965"><ele>360.0</ele><time>2026-04-09T15:48:29.084Z</time></trkpt><trkpt lat="40.835515" lon="14.839525"><ele>360.0</ele><time>2026-04-09T15:48:30.084Z</time></trkpt><trkpt lat="40.8354033" lon="14.8393817"><ele>360.0</ele><time>2026-04-09T15:48:31.084Z</time></trkpt><trkpt lat="40.835285" lon="14.8392167"><ele>360.0</ele><time>2026-04-09T15:48:32.084Z</time></trkpt><trkpt lat="40.8351683" lon="14.839045"><ele>359.0</ele><time>2026-04-09T15:48:33.084Z</time></trkpt><trkpt lat="40.8350483" lon="14.8388683"><ele>358.0</ele><time>2026-04-09T15:48:34.084Z</time></trkpt><trkpt lat="40.834925" lon="14.8386767"><ele>357.0</ele><time>2026-04-09T15:48:35.084Z</time></trkpt><trkpt lat="40.834805" lon="14.8384767"><ele>355.6666666666667</ele><time>2026-04-09T15:48:36.084Z</time></trkpt><trkpt lat="40.834695" lon="14.8382633"><ele>354.33333333333337</ele><time>2026-04-09T15:48:37.084Z</time></trkpt><trkpt lat="40.8345883" lon="14.8380417"><ele>353.0</ele><time>2026-04-09T15:48:38.084Z</time></trkpt><trkpt lat="40.83449" lon="14.8378167"><ele>352.6666666666667</ele><time>2026-04-09T15:48:39.084Z</time></trkpt><trkpt lat="40.8343983" lon="14.8376"><ele>352.3333333333333</ele><time>2026-04-09T15:48:40.084Z</time></trkpt><trkpt lat="40.83431" lon="14.8373817"><ele>352.0</ele><time>2026-04-09T15:48:41.084Z</time></trkpt><trkpt lat="40.8342267" lon="14.8371717"><ele>351.66666666666663</ele><time>2026-04-09T15:48:42.084Z</time></trkpt><trkpt lat="40.8341517" lon="14.836945"><ele>351.3333333333333</ele><time>2026-04-09T15:48:43.084Z</time></trkpt><trkpt lat="40.8340817" lon="14.83673"><ele>351.0</ele><time>2026-04-09T15:48:44.084Z</time></trkpt><trkpt lat="40.8340167" lon="14.836505"><ele>350.3333333333333</ele><time>2026-04-09T15:48:45.084Z</time></trkpt><trkpt lat="40.8339583" lon="14.8362817"><ele>349.66666666666663</ele><time>2026-04-09T15:48:46.084Z</time></trkpt><trkpt lat="40.8339" lon="14.8360517"><ele>349.0</ele><time>2026-04-09T15:48:47.084Z</time></trkpt><trkpt lat="40.8338467" lon="14.83581"><ele>349.0</ele><time>2026-04-09T15:48:48.084Z</time></trkpt><trkpt lat="40.8337967" lon="14.8355717"><ele>349.0</ele><time>2026-04-09T15:48:49.084Z</time></trkpt><trkpt lat="40.83376" lon="14.8353333"><ele>349.0</ele><time>2026-04-09T15:48:50.084Z</time></trkpt><trkpt lat="40.83373" lon="14.83509"><ele>349.0</ele><time>2026-04-09T15:48:51.084Z</time></trkpt><trkpt lat="40.8337033" lon="14.83485"><ele>349.0</ele><time>2026-04-09T15:48:52.084Z</time></trkpt><trkpt lat="40.8336833" lon="14.8346017"><ele>349.0</ele><time>2026-04-09T15:48:53.084Z</time></trkpt><trkpt lat="40.8336717" lon="14.8343567"><ele>346.0</ele><time>2026-04-09T15:48:54.084Z</time></trkpt><trkpt lat="40.8336617" lon="14.8341117"><ele>343.0</ele><time>2026-04-09T15:48:55.084Z</time></trkpt><trkpt lat="40.83366" lon="14.8338667"><ele>340.0</ele><time>2026-04-09T15:48:56.084Z</time></trkpt><trkpt lat="40.833665" lon="14.8336217"><ele>337.66666666666663</ele><time>2026-04-09T15:48:57.084Z</time></trkpt><trkpt lat="40.8336683" lon="14.8333783"><ele>335.3333333333333</ele><time>2026-04-09T15:48:58.084Z</time></trkpt><trkpt lat="40.8336733" lon="14.8331333"><ele>333.0</ele><time>2026-04-09T15:48:59.084Z</time></trkpt><trkpt lat="40.83368" lon="14.83289"><ele>333.0</ele><time>2026-04-09T15:49:00.084Z</time></trkpt><trkpt lat="40.83369" lon="14.832645"><ele>333.0</ele><time>2026-04-09T15:49:01.084Z</time></trkpt><trkpt lat="40.8337067" lon="14.8323933"><ele>333.0</ele><time>2026-04-09T15:49:02.084Z</time></trkpt><trkpt lat="40.833725" lon="14.8321417"><ele>332.0</ele><time>2026-04-09T15:49:03.084Z</time></trkpt><trkpt lat="40.8337433" lon="14.831885"><ele>331.0</ele><time>2026-04-09T15:49:04.084Z</time></trkpt><trkpt lat="40.83376" lon="14.8316367"><ele>330.0</ele><time>2026-04-09T15:49:05.084Z</time></trkpt><trkpt lat="40.833775" lon="14.8313817"><ele>329.3333333333333</ele><time>2026-04-09T15:49:06.084Z</time></trkpt><trkpt lat="40.8337917" lon="14.8311317"><ele>328.66666666666663</ele><time>2026-04-09T15:49:07.084Z</time></trkpt><trkpt lat="40.83381" lon="14.8308767"><ele>328.0</ele><time>2026-04-09T15:49:08.084Z</time></trkpt><trkpt lat="40.8338283" lon="14.830625"><ele>326.66666666666663</ele><time>2026-04-09T15:49:09.084Z</time></trkpt><trkpt lat="40.8338433" lon="14.8303633"><ele>325.3333333333333</ele><time>2026-04-09T15:49:10.084Z</time></trkpt><trkpt lat="40.833865" lon="14.8301083"><ele>324.0</ele><time>2026-04-09T15:49:11.084Z</time></trkpt><trkpt lat="40.83388" lon="14.8298533"><ele>323.3333333333333</ele><time>2026-04-09T15:49:12.084Z</time></trkpt><trkpt lat="40.8339" lon="14.8295967"><ele>322.66666666666663</ele><time>2026-04-09T15:49:13.084Z</time></trkpt><trkpt lat="40.833915" lon="14.8293433"><ele>322.0</ele><time>2026-04-09T15:49:14.084Z</time></trkpt><trkpt lat="40.833935" lon="14.8290917"><ele>321.66666666666663</ele><time>2026-04-09T15:49:15.084Z</time></trkpt><trkpt lat="40.8339517" lon="14.8288483"><ele>321.3333333333333</ele><time>2026-04-09T15:49:16.084Z</time></trkpt><trkpt lat="40.83397" lon="14.8286017"><ele>321.0</ele><time>2026-04-09T15:49:17.084Z</time></trkpt><trkpt lat="40.8339833" lon="14.8283417"><ele>320.3333333333333</ele><time>2026-04-09T15:49:18.084Z</time></trkpt><trkpt lat="40.8339917" lon="14.8280883"><ele>319.66666666666663</ele><time>2026-04-09T15:49:19.084Z</time></trkpt><trkpt lat="40.8339917" lon="14.8278317"><ele>319.0</ele><time>2026-04-09T15:49:20.084Z</time></trkpt><trkpt lat="40.833995" lon="14.8275817"><ele>318.0</ele><time>2026-04-09T15:49:21.084Z</time></trkpt><trkpt lat="40.8339933" lon="14.8273267"><ele>317.0</ele><time>2026-04-09T15:49:22.084Z</time></trkpt><trkpt lat="40.8339883" lon="14.827075"><ele>316.0</ele><time>2026-04-09T15:49:23.084Z</time></trkpt><trkpt lat="40.8339783" lon="14.82681"><ele>315.66666666666663</ele><time>2026-04-09T15:49:24.084Z</time></trkpt><trkpt lat="40.8339583" lon="14.8265483"><ele>315.3333333333333</ele><time>2026-04-09T15:49:25.084Z</time></trkpt><trkpt lat="40.83394" lon="14.8262867"><ele>315.0</ele><time>2026-04-09T15:49:26.084Z</time></trkpt><trkpt lat="40.8339133" lon="14.8260217"><ele>313.6666666666667</ele><time>2026-04-09T15:49:27.084Z</time></trkpt><trkpt lat="40.8338833" lon="14.82577"><ele>312.33333333333337</ele><time>2026-04-09T15:49:28.084Z</time></trkpt><trkpt lat="40.83385" lon="14.8255267"><ele>311.0</ele><time>2026-04-09T15:49:29.084Z</time></trkpt><trkpt lat="40.833815" lon="14.8252833"><ele>311.0</ele><time>2026-04-09T15:49:30.084Z</time></trkpt><trkpt lat="40.8337733" lon="14.82504"><ele>311.0</ele><time>2026-04-09T15:49:31.084Z</time></trkpt><trkpt lat="40.8337283" lon="14.82479"><ele>311.0</ele><time>2026-04-09T15:49:32.084Z</time></trkpt><trkpt lat="40.83368" lon="14.824545"><ele>310.6666666666667</ele><time>2026-04-09T15:49:33.084Z</time></trkpt><trkpt lat="40.83363" lon="14.8243033"><ele>310.3333333333333</ele><time>2026-04-09T15:49:34.084Z</time></trkpt><trkpt lat="40.8335717" lon="14.8240633"><ele>310.0</ele><time>2026-04-09T15:49:35.084Z</time></trkpt><trkpt lat="40.8335117" lon="14.8238233"><ele>309.0</ele><time>2026-04-09T15:49:36.084Z</time></trkpt><trkpt lat="40.83344" lon="14.8235833"><ele>308.0</ele><time>2026-04-09T15:49:37.084Z</time></trkpt><trkpt lat="40.8333683" lon="14.8233367"><ele>307.0</ele><time>2026-04-09T15:49:38.084Z</time></trkpt><trkpt lat="40.8332983" lon="14.823095"><ele>306.3333333333333</ele><time>2026-04-09T15:49:39.084Z</time></trkpt><trkpt lat="40.833225" lon="14.822865"><ele>305.6666666666667</ele><time>2026-04-09T15:49:40.084Z</time></trkpt><trkpt lat="40.833145" lon="14.82264"><ele>305.0</ele><time>2026-04-09T15:49:41.084Z</time></trkpt><trkpt lat="40.833065" lon="14.822415"><ele>304.0</ele><time>2026-04-09T15:49:42.084Z</time></trkpt><trkpt lat="40.83298" lon="14.82219"><ele>303.0</ele><time>2026-04-09T15:49:43.084Z</time></trkpt><trkpt lat="40.832885" lon="14.821965"><ele>302.0</ele><time>2026-04-09T15:49:44.084Z</time></trkpt><trkpt lat="40.83279" lon="14.82174"><ele>301.0</ele><time>2026-04-09T15:49:45.084Z</time></trkpt><trkpt lat="40.8326933" lon="14.821515"><ele>300.0</ele><time>2026-04-09T15:49:46.084Z</time></trkpt><trkpt lat="40.8325867" lon="14.8212933"><ele>299.0</ele><time>2026-04-09T15:49:47.084Z</time></trkpt><trkpt lat="40.832475" lon="14.821075"><ele>298.0</ele><time>2026-04-09T15:49:48.084Z</time></trkpt><trkpt lat="40.8323633" lon="14.8208567"><ele>297.0</ele><time>2026-04-09T15:49:49.084Z</time></trkpt><trkpt lat="40.832245" lon="14.820645"><ele>296.0</ele><time>2026-04-09T15:49:50.084Z</time></trkpt><trkpt lat="40.8321217" lon="14.8204317"><ele>296.0</ele><time>2026-04-09T15:49:51.084Z</time></trkpt><trkpt lat="40.8319967" lon="14.820225"><ele>296.0</ele><time>2026-04-09T15:49:52.084Z</time></trkpt><trkpt lat="40.8318683" lon="14.8200133"><ele>296.0</ele><time>2026-04-09T15:49:53.084Z</time></trkpt><trkpt lat="40.8317367" lon="14.819815"><ele>295.33333333333337</ele><time>2026-04-09T15:49:54.084Z</time></trkpt><trkpt lat="40.8316033" lon="14.819625"><ele>294.6666666666667</ele><time>2026-04-09T15:49:55.084Z</time></trkpt><trkpt lat="40.8314683" lon="14.8194383"><ele>294.0</ele><time>2026-04-09T15:49:56.084Z</time></trkpt><trkpt lat="40.8313283" lon="14.819255"><ele>293.6666666666667</ele><time>2026-04-09T15:49:57.084Z</time></trkpt><trkpt lat="40.8311933" lon="14.819065"><ele>293.33333333333337</ele><time>2026-04-09T15:49:58.084Z</time></trkpt><trkpt lat="40.8310533" lon="14.818875"><ele>293.0</ele><time>2026-04-09T15:49:59.084Z</time></trkpt><trkpt lat="40.8309133" lon="14.8186733"><ele>291.0</ele><time>2026-04-09T15:50:00.084Z</time></trkpt><trkpt lat="40.83077" lon="14.81848"><ele>289.0</ele><time>2026-04-09T15:50:01.084Z</time></trkpt><trkpt lat="40.8306283" lon="14.8182867"><ele>287.0</ele><time>2026-04-09T15:50:02.084Z</time></trkpt><trkpt lat="40.8304817" lon="14.818095"><ele>287.0</ele><time>2026-04-09T15:50:03.084Z</time></trkpt><trkpt lat="40.8303383" lon="14.8179"><ele>287.0</ele><time>2026-04-09T15:50:04.084Z</time></trkpt><trkpt lat="40.8302033" lon="14.81771"><ele>287.0</ele><time>2026-04-09T15:50:05.084Z</time></trkpt><trkpt lat="40.8300617" lon="14.8175183"><ele>286.6666666666667</ele><time>2026-04-09T15:50:06.084Z</time></trkpt><trkpt lat="40.829925" lon="14.8173383"><ele>286.3333333333333</ele><time>2026-04-09T15:50:07.084Z</time></trkpt><trkpt lat="40.829785" lon="14.8171517"><ele>286.0</ele><time>2026-04-09T15:50:08.084Z</time></trkpt><trkpt lat="40.8296467" lon="14.8169733"><ele>285.66666666666663</ele><time>2026-04-09T15:50:09.084Z</time></trkpt><trkpt lat="40.829515" lon="14.8167883"><ele>285.3333333333333</ele><time>2026-04-09T15:50:10.084Z</time></trkpt><trkpt lat="40.82939" lon="14.8166217"><ele>285.0</ele><time>2026-04-09T15:50:11.084Z</time></trkpt><trkpt lat="40.8292667" lon="14.8164467"><ele>285.0</ele><time>2026-04-09T15:50:12.084Z</time></trkpt><trkpt lat="40.829145" lon="14.8162717"><ele>285.0</ele><time>2026-04-09T15:50:13.084Z</time></trkpt><trkpt lat="40.8290217" lon="14.8161"><ele>285.0</ele><time>2026-04-09T15:50:14.084Z</time></trkpt><trkpt lat="40.828895" lon="14.8159233"><ele>284.6666666666667</ele><time>2026-04-09T15:50:15.084Z</time></trkpt><trkpt lat="40.82877" lon="14.8157517"><ele>284.33333333333337</ele><time>2026-04-09T15:50:16.084Z</time></trkpt><trkpt lat="40.8286417" lon="14.815585"><ele>284.0</ele><time>2026-04-09T15:50:17.084Z</time></trkpt><trkpt lat="40.82851" lon="14.8154067"><ele>284.33333333333337</ele><time>2026-04-09T15:50:18.084Z</time></trkpt><trkpt lat="40.82838" lon="14.8152333"><ele>284.6666666666667</ele><time>2026-04-09T15:50:19.084Z</time></trkpt><trkpt lat="40.8282533" lon="14.8150617"><ele>285.0</ele><time>2026-04-09T15:50:20.084Z</time></trkpt><trkpt lat="40.8281233" lon="14.8148883"><ele>283.6666666666667</ele><time>2026-04-09T15:50:21.084Z</time></trkpt><trkpt lat="40.827995" lon="14.8147167"><ele>282.33333333333337</ele><time>2026-04-09T15:50:22.084Z</time></trkpt><trkpt lat="40.8278667" lon="14.814535"><ele>281.0</ele><time>2026-04-09T15:50:23.084Z</time></trkpt><trkpt lat="40.8277383" lon="14.8143667"><ele>279.6666666666667</ele><time>2026-04-09T15:50:24.084Z</time></trkpt><trkpt lat="40.8276183" lon="14.8142017"><ele>278.3333333333333</ele><time>2026-04-09T15:50:25.084Z</time></trkpt><trkpt lat="40.827495" lon="14.814035"><ele>277.0</ele><time>2026-04-09T15:50:26.084Z</time></trkpt><trkpt lat="40.827375" lon="14.813865"><ele>277.0</ele><time>2026-04-09T15:50:27.084Z</time></trkpt><trkpt lat="40.82725" lon="14.8136917"><ele>277.0</ele><time>2026-04-09T15:50:28.084Z</time></trkpt><trkpt lat="40.827135" lon="14.8135183"><ele>277.0</ele><time>2026-04-09T15:50:29.084Z</time></trkpt><trkpt lat="40.82702" lon="14.8133517"><ele>276.3333333333333</ele><time>2026-04-09T15:50:30.084Z</time></trkpt><trkpt lat="40.8269" lon="14.8131883"><ele>275.6666666666667</ele><time>2026-04-09T15:50:31.084Z</time></trkpt><trkpt lat="40.8267783" lon="14.813035"><ele>275.0</ele><time>2026-04-09T15:50:32.084Z</time></trkpt><trkpt lat="40.8266583" lon="14.8128733"><ele>275.0</ele><time>2026-04-09T15:50:33.084Z</time></trkpt><trkpt lat="40.8265383" lon="14.8127133"><ele>275.0</ele><time>2026-04-09T15:50:34.084Z</time></trkpt><trkpt lat="40.8264083" lon="14.8125433"><ele>275.0</ele><time>2026-04-09T15:50:35.084Z</time></trkpt><trkpt lat="40.8262833" lon="14.8123733"><ele>274.6666666666667</ele><time>2026-04-09T15:50:36.084Z</time></trkpt><trkpt lat="40.8261633" lon="14.8121967"><ele>274.3333333333333</ele><time>2026-04-09T15:50:37.084Z</time></trkpt><trkpt lat="40.8260333" lon="14.8120133"><ele>274.0</ele><time>2026-04-09T15:50:38.084Z</time></trkpt><trkpt lat="40.8259033" lon="14.8118267"><ele>274.0</ele><time>2026-04-09T15:50:39.084Z</time></trkpt><trkpt lat="40.8257667" lon="14.81164"><ele>274.0</ele><time>2026-04-09T15:50:40.084Z</time></trkpt><trkpt lat="40.8256283" lon="14.8114517"><ele>274.0</ele><time>2026-04-09T15:50:41.084Z</time></trkpt><trkpt lat="40.82549" lon="14.8112683"><ele>274.0</ele><time>2026-04-09T15:50:42.084Z</time></trkpt><trkpt lat="40.8253517" lon="14.8110833"><ele>274.0</ele><time>2026-04-09T15:50:43.084Z</time></trkpt><trkpt lat="40.8252217" lon="14.8109033"><ele>274.0</ele><time>2026-04-09T15:50:44.084Z</time></trkpt><trkpt lat="40.8250967" lon="14.810735"><ele>275.0</ele><time>2026-04-09T15:50:45.084Z</time></trkpt><trkpt lat="40.8249817" lon="14.8105817"><ele>276.0</ele><time>2026-04-09T15:50:46.084Z</time></trkpt><trkpt lat="40.824865" lon="14.8104183"><ele>277.0</ele><time>2026-04-09T15:50:47.084Z</time></trkpt><trkpt lat="40.8247467" lon="14.810255"><ele>276.3333333333333</ele><time>2026-04-09T15:50:48.084Z</time></trkpt><trkpt lat="40.8246317" lon="14.8101"><ele>275.6666666666667</ele><time>2026-04-09T15:50:49.084Z</time></trkpt><trkpt lat="40.824515" lon="14.80994"><ele>275.0</ele><time>2026-04-09T15:50:50.084Z</time></trkpt><trkpt lat="40.8243933" lon="14.8097817"><ele>275.33333333333337</ele><time>2026-04-09T15:50:51.084Z</time></trkpt><trkpt lat="40.8242817" lon="14.8096167"><ele>275.6666666666667</ele><time>2026-04-09T15:50:52.084Z</time></trkpt><trkpt lat="40.824165" lon="14.80945"><ele>276.0</ele><time>2026-04-09T15:50:53.084Z</time></trkpt><trkpt lat="40.824045" lon="14.80929"><ele>276.0</ele><time>2026-04-09T15:50:54.084Z</time></trkpt><trkpt lat="40.8239183" lon="14.809125"><ele>276.0</ele><time>2026-04-09T15:50:55.084Z</time></trkpt><trkpt lat="40.8237917" lon="14.8089517"><ele>276.0</ele><time>2026-04-09T15:50:56.084Z</time></trkpt><trkpt lat="40.8236617" lon="14.80878"><ele>276.0</ele><time>2026-04-09T15:50:57.084Z</time></trkpt><trkpt lat="40.8235333" lon="14.8086017"><ele>276.0</ele><time>2026-04-09T15:50:58.084Z</time></trkpt><trkpt lat="40.8234067" lon="14.80842"><ele>276.0</ele><time>2026-04-09T15:50:59.084Z</time></trkpt><trkpt lat="40.823285" lon="14.808235"><ele>274.3333333333333</ele><time>2026-04-09T15:51:00.084Z</time></trkpt><trkpt lat="40.82316" lon="14.8080483"><ele>272.66666666666663</ele><time>2026-04-09T15:51:01.084Z</time></trkpt><trkpt lat="40.8230367" lon="14.8078667"><ele>271.0</ele><time>2026-04-09T15:51:02.084Z</time></trkpt><trkpt lat="40.8229217" lon="14.8076833"><ele>271.0</ele><time>2026-04-09T15:51:03.084Z</time></trkpt><trkpt lat="40.822815" lon="14.8075067"><ele>271.0</ele><time>2026-04-09T15:51:04.084Z</time></trkpt><trkpt lat="40.8227133" lon="14.8073233"><ele>271.0</ele><time>2026-04-09T15:51:05.084Z</time></trkpt><trkpt lat="40.8226167" lon="14.8071483"><ele>271.0</ele><time>2026-04-09T15:51:06.084Z</time></trkpt><trkpt lat="40.8225167" lon="14.8069817"><ele>271.0</ele><time>2026-04-09T15:51:07.084Z</time></trkpt><trkpt lat="40.8224217" lon="14.806805"><ele>271.0</ele><time>2026-04-09T15:51:08.084Z</time></trkpt><trkpt lat="40.8223267" lon="14.8066233"><ele>269.0</ele><time>2026-04-09T15:51:09.084Z</time></trkpt><trkpt lat="40.822235" lon="14.8064467"><ele>267.0</ele><time>2026-04-09T15:51:10.084Z</time></trkpt><trkpt lat="40.8221433" lon="14.8062733"><ele>265.0</ele><time>2026-04-09T15:51:11.084Z</time></trkpt><trkpt lat="40.8220533" lon="14.8060933"><ele>265.66666666666663</ele><time>2026-04-09T15:51:12.084Z</time></trkpt><trkpt lat="40.8219667" lon="14.8059033"><ele>266.3333333333333</ele><time>2026-04-09T15:51:13.084Z</time></trkpt><trkpt lat="40.821885" lon="14.8057117"><ele>267.0</ele><time>2026-04-09T15:51:14.084Z</time></trkpt><trkpt lat="40.8218033" lon="14.8055133"><ele>267.0</ele><time>2026-04-09T15:51:15.084Z</time></trkpt><trkpt lat="40.8217167" lon="14.8053167"><ele>267.0</ele><time>2026-04-09T15:51:16.084Z</time></trkpt><trkpt lat="40.821635" lon="14.805115"><ele>267.0</ele><time>2026-04-09T15:51:17.084Z</time></trkpt><trkpt lat="40.8215517" lon="14.804905"><ele>266.0</ele><time>2026-04-09T15:51:18.084Z</time></trkpt><trkpt lat="40.8214633" lon="14.8047033"><ele>265.0</ele><time>2026-04-09T15:51:19.084Z</time></trkpt><trkpt lat="40.8213833" lon="14.80449"><ele>264.0</ele><time>2026-04-09T15:51:20.084Z</time></trkpt><trkpt lat="40.8213083" lon="14.8042733"><ele>262.0</ele><time>2026-04-09T15:51:21.084Z</time></trkpt><trkpt lat="40.8212317" lon="14.80406"><ele>260.0</ele><time>2026-04-09T15:51:22.084Z</time></trkpt><trkpt lat="40.8211583" lon="14.8038317"><ele>258.0</ele><time>2026-04-09T15:51:23.084Z</time></trkpt><trkpt lat="40.8210767" lon="14.8036083"><ele>257.6666666666667</ele><time>2026-04-09T15:51:24.084Z</time></trkpt><trkpt lat="40.8210117" lon="14.8033783"><ele>257.33333333333337</ele><time>2026-04-09T15:51:25.084Z</time></trkpt><trkpt lat="40.8209367" lon="14.80316"><ele>257.0</ele><time>2026-04-09T15:51:26.084Z</time></trkpt><trkpt lat="40.8208583" lon="14.8029367"><ele>257.0</ele><time>2026-04-09T15:51:27.084Z</time></trkpt><trkpt lat="40.820785" lon="14.80271"><ele>257.0</ele><time>2026-04-09T15:51:28.084Z</time></trkpt><trkpt lat="40.8207133" lon="14.8024867"><ele>257.0</ele><time>2026-04-09T15:51:29.084Z</time></trkpt><trkpt lat="40.8206383" lon="14.802265"><ele>255.33333333333334</ele><time>2026-04-09T15:51:30.084Z</time></trkpt><trkpt lat="40.820565" lon="14.8020533"><ele>253.66666666666669</ele><time>2026-04-09T15:51:31.084Z</time></trkpt><trkpt lat="40.8204933" lon="14.80184"><ele>252.0</ele><time>2026-04-09T15:51:32.084Z</time></trkpt><trkpt lat="40.8204217" lon="14.801625"><ele>251.33333333333331</ele><time>2026-04-09T15:51:33.084Z</time></trkpt><trkpt lat="40.8203533" lon="14.8013983"><ele>250.66666666666666</ele><time>2026-04-09T15:51:34.084Z</time></trkpt><trkpt lat="40.82028" lon="14.8011917"><ele>250.0</ele><time>2026-04-09T15:51:35.084Z</time></trkpt><trkpt lat="40.8202067" lon="14.80098"><ele>249.33333333333331</ele><time>2026-04-09T15:51:36.084Z</time></trkpt><trkpt lat="40.8201333" lon="14.8007733"><ele>248.66666666666669</ele><time>2026-04-09T15:51:37.084Z</time></trkpt><trkpt lat="40.820065" lon="14.8005533"><ele>248.0</ele><time>2026-04-09T15:51:38.084Z</time></trkpt><trkpt lat="40.8199967" lon="14.80035"><ele>247.66666666666669</ele><time>2026-04-09T15:51:39.084Z</time></trkpt><trkpt lat="40.8199283" lon="14.80014"><ele>247.33333333333331</ele><time>2026-04-09T15:51:40.084Z</time></trkpt><trkpt lat="40.81986" lon="14.799925"><ele>247.0</ele><time>2026-04-09T15:51:41.084Z</time></trkpt><trkpt lat="40.8197883" lon="14.799705"><ele>247.0</ele><time>2026-04-09T15:51:42.084Z</time></trkpt><trkpt lat="40.8197183" lon="14.79949"><ele>247.0</ele><time>2026-04-09T15:51:43.084Z</time></trkpt><trkpt lat="40.8196433" lon="14.7992733"><ele>247.0</ele><time>2026-04-09T15:51:44.084Z</time></trkpt><trkpt lat="40.81957" lon="14.7990533"><ele>246.33333333333331</ele><time>2026-04-09T15:51:45.084Z</time></trkpt><trkpt lat="40.8194983" lon="14.7988233"><ele>245.66666666666669</ele><time>2026-04-09T15:51:46.084Z</time></trkpt><trkpt lat="40.819425" lon="14.7985867"><ele>245.0</ele><time>2026-04-09T15:51:47.084Z</time></trkpt><trkpt lat="40.8193467" lon="14.79836"><ele>245.33333333333334</ele><time>2026-04-09T15:51:48.084Z</time></trkpt><trkpt lat="40.8192717" lon="14.7981367"><ele>245.66666666666669</ele><time>2026-04-09T15:51:49.084Z</time></trkpt><trkpt lat="40.8191983" lon="14.7979067"><ele>246.0</ele><time>2026-04-09T15:51:50.084Z</time></trkpt><trkpt lat="40.81912" lon="14.7976833"><ele>245.33333333333331</ele><time>2026-04-09T15:51:51.084Z</time></trkpt><trkpt lat="40.81904" lon="14.7974517"><ele>244.66666666666666</ele><time>2026-04-09T15:51:52.084Z</time></trkpt><trkpt lat="40.81896" lon="14.79722"><ele>244.0</ele><time>2026-04-09T15:51:53.084Z</time></trkpt><trkpt lat="40.8188783" lon="14.7969867"><ele>241.66666666666666</ele><time>2026-04-09T15:51:54.084Z</time></trkpt><trkpt lat="40.818805" lon="14.7967433"><ele>239.33333333333331</ele><time>2026-04-09T15:51:55.084Z</time></trkpt><trkpt lat="40.8187317" lon="14.796505"><ele>237.0</ele><time>2026-04-09T15:51:56.084Z</time></trkpt><trkpt lat="40.8186533" lon="14.7962683"><ele>237.0</ele><time>2026-04-09T15:51:57.084Z</time></trkpt><trkpt lat="40.818575" lon="14.79603"><ele>237.0</ele><time>2026-04-09T15:51:58.084Z</time></trkpt><trkpt lat="40.8185" lon="14.7957967"><ele>237.0</ele><time>2026-04-09T15:51:59.084Z</time></trkpt><trkpt lat="40.818425" lon="14.7955517"><ele>237.66666666666669</ele><time>2026-04-09T15:52:00.084Z</time></trkpt><trkpt lat="40.8183483" lon="14.795315"><ele>238.33333333333334</ele><time>2026-04-09T15:52:01.084Z</time></trkpt><trkpt lat="40.8182817" lon="14.7950717"><ele>239.0</ele><time>2026-04-09T15:52:02.084Z</time></trkpt><trkpt lat="40.8182133" lon="14.7948367"><ele>236.66666666666669</ele><time>2026-04-09T15:52:03.084Z</time></trkpt><trkpt lat="40.8181417" lon="14.794595"><ele>234.33333333333331</ele><time>2026-04-09T15:52:04.084Z</time></trkpt><trkpt lat="40.818075" lon="14.7943567"><ele>232.0</ele><time>2026-04-09T15:52:05.084Z</time></trkpt><trkpt lat="40.8180117" lon="14.794105"><ele>231.0</ele><time>2026-04-09T15:52:06.084Z</time></trkpt><trkpt lat="40.8179517" lon="14.79386"><ele>230.0</ele><time>2026-04-09T15:52:07.084Z</time></trkpt><trkpt lat="40.8179" lon="14.7936133"><ele>229.0</ele><time>2026-04-09T15:52:08.084Z</time></trkpt><trkpt lat="40.81785" lon="14.7933683"><ele>229.0</ele><time>2026-04-09T15:52:09.084Z</time></trkpt><trkpt lat="40.8178067" lon="14.7931167"><ele>229.0</ele><time>2026-04-09T15:52:10.084Z</time></trkpt><trkpt lat="40.8177633" lon="14.79288"><ele>229.0</ele><time>2026-04-09T15:52:11.084Z</time></trkpt><trkpt lat="40.81773" lon="14.7926583"><ele>228.66666666666666</ele><time>2026-04-09T15:52:12.084Z</time></trkpt><trkpt lat="40.8177" lon="14.79244"><ele>228.33333333333331</ele><time>2026-04-09T15:52:13.084Z</time></trkpt><trkpt lat="40.81767" lon="14.7922133"><ele>228.0</ele><time>2026-04-09T15:52:14.084Z</time></trkpt><trkpt lat="40.8176467" lon="14.7920017"><ele>227.66666666666669</ele><time>2026-04-09T15:52:15.084Z</time></trkpt><trkpt lat="40.8176283" lon="14.791785"><ele>227.33333333333334</ele><time>2026-04-09T15:52:16.084Z</time></trkpt><trkpt lat="40.8176067" lon="14.7915683"><ele>227.0</ele><time>2026-04-09T15:52:17.084Z</time></trkpt><trkpt lat="40.8175867" lon="14.79134"><ele>227.0</ele><time>2026-04-09T15:52:18.084Z</time></trkpt><trkpt lat="40.8175683" lon="14.7911083"><ele>227.0</ele><time>2026-04-09T15:52:19.084Z</time></trkpt><trkpt lat="40.8175433" lon="14.7908783"><ele>227.0</ele><time>2026-04-09T15:52:20.084Z</time></trkpt><trkpt lat="40.8175167" lon="14.7906633"><ele>226.66666666666669</ele><time>2026-04-09T15:52:21.084Z</time></trkpt><trkpt lat="40.8174917" lon="14.7904433"><ele>226.33333333333331</ele><time>2026-04-09T15:52:22.084Z</time></trkpt><trkpt lat="40.81747" lon="14.79023"><ele>226.0</ele><time>2026-04-09T15:52:23.084Z</time></trkpt><trkpt lat="40.81745" lon="14.7900233"><ele>225.33333333333331</ele><time>2026-04-09T15:52:24.084Z</time></trkpt><trkpt lat="40.817435" lon="14.7898183"><ele>224.66666666666669</ele><time>2026-04-09T15:52:25.084Z</time></trkpt><trkpt lat="40.8174133" lon="14.7896183"><ele>224.0</ele><time>2026-04-09T15:52:26.084Z</time></trkpt><trkpt lat="40.8173883" lon="14.7894133"><ele>222.33333333333334</ele><time>2026-04-09T15:52:27.084Z</time></trkpt><trkpt lat="40.8173667" lon="14.7891917"><ele>220.66666666666669</ele><time>2026-04-09T15:52:28.084Z</time></trkpt><trkpt lat="40.8173433" lon="14.78898"><ele>219.0</ele><time>2026-04-09T15:52:29.084Z</time></trkpt><trkpt lat="40.8173217" lon="14.788765"><ele>219.0</ele><time>2026-04-09T15:52:30.084Z</time></trkpt><trkpt lat="40.8173033" lon="14.7885467"><ele>219.0</ele><time>2026-04-09T15:52:31.084Z</time></trkpt><trkpt lat="40.81728" lon="14.7883217"><ele>219.0</ele><time>2026-04-09T15:52:32.084Z</time></trkpt><trkpt lat="40.81726" lon="14.788095"><ele>219.33333333333331</ele><time>2026-04-09T15:52:33.084Z</time></trkpt><trkpt lat="40.8172383" lon="14.7878683"><ele>219.66666666666666</ele><time>2026-04-09T15:52:34.084Z</time></trkpt><trkpt lat="40.8172183" lon="14.78765"><ele>220.0</ele><time>2026-04-09T15:52:35.084Z</time></trkpt><trkpt lat="40.8172" lon="14.7874433"><ele>220.0</ele><time>2026-04-09T15:52:36.084Z</time></trkpt><trkpt lat="40.81718" lon="14.7872233"><ele>220.0</ele><time>2026-04-09T15:52:37.084Z</time></trkpt><trkpt lat="40.8171583" lon="14.7870033"><ele>220.0</ele><time>2026-04-09T15:52:38.084Z</time></trkpt><trkpt lat="40.8171383" lon="14.786785"><ele>219.0</ele><time>2026-04-09T15:52:39.084Z</time></trkpt><trkpt lat="40.8171167" lon="14.78656"><ele>218.0</ele><time>2026-04-09T15:52:40.084Z</time></trkpt><trkpt lat="40.8170933" lon="14.7863367"><ele>217.0</ele><time>2026-04-09T15:52:41.084Z</time></trkpt><trkpt lat="40.8170733" lon="14.7860967"><ele>216.33333333333331</ele><time>2026-04-09T15:52:42.084Z</time></trkpt><trkpt lat="40.81705" lon="14.785875"><ele>215.66666666666669</ele><time>2026-04-09T15:52:43.084Z</time></trkpt><trkpt lat="40.8170267" lon="14.7856617"><ele>215.0</ele><time>2026-04-09T15:52:44.084Z</time></trkpt><trkpt lat="40.8170033" lon="14.7854483"><ele>215.0</ele><time>2026-04-09T15:52:45.084Z</time></trkpt><trkpt lat="40.816985" lon="14.78522"><ele>215.0</ele><time>2026-04-09T15:52:46.084Z</time></trkpt><trkpt lat="40.8169617" lon="14.7849917"><ele>215.0</ele><time>2026-04-09T15:52:47.084Z</time></trkpt><trkpt lat="40.8169367" lon="14.78476"><ele>215.0</ele><time>2026-04-09T15:52:48.084Z</time></trkpt><trkpt lat="40.816915" lon="14.78453"><ele>215.0</ele><time>2026-04-09T15:52:49.084Z</time></trkpt><trkpt lat="40.8168867" lon="14.7842917"><ele>215.0</ele><time>2026-04-09T15:52:50.084Z</time></trkpt><trkpt lat="40.8168633" lon="14.78405"><ele>215.33333333333334</ele><time>2026-04-09T15:52:51.084Z</time></trkpt><trkpt lat="40.816845" lon="14.7838067"><ele>215.66666666666669</ele><time>2026-04-09T15:52:52.084Z</time></trkpt><trkpt lat="40.8168183" lon="14.783565"><ele>216.0</ele><time>2026-04-09T15:52:53.084Z</time></trkpt><trkpt lat="40.8167983" lon="14.78333"><ele>215.33333333333331</ele><time>2026-04-09T15:52:54.084Z</time></trkpt><trkpt lat="40.816775" lon="14.7831067"><ele>214.66666666666666</ele><time>2026-04-09T15:52:55.084Z</time></trkpt><trkpt lat="40.816755" lon="14.7828817"><ele>214.0</ele><time>2026-04-09T15:52:56.084Z</time></trkpt><trkpt lat="40.816735" lon="14.7826567"><ele>213.33333333333331</ele><time>2026-04-09T15:52:57.084Z</time></trkpt><trkpt lat="40.8167117" lon="14.7824233"><ele>212.66666666666669</ele><time>2026-04-09T15:52:58.084Z</time></trkpt><trkpt lat="40.8166883" lon="14.7821867"><ele>212.0</ele><time>2026-04-09T15:52:59.084Z</time></trkpt><trkpt lat="40.8166683" lon="14.781955"><ele>211.0</ele><time>2026-04-09T15:53:00.084Z</time></trkpt><trkpt lat="40.8166483" lon="14.78173"><ele>210.0</ele><time>2026-04-09T15:53:01.084Z</time></trkpt><trkpt lat="40.8166233" lon="14.78151"><ele>209.0</ele><time>2026-04-09T15:53:02.084Z</time></trkpt><trkpt lat="40.816595" lon="14.7813017"><ele>209.0</ele><time>2026-04-09T15:53:03.084Z</time></trkpt><trkpt lat="40.8165633" lon="14.7810983"><ele>209.0</ele><time>2026-04-09T15:53:04.084Z</time></trkpt><trkpt lat="40.8165333" lon="14.7808917"><ele>209.0</ele><time>2026-04-09T15:53:05.084Z</time></trkpt><trkpt lat="40.8164933" lon="14.7806883"><ele>207.66666666666669</ele><time>2026-04-09T15:53:06.084Z</time></trkpt><trkpt lat="40.816455" lon="14.78047"><ele>206.33333333333331</ele><time>2026-04-09T15:53:07.084Z</time></trkpt><trkpt lat="40.8164133" lon="14.7802633"><ele>205.0</ele><time>2026-04-09T15:53:08.084Z</time></trkpt><trkpt lat="40.8163717" lon="14.7800517"><ele>203.33333333333331</ele><time>2026-04-09T15:53:09.084Z</time></trkpt><trkpt lat="40.816325" lon="14.779845"><ele>201.66666666666669</ele><time>2026-04-09T15:53:10.084Z</time></trkpt><trkpt lat="40.816275" lon="14.7796517"><ele>200.0</ele><time>2026-04-09T15:53:11.084Z</time></trkpt><trkpt lat="40.8162267" lon="14.7794533"><ele>199.33333333333334</ele><time>2026-04-09T15:53:12.084Z</time></trkpt><trkpt lat="40.816185" lon="14.7792517"><ele>198.66666666666669</ele><time>2026-04-09T15:53:13.084Z</time></trkpt><trkpt lat="40.8161367" lon="14.7790567"><ele>198.0</ele><time>2026-04-09T15:53:14.084Z</time></trkpt><trkpt lat="40.8160867" lon="14.7788633"><ele>198.0</ele><time>2026-04-09T15:53:15.084Z</time></trkpt><trkpt lat="40.8160317" lon="14.7786717"><ele>198.0</ele><time>2026-04-09T15:53:16.084Z</time></trkpt><trkpt lat="40.8159717" lon="14.7784733"><ele>198.0</ele><time>2026-04-09T15:53:17.084Z</time></trkpt><trkpt lat="40.8159067" lon="14.7782733"><ele>198.0</ele><time>2026-04-09T15:53:18.084Z</time></trkpt><trkpt lat="40.8158333" lon="14.77808"><ele>198.0</ele><time>2026-04-09T15:53:19.084Z</time></trkpt><trkpt lat="40.8157533" lon="14.7778833"><ele>198.0</ele><time>2026-04-09T15:53:20.084Z</time></trkpt><trkpt lat="40.8156667" lon="14.77769"><ele>196.66666666666669</ele><time>2026-04-09T15:53:21.084Z</time></trkpt><trkpt lat="40.815575" lon="14.7774983"><ele>195.33333333333334</ele><time>2026-04-09T15:53:22.084Z</time></trkpt><trkpt lat="40.8154833" lon="14.777305"><ele>194.0</ele><time>2026-04-09T15:53:23.084Z</time></trkpt><trkpt lat="40.8153833" lon="14.7771133"><ele>194.0</ele><time>2026-04-09T15:53:24.084Z</time></trkpt><trkpt lat="40.815285" lon="14.77692"><ele>194.0</ele><time>2026-04-09T15:53:25.084Z</time></trkpt><trkpt lat="40.81518" lon="14.7767267"><ele>194.0</ele><time>2026-04-09T15:53:26.084Z</time></trkpt><trkpt lat="40.8150767" lon="14.7765383"><ele>193.66666666666669</ele><time>2026-04-09T15:53:27.084Z</time></trkpt><trkpt lat="40.8149633" lon="14.7763483"><ele>193.33333333333331</ele><time>2026-04-09T15:53:28.084Z</time></trkpt><trkpt lat="40.8148483" lon="14.7761633"><ele>193.0</ele><time>2026-04-09T15:53:29.084Z</time></trkpt><trkpt lat="40.8147283" lon="14.7759767"><ele>192.0</ele><time>2026-04-09T15:53:30.084Z</time></trkpt><trkpt lat="40.8146067" lon="14.77579"><ele>191.0</ele><time>2026-04-09T15:53:31.084Z</time></trkpt><trkpt lat="40.8144717" lon="14.775615"><ele>190.0</ele><time>2026-04-09T15:53:32.084Z</time></trkpt><trkpt lat="40.8143383" lon="14.7754283"><ele>190.0</ele><time>2026-04-09T15:53:33.084Z</time></trkpt><trkpt lat="40.814205" lon="14.7752467"><ele>190.0</ele><time>2026-04-09T15:53:34.084Z</time></trkpt><trkpt lat="40.81407" lon="14.7750683"><ele>190.0</ele><time>2026-04-09T15:53:35.084Z</time></trkpt><trkpt lat="40.8139283" lon="14.7748917"><ele>190.0</ele><time>2026-04-09T15:53:36.084Z</time></trkpt><trkpt lat="40.813785" lon="14.7747283"><ele>190.0</ele><time>2026-04-09T15:53:37.084Z</time></trkpt><trkpt lat="40.813645" lon="14.7745733"><ele>190.0</ele><time>2026-04-09T15:53:38.084Z</time></trkpt><trkpt lat="40.8134983" lon="14.7744217"><ele>189.66666666666669</ele><time>2026-04-09T15:53:39.084Z</time></trkpt><trkpt lat="40.8133517" lon="14.77427"><ele>189.33333333333334</ele><time>2026-04-09T15:53:40.084Z</time></trkpt><trkpt lat="40.8132067" lon="14.774125"><ele>189.0</ele><time>2026-04-09T15:53:41.084Z</time></trkpt><trkpt lat="40.8130567" lon="14.7739783"><ele>189.0</ele><time>2026-04-09T15:53:42.084Z</time></trkpt><trkpt lat="40.8129017" lon="14.7738283"><ele>189.0</ele><time>2026-04-09T15:53:43.084Z</time></trkpt><trkpt lat="40.8127467" lon="14.7736833"><ele>189.0</ele><time>2026-04-09T15:53:44.084Z</time></trkpt><trkpt lat="40.8125917" lon="14.773545"><ele>188.0</ele><time>2026-04-09T15:53:45.084Z</time></trkpt><trkpt lat="40.8124367" lon="14.7734183"><ele>187.0</ele><time>2026-04-09T15:53:46.084Z</time></trkpt><trkpt lat="40.812285" lon="14.773295"><ele>186.0</ele><time>2026-04-09T15:53:47.084Z</time></trkpt><trkpt lat="40.8121333" lon="14.773185"><ele>186.0</ele><time>2026-04-09T15:53:48.084Z</time></trkpt><trkpt lat="40.8119883" lon="14.7730783"><ele>186.0</ele><time>2026-04-09T15:53:49.084Z</time></trkpt><trkpt lat="40.8118483" lon="14.772985"><ele>186.0</ele><time>2026-04-09T15:53:50.084Z</time></trkpt><trkpt lat="40.8117167" lon="14.7728883"><ele>186.0</ele><time>2026-04-09T15:53:51.084Z</time></trkpt><trkpt lat="40.8115883" lon="14.7728017"><ele>186.0</ele><time>2026-04-09T15:53:52.084Z</time></trkpt><trkpt lat="40.8114567" lon="14.7727217"><ele>186.0</ele><time>2026-04-09T15:53:53.084Z</time></trkpt><trkpt lat="40.811315" lon="14.77264"><ele>186.0</ele><time>2026-04-09T15:53:54.084Z</time></trkpt><trkpt lat="40.8111783" lon="14.7725567"><ele>185.0</ele><time>2026-04-09T15:53:55.084Z</time></trkpt><trkpt lat="40.8110333" lon="14.7724733"><ele>184.0</ele><time>2026-04-09T15:53:56.084Z</time></trkpt><trkpt lat="40.8108817" lon="14.7723917"><ele>183.0</ele><time>2026-04-09T15:53:57.084Z</time></trkpt><trkpt lat="40.8107283" lon="14.7723233"><ele>182.66666666666666</ele><time>2026-04-09T15:53:58.084Z</time></trkpt><trkpt lat="40.8105767" lon="14.77224"><ele>182.33333333333331</ele><time>2026-04-09T15:53:59.084Z</time></trkpt><trkpt lat="40.8104217" lon="14.7721683"><ele>182.0</ele><time>2026-04-09T15:54:00.084Z</time></trkpt><trkpt lat="40.81026" lon="14.7721083"><ele>181.33333333333331</ele><time>2026-04-09T15:54:01.084Z</time></trkpt><trkpt lat="40.8101" lon="14.7720517"><ele>180.66666666666666</ele><time>2026-04-09T15:54:02.084Z</time></trkpt><trkpt lat="40.8099383" lon="14.7719917"><ele>180.0</ele><time>2026-04-09T15:54:03.084Z</time></trkpt><trkpt lat="40.8097767" lon="14.7719267"><ele>180.0</ele><time>2026-04-09T15:54:04.084Z</time></trkpt><trkpt lat="40.8096217" lon="14.7718733"><ele>180.0</ele><time>2026-04-09T15:54:05.084Z</time></trkpt><trkpt lat="40.8094633" lon="14.7718267"><ele>180.0</ele><time>2026-04-09T15:54:06.084Z</time></trkpt><trkpt lat="40.8093" lon="14.771795"><ele>178.66666666666666</ele><time>2026-04-09T15:54:07.084Z</time></trkpt><trkpt lat="40.8091417" lon="14.771755"><ele>177.33333333333331</ele><time>2026-04-09T15:54:08.084Z</time></trkpt><trkpt lat="40.8089783" lon="14.7717217"><ele>176.0</ele><time>2026-04-09T15:54:09.084Z</time></trkpt><trkpt lat="40.8088217" lon="14.7716883"><ele>176.0</ele><time>2026-04-09T15:54:10.084Z</time></trkpt><trkpt lat="40.8086567" lon="14.7716633"><ele>176.0</ele><time>2026-04-09T15:54:11.084Z</time></trkpt><trkpt lat="40.8085" lon="14.7716317"><ele>176.0</ele><time>2026-04-09T15:54:12.084Z</time></trkpt><trkpt lat="40.8083417" lon="14.77159"><ele>175.66666666666666</ele><time>2026-04-09T15:54:13.084Z</time></trkpt><trkpt lat="40.8081867" lon="14.771555"><ele>175.33333333333334</ele><time>2026-04-09T15:54:14.084Z</time></trkpt><trkpt lat="40.8080317" lon="14.77152"><ele>175.0</ele><time>2026-04-09T15:54:15.084Z</time></trkpt><trkpt lat="40.8078833" lon="14.7714867"><ele>175.0</ele><time>2026-04-09T15:54:16.084Z</time></trkpt><trkpt lat="40.8077283" lon="14.771455"><ele>175.0</ele><time>2026-04-09T15:54:17.084Z</time></trkpt><trkpt lat="40.8075733" lon="14.771425"><ele>175.0</ele><time>2026-04-09T15:54:18.084Z</time></trkpt><trkpt lat="40.8074067" lon="14.771395"><ele>175.0</ele><time>2026-04-09T15:54:19.084Z</time></trkpt><trkpt lat="40.807245" lon="14.7713583"><ele>175.0</ele><time>2026-04-09T15:54:20.084Z</time></trkpt><trkpt lat="40.807085" lon="14.7713267"><ele>175.0</ele><time>2026-04-09T15:54:21.084Z</time></trkpt><trkpt lat="40.8069167" lon="14.771295"><ele>175.0</ele><time>2026-04-09T15:54:22.084Z</time></trkpt><trkpt lat="40.80678" lon="14.7712617"><ele>175.0</ele><time>2026-04-09T15:54:23.084Z</time></trkpt><trkpt lat="40.8066433" lon="14.7712283"><ele>175.0</ele><time>2026-04-09T15:54:24.084Z</time></trkpt><trkpt lat="40.8065217" lon="14.7712"><ele>175.0</ele><time>2026-04-09T15:54:25.084Z</time></trkpt><trkpt lat="40.8064083" lon="14.7711667"><ele>175.0</ele><time>2026-04-09T15:54:26.084Z</time></trkpt><trkpt lat="40.8063067" lon="14.7711383"><ele>175.0</ele><time>2026-04-09T15:54:27.084Z</time></trkpt><trkpt lat="40.8062117" lon="14.771115"><ele>175.0</ele><time>2026-04-09T15:54:28.084Z</time></trkpt><trkpt lat="40.8061333" lon="14.7710917"><ele>175.0</ele><time>2026-04-09T15:54:29.084Z</time></trkpt><trkpt lat="40.806055" lon="14.77107"><ele>175.0</ele><time>2026-04-09T15:54:30.084Z</time></trkpt><trkpt lat="40.8059867" lon="14.7710533"><ele>175.0</ele><time>2026-04-09T15:54:31.084Z</time></trkpt><trkpt lat="40.8059" lon="14.7710233"><ele>174.0</ele><time>2026-04-09T15:54:33.084Z</time></trkpt><trkpt lat="40.8058317" lon="14.77101"><ele>173.0</ele><time>2026-04-09T15:54:35.084Z</time></trkpt><trkpt lat="40.8057" lon="14.7709883"><ele>172.0</ele><time>2026-04-09T15:54:37.084Z</time></trkpt><trkpt lat="40.80561" lon="14.7709767"><ele>171.0</ele><time>2026-04-09T15:54:38.084Z</time></trkpt><trkpt lat="40.805485" lon="14.77096"><ele>170.0</ele><time>2026-04-09T15:54:39.084Z</time></trkpt><trkpt lat="40.80534" lon="14.7709267"><ele>170.0</ele><time>2026-04-09T15:54:40.084Z</time></trkpt><trkpt lat="40.805195" lon="14.770895"><ele>170.0</ele><time>2026-04-09T15:54:41.084Z</time></trkpt><trkpt lat="40.805045" lon="14.7708583"><ele>170.0</ele><time>2026-04-09T15:54:42.084Z</time></trkpt><trkpt lat="40.804885" lon="14.7708233"><ele>170.0</ele><time>2026-04-09T15:54:43.084Z</time></trkpt><trkpt lat="40.8047167" lon="14.770785"><ele>170.0</ele><time>2026-04-09T15:54:44.084Z</time></trkpt><trkpt lat="40.80455" lon="14.7707517"><ele>170.0</ele><time>2026-04-09T15:54:45.084Z</time></trkpt><trkpt lat="40.804385" lon="14.77072"><ele>169.0</ele><time>2026-04-09T15:54:46.084Z</time></trkpt><trkpt lat="40.8042167" lon="14.7706933"><ele>168.0</ele><time>2026-04-09T15:54:47.084Z</time></trkpt><trkpt lat="40.804045" lon="14.7706683"><ele>167.0</ele><time>2026-04-09T15:54:48.084Z</time></trkpt><trkpt lat="40.8038717" lon="14.7706483"><ele>167.0</ele><time>2026-04-09T15:54:49.084Z</time></trkpt><trkpt lat="40.803695" lon="14.77063"><ele>167.0</ele><time>2026-04-09T15:54:50.084Z</time></trkpt><trkpt lat="40.8035283" lon="14.7706083"><ele>167.0</ele><time>2026-04-09T15:54:51.084Z</time></trkpt><trkpt lat="40.8033433" lon="14.7706183"><ele>167.0</ele><time>2026-04-09T15:54:52.084Z</time></trkpt><trkpt lat="40.803165" lon="14.77061"><ele>167.0</ele><time>2026-04-09T15:54:53.084Z</time></trkpt><trkpt lat="40.802975" lon="14.7706133"><ele>167.0</ele><time>2026-04-09T15:54:54.084Z</time></trkpt><trkpt lat="40.8027933" lon="14.7706167"><ele>167.0</ele><time>2026-04-09T15:54:55.084Z</time></trkpt><trkpt lat="40.8026067" lon="14.77064"><ele>167.0</ele><time>2026-04-09T15:54:56.084Z</time></trkpt><trkpt lat="40.8024183" lon="14.7706617"><ele>167.0</ele><time>2026-04-09T15:54:57.084Z</time></trkpt><trkpt lat="40.8022383" lon="14.770695"><ele>167.0</ele><time>2026-04-09T15:54:58.084Z</time></trkpt><trkpt lat="40.8020683" lon="14.7707233"><ele>167.0</ele><time>2026-04-09T15:54:59.084Z</time></trkpt><trkpt lat="40.8019" lon="14.77075"><ele>167.0</ele><time>2026-04-09T15:55:00.084Z</time></trkpt><trkpt lat="40.8017233" lon="14.7707833"><ele>166.33333333333331</ele><time>2026-04-09T15:55:01.084Z</time></trkpt><trkpt lat="40.8015383" lon="14.770825"><ele>165.66666666666666</ele><time>2026-04-09T15:55:02.084Z</time></trkpt><trkpt lat="40.8013517" lon="14.7708617"><ele>165.0</ele><time>2026-04-09T15:55:03.084Z</time></trkpt><trkpt lat="40.8011633" lon="14.7709"><ele>165.0</ele><time>2026-04-09T15:55:04.084Z</time></trkpt><trkpt lat="40.8009683" lon="14.770945"><ele>165.0</ele><time>2026-04-09T15:55:05.084Z</time></trkpt><trkpt lat="40.8007833" lon="14.7709783"><ele>165.0</ele><time>2026-04-09T15:55:06.084Z</time></trkpt><trkpt lat="40.8005983" lon="14.7710183"><ele>165.0</ele><time>2026-04-09T15:55:07.084Z</time></trkpt><trkpt lat="40.8004133" lon="14.77106"><ele>165.0</ele><time>2026-04-09T15:55:08.084Z</time></trkpt><trkpt lat="40.800225" lon="14.7711"><ele>165.0</ele><time>2026-04-09T15:55:09.084Z</time></trkpt><trkpt lat="40.8000383" lon="14.7711467"><ele>165.0</ele><time>2026-04-09T15:55:10.084Z</time></trkpt><trkpt lat="40.799855" lon="14.77119"><ele>165.0</ele><time>2026-04-09T15:55:11.084Z</time></trkpt><trkpt lat="40.7996767" lon="14.7712267"><ele>165.0</ele><time>2026-04-09T15:55:12.084Z</time></trkpt><trkpt lat="40.799495" lon="14.7712617"><ele>164.66666666666666</ele><time>2026-04-09T15:55:13.084Z</time></trkpt><trkpt lat="40.79931" lon="14.7713017"><ele>164.33333333333331</ele><time>2026-04-09T15:55:14.084Z</time></trkpt><trkpt lat="40.7991183" lon="14.771335"><ele>164.0</ele><time>2026-04-09T15:55:15.084Z</time></trkpt><trkpt lat="40.7989217" lon="14.7713733"><ele>164.0</ele><time>2026-04-09T15:55:16.084Z</time></trkpt><trkpt lat="40.7987283" lon="14.771415"><ele>164.0</ele><time>2026-04-09T15:55:17.084Z</time></trkpt><trkpt lat="40.798535" lon="14.771455"><ele>164.0</ele><time>2026-04-09T15:55:18.084Z</time></trkpt><trkpt lat="40.7983467" lon="14.771495"><ele>164.0</ele><time>2026-04-09T15:55:19.084Z</time></trkpt><trkpt lat="40.7981533" lon="14.7715317"><ele>164.0</ele><time>2026-04-09T15:55:20.084Z</time></trkpt><trkpt lat="40.7979517" lon="14.7715717"><ele>164.0</ele><time>2026-04-09T15:55:21.084Z</time></trkpt><trkpt lat="40.797755" lon="14.771615"><ele>164.0</ele><time>2026-04-09T15:55:22.084Z</time></trkpt><trkpt lat="40.797555" lon="14.7716583"><ele>164.0</ele><time>2026-04-09T15:55:23.084Z</time></trkpt><trkpt lat="40.7973567" lon="14.7717033"><ele>164.0</ele><time>2026-04-09T15:55:24.084Z</time></trkpt><trkpt lat="40.7971617" lon="14.7717383"><ele>164.0</ele><time>2026-04-09T15:55:25.084Z</time></trkpt><trkpt lat="40.796955" lon="14.7717767"><ele>164.0</ele><time>2026-04-09T15:55:26.084Z</time></trkpt><trkpt lat="40.7967533" lon="14.7718267"><ele>164.0</ele><time>2026-04-09T15:55:27.084Z</time></trkpt><trkpt lat="40.7965517" lon="14.7718667"><ele>166.66666666666666</ele><time>2026-04-09T15:55:28.084Z</time></trkpt><trkpt lat="40.7963533" lon="14.77191"><ele>169.33333333333334</ele><time>2026-04-09T15:55:29.084Z</time></trkpt><trkpt lat="40.7961433" lon="14.771955"><ele>172.0</ele><time>2026-04-09T15:55:30.084Z</time></trkpt><trkpt lat="40.7959417" lon="14.7719933"><ele>172.0</ele><time>2026-04-09T15:55:31.084Z</time></trkpt><trkpt lat="40.795725" lon="14.7720417"><ele>172.0</ele><time>2026-04-09T15:55:32.084Z</time></trkpt><trkpt lat="40.79551" lon="14.77209"><ele>172.0</ele><time>2026-04-09T15:55:33.084Z</time></trkpt><trkpt lat="40.795295" lon="14.7721367"><ele>172.33333333333334</ele><time>2026-04-09T15:55:34.084Z</time></trkpt><trkpt lat="40.7950767" lon="14.7721883"><ele>172.66666666666666</ele><time>2026-04-09T15:55:35.084Z</time></trkpt><trkpt lat="40.7948567" lon="14.772235"><ele>173.0</ele><time>2026-04-09T15:55:36.084Z</time></trkpt><trkpt lat="40.7946317" lon="14.77229"><ele>173.0</ele><time>2026-04-09T15:55:37.084Z</time></trkpt><trkpt lat="40.794405" lon="14.77234"><ele>173.0</ele><time>2026-04-09T15:55:38.084Z</time></trkpt><trkpt lat="40.7941833" lon="14.7723867"><ele>172.0</ele><time>2026-04-09T15:55:39.084Z</time></trkpt><trkpt lat="40.7939733" lon="14.7724267"><ele>171.0</ele><time>2026-04-09T15:55:40.084Z</time></trkpt><trkpt lat="40.7937633" lon="14.7724633"><ele>170.0</ele><time>2026-04-09T15:55:41.084Z</time></trkpt><trkpt lat="40.7935583" lon="14.772495"><ele>169.0</ele><time>2026-04-09T15:55:42.084Z</time></trkpt><trkpt lat="40.7933517" lon="14.77254"><ele>168.0</ele><time>2026-04-09T15:55:43.084Z</time></trkpt><trkpt lat="40.7931517" lon="14.7725867"><ele>167.0</ele><time>2026-04-09T15:55:44.084Z</time></trkpt><trkpt lat="40.79297" lon="14.7726233"><ele>167.0</ele><time>2026-04-09T15:55:45.084Z</time></trkpt><trkpt lat="40.7927967" lon="14.77267"><ele>167.0</ele><time>2026-04-09T15:55:46.084Z</time></trkpt><trkpt lat="40.7926233" lon="14.772715"><ele>167.0</ele><time>2026-04-09T15:55:47.084Z</time></trkpt><trkpt lat="40.7924417" lon="14.7727633"><ele>168.66666666666666</ele><time>2026-04-09T15:55:48.084Z</time></trkpt><trkpt lat="40.79226" lon="14.7728267"><ele>170.33333333333334</ele><time>2026-04-09T15:55:49.084Z</time></trkpt><trkpt lat="40.7920867" lon="14.7728967"><ele>172.0</ele><time>2026-04-09T15:55:50.084Z</time></trkpt><trkpt lat="40.7919133" lon="14.772965"><ele>172.0</ele><time>2026-04-09T15:55:51.084Z</time></trkpt><trkpt lat="40.7917283" lon="14.7730383"><ele>172.0</ele><time>2026-04-09T15:55:52.084Z</time></trkpt><trkpt lat="40.79156" lon="14.77311"><ele>172.0</ele><time>2026-04-09T15:55:53.084Z</time></trkpt><trkpt lat="40.7913967" lon="14.7731867"><ele>172.0</ele><time>2026-04-09T15:55:54.084Z</time></trkpt><trkpt lat="40.791235" lon="14.7732717"><ele>172.0</ele><time>2026-04-09T15:55:55.084Z</time></trkpt><trkpt lat="40.791085" lon="14.7733683"><ele>172.0</ele><time>2026-04-09T15:55:56.084Z</time></trkpt><trkpt lat="40.7909317" lon="14.7734633"><ele>173.66666666666669</ele><time>2026-04-09T15:55:57.084Z</time></trkpt><trkpt lat="40.79078" lon="14.7735583"><ele>175.33333333333334</ele><time>2026-04-09T15:55:58.084Z</time></trkpt><trkpt lat="40.79062" lon="14.773655"><ele>177.0</ele><time>2026-04-09T15:55:59.084Z</time></trkpt><trkpt lat="40.7904583" lon="14.7737517"><ele>177.0</ele><time>2026-04-09T15:56:00.084Z</time></trkpt><trkpt lat="40.7902983" lon="14.7738583"><ele>177.0</ele><time>2026-04-09T15:56:01.084Z</time></trkpt><trkpt lat="40.790135" lon="14.77397"><ele>177.0</ele><time>2026-04-09T15:56:02.084Z</time></trkpt><trkpt lat="40.7899733" lon="14.7740933"><ele>177.0</ele><time>2026-04-09T15:56:03.084Z</time></trkpt><trkpt lat="40.78982" lon="14.77422"><ele>177.0</ele><time>2026-04-09T15:56:04.084Z</time></trkpt><trkpt lat="40.7896617" lon="14.7743383"><ele>177.0</ele><time>2026-04-09T15:56:05.084Z</time></trkpt><trkpt lat="40.789505" lon="14.7744667"><ele>178.0</ele><time>2026-04-09T15:56:06.084Z</time></trkpt><trkpt lat="40.7893583" lon="14.7745983"><ele>179.0</ele><time>2026-04-09T15:56:07.084Z</time></trkpt><trkpt lat="40.7892133" lon="14.7747433"><ele>180.0</ele><time>2026-04-09T15:56:08.084Z</time></trkpt><trkpt lat="40.78907" lon="14.7748917"><ele>180.66666666666666</ele><time>2026-04-09T15:56:09.084Z</time></trkpt><trkpt lat="40.7889267" lon="14.7750367"><ele>181.33333333333331</ele><time>2026-04-09T15:56:10.084Z</time></trkpt><trkpt lat="40.7887817" lon="14.7751867"><ele>182.0</ele><time>2026-04-09T15:56:11.084Z</time></trkpt><trkpt lat="40.7886383" lon="14.7753217"><ele>184.0</ele><time>2026-04-09T15:56:12.084Z</time></trkpt><trkpt lat="40.7885033" lon="14.7754583"><ele>186.0</ele><time>2026-04-09T15:56:13.084Z</time></trkpt><trkpt lat="40.7883717" lon="14.775595"><ele>188.0</ele><time>2026-04-09T15:56:14.084Z</time></trkpt><trkpt lat="40.7882367" lon="14.775735"><ele>188.0</ele><time>2026-04-09T15:56:15.084Z</time></trkpt><trkpt lat="40.7881033" lon="14.7758767"><ele>188.0</ele><time>2026-04-09T15:56:16.084Z</time></trkpt><trkpt lat="40.7879583" lon="14.776035"><ele>188.0</ele><time>2026-04-09T15:56:17.084Z</time></trkpt><trkpt lat="40.787815" lon="14.776185"><ele>190.66666666666666</ele><time>2026-04-09T15:56:18.084Z</time></trkpt><trkpt lat="40.787665" lon="14.7763333"><ele>193.33333333333331</ele><time>2026-04-09T15:56:19.084Z</time></trkpt><trkpt lat="40.7875217" lon="14.7764883"><ele>196.0</ele><time>2026-04-09T15:56:20.084Z</time></trkpt><trkpt lat="40.787375" lon="14.7766333"><ele>196.0</ele><time>2026-04-09T15:56:21.084Z</time></trkpt><trkpt lat="40.7872317" lon="14.776785"><ele>196.0</ele><time>2026-04-09T15:56:22.084Z</time></trkpt><trkpt lat="40.7870817" lon="14.7769383"><ele>196.0</ele><time>2026-04-09T15:56:23.084Z</time></trkpt><trkpt lat="40.786935" lon="14.7770883"><ele>197.0</ele><time>2026-04-09T15:56:24.084Z</time></trkpt><trkpt lat="40.7867933" lon="14.7772383"><ele>198.0</ele><time>2026-04-09T15:56:25.084Z</time></trkpt><trkpt lat="40.7866517" lon="14.77739"><ele>199.0</ele><time>2026-04-09T15:56:26.084Z</time></trkpt><trkpt lat="40.7865067" lon="14.7775333"><ele>199.0</ele><time>2026-04-09T15:56:27.084Z</time></trkpt><trkpt lat="40.7863583" lon="14.7776783"><ele>199.0</ele><time>2026-04-09T15:56:28.084Z</time></trkpt><trkpt lat="40.7862117" lon="14.77782"><ele>199.0</ele><time>2026-04-09T15:56:29.084Z</time></trkpt><trkpt lat="40.7860733" lon="14.7779617"><ele>200.33333333333331</ele><time>2026-04-09T15:56:30.084Z</time></trkpt><trkpt lat="40.7859367" lon="14.7781033"><ele>201.66666666666669</ele><time>2026-04-09T15:56:31.084Z</time></trkpt><trkpt lat="40.7857967" lon="14.7782467"><ele>203.0</ele><time>2026-04-09T15:56:32.084Z</time></trkpt><trkpt lat="40.7856633" lon="14.7783867"><ele>203.66666666666669</ele><time>2026-04-09T15:56:33.084Z</time></trkpt><trkpt lat="40.7855217" lon="14.77853"><ele>204.33333333333331</ele><time>2026-04-09T15:56:34.084Z</time></trkpt><trkpt lat="40.7853783" lon="14.778675"><ele>205.0</ele><time>2026-04-09T15:56:35.084Z</time></trkpt><trkpt lat="40.78523" lon="14.77882"><ele>205.33333333333331</ele><time>2026-04-09T15:56:36.084Z</time></trkpt><trkpt lat="40.7850867" lon="14.7789683"><ele>205.66666666666669</ele><time>2026-04-09T15:56:37.084Z</time></trkpt><trkpt lat="40.7849417" lon="14.77912"><ele>206.0</ele><time>2026-04-09T15:56:38.084Z</time></trkpt><trkpt lat="40.7847933" lon="14.7792733"><ele>207.66666666666669</ele><time>2026-04-09T15:56:39.084Z</time></trkpt><trkpt lat="40.78465" lon="14.7794233"><ele>209.33333333333331</ele><time>2026-04-09T15:56:40.084Z</time></trkpt><trkpt lat="40.7845067" lon="14.7795683"><ele>211.0</ele><time>2026-04-09T15:56:41.084Z</time></trkpt><trkpt lat="40.7843683" lon="14.77972"><ele>211.66666666666666</ele><time>2026-04-09T15:56:42.084Z</time></trkpt><trkpt lat="40.7842267" lon="14.7798633"><ele>212.33333333333331</ele><time>2026-04-09T15:56:43.084Z</time></trkpt><trkpt lat="40.7840833" lon="14.78"><ele>213.0</ele><time>2026-04-09T15:56:44.084Z</time></trkpt><trkpt lat="40.7839383" lon="14.780135"><ele>214.33333333333331</ele><time>2026-04-09T15:56:45.084Z</time></trkpt><trkpt lat="40.7837867" lon="14.7802683"><ele>215.66666666666666</ele><time>2026-04-09T15:56:46.084Z</time></trkpt><trkpt lat="40.7836417" lon="14.7803967"><ele>217.0</ele><time>2026-04-09T15:56:47.084Z</time></trkpt><trkpt lat="40.7834883" lon="14.7805167"><ele>217.0</ele><time>2026-04-09T15:56:48.084Z</time></trkpt><trkpt lat="40.7833317" lon="14.78063"><ele>217.0</ele><time>2026-04-09T15:56:49.084Z</time></trkpt><trkpt lat="40.7831717" lon="14.7807367"><ele>217.0</ele><time>2026-04-09T15:56:50.084Z</time></trkpt><trkpt lat="40.7830083" lon="14.78085"><ele>217.0</ele><time>2026-04-09T15:56:51.084Z</time></trkpt><trkpt lat="40.7828483" lon="14.7809567"><ele>217.0</ele><time>2026-04-09T15:56:52.084Z</time></trkpt><trkpt lat="40.7826833" lon="14.7810483"><ele>217.0</ele><time>2026-04-09T15:56:53.084Z</time></trkpt><trkpt lat="40.782515" lon="14.7811417"><ele>217.66666666666666</ele><time>2026-04-09T15:56:54.084Z</time></trkpt><trkpt lat="40.782345" lon="14.78123"><ele>218.33333333333331</ele><time>2026-04-09T15:56:55.084Z</time></trkpt><trkpt lat="40.78217" lon="14.7813267"><ele>219.0</ele><time>2026-04-09T15:56:56.084Z</time></trkpt><trkpt lat="40.782" lon="14.78141"><ele>220.0</ele><time>2026-04-09T15:56:57.084Z</time></trkpt><trkpt lat="40.781835" lon="14.7814917"><ele>221.0</ele><time>2026-04-09T15:56:58.084Z</time></trkpt><trkpt lat="40.7816783" lon="14.7815617"><ele>222.0</ele><time>2026-04-09T15:56:59.084Z</time></trkpt><trkpt lat="40.781515" lon="14.7816433"><ele>222.0</ele><time>2026-04-09T15:57:00.084Z</time></trkpt><trkpt lat="40.78135" lon="14.7817233"><ele>222.0</ele><time>2026-04-09T15:57:01.084Z</time></trkpt><trkpt lat="40.7811783" lon="14.7818033"><ele>222.0</ele><time>2026-04-09T15:57:02.084Z</time></trkpt><trkpt lat="40.7810067" lon="14.7818817"><ele>223.0</ele><time>2026-04-09T15:57:03.084Z</time></trkpt><trkpt lat="40.7808267" lon="14.7819617"><ele>224.0</ele><time>2026-04-09T15:57:04.084Z</time></trkpt><trkpt lat="40.7806533" lon="14.7820483"><ele>225.0</ele><time>2026-04-09T15:57:05.084Z</time></trkpt><trkpt lat="40.780485" lon="14.7821217"><ele>225.0</ele><time>2026-04-09T15:57:06.084Z</time></trkpt><trkpt lat="40.7803167" lon="14.7821967"><ele>225.0</ele><time>2026-04-09T15:57:07.084Z</time></trkpt><trkpt lat="40.7801467" lon="14.782275"><ele>225.0</ele><time>2026-04-09T15:57:08.084Z</time></trkpt><trkpt lat="40.77997" lon="14.782355"><ele>225.66666666666669</ele><time>2026-04-09T15:57:09.084Z</time></trkpt><trkpt lat="40.7797983" lon="14.78243"><ele>226.33333333333334</ele><time>2026-04-09T15:57:10.084Z</time></trkpt><trkpt lat="40.779625" lon="14.7825133"><ele>227.0</ele><time>2026-04-09T15:57:11.084Z</time></trkpt><trkpt lat="40.7794467" lon="14.7826067"><ele>229.33333333333334</ele><time>2026-04-09T15:57:12.084Z</time></trkpt><trkpt lat="40.7792717" lon="14.7826967"><ele>231.66666666666669</ele><time>2026-04-09T15:57:13.084Z</time></trkpt><trkpt lat="40.7790967" lon="14.7827867"><ele>234.0</ele><time>2026-04-09T15:57:14.084Z</time></trkpt><trkpt lat="40.7789317" lon="14.7828683"><ele>234.0</ele><time>2026-04-09T15:57:15.084Z</time></trkpt><trkpt lat="40.7787683" lon="14.7829433"><ele>234.0</ele><time>2026-04-09T15:57:16.084Z</time></trkpt><trkpt lat="40.7786067" lon="14.7830117"><ele>234.0</ele><time>2026-04-09T15:57:17.084Z</time></trkpt><trkpt lat="40.7784433" lon="14.783075"><ele>234.0</ele><time>2026-04-09T15:57:18.084Z</time></trkpt><trkpt lat="40.77828" lon="14.78315"><ele>234.0</ele><time>2026-04-09T15:57:19.084Z</time></trkpt><trkpt lat="40.778115" lon="14.7832217"><ele>234.0</ele><time>2026-04-09T15:57:20.084Z</time></trkpt><trkpt lat="40.7779583" lon="14.7832967"><ele>234.0</ele><time>2026-04-09T15:57:21.084Z</time></trkpt><trkpt lat="40.7777967" lon="14.78338"><ele>234.0</ele><time>2026-04-09T15:57:22.084Z</time></trkpt><trkpt lat="40.7776467" lon="14.7834467"><ele>234.0</ele><time>2026-04-09T15:57:23.084Z</time></trkpt><trkpt lat="40.7774667" lon="14.7835317"><ele>235.33333333333331</ele><time>2026-04-09T15:57:24.084Z</time></trkpt><trkpt lat="40.77729" lon="14.7836117"><ele>236.66666666666666</ele><time>2026-04-09T15:57:25.084Z</time></trkpt><trkpt lat="40.77711" lon="14.7837017"><ele>238.0</ele><time>2026-04-09T15:57:26.084Z</time></trkpt><trkpt lat="40.77692" lon="14.78379"><ele>237.66666666666666</ele><time>2026-04-09T15:57:27.084Z</time></trkpt><trkpt lat="40.7767217" lon="14.78388"><ele>237.33333333333331</ele><time>2026-04-09T15:57:28.084Z</time></trkpt><trkpt lat="40.7765233" lon="14.7839833"><ele>237.0</ele><time>2026-04-09T15:57:29.084Z</time></trkpt><trkpt lat="40.7763233" lon="14.7840633"><ele>237.0</ele><time>2026-04-09T15:57:30.084Z</time></trkpt><trkpt lat="40.7761283" lon="14.7841417"><ele>237.0</ele><time>2026-04-09T15:57:31.084Z</time></trkpt><trkpt lat="40.77594" lon="14.7842267"><ele>237.0</ele><time>2026-04-09T15:57:32.084Z</time></trkpt><trkpt lat="40.7757467" lon="14.784315"><ele>237.66666666666669</ele><time>2026-04-09T15:57:33.084Z</time></trkpt><trkpt lat="40.7755533" lon="14.7844067"><ele>238.33333333333334</ele><time>2026-04-09T15:57:34.084Z</time></trkpt><trkpt lat="40.7753633" lon="14.7844983"><ele>239.0</ele><time>2026-04-09T15:57:35.084Z</time></trkpt><trkpt lat="40.7751633" lon="14.7845983"><ele>239.0</ele><time>2026-04-09T15:57:36.084Z</time></trkpt><trkpt lat="40.7749717" lon="14.7846883"><ele>239.0</ele><time>2026-04-09T15:57:37.085Z</time></trkpt><trkpt lat="40.774775" lon="14.7847833"><ele>239.0</ele><time>2026-04-09T15:57:38.084Z</time></trkpt><trkpt lat="40.774575" lon="14.78488"><ele>239.0</ele><time>2026-04-09T15:57:39.084Z</time></trkpt><trkpt lat="40.774375" lon="14.7849833"><ele>239.0</ele><time>2026-04-09T15:57:40.084Z</time></trkpt><trkpt lat="40.7741717" lon="14.7850767"><ele>239.0</ele><time>2026-04-09T15:57:41.084Z</time></trkpt><trkpt lat="40.7739817" lon="14.7851683"><ele>240.33333333333334</ele><time>2026-04-09T15:57:42.084Z</time></trkpt><trkpt lat="40.7737933" lon="14.7852617"><ele>241.66666666666669</ele><time>2026-04-09T15:57:43.084Z</time></trkpt><trkpt lat="40.7735967" lon="14.7853533"><ele>243.0</ele><time>2026-04-09T15:57:44.084Z</time></trkpt><trkpt lat="40.7734" lon="14.785445"><ele>243.33333333333331</ele><time>2026-04-09T15:57:45.084Z</time></trkpt><trkpt lat="40.7732133" lon="14.78553"><ele>243.66666666666666</ele><time>2026-04-09T15:57:46.084Z</time></trkpt><trkpt lat="40.7730333" lon="14.7856133"><ele>244.0</ele><time>2026-04-09T15:57:47.084Z</time></trkpt><trkpt lat="40.7728567" lon="14.7856733"><ele>243.66666666666666</ele><time>2026-04-09T15:57:48.084Z</time></trkpt><trkpt lat="40.772685" lon="14.7857467"><ele>243.33333333333331</ele><time>2026-04-09T15:57:49.084Z</time></trkpt><trkpt lat="40.772505" lon="14.7858117"><ele>243.0</ele><time>2026-04-09T15:57:50.084Z</time></trkpt><trkpt lat="40.7723217" lon="14.7858767"><ele>243.0</ele><time>2026-04-09T15:57:51.084Z</time></trkpt><trkpt lat="40.7721367" lon="14.7859283"><ele>243.0</ele><time>2026-04-09T15:57:52.084Z</time></trkpt><trkpt lat="40.7719533" lon="14.78598"><ele>243.0</ele><time>2026-04-09T15:57:53.084Z</time></trkpt><trkpt lat="40.77178" lon="14.7860083"><ele>242.66666666666669</ele><time>2026-04-09T15:57:54.084Z</time></trkpt><trkpt lat="40.7715933" lon="14.7860533"><ele>242.33333333333334</ele><time>2026-04-09T15:57:55.084Z</time></trkpt><trkpt lat="40.7714117" lon="14.786095"><ele>242.0</ele><time>2026-04-09T15:57:56.084Z</time></trkpt><trkpt lat="40.7712267" lon="14.786135"><ele>242.0</ele><time>2026-04-09T15:57:57.084Z</time></trkpt><trkpt lat="40.7710467" lon="14.78617"><ele>242.0</ele><time>2026-04-09T15:57:58.084Z</time></trkpt><trkpt lat="40.7708767" lon="14.7862"><ele>242.0</ele><time>2026-04-09T15:57:59.084Z</time></trkpt><trkpt lat="40.7707" lon="14.7862233"><ele>241.0</ele><time>2026-04-09T15:58:00.084Z</time></trkpt><trkpt lat="40.770525" lon="14.78624"><ele>240.0</ele><time>2026-04-09T15:58:01.084Z</time></trkpt><trkpt lat="40.7703567" lon="14.786255"><ele>239.0</ele><time>2026-04-09T15:58:02.084Z</time></trkpt><trkpt lat="40.7701983" lon="14.7862783"><ele>238.0</ele><time>2026-04-09T15:58:03.084Z</time></trkpt><trkpt lat="40.770015" lon="14.7863033"><ele>237.0</ele><time>2026-04-09T15:58:04.084Z</time></trkpt><trkpt lat="40.7698467" lon="14.78633"><ele>236.0</ele><time>2026-04-09T15:58:05.084Z</time></trkpt><trkpt lat="40.769685" lon="14.78636"><ele>236.0</ele><time>2026-04-09T15:58:06.084Z</time></trkpt><trkpt lat="40.7695117" lon="14.786405"><ele>236.0</ele><time>2026-04-09T15:58:07.084Z</time></trkpt><trkpt lat="40.76933" lon="14.786465"><ele>236.0</ele><time>2026-04-09T15:58:08.084Z</time></trkpt><trkpt lat="40.769155" lon="14.786525"><ele>234.66666666666669</ele><time>2026-04-09T15:58:09.084Z</time></trkpt><trkpt lat="40.7689817" lon="14.7865983"><ele>233.33333333333331</ele><time>2026-04-09T15:58:10.084Z</time></trkpt><trkpt lat="40.768805" lon="14.7866817"><ele>232.0</ele><time>2026-04-09T15:58:11.084Z</time></trkpt><trkpt lat="40.76864" lon="14.786785"><ele>232.66666666666666</ele><time>2026-04-09T15:58:12.084Z</time></trkpt><trkpt lat="40.7684783" lon="14.786885"><ele>233.33333333333331</ele><time>2026-04-09T15:58:13.084Z</time></trkpt><trkpt lat="40.7683267" lon="14.7869933"><ele>234.0</ele><time>2026-04-09T15:58:14.084Z</time></trkpt><trkpt lat="40.7681867" lon="14.7871017"><ele>234.0</ele><time>2026-04-09T15:58:15.084Z</time></trkpt><trkpt lat="40.7680467" lon="14.7872133"><ele>234.0</ele><time>2026-04-09T15:58:16.084Z</time></trkpt><trkpt lat="40.7679133" lon="14.7873233"><ele>234.0</ele><time>2026-04-09T15:58:17.084Z</time></trkpt><trkpt lat="40.7677783" lon="14.787435"><ele>234.33333333333331</ele><time>2026-04-09T15:58:18.084Z</time></trkpt><trkpt lat="40.7676467" lon="14.7875517"><ele>234.66666666666666</ele><time>2026-04-09T15:58:19.084Z</time></trkpt><trkpt lat="40.7675167" lon="14.787665"><ele>235.0</ele><time>2026-04-09T15:58:20.084Z</time></trkpt><trkpt lat="40.7673883" lon="14.7877767"><ele>235.0</ele><time>2026-04-09T15:58:21.084Z</time></trkpt><trkpt lat="40.767265" lon="14.7878767"><ele>235.0</ele><time>2026-04-09T15:58:22.084Z</time></trkpt><trkpt lat="40.7671433" lon="14.7879817"><ele>235.0</ele><time>2026-04-09T15:58:23.084Z</time></trkpt><trkpt lat="40.76702" lon="14.7880817"><ele>235.0</ele><time>2026-04-09T15:58:24.084Z</time></trkpt><trkpt lat="40.7668933" lon="14.7881767"><ele>234.0</ele><time>2026-04-09T15:58:25.084Z</time></trkpt><trkpt lat="40.7667617" lon="14.7882617"><ele>233.0</ele><time>2026-04-09T15:58:26.084Z</time></trkpt><trkpt lat="40.76662" lon="14.7883367"><ele>232.0</ele><time>2026-04-09T15:58:27.084Z</time></trkpt><trkpt lat="40.7664733" lon="14.78841"><ele>232.0</ele><time>2026-04-09T15:58:28.084Z</time></trkpt><trkpt lat="40.7663233" lon="14.7884667"><ele>232.0</ele><time>2026-04-09T15:58:29.084Z</time></trkpt><trkpt lat="40.7661767" lon="14.78851"><ele>232.0</ele><time>2026-04-09T15:58:30.084Z</time></trkpt><trkpt lat="40.7660333" lon="14.788545"><ele>233.0</ele><time>2026-04-09T15:58:31.084Z</time></trkpt><trkpt lat="40.765865" lon="14.7885817"><ele>234.0</ele><time>2026-04-09T15:58:32.084Z</time></trkpt><trkpt lat="40.7656917" lon="14.78862"><ele>235.0</ele><time>2026-04-09T15:58:33.084Z</time></trkpt><trkpt lat="40.7655183" lon="14.78866"><ele>235.0</ele><time>2026-04-09T15:58:34.084Z</time></trkpt><trkpt lat="40.765345" lon="14.78869"><ele>235.0</ele><time>2026-04-09T15:58:35.084Z</time></trkpt><trkpt lat="40.7651717" lon="14.7887233"><ele>235.0</ele><time>2026-04-09T15:58:36.084Z</time></trkpt><trkpt lat="40.7649967" lon="14.7887417"><ele>234.0</ele><time>2026-04-09T15:58:37.084Z</time></trkpt><trkpt lat="40.7648133" lon="14.7887733"><ele>233.0</ele><time>2026-04-09T15:58:38.084Z</time></trkpt><trkpt lat="40.764635" lon="14.7888"><ele>232.0</ele><time>2026-04-09T15:58:39.084Z</time></trkpt><trkpt lat="40.7644567" lon="14.788815"><ele>232.33333333333331</ele><time>2026-04-09T15:58:40.084Z</time></trkpt><trkpt lat="40.7642767" lon="14.78883"><ele>232.66666666666669</ele><time>2026-04-09T15:58:41.084Z</time></trkpt><trkpt lat="40.7640933" lon="14.7888417"><ele>233.0</ele><time>2026-04-09T15:58:42.084Z</time></trkpt><trkpt lat="40.7639083" lon="14.788835"><ele>233.0</ele><time>2026-04-09T15:58:43.084Z</time></trkpt><trkpt lat="40.7637267" lon="14.788835"><ele>233.0</ele><time>2026-04-09T15:58:44.084Z</time></trkpt><trkpt lat="40.76354" lon="14.78882"><ele>233.0</ele><time>2026-04-09T15:58:45.084Z</time></trkpt><trkpt lat="40.7633483" lon="14.7888067"><ele>234.33333333333334</ele><time>2026-04-09T15:58:46.084Z</time></trkpt><trkpt lat="40.7631633" lon="14.7887967"><ele>235.66666666666669</ele><time>2026-04-09T15:58:47.084Z</time></trkpt><trkpt lat="40.7629717" lon="14.7887783"><ele>237.0</ele><time>2026-04-09T15:58:48.084Z</time></trkpt><trkpt lat="40.7627833" lon="14.7887667"><ele>237.33333333333331</ele><time>2026-04-09T15:58:49.084Z</time></trkpt><trkpt lat="40.76258" lon="14.7887467"><ele>237.66666666666666</ele><time>2026-04-09T15:58:50.084Z</time></trkpt><trkpt lat="40.7623767" lon="14.7887217"><ele>238.0</ele><time>2026-04-09T15:58:51.084Z</time></trkpt><trkpt lat="40.7621867" lon="14.7887"><ele>238.0</ele><time>2026-04-09T15:58:52.084Z</time></trkpt><trkpt lat="40.7619883" lon="14.78867"><ele>238.0</ele><time>2026-04-09T15:58:53.084Z</time></trkpt><trkpt lat="40.7617933" lon="14.7886367"><ele>238.0</ele><time>2026-04-09T15:58:54.084Z</time></trkpt><trkpt lat="40.7616017" lon="14.7886033"><ele>238.0</ele><time>2026-04-09T15:58:55.084Z</time></trkpt><trkpt lat="40.7614" lon="14.7885733"><ele>238.0</ele><time>2026-04-09T15:58:56.084Z</time></trkpt><trkpt lat="40.7612067" lon="14.788535"><ele>238.0</ele><time>2026-04-09T15:58:57.084Z</time></trkpt><trkpt lat="40.761005" lon="14.7884933"><ele>238.0</ele><time>2026-04-09T15:58:58.084Z</time></trkpt><trkpt lat="40.7608017" lon="14.7884483"><ele>238.0</ele><time>2026-04-09T15:58:59.084Z</time></trkpt><trkpt lat="40.7606067" lon="14.7884067"><ele>238.0</ele><time>2026-04-09T15:59:00.084Z</time></trkpt><trkpt lat="40.7604183" lon="14.7883583"><ele>238.0</ele><time>2026-04-09T15:59:01.084Z</time></trkpt><trkpt lat="40.7602267" lon="14.7883167"><ele>238.0</ele><time>2026-04-09T15:59:02.084Z</time></trkpt><trkpt lat="40.7600417" lon="14.7882833"><ele>238.0</ele><time>2026-04-09T15:59:03.084Z</time></trkpt><trkpt lat="40.7598467" lon="14.7882433"><ele>238.33333333333331</ele><time>2026-04-09T15:59:04.084Z</time></trkpt><trkpt lat="40.7596517" lon="14.7882067"><ele>238.66666666666669</ele><time>2026-04-09T15:59:05.084Z</time></trkpt><trkpt lat="40.7594533" lon="14.788165"><ele>239.0</ele><time>2026-04-09T15:59:06.084Z</time></trkpt><trkpt lat="40.7592533" lon="14.7881217"><ele>240.0</ele><time>2026-04-09T15:59:07.084Z</time></trkpt><trkpt lat="40.7590517" lon="14.788075"><ele>241.0</ele><time>2026-04-09T15:59:08.084Z</time></trkpt><trkpt lat="40.758845" lon="14.7880417"><ele>242.0</ele><time>2026-04-09T15:59:09.084Z</time></trkpt><trkpt lat="40.7586383" lon="14.7880017"><ele>242.33333333333334</ele><time>2026-04-09T15:59:10.084Z</time></trkpt><trkpt lat="40.7584383" lon="14.78797"><ele>242.66666666666669</ele><time>2026-04-09T15:59:11.084Z</time></trkpt><trkpt lat="40.75824" lon="14.7879367"><ele>243.0</ele><time>2026-04-09T15:59:12.084Z</time></trkpt><trkpt lat="40.7580533" lon="14.7878967"><ele>243.0</ele><time>2026-04-09T15:59:13.084Z</time></trkpt><trkpt lat="40.7578683" lon="14.7878483"><ele>243.0</ele><time>2026-04-09T15:59:14.084Z</time></trkpt><trkpt lat="40.7576667" lon="14.7878117"><ele>243.0</ele><time>2026-04-09T15:59:15.084Z</time></trkpt><trkpt lat="40.7574683" lon="14.787765"><ele>242.0</ele><time>2026-04-09T15:59:16.084Z</time></trkpt><trkpt lat="40.75727" lon="14.7877183"><ele>241.0</ele><time>2026-04-09T15:59:17.084Z</time></trkpt><trkpt lat="40.7570717" lon="14.7876717"><ele>240.0</ele><time>2026-04-09T15:59:18.084Z</time></trkpt><trkpt lat="40.7568733" lon="14.7876317"><ele>238.66666666666669</ele><time>2026-04-09T15:59:19.084Z</time></trkpt><trkpt lat="40.7566817" lon="14.7876"><ele>237.33333333333334</ele><time>2026-04-09T15:59:20.084Z</time></trkpt><trkpt lat="40.7564833" lon="14.7875633"><ele>236.0</ele><time>2026-04-09T15:59:21.084Z</time></trkpt><trkpt lat="40.7562867" lon="14.787525"><ele>236.0</ele><time>2026-04-09T15:59:22.084Z</time></trkpt><trkpt lat="40.7560967" lon="14.7874833"><ele>236.0</ele><time>2026-04-09T15:59:23.084Z</time></trkpt><trkpt lat="40.75591" lon="14.7874467"><ele>236.0</ele><time>2026-04-09T15:59:24.084Z</time></trkpt><trkpt lat="40.7557167" lon="14.7874083"><ele>235.66666666666669</ele><time>2026-04-09T15:59:25.084Z</time></trkpt><trkpt lat="40.75552" lon="14.7873733"><ele>235.33333333333331</ele><time>2026-04-09T15:59:26.084Z</time></trkpt><trkpt lat="40.755325" lon="14.7873333"><ele>235.0</ele><time>2026-04-09T15:59:27.084Z</time></trkpt><trkpt lat="40.7551317" lon="14.7872867"><ele>233.66666666666666</ele><time>2026-04-09T15:59:28.084Z</time></trkpt><trkpt lat="40.7549333" lon="14.7872517"><ele>232.33333333333331</ele><time>2026-04-09T15:59:29.084Z</time></trkpt><trkpt lat="40.7547333" lon="14.78721"><ele>231.0</ele><time>2026-04-09T15:59:30.084Z</time></trkpt><trkpt lat="40.7545333" lon="14.7871667"><ele>229.66666666666669</ele><time>2026-04-09T15:59:31.085Z</time></trkpt><trkpt lat="40.7543317" lon="14.787125"><ele>228.33333333333334</ele><time>2026-04-09T15:59:32.084Z</time></trkpt><trkpt lat="40.7541283" lon="14.7870833"><ele>227.0</ele><time>2026-04-09T15:59:33.085Z</time></trkpt><trkpt lat="40.753925" lon="14.787045"><ele>227.0</ele><time>2026-04-09T15:59:34.084Z</time></trkpt><trkpt lat="40.753715" lon="14.78701"><ele>227.0</ele><time>2026-04-09T15:59:35.084Z</time></trkpt><trkpt lat="40.75351" lon="14.78697"><ele>227.0</ele><time>2026-04-09T15:59:36.084Z</time></trkpt><trkpt lat="40.7533167" lon="14.7869267"><ele>226.33333333333334</ele><time>2026-04-09T15:59:37.084Z</time></trkpt><trkpt lat="40.753115" lon="14.786885"><ele>225.66666666666669</ele><time>2026-04-09T15:59:38.084Z</time></trkpt><trkpt lat="40.752915" lon="14.7868417"><ele>225.0</ele><time>2026-04-09T15:59:39.084Z</time></trkpt><trkpt lat="40.7527117" lon="14.7867983"><ele>224.0</ele><time>2026-04-09T15:59:40.084Z</time></trkpt><trkpt lat="40.75251" lon="14.78676"><ele>223.0</ele><time>2026-04-09T15:59:41.084Z</time></trkpt><trkpt lat="40.7523033" lon="14.7867267"><ele>222.0</ele><time>2026-04-09T15:59:42.084Z</time></trkpt><trkpt lat="40.7520933" lon="14.7866833"><ele>222.0</ele><time>2026-04-09T15:59:43.084Z</time></trkpt><trkpt lat="40.751885" lon="14.7866383"><ele>222.0</ele><time>2026-04-09T15:59:44.084Z</time></trkpt><trkpt lat="40.7516667" lon="14.7865883"><ele>222.0</ele><time>2026-04-09T15:59:45.084Z</time></trkpt><trkpt lat="40.7514517" lon="14.7865533"><ele>222.33333333333331</ele><time>2026-04-09T15:59:46.084Z</time></trkpt><trkpt lat="40.7512333" lon="14.7865033"><ele>222.66666666666666</ele><time>2026-04-09T15:59:47.084Z</time></trkpt><trkpt lat="40.7510217" lon="14.7864467"><ele>223.0</ele><time>2026-04-09T15:59:48.084Z</time></trkpt><trkpt lat="40.7508167" lon="14.7863917"><ele>223.0</ele><time>2026-04-09T15:59:49.084Z</time></trkpt><trkpt lat="40.7506033" lon="14.786355"><ele>223.0</ele><time>2026-04-09T15:59:50.084Z</time></trkpt><trkpt lat="40.75039" lon="14.786315"><ele>223.0</ele><time>2026-04-09T15:59:51.084Z</time></trkpt><trkpt lat="40.7501817" lon="14.7862767"><ele>223.0</ele><time>2026-04-09T15:59:52.084Z</time></trkpt><trkpt lat="40.7499717" lon="14.78624"><ele>223.0</ele><time>2026-04-09T15:59:53.084Z</time></trkpt><trkpt lat="40.7497583" lon="14.7862017"><ele>223.0</ele><time>2026-04-09T15:59:54.084Z</time></trkpt><trkpt lat="40.7495433" lon="14.7861717"><ele>223.33333333333331</ele><time>2026-04-09T15:59:55.084Z</time></trkpt><trkpt lat="40.7493317" lon="14.7861233"><ele>223.66666666666669</ele><time>2026-04-09T15:59:56.084Z</time></trkpt><trkpt lat="40.74912" lon="14.786085"><ele>224.0</ele><time>2026-04-09T15:59:57.084Z</time></trkpt><trkpt lat="40.7489183" lon="14.7860417"><ele>223.66666666666669</ele><time>2026-04-09T15:59:58.084Z</time></trkpt><trkpt lat="40.748725" lon="14.7860017"><ele>223.33333333333331</ele><time>2026-04-09T15:59:59.084Z</time></trkpt><trkpt lat="40.7485367" lon="14.78597"><ele>223.0</ele><time>2026-04-09T16:00:00.084Z</time></trkpt><trkpt lat="40.748345" lon="14.7859267"><ele>223.0</ele><time>2026-04-09T16:00:01.084Z</time></trkpt><trkpt lat="40.7481517" lon="14.7858867"><ele>223.0</ele><time>2026-04-09T16:00:02.084Z</time></trkpt><trkpt lat="40.7479533" lon="14.7858517"><ele>223.0</ele><time>2026-04-09T16:00:03.084Z</time></trkpt><trkpt lat="40.7477617" lon="14.785815"><ele>224.0</ele><time>2026-04-09T16:00:04.084Z</time></trkpt><trkpt lat="40.7475667" lon="14.7857783"><ele>225.0</ele><time>2026-04-09T16:00:05.084Z</time></trkpt><trkpt lat="40.7473717" lon="14.78574"><ele>226.0</ele><time>2026-04-09T16:00:06.084Z</time></trkpt><trkpt lat="40.7471767" lon="14.7857067"><ele>226.0</ele><time>2026-04-09T16:00:07.084Z</time></trkpt><trkpt lat="40.7469867" lon="14.785665"><ele>226.0</ele><time>2026-04-09T16:00:08.084Z</time></trkpt><trkpt lat="40.7467967" lon="14.78562"><ele>226.0</ele><time>2026-04-09T16:00:09.084Z</time></trkpt><trkpt lat="40.7466" lon="14.78556"><ele>226.33333333333331</ele><time>2026-04-09T16:00:10.084Z</time></trkpt><trkpt lat="40.7463983" lon="14.7855017"><ele>226.66666666666669</ele><time>2026-04-09T16:00:11.084Z</time></trkpt><trkpt lat="40.7461983" lon="14.78544"><ele>227.0</ele><time>2026-04-09T16:00:12.084Z</time></trkpt><trkpt lat="40.7459933" lon="14.7853817"><ele>227.0</ele><time>2026-04-09T16:00:13.084Z</time></trkpt><trkpt lat="40.745795" lon="14.785285"><ele>227.0</ele><time>2026-04-09T16:00:14.084Z</time></trkpt><trkpt lat="40.7455917" lon="14.7852033"><ele>227.0</ele><time>2026-04-09T16:00:15.084Z</time></trkpt><trkpt lat="40.745395" lon="14.78513"><ele>224.66666666666669</ele><time>2026-04-09T16:00:16.084Z</time></trkpt><trkpt lat="40.7451983" lon="14.7850517"><ele>222.33333333333331</ele><time>2026-04-09T16:00:17.084Z</time></trkpt><trkpt lat="40.7450083" lon="14.7849667"><ele>220.0</ele><time>2026-04-09T16:00:18.084Z</time></trkpt><trkpt lat="40.7448183" lon="14.78488"><ele>220.0</ele><time>2026-04-09T16:00:19.084Z</time></trkpt><trkpt lat="40.7446283" lon="14.784795"><ele>220.0</ele><time>2026-04-09T16:00:20.084Z</time></trkpt><trkpt lat="40.744445" lon="14.7847067"><ele>220.0</ele><time>2026-04-09T16:00:21.084Z</time></trkpt><trkpt lat="40.744265" lon="14.7846133"><ele>219.66666666666666</ele><time>2026-04-09T16:00:22.084Z</time></trkpt><trkpt lat="40.7440867" lon="14.7845167"><ele>219.33333333333331</ele><time>2026-04-09T16:00:23.084Z</time></trkpt><trkpt lat="40.7439083" lon="14.78442"><ele>219.0</ele><time>2026-04-09T16:00:24.084Z</time></trkpt><trkpt lat="40.7437283" lon="14.78432"><ele>219.0</ele><time>2026-04-09T16:00:25.084Z</time></trkpt><trkpt lat="40.74355" lon="14.7842167"><ele>219.0</ele><time>2026-04-09T16:00:26.084Z</time></trkpt><trkpt lat="40.74337" lon="14.7841117"><ele>219.0</ele><time>2026-04-09T16:00:27.084Z</time></trkpt><trkpt lat="40.7431883" lon="14.7839983"><ele>219.0</ele><time>2026-04-09T16:00:28.084Z</time></trkpt><trkpt lat="40.74301" lon="14.7838733"><ele>219.0</ele><time>2026-04-09T16:00:29.084Z</time></trkpt><trkpt lat="40.7428267" lon="14.7837517"><ele>219.0</ele><time>2026-04-09T16:00:30.084Z</time></trkpt><trkpt lat="40.742655" lon="14.7836333"><ele>220.0</ele><time>2026-04-09T16:00:31.084Z</time></trkpt><trkpt lat="40.74248" lon="14.7835117"><ele>221.0</ele><time>2026-04-09T16:00:32.084Z</time></trkpt><trkpt lat="40.74231" lon="14.7833767"><ele>222.0</ele><time>2026-04-09T16:00:33.084Z</time></trkpt><trkpt lat="40.74214" lon="14.7832367"><ele>222.0</ele><time>2026-04-09T16:00:34.084Z</time></trkpt><trkpt lat="40.7419783" lon="14.7830833"><ele>222.0</ele><time>2026-04-09T16:00:35.084Z</time></trkpt><trkpt lat="40.74181" lon="14.7829367"><ele>222.0</ele><time>2026-04-09T16:00:36.084Z</time></trkpt><trkpt lat="40.7416333" lon="14.782785"><ele>218.66666666666669</ele><time>2026-04-09T16:00:37.084Z</time></trkpt><trkpt lat="40.741465" lon="14.7826283"><ele>215.33333333333334</ele><time>2026-04-09T16:00:38.084Z</time></trkpt><trkpt lat="40.741295" lon="14.7824767"><ele>212.0</ele><time>2026-04-09T16:00:39.084Z</time></trkpt><trkpt lat="40.7411233" lon="14.78232"><ele>211.33333333333334</ele><time>2026-04-09T16:00:40.084Z</time></trkpt><trkpt lat="40.7409583" lon="14.7821533"><ele>210.66666666666669</ele><time>2026-04-09T16:00:41.084Z</time></trkpt><trkpt lat="40.7407983" lon="14.7819783"><ele>210.0</ele><time>2026-04-09T16:00:42.084Z</time></trkpt><trkpt lat="40.740635" lon="14.78181"><ele>210.0</ele><time>2026-04-09T16:00:43.084Z</time></trkpt><trkpt lat="40.7404733" lon="14.7816317"><ele>210.0</ele><time>2026-04-09T16:00:44.084Z</time></trkpt><trkpt lat="40.7403067" lon="14.7814617"><ele>210.0</ele><time>2026-04-09T16:00:45.084Z</time></trkpt><trkpt lat="40.7401483" lon="14.78128"><ele>210.66666666666669</ele><time>2026-04-09T16:00:46.084Z</time></trkpt><trkpt lat="40.739985" lon="14.7810917"><ele>211.33333333333334</ele><time>2026-04-09T16:00:47.085Z</time></trkpt><trkpt lat="40.7398333" lon="14.780905"><ele>212.0</ele><time>2026-04-09T16:00:48.085Z</time></trkpt><trkpt lat="40.73968" lon="14.7807383"><ele>210.66666666666669</ele><time>2026-04-09T16:00:49.085Z</time></trkpt><trkpt lat="40.7395283" lon="14.780575"><ele>209.33333333333331</ele><time>2026-04-09T16:00:50.085Z</time></trkpt><trkpt lat="40.7393833" lon="14.780415"><ele>208.0</ele><time>2026-04-09T16:00:51.085Z</time></trkpt><trkpt lat="40.739245" lon="14.7802483"><ele>204.66666666666666</ele><time>2026-04-09T16:00:52.085Z</time></trkpt><trkpt lat="40.7390983" lon="14.7800883"><ele>201.33333333333331</ele><time>2026-04-09T16:00:53.085Z</time></trkpt><trkpt lat="40.738955" lon="14.7799217"><ele>198.0</ele><time>2026-04-09T16:00:54.085Z</time></trkpt><trkpt lat="40.7388083" lon="14.779755"><ele>198.0</ele><time>2026-04-09T16:00:55.085Z</time></trkpt><trkpt lat="40.7386567" lon="14.77959"><ele>198.0</ele><time>2026-04-09T16:00:56.085Z</time></trkpt><trkpt lat="40.7385183" lon="14.7794267"><ele>198.0</ele><time>2026-04-09T16:00:57.085Z</time></trkpt><trkpt lat="40.73838" lon="14.7792683"><ele>196.0</ele><time>2026-04-09T16:00:58.085Z</time></trkpt><trkpt lat="40.7382517" lon="14.7791133"><ele>194.0</ele><time>2026-04-09T16:00:59.085Z</time></trkpt><trkpt lat="40.7381167" lon="14.7789617"><ele>192.0</ele><time>2026-04-09T16:01:00.085Z</time></trkpt><trkpt lat="40.7379783" lon="14.7788117"><ele>192.0</ele><time>2026-04-09T16:01:01.085Z</time></trkpt><trkpt lat="40.7378367" lon="14.778655"><ele>192.0</ele><time>2026-04-09T16:01:02.085Z</time></trkpt><trkpt lat="40.7376933" lon="14.7785"><ele>192.0</ele><time>2026-04-09T16:01:03.085Z</time></trkpt><trkpt lat="40.7375483" lon="14.77834"><ele>190.33333333333334</ele><time>2026-04-09T16:01:04.085Z</time></trkpt><trkpt lat="40.7374033" lon="14.77818"><ele>188.66666666666669</ele><time>2026-04-09T16:01:05.085Z</time></trkpt><trkpt lat="40.73726" lon="14.778025"><ele>187.0</ele><time>2026-04-09T16:01:06.085Z</time></trkpt><trkpt lat="40.7371133" lon="14.7778717"><ele>187.0</ele><time>2026-04-09T16:01:07.085Z</time></trkpt><trkpt lat="40.7369633" lon="14.77772"><ele>187.0</ele><time>2026-04-09T16:01:08.085Z</time></trkpt><trkpt lat="40.7368067" lon="14.777565"><ele>187.0</ele><time>2026-04-09T16:01:09.085Z</time></trkpt><trkpt lat="40.7366483" lon="14.7774167"><ele>185.0</ele><time>2026-04-09T16:01:10.085Z</time></trkpt><trkpt lat="40.7364817" lon="14.777265"><ele>183.0</ele><time>2026-04-09T16:01:11.085Z</time></trkpt><trkpt lat="40.7363133" lon="14.7771167"><ele>181.0</ele><time>2026-04-09T16:01:12.085Z</time></trkpt><trkpt lat="40.7361433" lon="14.77697"><ele>179.0</ele><time>2026-04-09T16:01:13.085Z</time></trkpt><trkpt lat="40.7359717" lon="14.7768317"><ele>177.0</ele><time>2026-04-09T16:01:14.085Z</time></trkpt><trkpt lat="40.7357967" lon="14.7767"><ele>175.0</ele><time>2026-04-09T16:01:15.085Z</time></trkpt><trkpt lat="40.7356217" lon="14.776575"><ele>175.0</ele><time>2026-04-09T16:01:16.085Z</time></trkpt><trkpt lat="40.7354417" lon="14.7764533"><ele>175.0</ele><time>2026-04-09T16:01:17.085Z</time></trkpt><trkpt lat="40.735255" lon="14.776345"><ele>175.0</ele><time>2026-04-09T16:01:18.085Z</time></trkpt><trkpt lat="40.73507" lon="14.776235"><ele>175.33333333333334</ele><time>2026-04-09T16:01:19.085Z</time></trkpt><trkpt lat="40.73488" lon="14.7761367"><ele>175.66666666666666</ele><time>2026-04-09T16:01:20.085Z</time></trkpt><trkpt lat="40.7346867" lon="14.7760467"><ele>176.0</ele><time>2026-04-09T16:01:21.085Z</time></trkpt><trkpt lat="40.7344867" lon="14.7759567"><ele>174.33333333333331</ele><time>2026-04-09T16:01:22.085Z</time></trkpt><trkpt lat="40.7342917" lon="14.7758717"><ele>172.66666666666666</ele><time>2026-04-09T16:01:23.085Z</time></trkpt><trkpt lat="40.7340917" lon="14.7757983"><ele>171.0</ele><time>2026-04-09T16:01:24.085Z</time></trkpt><trkpt lat="40.733895" lon="14.7757333"><ele>171.0</ele><time>2026-04-09T16:01:25.085Z</time></trkpt><trkpt lat="40.7336967" lon="14.77566"><ele>171.0</ele><time>2026-04-09T16:01:26.085Z</time></trkpt><trkpt lat="40.7334983" lon="14.7755933"><ele>171.0</ele><time>2026-04-09T16:01:27.085Z</time></trkpt><trkpt lat="40.7332967" lon="14.775535"><ele>171.33333333333334</ele><time>2026-04-09T16:01:28.085Z</time></trkpt><trkpt lat="40.73309" lon="14.77548"><ele>171.66666666666669</ele><time>2026-04-09T16:01:29.085Z</time></trkpt><trkpt lat="40.732895" lon="14.77544"><ele>172.0</ele><time>2026-04-09T16:01:30.085Z</time></trkpt><trkpt lat="40.7327067" lon="14.7754017"><ele>170.66666666666669</ele><time>2026-04-09T16:01:31.085Z</time></trkpt><trkpt lat="40.73252" lon="14.7753633"><ele>169.33333333333334</ele><time>2026-04-09T16:01:32.085Z</time></trkpt><trkpt lat="40.7323267" lon="14.7753367"><ele>168.0</ele><time>2026-04-09T16:01:33.085Z</time></trkpt><trkpt lat="40.7321367" lon="14.7753183"><ele>168.0</ele><time>2026-04-09T16:01:34.085Z</time></trkpt><trkpt lat="40.7319367" lon="14.7753067"><ele>168.0</ele><time>2026-04-09T16:01:35.085Z</time></trkpt><trkpt lat="40.7317367" lon="14.7753017"><ele>168.0</ele><time>2026-04-09T16:01:36.085Z</time></trkpt><trkpt lat="40.731535" lon="14.77529"><ele>168.33333333333334</ele><time>2026-04-09T16:01:37.085Z</time></trkpt><trkpt lat="40.7313433" lon="14.7752867"><ele>168.66666666666669</ele><time>2026-04-09T16:01:38.085Z</time></trkpt><trkpt lat="40.7311467" lon="14.7752917"><ele>169.0</ele><time>2026-04-09T16:01:39.085Z</time></trkpt><trkpt lat="40.73096" lon="14.7753"><ele>170.33333333333334</ele><time>2026-04-09T16:01:40.085Z</time></trkpt><trkpt lat="40.7307717" lon="14.7753133"><ele>171.66666666666666</ele><time>2026-04-09T16:01:41.085Z</time></trkpt><trkpt lat="40.7305867" lon="14.7753233"><ele>173.0</ele><time>2026-04-09T16:01:42.085Z</time></trkpt><trkpt lat="40.7304067" lon="14.7753333"><ele>172.66666666666666</ele><time>2026-04-09T16:01:43.085Z</time></trkpt><trkpt lat="40.73022" lon="14.7753433"><ele>172.33333333333334</ele><time>2026-04-09T16:01:44.085Z</time></trkpt><trkpt lat="40.7300317" lon="14.7753583"><ele>172.0</ele><time>2026-04-09T16:01:45.085Z</time></trkpt><trkpt lat="40.7298433" lon="14.7753667"><ele>172.0</ele><time>2026-04-09T16:01:46.085Z</time></trkpt><trkpt lat="40.7296517" lon="14.7753817"><ele>172.0</ele><time>2026-04-09T16:01:47.085Z</time></trkpt><trkpt lat="40.7294583" lon="14.77539"><ele>172.0</ele><time>2026-04-09T16:01:48.085Z</time></trkpt><trkpt lat="40.7292767" lon="14.7754017"><ele>170.33333333333334</ele><time>2026-04-09T16:01:49.085Z</time></trkpt><trkpt lat="40.7291017" lon="14.7754233"><ele>168.66666666666666</ele><time>2026-04-09T16:01:50.085Z</time></trkpt><trkpt lat="40.7289333" lon="14.7754417"><ele>167.0</ele><time>2026-04-09T16:01:51.085Z</time></trkpt><trkpt lat="40.7287583" lon="14.7754533"><ele>167.0</ele><time>2026-04-09T16:01:52.085Z</time></trkpt><trkpt lat="40.7285933" lon="14.7754633"><ele>167.0</ele><time>2026-04-09T16:01:53.085Z</time></trkpt><trkpt lat="40.728435" lon="14.7754767"><ele>167.0</ele><time>2026-04-09T16:01:54.085Z</time></trkpt><trkpt lat="40.7282833" lon="14.77549"><ele>166.0</ele><time>2026-04-09T16:01:55.085Z</time></trkpt><trkpt lat="40.72814" lon="14.77551"><ele>165.0</ele><time>2026-04-09T16:01:56.085Z</time></trkpt><trkpt lat="40.7280067" lon="14.7755283"><ele>164.0</ele><time>2026-04-09T16:01:57.085Z</time></trkpt><trkpt lat="40.7278883" lon="14.7755283"><ele>163.0</ele><time>2026-04-09T16:01:58.085Z</time></trkpt><trkpt lat="40.7277867" lon="14.7755317"><ele>162.60000000000002</ele><time>2026-04-09T16:01:59.085Z</time></trkpt><trkpt lat="40.727695" lon="14.7755383"><ele>162.20000000000002</ele><time>2026-04-09T16:02:00.085Z</time></trkpt><trkpt lat="40.7276167" lon="14.775545"><ele>161.8</ele><time>2026-04-09T16:02:01.085Z</time></trkpt><trkpt lat="40.72755" lon="14.77555"><ele>161.4</ele><time>2026-04-09T16:02:02.085Z</time></trkpt><trkpt lat="40.7274333" lon="14.7755533"><ele>161.0</ele><time>2026-04-09T16:02:04.085Z</time></trkpt><trkpt lat="40.7273367" lon="14.7755567"><ele>161.0</ele><time>2026-04-09T16:02:06.085Z</time></trkpt><trkpt lat="40.727255" lon="14.77556"><ele>161.0</ele><time>2026-04-09T16:02:08.085Z</time></trkpt><trkpt lat="40.72718" lon="14.7755567"><ele>161.0</ele><time>2026-04-09T16:02:10.085Z</time></trkpt><trkpt lat="40.727085" lon="14.77554"><ele>161.0</ele><time>2026-04-09T16:02:12.085Z</time></trkpt><trkpt lat="40.72702" lon="14.7755383"><ele>161.0</ele><time>2026-04-09T16:02:13.085Z</time></trkpt><trkpt lat="40.7269383" lon="14.7755467"><ele>161.0</ele><time>2026-04-09T16:02:14.085Z</time></trkpt><trkpt lat="40.726845" lon="14.7755567"><ele>160.20000000000002</ele><time>2026-04-09T16:02:15.085Z</time></trkpt><trkpt lat="40.726755" lon="14.7755667"><ele>159.4</ele><time>2026-04-09T16:02:16.085Z</time></trkpt><trkpt lat="40.7266633" lon="14.77558"><ele>158.6</ele><time>2026-04-09T16:02:17.085Z</time></trkpt><trkpt lat="40.7265683" lon="14.77558"><ele>157.8</ele><time>2026-04-09T16:02:18.085Z</time></trkpt><trkpt lat="40.7264533" lon="14.7755783"><ele>157.0</ele><time>2026-04-09T16:02:19.085Z</time></trkpt><trkpt lat="40.7263283" lon="14.77559"><ele>157.0</ele><time>2026-04-09T16:02:20.085Z</time></trkpt><trkpt lat="40.7262033" lon="14.7755983"><ele>157.0</ele><time>2026-04-09T16:02:21.085Z</time></trkpt><trkpt lat="40.7260833" lon="14.7756033"><ele>157.0</ele><time>2026-04-09T16:02:22.085Z</time></trkpt><trkpt lat="40.7259617" lon="14.7756183"><ele>157.0</ele><time>2026-04-09T16:02:23.085Z</time></trkpt><trkpt lat="40.7258383" lon="14.7756267"><ele>156.5</ele><time>2026-04-09T16:02:24.085Z</time></trkpt><trkpt lat="40.725715" lon="14.7756383"><ele>156.0</ele><time>2026-04-09T16:02:25.085Z</time></trkpt><trkpt lat="40.72559" lon="14.7756467"><ele>155.5</ele><time>2026-04-09T16:02:26.085Z</time></trkpt><trkpt lat="40.7254633" lon="14.7756517"><ele>155.0</ele><time>2026-04-09T16:02:27.085Z</time></trkpt><trkpt lat="40.725325" lon="14.775655"><ele>153.5</ele><time>2026-04-09T16:02:28.085Z</time></trkpt><trkpt lat="40.7251883" lon="14.7756633"><ele>152.0</ele><time>2026-04-09T16:02:29.085Z</time></trkpt><trkpt lat="40.7250467" lon="14.77567"><ele>150.5</ele><time>2026-04-09T16:02:30.085Z</time></trkpt><trkpt lat="40.724905" lon="14.7756883"><ele>149.0</ele><time>2026-04-09T16:02:31.085Z</time></trkpt><trkpt lat="40.7247617" lon="14.7757217"><ele>149.0</ele><time>2026-04-09T16:02:32.085Z</time></trkpt><trkpt lat="40.7246217" lon="14.775755"><ele>149.0</ele><time>2026-04-09T16:02:33.085Z</time></trkpt><trkpt lat="40.724485" lon="14.7757833"><ele>149.0</ele><time>2026-04-09T16:02:34.085Z</time></trkpt><trkpt lat="40.72435" lon="14.7758083"><ele>149.0</ele><time>2026-04-09T16:02:35.085Z</time></trkpt><trkpt lat="40.724215" lon="14.7758417"><ele>147.75</ele><time>2026-04-09T16:02:36.085Z</time></trkpt><trkpt lat="40.7240917" lon="14.7758783"><ele>146.5</ele><time>2026-04-09T16:02:37.085Z</time></trkpt><trkpt lat="40.7239717" lon="14.7759167"><ele>145.25</ele><time>2026-04-09T16:02:38.085Z</time></trkpt><trkpt lat="40.7238617" lon="14.7759533"><ele>144.0</ele><time>2026-04-09T16:02:39.085Z</time></trkpt><trkpt lat="40.7237617" lon="14.77599"><ele>146.0</ele><time>2026-04-09T16:02:40.085Z</time></trkpt><trkpt lat="40.7236667" lon="14.7760317"><ele>148.0</ele><time>2026-04-09T16:02:41.085Z</time></trkpt><trkpt lat="40.72357" lon="14.776075"><ele>150.0</ele><time>2026-04-09T16:02:42.085Z</time></trkpt><trkpt lat="40.72348" lon="14.7761233"><ele>152.0</ele><time>2026-04-09T16:02:43.085Z</time></trkpt><trkpt lat="40.723395" lon="14.77617"><ele>154.0</ele><time>2026-04-09T16:02:44.085Z</time></trkpt><trkpt lat="40.7233267" lon="14.776205"><ele>155.33333333333334</ele><time>2026-04-09T16:02:45.085Z</time></trkpt><trkpt lat="40.7232617" lon="14.77624"><ele>156.66666666666669</ele><time>2026-04-09T16:02:46.085Z</time></trkpt><trkpt lat="40.7232017" lon="14.77627"><ele>158.0</ele><time>2026-04-09T16:02:47.085Z</time></trkpt><trkpt lat="40.7231367" lon="14.7763"><ele>159.33333333333334</ele><time>2026-04-09T16:02:48.085Z</time></trkpt><trkpt lat="40.7230233" lon="14.7763617"><ele>160.66666666666666</ele><time>2026-04-09T16:02:50.085Z</time></trkpt><trkpt lat="40.72296" lon="14.776395"><ele>162.0</ele><time>2026-04-09T16:02:51.085Z</time></trkpt><trkpt lat="40.7228983" lon="14.776425"><ele>162.0</ele><time>2026-04-09T16:02:52.085Z</time></trkpt><trkpt lat="40.722825" lon="14.77646"><ele>162.0</ele><time>2026-04-09T16:02:53.085Z</time></trkpt><trkpt lat="40.72276" lon="14.7764967"><ele>162.0</ele><time>2026-04-09T16:02:54.085Z</time></trkpt><trkpt lat="40.72264" lon="14.7765617"><ele>162.0</ele><time>2026-04-09T16:02:56.085Z</time></trkpt><trkpt lat="40.7225767" lon="14.776595"><ele>162.0</ele><time>2026-04-09T16:02:57.085Z</time></trkpt><trkpt lat="40.7215267" lon="14.77731"><ele>159.0</ele><time>2026-04-09T16:03:17.086Z</time></trkpt><trkpt lat="40.72142" lon="14.7773467"><ele>156.0</ele><time>2026-04-09T16:03:18.086Z</time></trkpt><trkpt lat="40.7213383" lon="14.77739"><ele>153.0</ele><time>2026-04-09T16:03:19.086Z</time></trkpt><trkpt lat="40.7212517" lon="14.7774367"><ele>150.0</ele><time>2026-04-09T16:03:20.086Z</time></trkpt><trkpt lat="40.7211567" lon="14.777485"><ele>147.0</ele><time>2026-04-09T16:03:21.086Z</time></trkpt><trkpt lat="40.7210583" lon="14.777535"><ele>146.33333333333334</ele><time>2026-04-09T16:03:22.086Z</time></trkpt><trkpt lat="40.72097" lon="14.7775817"><ele>145.66666666666666</ele><time>2026-04-09T16:03:23.086Z</time></trkpt><trkpt lat="40.7208867" lon="14.7776267"><ele>145.0</ele><time>2026-04-09T16:03:24.086Z</time></trkpt><trkpt lat="40.72081" lon="14.7776733"><ele>144.33333333333331</ele><time>2026-04-09T16:03:25.086Z</time></trkpt><trkpt lat="40.720735" lon="14.7777167"><ele>143.66666666666666</ele><time>2026-04-09T16:03:26.086Z</time></trkpt><trkpt lat="40.7206617" lon="14.7777433"><ele>143.0</ele><time>2026-04-09T16:03:27.086Z</time></trkpt><trkpt lat="40.7205933" lon="14.777765"><ele>143.0</ele><time>2026-04-09T16:03:28.086Z</time></trkpt><trkpt lat="40.7205217" lon="14.7777933"><ele>143.0</ele><time>2026-04-09T16:03:29.086Z</time></trkpt><trkpt lat="40.7204517" lon="14.7778167"><ele>143.0</ele><time>2026-04-09T16:03:30.086Z</time></trkpt><trkpt lat="40.7203833" lon="14.777835"><ele>143.0</ele><time>2026-04-09T16:03:31.086Z</time></trkpt><trkpt lat="40.7203117" lon="14.777845"><ele>143.0</ele><time>2026-04-09T16:03:32.086Z</time></trkpt><trkpt lat="40.720235" lon="14.777865"><ele>143.0</ele><time>2026-04-09T16:03:33.086Z</time></trkpt><trkpt lat="40.7201517" lon="14.77788"><ele>142.66666666666666</ele><time>2026-04-09T16:03:34.086Z</time></trkpt><trkpt lat="40.7200633" lon="14.7778983"><ele>142.33333333333331</ele><time>2026-04-09T16:03:35.086Z</time></trkpt><trkpt lat="40.719975" lon="14.7779167"><ele>142.0</ele><time>2026-04-09T16:03:36.086Z</time></trkpt><trkpt lat="40.719885" lon="14.7779367"><ele>141.66666666666666</ele><time>2026-04-09T16:03:37.086Z</time></trkpt><trkpt lat="40.7197967" lon="14.777955"><ele>141.33333333333334</ele><time>2026-04-09T16:03:38.086Z</time></trkpt><trkpt lat="40.7197083" lon="14.777975"><ele>141.0</ele><time>2026-04-09T16:03:39.086Z</time></trkpt><trkpt lat="40.7196267" lon="14.7779983"><ele>141.0</ele><time>2026-04-09T16:03:40.086Z</time></trkpt><trkpt lat="40.7195417" lon="14.7780167"><ele>141.0</ele><time>2026-04-09T16:03:41.086Z</time></trkpt><trkpt lat="40.71945" lon="14.7780317"><ele>141.0</ele><time>2026-04-09T16:03:42.086Z</time></trkpt><trkpt lat="40.7193533" lon="14.7780433"><ele>141.0</ele><time>2026-04-09T16:03:43.086Z</time></trkpt><trkpt lat="40.7192567" lon="14.77806"><ele>141.0</ele><time>2026-04-09T16:03:44.086Z</time></trkpt><trkpt lat="40.7191483" lon="14.77808"><ele>140.0</ele><time>2026-04-09T16:03:45.086Z</time></trkpt><trkpt lat="40.7190133" lon="14.7781"><ele>139.0</ele><time>2026-04-09T16:03:46.086Z</time></trkpt><trkpt lat="40.71887" lon="14.7781267"><ele>138.0</ele><time>2026-04-09T16:03:47.086Z</time></trkpt><trkpt lat="40.718725" lon="14.7781583"><ele>137.0</ele><time>2026-04-09T16:03:48.086Z</time></trkpt><trkpt lat="40.7185783" lon="14.77819"><ele>137.5</ele><time>2026-04-09T16:03:49.086Z</time></trkpt><trkpt lat="40.7184417" lon="14.77821"><ele>138.0</ele><time>2026-04-09T16:03:50.086Z</time></trkpt><trkpt lat="40.7183167" lon="14.778225"><ele>138.5</ele><time>2026-04-09T16:03:51.086Z</time></trkpt><trkpt lat="40.7181933" lon="14.7782433"><ele>139.0</ele><time>2026-04-09T16:03:52.086Z</time></trkpt><trkpt lat="40.7180833" lon="14.7782583"><ele>139.0</ele><time>2026-04-09T16:03:53.086Z</time></trkpt><trkpt lat="40.7179667" lon="14.7782717"><ele>139.0</ele><time>2026-04-09T16:03:54.086Z</time></trkpt><trkpt lat="40.71784" lon="14.7782867"><ele>139.0</ele><time>2026-04-09T16:03:55.086Z</time></trkpt><trkpt lat="40.7177133" lon="14.7782983"><ele>139.0</ele><time>2026-04-09T16:03:56.086Z</time></trkpt><trkpt lat="40.7175833" lon="14.77831"><ele>138.75</ele><time>2026-04-09T16:03:57.086Z</time></trkpt><trkpt lat="40.7174583" lon="14.7783233"><ele>138.5</ele><time>2026-04-09T16:03:58.086Z</time></trkpt><trkpt lat="40.71733" lon="14.7783417"><ele>138.25</ele><time>2026-04-09T16:03:59.086Z</time></trkpt><trkpt lat="40.7172033" lon="14.778365"><ele>138.0</ele><time>2026-04-09T16:04:00.086Z</time></trkpt><trkpt lat="40.7170833" lon="14.778385"><ele>138.0</ele><time>2026-04-09T16:04:01.086Z</time></trkpt><trkpt lat="40.7169633" lon="14.7783967"><ele>138.0</ele><time>2026-04-09T16:04:02.086Z</time></trkpt><trkpt lat="40.716845" lon="14.77841"><ele>138.0</ele><time>2026-04-09T16:04:03.086Z</time></trkpt><trkpt lat="40.7167267" lon="14.7784267"><ele>138.0</ele><time>2026-04-09T16:04:04.086Z</time></trkpt><trkpt lat="40.71661" lon="14.778445"><ele>136.5</ele><time>2026-04-09T16:04:05.086Z</time></trkpt><trkpt lat="40.7164883" lon="14.7784667"><ele>135.0</ele><time>2026-04-09T16:04:06.086Z</time></trkpt><trkpt lat="40.7163683" lon="14.7784883"><ele>133.5</ele><time>2026-04-09T16:04:07.086Z</time></trkpt><trkpt lat="40.7162467" lon="14.778515"><ele>132.0</ele><time>2026-04-09T16:04:08.086Z</time></trkpt><trkpt lat="40.716135" lon="14.7785233"><ele>133.6</ele><time>2026-04-09T16:04:09.086Z</time></trkpt><trkpt lat="40.71603" lon="14.77855"><ele>135.2</ele><time>2026-04-09T16:04:10.086Z</time></trkpt><trkpt lat="40.7159267" lon="14.7785633"><ele>136.8</ele><time>2026-04-09T16:04:11.086Z</time></trkpt><trkpt lat="40.7158217" lon="14.7785717"><ele>138.4</ele><time>2026-04-09T16:04:12.086Z</time></trkpt><trkpt lat="40.7157167" lon="14.7785933"><ele>140.0</ele><time>2026-04-09T16:04:13.086Z</time></trkpt><trkpt lat="40.7156083" lon="14.7786133"><ele>140.0</ele><time>2026-04-09T16:04:14.086Z</time></trkpt><trkpt lat="40.715505" lon="14.7786317"><ele>140.0</ele><time>2026-04-09T16:04:15.086Z</time></trkpt><trkpt lat="40.7153983" lon="14.7786567"><ele>140.0</ele><time>2026-04-09T16:04:16.086Z</time></trkpt><trkpt lat="40.7152883" lon="14.7786717"><ele>140.0</ele><time>2026-04-09T16:04:17.086Z</time></trkpt><trkpt lat="40.7151833" lon="14.7787"><ele>140.0</ele><time>2026-04-09T16:04:18.086Z</time></trkpt><trkpt lat="40.7150817" lon="14.7787033"><ele>137.25</ele><time>2026-04-09T16:04:19.086Z</time></trkpt><trkpt lat="40.7149717" lon="14.7787167"><ele>134.5</ele><time>2026-04-09T16:04:20.086Z</time></trkpt><trkpt lat="40.7148617" lon="14.77873"><ele>131.75</ele><time>2026-04-09T16:04:21.086Z</time></trkpt><trkpt lat="40.7147417" lon="14.7787633"><ele>129.0</ele><time>2026-04-09T16:04:22.086Z</time></trkpt><trkpt lat="40.714615" lon="14.778795"><ele>129.0</ele><time>2026-04-09T16:04:23.086Z</time></trkpt><trkpt lat="40.7144933" lon="14.7788267"><ele>129.0</ele><time>2026-04-09T16:04:24.086Z</time></trkpt><trkpt lat="40.71438" lon="14.7788483"><ele>129.0</ele><time>2026-04-09T16:04:25.086Z</time></trkpt><trkpt lat="40.7142733" lon="14.7788633"><ele>129.0</ele><time>2026-04-09T16:04:26.086Z</time></trkpt><trkpt lat="40.714155" lon="14.7788833"><ele>126.0</ele><time>2026-04-09T16:04:27.086Z</time></trkpt><trkpt lat="40.7140367" lon="14.7789033"><ele>123.0</ele><time>2026-04-09T16:04:28.086Z</time></trkpt><trkpt lat="40.713925" lon="14.7789233"><ele>120.0</ele><time>2026-04-09T16:04:29.086Z</time></trkpt><trkpt lat="40.7138117" lon="14.7789483"><ele>117.0</ele><time>2026-04-09T16:04:30.086Z</time></trkpt><trkpt lat="40.7136883" lon="14.7789667"><ele>117.5</ele><time>2026-04-09T16:04:31.086Z</time></trkpt><trkpt lat="40.713565" lon="14.779"><ele>118.0</ele><time>2026-04-09T16:04:32.086Z</time></trkpt><trkpt lat="40.7134467" lon="14.779025"><ele>118.5</ele><time>2026-04-09T16:04:33.086Z</time></trkpt><trkpt lat="40.7133267" lon="14.7790483"><ele>119.0</ele><time>2026-04-09T16:04:34.086Z</time></trkpt><trkpt lat="40.7132083" lon="14.7790733"><ele>119.0</ele><time>2026-04-09T16:04:35.086Z</time></trkpt><trkpt lat="40.7130883" lon="14.7790983"><ele>119.0</ele><time>2026-04-09T16:04:36.086Z</time></trkpt><trkpt lat="40.712975" lon="14.779125"><ele>119.0</ele><time>2026-04-09T16:04:37.086Z</time></trkpt><trkpt lat="40.7128633" lon="14.7791417"><ele>119.0</ele><time>2026-04-09T16:04:38.086Z</time></trkpt><trkpt lat="40.7127567" lon="14.7791683"><ele>117.25</ele><time>2026-04-09T16:04:39.086Z</time></trkpt><trkpt lat="40.7126433" lon="14.7792067"><ele>115.5</ele><time>2026-04-09T16:04:40.086Z</time></trkpt><trkpt lat="40.712535" lon="14.7792383"><ele>113.75</ele><time>2026-04-09T16:04:41.086Z</time></trkpt><trkpt lat="40.7124233" lon="14.7792683"><ele>112.0</ele><time>2026-04-09T16:04:42.086Z</time></trkpt><trkpt lat="40.7123067" lon="14.7793133"><ele>112.5</ele><time>2026-04-09T16:04:43.086Z</time></trkpt><trkpt lat="40.7121867" lon="14.77936"><ele>113.0</ele><time>2026-04-09T16:04:44.086Z</time></trkpt><trkpt lat="40.7120617" lon="14.77941"><ele>113.5</ele><time>2026-04-09T16:04:45.086Z</time></trkpt><trkpt lat="40.71194" lon="14.7794567"><ele>114.0</ele><time>2026-04-09T16:04:46.086Z</time></trkpt><trkpt lat="40.71181" lon="14.7795167"><ele>114.0</ele><time>2026-04-09T16:04:47.086Z</time></trkpt><trkpt lat="40.7116817" lon="14.7795817"><ele>114.0</ele><time>2026-04-09T16:04:48.086Z</time></trkpt><trkpt lat="40.7115633" lon="14.779635"><ele>114.0</ele><time>2026-04-09T16:04:49.086Z</time></trkpt><trkpt lat="40.7114433" lon="14.779685"><ele>114.0</ele><time>2026-04-09T16:04:50.086Z</time></trkpt><trkpt lat="40.7113267" lon="14.7797367"><ele>114.0</ele><time>2026-04-09T16:04:51.086Z</time></trkpt><trkpt lat="40.7112117" lon="14.7797917"><ele>114.0</ele><time>2026-04-09T16:04:52.086Z</time></trkpt><trkpt lat="40.7110967" lon="14.7798433"><ele>114.0</ele><time>2026-04-09T16:04:53.086Z</time></trkpt><trkpt lat="40.71099" lon="14.7798933"><ele>114.0</ele><time>2026-04-09T16:04:54.086Z</time></trkpt><trkpt lat="40.7108767" lon="14.779945"><ele>113.25</ele><time>2026-04-09T16:04:55.086Z</time></trkpt><trkpt lat="40.7107633" lon="14.7799867"><ele>112.5</ele><time>2026-04-09T16:04:56.086Z</time></trkpt><trkpt lat="40.71065" lon="14.7800217"><ele>111.75</ele><time>2026-04-09T16:04:57.086Z</time></trkpt><trkpt lat="40.7105333" lon="14.7800617"><ele>111.0</ele><time>2026-04-09T16:04:58.086Z</time></trkpt><trkpt lat="40.7104217" lon="14.7800933"><ele>111.0</ele><time>2026-04-09T16:04:59.086Z</time></trkpt><trkpt lat="40.710305" lon="14.7801217"><ele>111.0</ele><time>2026-04-09T16:05:00.086Z</time></trkpt><trkpt lat="40.71019" lon="14.7801433"><ele>111.0</ele><time>2026-04-09T16:05:01.086Z</time></trkpt><trkpt lat="40.7100733" lon="14.7801633"><ele>111.0</ele><time>2026-04-09T16:05:02.086Z</time></trkpt><trkpt lat="40.7099617" lon="14.78018"><ele>114.0</ele><time>2026-04-09T16:05:03.086Z</time></trkpt><trkpt lat="40.7098467" lon="14.7801917"><ele>117.0</ele><time>2026-04-09T16:05:04.086Z</time></trkpt><trkpt lat="40.70973" lon="14.7801983"><ele>120.0</ele><time>2026-04-09T16:05:05.086Z</time></trkpt><trkpt lat="40.70962" lon="14.7802"><ele>123.0</ele><time>2026-04-09T16:05:06.086Z</time></trkpt><trkpt lat="40.7095117" lon="14.7802017"><ele>122.60000000000001</ele><time>2026-04-09T16:05:07.086Z</time></trkpt><trkpt lat="40.7094083" lon="14.7801933"><ele>122.20000000000002</ele><time>2026-04-09T16:05:08.086Z</time></trkpt><trkpt lat="40.7093083" lon="14.7801867"><ele>121.8</ele><time>2026-04-09T16:05:09.086Z</time></trkpt><trkpt lat="40.7092067" lon="14.7801783"><ele>121.4</ele><time>2026-04-09T16:05:10.086Z</time></trkpt><trkpt lat="40.709105" lon="14.78017"><ele>121.0</ele><time>2026-04-09T16:05:11.086Z</time></trkpt><trkpt lat="40.709005" lon="14.7801617"><ele>117.6</ele><time>2026-04-09T16:05:12.086Z</time></trkpt><trkpt lat="40.708905" lon="14.780145"><ele>114.19999999999999</ele><time>2026-04-09T16:05:13.086Z</time></trkpt><trkpt lat="40.7088117" lon="14.7801233"><ele>110.80000000000001</ele><time>2026-04-09T16:05:14.086Z</time></trkpt><trkpt lat="40.7087117" lon="14.7800933"><ele>107.4</ele><time>2026-04-09T16:05:15.086Z</time></trkpt><trkpt lat="40.7086" lon="14.7800483"><ele>104.0</ele><time>2026-04-09T16:05:16.086Z</time></trkpt><trkpt lat="40.7084783" lon="14.7800017"><ele>104.0</ele><time>2026-04-09T16:05:17.086Z</time></trkpt><trkpt lat="40.7083567" lon="14.779945"><ele>104.0</ele><time>2026-04-09T16:05:18.086Z</time></trkpt><trkpt lat="40.70824" lon="14.7798933"><ele>104.0</ele><time>2026-04-09T16:05:19.086Z</time></trkpt><trkpt lat="40.7081283" lon="14.7798417"><ele>104.0</ele><time>2026-04-09T16:05:20.086Z</time></trkpt><trkpt lat="40.708025" lon="14.77979"><ele>104.0</ele><time>2026-04-09T16:05:21.086Z</time></trkpt><trkpt lat="40.7079267" lon="14.7797367"><ele>104.0</ele><time>2026-04-09T16:05:22.086Z</time></trkpt><trkpt lat="40.707825" lon="14.7796833"><ele>104.0</ele><time>2026-04-09T16:05:23.086Z</time></trkpt><trkpt lat="40.7077167" lon="14.7796233"><ele>104.0</ele><time>2026-04-09T16:05:24.086Z</time></trkpt><trkpt lat="40.7076017" lon="14.7795683"><ele>104.0</ele><time>2026-04-09T16:05:25.086Z</time></trkpt><trkpt lat="40.70749" lon="14.7795083"><ele>104.0</ele><time>2026-04-09T16:05:26.086Z</time></trkpt><trkpt lat="40.707375" lon="14.7794333"><ele>104.0</ele><time>2026-04-09T16:05:27.086Z</time></trkpt><trkpt lat="40.70725" lon="14.77936"><ele>104.0</ele><time>2026-04-09T16:05:28.086Z</time></trkpt><trkpt lat="40.7071367" lon="14.77929"><ele>101.0</ele><time>2026-04-09T16:05:29.086Z</time></trkpt><trkpt lat="40.70702" lon="14.7792233"><ele>98.0</ele><time>2026-04-09T16:05:30.086Z</time></trkpt><trkpt lat="40.7069033" lon="14.7791533"><ele>95.0</ele><time>2026-04-09T16:05:31.086Z</time></trkpt><trkpt lat="40.7067883" lon="14.77909"><ele>92.0</ele><time>2026-04-09T16:05:32.086Z</time></trkpt><trkpt lat="40.70668" lon="14.7790217"><ele>92.0</ele><time>2026-04-09T16:05:33.086Z</time></trkpt><trkpt lat="40.7065767" lon="14.7789617"><ele>92.0</ele><time>2026-04-09T16:05:34.086Z</time></trkpt><trkpt lat="40.706475" lon="14.77891"><ele>92.0</ele><time>2026-04-09T16:05:35.086Z</time></trkpt><trkpt lat="40.70638" lon="14.7788517"><ele>92.0</ele><time>2026-04-09T16:05:36.086Z</time></trkpt><trkpt lat="40.7062933" lon="14.7787917"><ele>92.0</ele><time>2026-04-09T16:05:37.086Z</time></trkpt><trkpt lat="40.7062083" lon="14.778745"><ele>92.0</ele><time>2026-04-09T16:05:38.086Z</time></trkpt><trkpt lat="40.70612" lon="14.778705"><ele>92.0</ele><time>2026-04-09T16:05:39.086Z</time></trkpt><trkpt lat="40.70603" lon="14.77866"><ele>92.0</ele><time>2026-04-09T16:05:40.086Z</time></trkpt><trkpt lat="40.705935" lon="14.77861"><ele>92.0</ele><time>2026-04-09T16:05:41.086Z</time></trkpt><trkpt lat="40.7058333" lon="14.7785617"><ele>92.0</ele><time>2026-04-09T16:05:42.086Z</time></trkpt><trkpt lat="40.7057283" lon="14.7785233"><ele>90.8</ele><time>2026-04-09T16:05:43.086Z</time></trkpt><trkpt lat="40.7056267" lon="14.7784883"><ele>89.6</ele><time>2026-04-09T16:05:44.086Z</time></trkpt><trkpt lat="40.7055317" lon="14.7784567"><ele>88.39999999999999</ele><time>2026-04-09T16:05:45.086Z</time></trkpt><trkpt lat="40.7054367" lon="14.7784267"><ele>87.19999999999999</ele><time>2026-04-09T16:05:46.086Z</time></trkpt><trkpt lat="40.7053433" lon="14.7784017"><ele>86.0</ele><time>2026-04-09T16:05:47.086Z</time></trkpt><trkpt lat="40.705245" lon="14.7783767"><ele>85.8</ele><time>2026-04-09T16:05:48.086Z</time></trkpt><trkpt lat="40.7051483" lon="14.7783567"><ele>85.6</ele><time>2026-04-09T16:05:49.086Z</time></trkpt><trkpt lat="40.705045" lon="14.7783483"><ele>85.4</ele><time>2026-04-09T16:05:50.086Z</time></trkpt><trkpt lat="40.7049533" lon="14.7783433"><ele>85.2</ele><time>2026-04-09T16:05:51.086Z</time></trkpt><trkpt lat="40.7048567" lon="14.778335"><ele>85.0</ele><time>2026-04-09T16:05:52.086Z</time></trkpt><trkpt lat="40.70477" lon="14.7783217"><ele>85.0</ele><time>2026-04-09T16:05:53.086Z</time></trkpt><trkpt lat="40.7046783" lon="14.77831"><ele>85.0</ele><time>2026-04-09T16:05:54.086Z</time></trkpt><trkpt lat="40.7045767" lon="14.7783017"><ele>85.0</ele><time>2026-04-09T16:05:55.086Z</time></trkpt><trkpt lat="40.70446" lon="14.7783067"><ele>85.0</ele><time>2026-04-09T16:05:56.086Z</time></trkpt><trkpt lat="40.70434" lon="14.7783167"><ele>85.0</ele><time>2026-04-09T16:05:57.086Z</time></trkpt><trkpt lat="40.704225" lon="14.7783283"><ele>84.2</ele><time>2026-04-09T16:05:58.086Z</time></trkpt><trkpt lat="40.7041167" lon="14.77834"><ele>83.4</ele><time>2026-04-09T16:05:59.086Z</time></trkpt><trkpt lat="40.7040133" lon="14.7783533"><ele>82.6</ele><time>2026-04-09T16:06:00.086Z</time></trkpt><trkpt lat="40.7039083" lon="14.7783667"><ele>81.8</ele><time>2026-04-09T16:06:01.086Z</time></trkpt><trkpt lat="40.703815" lon="14.778375"><ele>81.0</ele><time>2026-04-09T16:06:02.086Z</time></trkpt><trkpt lat="40.703725" lon="14.7783767"><ele>81.0</ele><time>2026-04-09T16:06:03.086Z</time></trkpt><trkpt lat="40.703635" lon="14.778385"><ele>81.0</ele><time>2026-04-09T16:06:04.086Z</time></trkpt><trkpt lat="40.7035467" lon="14.7783867"><ele>81.0</ele><time>2026-04-09T16:06:05.086Z</time></trkpt><trkpt lat="40.7034467" lon="14.7783917"><ele>81.0</ele><time>2026-04-09T16:06:06.086Z</time></trkpt><trkpt lat="40.7033383" lon="14.7784017"><ele>81.0</ele><time>2026-04-09T16:06:07.086Z</time></trkpt><trkpt lat="40.7032367" lon="14.7784117"><ele>80.39999999999999</ele><time>2026-04-09T16:06:08.086Z</time></trkpt><trkpt lat="40.7031383" lon="14.7784283"><ele>79.8</ele><time>2026-04-09T16:06:09.086Z</time></trkpt><trkpt lat="40.7030417" lon="14.778445"><ele>79.19999999999999</ele><time>2026-04-09T16:06:10.086Z</time></trkpt><trkpt lat="40.702945" lon="14.7784567"><ele>78.6</ele><time>2026-04-09T16:06:11.086Z</time></trkpt><trkpt lat="40.7028533" lon="14.778465"><ele>78.0</ele><time>2026-04-09T16:06:12.086Z</time></trkpt><trkpt lat="40.702765" lon="14.7784767"><ele>78.2</ele><time>2026-04-09T16:06:13.086Z</time></trkpt><trkpt lat="40.7026767" lon="14.7784833"><ele>78.4</ele><time>2026-04-09T16:06:14.086Z</time></trkpt><trkpt lat="40.70258" lon="14.778495"><ele>78.60000000000001</ele><time>2026-04-09T16:06:15.086Z</time></trkpt><trkpt lat="40.702485" lon="14.7785033"><ele>78.8</ele><time>2026-04-09T16:06:16.086Z</time></trkpt><trkpt lat="40.7023917" lon="14.7785067"><ele>79.0</ele><time>2026-04-09T16:06:17.086Z</time></trkpt><trkpt lat="40.7023" lon="14.778515"><ele>79.0</ele><time>2026-04-09T16:06:18.086Z</time></trkpt><trkpt lat="40.70221" lon="14.7785217"><ele>79.0</ele><time>2026-04-09T16:06:19.086Z</time></trkpt><trkpt lat="40.70213" lon="14.7785333"><ele>79.0</ele><time>2026-04-09T16:06:20.086Z</time></trkpt><trkpt lat="40.702055" lon="14.77854"><ele>79.0</ele><time>2026-04-09T16:06:21.086Z</time></trkpt><trkpt lat="40.70198" lon="14.7785483"><ele>79.0</ele><time>2026-04-09T16:06:22.086Z</time></trkpt><trkpt lat="40.7019067" lon="14.77856"><ele>79.0</ele><time>2026-04-09T16:06:23.086Z</time></trkpt><trkpt lat="40.7018317" lon="14.7785667"><ele>79.0</ele><time>2026-04-09T16:06:24.086Z</time></trkpt><trkpt lat="40.7017633" lon="14.77857"><ele>79.0</ele><time>2026-04-09T16:06:25.086Z</time></trkpt><trkpt lat="40.701695" lon="14.7785767"><ele>79.0</ele><time>2026-04-09T16:06:26.086Z</time></trkpt><trkpt lat="40.7016267" lon="14.7785833"><ele>79.0</ele><time>2026-04-09T16:06:27.086Z</time></trkpt><trkpt lat="40.7015033" lon="14.7786017"><ele>79.0</ele><time>2026-04-09T16:06:29.086Z</time></trkpt><trkpt lat="40.70144" lon="14.778615"><ele>79.0</ele><time>2026-04-09T16:06:30.086Z</time></trkpt><trkpt lat="40.70132" lon="14.7786183"><ele>79.0</ele><time>2026-04-09T16:06:32.086Z</time></trkpt><trkpt lat="40.7012517" lon="14.7786317"><ele>79.0</ele><time>2026-04-09T16:06:33.086Z</time></trkpt><trkpt lat="40.7011333" lon="14.778635"><ele>79.0</ele><time>2026-04-09T16:06:35.086Z</time></trkpt><trkpt lat="40.70102" lon="14.7786383"><ele>79.0</ele><time>2026-04-09T16:06:37.086Z</time></trkpt><trkpt lat="40.7009017" lon="14.7786533"><ele>79.0</ele><time>2026-04-09T16:06:39.086Z</time></trkpt><trkpt lat="40.7007867" lon="14.77868"><ele>78.0</ele><time>2026-04-09T16:06:41.086Z</time></trkpt><trkpt lat="40.7007233" lon="14.7786867"><ele>77.0</ele><time>2026-04-09T16:06:42.086Z</time></trkpt><trkpt lat="40.7006067" lon="14.7787067"><ele>76.0</ele><time>2026-04-09T16:06:44.086Z</time></trkpt><trkpt lat="40.7005417" lon="14.778725"><ele>75.0</ele><time>2026-04-09T16:06:45.086Z</time></trkpt><trkpt lat="40.7004667" lon="14.77874"><ele>74.0</ele><time>2026-04-09T16:06:46.086Z</time></trkpt><trkpt lat="40.7003767" lon="14.778755"><ele>73.0</ele><time>2026-04-09T16:06:47.086Z</time></trkpt><trkpt lat="40.70028" lon="14.7787667"><ele>72.0</ele><time>2026-04-09T16:06:48.086Z</time></trkpt><trkpt lat="40.70018" lon="14.778785"><ele>71.0</ele><time>2026-04-09T16:06:49.086Z</time></trkpt><trkpt lat="40.7000733" lon="14.778805"><ele>70.0</ele><time>2026-04-09T16:06:50.086Z</time></trkpt><trkpt lat="40.6999667" lon="14.7788233"><ele>69.0</ele><time>2026-04-09T16:06:51.086Z</time></trkpt><trkpt lat="40.6998567" lon="14.7788433"><ele>68.0</ele><time>2026-04-09T16:06:52.086Z</time></trkpt><trkpt lat="40.6997433" lon="14.7788667"><ele>68.0</ele><time>2026-04-09T16:06:53.086Z</time></trkpt><trkpt lat="40.6996233" lon="14.7788933"><ele>68.0</ele><time>2026-04-09T16:06:54.086Z</time></trkpt><trkpt lat="40.6995083" lon="14.7789133"><ele>68.0</ele><time>2026-04-09T16:06:55.086Z</time></trkpt><trkpt lat="40.6993867" lon="14.77894"><ele>68.0</ele><time>2026-04-09T16:06:56.086Z</time></trkpt><trkpt lat="40.69927" lon="14.7789583"><ele>68.25</ele><time>2026-04-09T16:06:57.086Z</time></trkpt><trkpt lat="40.6991567" lon="14.7789833"><ele>68.5</ele><time>2026-04-09T16:06:58.086Z</time></trkpt><trkpt lat="40.699045" lon="14.7790183"><ele>68.75</ele><time>2026-04-09T16:06:59.086Z</time></trkpt><trkpt lat="40.6989333" lon="14.77906"><ele>69.0</ele><time>2026-04-09T16:07:00.086Z</time></trkpt><trkpt lat="40.698815" lon="14.7790983"><ele>69.0</ele><time>2026-04-09T16:07:01.086Z</time></trkpt><trkpt lat="40.6987017" lon="14.7791433"><ele>69.0</ele><time>2026-04-09T16:07:02.086Z</time></trkpt><trkpt lat="40.6985833" lon="14.7791983"><ele>69.0</ele><time>2026-04-09T16:07:03.086Z</time></trkpt><trkpt lat="40.6984717" lon="14.7792483"><ele>69.0</ele><time>2026-04-09T16:07:04.086Z</time></trkpt><trkpt lat="40.6983667" lon="14.7793033"><ele>71.80000000000001</ele><time>2026-04-09T16:07:05.086Z</time></trkpt><trkpt lat="40.69827" lon="14.7793667"><ele>74.60000000000001</ele><time>2026-04-09T16:07:06.086Z</time></trkpt><trkpt lat="40.6981683" lon="14.7794283"><ele>77.4</ele><time>2026-04-09T16:07:07.086Z</time></trkpt><trkpt lat="40.69807" lon="14.7794983"><ele>80.2</ele><time>2026-04-09T16:07:08.086Z</time></trkpt><trkpt lat="40.6979667" lon="14.7795633"><ele>83.0</ele><time>2026-04-09T16:07:09.086Z</time></trkpt><trkpt lat="40.69787" lon="14.779635"><ele>83.0</ele><time>2026-04-09T16:07:10.086Z</time></trkpt><trkpt lat="40.6977717" lon="14.7797117"><ele>83.0</ele><time>2026-04-09T16:07:11.086Z</time></trkpt><trkpt lat="40.6976683" lon="14.7797883"><ele>83.0</ele><time>2026-04-09T16:07:12.086Z</time></trkpt><trkpt lat="40.6975683" lon="14.7798667"><ele>83.0</ele><time>2026-04-09T16:07:13.086Z</time></trkpt><trkpt lat="40.69747" lon="14.7799417"><ele>83.2</ele><time>2026-04-09T16:07:14.086Z</time></trkpt><trkpt lat="40.697375" lon="14.7800233"><ele>83.4</ele><time>2026-04-09T16:07:15.086Z</time></trkpt><trkpt lat="40.6972833" lon="14.7801083"><ele>83.60000000000001</ele><time>2026-04-09T16:07:16.086Z</time></trkpt><trkpt lat="40.6971933" lon="14.7801933"><ele>83.80000000000001</ele><time>2026-04-09T16:07:17.086Z</time></trkpt><trkpt lat="40.6971083" lon="14.7802683"><ele>84.0</ele><time>2026-04-09T16:07:18.086Z</time></trkpt><trkpt lat="40.6970267" lon="14.7803367"><ele>84.0</ele><time>2026-04-09T16:07:19.086Z</time></trkpt><trkpt lat="40.696955" lon="14.7804033"><ele>84.0</ele><time>2026-04-09T16:07:20.086Z</time></trkpt><trkpt lat="40.6968883" lon="14.7804667"><ele>84.0</ele><time>2026-04-09T16:07:21.086Z</time></trkpt><trkpt lat="40.6968233" lon="14.7805233"><ele>84.0</ele><time>2026-04-09T16:07:22.086Z</time></trkpt><trkpt lat="40.69676" lon="14.7805767"><ele>84.0</ele><time>2026-04-09T16:07:23.086Z</time></trkpt><trkpt lat="40.696695" lon="14.7806317"><ele>84.0</ele><time>2026-04-09T16:07:24.086Z</time></trkpt><trkpt lat="40.6966367" lon="14.7806833"><ele>81.66666666666667</ele><time>2026-04-09T16:07:25.086Z</time></trkpt><trkpt lat="40.69658" lon="14.7807417"><ele>79.33333333333333</ele><time>2026-04-09T16:07:26.086Z</time></trkpt><trkpt lat="40.6965283" lon="14.780795"><ele>77.0</ele><time>2026-04-09T16:07:27.086Z</time></trkpt><trkpt lat="40.69643" lon="14.78089"><ele>74.66666666666666</ele><time>2026-04-09T16:07:29.086Z</time></trkpt><trkpt lat="40.696375" lon="14.7809333"><ele>72.33333333333333</ele><time>2026-04-09T16:07:30.086Z</time></trkpt><trkpt lat="40.6963233" lon="14.7809817"><ele>70.0</ele><time>2026-04-09T16:07:31.086Z</time></trkpt><trkpt lat="40.6962683" lon="14.781025"><ele>69.8</ele><time>2026-04-09T16:07:32.086Z</time></trkpt><trkpt lat="40.69616" lon="14.7810883"><ele>69.6</ele><time>2026-04-09T16:07:34.086Z</time></trkpt><trkpt lat="40.6960667" lon="14.7811383"><ele>69.4</ele><time>2026-04-09T16:07:36.086Z</time></trkpt><trkpt lat="40.6959733" lon="14.78118"><ele>69.2</ele><time>2026-04-09T16:07:38.086Z</time></trkpt><trkpt lat="40.6958717" lon="14.7812"><ele>69.0</ele><time>2026-04-09T16:07:40.086Z</time></trkpt><trkpt lat="40.69577" lon="14.7811983"><ele>67.0</ele><time>2026-04-09T16:07:42.086Z</time></trkpt><trkpt lat="40.695685" lon="14.7811817"><ele>65.0</ele><time>2026-04-09T16:07:44.086Z</time></trkpt><trkpt lat="40.6956017" lon="14.7811667"><ele>63.0</ele><time>2026-04-09T16:07:46.086Z</time></trkpt><trkpt lat="40.6955217" lon="14.781145"><ele>61.0</ele><time>2026-04-09T16:07:48.086Z</time></trkpt><trkpt lat="40.6954517" lon="14.7811183"><ele>59.0</ele><time>2026-04-09T16:07:50.086Z</time></trkpt><trkpt lat="40.69536" lon="14.7810667"><ele>57.0</ele><time>2026-04-09T16:07:52.086Z</time></trkpt><trkpt lat="40.6953067" lon="14.7810183"><ele>56.285714285714285</ele><time>2026-04-09T16:07:53.086Z</time></trkpt><trkpt lat="40.6952433" lon="14.7809683"><ele>55.57142857142857</ele><time>2026-04-09T16:07:54.086Z</time></trkpt><trkpt lat="40.695185" lon="14.7809067"><ele>54.857142857142854</ele><time>2026-04-09T16:07:55.086Z</time></trkpt><trkpt lat="40.6951267" lon="14.7808433"><ele>54.14285714285714</ele><time>2026-04-09T16:07:56.086Z</time></trkpt><trkpt lat="40.6950717" lon="14.7807817"><ele>53.42857142857143</ele><time>2026-04-09T16:07:57.086Z</time></trkpt><trkpt lat="40.6950267" lon="14.7807133"><ele>52.71428571428571</ele><time>2026-04-09T16:07:58.086Z</time></trkpt><trkpt lat="40.69498" lon="14.780655"><ele>52.0</ele><time>2026-04-09T16:07:59.086Z</time></trkpt><trkpt lat="40.6949117" lon="14.7805783"><ele>52.0</ele><time>2026-04-09T16:08:01.086Z</time></trkpt><trkpt lat="40.6948617" lon="14.7805183"><ele>52.0</ele><time>2026-04-09T16:08:03.086Z</time></trkpt><trkpt lat="40.6947967" lon="14.7804317"><ele>52.0</ele><time>2026-04-09T16:08:05.086Z</time></trkpt><trkpt lat="40.694725" lon="14.78033"><ele>52.0</ele><time>2026-04-09T16:08:07.086Z</time></trkpt><trkpt lat="40.6946367" lon="14.7801983"><ele>52.0</ele><time>2026-04-09T16:08:09.086Z</time></trkpt><trkpt lat="40.6945933" lon="14.780125"><ele>51.5</ele><time>2026-04-09T16:08:10.086Z</time></trkpt><trkpt lat="40.694515" lon="14.780005"><ele>51.0</ele><time>2026-04-09T16:08:12.086Z</time></trkpt><trkpt lat="40.6944433" lon="14.7798983"><ele>50.5</ele><time>2026-04-09T16:08:14.086Z</time></trkpt><trkpt lat="40.6943883" lon="14.7797833"><ele>50.0</ele><time>2026-04-09T16:08:16.086Z</time></trkpt><trkpt lat="40.6943217" lon="14.7796383"><ele>50.00000000000001</ele><time>2026-04-09T16:08:18.086Z</time></trkpt><trkpt lat="40.6942867" lon="14.779545"><ele>50.0</ele><time>2026-04-09T16:08:19.086Z</time></trkpt><trkpt lat="40.6942517" lon="14.779445"><ele>50.0</ele><time>2026-04-09T16:08:20.086Z</time></trkpt><trkpt lat="40.6942217" lon="14.7793433"><ele>50.0</ele><time>2026-04-09T16:08:21.086Z</time></trkpt><trkpt lat="40.6941967" lon="14.779245"><ele>50.00000000000001</ele><time>2026-04-09T16:08:22.086Z</time></trkpt><trkpt lat="40.6941733" lon="14.7791583"><ele>50.0</ele><time>2026-04-09T16:08:23.086Z</time></trkpt><trkpt lat="40.6941517" lon="14.7790733"><ele>49.50000000000001</ele><time>2026-04-09T16:08:24.086Z</time></trkpt><trkpt lat="40.69413" lon="14.7789717"><ele>49.0</ele><time>2026-04-09T16:08:25.086Z</time></trkpt><trkpt lat="40.6941067" lon="14.7788717"><ele>48.5</ele><time>2026-04-09T16:08:26.086Z</time></trkpt><trkpt lat="40.6940817" lon="14.7787833"><ele>48.0</ele><time>2026-04-09T16:08:27.086Z</time></trkpt><trkpt lat="40.69407" lon="14.77869"><ele>47.5</ele><time>2026-04-09T16:08:28.086Z</time></trkpt><trkpt lat="40.6940767" lon="14.77859"><ele>47.0</ele><time>2026-04-09T16:08:29.086Z</time></trkpt><trkpt lat="40.69404" lon="14.77843"><ele>46.83333333333333</ele><time>2026-04-09T16:08:31.086Z</time></trkpt><trkpt lat="40.6940133" lon="14.7783367"><ele>46.666666666666664</ele><time>2026-04-09T16:08:32.086Z</time></trkpt><trkpt lat="40.6939883" lon="14.778215"><ele>46.5</ele><time>2026-04-09T16:08:33.086Z</time></trkpt><trkpt lat="40.6939667" lon="14.77808"><ele>46.333333333333336</ele><time>2026-04-09T16:08:34.086Z</time></trkpt><trkpt lat="40.69395" lon="14.7779683"><ele>46.16666666666667</ele><time>2026-04-09T16:08:35.086Z</time></trkpt><trkpt lat="40.6939367" lon="14.7778683"><ele>46.0</ele><time>2026-04-09T16:08:36.086Z</time></trkpt><trkpt lat="40.693925" lon="14.77777"><ele>45.714285714285715</ele><time>2026-04-09T16:08:37.086Z</time></trkpt><trkpt lat="40.6939117" lon="14.7776767"><ele>45.42857142857142</ele><time>2026-04-09T16:08:38.086Z</time></trkpt><trkpt lat="40.6938983" lon="14.7775917"><ele>45.14285714285714</ele><time>2026-04-09T16:08:39.086Z</time></trkpt><trkpt lat="40.6938867" lon="14.7775033"><ele>44.85714285714286</ele><time>2026-04-09T16:08:40.086Z</time></trkpt><trkpt lat="40.6938733" lon="14.7774167"><ele>44.57142857142857</ele><time>2026-04-09T16:08:41.086Z</time></trkpt><trkpt lat="40.6938633" lon="14.77733"><ele>44.285714285714285</ele><time>2026-04-09T16:08:42.086Z</time></trkpt><trkpt lat="40.6938567" lon="14.7772267"><ele>44.0</ele><time>2026-04-09T16:08:43.086Z</time></trkpt><trkpt lat="40.6938483" lon="14.77712"><ele>44.0</ele><time>2026-04-09T16:08:44.086Z</time></trkpt><trkpt lat="40.6938417" lon="14.7770133"><ele>44.0</ele><time>2026-04-09T16:08:45.086Z</time></trkpt><trkpt lat="40.693825" lon="14.77691"><ele>44.0</ele><time>2026-04-09T16:08:46.086Z</time></trkpt><trkpt lat="40.69382" lon="14.7768083"><ele>44.0</ele><time>2026-04-09T16:08:47.086Z</time></trkpt><trkpt lat="40.6938083" lon="14.7767033"><ele>44.0</ele><time>2026-04-09T16:08:48.086Z</time></trkpt><trkpt lat="40.6937967" lon="14.77661"><ele>44.0</ele><time>2026-04-09T16:08:49.086Z</time></trkpt><trkpt lat="40.6937833" lon="14.776515"><ele>44.166666666666664</ele><time>2026-04-09T16:08:50.086Z</time></trkpt><trkpt lat="40.6937617" lon="14.776415"><ele>44.33333333333333</ele><time>2026-04-09T16:08:51.086Z</time></trkpt><trkpt lat="40.6937267" lon="14.7763283"><ele>44.5</ele><time>2026-04-09T16:08:52.086Z</time></trkpt><trkpt lat="40.693675" lon="14.7762467"><ele>44.666666666666664</ele><time>2026-04-09T16:08:53.086Z</time></trkpt><trkpt lat="40.69362" lon="14.7761683"><ele>44.833333333333336</ele><time>2026-04-09T16:08:54.086Z</time></trkpt><trkpt lat="40.6935533" lon="14.7761083"><ele>45.0</ele><time>2026-04-09T16:08:55.086Z</time></trkpt><trkpt lat="40.693485" lon="14.7760417"><ele>43.833333333333336</ele><time>2026-04-09T16:08:56.086Z</time></trkpt><trkpt lat="40.69341" lon="14.7759817"><ele>42.666666666666664</ele><time>2026-04-09T16:08:57.086Z</time></trkpt><trkpt lat="40.6933267" lon="14.77594"><ele>41.5</ele><time>2026-04-09T16:08:58.086Z</time></trkpt><trkpt lat="40.693235" lon="14.7759267"><ele>40.33333333333333</ele><time>2026-04-09T16:08:59.086Z</time></trkpt><trkpt lat="40.6931533" lon="14.7759367"><ele>39.166666666666664</ele><time>2026-04-09T16:09:00.086Z</time></trkpt><trkpt lat="40.69307" lon="14.7759617"><ele>38.0</ele><time>2026-04-09T16:09:01.086Z</time></trkpt><trkpt lat="40.6929867" lon="14.7759967"><ele>38.0</ele><time>2026-04-09T16:09:02.086Z</time></trkpt><trkpt lat="40.6929067" lon="14.776045"><ele>38.0</ele><time>2026-04-09T16:09:03.086Z</time></trkpt><trkpt lat="40.692835" lon="14.7761083"><ele>38.0</ele><time>2026-04-09T16:09:04.086Z</time></trkpt><trkpt lat="40.6927667" lon="14.776165"><ele>38.0</ele><time>2026-04-09T16:09:05.086Z</time></trkpt><trkpt lat="40.692705" lon="14.7762317"><ele>38.0</ele><time>2026-04-09T16:09:06.086Z</time></trkpt><trkpt lat="40.692645" lon="14.776295"><ele>38.0</ele><time>2026-04-09T16:09:07.086Z</time></trkpt><trkpt lat="40.6925917" lon="14.7763567"><ele>38.0</ele><time>2026-04-09T16:09:08.086Z</time></trkpt><trkpt lat="40.6925333" lon="14.7764183"><ele>38.0</ele><time>2026-04-09T16:09:09.086Z</time></trkpt><trkpt lat="40.6924667" lon="14.7764733"><ele>38.0</ele><time>2026-04-09T16:09:10.086Z</time></trkpt><trkpt lat="40.6923983" lon="14.776515"><ele>38.0</ele><time>2026-04-09T16:09:11.086Z</time></trkpt><trkpt lat="40.6923217" lon="14.7765383"><ele>38.0</ele><time>2026-04-09T16:09:12.086Z</time></trkpt><trkpt lat="40.6922367" lon="14.77655"><ele>38.0</ele><time>2026-04-09T16:09:13.086Z</time></trkpt><trkpt lat="40.6921467" lon="14.7765583"><ele>38.0</ele><time>2026-04-09T16:09:14.086Z</time></trkpt><trkpt lat="40.6920517" lon="14.7765667"><ele>38.0</ele><time>2026-04-09T16:09:15.086Z</time></trkpt><trkpt lat="40.691955" lon="14.7765667"><ele>38.0</ele><time>2026-04-09T16:09:16.086Z</time></trkpt><trkpt lat="40.69186" lon="14.776565"><ele>38.0</ele><time>2026-04-09T16:09:17.086Z</time></trkpt><trkpt lat="40.69176" lon="14.7765683"><ele>38.0</ele><time>2026-04-09T16:09:18.086Z</time></trkpt><trkpt lat="40.691655" lon="14.7765533"><ele>38.75</ele><time>2026-04-09T16:09:19.086Z</time></trkpt><trkpt lat="40.6915383" lon="14.7765433"><ele>39.5</ele><time>2026-04-09T16:09:20.086Z</time></trkpt><trkpt lat="40.6914217" lon="14.7765333"><ele>40.25</ele><time>2026-04-09T16:09:21.086Z</time></trkpt><trkpt lat="40.691295" lon="14.77652"><ele>41.0</ele><time>2026-04-09T16:09:22.086Z</time></trkpt><trkpt lat="40.6911583" lon="14.776505"><ele>41.5</ele><time>2026-04-09T16:09:23.086Z</time></trkpt><trkpt lat="40.6910167" lon="14.7764867"><ele>42.0</ele><time>2026-04-09T16:09:24.086Z</time></trkpt><trkpt lat="40.6908767" lon="14.7764633"><ele>42.5</ele><time>2026-04-09T16:09:25.086Z</time></trkpt><trkpt lat="40.690735" lon="14.77644"><ele>43.0</ele><time>2026-04-09T16:09:26.086Z</time></trkpt><trkpt lat="40.6905883" lon="14.77643"><ele>43.0</ele><time>2026-04-09T16:09:27.086Z</time></trkpt><trkpt lat="40.6904317" lon="14.7764267"><ele>43.0</ele><time>2026-04-09T16:09:28.086Z</time></trkpt><trkpt lat="40.6902733" lon="14.776425"><ele>43.0</ele><time>2026-04-09T16:09:29.086Z</time></trkpt><trkpt lat="40.690115" lon="14.7764317"><ele>42.0</ele><time>2026-04-09T16:09:30.086Z</time></trkpt><trkpt lat="40.68995" lon="14.77645"><ele>41.0</ele><time>2026-04-09T16:09:31.086Z</time></trkpt><trkpt lat="40.6897917" lon="14.7764817"><ele>40.0</ele><time>2026-04-09T16:09:32.086Z</time></trkpt><trkpt lat="40.689635" lon="14.7765067"><ele>40.0</ele><time>2026-04-09T16:09:33.086Z</time></trkpt><trkpt lat="40.6894883" lon="14.7765317"><ele>40.0</ele><time>2026-04-09T16:09:34.086Z</time></trkpt><trkpt lat="40.689345" lon="14.77656"><ele>40.0</ele><time>2026-04-09T16:09:35.086Z</time></trkpt><trkpt lat="40.6892017" lon="14.7765883"><ele>40.0</ele><time>2026-04-09T16:09:36.086Z</time></trkpt><trkpt lat="40.6890583" lon="14.7766033"><ele>39.25</ele><time>2026-04-09T16:09:37.086Z</time></trkpt><trkpt lat="40.68891" lon="14.7766183"><ele>38.5</ele><time>2026-04-09T16:09:38.086Z</time></trkpt><trkpt lat="40.6887617" lon="14.7766333"><ele>37.75</ele><time>2026-04-09T16:09:39.086Z</time></trkpt><trkpt lat="40.6886133" lon="14.7766517"><ele>37.0</ele><time>2026-04-09T16:09:40.086Z</time></trkpt><trkpt lat="40.6884683" lon="14.77667"><ele>36.25</ele><time>2026-04-09T16:09:41.086Z</time></trkpt><trkpt lat="40.6883183" lon="14.7766983"><ele>35.5</ele><time>2026-04-09T16:09:42.086Z</time></trkpt><trkpt lat="40.6881783" lon="14.7767433"><ele>34.75</ele><time>2026-04-09T16:09:43.086Z</time></trkpt><trkpt lat="40.688045" lon="14.7768017"><ele>34.0</ele><time>2026-04-09T16:09:44.086Z</time></trkpt><trkpt lat="40.687915" lon="14.7768917"><ele>35.25</ele><time>2026-04-09T16:09:45.086Z</time></trkpt><trkpt lat="40.6877883" lon="14.776995"><ele>36.5</ele><time>2026-04-09T16:09:46.086Z</time></trkpt><trkpt lat="40.6876767" lon="14.77711"><ele>37.75</ele><time>2026-04-09T16:09:47.086Z</time></trkpt><trkpt lat="40.6875683" lon="14.77724"><ele>39.0</ele><time>2026-04-09T16:09:48.086Z</time></trkpt><trkpt lat="40.6874617" lon="14.77738"><ele>39.0</ele><time>2026-04-09T16:09:49.086Z</time></trkpt><trkpt lat="40.6873617" lon="14.7775233"><ele>39.0</ele><time>2026-04-09T16:09:50.086Z</time></trkpt><trkpt lat="40.687255" lon="14.777665"><ele>39.0</ele><time>2026-04-09T16:09:51.086Z</time></trkpt><trkpt lat="40.687145" lon="14.7777983"><ele>39.0</ele><time>2026-04-09T16:09:52.086Z</time></trkpt><trkpt lat="40.687025" lon="14.77794"><ele>40.333333333333336</ele><time>2026-04-09T16:09:53.086Z</time></trkpt><trkpt lat="40.6868983" lon="14.7780733"><ele>41.66666666666667</ele><time>2026-04-09T16:09:54.086Z</time></trkpt><trkpt lat="40.6867767" lon="14.77821"><ele>43.0</ele><time>2026-04-09T16:09:55.086Z</time></trkpt><trkpt lat="40.6866583" lon="14.7783383"><ele>43.0</ele><time>2026-04-09T16:09:56.086Z</time></trkpt><trkpt lat="40.68655" lon="14.7784617"><ele>43.0</ele><time>2026-04-09T16:09:57.086Z</time></trkpt><trkpt lat="40.6864367" lon="14.7785917"><ele>43.0</ele><time>2026-04-09T16:09:58.086Z</time></trkpt><trkpt lat="40.6863183" lon="14.7787183"><ele>43.0</ele><time>2026-04-09T16:09:59.086Z</time></trkpt><trkpt lat="40.6862033" lon="14.7788517"><ele>45.66666666666667</ele><time>2026-04-09T16:10:00.086Z</time></trkpt><trkpt lat="40.686085" lon="14.7789817"><ele>48.333333333333336</ele><time>2026-04-09T16:10:01.086Z</time></trkpt><trkpt lat="40.6859683" lon="14.7791133"><ele>51.0</ele><time>2026-04-09T16:10:02.086Z</time></trkpt><trkpt lat="40.6858467" lon="14.779245"><ele>54.0</ele><time>2026-04-09T16:10:03.086Z</time></trkpt><trkpt lat="40.6857267" lon="14.7793767"><ele>57.0</ele><time>2026-04-09T16:10:04.086Z</time></trkpt><trkpt lat="40.6855983" lon="14.7795167"><ele>60.0</ele><time>2026-04-09T16:10:05.086Z</time></trkpt><trkpt lat="40.6854717" lon="14.7796367"><ele>60.0</ele><time>2026-04-09T16:10:06.086Z</time></trkpt><trkpt lat="40.6853367" lon="14.7797483"><ele>60.0</ele><time>2026-04-09T16:10:07.086Z</time></trkpt><trkpt lat="40.6851967" lon="14.7798567"><ele>60.0</ele><time>2026-04-09T16:10:08.086Z</time></trkpt><trkpt lat="40.6850617" lon="14.7799517"><ele>60.0</ele><time>2026-04-09T16:10:09.086Z</time></trkpt><trkpt lat="40.6849133" lon="14.78004"><ele>60.0</ele><time>2026-04-09T16:10:10.086Z</time></trkpt><trkpt lat="40.6847617" lon="14.780115"><ele>60.0</ele><time>2026-04-09T16:10:11.086Z</time></trkpt><trkpt lat="40.68461" lon="14.7801817"><ele>64.0</ele><time>2026-04-09T16:10:12.086Z</time></trkpt><trkpt lat="40.68446" lon="14.7802483"><ele>68.0</ele><time>2026-04-09T16:10:13.086Z</time></trkpt><trkpt lat="40.6843017" lon="14.7803083"><ele>72.0</ele><time>2026-04-09T16:10:14.086Z</time></trkpt><trkpt lat="40.684145" lon="14.780355"><ele>72.33333333333333</ele><time>2026-04-09T16:10:15.086Z</time></trkpt><trkpt lat="40.68399" lon="14.7804033"><ele>72.66666666666666</ele><time>2026-04-09T16:10:16.086Z</time></trkpt><trkpt lat="40.6838433" lon="14.78046"><ele>73.0</ele><time>2026-04-09T16:10:17.086Z</time></trkpt><trkpt lat="40.6836983" lon="14.7805083"><ele>80.0</ele><time>2026-04-09T16:10:18.086Z</time></trkpt><trkpt lat="40.68355" lon="14.7805533"><ele>87.0</ele><time>2026-04-09T16:10:19.086Z</time></trkpt><trkpt lat="40.6833967" lon="14.7806033"><ele>94.0</ele><time>2026-04-09T16:10:20.086Z</time></trkpt><trkpt lat="40.6832433" lon="14.7806617"><ele>94.0</ele><time>2026-04-09T16:10:21.086Z</time></trkpt><trkpt lat="40.6830867" lon="14.7807233"><ele>94.0</ele><time>2026-04-09T16:10:22.086Z</time></trkpt><trkpt lat="40.6829317" lon="14.78078"><ele>94.0</ele><time>2026-04-09T16:10:23.086Z</time></trkpt><trkpt lat="40.6827767" lon="14.7808367"><ele>68.0</ele><time>2026-04-09T16:10:24.086Z</time></trkpt><trkpt lat="40.6768833" lon="14.7873517"><ele>68.0</ele><time>2026-04-09T16:11:11.084Z</time></trkpt><trkpt lat="40.6767583" lon="14.787505"><ele>68.0</ele><time>2026-04-09T16:11:12.084Z</time></trkpt><trkpt lat="40.6767317" lon="14.7876667"><ele>68.0</ele><time>2026-04-09T16:11:13.084Z</time></trkpt><trkpt lat="40.6766733" lon="14.7877633"><ele>68.0</ele><time>2026-04-09T16:11:14.084Z</time></trkpt><trkpt lat="40.6766117" lon="14.7877883"><ele>68.0</ele><time>2026-04-09T16:11:15.084Z</time></trkpt><trkpt lat="40.6765317" lon="14.78779"><ele>68.0</ele><time>2026-04-09T16:11:16.084Z</time></trkpt><trkpt lat="40.676455" lon="14.7877533"><ele>68.0</ele><time>2026-04-09T16:11:17.084Z</time></trkpt><trkpt lat="40.6763967" lon="14.78768"><ele>68.0</ele><time>2026-04-09T16:11:18.084Z</time></trkpt><trkpt lat="40.6763583" lon="14.78759"><ele>68.0</ele><time>2026-04-09T16:11:19.084Z</time></trkpt><trkpt lat="40.67633" lon="14.7875083"><ele>68.0</ele><time>2026-04-09T16:11:20.084Z</time></trkpt><trkpt lat="40.6762767" lon="14.7873683"><ele>67.99999999999999</ele><time>2026-04-09T16:11:22.084Z</time></trkpt><trkpt lat="40.6762467" lon="14.7872933"><ele>68.0</ele><time>2026-04-09T16:11:23.084Z</time></trkpt><trkpt lat="40.6762083" lon="14.7872117"><ele>68.0</ele><time>2026-04-09T16:11:24.084Z</time></trkpt><trkpt lat="40.676175" lon="14.7871333"><ele>68.0</ele><time>2026-04-09T16:11:25.084Z</time></trkpt><trkpt lat="40.6761317" lon="14.787025"><ele>68.0</ele><time>2026-04-09T16:11:27.084Z</time></trkpt><trkpt lat="40.676105" lon="14.786945"><ele>67.99999999999999</ele><time>2026-04-09T16:11:31.084Z</time></trkpt><trkpt lat="40.6761" lon="14.7868533"><ele>68.0</ele><time>2026-04-09T16:11:39.084Z</time></trkpt><trkpt lat="40.6760617" lon="14.78673"><ele>65.8</ele><time>2026-04-09T16:11:41.084Z</time></trkpt><trkpt lat="40.6759683" lon="14.7865983"><ele>63.599999999999994</ele><time>2026-04-09T16:11:43.084Z</time></trkpt><trkpt lat="40.6759067" lon="14.7865267"><ele>61.400000000000006</ele><time>2026-04-09T16:11:44.084Z</time></trkpt><trkpt lat="40.675835" lon="14.7864533"><ele>59.2</ele><time>2026-04-09T16:11:45.084Z</time></trkpt><trkpt lat="40.6757717" lon="14.7863867"><ele>57.0</ele><time>2026-04-09T16:11:46.084Z</time></trkpt><trkpt lat="40.6757133" lon="14.78633"><ele>57.0</ele><time>2026-04-09T16:11:47.084Z</time></trkpt><trkpt lat="40.6756633" lon="14.7862733"><ele>57.0</ele><time>2026-04-09T16:11:48.084Z</time></trkpt><trkpt lat="40.6755733" lon="14.786155"><ele>57.0</ele><time>2026-04-09T16:11:50.084Z</time></trkpt><trkpt lat="40.6755317" lon="14.7860867"><ele>57.0</ele><time>2026-04-09T16:11:51.084Z</time></trkpt><trkpt lat="40.675485" lon="14.78602"><ele>57.0</ele><time>2026-04-09T16:11:52.084Z</time></trkpt><trkpt lat="40.6754367" lon="14.78595"><ele>57.0</ele><time>2026-04-09T16:11:53.084Z</time></trkpt><trkpt lat="40.67538" lon="14.7858733"><ele>54.8</ele><time>2026-04-09T16:11:54.084Z</time></trkpt><trkpt lat="40.6753183" lon="14.785795"><ele>52.6</ele><time>2026-04-09T16:11:55.084Z</time></trkpt><trkpt lat="40.6752467" lon="14.7857133"><ele>50.4</ele><time>2026-04-09T16:11:56.084Z</time></trkpt><trkpt lat="40.6751767" lon="14.7856217"><ele>48.199999999999996</ele><time>2026-04-09T16:11:57.084Z</time></trkpt><trkpt lat="40.6751133" lon="14.7855183"><ele>46.0</ele><time>2026-04-09T16:11:58.084Z</time></trkpt><trkpt lat="40.67505" lon="14.7854133"><ele>46.0</ele><time>2026-04-09T16:11:59.084Z</time></trkpt><trkpt lat="40.6749883" lon="14.7853083"><ele>46.0</ele><time>2026-04-09T16:12:00.084Z</time></trkpt><trkpt lat="40.67493" lon="14.7852067"><ele>46.0</ele><time>2026-04-09T16:12:01.084Z</time></trkpt><trkpt lat="40.6748783" lon="14.7851067"><ele>46.0</ele><time>2026-04-09T16:12:02.084Z</time></trkpt><trkpt lat="40.674825" lon="14.7850133"><ele>46.0</ele><time>2026-04-09T16:12:03.084Z</time></trkpt><trkpt lat="40.6747633" lon="14.7849367"><ele>47.16666666666667</ele><time>2026-04-09T16:12:04.085Z</time></trkpt><trkpt lat="40.6747133" lon="14.7848417"><ele>48.333333333333336</ele><time>2026-04-09T16:12:05.084Z</time></trkpt><trkpt lat="40.6746667" lon="14.7847567"><ele>49.5</ele><time>2026-04-09T16:12:06.084Z</time></trkpt><trkpt lat="40.67463" lon="14.7846717"><ele>50.66666666666667</ele><time>2026-04-09T16:12:07.084Z</time></trkpt><trkpt lat="40.674595" lon="14.7845883"><ele>51.833333333333336</ele><time>2026-04-09T16:12:08.084Z</time></trkpt><trkpt lat="40.67456" lon="14.78451"><ele>53.0</ele><time>2026-04-09T16:12:09.084Z</time></trkpt><trkpt lat="40.6745167" lon="14.7844417"><ele>53.0</ele><time>2026-04-09T16:12:10.084Z</time></trkpt><trkpt lat="40.6744733" lon="14.7843717"><ele>53.0</ele><time>2026-04-09T16:12:11.084Z</time></trkpt><trkpt lat="40.6744333" lon="14.784295"><ele>53.0</ele><time>2026-04-09T16:12:12.084Z</time></trkpt><trkpt lat="40.67439" lon="14.7842083"><ele>53.0</ele><time>2026-04-09T16:12:13.084Z</time></trkpt><trkpt lat="40.6743483" lon="14.7841283"><ele>53.0</ele><time>2026-04-09T16:12:14.084Z</time></trkpt><trkpt lat="40.6743033" lon="14.7840433"><ele>53.0</ele><time>2026-04-09T16:12:15.084Z</time></trkpt><trkpt lat="40.6742667" lon="14.7839583"><ele>53.0</ele><time>2026-04-09T16:12:16.084Z</time></trkpt><trkpt lat="40.6742267" lon="14.783885"><ele>51.4</ele><time>2026-04-09T16:12:17.084Z</time></trkpt><trkpt lat="40.6741883" lon="14.7838017"><ele>49.8</ele><time>2026-04-09T16:12:18.084Z</time></trkpt><trkpt lat="40.6741417" lon="14.78372"><ele>48.2</ele><time>2026-04-09T16:12:19.084Z</time></trkpt><trkpt lat="40.6740767" lon="14.783605"><ele>46.6</ele><time>2026-04-09T16:12:21.084Z</time></trkpt><trkpt lat="40.6740283" lon="14.7835"><ele>45.0</ele><time>2026-04-09T16:12:23.084Z</time></trkpt><trkpt lat="40.6739233" lon="14.7835183"><ele>43.6</ele><time>2026-04-09T16:12:25.084Z</time></trkpt><trkpt lat="40.6738517" lon="14.7835617"><ele>42.2</ele><time>2026-04-09T16:12:26.084Z</time></trkpt><trkpt lat="40.67378" lon="14.78363"><ele>40.8</ele><time>2026-04-09T16:12:27.084Z</time></trkpt><trkpt lat="40.6737067" lon="14.7837133"><ele>39.4</ele><time>2026-04-09T16:12:28.084Z</time></trkpt><trkpt lat="40.6736333" lon="14.7837917"><ele>38.0</ele><time>2026-04-09T16:12:29.084Z</time></trkpt><trkpt lat="40.67356" lon="14.783865"><ele>35.33333333333333</ele><time>2026-04-09T16:12:30.084Z</time></trkpt><trkpt lat="40.6734883" lon="14.783935"><ele>32.666666666666664</ele><time>2026-04-09T16:12:31.084Z</time></trkpt><trkpt lat="40.6734367" lon="14.7840183"><ele>30.0</ele><time>2026-04-09T16:12:32.084Z</time></trkpt><trkpt lat="40.6733733" lon="14.7840817"><ele>27.333333333333332</ele><time>2026-04-09T16:12:33.084Z</time></trkpt><trkpt lat="40.673305" lon="14.7841617"><ele>24.666666666666664</ele><time>2026-04-09T16:12:34.084Z</time></trkpt><trkpt lat="40.67324" lon="14.78425"><ele>22.0</ele><time>2026-04-09T16:12:35.084Z</time></trkpt><trkpt lat="40.67317" lon="14.7843317"><ele>21.5</ele><time>2026-04-09T16:12:36.084Z</time></trkpt><trkpt lat="40.6731" lon="14.7844067"><ele>21.0</ele><time>2026-04-09T16:12:37.084Z</time></trkpt><trkpt lat="40.6730233" lon="14.78448"><ele>20.5</ele><time>2026-04-09T16:12:38.084Z</time></trkpt><trkpt lat="40.6729583" lon="14.78456"><ele>20.0</ele><time>2026-04-09T16:12:39.084Z</time></trkpt><trkpt lat="40.6729017" lon="14.7846283"><ele>19.5</ele><time>2026-04-09T16:12:40.084Z</time></trkpt><trkpt lat="40.6728383" lon="14.784685"><ele>19.0</ele><time>2026-04-09T16:12:41.084Z</time></trkpt><trkpt lat="40.6727833" lon="14.7847483"><ele>18.666666666666664</ele><time>2026-04-09T16:12:42.084Z</time></trkpt><trkpt lat="40.6727383" lon="14.7848067"><ele>18.333333333333332</ele><time>2026-04-09T16:12:43.084Z</time></trkpt><trkpt lat="40.67265" lon="14.7849"><ele>18.0</ele><time>2026-04-09T16:12:45.084Z</time></trkpt><trkpt lat="40.672585" lon="14.7849817"><ele>17.666666666666668</ele><time>2026-04-09T16:12:47.084Z</time></trkpt><trkpt lat="40.6725183" lon="14.7850283"><ele>17.333333333333336</ele><time>2026-04-09T16:12:51.084Z</time></trkpt><trkpt lat="40.6724517" lon="14.7850183"><ele>17.0</ele><time>2026-04-09T16:12:54.084Z</time></trkpt><trkpt lat="40.6723817" lon="14.7849217"><ele>17.0</ele><time>2026-04-09T16:12:55.084Z</time></trkpt><trkpt lat="40.6722733" lon="14.784715"><ele>17.0</ele><time>2026-04-09T16:12:56.084Z</time></trkpt><trkpt lat="40.6721883" lon="14.7845383"><ele>17.0</ele><time>2026-04-09T16:12:57.084Z</time></trkpt><trkpt lat="40.6721267" lon="14.7844067"><ele>17.0</ele><time>2026-04-09T16:12:58.084Z</time></trkpt><trkpt lat="40.6720817" lon="14.7843017"><ele>17.0</ele><time>2026-04-09T16:12:59.084Z</time></trkpt><trkpt lat="40.67204" lon="14.7842167"><ele>17.0</ele><time>2026-04-09T16:13:00.084Z</time></trkpt><trkpt lat="40.6720083" lon="14.784135"><ele>17.0</ele><time>2026-04-09T16:13:01.084Z</time></trkpt><trkpt lat="40.67195" lon="14.7840083"><ele>17.0</ele><time>2026-04-09T16:13:03.084Z</time></trkpt><trkpt lat="40.6718933" lon="14.7839017"><ele>17.0</ele><time>2026-04-09T16:13:05.084Z</time></trkpt><trkpt lat="40.67184" lon="14.78381"><ele>16.857142857142854</ele><time>2026-04-09T16:13:07.084Z</time></trkpt><trkpt lat="40.6718017" lon="14.7837367"><ele>16.714285714285715</ele><time>2026-04-09T16:13:09.084Z</time></trkpt><trkpt lat="40.6717433" lon="14.7836467"><ele>16.57142857142857</ele><time>2026-04-09T16:13:12.084Z</time></trkpt><trkpt lat="40.6716967" lon="14.7835633"><ele>16.428571428571427</ele><time>2026-04-09T16:13:14.084Z</time></trkpt><trkpt lat="40.671655" lon="14.783485"><ele>16.285714285714285</ele><time>2026-04-09T16:13:16.084Z</time></trkpt><trkpt lat="40.67162" lon="14.78341"><ele>16.142857142857142</ele><time>2026-04-09T16:13:18.084Z</time></trkpt><trkpt lat="40.6715833" lon="14.7833417"><ele>16.0</ele><time>2026-04-09T16:13:20.084Z</time></trkpt><trkpt lat="40.67154" lon="14.7832617"><ele>15.999999999999998</ele><time>2026-04-09T16:13:22.084Z</time></trkpt><trkpt lat="40.6714783" lon="14.7831717"><ele>16.0</ele><time>2026-04-09T16:13:24.084Z</time></trkpt><trkpt lat="40.6714183" lon="14.783105"><ele>16.0</ele><time>2026-04-09T16:13:26.084Z</time></trkpt><trkpt lat="40.6713317" lon="14.78307"><ele>16.0</ele><time>2026-04-09T16:13:28.084Z</time></trkpt><trkpt lat="40.671255" lon="14.783055"><ele>15.999999999999998</ele><time>2026-04-09T16:13:30.084Z</time></trkpt><trkpt lat="40.6711567" lon="14.783015"><ele>16.0</ele><time>2026-04-09T16:14:00.085Z</time></trkpt><trkpt lat="40.67107" lon="14.7829667"><ele>14.8</ele><time>2026-04-09T16:14:02.085Z</time></trkpt><trkpt lat="40.6709733" lon="14.7829167"><ele>13.600000000000001</ele><time>2026-04-09T16:14:04.085Z</time></trkpt><trkpt lat="40.6708733" lon="14.782865"><ele>12.4</ele><time>2026-04-09T16:14:06.085Z</time></trkpt><trkpt lat="40.67076" lon="14.7828233"><ele>11.2</ele><time>2026-04-09T16:14:08.085Z</time></trkpt><trkpt lat="40.670695" lon="14.78278"><ele>10.0</ele><time>2026-04-09T16:14:10.085Z</time></trkpt><trkpt lat="40.67062" lon="14.7827867"><ele>10.0</ele><time>2026-04-09T16:14:14.085Z</time></trkpt><trkpt lat="40.6706017" lon="14.78266"><ele>10.0</ele><time>2026-04-09T16:14:17.085Z</time></trkpt><trkpt lat="40.6706333" lon="14.78252"><ele>10.0</ele><time>2026-04-09T16:14:19.085Z</time></trkpt><trkpt lat="40.6706717" lon="14.7823767"><ele>10.0</ele><time>2026-04-09T16:14:21.085Z</time></trkpt><trkpt lat="40.6706983" lon="14.7822367"><ele>10.0</ele><time>2026-04-09T16:14:23.085Z</time></trkpt><trkpt lat="40.6706833" lon="14.7821283"><ele>10.0</ele><time>2026-04-09T16:14:25.085Z</time></trkpt><trkpt lat="40.6705983" lon="14.7820383"><ele>10.0</ele><time>2026-04-09T16:14:27.085Z</time></trkpt><trkpt lat="40.670535" lon="14.782"><ele>10.0</ele><time>2026-04-09T16:14:28.085Z</time></trkpt><trkpt lat="40.6704717" lon="14.7819483"><ele>10.0</ele><time>2026-04-09T16:14:29.085Z</time></trkpt><trkpt lat="40.6703683" lon="14.7818933"><ele>10.0</ele><time>2026-04-09T16:14:31.085Z</time></trkpt><trkpt lat="40.6702733" lon="14.7819067"><ele>10.0</ele><time>2026-04-09T16:14:33.085Z</time></trkpt><trkpt lat="40.6701733" lon="14.7820083"><ele>10.0</ele><time>2026-04-09T16:14:35.085Z</time></trkpt><trkpt lat="40.6701283" lon="14.782085"><ele>10.0</ele><time>2026-04-09T16:14:36.085Z</time></trkpt><trkpt lat="40.6700883" lon="14.7821533"><ele>10.0</ele><time>2026-04-09T16:14:37.085Z</time></trkpt><trkpt lat="40.670025" lon="14.7822633"><ele>10.0</ele><time>2026-04-09T16:14:39.085Z</time></trkpt><trkpt lat="40.669945" lon="14.7822933"><ele>10.0</ele><time>2026-04-09T16:14:41.085Z</time></trkpt><trkpt lat="40.6698317" lon="14.7822083"><ele>10.0</ele><time>2026-04-09T16:14:43.085Z</time></trkpt><trkpt lat="40.6697717" lon="14.782155"><ele>10.0</ele><time>2026-04-09T16:14:44.085Z</time></trkpt><trkpt lat="40.6696817" lon="14.7820867"><ele>10.0</ele><time>2026-04-09T16:14:46.085Z</time></trkpt><trkpt lat="40.6695967" lon="14.78208"><ele>10.0</ele><time>2026-04-09T16:15:49.085Z</time></trkpt><trkpt lat="40.669515" lon="14.7821067"><ele>10.0</ele><time>2026-04-09T16:15:51.085Z</time></trkpt><trkpt lat="40.6694617" lon="14.78216"><ele>10.0</ele><time>2026-04-09T16:15:52.085Z</time></trkpt><trkpt lat="40.6694033" lon="14.7822417"><ele>10.0</ele><time>2026-04-09T16:15:53.085Z</time></trkpt><trkpt lat="40.6693517" lon="14.78235"><ele>10.0</ele><time>2026-04-09T16:15:54.085Z</time></trkpt><trkpt lat="40.6692983" lon="14.7824867"><ele>10.0</ele><time>2026-04-09T16:15:55.085Z</time></trkpt><trkpt lat="40.669235" lon="14.7826167"><ele>9.5</ele><time>2026-04-09T16:15:56.085Z</time></trkpt><trkpt lat="40.6691583" lon="14.7827533"><ele>9.0</ele><time>2026-04-09T16:15:57.085Z</time></trkpt><trkpt lat="40.6690917" lon="14.7829033"><ele>8.5</ele><time>2026-04-09T16:15:58.085Z</time></trkpt><trkpt lat="40.66902" lon="14.7830417"><ele>8.0</ele><time>2026-04-09T16:15:59.085Z</time></trkpt><trkpt lat="40.6689517" lon="14.7831767"><ele>8.0</ele><time>2026-04-09T16:16:00.085Z</time></trkpt><trkpt lat="40.6688767" lon="14.7833183"><ele>8.0</ele><time>2026-04-09T16:16:01.085Z</time></trkpt><trkpt lat="40.668805" lon="14.78346"><ele>8.0</ele><time>2026-04-09T16:16:02.085Z</time></trkpt><trkpt lat="40.6687267" lon="14.7836067"><ele>8.0</ele><time>2026-04-09T16:16:03.085Z</time></trkpt><trkpt lat="40.6686533" lon="14.7837517"><ele>7.0</ele><time>2026-04-09T16:16:04.085Z</time></trkpt><trkpt lat="40.668585" lon="14.783895"><ele>6.0</ele><time>2026-04-09T16:16:05.085Z</time></trkpt><trkpt lat="40.6685183" lon="14.78403"><ele>5.0</ele><time>2026-04-09T16:16:06.085Z</time></trkpt><trkpt lat="40.6684483" lon="14.7841617"><ele>4.0</ele><time>2026-04-09T16:16:07.085Z</time></trkpt><trkpt lat="40.6683783" lon="14.7842983"><ele>4.25</ele><time>2026-04-09T16:16:08.085Z</time></trkpt><trkpt lat="40.6683133" lon="14.7844317"><ele>4.5</ele><time>2026-04-09T16:16:09.085Z</time></trkpt><trkpt lat="40.6682333" lon="14.78456"><ele>4.75</ele><time>2026-04-09T16:16:10.085Z</time></trkpt><trkpt lat="40.6681633" lon="14.7846917"><ele>5.0</ele><time>2026-04-09T16:16:11.085Z</time></trkpt><trkpt lat="40.6681017" lon="14.7848117"><ele>5.0</ele><time>2026-04-09T16:16:12.085Z</time></trkpt><trkpt lat="40.6680383" lon="14.78492"><ele>5.0</ele><time>2026-04-09T16:16:13.085Z</time></trkpt><trkpt lat="40.66798" lon="14.7850217"><ele>5.0</ele><time>2026-04-09T16:16:14.085Z</time></trkpt><trkpt lat="40.66792" lon="14.78513"><ele>5.0</ele><time>2026-04-09T16:16:15.085Z</time></trkpt><trkpt lat="40.667865" lon="14.7852383"><ele>5.0</ele><time>2026-04-09T16:16:16.085Z</time></trkpt><trkpt lat="40.6678083" lon="14.7853383"><ele>5.0</ele><time>2026-04-09T16:16:17.085Z</time></trkpt><trkpt lat="40.667765" lon="14.7854383"><ele>5.0</ele><time>2026-04-09T16:16:18.085Z</time></trkpt><trkpt lat="40.66772" lon="14.7855317"><ele>5.0</ele><time>2026-04-09T16:16:19.085Z</time></trkpt><trkpt lat="40.667665" lon="14.7856183"><ele>5.0</ele><time>2026-04-09T16:16:20.085Z</time></trkpt><trkpt lat="40.6676167" lon="14.7857133"><ele>5.0</ele><time>2026-04-09T16:16:21.085Z</time></trkpt><trkpt lat="40.6675683" lon="14.78581"><ele>5.0</ele><time>2026-04-09T16:16:22.085Z</time></trkpt><trkpt lat="40.6675133" lon="14.785915"><ele>4.8</ele><time>2026-04-09T16:16:23.085Z</time></trkpt><trkpt lat="40.6674483" lon="14.78602"><ele>4.6</ele><time>2026-04-09T16:16:24.085Z</time></trkpt><trkpt lat="40.667385" lon="14.78613"><ele>4.4</ele><time>2026-04-09T16:16:25.085Z</time></trkpt><trkpt lat="40.6673317" lon="14.7862317"><ele>4.2</ele><time>2026-04-09T16:16:26.085Z</time></trkpt><trkpt lat="40.6672783" lon="14.7863333"><ele>4.0</ele><time>2026-04-09T16:16:27.085Z</time></trkpt><trkpt lat="40.667235" lon="14.7864233"><ele>3.9999999999999996</ele><time>2026-04-09T16:16:28.085Z</time></trkpt><trkpt lat="40.6671967" lon="14.7865167"><ele>4.0</ele><time>2026-04-09T16:16:29.085Z</time></trkpt><trkpt lat="40.6671567" lon="14.7866067"><ele>4.0</ele><time>2026-04-09T16:16:30.085Z</time></trkpt><trkpt lat="40.667115" lon="14.7866833"><ele>4.0</ele><time>2026-04-09T16:16:31.085Z</time></trkpt><trkpt lat="40.6670733" lon="14.786765"><ele>3.9999999999999996</ele><time>2026-04-09T16:16:32.085Z</time></trkpt><trkpt lat="40.6670367" lon="14.7868467"><ele>4.0</ele><time>2026-04-09T16:16:33.085Z</time></trkpt><trkpt lat="40.6669967" lon="14.7869283"><ele>4.333333333333333</ele><time>2026-04-09T16:16:34.085Z</time></trkpt><trkpt lat="40.6669533" lon="14.787005"><ele>4.666666666666666</ele><time>2026-04-09T16:16:35.085Z</time></trkpt><trkpt lat="40.666915" lon="14.787085"><ele>5.0</ele><time>2026-04-09T16:16:36.085Z</time></trkpt><trkpt lat="40.6668783" lon="14.7871633"><ele>5.333333333333333</ele><time>2026-04-09T16:16:37.085Z</time></trkpt><trkpt lat="40.6668383" lon="14.7872333"><ele>5.666666666666667</ele><time>2026-04-09T16:16:38.085Z</time></trkpt><trkpt lat="40.6667983" lon="14.7872983"><ele>6.0</ele><time>2026-04-09T16:16:39.085Z</time></trkpt><trkpt lat="40.6667167" lon="14.787425"><ele>6.0</ele><time>2026-04-09T16:16:41.085Z</time></trkpt><trkpt lat="40.6666767" lon="14.78749"><ele>6.0</ele><time>2026-04-09T16:16:42.085Z</time></trkpt><trkpt lat="40.6666483" lon="14.7875667"><ele>6.0</ele><time>2026-04-09T16:16:43.085Z</time></trkpt><trkpt lat="40.6666017" lon="14.7876633"><ele>6.0</ele><time>2026-04-09T16:16:45.085Z</time></trkpt><trkpt lat="40.6665583" lon="14.787745"><ele>6.0</ele><time>2026-04-09T16:16:47.085Z</time></trkpt><trkpt lat="40.66652" lon="14.7878383"><ele>6.0</ele><time>2026-04-09T16:16:49.085Z</time></trkpt><trkpt lat="40.6664617" lon="14.7879633"><ele>7.199999999999999</ele><time>2026-04-09T16:16:51.085Z</time></trkpt><trkpt lat="40.6664017" lon="14.7880783"><ele>8.399999999999999</ele><time>2026-04-09T16:16:53.085Z</time></trkpt><trkpt lat="40.6663483" lon="14.78819"><ele>9.6</ele><time>2026-04-09T16:16:55.085Z</time></trkpt><trkpt lat="40.6662917" lon="14.7883083"><ele>10.799999999999999</ele><time>2026-04-09T16:16:57.085Z</time></trkpt><trkpt lat="40.6662433" lon="14.7883633"><ele>12.0</ele><time>2026-04-09T16:16:58.085Z</time></trkpt><trkpt lat="40.6661617" lon="14.7884733"><ele>10.666666666666666</ele><time>2026-04-09T16:17:00.085Z</time></trkpt><trkpt lat="40.666105" lon="14.7885667"><ele>9.333333333333334</ele><time>2026-04-09T16:17:02.085Z</time></trkpt><trkpt lat="40.6660617" lon="14.7886417"><ele>8.0</ele><time>2026-04-09T16:17:04.085Z</time></trkpt><trkpt lat="40.666025" lon="14.788715"><ele>6.666666666666666</ele><time>2026-04-09T16:17:09.085Z</time></trkpt><trkpt lat="40.6659483" lon="14.78885"><ele>5.333333333333333</ele><time>2026-04-09T16:17:12.085Z</time></trkpt><trkpt lat="40.6658983" lon="14.7889417"><ele>4.0</ele><time>2026-04-09T16:17:14.085Z</time></trkpt><trkpt lat="40.6658467" lon="14.78903"><ele>4.0</ele><time>2026-04-09T16:17:16.085Z</time></trkpt><trkpt lat="40.6658" lon="14.7891217"><ele>4.0</ele><time>2026-04-09T16:17:18.085Z</time></trkpt><trkpt lat="40.6657383" lon="14.78925"><ele>4.0</ele><time>2026-04-09T16:17:20.085Z</time></trkpt><trkpt lat="40.66567" lon="14.789385"><ele>4.0</ele><time>2026-04-09T16:17:22.085Z</time></trkpt><trkpt lat="40.66563" lon="14.7894683"><ele>4.0</ele><time>2026-04-09T16:17:23.085Z</time></trkpt><trkpt lat="40.665585" lon="14.7895467"><ele>4.0</ele><time>2026-04-09T16:17:24.085Z</time></trkpt><trkpt lat="40.6655433" lon="14.7896217"><ele>3.9999999999999996</ele><time>2026-04-09T16:17:25.085Z</time></trkpt><trkpt lat="40.6655067" lon="14.7896917"><ele>4.0</ele><time>2026-04-09T16:17:26.085Z</time></trkpt><trkpt lat="40.6654717" lon="14.7897733"><ele>4.0</ele><time>2026-04-09T16:17:27.085Z</time></trkpt><trkpt lat="40.6654367" lon="14.7898467"><ele>3.9999999999999996</ele><time>2026-04-09T16:17:28.085Z</time></trkpt><trkpt lat="40.6653783" lon="14.7899383"><ele>4.0</ele><time>2026-04-09T16:17:30.085Z</time></trkpt><trkpt lat="40.6653317" lon="14.7900183"><ele>4.0</ele><time>2026-04-09T16:17:32.085Z</time></trkpt><trkpt lat="40.6652717" lon="14.7901233"><ele>4.666666666666666</ele><time>2026-04-09T16:17:34.085Z</time></trkpt><trkpt lat="40.6652117" lon="14.7902333"><ele>5.333333333333333</ele><time>2026-04-09T16:17:36.085Z</time></trkpt><trkpt lat="40.665165" lon="14.7903217"><ele>6.0</ele><time>2026-04-09T16:17:38.085Z</time></trkpt><trkpt lat="40.6651283" lon="14.79041"><ele>6.666666666666666</ele><time>2026-04-09T16:17:41.085Z</time></trkpt><trkpt lat="40.6650933" lon="14.790495"><ele>7.333333333333333</ele><time>2026-04-09T16:17:45.085Z</time></trkpt><trkpt lat="40.66506" lon="14.7905767"><ele>8.0</ele><time>2026-04-09T16:17:49.085Z</time></trkpt><trkpt lat="40.66503" lon="14.790665"><ele>7.999999999999999</ele><time>2026-04-09T16:17:52.085Z</time></trkpt><trkpt lat="40.6649867" lon="14.7907333"><ele>8.0</ele><time>2026-04-09T16:17:54.085Z</time></trkpt><trkpt lat="40.6649317" lon="14.79083"><ele>8.0</ele><time>2026-04-09T16:17:56.085Z</time></trkpt><trkpt lat="40.6648783" lon="14.7909267"><ele>8.0</ele><time>2026-04-09T16:17:58.085Z</time></trkpt><trkpt lat="40.6648817" lon="14.791025"><ele>7.999999999999999</ele><time>2026-04-09T16:18:00.085Z</time></trkpt><trkpt lat="40.6649383" lon="14.7910867"><ele>8.0</ele><time>2026-04-09T16:18:02.085Z</time></trkpt><trkpt lat="40.6649867" lon="14.7911667"><ele>8.333333333333332</ele><time>2026-04-09T16:18:04.085Z</time></trkpt><trkpt lat="40.665015" lon="14.7912617"><ele>8.666666666666666</ele><time>2026-04-09T16:18:06.085Z</time></trkpt><trkpt lat="40.6651" lon="14.7913933"><ele>9.0</ele><time>2026-04-09T16:18:08.085Z</time></trkpt><trkpt lat="40.6651517" lon="14.7914533"><ele>9.333333333333334</ele><time>2026-04-09T16:18:09.085Z</time></trkpt><trkpt lat="40.665195" lon="14.7915183"><ele>9.666666666666668</ele><time>2026-04-09T16:18:10.085Z</time></trkpt><trkpt lat="40.6652383" lon="14.7915867"><ele>10.0</ele><time>2026-04-09T16:18:11.085Z</time></trkpt><trkpt lat="40.665305" lon="14.79168"><ele>10.0</ele><time>2026-04-09T16:18:13.085Z</time></trkpt><trkpt lat="40.665375" lon="14.7917033"><ele>10.0</ele><time>2026-04-09T16:18:15.085Z</time></trkpt><trkpt lat="40.6654383" lon="14.7916283"><ele>10.0</ele><time>2026-04-09T16:18:17.085Z</time></trkpt><trkpt lat="40.6655017" lon="14.791475"><ele>10.0</ele><time>2026-04-09T16:18:19.085Z</time></trkpt><trkpt lat="40.6655333" lon="14.7913833"><ele>10.0</ele><time>2026-04-09T16:18:20.085Z</time></trkpt><trkpt lat="40.6655683" lon="14.7912833"><ele>10.0</ele><time>2026-04-09T16:18:21.085Z</time></trkpt><trkpt lat="40.6656183" lon="14.7911983"><ele>10.0</ele><time>2026-04-09T16:18:22.085Z</time></trkpt><trkpt lat="40.6656483" lon="14.7911117"><ele>10.0</ele><time>2026-04-09T16:18:23.085Z</time></trkpt><trkpt lat="40.6656783" lon="14.7910383"><ele>10.0</ele><time>2026-04-09T16:18:24.085Z</time></trkpt><trkpt lat="40.66571" lon="14.79094"><ele>10.0</ele><time>2026-04-09T16:18:26.085Z</time></trkpt><trkpt lat="40.6657133" lon="14.790825"><ele>10.0</ele><time>2026-04-09T16:18:29.085Z</time></trkpt><trkpt lat="40.665645" lon="14.79078"><ele>9.6</ele><time>2026-04-09T16:18:31.085Z</time></trkpt><trkpt lat="40.66552" lon="14.7907183"><ele>9.2</ele><time>2026-04-09T16:18:33.085Z</time></trkpt><trkpt lat="40.6654133" lon="14.79064"><ele>8.8</ele><time>2026-04-09T16:18:35.085Z</time></trkpt><trkpt lat="40.66534" lon="14.7905783"><ele>8.4</ele><time>2026-04-09T16:18:37.085Z</time></trkpt><trkpt lat="40.66527" lon="14.7905233"><ele>8.0</ele><time>2026-04-09T16:18:40.085Z</time></trkpt><trkpt lat="40.6652217" lon="14.7904567"><ele>8.0</ele><time>2026-04-09T16:18:48.085Z</time></trkpt><trkpt lat="40.6652317" lon="14.7903133"><ele>8.0</ele><time>2026-04-09T16:19:12.085Z</time></trkpt><trkpt lat="40.6652067" lon="14.7904683"><ele>8.0</ele><time>2026-04-09T16:20:05.085Z</time></trkpt><trkpt lat="40.6651683" lon="14.7905717"><ele>8.0</ele><time>2026-04-09T16:20:08.085Z</time></trkpt><trkpt lat="40.665175" lon="14.7906883"><ele>8.0</ele><time>2026-04-09T16:20:10.085Z</time></trkpt><trkpt lat="40.6651767" lon="14.790775"><ele>8.0</ele><time>2026-04-09T16:20:12.085Z</time></trkpt><trkpt lat="40.6652383" lon="14.7907333"><ele>8.0</ele><time>2026-04-09T16:20:22.085Z</time></trkpt><trkpt lat="40.6653033" lon="14.7907383"><ele>8.0</ele><time>2026-04-09T16:20:28.085Z</time></trkpt><trkpt lat="40.66534" lon="14.7908217"><ele>8.0</ele><time>2026-04-09T16:20:34.085Z</time></trkpt><trkpt lat="40.6652667" lon="14.7911"><ele>8.0</ele><time>2026-04-09T16:20:55.089Z</time></trkpt><trkpt lat="40.6652917" lon="14.7910133"><ele>8.0</ele><time>2026-04-09T16:20:57.089Z</time></trkpt><trkpt lat="40.6652883" lon="14.7908767"><ele>8.0</ele><time>2026-04-09T16:20:59.089Z</time></trkpt><trkpt lat="40.66529" lon="14.790755"><ele>8.0</ele><time>2026-04-09T16:21:01.089Z</time></trkpt><trkpt lat="40.6652683" lon="14.79055"><ele>8.0</ele><time>2026-04-09T16:21:06.089Z</time></trkpt><trkpt lat="40.665235" lon="14.7907067"><ele>7.999999999999999</ele><time>2026-04-09T16:21:34.089Z</time></trkpt><trkpt lat="40.6652567" lon="14.7907867"><ele>8.0</ele><time>2026-04-09T16:21:41.089Z</time></trkpt><trkpt lat="40.6652267" lon="14.7908883"><ele>8.0</ele><time>2026-04-09T16:21:47.089Z</time></trkpt><trkpt lat="40.6651767" lon="14.79074"><ele>8.0</ele><time>2026-04-09T16:22:00.089Z</time></trkpt><trkpt lat="40.6651883" lon="14.790645"><ele>7.999999999999999</ele><time>2026-04-09T16:22:08.089Z</time></trkpt><trkpt lat="40.6651867" lon="14.79055"><ele>8.0</ele><time>2026-04-09T16:22:33.089Z</time></trkpt><trkpt lat="40.6651983" lon="14.7904267"><ele>8.0</ele><time>2026-04-09T16:22:47.089Z</time></trkpt><trkpt lat="40.665255" lon="14.7904683"><ele>8.0</ele><time>2026-04-09T16:22:52.089Z</time></trkpt><trkpt lat="40.6653883" lon="14.7908133"><ele>8.0</ele><time>2026-04-09T16:23:51.086Z</time></trkpt><trkpt lat="40.6653367" lon="14.790745"><ele>8.0</ele><time>2026-04-09T16:23:52.086Z</time></trkpt><trkpt lat="40.6652317" lon="14.7905433"><ele>8.0</ele><time>2026-04-09T16:23:53.086Z</time></trkpt><trkpt lat="40.6652833" lon="14.7906917"><ele>8.0</ele><time>2026-04-09T16:24:06.086Z</time></trkpt><trkpt lat="40.665345" lon="14.79085"><ele>8.0</ele><time>2026-04-09T16:24:07.086Z</time></trkpt><trkpt lat="40.6652683" lon="14.7906783"><ele>8.0</ele><time>2026-04-09T16:24:24.086Z</time></trkpt><trkpt lat="40.6652117" lon="14.79056"><ele>7.999999999999999</ele><time>2026-04-09T16:24:40.086Z</time></trkpt><trkpt lat="40.6652767" lon="14.790685"><ele>8.0</ele><time>2026-04-09T16:25:04.086Z</time></trkpt><trkpt lat="40.6652561" lon="14.7905984"><ele>8.0</ele><time>2026-04-09T16:25:21.168Z</time></trkpt><trkpt lat="40.6652386" lon="14.7905182"><ele>8.0</ele><time>2026-04-09T16:25:42.111Z</time></trkpt><trkpt lat="40.6652342" lon="14.7904323"><ele>7.999999999999999</ele><time>2026-04-09T16:26:00.092Z</time></trkpt><trkpt lat="40.6652794" lon="14.790536"><ele>8.0</ele><time>2026-04-09T16:31:48.116Z</time></trkpt><trkpt lat="40.6652777" lon="14.7904453"><ele>7.999999999999999</ele><time>2026-04-09T16:32:09.087Z</time></trkpt><trkpt lat="40.6652789" lon="14.7903304"><ele>8.0</ele><time>2026-04-09T16:36:37.156Z</time></trkpt><trkpt lat="40.665252" lon="14.7904382"><ele>8.0</ele><time>2026-04-09T16:37:26.087Z</time></trkpt><trkpt lat="40.6652532" lon="14.7905536"><ele>8.0</ele><time>2026-04-09T16:37:29.131Z</time></trkpt><trkpt lat="40.6652892" lon="14.7906302"><ele>7.999999999999999</ele><time>2026-04-09T16:37:32.091Z</time></trkpt><trkpt lat="40.665313" lon="14.7907107"><ele>8.0</ele><time>2026-04-09T16:37:55.118Z</time></trkpt><trkpt lat="40.6652981" lon="14.7906292"><ele>8.0</ele><time>2026-04-09T16:38:55.098Z</time></trkpt><trkpt lat="40.6653142" lon="14.7905489"><ele>7.999999999999999</ele><time>2026-04-09T16:39:17.138Z</time></trkpt><trkpt lat="40.66525" lon="14.7904369"><ele>8.0</ele><time>2026-04-09T16:40:18.105Z</time></trkpt><trkpt lat="40.6652715" lon="14.7905332"><ele>8.0</ele><time>2026-04-09T16:40:26.11Z</time></trkpt><trkpt lat="40.6652438" lon="14.7904547"><ele>7.999999999999999</ele><time>2026-04-09T16:41:37.098Z</time></trkpt><trkpt lat="40.6652688" lon="14.7905404"><ele>8.0</ele><time>2026-04-09T16:41:52.087Z</time></trkpt><trkpt lat="40.6652921" lon="14.7906225"><ele>8.0</ele><time>2026-04-09T16:42:11.159Z</time></trkpt><trkpt lat="40.6652289" lon="14.7906095"><ele>7.999999999999999</ele><time>2026-04-09T16:42:52.087Z</time></trkpt><trkpt lat="40.6652464" lon="14.790525"><ele>8.0</ele><time>2026-04-09T16:43:14.1Z</time></trkpt><trkpt lat="40.6652277" lon="14.7904408"><ele>8.0</ele><time>2026-04-09T16:44:48.087Z</time></trkpt><trkpt lat="40.6652271" lon="14.7903458"><ele>8.0</ele><time>2026-04-09T16:44:54.105Z</time></trkpt><trkpt lat="40.6652629" lon="14.7904274"><ele>7.999999999999999</ele><time>2026-04-09T16:45:04.087Z</time></trkpt><trkpt lat="40.6652149" lon="14.7903727"><ele>8.0</ele><time>2026-04-09T17:15:01.134Z</time></trkpt><trkpt lat="40.6650838" lon="14.7904566"><ele>7.999999999999999</ele><time>2026-04-09T17:18:46.089Z</time></trkpt><trkpt lat="40.6650164" lon="14.790567"><ele>8.0</ele><time>2026-04-09T17:18:47.089Z</time></trkpt><trkpt lat="40.6649766" lon="14.7906458"><ele>8.0</ele><time>2026-04-09T17:18:48.089Z</time></trkpt><trkpt lat="40.6649355" lon="14.7907205"><ele>8.0</ele><time>2026-04-09T17:18:49.089Z</time></trkpt><trkpt lat="40.664897" lon="14.7907896"><ele>7.999999999999999</ele><time>2026-04-09T17:18:50.089Z</time></trkpt><trkpt lat="40.6648579" lon="14.790866"><ele>8.0</ele><time>2026-04-09T17:18:51.089Z</time></trkpt><trkpt lat="40.6648136" lon="14.7909429"><ele>8.285714285714285</ele><time>2026-04-09T17:18:52.089Z</time></trkpt><trkpt lat="40.6647729" lon="14.7910193"><ele>8.571428571428571</ele><time>2026-04-09T17:18:53.089Z</time></trkpt><trkpt lat="40.6647333" lon="14.7910901"><ele>8.857142857142858</ele><time>2026-04-09T17:18:54.089Z</time></trkpt><trkpt lat="40.6646699" lon="14.7912"><ele>9.142857142857142</ele><time>2026-04-09T17:18:56.089Z</time></trkpt><trkpt lat="40.6646372" lon="14.7912731"><ele>9.428571428571429</ele><time>2026-04-09T17:18:58.089Z</time></trkpt><trkpt lat="40.6645966" lon="14.7913484"><ele>9.714285714285714</ele><time>2026-04-09T17:19:01.089Z</time></trkpt><trkpt lat="40.6645486" lon="14.7914044"><ele>10.0</ele><time>2026-04-09T17:19:04.132Z</time></trkpt><trkpt lat="40.6645051" lon="14.7914733"><ele>10.0</ele><time>2026-04-09T17:19:05.127Z</time></trkpt><trkpt lat="40.664447" lon="14.7916202"><ele>10.0</ele><time>2026-04-09T17:19:07.089Z</time></trkpt><trkpt lat="40.6643981" lon="14.7916999"><ele>10.0</ele><time>2026-04-09T17:19:08.089Z</time></trkpt><trkpt lat="40.6643424" lon="14.7917888"><ele>10.0</ele><time>2026-04-09T17:19:09.089Z</time></trkpt><trkpt lat="40.6642921" lon="14.7918741"><ele>10.0</ele><time>2026-04-09T17:19:10.089Z</time></trkpt><trkpt lat="40.6642484" lon="14.7919557"><ele>10.0</ele><time>2026-04-09T17:19:11.089Z</time></trkpt><trkpt lat="40.6642046" lon="14.7920339"><ele>11.0</ele><time>2026-04-09T17:19:12.089Z</time></trkpt><trkpt lat="40.6641615" lon="14.7921023"><ele>12.0</ele><time>2026-04-09T17:19:13.089Z</time></trkpt><trkpt lat="40.6640846" lon="14.7922044"><ele>13.0</ele><time>2026-04-09T17:19:15.089Z</time></trkpt><trkpt lat="40.6640328" lon="14.7922794"><ele>14.0</ele><time>2026-04-09T17:19:17.089Z</time></trkpt><trkpt lat="40.6639948" lon="14.7923473"><ele>14.999999999999998</ele><time>2026-04-09T17:19:19.163Z</time></trkpt><trkpt lat="40.663945" lon="14.7924317"><ele>16.0</ele><time>2026-04-09T17:19:21.089Z</time></trkpt><trkpt lat="40.6638767" lon="14.792515"><ele>16.0</ele><time>2026-04-09T17:19:24.089Z</time></trkpt><trkpt lat="40.6637983" lon="14.7926183"><ele>16.0</ele><time>2026-04-09T17:19:26.089Z</time></trkpt><trkpt lat="40.66372" lon="14.7927417"><ele>16.0</ele><time>2026-04-09T17:19:28.089Z</time></trkpt><trkpt lat="40.6636567" lon="14.7928317"><ele>16.0</ele><time>2026-04-09T17:19:30.089Z</time></trkpt><trkpt lat="40.6635967" lon="14.7929083"><ele>16.0</ele><time>2026-04-09T17:19:32.089Z</time></trkpt><trkpt lat="40.6635517" lon="14.7929733"><ele>15.200000000000001</ele><time>2026-04-09T17:19:34.089Z</time></trkpt><trkpt lat="40.6635083" lon="14.7930533"><ele>14.400000000000002</ele><time>2026-04-09T17:19:36.089Z</time></trkpt><trkpt lat="40.663445" lon="14.79314"><ele>13.6</ele><time>2026-04-09T17:19:38.089Z</time></trkpt><trkpt lat="40.663375" lon="14.7932417"><ele>12.8</ele><time>2026-04-09T17:19:40.089Z</time></trkpt><trkpt lat="40.6633017" lon="14.7933533"><ele>12.0</ele><time>2026-04-09T17:19:42.089Z</time></trkpt><trkpt lat="40.6632367" lon="14.7934533"><ele>11.666666666666666</ele><time>2026-04-09T17:19:44.089Z</time></trkpt><trkpt lat="40.6631817" lon="14.79354"><ele>11.333333333333334</ele><time>2026-04-09T17:19:47.089Z</time></trkpt><trkpt lat="40.6631333" lon="14.79361"><ele>11.0</ele><time>2026-04-09T17:19:52.089Z</time></trkpt><trkpt lat="40.6630783" lon="14.7936683"><ele>10.666666666666668</ele><time>2026-04-09T17:19:56.089Z</time></trkpt><trkpt lat="40.6630217" lon="14.7937333"><ele>10.333333333333334</ele><time>2026-04-09T17:20:03.089Z</time></trkpt><trkpt lat="40.6629583" lon="14.79381"><ele>10.0</ele><time>2026-04-09T17:20:05.089Z</time></trkpt><trkpt lat="40.6628933" lon="14.7939017"><ele>10.0</ele><time>2026-04-09T17:20:07.089Z</time></trkpt><trkpt lat="40.6628267" lon="14.794005"><ele>10.0</ele><time>2026-04-09T17:20:09.089Z</time></trkpt><trkpt lat="40.66276" lon="14.7941083"><ele>10.0</ele><time>2026-04-09T17:20:11.089Z</time></trkpt><trkpt lat="40.6627133" lon="14.7941817"><ele>10.0</ele><time>2026-04-09T17:20:13.089Z</time></trkpt><trkpt lat="40.6626833" lon="14.7942633"><ele>10.0</ele><time>2026-04-09T17:20:19.089Z</time></trkpt><trkpt lat="40.66264" lon="14.7943417"><ele>10.0</ele><time>2026-04-09T17:20:21.089Z</time></trkpt><trkpt lat="40.66259" lon="14.7944317"><ele>10.714285714285714</ele><time>2026-04-09T17:20:24.089Z</time></trkpt><trkpt lat="40.662545" lon="14.794505"><ele>11.428571428571429</ele><time>2026-04-09T17:20:27.089Z</time></trkpt><trkpt lat="40.6624983" lon="14.7945717"><ele>12.142857142857142</ele><time>2026-04-09T17:20:30.089Z</time></trkpt><trkpt lat="40.6624367" lon="14.7946583"><ele>12.857142857142858</ele><time>2026-04-09T17:20:33.089Z</time></trkpt><trkpt lat="40.6623817" lon="14.7947167"><ele>13.571428571428571</ele><time>2026-04-09T17:20:36.089Z</time></trkpt><trkpt lat="40.6623367" lon="14.7947883"><ele>14.285714285714286</ele><time>2026-04-09T17:20:39.089Z</time></trkpt><trkpt lat="40.6623" lon="14.7948617"><ele>15.0</ele><time>2026-04-09T17:20:42.089Z</time></trkpt><trkpt lat="40.66223" lon="14.7949483"><ele>15.0</ele><time>2026-04-09T17:20:45.089Z</time></trkpt><trkpt lat="40.6621783" lon="14.795015"><ele>15.0</ele><time>2026-04-09T17:20:47.089Z</time></trkpt><trkpt lat="40.6621317" lon="14.7950933"><ele>15.0</ele><time>2026-04-09T17:20:49.089Z</time></trkpt><trkpt lat="40.6620817" lon="14.7951917"><ele>15.0</ele><time>2026-04-09T17:20:51.089Z</time></trkpt><trkpt lat="40.6620367" lon="14.7952733"><ele>15.0</ele><time>2026-04-09T17:20:53.089Z</time></trkpt><trkpt lat="40.661975" lon="14.795365"><ele>15.0</ele><time>2026-04-09T17:20:55.089Z</time></trkpt><trkpt lat="40.6618933" lon="14.79548"><ele>13.6</ele><time>2026-04-09T17:20:57.089Z</time></trkpt><trkpt lat="40.6618133" lon="14.7955967"><ele>12.2</ele><time>2026-04-09T17:20:59.089Z</time></trkpt><trkpt lat="40.6617717" lon="14.795675"><ele>10.8</ele><time>2026-04-09T17:21:00.089Z</time></trkpt><trkpt lat="40.6617283" lon="14.79574"><ele>9.4</ele><time>2026-04-09T17:21:01.089Z</time></trkpt><trkpt lat="40.66163" lon="14.7958333"><ele>8.0</ele><time>2026-04-09T17:21:03.089Z</time></trkpt><trkpt lat="40.6615617" lon="14.7959367"><ele>9.0</ele><time>2026-04-09T17:21:05.089Z</time></trkpt><trkpt lat="40.6614983" lon="14.796035"><ele>10.0</ele><time>2026-04-09T17:21:07.089Z</time></trkpt><trkpt lat="40.66144" lon="14.7961433"><ele>11.0</ele><time>2026-04-09T17:21:09.089Z</time></trkpt><trkpt lat="40.6613817" lon="14.7962567"><ele>12.0</ele><time>2026-04-09T17:21:11.089Z</time></trkpt><trkpt lat="40.6613467" lon="14.7963417"><ele>13.000000000000002</ele><time>2026-04-09T17:21:14.089Z</time></trkpt><trkpt lat="40.6613083" lon="14.7964117"><ele>14.0</ele><time>2026-04-09T17:21:16.089Z</time></trkpt><trkpt lat="40.661225" lon="14.7964883"><ele>14.000000000000002</ele><time>2026-04-09T17:21:18.089Z</time></trkpt><trkpt lat="40.66116" lon="14.7965833"><ele>14.0</ele><time>2026-04-09T17:21:20.089Z</time></trkpt><trkpt lat="40.66112" lon="14.7966633"><ele>14.0</ele><time>2026-04-09T17:21:22.089Z</time></trkpt><trkpt lat="40.6610817" lon="14.7967567"><ele>14.0</ele><time>2026-04-09T17:21:26.089Z</time></trkpt><trkpt lat="40.66102" lon="14.7968517"><ele>14.000000000000002</ele><time>2026-04-09T17:21:28.089Z</time></trkpt><trkpt lat="40.6609817" lon="14.7969233"><ele>14.0</ele><time>2026-04-09T17:21:29.089Z</time></trkpt><trkpt lat="40.66094" lon="14.7969983"><ele>14.000000000000002</ele><time>2026-04-09T17:21:30.089Z</time></trkpt><trkpt lat="40.6608967" lon="14.79707"><ele>14.0</ele><time>2026-04-09T17:21:31.089Z</time></trkpt><trkpt lat="40.66085" lon="14.797135"><ele>14.0</ele><time>2026-04-09T17:21:32.089Z</time></trkpt><trkpt lat="40.6608117" lon="14.7972067"><ele>14.0</ele><time>2026-04-09T17:21:33.089Z</time></trkpt><trkpt lat="40.660735" lon="14.7973333"><ele>14.000000000000002</ele><time>2026-04-09T17:21:35.089Z</time></trkpt><trkpt lat="40.6606883" lon="14.7973917"><ele>14.0</ele><time>2026-04-09T17:21:36.089Z</time></trkpt><trkpt lat="40.6606033" lon="14.7975083"><ele>14.0</ele><time>2026-04-09T17:21:38.089Z</time></trkpt><trkpt lat="40.6605217" lon="14.7976117"><ele>13.999999999999998</ele><time>2026-04-09T17:21:40.089Z</time></trkpt><trkpt lat="40.6604467" lon="14.797735"><ele>13.999999999999998</ele><time>2026-04-09T17:21:42.089Z</time></trkpt><trkpt lat="40.6604017" lon="14.7978033"><ele>14.0</ele><time>2026-04-09T17:21:43.089Z</time></trkpt><trkpt lat="40.6603433" lon="14.7978667"><ele>14.0</ele><time>2026-04-09T17:21:44.089Z</time></trkpt><trkpt lat="40.6602783" lon="14.79793"><ele>13.714285714285714</ele><time>2026-04-09T17:21:45.089Z</time></trkpt><trkpt lat="40.660215" lon="14.7979867"><ele>13.428571428571429</ele><time>2026-04-09T17:21:46.089Z</time></trkpt><trkpt lat="40.660165" lon="14.7980683"><ele>13.142857142857142</ele><time>2026-04-09T17:21:47.089Z</time></trkpt><trkpt lat="40.6601183" lon="14.79815"><ele>12.857142857142858</ele><time>2026-04-09T17:21:48.089Z</time></trkpt><trkpt lat="40.6600683" lon="14.79821"><ele>12.571428571428571</ele><time>2026-04-09T17:21:49.089Z</time></trkpt><trkpt lat="40.6600333" lon="14.798295"><ele>12.285714285714285</ele><time>2026-04-09T17:21:50.089Z</time></trkpt><trkpt lat="40.66" lon="14.7983683"><ele>12.0</ele><time>2026-04-09T17:21:51.089Z</time></trkpt><trkpt lat="40.6599183" lon="14.7984717"><ele>11.75</ele><time>2026-04-09T17:21:53.089Z</time></trkpt><trkpt lat="40.6598433" lon="14.7985867"><ele>11.5</ele><time>2026-04-09T17:21:55.089Z</time></trkpt><trkpt lat="40.6597667" lon="14.798715"><ele>11.25</ele><time>2026-04-09T17:21:57.089Z</time></trkpt><trkpt lat="40.6596883" lon="14.79883"><ele>11.0</ele><time>2026-04-09T17:21:59.089Z</time></trkpt><trkpt lat="40.6596133" lon="14.7989383"><ele>11.0</ele><time>2026-04-09T17:22:01.089Z</time></trkpt><trkpt lat="40.6595567" lon="14.79904"><ele>11.0</ele><time>2026-04-09T17:22:03.089Z</time></trkpt><trkpt lat="40.6595167" lon="14.799115"><ele>11.0</ele><time>2026-04-09T17:22:05.089Z</time></trkpt><trkpt lat="40.6594533" lon="14.7991783"><ele>11.0</ele><time>2026-04-09T17:22:08.089Z</time></trkpt><trkpt lat="40.6593817" lon="14.799265"><ele>11.0</ele><time>2026-04-09T17:22:10.089Z</time></trkpt><trkpt lat="40.659335" lon="14.7993317"><ele>11.0</ele><time>2026-04-09T17:22:11.089Z</time></trkpt><trkpt lat="40.6592833" lon="14.79941"><ele>10.5</ele><time>2026-04-09T17:22:12.089Z</time></trkpt><trkpt lat="40.6592333" lon="14.7994867"><ele>10.0</ele><time>2026-04-09T17:22:13.089Z</time></trkpt><trkpt lat="40.659185" lon="14.799585"><ele>9.5</ele><time>2026-04-09T17:22:14.089Z</time></trkpt><trkpt lat="40.6591317" lon="14.79967"><ele>9.0</ele><time>2026-04-09T17:22:15.089Z</time></trkpt><trkpt lat="40.6590717" lon="14.7997517"><ele>8.5</ele><time>2026-04-09T17:22:16.089Z</time></trkpt><trkpt lat="40.6590083" lon="14.7998433"><ele>8.0</ele><time>2026-04-09T17:22:17.089Z</time></trkpt><trkpt lat="40.6589467" lon="14.79994"><ele>8.0</ele><time>2026-04-09T17:22:18.089Z</time></trkpt><trkpt lat="40.6588783" lon="14.800045"><ele>8.0</ele><time>2026-04-09T17:22:19.089Z</time></trkpt><trkpt lat="40.65881" lon="14.8001633"><ele>8.0</ele><time>2026-04-09T17:22:20.089Z</time></trkpt><trkpt lat="40.6587333" lon="14.8002917"><ele>8.0</ele><time>2026-04-09T17:22:21.089Z</time></trkpt><trkpt lat="40.6586533" lon="14.8004167"><ele>7.6000000000000005</ele><time>2026-04-09T17:22:22.089Z</time></trkpt><trkpt lat="40.6585833" lon="14.80053"><ele>7.200000000000001</ele><time>2026-04-09T17:22:23.089Z</time></trkpt><trkpt lat="40.65852" lon="14.800645"><ele>6.8</ele><time>2026-04-09T17:22:24.089Z</time></trkpt><trkpt lat="40.65846" lon="14.8007383"><ele>6.4</ele><time>2026-04-09T17:22:25.089Z</time></trkpt><trkpt lat="40.6583917" lon="14.800835"><ele>6.0</ele><time>2026-04-09T17:22:26.089Z</time></trkpt><trkpt lat="40.6583167" lon="14.8009117"><ele>7.199999999999999</ele><time>2026-04-09T17:22:27.089Z</time></trkpt><trkpt lat="40.6582483" lon="14.80101"><ele>8.399999999999999</ele><time>2026-04-09T17:22:28.089Z</time></trkpt><trkpt lat="40.658185" lon="14.8011067"><ele>9.6</ele><time>2026-04-09T17:22:29.089Z</time></trkpt><trkpt lat="40.65813" lon="14.8012133"><ele>10.799999999999999</ele><time>2026-04-09T17:22:30.089Z</time></trkpt><trkpt lat="40.6580683" lon="14.8013117"><ele>12.0</ele><time>2026-04-09T17:22:31.089Z</time></trkpt><trkpt lat="40.6579967" lon="14.8013867"><ele>12.0</ele><time>2026-04-09T17:22:32.089Z</time></trkpt><trkpt lat="40.65794" lon="14.8014683"><ele>12.0</ele><time>2026-04-09T17:22:33.089Z</time></trkpt><trkpt lat="40.6578867" lon="14.8015567"><ele>12.0</ele><time>2026-04-09T17:22:34.089Z</time></trkpt><trkpt lat="40.657835" lon="14.8016533"><ele>12.0</ele><time>2026-04-09T17:22:35.089Z</time></trkpt><trkpt lat="40.657785" lon="14.80174"><ele>12.0</ele><time>2026-04-09T17:22:36.089Z</time></trkpt><trkpt lat="40.65773" lon="14.8017983"><ele>12.0</ele><time>2026-04-09T17:22:37.089Z</time></trkpt><trkpt lat="40.65769" lon="14.8018683"><ele>11.833333333333334</ele><time>2026-04-09T17:22:38.089Z</time></trkpt><trkpt lat="40.6576217" lon="14.8019983"><ele>11.666666666666666</ele><time>2026-04-09T17:22:40.089Z</time></trkpt><trkpt lat="40.6575817" lon="14.8020633"><ele>11.5</ele><time>2026-04-09T17:22:41.089Z</time></trkpt><trkpt lat="40.6575417" lon="14.80213"><ele>11.333333333333332</ele><time>2026-04-09T17:22:42.089Z</time></trkpt><trkpt lat="40.6574417" lon="14.802235"><ele>11.166666666666666</ele><time>2026-04-09T17:22:44.089Z</time></trkpt><trkpt lat="40.6573783" lon="14.8022667"><ele>11.0</ele><time>2026-04-09T17:22:45.089Z</time></trkpt><trkpt lat="40.6573067" lon="14.8022967"><ele>11.0</ele><time>2026-04-09T17:22:46.089Z</time></trkpt><trkpt lat="40.65722" lon="14.8023267"><ele>11.0</ele><time>2026-04-09T17:22:47.089Z</time></trkpt><trkpt lat="40.65715" lon="14.8023783"><ele>11.0</ele><time>2026-04-09T17:22:48.089Z</time></trkpt><trkpt lat="40.6570833" lon="14.8024417"><ele>11.0</ele><time>2026-04-09T17:22:49.089Z</time></trkpt><trkpt lat="40.6570133" lon="14.802525"><ele>11.0</ele><time>2026-04-09T17:22:50.089Z</time></trkpt><trkpt lat="40.6569483" lon="14.802625"><ele>11.0</ele><time>2026-04-09T17:22:51.089Z</time></trkpt><trkpt lat="40.656885" lon="14.8027367"><ele>11.600000000000001</ele><time>2026-04-09T17:22:52.089Z</time></trkpt><trkpt lat="40.6568133" lon="14.8028483"><ele>12.2</ele><time>2026-04-09T17:22:53.089Z</time></trkpt><trkpt lat="40.6567383" lon="14.80296"><ele>12.799999999999999</ele><time>2026-04-09T17:22:54.089Z</time></trkpt><trkpt lat="40.65667" lon="14.8030617"><ele>13.399999999999999</ele><time>2026-04-09T17:22:55.089Z</time></trkpt><trkpt lat="40.6566" lon="14.8031683"><ele>14.0</ele><time>2026-04-09T17:22:56.089Z</time></trkpt><trkpt lat="40.656525" lon="14.8032817"><ele>14.0</ele><time>2026-04-09T17:22:57.089Z</time></trkpt><trkpt lat="40.6564517" lon="14.8033983"><ele>13.999999999999998</ele><time>2026-04-09T17:22:58.089Z</time></trkpt><trkpt lat="40.65638" lon="14.80352"><ele>13.999999999999998</ele><time>2026-04-09T17:22:59.089Z</time></trkpt><trkpt lat="40.6563083" lon="14.8036317"><ele>14.0</ele><time>2026-04-09T17:23:00.089Z</time></trkpt><trkpt lat="40.656245" lon="14.80374"><ele>14.0</ele><time>2026-04-09T17:23:01.089Z</time></trkpt><trkpt lat="40.6561783" lon="14.8038417"><ele>13.6</ele><time>2026-04-09T17:23:02.089Z</time></trkpt><trkpt lat="40.65611" lon="14.803945"><ele>13.2</ele><time>2026-04-09T17:23:03.089Z</time></trkpt><trkpt lat="40.6560317" lon="14.80404"><ele>12.799999999999999</ele><time>2026-04-09T17:23:04.089Z</time></trkpt><trkpt lat="40.6559533" lon="14.80415"><ele>12.399999999999999</ele><time>2026-04-09T17:23:05.089Z</time></trkpt><trkpt lat="40.6558817" lon="14.80427"><ele>12.0</ele><time>2026-04-09T17:23:06.089Z</time></trkpt><trkpt lat="40.6558133" lon="14.8043783"><ele>12.8</ele><time>2026-04-09T17:23:07.089Z</time></trkpt><trkpt lat="40.6557467" lon="14.8044783"><ele>13.6</ele><time>2026-04-09T17:23:08.089Z</time></trkpt><trkpt lat="40.655685" lon="14.8045767"><ele>14.400000000000002</ele><time>2026-04-09T17:23:09.089Z</time></trkpt><trkpt lat="40.655625" lon="14.8046683"><ele>15.200000000000001</ele><time>2026-04-09T17:23:10.089Z</time></trkpt><trkpt lat="40.6555583" lon="14.804765"><ele>16.0</ele><time>2026-04-09T17:23:11.089Z</time></trkpt><trkpt lat="40.6554933" lon="14.8048683"><ele>16.0</ele><time>2026-04-09T17:23:12.089Z</time></trkpt><trkpt lat="40.6554267" lon="14.8049767"><ele>16.0</ele><time>2026-04-09T17:23:13.089Z</time></trkpt><trkpt lat="40.6553583" lon="14.805085"><ele>16.0</ele><time>2026-04-09T17:23:14.089Z</time></trkpt><trkpt lat="40.6552783" lon="14.8052083"><ele>16.0</ele><time>2026-04-09T17:23:15.089Z</time></trkpt><trkpt lat="40.655185" lon="14.8053417"><ele>15.0</ele><time>2026-04-09T17:23:16.089Z</time></trkpt><trkpt lat="40.6551" lon="14.8054833"><ele>14.0</ele><time>2026-04-09T17:23:17.089Z</time></trkpt><trkpt lat="40.6550167" lon="14.805605"><ele>13.0</ele><time>2026-04-09T17:23:18.089Z</time></trkpt><trkpt lat="40.6549333" lon="14.8057317"><ele>12.0</ele><time>2026-04-09T17:23:19.089Z</time></trkpt><trkpt lat="40.6548583" lon="14.80585"><ele>12.0</ele><time>2026-04-09T17:23:20.089Z</time></trkpt><trkpt lat="40.6547833" lon="14.8059583"><ele>12.0</ele><time>2026-04-09T17:23:21.089Z</time></trkpt><trkpt lat="40.6547067" lon="14.806065"><ele>12.0</ele><time>2026-04-09T17:23:22.089Z</time></trkpt><trkpt lat="40.6546333" lon="14.80618"><ele>12.0</ele><time>2026-04-09T17:23:23.089Z</time></trkpt><trkpt lat="40.6545633" lon="14.806285"><ele>12.0</ele><time>2026-04-09T17:23:24.089Z</time></trkpt><trkpt lat="40.65448" lon="14.8064017"><ele>10.799999999999999</ele><time>2026-04-09T17:23:25.089Z</time></trkpt><trkpt lat="40.6543967" lon="14.8065067"><ele>9.6</ele><time>2026-04-09T17:23:26.089Z</time></trkpt><trkpt lat="40.654305" lon="14.8065983"><ele>8.399999999999999</ele><time>2026-04-09T17:23:27.089Z</time></trkpt><trkpt lat="40.6542183" lon="14.8066767"><ele>7.199999999999999</ele><time>2026-04-09T17:23:28.089Z</time></trkpt><trkpt lat="40.65415" lon="14.8067483"><ele>6.0</ele><time>2026-04-09T17:23:29.089Z</time></trkpt><trkpt lat="40.6540883" lon="14.8068167"><ele>5.8</ele><time>2026-04-09T17:23:30.089Z</time></trkpt><trkpt lat="40.654035" lon="14.8068817"><ele>5.6</ele><time>2026-04-09T17:23:31.089Z</time></trkpt><trkpt lat="40.6539533" lon="14.8069933"><ele>5.4</ele><time>2026-04-09T17:23:33.089Z</time></trkpt><trkpt lat="40.6539283" lon="14.8071517"><ele>5.2</ele><time>2026-04-09T17:23:35.089Z</time></trkpt><trkpt lat="40.6539267" lon="14.8072533"><ele>5.0</ele><time>2026-04-09T17:23:36.089Z</time></trkpt><trkpt lat="40.6539183" lon="14.807365"><ele>5.0</ele><time>2026-04-09T17:23:37.089Z</time></trkpt><trkpt lat="40.6538867" lon="14.8074833"><ele>5.0</ele><time>2026-04-09T17:23:38.089Z</time></trkpt><trkpt lat="40.6538267" lon="14.807605"><ele>5.0</ele><time>2026-04-09T17:23:39.089Z</time></trkpt><trkpt lat="40.653745" lon="14.8077267"><ele>5.0</ele><time>2026-04-09T17:23:40.089Z</time></trkpt><trkpt lat="40.6536633" lon="14.8078517"><ele>5.0</ele><time>2026-04-09T17:23:41.089Z</time></trkpt><trkpt lat="40.6535717" lon="14.8079883"><ele>5.0</ele><time>2026-04-09T17:23:42.089Z</time></trkpt><trkpt lat="40.6534767" lon="14.80814"><ele>5.0</ele><time>2026-04-09T17:23:43.089Z</time></trkpt><trkpt lat="40.65338" lon="14.80831"><ele>5.0</ele><time>2026-04-09T17:23:44.089Z</time></trkpt><trkpt lat="40.6532767" lon="14.808495"><ele>5.333333333333334</ele><time>2026-04-09T17:23:45.089Z</time></trkpt><trkpt lat="40.65316" lon="14.8086767"><ele>5.666666666666667</ele><time>2026-04-09T17:23:46.089Z</time></trkpt><trkpt lat="40.653045" lon="14.8088517"><ele>6.0</ele><time>2026-04-09T17:23:47.089Z</time></trkpt><trkpt lat="40.652935" lon="14.8090417"><ele>6.0</ele><time>2026-04-09T17:23:48.089Z</time></trkpt><trkpt lat="40.652835" lon="14.8092267"><ele>6.0</ele><time>2026-04-09T17:23:49.089Z</time></trkpt><trkpt lat="40.6527467" lon="14.8094067"><ele>6.0</ele><time>2026-04-09T17:23:50.089Z</time></trkpt><trkpt lat="40.6526583" lon="14.8095817"><ele>6.0</ele><time>2026-04-09T17:23:51.089Z</time></trkpt><trkpt lat="40.65257" lon="14.8097533"><ele>6.0</ele><time>2026-04-09T17:23:52.089Z</time></trkpt><trkpt lat="40.6524933" lon="14.8099267"><ele>6.0</ele><time>2026-04-09T17:23:53.089Z</time></trkpt><trkpt lat="40.6524183" lon="14.8100883"><ele>6.75</ele><time>2026-04-09T17:23:54.089Z</time></trkpt><trkpt lat="40.6523367" lon="14.8102433"><ele>7.5</ele><time>2026-04-09T17:23:55.089Z</time></trkpt><trkpt lat="40.65225" lon="14.8103917"><ele>8.25</ele><time>2026-04-09T17:23:56.089Z</time></trkpt><trkpt lat="40.6521617" lon="14.810535"><ele>9.0</ele><time>2026-04-09T17:23:57.089Z</time></trkpt><trkpt lat="40.652085" lon="14.8106717"><ele>9.0</ele><time>2026-04-09T17:23:58.089Z</time></trkpt><trkpt lat="40.6520067" lon="14.8108033"><ele>9.0</ele><time>2026-04-09T17:23:59.089Z</time></trkpt><trkpt lat="40.651925" lon="14.8109317"><ele>9.0</ele><time>2026-04-09T17:24:00.089Z</time></trkpt><trkpt lat="40.6518383" lon="14.81105"><ele>9.0</ele><time>2026-04-09T17:24:01.089Z</time></trkpt><trkpt lat="40.65174" lon="14.8111533"><ele>9.0</ele><time>2026-04-09T17:24:02.089Z</time></trkpt><trkpt lat="40.6516417" lon="14.8112683"><ele>9.0</ele><time>2026-04-09T17:24:03.089Z</time></trkpt><trkpt lat="40.651535" lon="14.8113733"><ele>9.0</ele><time>2026-04-09T17:24:04.089Z</time></trkpt><trkpt lat="40.6514217" lon="14.811475"><ele>9.0</ele><time>2026-04-09T17:24:05.089Z</time></trkpt><trkpt lat="40.6512967" lon="14.8115933"><ele>9.0</ele><time>2026-04-09T17:24:06.089Z</time></trkpt><trkpt lat="40.6511683" lon="14.81171"><ele>9.0</ele><time>2026-04-09T17:24:07.089Z</time></trkpt><trkpt lat="40.6510367" lon="14.8118267"><ele>9.0</ele><time>2026-04-09T17:24:08.089Z</time></trkpt><trkpt lat="40.6509033" lon="14.8119417"><ele>8.666666666666666</ele><time>2026-04-09T17:24:09.089Z</time></trkpt><trkpt lat="40.6507733" lon="14.8120617"><ele>8.333333333333332</ele><time>2026-04-09T17:24:10.089Z</time></trkpt><trkpt lat="40.6506433" lon="14.81218"><ele>8.0</ele><time>2026-04-09T17:24:11.089Z</time></trkpt><trkpt lat="40.6505083" lon="14.8123067"><ele>8.0</ele><time>2026-04-09T17:24:12.089Z</time></trkpt><trkpt lat="40.6503783" lon="14.81243"><ele>8.0</ele><time>2026-04-09T17:24:13.089Z</time></trkpt><trkpt lat="40.6502533" lon="14.81255"><ele>8.0</ele><time>2026-04-09T17:24:14.089Z</time></trkpt><trkpt lat="40.650135" lon="14.8126583"><ele>7.5</ele><time>2026-04-09T17:24:15.089Z</time></trkpt><trkpt lat="40.6500317" lon="14.8127617"><ele>7.0</ele><time>2026-04-09T17:24:16.089Z</time></trkpt><trkpt lat="40.64993" lon="14.81287"><ele>6.5</ele><time>2026-04-09T17:24:17.089Z</time></trkpt><trkpt lat="40.6498333" lon="14.8129733"><ele>6.0</ele><time>2026-04-09T17:24:18.089Z</time></trkpt><trkpt lat="40.6497417" lon="14.8130683"><ele>6.0</ele><time>2026-04-09T17:24:19.089Z</time></trkpt><trkpt lat="40.6496483" lon="14.8131467"><ele>6.0</ele><time>2026-04-09T17:24:20.089Z</time></trkpt><trkpt lat="40.64956" lon="14.81322"><ele>6.0</ele><time>2026-04-09T17:24:21.089Z</time></trkpt><trkpt lat="40.64947" lon="14.8132817"><ele>6.0</ele><time>2026-04-09T17:24:22.089Z</time></trkpt><trkpt lat="40.649375" lon="14.8133567"><ele>6.0</ele><time>2026-04-09T17:24:23.089Z</time></trkpt><trkpt lat="40.6492733" lon="14.8134417"><ele>6.0</ele><time>2026-04-09T17:24:24.089Z</time></trkpt><trkpt lat="40.649185" lon="14.8135183"><ele>6.0</ele><time>2026-04-09T17:24:25.089Z</time></trkpt><trkpt lat="40.6491133" lon="14.8136"><ele>6.0</ele><time>2026-04-09T17:24:26.089Z</time></trkpt><trkpt lat="40.64906" lon="14.813695"><ele>6.0</ele><time>2026-04-09T17:24:27.089Z</time></trkpt><trkpt lat="40.649015" lon="14.8137917"><ele>6.0</ele><time>2026-04-09T17:24:28.089Z</time></trkpt><trkpt lat="40.6489783" lon="14.8138883"><ele>6.0</ele><time>2026-04-09T17:24:29.089Z</time></trkpt><trkpt lat="40.648945" lon="14.8139867"><ele>6.0</ele><time>2026-04-09T17:24:30.089Z</time></trkpt><trkpt lat="40.6489117" lon="14.8140867"><ele>6.0</ele><time>2026-04-09T17:24:31.089Z</time></trkpt><trkpt lat="40.64887" lon="14.8141917"><ele>6.0</ele><time>2026-04-09T17:24:32.089Z</time></trkpt><trkpt lat="40.648805" lon="14.8142933"><ele>6.0</ele><time>2026-04-09T17:24:33.089Z</time></trkpt><trkpt lat="40.6487317" lon="14.8144017"><ele>6.0</ele><time>2026-04-09T17:24:34.089Z</time></trkpt><trkpt lat="40.6486467" lon="14.8145167"><ele>6.0</ele><time>2026-04-09T17:24:35.089Z</time></trkpt><trkpt lat="40.64856" lon="14.8146467"><ele>6.0</ele><time>2026-04-09T17:24:36.089Z</time></trkpt><trkpt lat="40.64846" lon="14.8147933"><ele>6.0</ele><time>2026-04-09T17:24:37.089Z</time></trkpt><trkpt lat="40.648365" lon="14.814935"><ele>6.0</ele><time>2026-04-09T17:24:38.089Z</time></trkpt><trkpt lat="40.6482633" lon="14.8150733"><ele>6.0</ele><time>2026-04-09T17:24:39.089Z</time></trkpt><trkpt lat="40.6481667" lon="14.815215"><ele>6.0</ele><time>2026-04-09T17:24:40.089Z</time></trkpt><trkpt lat="40.6480567" lon="14.8153633"><ele>6.0</ele><time>2026-04-09T17:24:41.089Z</time></trkpt><trkpt lat="40.6479467" lon="14.8155233"><ele>5.0</ele><time>2026-04-09T17:24:42.089Z</time></trkpt><trkpt lat="40.6478317" lon="14.815685"><ele>4.0</ele><time>2026-04-09T17:24:43.089Z</time></trkpt><trkpt lat="40.6477117" lon="14.815855"><ele>3.0</ele><time>2026-04-09T17:24:44.089Z</time></trkpt><trkpt lat="40.6476" lon="14.8160283"><ele>3.0</ele><time>2026-04-09T17:24:45.089Z</time></trkpt><trkpt lat="40.6474717" lon="14.8162067"><ele>3.0</ele><time>2026-04-09T17:24:46.089Z</time></trkpt><trkpt lat="40.6473467" lon="14.816375"><ele>3.0</ele><time>2026-04-09T17:24:47.089Z</time></trkpt><trkpt lat="40.6472183" lon="14.8165367"><ele>3.0</ele><time>2026-04-09T17:24:48.089Z</time></trkpt><trkpt lat="40.6470917" lon="14.8167017"><ele>3.0</ele><time>2026-04-09T17:24:49.089Z</time></trkpt><trkpt lat="40.646975" lon="14.816865"><ele>3.0</ele><time>2026-04-09T17:24:50.089Z</time></trkpt><trkpt lat="40.6468617" lon="14.81701"><ele>3.75</ele><time>2026-04-09T17:24:51.089Z</time></trkpt><trkpt lat="40.6467583" lon="14.81715"><ele>4.5</ele><time>2026-04-09T17:24:52.089Z</time></trkpt><trkpt lat="40.6466667" lon="14.8172733"><ele>5.25</ele><time>2026-04-09T17:24:53.089Z</time></trkpt><trkpt lat="40.6465733" lon="14.8174"><ele>6.0</ele><time>2026-04-09T17:24:54.089Z</time></trkpt><trkpt lat="40.6464817" lon="14.8175283"><ele>6.0</ele><time>2026-04-09T17:24:55.089Z</time></trkpt><trkpt lat="40.6463833" lon="14.8176467"><ele>6.0</ele><time>2026-04-09T17:24:56.089Z</time></trkpt><trkpt lat="40.64628" lon="14.8177833"><ele>6.0</ele><time>2026-04-09T17:24:57.089Z</time></trkpt><trkpt lat="40.64616" lon="14.81792"><ele>6.0</ele><time>2026-04-09T17:24:58.089Z</time></trkpt><trkpt lat="40.64604" lon="14.81807"><ele>6.0</ele><time>2026-04-09T17:24:59.089Z</time></trkpt><trkpt lat="40.6459067" lon="14.818225"><ele>6.0</ele><time>2026-04-09T17:25:00.089Z</time></trkpt><trkpt lat="40.645765" lon="14.818385"><ele>6.0</ele><time>2026-04-09T17:25:01.089Z</time></trkpt><trkpt lat="40.64562" lon="14.8185533"><ele>5.333333333333333</ele><time>2026-04-09T17:25:02.089Z</time></trkpt><trkpt lat="40.6454767" lon="14.8187267"><ele>4.666666666666666</ele><time>2026-04-09T17:25:03.089Z</time></trkpt><trkpt lat="40.645335" lon="14.81891"><ele>4.0</ele><time>2026-04-09T17:25:04.089Z</time></trkpt><trkpt lat="40.6451833" lon="14.8191017"><ele>4.0</ele><time>2026-04-09T17:25:05.089Z</time></trkpt><trkpt lat="40.6450433" lon="14.819295"><ele>4.0</ele><time>2026-04-09T17:25:06.089Z</time></trkpt><trkpt lat="40.644905" lon="14.8194833"><ele>4.0</ele><time>2026-04-09T17:25:07.089Z</time></trkpt><trkpt lat="40.6447767" lon="14.8196717"><ele>4.333333333333333</ele><time>2026-04-09T17:25:08.089Z</time></trkpt><trkpt lat="40.6446433" lon="14.8198517"><ele>4.666666666666667</ele><time>2026-04-09T17:25:09.089Z</time></trkpt><trkpt lat="40.64451" lon="14.820035"><ele>5.0</ele><time>2026-04-09T17:25:10.089Z</time></trkpt><trkpt lat="40.6443867" lon="14.8202067"><ele>5.0</ele><time>2026-04-09T17:25:11.089Z</time></trkpt><trkpt lat="40.64426" lon="14.82037"><ele>5.0</ele><time>2026-04-09T17:25:12.089Z</time></trkpt><trkpt lat="40.6441383" lon="14.82053"><ele>5.0</ele><time>2026-04-09T17:25:13.089Z</time></trkpt><trkpt lat="40.64401" lon="14.820695"><ele>5.0</ele><time>2026-04-09T17:25:14.089Z</time></trkpt><trkpt lat="40.643885" lon="14.820865"><ele>5.0</ele><time>2026-04-09T17:25:15.089Z</time></trkpt><trkpt lat="40.64375" lon="14.8210317"><ele>5.0</ele><time>2026-04-09T17:25:16.089Z</time></trkpt><trkpt lat="40.643615" lon="14.8211933"><ele>5.0</ele><time>2026-04-09T17:25:17.089Z</time></trkpt><trkpt lat="40.6434833" lon="14.8213667"><ele>5.0</ele><time>2026-04-09T17:25:18.089Z</time></trkpt><trkpt lat="40.6433483" lon="14.821535"><ele>5.0</ele><time>2026-04-09T17:25:19.089Z</time></trkpt><trkpt lat="40.6432117" lon="14.821695"><ele>5.333333333333334</ele><time>2026-04-09T17:25:20.089Z</time></trkpt><trkpt lat="40.64307" lon="14.82187"><ele>5.666666666666667</ele><time>2026-04-09T17:25:21.089Z</time></trkpt><trkpt lat="40.64293" lon="14.8220333"><ele>6.0</ele><time>2026-04-09T17:25:22.089Z</time></trkpt><trkpt lat="40.642805" lon="14.8222033"><ele>6.0</ele><time>2026-04-09T17:25:23.089Z</time></trkpt><trkpt lat="40.6426783" lon="14.82236"><ele>6.0</ele><time>2026-04-09T17:25:24.089Z</time></trkpt><trkpt lat="40.6425417" lon="14.8225"><ele>6.0</ele><time>2026-04-09T17:25:25.089Z</time></trkpt><trkpt lat="40.642425" lon="14.82265"><ele>6.0</ele><time>2026-04-09T17:25:26.089Z</time></trkpt><trkpt lat="40.6423033" lon="14.8228083"><ele>6.0</ele><time>2026-04-09T17:25:27.089Z</time></trkpt><trkpt lat="40.6421817" lon="14.822965"><ele>6.0</ele><time>2026-04-09T17:25:28.089Z</time></trkpt><trkpt lat="40.642065" lon="14.823105"><ele>6.0</ele><time>2026-04-09T17:25:29.089Z</time></trkpt><trkpt lat="40.6419433" lon="14.8232433"><ele>6.0</ele><time>2026-04-09T17:25:30.089Z</time></trkpt><trkpt lat="40.6418233" lon="14.8233717"><ele>6.0</ele><time>2026-04-09T17:25:31.089Z</time></trkpt><trkpt lat="40.6417017" lon="14.8234933"><ele>6.0</ele><time>2026-04-09T17:25:32.089Z</time></trkpt><trkpt lat="40.6415817" lon="14.823605"><ele>6.0</ele><time>2026-04-09T17:25:33.089Z</time></trkpt><trkpt lat="40.641455" lon="14.8237117"><ele>6.0</ele><time>2026-04-09T17:25:34.089Z</time></trkpt><trkpt lat="40.6413217" lon="14.8238317"><ele>6.0</ele><time>2026-04-09T17:25:35.089Z</time></trkpt><trkpt lat="40.6411767" lon="14.8239567"><ele>6.0</ele><time>2026-04-09T17:25:36.089Z</time></trkpt><trkpt lat="40.64103" lon="14.8240933"><ele>6.0</ele><time>2026-04-09T17:25:37.089Z</time></trkpt><trkpt lat="40.6408767" lon="14.82423"><ele>5.0</ele><time>2026-04-09T17:25:38.089Z</time></trkpt><trkpt lat="40.6407233" lon="14.8243717"><ele>4.0</ele><time>2026-04-09T17:25:39.089Z</time></trkpt><trkpt lat="40.6405617" lon="14.8245133"><ele>3.0</ele><time>2026-04-09T17:25:40.089Z</time></trkpt><trkpt lat="40.6404017" lon="14.8246583"><ele>3.333333333333333</ele><time>2026-04-09T17:25:41.089Z</time></trkpt><trkpt lat="40.640245" lon="14.824795"><ele>3.6666666666666665</ele><time>2026-04-09T17:25:42.089Z</time></trkpt><trkpt lat="40.6400983" lon="14.8249217"><ele>4.0</ele><time>2026-04-09T17:25:43.089Z</time></trkpt><trkpt lat="40.63995" lon="14.8250467"><ele>4.333333333333333</ele><time>2026-04-09T17:25:44.089Z</time></trkpt><trkpt lat="40.639805" lon="14.8251583"><ele>4.666666666666667</ele><time>2026-04-09T17:25:45.089Z</time></trkpt><trkpt lat="40.63967" lon="14.8252583"><ele>5.0</ele><time>2026-04-09T17:25:46.089Z</time></trkpt><trkpt lat="40.63954" lon="14.8253633"><ele>4.5</ele><time>2026-04-09T17:25:47.089Z</time></trkpt><trkpt lat="40.6394233" lon="14.825455"><ele>4.0</ele><time>2026-04-09T17:25:48.089Z</time></trkpt><trkpt lat="40.6393067" lon="14.8255467"><ele>3.5</ele><time>2026-04-09T17:25:49.089Z</time></trkpt><trkpt lat="40.6391983" lon="14.825625"><ele>3.0</ele><time>2026-04-09T17:25:50.089Z</time></trkpt><trkpt lat="40.639105" lon="14.8256983"><ele>3.0</ele><time>2026-04-09T17:25:51.089Z</time></trkpt><trkpt lat="40.63902" lon="14.8257667"><ele>3.0</ele><time>2026-04-09T17:25:52.089Z</time></trkpt><trkpt lat="40.638945" lon="14.8258267"><ele>3.0</ele><time>2026-04-09T17:25:53.089Z</time></trkpt><trkpt lat="40.6388817" lon="14.8258817"><ele>3.0</ele><time>2026-04-09T17:25:54.089Z</time></trkpt><trkpt lat="40.6387967" lon="14.8259533"><ele>3.0</ele><time>2026-04-09T17:25:56.089Z</time></trkpt><trkpt lat="40.6387167" lon="14.8259967"><ele>2.8</ele><time>2026-04-09T17:25:59.089Z</time></trkpt><trkpt lat="40.63861" lon="14.8260667"><ele>2.5999999999999996</ele><time>2026-04-09T17:26:01.089Z</time></trkpt><trkpt lat="40.63854" lon="14.8261133"><ele>2.4000000000000004</ele><time>2026-04-09T17:26:02.089Z</time></trkpt><trkpt lat="40.638455" lon="14.82618"><ele>2.2</ele><time>2026-04-09T17:26:03.089Z</time></trkpt><trkpt lat="40.63835" lon="14.8262583"><ele>2.0</ele><time>2026-04-09T17:26:04.089Z</time></trkpt><trkpt lat="40.63824" lon="14.8263417"><ele>2.0</ele><time>2026-04-09T17:26:05.089Z</time></trkpt><trkpt lat="40.6381267" lon="14.826435"><ele>2.0</ele><time>2026-04-09T17:26:06.089Z</time></trkpt><trkpt lat="40.638" lon="14.8265483"><ele>2.0</ele><time>2026-04-09T17:26:07.089Z</time></trkpt><trkpt lat="40.6378617" lon="14.8266733"><ele>1.6666666666666665</ele><time>2026-04-09T17:26:08.089Z</time></trkpt><trkpt lat="40.63772" lon="14.8267967"><ele>1.3333333333333333</ele><time>2026-04-09T17:26:09.089Z</time></trkpt><trkpt lat="40.6375767" lon="14.8269233"><ele>1.0</ele><time>2026-04-09T17:26:10.089Z</time></trkpt><trkpt lat="40.637425" lon="14.8270667"><ele>1.3333333333333333</ele><time>2026-04-09T17:26:11.089Z</time></trkpt><trkpt lat="40.63727" lon="14.8272133"><ele>1.6666666666666665</ele><time>2026-04-09T17:26:12.089Z</time></trkpt><trkpt lat="40.6371167" lon="14.8273633"><ele>2.0</ele><time>2026-04-09T17:26:13.089Z</time></trkpt><trkpt lat="40.6369583" lon="14.82752"><ele>1.6666666666666665</ele><time>2026-04-09T17:26:14.089Z</time></trkpt><trkpt lat="40.6368033" lon="14.827675"><ele>1.3333333333333333</ele><time>2026-04-09T17:26:15.089Z</time></trkpt><trkpt lat="40.63665" lon="14.8278333"><ele>1.0</ele><time>2026-04-09T17:26:16.089Z</time></trkpt><trkpt lat="40.6364967" lon="14.827995"><ele>1.0</ele><time>2026-04-09T17:26:17.089Z</time></trkpt><trkpt lat="40.6363467" lon="14.8281617"><ele>1.0</ele><time>2026-04-09T17:26:18.089Z</time></trkpt><trkpt lat="40.636195" lon="14.8283317"><ele>1.0</ele><time>2026-04-09T17:26:19.089Z</time></trkpt><trkpt lat="40.6360383" lon="14.82851"><ele>2.3333333333333335</ele><time>2026-04-09T17:26:20.089Z</time></trkpt><trkpt lat="40.6358817" lon="14.8286917"><ele>3.666666666666667</ele><time>2026-04-09T17:26:21.089Z</time></trkpt><trkpt lat="40.6357283" lon="14.8288783"><ele>5.0</ele><time>2026-04-09T17:26:22.089Z</time></trkpt><trkpt lat="40.6355783" lon="14.8290633"><ele>5.0</ele><time>2026-04-09T17:26:23.089Z</time></trkpt><trkpt lat="40.6354317" lon="14.82924"><ele>5.0</ele><time>2026-04-09T17:26:24.089Z</time></trkpt><trkpt lat="40.6352867" lon="14.8294167"><ele>5.0</ele><time>2026-04-09T17:26:25.089Z</time></trkpt><trkpt lat="40.6351467" lon="14.8295883"><ele>5.0</ele><time>2026-04-09T17:26:26.089Z</time></trkpt><trkpt lat="40.6350017" lon="14.8297583"><ele>5.0</ele><time>2026-04-09T17:26:27.089Z</time></trkpt><trkpt lat="40.6348567" lon="14.8299233"><ele>5.0</ele><time>2026-04-09T17:26:28.089Z</time></trkpt><trkpt lat="40.6347083" lon="14.8301033"><ele>5.0</ele><time>2026-04-09T17:26:29.089Z</time></trkpt><trkpt lat="40.6345567" lon="14.8302833"><ele>5.0</ele><time>2026-04-09T17:26:30.089Z</time></trkpt><trkpt lat="40.634415" lon="14.8304617"><ele>5.0</ele><time>2026-04-09T17:26:31.089Z</time></trkpt><trkpt lat="40.6342633" lon="14.8306383"><ele>5.0</ele><time>2026-04-09T17:26:32.089Z</time></trkpt><trkpt lat="40.63411" lon="14.8308183"><ele>5.0</ele><time>2026-04-09T17:26:33.089Z</time></trkpt><trkpt lat="40.6339583" lon="14.8309967"><ele>5.0</ele><time>2026-04-09T17:26:34.089Z</time></trkpt><trkpt lat="40.633815" lon="14.8311617"><ele>4.333333333333334</ele><time>2026-04-09T17:26:35.089Z</time></trkpt><trkpt lat="40.6336717" lon="14.8313167"><ele>3.666666666666667</ele><time>2026-04-09T17:26:36.089Z</time></trkpt><trkpt lat="40.633525" lon="14.831475"><ele>3.0</ele><time>2026-04-09T17:26:37.089Z</time></trkpt><trkpt lat="40.633375" lon="14.8316367"><ele>2.6666666666666665</ele><time>2026-04-09T17:26:38.089Z</time></trkpt><trkpt lat="40.6332367" lon="14.8317883"><ele>2.333333333333333</ele><time>2026-04-09T17:26:39.089Z</time></trkpt><trkpt lat="40.633105" lon="14.8319333"><ele>2.0</ele><time>2026-04-09T17:26:40.089Z</time></trkpt><trkpt lat="40.6329883" lon="14.8320617"><ele>2.0</ele><time>2026-04-09T17:26:41.089Z</time></trkpt><trkpt lat="40.6328833" lon="14.8321783"><ele>2.0</ele><time>2026-04-09T17:26:42.089Z</time></trkpt><trkpt lat="40.63278" lon="14.8322867"><ele>2.0</ele><time>2026-04-09T17:26:43.089Z</time></trkpt><trkpt lat="40.6326867" lon="14.8323967"><ele>2.0</ele><time>2026-04-09T17:26:44.089Z</time></trkpt><trkpt lat="40.6326017" lon="14.8324983"><ele>2.2</ele><time>2026-04-09T17:26:45.089Z</time></trkpt><trkpt lat="40.6325233" lon="14.8326"><ele>2.4000000000000004</ele><time>2026-04-09T17:26:46.089Z</time></trkpt><trkpt lat="40.6324483" lon="14.8326967"><ele>2.5999999999999996</ele><time>2026-04-09T17:26:47.089Z</time></trkpt><trkpt lat="40.63238" lon="14.8327883"><ele>2.8</ele><time>2026-04-09T17:26:48.089Z</time></trkpt><trkpt lat="40.6323183" lon="14.83287"><ele>3.0</ele><time>2026-04-09T17:26:49.089Z</time></trkpt><trkpt lat="40.6322633" lon="14.8329467"><ele>3.0</ele><time>2026-04-09T17:26:50.089Z</time></trkpt><trkpt lat="40.6322233" lon="14.83302"><ele>3.0</ele><time>2026-04-09T17:26:51.089Z</time></trkpt><trkpt lat="40.63223" lon="14.8331683"><ele>3.0</ele><time>2026-04-09T17:26:53.089Z</time></trkpt><trkpt lat="40.6322717" lon="14.8332467"><ele>3.0</ele><time>2026-04-09T17:26:54.089Z</time></trkpt><trkpt lat="40.6323417" lon="14.8333283"><ele>3.0</ele><time>2026-04-09T17:26:55.089Z</time></trkpt><trkpt lat="40.632435" lon="14.8334233"><ele>3.25</ele><time>2026-04-09T17:26:56.089Z</time></trkpt><trkpt lat="40.6325433" lon="14.8335267"><ele>3.5</ele><time>2026-04-09T17:26:57.089Z</time></trkpt><trkpt lat="40.63265" lon="14.8336333"><ele>3.75</ele><time>2026-04-09T17:26:58.089Z</time></trkpt><trkpt lat="40.632755" lon="14.8337433"><ele>4.0</ele><time>2026-04-09T17:26:59.089Z</time></trkpt><trkpt lat="40.63287" lon="14.833865"><ele>4.25</ele><time>2026-04-09T17:27:00.089Z</time></trkpt><trkpt lat="40.6329817" lon="14.8339867"><ele>4.5</ele><time>2026-04-09T17:27:01.089Z</time></trkpt><trkpt lat="40.63309" lon="14.8340967"><ele>4.75</ele><time>2026-04-09T17:27:02.089Z</time></trkpt><trkpt lat="40.6331833" lon="14.834195"><ele>5.0</ele><time>2026-04-09T17:27:03.089Z</time></trkpt><trkpt lat="40.6332567" lon="14.8342817"><ele>5.166666666666667</ele><time>2026-04-09T17:27:04.089Z</time></trkpt><trkpt lat="40.6333133" lon="14.8343683"><ele>5.333333333333334</ele><time>2026-04-09T17:27:05.089Z</time></trkpt><trkpt lat="40.6333417" lon="14.8344617"><ele>5.5</ele><time>2026-04-09T17:27:06.089Z</time></trkpt><trkpt lat="40.6333533" lon="14.8345717"><ele>5.666666666666667</ele><time>2026-04-09T17:27:07.089Z</time></trkpt><trkpt lat="40.6333517" lon="14.8347"><ele>5.833333333333333</ele><time>2026-04-09T17:27:08.089Z</time></trkpt><trkpt lat="40.6333367" lon="14.8348333"><ele>6.0</ele><time>2026-04-09T17:27:09.089Z</time></trkpt><trkpt lat="40.6333117" lon="14.8349683"><ele>6.0</ele><time>2026-04-09T17:27:10.089Z</time></trkpt><trkpt lat="40.6332683" lon="14.835105"><ele>6.0</ele><time>2026-04-09T17:27:11.089Z</time></trkpt><trkpt lat="40.6331917" lon="14.8352467"><ele>6.0</ele><time>2026-04-09T17:27:12.089Z</time></trkpt><trkpt lat="40.633095" lon="14.8354067"><ele>6.0</ele><time>2026-04-09T17:27:13.089Z</time></trkpt><trkpt lat="40.6329933" lon="14.8355667"><ele>6.0</ele><time>2026-04-09T17:27:14.089Z</time></trkpt><trkpt lat="40.6328917" lon="14.835725"><ele>6.0</ele><time>2026-04-09T17:27:15.089Z</time></trkpt><trkpt lat="40.6327783" lon="14.8358917"><ele>6.0</ele><time>2026-04-09T17:27:16.089Z</time></trkpt><trkpt lat="40.6326583" lon="14.836075"><ele>5.666666666666667</ele><time>2026-04-09T17:27:17.089Z</time></trkpt><trkpt lat="40.6325367" lon="14.8362517"><ele>5.333333333333334</ele><time>2026-04-09T17:27:18.089Z</time></trkpt><trkpt lat="40.63243" lon="14.8364167"><ele>5.0</ele><time>2026-04-09T17:27:19.089Z</time></trkpt><trkpt lat="40.63233" lon="14.8365733"><ele>5.0</ele><time>2026-04-09T17:27:20.089Z</time></trkpt><trkpt lat="40.6322383" lon="14.8367233"><ele>5.0</ele><time>2026-04-09T17:27:21.089Z</time></trkpt><trkpt lat="40.6321383" lon="14.8368533"><ele>5.0</ele><time>2026-04-09T17:27:22.089Z</time></trkpt><trkpt lat="40.6320433" lon="14.836955"><ele>5.0</ele><time>2026-04-09T17:27:23.089Z</time></trkpt><trkpt lat="40.63195" lon="14.8370333"><ele>5.0</ele><time>2026-04-09T17:27:24.089Z</time></trkpt><trkpt lat="40.631855" lon="14.8370833"><ele>5.0</ele><time>2026-04-09T17:27:25.089Z</time></trkpt><trkpt lat="40.631765" lon="14.83711"><ele>5.0</ele><time>2026-04-09T17:27:26.089Z</time></trkpt><trkpt lat="40.631685" lon="14.8371333"><ele>5.0</ele><time>2026-04-09T17:27:27.089Z</time></trkpt><trkpt lat="40.63162" lon="14.83718"><ele>5.0</ele><time>2026-04-09T17:27:28.089Z</time></trkpt><trkpt lat="40.6315633" lon="14.8372383"><ele>5.0</ele><time>2026-04-09T17:27:29.089Z</time></trkpt><trkpt lat="40.6315267" lon="14.8373267"><ele>5.0</ele><time>2026-04-09T17:27:30.089Z</time></trkpt><trkpt lat="40.6315133" lon="14.83745"><ele>5.0</ele><time>2026-04-09T17:27:31.089Z</time></trkpt><trkpt lat="40.6315033" lon="14.8375917"><ele>5.0</ele><time>2026-04-09T17:27:32.089Z</time></trkpt><trkpt lat="40.63147" lon="14.8377433"><ele>5.0</ele><time>2026-04-09T17:27:33.089Z</time></trkpt><trkpt lat="40.631415" lon="14.8378933"><ele>5.0</ele><time>2026-04-09T17:27:34.089Z</time></trkpt><trkpt lat="40.6313317" lon="14.8380467"><ele>5.0</ele><time>2026-04-09T17:27:35.089Z</time></trkpt><trkpt lat="40.63123" lon="14.8382167"><ele>5.0</ele><time>2026-04-09T17:27:36.089Z</time></trkpt><trkpt lat="40.6311233" lon="14.8383817"><ele>5.0</ele><time>2026-04-09T17:27:37.089Z</time></trkpt><trkpt lat="40.6310083" lon="14.8385567"><ele>5.0</ele><time>2026-04-09T17:27:38.089Z</time></trkpt><trkpt lat="40.6308767" lon="14.83875"><ele>5.0</ele><time>2026-04-09T17:27:39.089Z</time></trkpt><trkpt lat="40.6307383" lon="14.8389667"><ele>5.0</ele><time>2026-04-09T17:27:40.089Z</time></trkpt><trkpt lat="40.6305933" lon="14.8392"><ele>5.0</ele><time>2026-04-09T17:27:41.089Z</time></trkpt><trkpt lat="40.63044" lon="14.839445"><ele>5.0</ele><time>2026-04-09T17:27:42.089Z</time></trkpt><trkpt lat="40.6302933" lon="14.8396667"><ele>4.666666666666667</ele><time>2026-04-09T17:27:43.089Z</time></trkpt><trkpt lat="40.6301517" lon="14.8398617"><ele>4.333333333333333</ele><time>2026-04-09T17:27:44.089Z</time></trkpt><trkpt lat="40.63001" lon="14.8400483"><ele>4.0</ele><time>2026-04-09T17:27:45.089Z</time></trkpt><trkpt lat="40.629885" lon="14.8402217"><ele>4.0</ele><time>2026-04-09T17:27:46.089Z</time></trkpt><trkpt lat="40.629785" lon="14.840385"><ele>4.0</ele><time>2026-04-09T17:27:47.089Z</time></trkpt><trkpt lat="40.6296817" lon="14.840525"><ele>4.0</ele><time>2026-04-09T17:27:48.089Z</time></trkpt><trkpt lat="40.6295817" lon="14.8406417"><ele>4.0</ele><time>2026-04-09T17:27:49.089Z</time></trkpt><trkpt lat="40.6294667" lon="14.8407267"><ele>4.25</ele><time>2026-04-09T17:27:50.089Z</time></trkpt><trkpt lat="40.62935" lon="14.8407867"><ele>4.5</ele><time>2026-04-09T17:27:51.089Z</time></trkpt><trkpt lat="40.6292233" lon="14.8408167"><ele>4.75</ele><time>2026-04-09T17:27:52.089Z</time></trkpt><trkpt lat="40.6290983" lon="14.84083"><ele>5.0</ele><time>2026-04-09T17:27:53.089Z</time></trkpt><trkpt lat="40.6289917" lon="14.8408217"><ele>5.0</ele><time>2026-04-09T17:27:54.089Z</time></trkpt><trkpt lat="40.62888" lon="14.840785"><ele>5.0</ele><time>2026-04-09T17:27:55.089Z</time></trkpt><trkpt lat="40.6287583" lon="14.8407117"><ele>5.0</ele><time>2026-04-09T17:27:56.089Z</time></trkpt><trkpt lat="40.6286267" lon="14.840615"><ele>5.0</ele><time>2026-04-09T17:27:57.089Z</time></trkpt><trkpt lat="40.6284883" lon="14.8404917"><ele>4.0</ele><time>2026-04-09T17:27:58.089Z</time></trkpt><trkpt lat="40.62834" lon="14.8403667"><ele>3.0</ele><time>2026-04-09T17:27:59.089Z</time></trkpt><trkpt lat="40.6281767" lon="14.8402533"><ele>2.0</ele><time>2026-04-09T17:28:00.089Z</time></trkpt><trkpt lat="40.6280217" lon="14.8401383"><ele>2.25</ele><time>2026-04-09T17:28:01.089Z</time></trkpt><trkpt lat="40.6278833" lon="14.84003"><ele>2.5</ele><time>2026-04-09T17:28:02.089Z</time></trkpt><trkpt lat="40.627775" lon="14.8399317"><ele>2.75</ele><time>2026-04-09T17:28:03.089Z</time></trkpt><trkpt lat="40.62767" lon="14.8398417"><ele>3.0</ele><time>2026-04-09T17:28:04.089Z</time></trkpt><trkpt lat="40.62758" lon="14.839755"><ele>2.6666666666666665</ele><time>2026-04-09T17:28:05.089Z</time></trkpt><trkpt lat="40.6274967" lon="14.839675"><ele>2.3333333333333335</ele><time>2026-04-09T17:28:06.09Z</time></trkpt><trkpt lat="40.6274217" lon="14.839615"><ele>2.0</ele><time>2026-04-09T17:28:07.089Z</time></trkpt><trkpt lat="40.62735" lon="14.839585"><ele>1.6666666666666665</ele><time>2026-04-09T17:28:08.089Z</time></trkpt><trkpt lat="40.627285" lon="14.8395817"><ele>1.3333333333333333</ele><time>2026-04-09T17:28:09.089Z</time></trkpt><trkpt lat="40.6272267" lon="14.8396133"><ele>1.0</ele><time>2026-04-09T17:28:10.089Z</time></trkpt><trkpt lat="40.6271433" lon="14.839755"><ele>1.0</ele><time>2026-04-09T17:28:12.089Z</time></trkpt><trkpt lat="40.62711" lon="14.8398783"><ele>1.0</ele><time>2026-04-09T17:28:13.089Z</time></trkpt><trkpt lat="40.6270833" lon="14.8400233"><ele>1.0</ele><time>2026-04-09T17:28:14.089Z</time></trkpt><trkpt lat="40.627055" lon="14.8401717"><ele>1.0</ele><time>2026-04-09T17:28:15.089Z</time></trkpt><trkpt lat="40.6270183" lon="14.8403133"><ele>1.0</ele><time>2026-04-09T17:28:16.089Z</time></trkpt><trkpt lat="40.6269533" lon="14.8404617"><ele>0.75</ele><time>2026-04-09T17:28:17.089Z</time></trkpt><trkpt lat="40.6268683" lon="14.8406"><ele>0.5</ele><time>2026-04-09T17:28:18.089Z</time></trkpt><trkpt lat="40.626775" lon="14.8407367"><ele>0.25</ele><time>2026-04-09T17:28:19.089Z</time></trkpt><trkpt lat="40.6266817" lon="14.8408717"><ele>0.0</ele><time>2026-04-09T17:28:20.089Z</time></trkpt><trkpt lat="40.626595" lon="14.8409767"><ele>0.5</ele><time>2026-04-09T17:28:21.089Z</time></trkpt><trkpt lat="40.6265" lon="14.841075"><ele>1.0</ele><time>2026-04-09T17:28:22.089Z</time></trkpt><trkpt lat="40.6263867" lon="14.8411683"><ele>1.5</ele><time>2026-04-09T17:28:23.089Z</time></trkpt><trkpt lat="40.6262683" lon="14.8412467"><ele>2.0</ele><time>2026-04-09T17:28:24.089Z</time></trkpt><trkpt lat="40.62614" lon="14.8413033"><ele>2.0</ele><time>2026-04-09T17:28:25.089Z</time></trkpt><trkpt lat="40.6259983" lon="14.84134"><ele>2.0</ele><time>2026-04-09T17:28:26.089Z</time></trkpt><trkpt lat="40.6258467" lon="14.8413633"><ele>2.0</ele><time>2026-04-09T17:28:27.089Z</time></trkpt><trkpt lat="40.6256933" lon="14.8413717"><ele>2.0</ele><time>2026-04-09T17:28:28.089Z</time></trkpt><trkpt lat="40.6255333" lon="14.8413717"><ele>2.0</ele><time>2026-04-09T17:28:29.089Z</time></trkpt><trkpt lat="40.6253717" lon="14.84137"><ele>2.0</ele><time>2026-04-09T17:28:30.089Z</time></trkpt><trkpt lat="40.6252017" lon="14.8413833"><ele>2.0</ele><time>2026-04-09T17:28:31.089Z</time></trkpt><trkpt lat="40.6250233" lon="14.8414067"><ele>2.0</ele><time>2026-04-09T17:28:32.089Z</time></trkpt><trkpt lat="40.6248583" lon="14.841435"><ele>2.0</ele><time>2026-04-09T17:28:33.089Z</time></trkpt><trkpt lat="40.624695" lon="14.8414767"><ele>2.0</ele><time>2026-04-09T17:28:34.089Z</time></trkpt><trkpt lat="40.6245367" lon="14.8415283"><ele>2.0</ele><time>2026-04-09T17:28:35.089Z</time></trkpt><trkpt lat="40.6243867" lon="14.8416017"><ele>2.0</ele><time>2026-04-09T17:28:36.089Z</time></trkpt><trkpt lat="40.6242433" lon="14.841695"><ele>2.333333333333333</ele><time>2026-04-09T17:28:37.089Z</time></trkpt><trkpt lat="40.6241017" lon="14.841805"><ele>2.6666666666666665</ele><time>2026-04-09T17:28:38.089Z</time></trkpt><trkpt lat="40.6239633" lon="14.8419333"><ele>3.0</ele><time>2026-04-09T17:28:39.089Z</time></trkpt><trkpt lat="40.62383" lon="14.8420767"><ele>3.0</ele><time>2026-04-09T17:28:40.089Z</time></trkpt><trkpt lat="40.6236933" lon="14.8422317"><ele>3.0</ele><time>2026-04-09T17:28:41.089Z</time></trkpt><trkpt lat="40.623555" lon="14.842395"><ele>3.0</ele><time>2026-04-09T17:28:42.089Z</time></trkpt><trkpt lat="40.6234117" lon="14.8425583"><ele>3.0</ele><time>2026-04-09T17:28:43.089Z</time></trkpt><trkpt lat="40.6232717" lon="14.842715"><ele>3.0</ele><time>2026-04-09T17:28:44.089Z</time></trkpt><trkpt lat="40.6231317" lon="14.8428733"><ele>3.0</ele><time>2026-04-09T17:28:45.089Z</time></trkpt><trkpt lat="40.6229817" lon="14.8430467"><ele>3.0</ele><time>2026-04-09T17:28:46.089Z</time></trkpt><trkpt lat="40.6228317" lon="14.8432183"><ele>3.0</ele><time>2026-04-09T17:28:47.089Z</time></trkpt><trkpt lat="40.6226883" lon="14.8433783"><ele>3.0</ele><time>2026-04-09T17:28:48.089Z</time></trkpt><trkpt lat="40.6225517" lon="14.843535"><ele>3.0</ele><time>2026-04-09T17:28:49.089Z</time></trkpt><trkpt lat="40.6224183" lon="14.8436833"><ele>3.0</ele><time>2026-04-09T17:28:50.089Z</time></trkpt><trkpt lat="40.6222833" lon="14.843835"><ele>3.0</ele><time>2026-04-09T17:28:51.089Z</time></trkpt><trkpt lat="40.6221533" lon="14.8439917"><ele>3.0</ele><time>2026-04-09T17:28:52.089Z</time></trkpt><trkpt lat="40.6220183" lon="14.8441483"><ele>3.0</ele><time>2026-04-09T17:28:53.089Z</time></trkpt><trkpt lat="40.6218917" lon="14.8442983"><ele>3.0</ele><time>2026-04-09T17:28:54.089Z</time></trkpt><trkpt lat="40.6217667" lon="14.8444367"><ele>3.333333333333333</ele><time>2026-04-09T17:28:55.089Z</time></trkpt><trkpt lat="40.6216433" lon="14.84458"><ele>3.6666666666666665</ele><time>2026-04-09T17:28:56.089Z</time></trkpt><trkpt lat="40.62152" lon="14.8447267"><ele>4.0</ele><time>2026-04-09T17:28:57.089Z</time></trkpt><trkpt lat="40.6214" lon="14.844865"><ele>4.0</ele><time>2026-04-09T17:28:58.089Z</time></trkpt><trkpt lat="40.621275" lon="14.8450083"><ele>4.0</ele><time>2026-04-09T17:28:59.089Z</time></trkpt><trkpt lat="40.6211567" lon="14.8451433"><ele>4.0</ele><time>2026-04-09T17:29:00.089Z</time></trkpt><trkpt lat="40.621045" lon="14.845275"><ele>4.0</ele><time>2026-04-09T17:29:01.089Z</time></trkpt><trkpt lat="40.6209467" lon="14.84539"><ele>4.0</ele><time>2026-04-09T17:29:02.089Z</time></trkpt><trkpt lat="40.6208567" lon="14.845495"><ele>4.0</ele><time>2026-04-09T17:29:03.089Z</time></trkpt><trkpt lat="40.6207717" lon="14.84559"><ele>4.0</ele><time>2026-04-09T17:29:04.089Z</time></trkpt><trkpt lat="40.6206833" lon="14.8456933"><ele>4.0</ele><time>2026-04-09T17:29:05.089Z</time></trkpt><trkpt lat="40.62058" lon="14.8458067"><ele>4.0</ele><time>2026-04-09T17:29:06.089Z</time></trkpt><trkpt lat="40.6204683" lon="14.8459367"><ele>4.0</ele><time>2026-04-09T17:29:07.089Z</time></trkpt><trkpt lat="40.620355" lon="14.84607"><ele>4.0</ele><time>2026-04-09T17:29:08.089Z</time></trkpt><trkpt lat="40.62024" lon="14.846205"><ele>3.6666666666666665</ele><time>2026-04-09T17:29:09.089Z</time></trkpt><trkpt lat="40.6201183" lon="14.84634"><ele>3.333333333333333</ele><time>2026-04-09T17:29:10.089Z</time></trkpt><trkpt lat="40.6199967" lon="14.8464717"><ele>3.0</ele><time>2026-04-09T17:29:11.089Z</time></trkpt><trkpt lat="40.6198683" lon="14.8466083"><ele>3.0</ele><time>2026-04-09T17:29:12.089Z</time></trkpt><trkpt lat="40.6197283" lon="14.8467633"><ele>3.0</ele><time>2026-04-09T17:29:13.089Z</time></trkpt><trkpt lat="40.61958" lon="14.8469317"><ele>3.0</ele><time>2026-04-09T17:29:14.089Z</time></trkpt><trkpt lat="40.619425" lon="14.8470983"><ele>2.0</ele><time>2026-04-09T17:29:15.089Z</time></trkpt><trkpt lat="40.6192733" lon="14.8472533"><ele>1.0</ele><time>2026-04-09T17:29:16.089Z</time></trkpt><trkpt lat="40.6191267" lon="14.8474"><ele>0.0</ele><time>2026-04-09T17:29:17.089Z</time></trkpt><trkpt lat="40.6189867" lon="14.8475417"><ele>0.0</ele><time>2026-04-09T17:29:18.089Z</time></trkpt><trkpt lat="40.618855" lon="14.847675"><ele>0.0</ele><time>2026-04-09T17:29:19.089Z</time></trkpt><trkpt lat="40.618725" lon="14.8478083"><ele>0.0</ele><time>2026-04-09T17:29:20.089Z</time></trkpt><trkpt lat="40.618595" lon="14.8479417"><ele>0.6666666666666666</ele><time>2026-04-09T17:29:21.089Z</time></trkpt><trkpt lat="40.618465" lon="14.8480817"><ele>1.3333333333333333</ele><time>2026-04-09T17:29:22.089Z</time></trkpt><trkpt lat="40.6183433" lon="14.8482133"><ele>2.0</ele><time>2026-04-09T17:29:23.089Z</time></trkpt><trkpt lat="40.6182233" lon="14.8483433"><ele>2.0</ele><time>2026-04-09T17:29:24.089Z</time></trkpt><trkpt lat="40.6181033" lon="14.8484683"><ele>2.0</ele><time>2026-04-09T17:29:25.089Z</time></trkpt><trkpt lat="40.61799" lon="14.8485933"><ele>2.0</ele><time>2026-04-09T17:29:26.089Z</time></trkpt><trkpt lat="40.6178817" lon="14.848705"><ele>2.0</ele><time>2026-04-09T17:29:27.089Z</time></trkpt><trkpt lat="40.6177767" lon="14.8488117"><ele>2.0</ele><time>2026-04-09T17:29:28.089Z</time></trkpt><trkpt lat="40.6176783" lon="14.848915"><ele>2.0</ele><time>2026-04-09T17:29:29.089Z</time></trkpt><trkpt lat="40.6175783" lon="14.849025"><ele>2.0</ele><time>2026-04-09T17:29:30.089Z</time></trkpt><trkpt lat="40.617475" lon="14.849135"><ele>2.0</ele><time>2026-04-09T17:29:31.089Z</time></trkpt><trkpt lat="40.6173683" lon="14.8492517"><ele>1.6666666666666665</ele><time>2026-04-09T17:29:32.089Z</time></trkpt><trkpt lat="40.6172533" lon="14.8493733"><ele>1.3333333333333333</ele><time>2026-04-09T17:29:33.089Z</time></trkpt><trkpt lat="40.617135" lon="14.849505"><ele>1.0</ele><time>2026-04-09T17:29:34.089Z</time></trkpt><trkpt lat="40.6170183" lon="14.84963"><ele>1.5</ele><time>2026-04-09T17:29:35.089Z</time></trkpt><trkpt lat="40.6169017" lon="14.84976"><ele>2.0</ele><time>2026-04-09T17:29:36.089Z</time></trkpt><trkpt lat="40.6167867" lon="14.849885"><ele>2.5</ele><time>2026-04-09T17:29:37.089Z</time></trkpt><trkpt lat="40.6166733" lon="14.8499983"><ele>3.0</ele><time>2026-04-09T17:29:38.089Z</time></trkpt><trkpt lat="40.6165633" lon="14.85011"><ele>3.0</ele><time>2026-04-09T17:29:39.089Z</time></trkpt><trkpt lat="40.6164567" lon="14.8502217"><ele>3.0</ele><time>2026-04-09T17:29:40.089Z</time></trkpt><trkpt lat="40.6163517" lon="14.850335"><ele>3.0</ele><time>2026-04-09T17:29:41.089Z</time></trkpt><trkpt lat="40.6162417" lon="14.850445"><ele>3.0</ele><time>2026-04-09T17:29:42.089Z</time></trkpt><trkpt lat="40.61614" lon="14.8505533"><ele>3.0</ele><time>2026-04-09T17:29:43.089Z</time></trkpt><trkpt lat="40.616035" lon="14.850665"><ele>3.0</ele><time>2026-04-09T17:29:44.089Z</time></trkpt><trkpt lat="40.61593" lon="14.8507817"><ele>3.0</ele><time>2026-04-09T17:29:45.089Z</time></trkpt><trkpt lat="40.6158117" lon="14.8509"><ele>3.0</ele><time>2026-04-09T17:29:46.089Z</time></trkpt><trkpt lat="40.6156883" lon="14.8510367"><ele>3.0</ele><time>2026-04-09T17:29:47.089Z</time></trkpt><trkpt lat="40.6155533" lon="14.8511867"><ele>3.0</ele><time>2026-04-09T17:29:48.089Z</time></trkpt><trkpt lat="40.6154117" lon="14.8513433"><ele>3.0</ele><time>2026-04-09T17:29:49.089Z</time></trkpt><trkpt lat="40.61527" lon="14.8514967"><ele>3.0</ele><time>2026-04-09T17:29:50.089Z</time></trkpt><trkpt lat="40.6151383" lon="14.8516367"><ele>3.0</ele><time>2026-04-09T17:29:51.089Z</time></trkpt><trkpt lat="40.6150067" lon="14.8517667"><ele>3.0</ele><time>2026-04-09T17:29:52.089Z</time></trkpt><trkpt lat="40.6148867" lon="14.8518917"><ele>3.0</ele><time>2026-04-09T17:29:53.089Z</time></trkpt><trkpt lat="40.6147717" lon="14.85201"><ele>3.0</ele><time>2026-04-09T17:29:54.089Z</time></trkpt><trkpt lat="40.6146683" lon="14.8521217"><ele>3.0</ele><time>2026-04-09T17:29:55.089Z</time></trkpt><trkpt lat="40.6145683" lon="14.8522233"><ele>3.0</ele><time>2026-04-09T17:29:56.089Z</time></trkpt><trkpt lat="40.614475" lon="14.8523133"><ele>3.0</ele><time>2026-04-09T17:29:57.089Z</time></trkpt><trkpt lat="40.6143867" lon="14.8524067"><ele>3.0</ele><time>2026-04-09T17:29:58.089Z</time></trkpt><trkpt lat="40.6143017" lon="14.852495"><ele>3.0</ele><time>2026-04-09T17:29:59.089Z</time></trkpt><trkpt lat="40.6142283" lon="14.852575"><ele>3.0</ele><time>2026-04-09T17:30:00.089Z</time></trkpt><trkpt lat="40.6141567" lon="14.8526533"><ele>3.0</ele><time>2026-04-09T17:30:01.089Z</time></trkpt><trkpt lat="40.6140767" lon="14.8527367"><ele>2.75</ele><time>2026-04-09T17:30:02.089Z</time></trkpt><trkpt lat="40.61399" lon="14.8528267"><ele>2.5</ele><time>2026-04-09T17:30:03.089Z</time></trkpt><trkpt lat="40.6139017" lon="14.8529217"><ele>2.25</ele><time>2026-04-09T17:30:04.089Z</time></trkpt><trkpt lat="40.6138017" lon="14.8530233"><ele>2.0</ele><time>2026-04-09T17:30:05.089Z</time></trkpt><trkpt lat="40.6136917" lon="14.8531433"><ele>2.6666666666666665</ele><time>2026-04-09T17:30:06.089Z</time></trkpt><trkpt lat="40.6135733" lon="14.8532733"><ele>3.333333333333333</ele><time>2026-04-09T17:30:07.089Z</time></trkpt><trkpt lat="40.61344" lon="14.853415"><ele>4.0</ele><time>2026-04-09T17:30:08.089Z</time></trkpt><trkpt lat="40.6132967" lon="14.8535633"><ele>4.0</ele><time>2026-04-09T17:30:09.089Z</time></trkpt><trkpt lat="40.6131567" lon="14.853705"><ele>4.0</ele><time>2026-04-09T17:30:10.089Z</time></trkpt><trkpt lat="40.6130233" lon="14.853845"><ele>4.0</ele><time>2026-04-09T17:30:11.089Z</time></trkpt><trkpt lat="40.6128883" lon="14.8539833"><ele>4.0</ele><time>2026-04-09T17:30:12.089Z</time></trkpt><trkpt lat="40.61276" lon="14.8541167"><ele>4.0</ele><time>2026-04-09T17:30:13.089Z</time></trkpt><trkpt lat="40.6126367" lon="14.85424"><ele>4.0</ele><time>2026-04-09T17:30:14.089Z</time></trkpt><trkpt lat="40.6125217" lon="14.8543667"><ele>4.0</ele><time>2026-04-09T17:30:15.089Z</time></trkpt><trkpt lat="40.6124133" lon="14.8544783"><ele>4.0</ele><time>2026-04-09T17:30:16.089Z</time></trkpt><trkpt lat="40.6123017" lon="14.8545933"><ele>4.0</ele><time>2026-04-09T17:30:17.089Z</time></trkpt><trkpt lat="40.6121883" lon="14.8547083"><ele>4.0</ele><time>2026-04-09T17:30:18.089Z</time></trkpt><trkpt lat="40.6120683" lon="14.8548333"><ele>4.0</ele><time>2026-04-09T17:30:19.089Z</time></trkpt><trkpt lat="40.611945" lon="14.8549617"><ele>4.0</ele><time>2026-04-09T17:30:20.089Z</time></trkpt><trkpt lat="40.6118333" lon="14.8550783"><ele>4.0</ele><time>2026-04-09T17:30:21.089Z</time></trkpt><trkpt lat="40.6117383" lon="14.855175"><ele>4.0</ele><time>2026-04-09T17:30:22.089Z</time></trkpt><trkpt lat="40.611645" lon="14.8552683"><ele>4.0</ele><time>2026-04-09T17:30:23.089Z</time></trkpt><trkpt lat="40.6115583" lon="14.8553617"><ele>4.0</ele><time>2026-04-09T17:30:24.089Z</time></trkpt><trkpt lat="40.61148" lon="14.8554417"><ele>4.0</ele><time>2026-04-09T17:30:25.089Z</time></trkpt><trkpt lat="40.611415" lon="14.8555167"><ele>4.0</ele><time>2026-04-09T17:30:26.089Z</time></trkpt><trkpt lat="40.6113567" lon="14.8555867"><ele>4.0</ele><time>2026-04-09T17:30:27.089Z</time></trkpt><trkpt lat="40.6112967" lon="14.85565"><ele>4.0</ele><time>2026-04-09T17:30:28.089Z</time></trkpt><trkpt lat="40.6112433" lon="14.8557083"><ele>3.9999999999999996</ele><time>2026-04-09T17:30:29.089Z</time></trkpt><trkpt lat="40.6111967" lon="14.8557717"><ele>4.0</ele><time>2026-04-09T17:30:30.089Z</time></trkpt><trkpt lat="40.6111667" lon="14.8558467"><ele>4.0</ele><time>2026-04-09T17:30:31.089Z</time></trkpt><trkpt lat="40.61112" lon="14.8559217"><ele>3.9999999999999996</ele><time>2026-04-09T17:30:33.089Z</time></trkpt><trkpt lat="40.61107" lon="14.85598"><ele>4.0</ele><time>2026-04-09T17:31:06.089Z</time></trkpt><trkpt lat="40.6110133" lon="14.856045"><ele>4.0</ele><time>2026-04-09T17:31:08.089Z</time></trkpt><trkpt lat="40.61094" lon="14.8561217"><ele>3.8000000000000003</ele><time>2026-04-09T17:31:10.089Z</time></trkpt><trkpt lat="40.6108683" lon="14.85619"><ele>3.6000000000000005</ele><time>2026-04-09T17:31:12.089Z</time></trkpt><trkpt lat="40.6108017" lon="14.8562517"><ele>3.4</ele><time>2026-04-09T17:31:15.089Z</time></trkpt><trkpt lat="40.6107133" lon="14.8562933"><ele>3.2</ele><time>2026-04-09T17:31:31.089Z</time></trkpt><trkpt lat="40.6106" lon="14.8563783"><ele>3.0</ele><time>2026-04-09T17:31:33.089Z</time></trkpt><trkpt lat="40.6105317" lon="14.856445"><ele>3.0</ele><time>2026-04-09T17:31:34.089Z</time></trkpt><trkpt lat="40.6104583" lon="14.8565183"><ele>3.0</ele><time>2026-04-09T17:31:35.089Z</time></trkpt><trkpt lat="40.6103867" lon="14.856595"><ele>3.0</ele><time>2026-04-09T17:31:36.089Z</time></trkpt><trkpt lat="40.6103083" lon="14.8566683"><ele>3.0</ele><time>2026-04-09T17:31:37.089Z</time></trkpt><trkpt lat="40.6102283" lon="14.8567483"><ele>3.0</ele><time>2026-04-09T17:31:38.089Z</time></trkpt><trkpt lat="40.6101433" lon="14.85683"><ele>3.0</ele><time>2026-04-09T17:31:39.089Z</time></trkpt><trkpt lat="40.61005" lon="14.85691"><ele>3.0</ele><time>2026-04-09T17:31:40.089Z</time></trkpt><trkpt lat="40.6099617" lon="14.857"><ele>3.0</ele><time>2026-04-09T17:31:41.089Z</time></trkpt><trkpt lat="40.609875" lon="14.857095"><ele>3.0</ele><time>2026-04-09T17:31:42.089Z</time></trkpt><trkpt lat="40.6097783" lon="14.8571933"><ele>3.0</ele><time>2026-04-09T17:31:43.089Z</time></trkpt><trkpt lat="40.6096817" lon="14.857295"><ele>3.0</ele><time>2026-04-09T17:31:44.089Z</time></trkpt><trkpt lat="40.6095833" lon="14.85738"><ele>3.0</ele><time>2026-04-09T17:31:45.089Z</time></trkpt><trkpt lat="40.6094917" lon="14.8574733"><ele>3.0</ele><time>2026-04-09T17:31:46.089Z</time></trkpt><trkpt lat="40.6093967" lon="14.857565"><ele>3.0</ele><time>2026-04-09T17:31:47.089Z</time></trkpt><trkpt lat="40.6093033" lon="14.8576617"><ele>3.0</ele><time>2026-04-09T17:31:48.089Z</time></trkpt><trkpt lat="40.6092233" lon="14.857755"><ele>3.0</ele><time>2026-04-09T17:31:49.089Z</time></trkpt><trkpt lat="40.6091467" lon="14.8578417"><ele>3.0</ele><time>2026-04-09T17:31:50.089Z</time></trkpt><trkpt lat="40.6090667" lon="14.8579283"><ele>3.0</ele><time>2026-04-09T17:31:51.089Z</time></trkpt><trkpt lat="40.6089833" lon="14.8580167"><ele>3.0</ele><time>2026-04-09T17:31:52.089Z</time></trkpt><trkpt lat="40.6088867" lon="14.8581067"><ele>3.0</ele><time>2026-04-09T17:31:53.089Z</time></trkpt><trkpt lat="40.6087967" lon="14.8581967"><ele>3.0</ele><time>2026-04-09T17:31:54.089Z</time></trkpt><trkpt lat="40.6087033" lon="14.8582883"><ele>3.0</ele><time>2026-04-09T17:31:55.089Z</time></trkpt><trkpt lat="40.608605" lon="14.8583783"><ele>2.5</ele><time>2026-04-09T17:31:56.089Z</time></trkpt><trkpt lat="40.6085083" lon="14.85847"><ele>2.0</ele><time>2026-04-09T17:31:57.089Z</time></trkpt><trkpt lat="40.6084117" lon="14.8585667"><ele>1.5</ele><time>2026-04-09T17:31:58.089Z</time></trkpt><trkpt lat="40.6083067" lon="14.858665"><ele>1.0</ele><time>2026-04-09T17:31:59.089Z</time></trkpt><trkpt lat="40.6081983" lon="14.8587717"><ele>1.0</ele><time>2026-04-09T17:32:00.089Z</time></trkpt><trkpt lat="40.6080783" lon="14.8588867"><ele>1.0</ele><time>2026-04-09T17:32:01.089Z</time></trkpt><trkpt lat="40.6079567" lon="14.8590117"><ele>1.0</ele><time>2026-04-09T17:32:02.089Z</time></trkpt><trkpt lat="40.6078267" lon="14.8591383"><ele>1.0</ele><time>2026-04-09T17:32:03.089Z</time></trkpt><trkpt lat="40.6077" lon="14.8592617"><ele>1.0</ele><time>2026-04-09T17:32:04.089Z</time></trkpt><trkpt lat="40.6075767" lon="14.859385"><ele>1.0</ele><time>2026-04-09T17:32:05.089Z</time></trkpt><trkpt lat="40.6074583" lon="14.8595033"><ele>1.25</ele><time>2026-04-09T17:32:06.089Z</time></trkpt><trkpt lat="40.6073433" lon="14.8596167"><ele>1.5</ele><time>2026-04-09T17:32:07.089Z</time></trkpt><trkpt lat="40.607235" lon="14.85972"><ele>1.75</ele><time>2026-04-09T17:32:08.089Z</time></trkpt><trkpt lat="40.607125" lon="14.8598317"><ele>2.0</ele><time>2026-04-09T17:32:09.089Z</time></trkpt><trkpt lat="40.6070133" lon="14.8599383"><ele>2.25</ele><time>2026-04-09T17:32:10.089Z</time></trkpt><trkpt lat="40.6069067" lon="14.8600383"><ele>2.5</ele><time>2026-04-09T17:32:11.089Z</time></trkpt><trkpt lat="40.6068033" lon="14.8601333"><ele>2.75</ele><time>2026-04-09T17:32:12.089Z</time></trkpt><trkpt lat="40.6067017" lon="14.86023"><ele>3.0</ele><time>2026-04-09T17:32:13.089Z</time></trkpt><trkpt lat="40.606605" lon="14.8603283"><ele>3.0</ele><time>2026-04-09T17:32:14.089Z</time></trkpt><trkpt lat="40.6065017" lon="14.860435"><ele>3.0</ele><time>2026-04-09T17:32:15.089Z</time></trkpt><trkpt lat="40.6064" lon="14.8605367"><ele>3.0</ele><time>2026-04-09T17:32:16.089Z</time></trkpt><trkpt lat="40.606295" lon="14.86064"><ele>3.0</ele><time>2026-04-09T17:32:17.089Z</time></trkpt><trkpt lat="40.60619" lon="14.8607417"><ele>3.0</ele><time>2026-04-09T17:32:18.089Z</time></trkpt><trkpt lat="40.6060817" lon="14.8608433"><ele>3.0</ele><time>2026-04-09T17:32:19.089Z</time></trkpt><trkpt lat="40.6059817" lon="14.8609383"><ele>3.0</ele><time>2026-04-09T17:32:20.089Z</time></trkpt><trkpt lat="40.6058833" lon="14.8610333"><ele>3.0</ele><time>2026-04-09T17:32:21.089Z</time></trkpt><trkpt lat="40.6057867" lon="14.8611317"><ele>3.0</ele><time>2026-04-09T17:32:22.089Z</time></trkpt><trkpt lat="40.60569" lon="14.8612333"><ele>3.0</ele><time>2026-04-09T17:32:23.089Z</time></trkpt><trkpt lat="40.60559" lon="14.8613333"><ele>3.0</ele><time>2026-04-09T17:32:24.089Z</time></trkpt><trkpt lat="40.6054917" lon="14.8614267"><ele>3.0</ele><time>2026-04-09T17:32:25.089Z</time></trkpt><trkpt lat="40.6053983" lon="14.8615233"><ele>3.0</ele><time>2026-04-09T17:32:26.089Z</time></trkpt><trkpt lat="40.605305" lon="14.8616183"><ele>3.0</ele><time>2026-04-09T17:32:27.089Z</time></trkpt><trkpt lat="40.6052083" lon="14.8617133"><ele>3.0</ele><time>2026-04-09T17:32:28.089Z</time></trkpt><trkpt lat="40.60511" lon="14.8618067"><ele>3.0</ele><time>2026-04-09T17:32:29.089Z</time></trkpt><trkpt lat="40.605015" lon="14.8619"><ele>3.0</ele><time>2026-04-09T17:32:30.089Z</time></trkpt><trkpt lat="40.6049217" lon="14.8619933"><ele>3.0</ele><time>2026-04-09T17:32:31.089Z</time></trkpt><trkpt lat="40.6048317" lon="14.8620767"><ele>3.0</ele><time>2026-04-09T17:32:32.089Z</time></trkpt><trkpt lat="40.6047433" lon="14.862155"><ele>3.0</ele><time>2026-04-09T17:32:33.089Z</time></trkpt><trkpt lat="40.6046483" lon="14.862245"><ele>3.0</ele><time>2026-04-09T17:32:34.089Z</time></trkpt><trkpt lat="40.6045567" lon="14.8623317"><ele>3.0</ele><time>2026-04-09T17:32:35.089Z</time></trkpt><trkpt lat="40.604465" lon="14.862425"><ele>3.0</ele><time>2026-04-09T17:32:36.089Z</time></trkpt><trkpt lat="40.6043733" lon="14.8625117"><ele>3.0</ele><time>2026-04-09T17:32:37.089Z</time></trkpt><trkpt lat="40.6042817" lon="14.8626017"><ele>3.0</ele><time>2026-04-09T17:32:38.089Z</time></trkpt><trkpt lat="40.604195" lon="14.8626967"><ele>3.0</ele><time>2026-04-09T17:32:39.089Z</time></trkpt><trkpt lat="40.6041017" lon="14.862785"><ele>3.0</ele><time>2026-04-09T17:32:40.089Z</time></trkpt><trkpt lat="40.6040067" lon="14.862885"><ele>3.0</ele><time>2026-04-09T17:32:41.089Z</time></trkpt><trkpt lat="40.603915" lon="14.8629783"><ele>3.0</ele><time>2026-04-09T17:32:42.089Z</time></trkpt><trkpt lat="40.6038233" lon="14.8630717"><ele>3.0</ele><time>2026-04-09T17:32:43.089Z</time></trkpt><trkpt lat="40.6037283" lon="14.8631583"><ele>3.0</ele><time>2026-04-09T17:32:44.089Z</time></trkpt><trkpt lat="40.6036367" lon="14.8632517"><ele>3.0</ele><time>2026-04-09T17:32:45.089Z</time></trkpt><trkpt lat="40.6035433" lon="14.86335"><ele>3.0</ele><time>2026-04-09T17:32:46.089Z</time></trkpt><trkpt lat="40.6034367" lon="14.8634467"><ele>3.0</ele><time>2026-04-09T17:32:47.089Z</time></trkpt><trkpt lat="40.6033267" lon="14.8635483"><ele>3.0</ele><time>2026-04-09T17:32:48.089Z</time></trkpt><trkpt lat="40.60322" lon="14.8636533"><ele>3.0</ele><time>2026-04-09T17:32:49.089Z</time></trkpt><trkpt lat="40.6031183" lon="14.86375"><ele>2.75</ele><time>2026-04-09T17:32:50.089Z</time></trkpt><trkpt lat="40.60302" lon="14.8638417"><ele>2.5</ele><time>2026-04-09T17:32:51.089Z</time></trkpt><trkpt lat="40.6029283" lon="14.8639317"><ele>2.25</ele><time>2026-04-09T17:32:52.089Z</time></trkpt><trkpt lat="40.6028367" lon="14.8640217"><ele>2.0</ele><time>2026-04-09T17:32:53.089Z</time></trkpt><trkpt lat="40.6027417" lon="14.864115"><ele>2.0</ele><time>2026-04-09T17:32:54.089Z</time></trkpt><trkpt lat="40.60265" lon="14.8642117"><ele>2.0</ele><time>2026-04-09T17:32:55.089Z</time></trkpt><trkpt lat="40.602555" lon="14.8642967"><ele>2.0</ele><time>2026-04-09T17:32:56.089Z</time></trkpt><trkpt lat="40.602465" lon="14.8643817"><ele>2.0</ele><time>2026-04-09T17:32:57.089Z</time></trkpt><trkpt lat="40.602375" lon="14.8644733"><ele>1.8</ele><time>2026-04-09T17:32:58.089Z</time></trkpt><trkpt lat="40.6022833" lon="14.864565"><ele>1.6</ele><time>2026-04-09T17:32:59.089Z</time></trkpt><trkpt lat="40.6021967" lon="14.8646517"><ele>1.4000000000000001</ele><time>2026-04-09T17:33:00.089Z</time></trkpt><trkpt lat="40.6021117" lon="14.8647317"><ele>1.2000000000000002</ele><time>2026-04-09T17:33:01.089Z</time></trkpt><trkpt lat="40.6020283" lon="14.86481"><ele>1.0</ele><time>2026-04-09T17:33:02.089Z</time></trkpt><trkpt lat="40.6019517" lon="14.864885"><ele>1.1666666666666665</ele><time>2026-04-09T17:33:03.089Z</time></trkpt><trkpt lat="40.60188" lon="14.8649333"><ele>1.3333333333333333</ele><time>2026-04-09T17:33:04.089Z</time></trkpt><trkpt lat="40.6018117" lon="14.86496"><ele>1.5</ele><time>2026-04-09T17:33:05.089Z</time></trkpt><trkpt lat="40.6016967" lon="14.86502"><ele>1.6666666666666665</ele><time>2026-04-09T17:33:07.089Z</time></trkpt><trkpt lat="40.60164" lon="14.8650683"><ele>1.8333333333333333</ele><time>2026-04-09T17:33:08.089Z</time></trkpt><trkpt lat="40.6015867" lon="14.8651183"><ele>2.0</ele><time>2026-04-09T17:33:09.089Z</time></trkpt><trkpt lat="40.6015083" lon="14.86521"><ele>1.9999999999999998</ele><time>2026-04-09T17:33:11.089Z</time></trkpt><trkpt lat="40.6015383" lon="14.8652867"><ele>2.0</ele><time>2026-04-09T17:33:19.089Z</time></trkpt><trkpt lat="40.6016183" lon="14.8652633"><ele>2.0</ele><time>2026-04-09T17:33:21.089Z</time></trkpt><trkpt lat="40.60168" lon="14.8652133"><ele>2.0</ele><time>2026-04-09T17:33:22.089Z</time></trkpt><trkpt lat="40.6017467" lon="14.8651317"><ele>1.9999999999999998</ele><time>2026-04-09T17:33:23.089Z</time></trkpt><trkpt lat="40.601835" lon="14.8650333"><ele>2.0</ele><time>2026-04-09T17:33:24.089Z</time></trkpt><trkpt lat="40.60194" lon="14.8649283"><ele>1.6666666666666665</ele><time>2026-04-09T17:33:25.089Z</time></trkpt><trkpt lat="40.602045" lon="14.8648117"><ele>1.3333333333333333</ele><time>2026-04-09T17:33:26.089Z</time></trkpt><trkpt lat="40.6021667" lon="14.8646867"><ele>1.0</ele><time>2026-04-09T17:33:27.089Z</time></trkpt><trkpt lat="40.6023017" lon="14.864565"><ele>1.0</ele><time>2026-04-09T17:33:28.089Z</time></trkpt><trkpt lat="40.60244" lon="14.8644367"><ele>1.0</ele><time>2026-04-09T17:33:29.089Z</time></trkpt><trkpt lat="40.6025833" lon="14.864295"><ele>1.0</ele><time>2026-04-09T17:33:30.089Z</time></trkpt><trkpt lat="40.6027283" lon="14.86415"><ele>1.3333333333333333</ele><time>2026-04-09T17:33:31.089Z</time></trkpt><trkpt lat="40.6028783" lon="14.8639967"><ele>1.6666666666666665</ele><time>2026-04-09T17:33:32.089Z</time></trkpt><trkpt lat="40.6030267" lon="14.8638583"><ele>2.0</ele><time>2026-04-09T17:33:33.089Z</time></trkpt><trkpt lat="40.6031783" lon="14.8637167"><ele>2.0</ele><time>2026-04-09T17:33:34.089Z</time></trkpt><trkpt lat="40.60333" lon="14.8635617"><ele>2.0</ele><time>2026-04-09T17:33:35.089Z</time></trkpt><trkpt lat="40.6034817" lon="14.8634167"><ele>2.0</ele><time>2026-04-09T17:33:36.089Z</time></trkpt><trkpt lat="40.6036233" lon="14.8632817"><ele>2.333333333333333</ele><time>2026-04-09T17:33:37.089Z</time></trkpt><trkpt lat="40.603755" lon="14.8631517"><ele>2.6666666666666665</ele><time>2026-04-09T17:33:38.089Z</time></trkpt><trkpt lat="40.6038817" lon="14.8630217"><ele>3.0</ele><time>2026-04-09T17:33:39.089Z</time></trkpt><trkpt lat="40.604005" lon="14.8628967"><ele>3.0</ele><time>2026-04-09T17:33:40.089Z</time></trkpt><trkpt lat="40.60413" lon="14.8627733"><ele>3.0</ele><time>2026-04-09T17:33:41.089Z</time></trkpt><trkpt lat="40.6042583" lon="14.8626483"><ele>3.0</ele><time>2026-04-09T17:33:42.089Z</time></trkpt><trkpt lat="40.6043867" lon="14.8625117"><ele>3.0</ele><time>2026-04-09T17:33:43.089Z</time></trkpt><trkpt lat="40.604525" lon="14.86237"><ele>3.0</ele><time>2026-04-09T17:33:44.089Z</time></trkpt><trkpt lat="40.604665" lon="14.86223"><ele>3.0</ele><time>2026-04-09T17:33:45.089Z</time></trkpt><trkpt lat="40.6048167" lon="14.8620917"><ele>3.0</ele><time>2026-04-09T17:33:46.089Z</time></trkpt><trkpt lat="40.6049667" lon="14.8619517"><ele>3.0</ele><time>2026-04-09T17:33:47.089Z</time></trkpt><trkpt lat="40.6051233" lon="14.861805"><ele>3.0</ele><time>2026-04-09T17:33:48.089Z</time></trkpt><trkpt lat="40.6052833" lon="14.8616567"><ele>3.0</ele><time>2026-04-09T17:33:49.089Z</time></trkpt><trkpt lat="40.605445" lon="14.8614983"><ele>3.0</ele><time>2026-04-09T17:33:50.089Z</time></trkpt><trkpt lat="40.60561" lon="14.86134"><ele>3.0</ele><time>2026-04-09T17:33:51.089Z</time></trkpt><trkpt lat="40.60578" lon="14.8611783"><ele>3.0</ele><time>2026-04-09T17:33:52.089Z</time></trkpt><trkpt lat="40.6059483" lon="14.861005"><ele>3.0</ele><time>2026-04-09T17:33:53.089Z</time></trkpt><trkpt lat="40.60612" lon="14.8608283"><ele>3.0</ele><time>2026-04-09T17:33:54.089Z</time></trkpt><trkpt lat="40.606285" lon="14.8606717"><ele>3.0</ele><time>2026-04-09T17:33:55.089Z</time></trkpt><trkpt lat="40.6064533" lon="14.8605133"><ele>3.0</ele><time>2026-04-09T17:33:56.089Z</time></trkpt><trkpt lat="40.6066267" lon="14.860345"><ele>3.0</ele><time>2026-04-09T17:33:57.089Z</time></trkpt><trkpt lat="40.6067967" lon="14.8601783"><ele>3.0</ele><time>2026-04-09T17:33:58.089Z</time></trkpt><trkpt lat="40.60697" lon="14.8600117"><ele>3.0</ele><time>2026-04-09T17:33:59.089Z</time></trkpt><trkpt lat="40.6071417" lon="14.85984"><ele>3.0</ele><time>2026-04-09T17:34:00.089Z</time></trkpt><trkpt lat="40.6073183" lon="14.8596733"><ele>2.6666666666666665</ele><time>2026-04-09T17:34:01.089Z</time></trkpt><trkpt lat="40.6074917" lon="14.8595033"><ele>2.333333333333333</ele><time>2026-04-09T17:34:02.089Z</time></trkpt><trkpt lat="40.6076583" lon="14.8593467"><ele>2.0</ele><time>2026-04-09T17:34:03.089Z</time></trkpt><trkpt lat="40.607815" lon="14.85919"><ele>1.6666666666666665</ele><time>2026-04-09T17:34:04.089Z</time></trkpt><trkpt lat="40.6079633" lon="14.8590417"><ele>1.3333333333333333</ele><time>2026-04-09T17:34:05.089Z</time></trkpt><trkpt lat="40.60811" lon="14.8588983"><ele>1.0</ele><time>2026-04-09T17:34:06.089Z</time></trkpt><trkpt lat="40.6082433" lon="14.8587617"><ele>1.0</ele><time>2026-04-09T17:34:07.089Z</time></trkpt><trkpt lat="40.60838" lon="14.85863"><ele>1.0</ele><time>2026-04-09T17:34:08.089Z</time></trkpt><trkpt lat="40.60851" lon="14.85851"><ele>1.0</ele><time>2026-04-09T17:34:09.089Z</time></trkpt><trkpt lat="40.6086467" lon="14.8583767"><ele>1.6666666666666665</ele><time>2026-04-09T17:34:10.089Z</time></trkpt><trkpt lat="40.6087817" lon="14.8582383"><ele>2.3333333333333335</ele><time>2026-04-09T17:34:11.089Z</time></trkpt><trkpt lat="40.6089267" lon="14.8580883"><ele>3.0</ele><time>2026-04-09T17:34:12.089Z</time></trkpt><trkpt lat="40.60907" lon="14.85794"><ele>3.0</ele><time>2026-04-09T17:34:13.089Z</time></trkpt><trkpt lat="40.609215" lon="14.8577983"><ele>3.0</ele><time>2026-04-09T17:34:14.089Z</time></trkpt><trkpt lat="40.6093617" lon="14.8576583"><ele>3.0</ele><time>2026-04-09T17:34:15.089Z</time></trkpt><trkpt lat="40.6094983" lon="14.8575167"><ele>3.0</ele><time>2026-04-09T17:34:16.089Z</time></trkpt><trkpt lat="40.60964" lon="14.8573783"><ele>3.0</ele><time>2026-04-09T17:34:17.089Z</time></trkpt><trkpt lat="40.6097717" lon="14.8572417"><ele>3.0</ele><time>2026-04-09T17:34:18.089Z</time></trkpt><trkpt lat="40.6099083" lon="14.8571083"><ele>3.0</ele><time>2026-04-09T17:34:19.089Z</time></trkpt><trkpt lat="40.610045" lon="14.8569667"><ele>3.0</ele><time>2026-04-09T17:34:20.089Z</time></trkpt><trkpt lat="40.6101817" lon="14.8568267"><ele>3.0</ele><time>2026-04-09T17:34:21.089Z</time></trkpt><trkpt lat="40.61032" lon="14.856695"><ele>3.0</ele><time>2026-04-09T17:34:22.089Z</time></trkpt><trkpt lat="40.6104567" lon="14.8565483"><ele>3.0</ele><time>2026-04-09T17:34:23.089Z</time></trkpt><trkpt lat="40.6105933" lon="14.8564017"><ele>3.0</ele><time>2026-04-09T17:34:24.089Z</time></trkpt><trkpt lat="40.61073" lon="14.8562583"><ele>3.0</ele><time>2026-04-09T17:34:25.089Z</time></trkpt><trkpt lat="40.6108583" lon="14.8561267"><ele>3.0</ele><time>2026-04-09T17:34:26.089Z</time></trkpt><trkpt lat="40.6109783" lon="14.855995"><ele>3.0</ele><time>2026-04-09T17:34:27.089Z</time></trkpt><trkpt lat="40.6111017" lon="14.8558683"><ele>3.25</ele><time>2026-04-09T17:34:28.089Z</time></trkpt><trkpt lat="40.61122" lon="14.85575"><ele>3.5</ele><time>2026-04-09T17:34:29.089Z</time></trkpt><trkpt lat="40.61133" lon="14.85563"><ele>3.75</ele><time>2026-04-09T17:34:30.089Z</time></trkpt><trkpt lat="40.61144" lon="14.8555117"><ele>4.0</ele><time>2026-04-09T17:34:31.089Z</time></trkpt><trkpt lat="40.6115533" lon="14.855395"><ele>4.0</ele><time>2026-04-09T17:34:32.089Z</time></trkpt><trkpt lat="40.6116633" lon="14.85527"><ele>4.0</ele><time>2026-04-09T17:34:33.089Z</time></trkpt><trkpt lat="40.6117767" lon="14.8551567"><ele>4.0</ele><time>2026-04-09T17:34:34.089Z</time></trkpt><trkpt lat="40.6118867" lon="14.8550483"><ele>4.0</ele><time>2026-04-09T17:34:35.089Z</time></trkpt><trkpt lat="40.6119933" lon="14.8549333"><ele>4.0</ele><time>2026-04-09T17:34:36.089Z</time></trkpt><trkpt lat="40.6121033" lon="14.854815"><ele>4.0</ele><time>2026-04-09T17:34:37.089Z</time></trkpt><trkpt lat="40.6122117" lon="14.8546967"><ele>4.0</ele><time>2026-04-09T17:34:38.089Z</time></trkpt><trkpt lat="40.6123133" lon="14.8545883"><ele>4.0</ele><time>2026-04-09T17:34:39.089Z</time></trkpt><trkpt lat="40.6124117" lon="14.8544783"><ele>4.0</ele><time>2026-04-09T17:34:40.089Z</time></trkpt><trkpt lat="40.6125167" lon="14.8543733"><ele>4.0</ele><time>2026-04-09T17:34:41.089Z</time></trkpt><trkpt lat="40.6126217" lon="14.8542667"><ele>4.0</ele><time>2026-04-09T17:34:42.089Z</time></trkpt><trkpt lat="40.612735" lon="14.85415"><ele>4.0</ele><time>2026-04-09T17:34:43.089Z</time></trkpt><trkpt lat="40.6128467" lon="14.8540267"><ele>4.0</ele><time>2026-04-09T17:34:44.089Z</time></trkpt><trkpt lat="40.6129583" lon="14.8539017"><ele>4.0</ele><time>2026-04-09T17:34:45.089Z</time></trkpt><trkpt lat="40.6130733" lon="14.853785"><ele>4.0</ele><time>2026-04-09T17:34:46.089Z</time></trkpt><trkpt lat="40.6131917" lon="14.8536717"><ele>4.0</ele><time>2026-04-09T17:34:47.089Z</time></trkpt><trkpt lat="40.6133117" lon="14.8535533"><ele>4.0</ele><time>2026-04-09T17:34:48.089Z</time></trkpt><trkpt lat="40.6134333" lon="14.8534233"><ele>4.0</ele><time>2026-04-09T17:34:49.089Z</time></trkpt><trkpt lat="40.6135517" lon="14.8532917"><ele>4.0</ele><time>2026-04-09T17:34:50.089Z</time></trkpt><trkpt lat="40.613675" lon="14.8531683"><ele>3.333333333333333</ele><time>2026-04-09T17:34:51.089Z</time></trkpt><trkpt lat="40.6137983" lon="14.8530383"><ele>2.6666666666666665</ele><time>2026-04-09T17:34:52.089Z</time></trkpt><trkpt lat="40.6139183" lon="14.8529117"><ele>2.0</ele><time>2026-04-09T17:34:53.089Z</time></trkpt><trkpt lat="40.6140333" lon="14.8527883"><ele>2.0</ele><time>2026-04-09T17:34:54.089Z</time></trkpt><trkpt lat="40.61415" lon="14.85266"><ele>2.0</ele><time>2026-04-09T17:34:55.089Z</time></trkpt><trkpt lat="40.6142733" lon="14.8525367"><ele>2.0</ele><time>2026-04-09T17:34:56.089Z</time></trkpt><trkpt lat="40.614395" lon="14.8524083"><ele>2.333333333333333</ele><time>2026-04-09T17:34:57.089Z</time></trkpt><trkpt lat="40.61452" lon="14.8522783"><ele>2.6666666666666665</ele><time>2026-04-09T17:34:58.089Z</time></trkpt><trkpt lat="40.6146367" lon="14.8521583"><ele>3.0</ele><time>2026-04-09T17:34:59.089Z</time></trkpt><trkpt lat="40.61475" lon="14.85204"><ele>3.0</ele><time>2026-04-09T17:35:00.089Z</time></trkpt><trkpt lat="40.61486" lon="14.8519233"><ele>3.0</ele><time>2026-04-09T17:35:01.089Z</time></trkpt><trkpt lat="40.614965" lon="14.8518067"><ele>3.0</ele><time>2026-04-09T17:35:02.089Z</time></trkpt><trkpt lat="40.615075" lon="14.851695"><ele>3.0</ele><time>2026-04-09T17:35:03.089Z</time></trkpt><trkpt lat="40.6151767" lon="14.8515917"><ele>3.0</ele><time>2026-04-09T17:35:04.089Z</time></trkpt><trkpt lat="40.6152767" lon="14.8514883"><ele>3.0</ele><time>2026-04-09T17:35:05.089Z</time></trkpt><trkpt lat="40.6153767" lon="14.8513767"><ele>3.0</ele><time>2026-04-09T17:35:06.089Z</time></trkpt><trkpt lat="40.615475" lon="14.851265"><ele>3.0</ele><time>2026-04-09T17:35:07.089Z</time></trkpt><trkpt lat="40.61558" lon="14.85115"><ele>3.0</ele><time>2026-04-09T17:35:08.089Z</time></trkpt><trkpt lat="40.6156833" lon="14.8510383"><ele>3.0</ele><time>2026-04-09T17:35:09.089Z</time></trkpt><trkpt lat="40.61578" lon="14.8509333"><ele>3.0</ele><time>2026-04-09T17:35:10.089Z</time></trkpt><trkpt lat="40.6158683" lon="14.8508417"><ele>3.0</ele><time>2026-04-09T17:35:11.089Z</time></trkpt><trkpt lat="40.6159517" lon="14.8507567"><ele>3.0</ele><time>2026-04-09T17:35:12.089Z</time></trkpt><trkpt lat="40.61604" lon="14.8506683"><ele>3.0</ele><time>2026-04-09T17:35:13.089Z</time></trkpt><trkpt lat="40.616135" lon="14.8505667"><ele>3.0</ele><time>2026-04-09T17:35:14.089Z</time></trkpt><trkpt lat="40.61623" lon="14.8504617"><ele>3.0</ele><time>2026-04-09T17:35:15.089Z</time></trkpt><trkpt lat="40.6163283" lon="14.8503533"><ele>3.0</ele><time>2026-04-09T17:35:16.089Z</time></trkpt><trkpt lat="40.6164283" lon="14.8502517"><ele>3.0</ele><time>2026-04-09T17:35:17.089Z</time></trkpt><trkpt lat="40.6165317" lon="14.850135"><ele>3.0</ele><time>2026-04-09T17:35:18.089Z</time></trkpt><trkpt lat="40.61664" lon="14.85001"><ele>3.0</ele><time>2026-04-09T17:35:19.089Z</time></trkpt><trkpt lat="40.61676" lon="14.8498767"><ele>3.0</ele><time>2026-04-09T17:35:20.089Z</time></trkpt><trkpt lat="40.6168833" lon="14.8497517"><ele>3.0</ele><time>2026-04-09T17:35:21.089Z</time></trkpt><trkpt lat="40.617005" lon="14.849635"><ele>3.0</ele><time>2026-04-09T17:35:22.089Z</time></trkpt><trkpt lat="40.6171233" lon="14.8495167"><ele>2.75</ele><time>2026-04-09T17:35:23.089Z</time></trkpt><trkpt lat="40.61723" lon="14.849405"><ele>2.5</ele><time>2026-04-09T17:35:24.089Z</time></trkpt><trkpt lat="40.6173267" lon="14.8492983"><ele>2.25</ele><time>2026-04-09T17:35:25.089Z</time></trkpt><trkpt lat="40.61742" lon="14.8491983"><ele>2.0</ele><time>2026-04-09T17:35:26.089Z</time></trkpt><trkpt lat="40.6175117" lon="14.8490983"><ele>2.0</ele><time>2026-04-09T17:35:27.089Z</time></trkpt><trkpt lat="40.6176033" lon="14.8490033"><ele>2.0</ele><time>2026-04-09T17:35:28.089Z</time></trkpt><trkpt lat="40.6176933" lon="14.84891"><ele>2.0</ele><time>2026-04-09T17:35:29.089Z</time></trkpt><trkpt lat="40.6177817" lon="14.8488167"><ele>2.0</ele><time>2026-04-09T17:35:30.089Z</time></trkpt><trkpt lat="40.6178717" lon="14.848725"><ele>2.0</ele><time>2026-04-09T17:35:31.089Z</time></trkpt><trkpt lat="40.6179633" lon="14.8486317"><ele>2.0</ele><time>2026-04-09T17:35:32.089Z</time></trkpt><trkpt lat="40.6180567" lon="14.8485283"><ele>2.0</ele><time>2026-04-09T17:35:33.089Z</time></trkpt><trkpt lat="40.61816" lon="14.8484217"><ele>2.0</ele><time>2026-04-09T17:35:34.089Z</time></trkpt><trkpt lat="40.618265" lon="14.84831"><ele>2.0</ele><time>2026-04-09T17:35:35.089Z</time></trkpt><trkpt lat="40.6183733" lon="14.8481967"><ele>2.0</ele><time>2026-04-09T17:35:36.089Z</time></trkpt><trkpt lat="40.6184867" lon="14.848075"><ele>2.0</ele><time>2026-04-09T17:35:37.089Z</time></trkpt><trkpt lat="40.6186167" lon="14.8479333"><ele>1.3333333333333333</ele><time>2026-04-09T17:35:38.089Z</time></trkpt><trkpt lat="40.61875" lon="14.8477867"><ele>0.6666666666666666</ele><time>2026-04-09T17:35:39.089Z</time></trkpt><trkpt lat="40.61888" lon="14.84765"><ele>0.0</ele><time>2026-04-09T17:35:40.089Z</time></trkpt><trkpt lat="40.6189983" lon="14.847525"><ele>0.0</ele><time>2026-04-09T17:35:41.089Z</time></trkpt><trkpt lat="40.6191117" lon="14.847405"><ele>0.0</ele><time>2026-04-09T17:35:42.089Z</time></trkpt><trkpt lat="40.6192217" lon="14.8472917"><ele>0.0</ele><time>2026-04-09T17:35:43.089Z</time></trkpt><trkpt lat="40.6193233" lon="14.8471817"><ele>0.0</ele><time>2026-04-09T17:35:44.089Z</time></trkpt><trkpt lat="40.619425" lon="14.847075"><ele>0.25</ele><time>2026-04-09T17:35:45.089Z</time></trkpt><trkpt lat="40.6195283" lon="14.84697"><ele>0.5</ele><time>2026-04-09T17:35:46.089Z</time></trkpt><trkpt lat="40.6196267" lon="14.8468667"><ele>0.75</ele><time>2026-04-09T17:35:47.089Z</time></trkpt><trkpt lat="40.619725" lon="14.8467667"><ele>1.0</ele><time>2026-04-09T17:35:48.089Z</time></trkpt><trkpt lat="40.6198117" lon="14.8466667"><ele>1.4</ele><time>2026-04-09T17:35:49.09Z</time></trkpt><trkpt lat="40.6198967" lon="14.8465717"><ele>1.8</ele><time>2026-04-09T17:35:50.09Z</time></trkpt><trkpt lat="40.6199867" lon="14.84648"><ele>2.1999999999999997</ele><time>2026-04-09T17:35:51.09Z</time></trkpt><trkpt lat="40.620075" lon="14.8463883"><ele>2.6</ele><time>2026-04-09T17:35:52.09Z</time></trkpt><trkpt lat="40.6201567" lon="14.8463017"><ele>3.0</ele><time>2026-04-09T17:35:53.09Z</time></trkpt><trkpt lat="40.6202467" lon="14.8462067"><ele>3.25</ele><time>2026-04-09T17:35:54.09Z</time></trkpt><trkpt lat="40.6203383" lon="14.8461"><ele>3.5</ele><time>2026-04-09T17:35:55.09Z</time></trkpt><trkpt lat="40.6204317" lon="14.84599"><ele>3.75</ele><time>2026-04-09T17:35:56.09Z</time></trkpt><trkpt lat="40.6205233" lon="14.8458817"><ele>4.0</ele><time>2026-04-09T17:35:57.09Z</time></trkpt><trkpt lat="40.6206133" lon="14.8457733"><ele>4.0</ele><time>2026-04-09T17:35:58.09Z</time></trkpt><trkpt lat="40.6207" lon="14.8456717"><ele>4.0</ele><time>2026-04-09T17:35:59.09Z</time></trkpt><trkpt lat="40.6207883" lon="14.8455683"><ele>4.0</ele><time>2026-04-09T17:36:00.09Z</time></trkpt><trkpt lat="40.62089" lon="14.845455"><ele>4.0</ele><time>2026-04-09T17:36:01.09Z</time></trkpt><trkpt lat="40.6210017" lon="14.8453217"><ele>4.0</ele><time>2026-04-09T17:36:02.09Z</time></trkpt><trkpt lat="40.6211233" lon="14.84519"><ele>4.0</ele><time>2026-04-09T17:36:03.09Z</time></trkpt><trkpt lat="40.621235" lon="14.8450683"><ele>4.0</ele><time>2026-04-09T17:36:04.09Z</time></trkpt><trkpt lat="40.6213383" lon="14.8449533"><ele>4.0</ele><time>2026-04-09T17:36:05.09Z</time></trkpt><trkpt lat="40.6214333" lon="14.84485"><ele>4.0</ele><time>2026-04-09T17:36:06.09Z</time></trkpt><trkpt lat="40.621525" lon="14.8447467"><ele>4.0</ele><time>2026-04-09T17:36:07.09Z</time></trkpt><trkpt lat="40.6216117" lon="14.8446417"><ele>4.0</ele><time>2026-04-09T17:36:08.09Z</time></trkpt><trkpt lat="40.6217" lon="14.844535"><ele>4.0</ele><time>2026-04-09T17:36:09.09Z</time></trkpt><trkpt lat="40.6217883" lon="14.84443"><ele>4.0</ele><time>2026-04-09T17:36:10.09Z</time></trkpt><trkpt lat="40.6218733" lon="14.8443267"><ele>4.0</ele><time>2026-04-09T17:36:11.09Z</time></trkpt><trkpt lat="40.6219633" lon="14.8442233"><ele>4.0</ele><time>2026-04-09T17:36:12.09Z</time></trkpt><trkpt lat="40.6220533" lon="14.8441183"><ele>4.0</ele><time>2026-04-09T17:36:13.09Z</time></trkpt><trkpt lat="40.6221383" lon="14.8440167"><ele>3.75</ele><time>2026-04-09T17:36:14.09Z</time></trkpt><trkpt lat="40.6222267" lon="14.8439183"><ele>3.5</ele><time>2026-04-09T17:36:15.09Z</time></trkpt><trkpt lat="40.6223217" lon="14.8438183"><ele>3.25</ele><time>2026-04-09T17:36:16.09Z</time></trkpt><trkpt lat="40.62242" lon="14.8437017"><ele>3.0</ele><time>2026-04-09T17:36:17.09Z</time></trkpt><trkpt lat="40.62253" lon="14.84357"><ele>3.0</ele><time>2026-04-09T17:36:18.09Z</time></trkpt><trkpt lat="40.622655" lon="14.8434217"><ele>3.0</ele><time>2026-04-09T17:36:19.09Z</time></trkpt><trkpt lat="40.6227917" lon="14.8432733"><ele>3.0</ele><time>2026-04-09T17:36:20.09Z</time></trkpt><trkpt lat="40.6229367" lon="14.8431117"><ele>3.0</ele><time>2026-04-09T17:36:21.09Z</time></trkpt><trkpt lat="40.6230783" lon="14.8429483"><ele>3.0</ele><time>2026-04-09T17:36:22.09Z</time></trkpt><trkpt lat="40.62322" lon="14.8427867"><ele>3.0</ele><time>2026-04-09T17:36:23.09Z</time></trkpt><trkpt lat="40.6233667" lon="14.8426283"><ele>3.0</ele><time>2026-04-09T17:36:24.09Z</time></trkpt><trkpt lat="40.623505" lon="14.84247"><ele>3.0</ele><time>2026-04-09T17:36:25.09Z</time></trkpt><trkpt lat="40.6236367" lon="14.8423233"><ele>3.0</ele><time>2026-04-09T17:36:26.09Z</time></trkpt><trkpt lat="40.623765" lon="14.842175"><ele>3.0</ele><time>2026-04-09T17:36:27.09Z</time></trkpt><trkpt lat="40.6238967" lon="14.8420317"><ele>3.0</ele><time>2026-04-09T17:36:28.09Z</time></trkpt><trkpt lat="40.6240417" lon="14.8418967"><ele>3.0</ele><time>2026-04-09T17:36:29.09Z</time></trkpt><trkpt lat="40.62419" lon="14.8417833"><ele>3.0</ele><time>2026-04-09T17:36:30.09Z</time></trkpt><trkpt lat="40.6243383" lon="14.8416833"><ele>3.0</ele><time>2026-04-09T17:36:31.09Z</time></trkpt><trkpt lat="40.62449" lon="14.84161"><ele>3.0</ele><time>2026-04-09T17:36:32.09Z</time></trkpt><trkpt lat="40.6246483" lon="14.8415517"><ele>2.6666666666666665</ele><time>2026-04-09T17:36:33.09Z</time></trkpt><trkpt lat="40.6248133" lon="14.8414983"><ele>2.333333333333333</ele><time>2026-04-09T17:36:34.09Z</time></trkpt><trkpt lat="40.6249867" lon="14.8414683"><ele>2.0</ele><time>2026-04-09T17:36:35.09Z</time></trkpt><trkpt lat="40.6251667" lon="14.84145"><ele>2.0</ele><time>2026-04-09T17:36:36.09Z</time></trkpt><trkpt lat="40.6253567" lon="14.8414367"><ele>2.0</ele><time>2026-04-09T17:36:37.09Z</time></trkpt><trkpt lat="40.62554" lon="14.841425"><ele>2.0</ele><time>2026-04-09T17:36:38.09Z</time></trkpt><trkpt lat="40.6257117" lon="14.8414167"><ele>2.0</ele><time>2026-04-09T17:36:39.09Z</time></trkpt><trkpt lat="40.6258717" lon="14.8414033"><ele>2.0</ele><time>2026-04-09T17:36:40.09Z</time></trkpt><trkpt lat="40.6260167" lon="14.8413833"><ele>2.0</ele><time>2026-04-09T17:36:41.09Z</time></trkpt><trkpt lat="40.6261617" lon="14.8413383"><ele>2.0</ele><time>2026-04-09T17:36:42.09Z</time></trkpt><trkpt lat="40.6262983" lon="14.8412717"><ele>2.0</ele><time>2026-04-09T17:36:43.09Z</time></trkpt><trkpt lat="40.6264217" lon="14.8411817"><ele>2.0</ele><time>2026-04-09T17:36:44.09Z</time></trkpt><trkpt lat="40.626545" lon="14.8410633"><ele>2.0</ele><time>2026-04-09T17:36:45.09Z</time></trkpt><trkpt lat="40.6266583" lon="14.8409333"><ele>2.0</ele><time>2026-04-09T17:36:46.09Z</time></trkpt><trkpt lat="40.6267517" lon="14.84079"><ele>2.0</ele><time>2026-04-09T17:36:47.09Z</time></trkpt><trkpt lat="40.6268383" lon="14.8406483"><ele>2.0</ele><time>2026-04-09T17:36:48.09Z</time></trkpt><trkpt lat="40.6269167" lon="14.84052"><ele>2.0</ele><time>2026-04-09T17:36:49.09Z</time></trkpt><trkpt lat="40.626995" lon="14.840395"><ele>2.0</ele><time>2026-04-09T17:36:50.09Z</time></trkpt><trkpt lat="40.6270767" lon="14.8402817"><ele>2.0</ele><time>2026-04-09T17:36:51.09Z</time></trkpt><trkpt lat="40.6271617" lon="14.84019"><ele>2.0</ele><time>2026-04-09T17:36:52.09Z</time></trkpt><trkpt lat="40.6272583" lon="14.8401117"><ele>2.0</ele><time>2026-04-09T17:36:53.09Z</time></trkpt><trkpt lat="40.6273667" lon="14.8400517"><ele>1.75</ele><time>2026-04-09T17:36:54.09Z</time></trkpt><trkpt lat="40.6274867" lon="14.84002"><ele>1.5</ele><time>2026-04-09T17:36:55.09Z</time></trkpt><trkpt lat="40.6276083" lon="14.840015"><ele>1.25</ele><time>2026-04-09T17:36:56.09Z</time></trkpt><trkpt lat="40.6277267" lon="14.8400317"><ele>1.0</ele><time>2026-04-09T17:36:57.09Z</time></trkpt><trkpt lat="40.6278483" lon="14.8400783"><ele>1.25</ele><time>2026-04-09T17:36:58.09Z</time></trkpt><trkpt lat="40.627975" lon="14.8401533"><ele>1.5</ele><time>2026-04-09T17:36:59.09Z</time></trkpt><trkpt lat="40.6281033" lon="14.8402583"><ele>1.75</ele><time>2026-04-09T17:37:00.09Z</time></trkpt><trkpt lat="40.6282283" lon="14.8403733"><ele>2.0</ele><time>2026-04-09T17:37:01.09Z</time></trkpt><trkpt lat="40.6283567" lon="14.8404917"><ele>2.0</ele><time>2026-04-09T17:37:02.09Z</time></trkpt><trkpt lat="40.62849" lon="14.84061"><ele>2.0</ele><time>2026-04-09T17:37:03.09Z</time></trkpt><trkpt lat="40.6286217" lon="14.84072"><ele>2.0</ele><time>2026-04-09T17:37:04.09Z</time></trkpt><trkpt lat="40.6287433" lon="14.8408117"><ele>2.75</ele><time>2026-04-09T17:37:05.09Z</time></trkpt><trkpt lat="40.6288633" lon="14.84088"><ele>3.5</ele><time>2026-04-09T17:37:06.09Z</time></trkpt><trkpt lat="40.6289733" lon="14.84092"><ele>4.25</ele><time>2026-04-09T17:37:07.09Z</time></trkpt><trkpt lat="40.62909" lon="14.8409267"><ele>5.0</ele><time>2026-04-09T17:37:08.09Z</time></trkpt><trkpt lat="40.6292167" lon="14.8409067"><ele>5.0</ele><time>2026-04-09T17:37:09.09Z</time></trkpt><trkpt lat="40.6293433" lon="14.8408633"><ele>5.0</ele><time>2026-04-09T17:37:10.09Z</time></trkpt><trkpt lat="40.6294633" lon="14.8408033"><ele>5.0</ele><time>2026-04-09T17:37:11.09Z</time></trkpt><trkpt lat="40.6295733" lon="14.840715"><ele>5.0</ele><time>2026-04-09T17:37:12.09Z</time></trkpt><trkpt lat="40.6296867" lon="14.8406033"><ele>4.666666666666667</ele><time>2026-04-09T17:37:13.09Z</time></trkpt><trkpt lat="40.6297917" lon="14.840465"><ele>4.333333333333333</ele><time>2026-04-09T17:37:14.09Z</time></trkpt><trkpt lat="40.6298933" lon="14.8403033"><ele>4.0</ele><time>2026-04-09T17:37:15.09Z</time></trkpt><trkpt lat="40.6300033" lon="14.840125"><ele>3.6666666666666665</ele><time>2026-04-09T17:37:16.09Z</time></trkpt><trkpt lat="40.6301167" lon="14.839935"><ele>3.333333333333333</ele><time>2026-04-09T17:37:17.09Z</time></trkpt><trkpt lat="40.630235" lon="14.8397533"><ele>3.0</ele><time>2026-04-09T17:37:18.09Z</time></trkpt><trkpt lat="40.6303533" lon="14.8395683"><ele>3.666666666666667</ele><time>2026-04-09T17:37:19.09Z</time></trkpt><trkpt lat="40.63047" lon="14.83939"><ele>4.333333333333334</ele><time>2026-04-09T17:37:20.09Z</time></trkpt><trkpt lat="40.63059" lon="14.839205"><ele>5.0</ele><time>2026-04-09T17:37:21.09Z</time></trkpt><trkpt lat="40.63071" lon="14.8390233"><ele>5.0</ele><time>2026-04-09T17:37:22.09Z</time></trkpt><trkpt lat="40.6308317" lon="14.83884"><ele>5.0</ele><time>2026-04-09T17:37:23.09Z</time></trkpt><trkpt lat="40.6309533" lon="14.838655"><ele>5.0</ele><time>2026-04-09T17:37:24.09Z</time></trkpt><trkpt lat="40.6310717" lon="14.8384767"><ele>4.666666666666667</ele><time>2026-04-09T17:37:25.09Z</time></trkpt><trkpt lat="40.6311817" lon="14.838315"><ele>4.333333333333333</ele><time>2026-04-09T17:37:26.09Z</time></trkpt><trkpt lat="40.631295" lon="14.8381467"><ele>4.0</ele><time>2026-04-09T17:37:27.09Z</time></trkpt><trkpt lat="40.6314117" lon="14.8379817"><ele>4.0</ele><time>2026-04-09T17:37:28.09Z</time></trkpt><trkpt lat="40.631525" lon="14.83783"><ele>4.0</ele><time>2026-04-09T17:37:29.09Z</time></trkpt><trkpt lat="40.6316383" lon="14.83767"><ele>4.0</ele><time>2026-04-09T17:37:30.09Z</time></trkpt><trkpt lat="40.631745" lon="14.83751"><ele>4.333333333333333</ele><time>2026-04-09T17:37:31.09Z</time></trkpt><trkpt lat="40.6318617" lon="14.8373433"><ele>4.666666666666667</ele><time>2026-04-09T17:37:32.09Z</time></trkpt><trkpt lat="40.631975" lon="14.8371683"><ele>5.0</ele><time>2026-04-09T17:37:33.09Z</time></trkpt><trkpt lat="40.6320967" lon="14.8369917"><ele>5.0</ele><time>2026-04-09T17:37:34.09Z</time></trkpt><trkpt lat="40.6322117" lon="14.8368067"><ele>5.0</ele><time>2026-04-09T17:37:35.09Z</time></trkpt><trkpt lat="40.63232" lon="14.8366317"><ele>5.0</ele><time>2026-04-09T17:37:36.09Z</time></trkpt><trkpt lat="40.6324267" lon="14.8364733"><ele>5.0</ele><time>2026-04-09T17:37:37.09Z</time></trkpt><trkpt lat="40.6325333" lon="14.8363167"><ele>5.0</ele><time>2026-04-09T17:37:38.09Z</time></trkpt><trkpt lat="40.6326367" lon="14.8361583"><ele>5.0</ele><time>2026-04-09T17:37:39.09Z</time></trkpt><trkpt lat="40.6327417" lon="14.8359917"><ele>5.25</ele><time>2026-04-09T17:37:40.09Z</time></trkpt><trkpt lat="40.632845" lon="14.835835"><ele>5.5</ele><time>2026-04-09T17:37:41.09Z</time></trkpt><trkpt lat="40.63294" lon="14.8356967"><ele>5.75</ele><time>2026-04-09T17:37:42.09Z</time></trkpt><trkpt lat="40.6330267" lon="14.8355633"><ele>6.0</ele><time>2026-04-09T17:37:43.09Z</time></trkpt><trkpt lat="40.6331067" lon="14.8354333"><ele>6.0</ele><time>2026-04-09T17:37:44.09Z</time></trkpt><trkpt lat="40.633185" lon="14.835315"><ele>6.0</ele><time>2026-04-09T17:37:45.09Z</time></trkpt><trkpt lat="40.6332567" lon="14.8352067"><ele>6.0</ele><time>2026-04-09T17:37:46.09Z</time></trkpt><trkpt lat="40.6333233" lon="14.835115"><ele>6.0</ele><time>2026-04-09T17:37:47.09Z</time></trkpt><trkpt lat="40.6333883" lon="14.8350433"><ele>6.0</ele><time>2026-04-09T17:37:48.09Z</time></trkpt><trkpt lat="40.63346" lon="14.8349817"><ele>6.0</ele><time>2026-04-09T17:37:49.09Z</time></trkpt><trkpt lat="40.6335333" lon="14.83493"><ele>6.0</ele><time>2026-04-09T17:37:50.09Z</time></trkpt><trkpt lat="40.6336083" lon="14.8349033"><ele>6.0</ele><time>2026-04-09T17:37:51.09Z</time></trkpt><trkpt lat="40.633685" lon="14.8348983"><ele>6.0</ele><time>2026-04-09T17:37:52.09Z</time></trkpt><trkpt lat="40.6337617" lon="14.834915"><ele>6.0</ele><time>2026-04-09T17:37:53.09Z</time></trkpt><trkpt lat="40.6338317" lon="14.834965"><ele>6.0</ele><time>2026-04-09T17:37:54.09Z</time></trkpt><trkpt lat="40.6338983" lon="14.8350517"><ele>6.0</ele><time>2026-04-09T17:37:55.09Z</time></trkpt><trkpt lat="40.6339883" lon="14.8351567"><ele>6.0</ele><time>2026-04-09T17:37:56.09Z</time></trkpt><trkpt lat="40.6340883" lon="14.8352767"><ele>6.0</ele><time>2026-04-09T17:37:57.09Z</time></trkpt><trkpt lat="40.6341967" lon="14.8354067"><ele>6.0</ele><time>2026-04-09T17:37:58.09Z</time></trkpt><trkpt lat="40.634295" lon="14.8355267"><ele>6.0</ele><time>2026-04-09T17:37:59.09Z</time></trkpt><trkpt lat="40.634395" lon="14.8356333"><ele>6.0</ele><time>2026-04-09T17:38:00.09Z</time></trkpt><trkpt lat="40.63449" lon="14.8357467"><ele>6.0</ele><time>2026-04-09T17:38:01.09Z</time></trkpt><trkpt lat="40.6345783" lon="14.8358517"><ele>6.0</ele><time>2026-04-09T17:38:02.09Z</time></trkpt><trkpt lat="40.6346633" lon="14.8359517"><ele>6.0</ele><time>2026-04-09T17:38:03.09Z</time></trkpt><trkpt lat="40.634745" lon="14.8360483"><ele>6.0</ele><time>2026-04-09T17:38:04.09Z</time></trkpt><trkpt lat="40.6348217" lon="14.83614"><ele>6.0</ele><time>2026-04-09T17:38:05.09Z</time></trkpt><trkpt lat="40.6348983" lon="14.8362167"><ele>6.0</ele><time>2026-04-09T17:38:06.09Z</time></trkpt><trkpt lat="40.6349633" lon="14.8362933"><ele>6.0</ele><time>2026-04-09T17:38:07.09Z</time></trkpt><trkpt lat="40.6350267" lon="14.8363533"><ele>6.0</ele><time>2026-04-09T17:38:08.09Z</time></trkpt><trkpt lat="40.6350767" lon="14.8364083"><ele>6.0</ele><time>2026-04-09T17:38:09.09Z</time></trkpt><trkpt lat="40.6351533" lon="14.8364867"><ele>6.0</ele><time>2026-04-09T17:38:11.09Z</time></trkpt><trkpt lat="40.6352117" lon="14.8365517"><ele>6.0</ele><time>2026-04-09T17:38:14.09Z</time></trkpt><trkpt lat="40.6352567" lon="14.8366117"><ele>6.0</ele><time>2026-04-09T17:38:17.09Z</time></trkpt><trkpt lat="40.6352933" lon="14.8367267"><ele>6.0</ele><time>2026-04-09T17:38:19.09Z</time></trkpt><trkpt lat="40.6353167" lon="14.836855"><ele>7.0</ele><time>2026-04-09T17:38:21.09Z</time></trkpt><trkpt lat="40.6353733" lon="14.8369883"><ele>8.0</ele><time>2026-04-09T17:46:11.09Z</time></trkpt><trkpt lat="40.6354533" lon="14.8372717"><ele>9.0</ele><time>2026-04-09T17:46:14.09Z</time></trkpt><trkpt lat="40.6354367" lon="14.8374383"><ele>9.0</ele><time>2026-04-09T17:46:15.09Z</time></trkpt><trkpt lat="40.6353967" lon="14.8376133"><ele>9.0</ele><time>2026-04-09T17:46:16.09Z</time></trkpt><trkpt lat="40.6353583" lon="14.8377717"><ele>9.0</ele><time>2026-04-09T17:46:17.09Z</time></trkpt><trkpt lat="40.6353117" lon="14.8379117"><ele>9.0</ele><time>2026-04-09T17:46:18.09Z</time></trkpt><trkpt lat="40.635255" lon="14.8380433"><ele>8.8</ele><time>2026-04-09T17:46:19.09Z</time></trkpt><trkpt lat="40.6351867" lon="14.838165"><ele>8.600000000000001</ele><time>2026-04-09T17:46:20.09Z</time></trkpt><trkpt lat="40.6351183" lon="14.838275"><ele>8.4</ele><time>2026-04-09T17:46:21.09Z</time></trkpt><trkpt lat="40.6350533" lon="14.8383717"><ele>8.200000000000001</ele><time>2026-04-09T17:46:22.09Z</time></trkpt><trkpt lat="40.6350017" lon="14.838455"><ele>8.0</ele><time>2026-04-09T17:46:23.09Z</time></trkpt><trkpt lat="40.63495" lon="14.8385367"><ele>8.0</ele><time>2026-04-09T17:46:24.09Z</time></trkpt><trkpt lat="40.6349017" lon="14.8386267"><ele>8.0</ele><time>2026-04-09T17:46:25.09Z</time></trkpt><trkpt lat="40.63486" lon="14.8387233"><ele>8.0</ele><time>2026-04-09T17:46:26.09Z</time></trkpt><trkpt lat="40.6348283" lon="14.838855"><ele>8.0</ele><time>2026-04-09T17:46:27.09Z</time></trkpt><trkpt lat="40.63481" lon="14.8390167"><ele>8.0</ele><time>2026-04-09T17:46:28.09Z</time></trkpt><trkpt lat="40.6347933" lon="14.8391833"><ele>8.25</ele><time>2026-04-09T17:46:29.09Z</time></trkpt><trkpt lat="40.6347783" lon="14.8393583"><ele>8.5</ele><time>2026-04-09T17:46:30.09Z</time></trkpt><trkpt lat="40.63475" lon="14.8395417"><ele>8.75</ele><time>2026-04-09T17:46:31.09Z</time></trkpt><trkpt lat="40.6347017" lon="14.8397167"><ele>9.0</ele><time>2026-04-09T17:46:32.09Z</time></trkpt><trkpt lat="40.634645" lon="14.8398967"><ele>9.0</ele><time>2026-04-09T17:46:33.09Z</time></trkpt><trkpt lat="40.6345667" lon="14.8400867"><ele>9.0</ele><time>2026-04-09T17:46:34.09Z</time></trkpt><trkpt lat="40.6344683" lon="14.8402933"><ele>9.0</ele><time>2026-04-09T17:46:35.09Z</time></trkpt><trkpt lat="40.6343733" lon="14.8405133"><ele>9.0</ele><time>2026-04-09T17:46:36.09Z</time></trkpt><trkpt lat="40.6342767" lon="14.840735"><ele>9.0</ele><time>2026-04-09T17:46:37.09Z</time></trkpt><trkpt lat="40.63417" lon="14.8409733"><ele>9.0</ele><time>2026-04-09T17:46:38.09Z</time></trkpt><trkpt lat="40.6340667" lon="14.84122"><ele>8.0</ele><time>2026-04-09T17:46:39.09Z</time></trkpt><trkpt lat="40.6339433" lon="14.8414833"><ele>7.0</ele><time>2026-04-09T17:46:40.09Z</time></trkpt><trkpt lat="40.6338183" lon="14.84176"><ele>7.5</ele><time>2026-04-09T17:46:41.09Z</time></trkpt><trkpt lat="40.6336983" lon="14.84205"><ele>8.0</ele><time>2026-04-09T17:46:42.09Z</time></trkpt><trkpt lat="40.6335817" lon="14.8423333"><ele>8.5</ele><time>2026-04-09T17:46:43.09Z</time></trkpt><trkpt lat="40.633475" lon="14.842605"><ele>9.0</ele><time>2026-04-09T17:46:44.09Z</time></trkpt><trkpt lat="40.6333667" lon="14.84286"><ele>9.0</ele><time>2026-04-09T17:46:45.09Z</time></trkpt><trkpt lat="40.6332633" lon="14.8431133"><ele>9.0</ele><time>2026-04-09T17:46:46.09Z</time></trkpt><trkpt lat="40.6331633" lon="14.8433617"><ele>9.0</ele><time>2026-04-09T17:46:47.09Z</time></trkpt><trkpt lat="40.63306" lon="14.843615"><ele>8.666666666666666</ele><time>2026-04-09T17:46:48.09Z</time></trkpt><trkpt lat="40.632955" lon="14.843875"><ele>8.333333333333332</ele><time>2026-04-09T17:46:49.09Z</time></trkpt><trkpt lat="40.6328567" lon="14.84413"><ele>8.0</ele><time>2026-04-09T17:46:50.09Z</time></trkpt><trkpt lat="40.6327567" lon="14.8443683"><ele>7.666666666666666</ele><time>2026-04-09T17:46:51.09Z</time></trkpt><trkpt lat="40.6326567" lon="14.8445967"><ele>7.333333333333334</ele><time>2026-04-09T17:46:52.09Z</time></trkpt><trkpt lat="40.6325583" lon="14.844815"><ele>7.0</ele><time>2026-04-09T17:46:53.09Z</time></trkpt><trkpt lat="40.632455" lon="14.8450233"><ele>7.666666666666667</ele><time>2026-04-09T17:46:54.09Z</time></trkpt><trkpt lat="40.632375" lon="14.8452367"><ele>8.333333333333334</ele><time>2026-04-09T17:46:55.09Z</time></trkpt><trkpt lat="40.6322933" lon="14.8454533"><ele>9.0</ele><time>2026-04-09T17:46:56.09Z</time></trkpt><trkpt lat="40.6322233" lon="14.8456733"><ele>9.0</ele><time>2026-04-09T17:46:57.09Z</time></trkpt><trkpt lat="40.6321567" lon="14.845895"><ele>9.0</ele><time>2026-04-09T17:46:58.09Z</time></trkpt><trkpt lat="40.6321033" lon="14.8461033"><ele>9.0</ele><time>2026-04-09T17:46:59.09Z</time></trkpt><trkpt lat="40.632055" lon="14.84631"><ele>9.0</ele><time>2026-04-09T17:47:00.09Z</time></trkpt><trkpt lat="40.63201" lon="14.846525"><ele>9.0</ele><time>2026-04-09T17:47:01.09Z</time></trkpt><trkpt lat="40.6319667" lon="14.84674"><ele>9.0</ele><time>2026-04-09T17:47:02.09Z</time></trkpt><trkpt lat="40.6319417" lon="14.8469567"><ele>10.0</ele><time>2026-04-09T17:47:03.09Z</time></trkpt><trkpt lat="40.631935" lon="14.8471733"><ele>11.0</ele><time>2026-04-09T17:47:04.09Z</time></trkpt><trkpt lat="40.6319167" lon="14.8473767"><ele>12.0</ele><time>2026-04-09T17:47:05.09Z</time></trkpt><trkpt lat="40.6319217" lon="14.8475717"><ele>12.25</ele><time>2026-04-09T17:47:06.09Z</time></trkpt><trkpt lat="40.6319333" lon="14.8477583"><ele>12.5</ele><time>2026-04-09T17:47:07.09Z</time></trkpt><trkpt lat="40.6319483" lon="14.8479467"><ele>12.75</ele><time>2026-04-09T17:47:08.09Z</time></trkpt><trkpt lat="40.6319667" lon="14.8481433"><ele>13.0</ele><time>2026-04-09T17:47:09.09Z</time></trkpt><trkpt lat="40.6319867" lon="14.848345"><ele>12.333333333333332</ele><time>2026-04-09T17:47:10.09Z</time></trkpt><trkpt lat="40.63203" lon="14.8485517"><ele>11.666666666666666</ele><time>2026-04-09T17:47:11.09Z</time></trkpt><trkpt lat="40.6320883" lon="14.8487633"><ele>11.0</ele><time>2026-04-09T17:47:12.09Z</time></trkpt><trkpt lat="40.6321483" lon="14.8489683"><ele>11.0</ele><time>2026-04-09T17:47:13.09Z</time></trkpt><trkpt lat="40.632225" lon="14.8491683"><ele>11.0</ele><time>2026-04-09T17:47:14.09Z</time></trkpt><trkpt lat="40.6323283" lon="14.84937"><ele>11.0</ele><time>2026-04-09T17:47:15.09Z</time></trkpt><trkpt lat="40.632415" lon="14.8495733"><ele>11.0</ele><time>2026-04-09T17:47:16.09Z</time></trkpt><trkpt lat="40.6324933" lon="14.84978"><ele>11.0</ele><time>2026-04-09T17:47:17.09Z</time></trkpt><trkpt lat="40.632585" lon="14.8499817"><ele>11.0</ele><time>2026-04-09T17:47:18.09Z</time></trkpt><trkpt lat="40.632685" lon="14.850185"><ele>11.0</ele><time>2026-04-09T17:47:19.09Z</time></trkpt><trkpt lat="40.6327917" lon="14.850385"><ele>11.0</ele><time>2026-04-09T17:47:20.09Z</time></trkpt><trkpt lat="40.632905" lon="14.8505683"><ele>11.0</ele><time>2026-04-09T17:47:21.09Z</time></trkpt><trkpt lat="40.633015" lon="14.8507433"><ele>11.666666666666666</ele><time>2026-04-09T17:47:22.09Z</time></trkpt><trkpt lat="40.6331283" lon="14.8509117"><ele>12.333333333333332</ele><time>2026-04-09T17:47:23.09Z</time></trkpt><trkpt lat="40.6332517" lon="14.8510733"><ele>13.0</ele><time>2026-04-09T17:47:24.09Z</time></trkpt><trkpt lat="40.633375" lon="14.851215"><ele>13.0</ele><time>2026-04-09T17:47:25.09Z</time></trkpt><trkpt lat="40.6334917" lon="14.851365"><ele>13.0</ele><time>2026-04-09T17:47:26.09Z</time></trkpt><trkpt lat="40.6336117" lon="14.8515"><ele>13.0</ele><time>2026-04-09T17:47:27.09Z</time></trkpt><trkpt lat="40.6337283" lon="14.8516367"><ele>13.333333333333332</ele><time>2026-04-09T17:47:28.09Z</time></trkpt><trkpt lat="40.6338517" lon="14.8517817"><ele>13.666666666666668</ele><time>2026-04-09T17:47:29.09Z</time></trkpt><trkpt lat="40.6339717" lon="14.8519283"><ele>14.0</ele><time>2026-04-09T17:47:30.09Z</time></trkpt><trkpt lat="40.6340917" lon="14.85207"><ele>13.333333333333334</ele><time>2026-04-09T17:47:31.09Z</time></trkpt><trkpt lat="40.63421" lon="14.85222"><ele>12.666666666666668</ele><time>2026-04-09T17:47:32.09Z</time></trkpt><trkpt lat="40.6343333" lon="14.85237"><ele>12.0</ele><time>2026-04-09T17:47:33.09Z</time></trkpt><trkpt lat="40.6344567" lon="14.85252"><ele>12.333333333333332</ele><time>2026-04-09T17:47:34.09Z</time></trkpt><trkpt lat="40.6345817" lon="14.8526717"><ele>12.666666666666666</ele><time>2026-04-09T17:47:35.09Z</time></trkpt><trkpt lat="40.6347" lon="14.8528267"><ele>13.0</ele><time>2026-04-09T17:47:36.09Z</time></trkpt><trkpt lat="40.634815" lon="14.8529733"><ele>13.0</ele><time>2026-04-09T17:47:37.09Z</time></trkpt><trkpt lat="40.63492" lon="14.8531133"><ele>13.0</ele><time>2026-04-09T17:47:38.09Z</time></trkpt><trkpt lat="40.6350167" lon="14.853245"><ele>13.0</ele><time>2026-04-09T17:47:39.09Z</time></trkpt><trkpt lat="40.6351067" lon="14.8533633"><ele>13.0</ele><time>2026-04-09T17:47:40.09Z</time></trkpt><trkpt lat="40.6351917" lon="14.8534683"><ele>12.999999999999998</ele><time>2026-04-09T17:47:41.09Z</time></trkpt><trkpt lat="40.63525" lon="14.8535617"><ele>13.0</ele><time>2026-04-09T17:47:42.09Z</time></trkpt><trkpt lat="40.6352983" lon="14.8536433"><ele>13.0</ele><time>2026-04-09T17:47:43.09Z</time></trkpt><trkpt lat="40.6353217" lon="14.8537233"><ele>13.0</ele><time>2026-04-09T17:47:44.09Z</time></trkpt><trkpt lat="40.63531" lon="14.8538783"><ele>12.999999999999998</ele><time>2026-04-09T17:47:46.09Z</time></trkpt><trkpt lat="40.635275" lon="14.85396"><ele>13.0</ele><time>2026-04-09T17:47:47.09Z</time></trkpt><trkpt lat="40.6352167" lon="14.8540483"><ele>13.0</ele><time>2026-04-09T17:47:48.09Z</time></trkpt><trkpt lat="40.63515" lon="14.8541533"><ele>13.0</ele><time>2026-04-09T17:47:49.09Z</time></trkpt><trkpt lat="40.6350633" lon="14.854275"><ele>13.0</ele><time>2026-04-09T17:47:50.09Z</time></trkpt><trkpt lat="40.63496" lon="14.8544117"><ele>13.0</ele><time>2026-04-09T17:47:51.09Z</time></trkpt><trkpt lat="40.6348667" lon="14.8545617"><ele>13.75</ele><time>2026-04-09T17:47:52.09Z</time></trkpt><trkpt lat="40.6347767" lon="14.854715"><ele>14.5</ele><time>2026-04-09T17:47:53.09Z</time></trkpt><trkpt lat="40.6346867" lon="14.85487"><ele>15.25</ele><time>2026-04-09T17:47:54.09Z</time></trkpt><trkpt lat="40.6345983" lon="14.855025"><ele>16.0</ele><time>2026-04-09T17:47:55.09Z</time></trkpt><trkpt lat="40.634505" lon="14.8551867"><ele>15.5</ele><time>2026-04-09T17:47:56.09Z</time></trkpt><trkpt lat="40.634415" lon="14.8553417"><ele>15.0</ele><time>2026-04-09T17:47:57.09Z</time></trkpt><trkpt lat="40.6343333" lon="14.855495"><ele>14.5</ele><time>2026-04-09T17:47:58.09Z</time></trkpt><trkpt lat="40.634245" lon="14.8556383"><ele>14.0</ele><time>2026-04-09T17:47:59.09Z</time></trkpt><trkpt lat="40.63415" lon="14.8557683"><ele>14.0</ele><time>2026-04-09T17:48:00.09Z</time></trkpt><trkpt lat="40.6340533" lon="14.8559"><ele>14.0</ele><time>2026-04-09T17:48:01.09Z</time></trkpt><trkpt lat="40.6339333" lon="14.8560367"><ele>14.0</ele><time>2026-04-09T17:48:02.09Z</time></trkpt><trkpt lat="40.6338033" lon="14.8561717"><ele>13.75</ele><time>2026-04-09T17:48:03.09Z</time></trkpt><trkpt lat="40.6336783" lon="14.8562967"><ele>13.5</ele><time>2026-04-09T17:48:04.09Z</time></trkpt><trkpt lat="40.63356" lon="14.8564133"><ele>13.25</ele><time>2026-04-09T17:48:05.09Z</time></trkpt><trkpt lat="40.63345" lon="14.8565233"><ele>13.0</ele><time>2026-04-09T17:48:06.09Z</time></trkpt><trkpt lat="40.6333317" lon="14.85663"><ele>13.0</ele><time>2026-04-09T17:48:07.09Z</time></trkpt><trkpt lat="40.6332167" lon="14.85672"><ele>13.0</ele><time>2026-04-09T17:48:08.09Z</time></trkpt><trkpt lat="40.6331" lon="14.8567967"><ele>13.0</ele><time>2026-04-09T17:48:09.09Z</time></trkpt><trkpt lat="40.632975" lon="14.8568617"><ele>13.0</ele><time>2026-04-09T17:48:10.09Z</time></trkpt><trkpt lat="40.6328517" lon="14.8569017"><ele>13.0</ele><time>2026-04-09T17:48:11.09Z</time></trkpt><trkpt lat="40.63272" lon="14.8569167"><ele>13.0</ele><time>2026-04-09T17:48:12.09Z</time></trkpt><trkpt lat="40.632585" lon="14.8569117"><ele>13.0</ele><time>2026-04-09T17:48:13.09Z</time></trkpt><trkpt lat="40.6324483" lon="14.8569117"><ele>13.0</ele><time>2026-04-09T17:48:14.09Z</time></trkpt><trkpt lat="40.6323117" lon="14.8569183"><ele>13.0</ele><time>2026-04-09T17:48:15.09Z</time></trkpt><trkpt lat="40.6321883" lon="14.8569467"><ele>13.0</ele><time>2026-04-09T17:48:16.09Z</time></trkpt><trkpt lat="40.6320783" lon="14.8569917"><ele>13.0</ele><time>2026-04-09T17:48:17.09Z</time></trkpt><trkpt lat="40.6319917" lon="14.8570417"><ele>13.0</ele><time>2026-04-09T17:48:18.091Z</time></trkpt><trkpt lat="40.63192" lon="14.857095"><ele>13.0</ele><time>2026-04-09T17:48:19.09Z</time></trkpt><trkpt lat="40.6318417" lon="14.8571367"><ele>12.833333333333332</ele><time>2026-04-09T17:48:20.09Z</time></trkpt><trkpt lat="40.6317633" lon="14.8571633"><ele>12.666666666666666</ele><time>2026-04-09T17:48:21.09Z</time></trkpt><trkpt lat="40.6316733" lon="14.857175"><ele>12.5</ele><time>2026-04-09T17:48:22.09Z</time></trkpt><trkpt lat="40.6315833" lon="14.857175"><ele>12.333333333333332</ele><time>2026-04-09T17:48:23.09Z</time></trkpt><trkpt lat="40.6314967" lon="14.85717"><ele>12.166666666666666</ele><time>2026-04-09T17:48:24.09Z</time></trkpt><trkpt lat="40.6314083" lon="14.8571433"><ele>12.0</ele><time>2026-04-09T17:48:25.09Z</time></trkpt><trkpt lat="40.6313283" lon="14.85709"><ele>12.0</ele><time>2026-04-09T17:48:26.09Z</time></trkpt><trkpt lat="40.6312433" lon="14.8570017"><ele>12.0</ele><time>2026-04-09T17:48:27.09Z</time></trkpt><trkpt lat="40.631135" lon="14.8568983"><ele>12.0</ele><time>2026-04-09T17:48:28.09Z</time></trkpt><trkpt lat="40.63102" lon="14.8567817"><ele>12.0</ele><time>2026-04-09T17:48:29.09Z</time></trkpt><trkpt lat="40.6309" lon="14.8566517"><ele>12.0</ele><time>2026-04-09T17:48:30.09Z</time></trkpt><trkpt lat="40.63078" lon="14.8565083"><ele>12.0</ele><time>2026-04-09T17:48:31.09Z</time></trkpt><trkpt lat="40.6306633" lon="14.856375"><ele>12.0</ele><time>2026-04-09T17:48:32.09Z</time></trkpt><trkpt lat="40.6305533" lon="14.85625"><ele>12.0</ele><time>2026-04-09T17:48:33.09Z</time></trkpt><trkpt lat="40.630455" lon="14.8561433"><ele>12.0</ele><time>2026-04-09T17:48:34.09Z</time></trkpt><trkpt lat="40.6303617" lon="14.8560433"><ele>12.0</ele><time>2026-04-09T17:48:35.09Z</time></trkpt><trkpt lat="40.6302817" lon="14.8559383"><ele>12.0</ele><time>2026-04-09T17:48:36.09Z</time></trkpt><trkpt lat="40.6301983" lon="14.8558467"><ele>11.5</ele><time>2026-04-09T17:48:37.09Z</time></trkpt><trkpt lat="40.6301" lon="14.85576"><ele>11.0</ele><time>2026-04-09T17:48:38.09Z</time></trkpt><trkpt lat="40.6299817" lon="14.8556833"><ele>10.5</ele><time>2026-04-09T17:48:39.09Z</time></trkpt><trkpt lat="40.6298533" lon="14.8556117"><ele>10.0</ele><time>2026-04-09T17:48:40.09Z</time></trkpt><trkpt lat="40.6297183" lon="14.8555483"><ele>10.0</ele><time>2026-04-09T17:48:41.09Z</time></trkpt><trkpt lat="40.6295983" lon="14.85549"><ele>10.0</ele><time>2026-04-09T17:48:42.09Z</time></trkpt><trkpt lat="40.6294783" lon="14.8554267"><ele>10.0</ele><time>2026-04-09T17:48:43.09Z</time></trkpt><trkpt lat="40.6293667" lon="14.8553683"><ele>10.0</ele><time>2026-04-09T17:48:44.09Z</time></trkpt><trkpt lat="40.6292617" lon="14.8553067"><ele>10.0</ele><time>2026-04-09T17:48:45.09Z</time></trkpt><trkpt lat="40.6291633" lon="14.85523"><ele>10.0</ele><time>2026-04-09T17:48:46.09Z</time></trkpt><trkpt lat="40.6290583" lon="14.8551283"><ele>10.0</ele><time>2026-04-09T17:48:47.09Z</time></trkpt><trkpt lat="40.628945" lon="14.8550133"><ele>10.0</ele><time>2026-04-09T17:48:48.09Z</time></trkpt><trkpt lat="40.6288133" lon="14.85488"><ele>10.0</ele><time>2026-04-09T17:48:49.09Z</time></trkpt><trkpt lat="40.62867" lon="14.8547417"><ele>10.0</ele><time>2026-04-09T17:48:50.09Z</time></trkpt><trkpt lat="40.6285317" lon="14.8546"><ele>10.0</ele><time>2026-04-09T17:48:51.09Z</time></trkpt><trkpt lat="40.62839" lon="14.854465"><ele>10.0</ele><time>2026-04-09T17:48:52.09Z</time></trkpt><trkpt lat="40.6282483" lon="14.8543233"><ele>10.0</ele><time>2026-04-09T17:48:53.09Z</time></trkpt><trkpt lat="40.6281067" lon="14.854185"><ele>10.0</ele><time>2026-04-09T17:48:54.09Z</time></trkpt><trkpt lat="40.62796" lon="14.854045"><ele>9.666666666666668</ele><time>2026-04-09T17:48:55.09Z</time></trkpt><trkpt lat="40.6278183" lon="14.8539017"><ele>9.333333333333334</ele><time>2026-04-09T17:48:56.09Z</time></trkpt><trkpt lat="40.6276717" lon="14.8537583"><ele>9.0</ele><time>2026-04-09T17:48:57.09Z</time></trkpt><trkpt lat="40.6275267" lon="14.853625"><ele>8.666666666666666</ele><time>2026-04-09T17:48:58.09Z</time></trkpt><trkpt lat="40.6273817" lon="14.853495"><ele>8.333333333333332</ele><time>2026-04-09T17:48:59.09Z</time></trkpt><trkpt lat="40.627255" lon="14.8533717"><ele>8.0</ele><time>2026-04-09T17:49:00.09Z</time></trkpt><trkpt lat="40.6271383" lon="14.853255"><ele>7.5</ele><time>2026-04-09T17:49:01.09Z</time></trkpt><trkpt lat="40.6270317" lon="14.853145"><ele>7.0</ele><time>2026-04-09T17:49:02.09Z</time></trkpt><trkpt lat="40.6269317" lon="14.8530433"><ele>6.5</ele><time>2026-04-09T17:49:03.09Z</time></trkpt><trkpt lat="40.62684" lon="14.8529617"><ele>6.0</ele><time>2026-04-09T17:49:04.09Z</time></trkpt><trkpt lat="40.6267683" lon="14.8528933"><ele>6.0</ele><time>2026-04-09T17:49:05.09Z</time></trkpt><trkpt lat="40.6267133" lon="14.85284"><ele>6.0</ele><time>2026-04-09T17:49:06.09Z</time></trkpt><trkpt lat="40.6266567" lon="14.8527117"><ele>6.0</ele><time>2026-04-09T17:49:08.09Z</time></trkpt><trkpt lat="40.6266717" lon="14.8526217"><ele>6.0</ele><time>2026-04-09T17:49:09.09Z</time></trkpt><trkpt lat="40.626705" lon="14.8525167"><ele>6.0</ele><time>2026-04-09T17:49:10.09Z</time></trkpt><trkpt lat="40.6267517" lon="14.85239"><ele>6.0</ele><time>2026-04-09T17:49:11.09Z</time></trkpt><trkpt lat="40.626795" lon="14.85226"><ele>6.199999999999999</ele><time>2026-04-09T17:49:12.09Z</time></trkpt><trkpt lat="40.6268333" lon="14.8521483"><ele>6.3999999999999995</ele><time>2026-04-09T17:49:13.09Z</time></trkpt><trkpt lat="40.626865" lon="14.8520533"><ele>6.6</ele><time>2026-04-09T17:49:14.09Z</time></trkpt><trkpt lat="40.626885" lon="14.851915"><ele>6.8</ele><time>2026-04-09T17:49:16.09Z</time></trkpt><trkpt lat="40.6268283" lon="14.85181"><ele>7.0</ele><time>2026-04-09T17:49:18.09Z</time></trkpt><trkpt lat="40.6267667" lon="14.8517417"><ele>7.5</ele><time>2026-04-09T17:49:19.09Z</time></trkpt><trkpt lat="40.626675" lon="14.8516667"><ele>8.0</ele><time>2026-04-09T17:49:20.09Z</time></trkpt><trkpt lat="40.6265767" lon="14.8515867"><ele>8.5</ele><time>2026-04-09T17:49:21.09Z</time></trkpt><trkpt lat="40.62647" lon="14.8515017"><ele>9.0</ele><time>2026-04-09T17:49:22.09Z</time></trkpt><trkpt lat="40.6263567" lon="14.8513983"><ele>9.0</ele><time>2026-04-09T17:49:23.09Z</time></trkpt><trkpt lat="40.6262283" lon="14.8512917"><ele>9.0</ele><time>2026-04-09T17:49:24.09Z</time></trkpt><trkpt lat="40.626105" lon="14.851185"><ele>9.0</ele><time>2026-04-09T17:49:25.09Z</time></trkpt><trkpt lat="40.6259683" lon="14.8510633"><ele>8.0</ele><time>2026-04-09T17:49:26.09Z</time></trkpt><trkpt lat="40.62583" lon="14.850945"><ele>7.0</ele><time>2026-04-09T17:49:27.09Z</time></trkpt><trkpt lat="40.6257033" lon="14.85083"><ele>6.0</ele><time>2026-04-09T17:49:28.09Z</time></trkpt><trkpt lat="40.6255767" lon="14.8507217"><ele>6.0</ele><time>2026-04-09T17:49:29.09Z</time></trkpt><trkpt lat="40.625455" lon="14.850615"><ele>6.0</ele><time>2026-04-09T17:49:30.09Z</time></trkpt><trkpt lat="40.6253383" lon="14.850515"><ele>6.0</ele><time>2026-04-09T17:49:31.09Z</time></trkpt><trkpt lat="40.6252217" lon="14.850415"><ele>6.0</ele><time>2026-04-09T17:49:32.09Z</time></trkpt><trkpt lat="40.62511" lon="14.850315"><ele>5.75</ele><time>2026-04-09T17:49:33.09Z</time></trkpt><trkpt lat="40.6250017" lon="14.8502217"><ele>5.5</ele><time>2026-04-09T17:49:34.09Z</time></trkpt><trkpt lat="40.624905" lon="14.8501333"><ele>5.25</ele><time>2026-04-09T17:49:35.09Z</time></trkpt><trkpt lat="40.6248133" lon="14.8500417"><ele>5.0</ele><time>2026-04-09T17:49:36.09Z</time></trkpt><trkpt lat="40.6247267" lon="14.8499617"><ele>5.0</ele><time>2026-04-09T17:49:37.09Z</time></trkpt><trkpt lat="40.624645" lon="14.849895"><ele>5.0</ele><time>2026-04-09T17:49:38.09Z</time></trkpt><trkpt lat="40.6245767" lon="14.8498367"><ele>5.0</ele><time>2026-04-09T17:49:39.09Z</time></trkpt><trkpt lat="40.6245233" lon="14.8497733"><ele>5.0</ele><time>2026-04-09T17:49:40.09Z</time></trkpt><trkpt lat="40.62447" lon="14.8496833"><ele>5.0</ele><time>2026-04-09T17:49:41.09Z</time></trkpt><trkpt lat="40.6244033" lon="14.8495633"><ele>5.0</ele><time>2026-04-09T17:49:42.09Z</time></trkpt><trkpt lat="40.62433" lon="14.8494067"><ele>4.75</ele><time>2026-04-09T17:49:43.09Z</time></trkpt><trkpt lat="40.62425" lon="14.8492433"><ele>4.5</ele><time>2026-04-09T17:49:44.09Z</time></trkpt><trkpt lat="40.6241717" lon="14.8490783"><ele>4.25</ele><time>2026-04-09T17:49:45.09Z</time></trkpt><trkpt lat="40.62409" lon="14.84891"><ele>4.0</ele><time>2026-04-09T17:49:46.09Z</time></trkpt><trkpt lat="40.624005" lon="14.84874"><ele>4.0</ele><time>2026-04-09T17:49:47.09Z</time></trkpt><trkpt lat="40.623925" lon="14.8485667"><ele>4.0</ele><time>2026-04-09T17:49:48.09Z</time></trkpt><trkpt lat="40.6238433" lon="14.8484"><ele>4.0</ele><time>2026-04-09T17:49:49.09Z</time></trkpt><trkpt lat="40.6237567" lon="14.8482467"><ele>4.0</ele><time>2026-04-09T17:49:50.09Z</time></trkpt><trkpt lat="40.62368" lon="14.8480967"><ele>4.0</ele><time>2026-04-09T17:49:51.09Z</time></trkpt><trkpt lat="40.623605" lon="14.8479467"><ele>4.0</ele><time>2026-04-09T17:49:52.09Z</time></trkpt><trkpt lat="40.6235283" lon="14.8477967"><ele>4.0</ele><time>2026-04-09T17:49:53.09Z</time></trkpt><trkpt lat="40.6234483" lon="14.847645"><ele>4.0</ele><time>2026-04-09T17:49:54.09Z</time></trkpt><trkpt lat="40.6233633" lon="14.8474783"><ele>4.0</ele><time>2026-04-09T17:49:55.09Z</time></trkpt><trkpt lat="40.623275" lon="14.8473167"><ele>4.0</ele><time>2026-04-09T17:49:56.09Z</time></trkpt><trkpt lat="40.6231867" lon="14.84715"><ele>4.0</ele><time>2026-04-09T17:49:57.09Z</time></trkpt><trkpt lat="40.6231033" lon="14.8469967"><ele>4.0</ele><time>2026-04-09T17:49:58.09Z</time></trkpt><trkpt lat="40.623025" lon="14.8468467"><ele>4.0</ele><time>2026-04-09T17:49:59.09Z</time></trkpt><trkpt lat="40.6229383" lon="14.8467"><ele>4.0</ele><time>2026-04-09T17:50:00.09Z</time></trkpt><trkpt lat="40.6228617" lon="14.8465533"><ele>4.0</ele><time>2026-04-09T17:50:01.09Z</time></trkpt><trkpt lat="40.62279" lon="14.84641"><ele>4.0</ele><time>2026-04-09T17:50:02.09Z</time></trkpt><trkpt lat="40.6227167" lon="14.846285"><ele>4.0</ele><time>2026-04-09T17:50:03.09Z</time></trkpt><trkpt lat="40.62265" lon="14.8461633"><ele>4.0</ele><time>2026-04-09T17:50:04.09Z</time></trkpt><trkpt lat="40.6225867" lon="14.846045"><ele>4.0</ele><time>2026-04-09T17:50:05.09Z</time></trkpt><trkpt lat="40.6225183" lon="14.8459267"><ele>4.0</ele><time>2026-04-09T17:50:06.09Z</time></trkpt><trkpt lat="40.6224433" lon="14.8458183"><ele>4.0</ele><time>2026-04-09T17:50:07.09Z</time></trkpt><trkpt lat="40.6223767" lon="14.845725"><ele>4.0</ele><time>2026-04-09T17:50:08.09Z</time></trkpt><trkpt lat="40.6223217" lon="14.8456533"><ele>4.0</ele><time>2026-04-09T17:50:09.09Z</time></trkpt><trkpt lat="40.622275" lon="14.8455867"><ele>4.0</ele><time>2026-04-09T17:50:10.09Z</time></trkpt><trkpt lat="40.622175" lon="14.8455467"><ele>4.0</ele><time>2026-04-09T17:50:12.09Z</time></trkpt><trkpt lat="40.622055" lon="14.8456367"><ele>4.0</ele><time>2026-04-09T17:50:14.09Z</time></trkpt><trkpt lat="40.6219983" lon="14.8457183"><ele>4.0</ele><time>2026-04-09T17:50:15.09Z</time></trkpt><trkpt lat="40.621945" lon="14.8457967"><ele>4.0</ele><time>2026-04-09T17:50:16.09Z</time></trkpt><trkpt lat="40.6218933" lon="14.8458517"><ele>4.0</ele><time>2026-04-09T17:50:17.09Z</time></trkpt><trkpt lat="40.621785" lon="14.8458817"><ele>4.0</ele><time>2026-04-09T17:50:19.09Z</time></trkpt><trkpt lat="40.6217217" lon="14.8458433"><ele>4.0</ele><time>2026-04-09T17:50:20.09Z</time></trkpt><trkpt lat="40.62166" lon="14.8457567"><ele>4.0</ele><time>2026-04-09T17:50:21.09Z</time></trkpt><trkpt lat="40.6215917" lon="14.84564"><ele>4.0</ele><time>2026-04-09T17:50:22.09Z</time></trkpt><trkpt lat="40.621525" lon="14.845525"><ele>3.9999999999999996</ele><time>2026-04-09T17:50:23.09Z</time></trkpt><trkpt lat="40.6214617" lon="14.8454283"><ele>4.0</ele><time>2026-04-09T17:50:24.09Z</time></trkpt><trkpt lat="40.621405" lon="14.845345"><ele>4.0</ele><time>2026-04-09T17:50:25.09Z</time></trkpt><trkpt lat="40.6213583" lon="14.8452767"><ele>4.0</ele><time>2026-04-09T17:50:26.09Z</time></trkpt><trkpt lat="40.6212917" lon="14.8451883"><ele>3.9999999999999996</ele><time>2026-04-09T17:50:28.09Z</time></trkpt><trkpt lat="40.6212267" lon="14.845145"><ele>4.0</ele><time>2026-04-09T17:50:33.09Z</time></trkpt><trkpt lat="40.6211483" lon="14.8451983"><ele>4.0</ele><time>2026-04-09T17:50:35.09Z</time></trkpt><trkpt lat="40.6210867" lon="14.845265"><ele>4.0</ele><time>2026-04-09T17:50:36.09Z</time></trkpt><trkpt lat="40.6210183" lon="14.8453517"><ele>4.0</ele><time>2026-04-09T17:50:37.09Z</time></trkpt><trkpt lat="40.6209417" lon="14.84545"><ele>4.0</ele><time>2026-04-09T17:50:38.09Z</time></trkpt><trkpt lat="40.6208533" lon="14.845555"><ele>4.0</ele><time>2026-04-09T17:50:39.09Z</time></trkpt><trkpt lat="40.6207583" lon="14.845665"><ele>4.0</ele><time>2026-04-09T17:50:40.09Z</time></trkpt><trkpt lat="40.6206633" lon="14.8457717"><ele>4.0</ele><time>2026-04-09T17:50:41.09Z</time></trkpt><trkpt lat="40.6205567" lon="14.8458883"><ele>4.0</ele><time>2026-04-09T17:50:42.09Z</time></trkpt><trkpt lat="40.6204433" lon="14.8460083"><ele>4.0</ele><time>2026-04-09T17:50:43.09Z</time></trkpt><trkpt lat="40.620325" lon="14.8461317"><ele>3.6666666666666665</ele><time>2026-04-09T17:50:44.09Z</time></trkpt><trkpt lat="40.6201983" lon="14.8462633"><ele>3.333333333333333</ele><time>2026-04-09T17:50:45.09Z</time></trkpt><trkpt lat="40.62008" lon="14.8464"><ele>3.0</ele><time>2026-04-09T17:50:46.09Z</time></trkpt><trkpt lat="40.6199533" lon="14.84654"><ele>3.0</ele><time>2026-04-09T17:50:47.09Z</time></trkpt><trkpt lat="40.619825" lon="14.846675"><ele>3.0</ele><time>2026-04-09T17:50:48.09Z</time></trkpt><trkpt lat="40.6196967" lon="14.8468117"><ele>3.0</ele><time>2026-04-09T17:50:49.09Z</time></trkpt><trkpt lat="40.6195683" lon="14.8469567"><ele>2.0</ele><time>2026-04-09T17:50:50.09Z</time></trkpt><trkpt lat="40.61944" lon="14.847095"><ele>1.0</ele><time>2026-04-09T17:50:51.09Z</time></trkpt><trkpt lat="40.619325" lon="14.8472217"><ele>0.0</ele><time>2026-04-09T17:50:52.09Z</time></trkpt><trkpt lat="40.6192133" lon="14.8473417"><ele>0.0</ele><time>2026-04-09T17:50:53.09Z</time></trkpt><trkpt lat="40.6191" lon="14.8474617"><ele>0.0</ele><time>2026-04-09T17:50:54.09Z</time></trkpt><trkpt lat="40.6189867" lon="14.8475783"><ele>0.0</ele><time>2026-04-09T17:50:55.09Z</time></trkpt><trkpt lat="40.6188783" lon="14.8476933"><ele>0.0</ele><time>2026-04-09T17:50:56.09Z</time></trkpt><trkpt lat="40.618765" lon="14.8478083"><ele>0.5</ele><time>2026-04-09T17:50:57.09Z</time></trkpt><trkpt lat="40.61865" lon="14.8479233"><ele>1.0</ele><time>2026-04-09T17:50:58.09Z</time></trkpt><trkpt lat="40.6185383" lon="14.8480467"><ele>1.5</ele><time>2026-04-09T17:50:59.09Z</time></trkpt><trkpt lat="40.6184283" lon="14.84817"><ele>2.0</ele><time>2026-04-09T17:51:00.09Z</time></trkpt><trkpt lat="40.6183133" lon="14.8482917"><ele>2.0</ele><time>2026-04-09T17:51:01.09Z</time></trkpt><trkpt lat="40.6181967" lon="14.84842"><ele>2.0</ele><time>2026-04-09T17:51:02.09Z</time></trkpt><trkpt lat="40.6180717" lon="14.8485517"><ele>2.0</ele><time>2026-04-09T17:51:03.09Z</time></trkpt><trkpt lat="40.6179533" lon="14.84867"><ele>2.0</ele><time>2026-04-09T17:51:04.09Z</time></trkpt><trkpt lat="40.6178383" lon="14.84879"><ele>2.0</ele><time>2026-04-09T17:51:05.09Z</time></trkpt><trkpt lat="40.6177283" lon="14.8489033"><ele>2.0</ele><time>2026-04-09T17:51:06.09Z</time></trkpt><trkpt lat="40.617625" lon="14.849025"><ele>2.0</ele><time>2026-04-09T17:51:07.09Z</time></trkpt><trkpt lat="40.617515" lon="14.84915"><ele>2.0</ele><time>2026-04-09T17:51:08.09Z</time></trkpt><trkpt lat="40.617395" lon="14.8492883"><ele>2.0</ele><time>2026-04-09T17:51:09.09Z</time></trkpt><trkpt lat="40.6172667" lon="14.8494317"><ele>2.0</ele><time>2026-04-09T17:51:10.09Z</time></trkpt><trkpt lat="40.617125" lon="14.8495783"><ele>1.6666666666666665</ele><time>2026-04-09T17:51:11.09Z</time></trkpt><trkpt lat="40.6169867" lon="14.849715"><ele>1.3333333333333333</ele><time>2026-04-09T17:51:12.09Z</time></trkpt><trkpt lat="40.6168433" lon="14.8498633"><ele>1.0</ele><time>2026-04-09T17:51:13.09Z</time></trkpt><trkpt lat="40.6166967" lon="14.85001"><ele>1.6666666666666665</ele><time>2026-04-09T17:51:14.09Z</time></trkpt><trkpt lat="40.6165667" lon="14.85015"><ele>2.3333333333333335</ele><time>2026-04-09T17:51:15.09Z</time></trkpt><trkpt lat="40.6164383" lon="14.8502833"><ele>3.0</ele><time>2026-04-09T17:51:16.09Z</time></trkpt><trkpt lat="40.6163033" lon="14.8504267"><ele>3.0</ele><time>2026-04-09T17:51:17.09Z</time></trkpt><trkpt lat="40.61616" lon="14.8505783"><ele>3.0</ele><time>2026-04-09T17:51:18.09Z</time></trkpt><trkpt lat="40.6160217" lon="14.8507283"><ele>3.0</ele><time>2026-04-09T17:51:19.09Z</time></trkpt><trkpt lat="40.6158783" lon="14.8508767"><ele>3.0</ele><time>2026-04-09T17:51:20.09Z</time></trkpt><trkpt lat="40.615735" lon="14.8510233"><ele>3.0</ele><time>2026-04-09T17:51:21.09Z</time></trkpt><trkpt lat="40.6155983" lon="14.8511667"><ele>3.0</ele><time>2026-04-09T17:51:22.09Z</time></trkpt><trkpt lat="40.6154583" lon="14.8513083"><ele>2.6666666666666665</ele><time>2026-04-09T17:51:23.09Z</time></trkpt><trkpt lat="40.6153183" lon="14.8514517"><ele>2.333333333333333</ele><time>2026-04-09T17:51:24.09Z</time></trkpt><trkpt lat="40.6151733" lon="14.8516017"><ele>2.0</ele><time>2026-04-09T17:51:25.09Z</time></trkpt><trkpt lat="40.6150417" lon="14.851745"><ele>2.333333333333333</ele><time>2026-04-09T17:51:26.09Z</time></trkpt><trkpt lat="40.6149133" lon="14.85189"><ele>2.6666666666666665</ele><time>2026-04-09T17:51:27.09Z</time></trkpt><trkpt lat="40.61477" lon="14.8520317"><ele>3.0</ele><time>2026-04-09T17:51:28.09Z</time></trkpt><trkpt lat="40.6146267" lon="14.8521817"><ele>3.0</ele><time>2026-04-09T17:51:29.09Z</time></trkpt><trkpt lat="40.614485" lon="14.8523233"><ele>3.0</ele><time>2026-04-09T17:51:30.09Z</time></trkpt><trkpt lat="40.6143433" lon="14.8524717"><ele>3.0</ele><time>2026-04-09T17:51:31.09Z</time></trkpt><trkpt lat="40.61421" lon="14.85262"><ele>2.6666666666666665</ele><time>2026-04-09T17:51:32.09Z</time></trkpt><trkpt lat="40.614075" lon="14.8527633"><ele>2.333333333333333</ele><time>2026-04-09T17:51:33.09Z</time></trkpt><trkpt lat="40.6139467" lon="14.8529033"><ele>2.0</ele><time>2026-04-09T17:51:34.09Z</time></trkpt><trkpt lat="40.613815" lon="14.85304"><ele>2.0</ele><time>2026-04-09T17:51:35.09Z</time></trkpt><trkpt lat="40.61369" lon="14.8531783"><ele>2.0</ele><time>2026-04-09T17:51:36.09Z</time></trkpt><trkpt lat="40.613575" lon="14.8533017"><ele>2.0</ele><time>2026-04-09T17:51:37.09Z</time></trkpt><trkpt lat="40.6134633" lon="14.8534217"><ele>2.5</ele><time>2026-04-09T17:51:38.09Z</time></trkpt><trkpt lat="40.61335" lon="14.8535417"><ele>3.0</ele><time>2026-04-09T17:51:39.09Z</time></trkpt><trkpt lat="40.61323" lon="14.8536583"><ele>3.5</ele><time>2026-04-09T17:51:40.09Z</time></trkpt><trkpt lat="40.6131117" lon="14.8537833"><ele>4.0</ele><time>2026-04-09T17:51:41.09Z</time></trkpt><trkpt lat="40.612985" lon="14.853915"><ele>4.0</ele><time>2026-04-09T17:51:42.09Z</time></trkpt><trkpt lat="40.6128567" lon="14.85405"><ele>4.0</ele><time>2026-04-09T17:51:43.09Z</time></trkpt><trkpt lat="40.612725" lon="14.8541833"><ele>4.0</ele><time>2026-04-09T17:51:44.09Z</time></trkpt><trkpt lat="40.6125933" lon="14.854315"><ele>4.0</ele><time>2026-04-09T17:51:45.09Z</time></trkpt><trkpt lat="40.6124767" lon="14.8544383"><ele>4.0</ele><time>2026-04-09T17:51:46.09Z</time></trkpt><trkpt lat="40.6123783" lon="14.8545433"><ele>4.0</ele><time>2026-04-09T17:51:47.09Z</time></trkpt><trkpt lat="40.6122867" lon="14.8546367"><ele>4.0</ele><time>2026-04-09T17:51:48.09Z</time></trkpt><trkpt lat="40.6121917" lon="14.8547383"><ele>4.0</ele><time>2026-04-09T17:51:49.09Z</time></trkpt><trkpt lat="40.6120867" lon="14.8548467"><ele>4.0</ele><time>2026-04-09T17:51:50.09Z</time></trkpt><trkpt lat="40.6119733" lon="14.85497"><ele>4.0</ele><time>2026-04-09T17:51:51.09Z</time></trkpt><trkpt lat="40.611855" lon="14.8550983"><ele>4.0</ele><time>2026-04-09T17:51:52.09Z</time></trkpt><trkpt lat="40.611725" lon="14.855235"><ele>4.0</ele><time>2026-04-09T17:51:53.09Z</time></trkpt><trkpt lat="40.6115917" lon="14.8553767"><ele>4.0</ele><time>2026-04-09T17:51:54.09Z</time></trkpt><trkpt lat="40.6114667" lon="14.8555117"><ele>4.0</ele><time>2026-04-09T17:51:55.09Z</time></trkpt><trkpt lat="40.6113433" lon="14.8556367"><ele>4.0</ele><time>2026-04-09T17:51:56.09Z</time></trkpt><trkpt lat="40.6112267" lon="14.8557567"><ele>4.0</ele><time>2026-04-09T17:51:57.09Z</time></trkpt><trkpt lat="40.611105" lon="14.8558783"><ele>4.0</ele><time>2026-04-09T17:51:58.09Z</time></trkpt><trkpt lat="40.6109783" lon="14.8560133"><ele>3.6666666666666665</ele><time>2026-04-09T17:51:59.09Z</time></trkpt><trkpt lat="40.6108383" lon="14.8561583"><ele>3.333333333333333</ele><time>2026-04-09T17:52:00.09Z</time></trkpt><trkpt lat="40.610695" lon="14.8563067"><ele>3.0</ele><time>2026-04-09T17:52:01.09Z</time></trkpt><trkpt lat="40.61055" lon="14.8564517"><ele>3.0</ele><time>2026-04-09T17:52:02.09Z</time></trkpt><trkpt lat="40.61041" lon="14.856595"><ele>3.0</ele><time>2026-04-09T17:52:03.09Z</time></trkpt><trkpt lat="40.610275" lon="14.856735"><ele>3.0</ele><time>2026-04-09T17:52:04.09Z</time></trkpt><trkpt lat="40.6101367" lon="14.8568767"><ele>3.0</ele><time>2026-04-09T17:52:05.09Z</time></trkpt><trkpt lat="40.6099967" lon="14.8570217"><ele>3.0</ele><time>2026-04-09T17:52:06.09Z</time></trkpt><trkpt lat="40.6098533" lon="14.85716"><ele>3.0</ele><time>2026-04-09T17:52:07.09Z</time></trkpt><trkpt lat="40.6097133" lon="14.8572967"><ele>3.0</ele><time>2026-04-09T17:52:08.09Z</time></trkpt><trkpt lat="40.6095683" lon="14.8574367"><ele>3.0</ele><time>2026-04-09T17:52:09.09Z</time></trkpt><trkpt lat="40.6094283" lon="14.8575833"><ele>3.0</ele><time>2026-04-09T17:52:10.09Z</time></trkpt><trkpt lat="40.60929" lon="14.8577167"><ele>3.0</ele><time>2026-04-09T17:52:11.09Z</time></trkpt><trkpt lat="40.6091583" lon="14.8578633"><ele>3.0</ele><time>2026-04-09T17:52:12.09Z</time></trkpt><trkpt lat="40.6090217" lon="14.8580017"><ele>3.0</ele><time>2026-04-09T17:52:13.09Z</time></trkpt><trkpt lat="40.6088933" lon="14.85814"><ele>3.0</ele><time>2026-04-09T17:52:14.09Z</time></trkpt><trkpt lat="40.60876" lon="14.8582767"><ele>3.0</ele><time>2026-04-09T17:52:15.09Z</time></trkpt><trkpt lat="40.6086183" lon="14.85842"><ele>3.0</ele><time>2026-04-09T17:52:16.09Z</time></trkpt><trkpt lat="40.6084767" lon="14.8585583"><ele>2.3333333333333335</ele><time>2026-04-09T17:52:17.09Z</time></trkpt><trkpt lat="40.608325" lon="14.8586883"><ele>1.6666666666666665</ele><time>2026-04-09T17:52:18.09Z</time></trkpt><trkpt lat="40.60818" lon="14.8588283"><ele>1.0</ele><time>2026-04-09T17:52:19.09Z</time></trkpt><trkpt lat="40.6080317" lon="14.8589633"><ele>1.0</ele><time>2026-04-09T17:52:20.09Z</time></trkpt><trkpt lat="40.6078883" lon="14.8590983"><ele>1.0</ele><time>2026-04-09T17:52:21.09Z</time></trkpt><trkpt lat="40.6077483" lon="14.85924"><ele>1.0</ele><time>2026-04-09T17:52:22.09Z</time></trkpt><trkpt lat="40.60761" lon="14.859375"><ele>1.3333333333333333</ele><time>2026-04-09T17:52:23.09Z</time></trkpt><trkpt lat="40.607475" lon="14.8595083"><ele>1.6666666666666665</ele><time>2026-04-09T17:52:24.09Z</time></trkpt><trkpt lat="40.6073383" lon="14.859645"><ele>2.0</ele><time>2026-04-09T17:52:25.09Z</time></trkpt><trkpt lat="40.60719" lon="14.8597883"><ele>2.0</ele><time>2026-04-09T17:52:26.09Z</time></trkpt><trkpt lat="40.6070367" lon="14.8599317"><ele>2.0</ele><time>2026-04-09T17:52:27.09Z</time></trkpt><trkpt lat="40.6068917" lon="14.8600783"><ele>2.0</ele><time>2026-04-09T17:52:28.09Z</time></trkpt><trkpt lat="40.60675" lon="14.8602333"><ele>2.333333333333333</ele><time>2026-04-09T17:52:29.09Z</time></trkpt><trkpt lat="40.6066083" lon="14.8603733"><ele>2.6666666666666665</ele><time>2026-04-09T17:52:30.09Z</time></trkpt><trkpt lat="40.60646" lon="14.8605133"><ele>3.0</ele><time>2026-04-09T17:52:31.09Z</time></trkpt><trkpt lat="40.6063117" lon="14.8606567"><ele>3.0</ele><time>2026-04-09T17:52:32.09Z</time></trkpt><trkpt lat="40.606165" lon="14.8607917"><ele>3.0</ele><time>2026-04-09T17:52:33.09Z</time></trkpt><trkpt lat="40.6060317" lon="14.8609267"><ele>3.0</ele><time>2026-04-09T17:52:34.09Z</time></trkpt><trkpt lat="40.6058983" lon="14.86106"><ele>3.0</ele><time>2026-04-09T17:52:35.09Z</time></trkpt><trkpt lat="40.6057667" lon="14.8611967"><ele>3.0</ele><time>2026-04-09T17:52:36.09Z</time></trkpt><trkpt lat="40.605625" lon="14.8613367"><ele>3.0</ele><time>2026-04-09T17:52:37.09Z</time></trkpt><trkpt lat="40.6054817" lon="14.8614783"><ele>3.0</ele><time>2026-04-09T17:52:38.09Z</time></trkpt><trkpt lat="40.6053467" lon="14.8616117"><ele>3.0</ele><time>2026-04-09T17:52:39.09Z</time></trkpt><trkpt lat="40.6052183" lon="14.861735"><ele>3.0</ele><time>2026-04-09T17:52:40.09Z</time></trkpt><trkpt lat="40.6050917" lon="14.86186"><ele>3.0</ele><time>2026-04-09T17:52:41.09Z</time></trkpt><trkpt lat="40.6049717" lon="14.8619783"><ele>3.0</ele><time>2026-04-09T17:52:42.09Z</time></trkpt><trkpt lat="40.6048433" lon="14.8621033"><ele>3.0</ele><time>2026-04-09T17:52:43.09Z</time></trkpt><trkpt lat="40.6047117" lon="14.8622317"><ele>3.0</ele><time>2026-04-09T17:52:44.09Z</time></trkpt><trkpt lat="40.60458" lon="14.862355"><ele>3.0</ele><time>2026-04-09T17:52:45.09Z</time></trkpt><trkpt lat="40.604445" lon="14.8624867"><ele>3.0</ele><time>2026-04-09T17:52:46.09Z</time></trkpt><trkpt lat="40.60432" lon="14.8626083"><ele>3.0</ele><time>2026-04-09T17:52:47.09Z</time></trkpt><trkpt lat="40.6042" lon="14.8627167"><ele>3.0</ele><time>2026-04-09T17:52:48.09Z</time></trkpt><trkpt lat="40.6040883" lon="14.8628233"><ele>3.0</ele><time>2026-04-09T17:52:49.09Z</time></trkpt><trkpt lat="40.60398" lon="14.8629283"><ele>3.0</ele><time>2026-04-09T17:52:50.09Z</time></trkpt><trkpt lat="40.603875" lon="14.86303"><ele>3.0</ele><time>2026-04-09T17:52:51.09Z</time></trkpt><trkpt lat="40.6037667" lon="14.8631367"><ele>3.0</ele><time>2026-04-09T17:52:52.09Z</time></trkpt><trkpt lat="40.6036417" lon="14.8632567"><ele>3.0</ele><time>2026-04-09T17:52:53.09Z</time></trkpt><trkpt lat="40.6035067" lon="14.8633833"><ele>2.6666666666666665</ele><time>2026-04-09T17:52:54.09Z</time></trkpt><trkpt lat="40.6033767" lon="14.8635167"><ele>2.333333333333333</ele><time>2026-04-09T17:52:55.09Z</time></trkpt><trkpt lat="40.603245" lon="14.8636483"><ele>2.0</ele><time>2026-04-09T17:52:56.09Z</time></trkpt><trkpt lat="40.6031117" lon="14.8637717"><ele>2.0</ele><time>2026-04-09T17:52:57.09Z</time></trkpt><trkpt lat="40.6029783" lon="14.8638967"><ele>2.0</ele><time>2026-04-09T17:52:58.09Z</time></trkpt><trkpt lat="40.6028467" lon="14.8640283"><ele>2.0</ele><time>2026-04-09T17:52:59.09Z</time></trkpt><trkpt lat="40.6027167" lon="14.86416"><ele>1.6666666666666665</ele><time>2026-04-09T17:53:00.09Z</time></trkpt><trkpt lat="40.6025883" lon="14.86429"><ele>1.3333333333333333</ele><time>2026-04-09T17:53:01.09Z</time></trkpt><trkpt lat="40.6024583" lon="14.8644083"><ele>1.0</ele><time>2026-04-09T17:53:02.09Z</time></trkpt><trkpt lat="40.60233" lon="14.864525"><ele>1.0</ele><time>2026-04-09T17:53:03.09Z</time></trkpt><trkpt lat="40.6022133" lon="14.86465"><ele>1.0</ele><time>2026-04-09T17:53:04.09Z</time></trkpt><trkpt lat="40.6020817" lon="14.8647817"><ele>1.0</ele><time>2026-04-09T17:53:05.09Z</time></trkpt><trkpt lat="40.6019617" lon="14.8649083"><ele>1.25</ele><time>2026-04-09T17:53:06.09Z</time></trkpt><trkpt lat="40.6018417" lon="14.8650267"><ele>1.5</ele><time>2026-04-09T17:53:07.09Z</time></trkpt><trkpt lat="40.601725" lon="14.865145"><ele>1.75</ele><time>2026-04-09T17:53:08.09Z</time></trkpt><trkpt lat="40.6016033" lon="14.865265"><ele>2.0</ele><time>2026-04-09T17:53:09.09Z</time></trkpt><trkpt lat="40.6014783" lon="14.8653817"><ele>2.0</ele><time>2026-04-09T17:53:10.09Z</time></trkpt><trkpt lat="40.6013583" lon="14.8654933"><ele>2.0</ele><time>2026-04-09T17:53:11.09Z</time></trkpt><trkpt lat="40.60124" lon="14.8656083"><ele>2.0</ele><time>2026-04-09T17:53:12.09Z</time></trkpt><trkpt lat="40.6011133" lon="14.8657317"><ele>2.0</ele><time>2026-04-09T17:53:13.09Z</time></trkpt><trkpt lat="40.600985" lon="14.86586"><ele>2.0</ele><time>2026-04-09T17:53:14.09Z</time></trkpt><trkpt lat="40.60085" lon="14.8659933"><ele>2.0</ele><time>2026-04-09T17:53:15.09Z</time></trkpt><trkpt lat="40.6007167" lon="14.86612"><ele>2.0</ele><time>2026-04-09T17:53:16.09Z</time></trkpt><trkpt lat="40.6005883" lon="14.86624"><ele>2.0</ele><time>2026-04-09T17:53:17.09Z</time></trkpt><trkpt lat="40.60046" lon="14.8663617"><ele>2.0</ele><time>2026-04-09T17:53:18.09Z</time></trkpt><trkpt lat="40.6003333" lon="14.8664933"><ele>2.0</ele><time>2026-04-09T17:53:19.09Z</time></trkpt><trkpt lat="40.6002033" lon="14.866625"><ele>2.0</ele><time>2026-04-09T17:53:20.09Z</time></trkpt><trkpt lat="40.6000683" lon="14.8667583"><ele>2.0</ele><time>2026-04-09T17:53:21.09Z</time></trkpt><trkpt lat="40.5999333" lon="14.8668967"><ele>2.0</ele><time>2026-04-09T17:53:22.09Z</time></trkpt><trkpt lat="40.5997983" lon="14.8670267"><ele>2.0</ele><time>2026-04-09T17:53:23.09Z</time></trkpt><trkpt lat="40.59967" lon="14.867155"><ele>2.0</ele><time>2026-04-09T17:53:24.09Z</time></trkpt><trkpt lat="40.599545" lon="14.8672783"><ele>2.0</ele><time>2026-04-09T17:53:25.09Z</time></trkpt><trkpt lat="40.5994183" lon="14.867405"><ele>2.0</ele><time>2026-04-09T17:53:26.09Z</time></trkpt><trkpt lat="40.59929" lon="14.86753"><ele>2.0</ele><time>2026-04-09T17:53:27.09Z</time></trkpt><trkpt lat="40.5991617" lon="14.867655"><ele>2.0</ele><time>2026-04-09T17:53:28.09Z</time></trkpt><trkpt lat="40.5990233" lon="14.8677833"><ele>2.0</ele><time>2026-04-09T17:53:29.09Z</time></trkpt><trkpt lat="40.5988883" lon="14.86791"><ele>2.0</ele><time>2026-04-09T17:53:30.09Z</time></trkpt><trkpt lat="40.5987667" lon="14.868035"><ele>2.333333333333333</ele><time>2026-04-09T17:53:31.09Z</time></trkpt><trkpt lat="40.5986383" lon="14.868165"><ele>2.6666666666666665</ele><time>2026-04-09T17:53:32.09Z</time></trkpt><trkpt lat="40.5985083" lon="14.86829"><ele>3.0</ele><time>2026-04-09T17:53:33.09Z</time></trkpt><trkpt lat="40.5983817" lon="14.8684167"><ele>3.333333333333333</ele><time>2026-04-09T17:53:34.09Z</time></trkpt><trkpt lat="40.598255" lon="14.868545"><ele>3.6666666666666665</ele><time>2026-04-09T17:53:35.09Z</time></trkpt><trkpt lat="40.5981233" lon="14.8686683"><ele>4.0</ele><time>2026-04-09T17:53:36.09Z</time></trkpt><trkpt lat="40.5980033" lon="14.8687917"><ele>4.0</ele><time>2026-04-09T17:53:37.09Z</time></trkpt><trkpt lat="40.5978833" lon="14.8689117"><ele>4.0</ele><time>2026-04-09T17:53:38.09Z</time></trkpt><trkpt lat="40.5977583" lon="14.8690383"><ele>4.0</ele><time>2026-04-09T17:53:39.09Z</time></trkpt><trkpt lat="40.5976317" lon="14.869165"><ele>3.6666666666666665</ele><time>2026-04-09T17:53:40.09Z</time></trkpt><trkpt lat="40.5974983" lon="14.8692983"><ele>3.333333333333333</ele><time>2026-04-09T17:53:41.09Z</time></trkpt><trkpt lat="40.597365" lon="14.8694283"><ele>3.0</ele><time>2026-04-09T17:53:42.09Z</time></trkpt><trkpt lat="40.597235" lon="14.8695533"><ele>3.0</ele><time>2026-04-09T17:53:43.09Z</time></trkpt><trkpt lat="40.5971" lon="14.86968"><ele>3.0</ele><time>2026-04-09T17:53:44.09Z</time></trkpt><trkpt lat="40.596965" lon="14.8698083"><ele>3.0</ele><time>2026-04-09T17:53:45.09Z</time></trkpt><trkpt lat="40.5968367" lon="14.86994"><ele>3.0</ele><time>2026-04-09T17:53:46.09Z</time></trkpt><trkpt lat="40.5967117" lon="14.87006"><ele>3.0</ele><time>2026-04-09T17:53:47.09Z</time></trkpt><trkpt lat="40.5965833" lon="14.8701833"><ele>3.0</ele><time>2026-04-09T17:53:48.09Z</time></trkpt><trkpt lat="40.59646" lon="14.8703017"><ele>3.333333333333333</ele><time>2026-04-09T17:53:49.09Z</time></trkpt><trkpt lat="40.5963317" lon="14.8704233"><ele>3.6666666666666665</ele><time>2026-04-09T17:53:50.09Z</time></trkpt><trkpt lat="40.59621" lon="14.8705467"><ele>4.0</ele><time>2026-04-09T17:53:51.09Z</time></trkpt><trkpt lat="40.5960933" lon="14.87067"><ele>4.0</ele><time>2026-04-09T17:53:52.09Z</time></trkpt><trkpt lat="40.59597" lon="14.87078"><ele>4.0</ele><time>2026-04-09T17:53:53.09Z</time></trkpt><trkpt lat="40.5958533" lon="14.8708883"><ele>4.0</ele><time>2026-04-09T17:53:54.09Z</time></trkpt><trkpt lat="40.5957467" lon="14.8709883"><ele>4.0</ele><time>2026-04-09T17:53:55.09Z</time></trkpt><trkpt lat="40.5956483" lon="14.8710833"><ele>4.0</ele><time>2026-04-09T17:53:56.09Z</time></trkpt><trkpt lat="40.5955483" lon="14.8711733"><ele>4.0</ele><time>2026-04-09T17:53:57.09Z</time></trkpt><trkpt lat="40.5954583" lon="14.8712617"><ele>4.0</ele><time>2026-04-09T17:53:58.09Z</time></trkpt><trkpt lat="40.5953767" lon="14.8713383"><ele>4.0</ele><time>2026-04-09T17:53:59.09Z</time></trkpt><trkpt lat="40.5953033" lon="14.8714017"><ele>4.0</ele><time>2026-04-09T17:54:00.09Z</time></trkpt><trkpt lat="40.59523" lon="14.8714633"><ele>3.75</ele><time>2026-04-09T17:54:01.09Z</time></trkpt><trkpt lat="40.5951467" lon="14.871545"><ele>3.5</ele><time>2026-04-09T17:54:02.09Z</time></trkpt><trkpt lat="40.59505" lon="14.8716483"><ele>3.25</ele><time>2026-04-09T17:54:03.09Z</time></trkpt><trkpt lat="40.5949417" lon="14.87176"><ele>3.0</ele><time>2026-04-09T17:54:04.09Z</time></trkpt><trkpt lat="40.59482" lon="14.87188"><ele>3.0</ele><time>2026-04-09T17:54:05.09Z</time></trkpt><trkpt lat="40.5946883" lon="14.8720033"><ele>3.0</ele><time>2026-04-09T17:54:06.09Z</time></trkpt><trkpt lat="40.5945517" lon="14.8721317"><ele>3.0</ele><time>2026-04-09T17:54:07.09Z</time></trkpt><trkpt lat="40.59441" lon="14.8722767"><ele>3.0</ele><time>2026-04-09T17:54:08.09Z</time></trkpt><trkpt lat="40.5942683" lon="14.8724167"><ele>3.0</ele><time>2026-04-09T17:54:09.09Z</time></trkpt><trkpt lat="40.594125" lon="14.8725533"><ele>3.0</ele><time>2026-04-09T17:54:10.09Z</time></trkpt><trkpt lat="40.5939917" lon="14.87269"><ele>3.0</ele><time>2026-04-09T17:54:11.09Z</time></trkpt><trkpt lat="40.5938733" lon="14.8728083"><ele>3.0</ele><time>2026-04-09T17:54:12.09Z</time></trkpt><trkpt lat="40.5937667" lon="14.872915"><ele>3.0</ele><time>2026-04-09T17:54:13.09Z</time></trkpt><trkpt lat="40.593665" lon="14.8730283"><ele>3.0</ele><time>2026-04-09T17:54:14.09Z</time></trkpt><trkpt lat="40.5935583" lon="14.8731233"><ele>3.0</ele><time>2026-04-09T17:54:15.09Z</time></trkpt><trkpt lat="40.5934517" lon="14.873225"><ele>3.0</ele><time>2026-04-09T17:54:16.09Z</time></trkpt><trkpt lat="40.593325" lon="14.87334"><ele>3.0</ele><time>2026-04-09T17:54:17.09Z</time></trkpt><trkpt lat="40.5931817" lon="14.8734733"><ele>2.6666666666666665</ele><time>2026-04-09T17:54:18.09Z</time></trkpt><trkpt lat="40.5930283" lon="14.8736217"><ele>2.333333333333333</ele><time>2026-04-09T17:54:19.09Z</time></trkpt><trkpt lat="40.592875" lon="14.8737667"><ele>2.0</ele><time>2026-04-09T17:54:20.09Z</time></trkpt><trkpt lat="40.5927183" lon="14.8739167"><ele>1.6666666666666665</ele><time>2026-04-09T17:54:21.09Z</time></trkpt><trkpt lat="40.5925633" lon="14.87407"><ele>1.3333333333333333</ele><time>2026-04-09T17:54:22.09Z</time></trkpt><trkpt lat="40.5923983" lon="14.8742267"><ele>1.0</ele><time>2026-04-09T17:54:23.09Z</time></trkpt><trkpt lat="40.59224" lon="14.874385"><ele>1.0</ele><time>2026-04-09T17:54:24.09Z</time></trkpt><trkpt lat="40.59209" lon="14.8745367"><ele>1.0</ele><time>2026-04-09T17:54:25.09Z</time></trkpt><trkpt lat="40.5919367" lon="14.8746817"><ele>1.0</ele><time>2026-04-09T17:54:26.09Z</time></trkpt><trkpt lat="40.591785" lon="14.87483"><ele>1.3333333333333333</ele><time>2026-04-09T17:54:27.09Z</time></trkpt><trkpt lat="40.5916317" lon="14.8749767"><ele>1.6666666666666665</ele><time>2026-04-09T17:54:28.09Z</time></trkpt><trkpt lat="40.5914867" lon="14.8751233"><ele>2.0</ele><time>2026-04-09T17:54:29.09Z</time></trkpt><trkpt lat="40.59134" lon="14.875265"><ele>2.0</ele><time>2026-04-09T17:54:30.09Z</time></trkpt><trkpt lat="40.5911983" lon="14.8754033"><ele>2.0</ele><time>2026-04-09T17:54:31.09Z</time></trkpt><trkpt lat="40.59106" lon="14.8755417"><ele>2.0</ele><time>2026-04-09T17:54:32.09Z</time></trkpt><trkpt lat="40.5909217" lon="14.87568"><ele>2.333333333333333</ele><time>2026-04-09T17:54:33.09Z</time></trkpt><trkpt lat="40.5907783" lon="14.8758217"><ele>2.6666666666666665</ele><time>2026-04-09T17:54:34.09Z</time></trkpt><trkpt lat="40.590635" lon="14.87596"><ele>3.0</ele><time>2026-04-09T17:54:35.09Z</time></trkpt><trkpt lat="40.5904867" lon="14.8761067"><ele>3.0</ele><time>2026-04-09T17:54:36.09Z</time></trkpt><trkpt lat="40.5903467" lon="14.8762433"><ele>3.0</ele><time>2026-04-09T17:54:37.09Z</time></trkpt><trkpt lat="40.5902083" lon="14.87638"><ele>3.0</ele><time>2026-04-09T17:54:38.09Z</time></trkpt><trkpt lat="40.59007" lon="14.8765233"><ele>3.0</ele><time>2026-04-09T17:54:39.09Z</time></trkpt><trkpt lat="40.5899267" lon="14.8766633"><ele>3.0</ele><time>2026-04-09T17:54:40.09Z</time></trkpt><trkpt lat="40.5897883" lon="14.8767967"><ele>3.0</ele><time>2026-04-09T17:54:41.09Z</time></trkpt><trkpt lat="40.5896583" lon="14.8769267"><ele>3.0</ele><time>2026-04-09T17:54:42.09Z</time></trkpt><trkpt lat="40.58952" lon="14.8770567"><ele>3.0</ele><time>2026-04-09T17:54:43.09Z</time></trkpt><trkpt lat="40.5893883" lon="14.8771867"><ele>3.0</ele><time>2026-04-09T17:54:44.09Z</time></trkpt><trkpt lat="40.5892517" lon="14.8773167"><ele>3.0</ele><time>2026-04-09T17:54:45.09Z</time></trkpt><trkpt lat="40.58911" lon="14.8774533"><ele>3.0</ele><time>2026-04-09T17:54:46.09Z</time></trkpt><trkpt lat="40.5889667" lon="14.8775933"><ele>3.0</ele><time>2026-04-09T17:54:47.09Z</time></trkpt><trkpt lat="40.5888267" lon="14.877735"><ele>3.0</ele><time>2026-04-09T17:54:48.09Z</time></trkpt><trkpt lat="40.5886833" lon="14.8778767"><ele>3.0</ele><time>2026-04-09T17:54:49.09Z</time></trkpt><trkpt lat="40.588545" lon="14.8780183"><ele>3.0</ele><time>2026-04-09T17:54:50.09Z</time></trkpt><trkpt lat="40.588415" lon="14.8781467"><ele>3.0</ele><time>2026-04-09T17:54:51.09Z</time></trkpt><trkpt lat="40.5882833" lon="14.8782783"><ele>3.0</ele><time>2026-04-09T17:54:52.09Z</time></trkpt><trkpt lat="40.5881583" lon="14.8783967"><ele>3.0</ele><time>2026-04-09T17:54:53.09Z</time></trkpt><trkpt lat="40.588045" lon="14.8785067"><ele>3.0</ele><time>2026-04-09T17:54:54.09Z</time></trkpt><trkpt lat="40.58792" lon="14.8786217"><ele>3.0</ele><time>2026-04-09T17:54:55.09Z</time></trkpt><trkpt lat="40.5877917" lon="14.878745"><ele>3.0</ele><time>2026-04-09T17:54:56.09Z</time></trkpt><trkpt lat="40.58767" lon="14.878865"><ele>3.0</ele><time>2026-04-09T17:54:57.09Z</time></trkpt><trkpt lat="40.5875467" lon="14.8789817"><ele>3.0</ele><time>2026-04-09T17:54:58.09Z</time></trkpt><trkpt lat="40.587425" lon="14.879095"><ele>3.0</ele><time>2026-04-09T17:54:59.09Z</time></trkpt><trkpt lat="40.58731" lon="14.8792117"><ele>3.0</ele><time>2026-04-09T17:55:00.09Z</time></trkpt><trkpt lat="40.5871983" lon="14.8793233"><ele>2.75</ele><time>2026-04-09T17:55:01.09Z</time></trkpt><trkpt lat="40.5871017" lon="14.87942"><ele>2.5</ele><time>2026-04-09T17:55:02.09Z</time></trkpt><trkpt lat="40.5870067" lon="14.8795183"><ele>2.25</ele><time>2026-04-09T17:55:03.09Z</time></trkpt><trkpt lat="40.5869217" lon="14.87961"><ele>2.0</ele><time>2026-04-09T17:55:04.09Z</time></trkpt><trkpt lat="40.5868433" lon="14.8796917"><ele>2.6</ele><time>2026-04-09T17:55:05.09Z</time></trkpt><trkpt lat="40.5867667" lon="14.8797667"><ele>3.2</ele><time>2026-04-09T17:55:06.09Z</time></trkpt><trkpt lat="40.5866933" lon="14.8798383"><ele>3.8</ele><time>2026-04-09T17:55:07.09Z</time></trkpt><trkpt lat="40.5866233" lon="14.879905"><ele>4.4</ele><time>2026-04-09T17:55:08.09Z</time></trkpt><trkpt lat="40.5865417" lon="14.87998"><ele>5.0</ele><time>2026-04-09T17:55:09.09Z</time></trkpt><trkpt lat="40.58645" lon="14.8800633"><ele>4.333333333333334</ele><time>2026-04-09T17:55:10.09Z</time></trkpt><trkpt lat="40.5863383" lon="14.8801733"><ele>3.666666666666667</ele><time>2026-04-09T17:55:11.09Z</time></trkpt><trkpt lat="40.586215" lon="14.8802983"><ele>3.0</ele><time>2026-04-09T17:55:12.09Z</time></trkpt><trkpt lat="40.586085" lon="14.880435"><ele>2.6666666666666665</ele><time>2026-04-09T17:55:13.09Z</time></trkpt><trkpt lat="40.5859483" lon="14.880585"><ele>2.333333333333333</ele><time>2026-04-09T17:55:14.09Z</time></trkpt><trkpt lat="40.5857883" lon="14.8807383"><ele>2.0</ele><time>2026-04-09T17:55:15.09Z</time></trkpt><trkpt lat="40.5856317" lon="14.880885"><ele>2.0</ele><time>2026-04-09T17:55:16.09Z</time></trkpt><trkpt lat="40.58549" lon="14.88102"><ele>2.0</ele><time>2026-04-09T17:55:17.09Z</time></trkpt><trkpt lat="40.5853517" lon="14.88115"><ele>2.0</ele><time>2026-04-09T17:55:18.09Z</time></trkpt><trkpt lat="40.5852217" lon="14.8812733"><ele>2.0</ele><time>2026-04-09T17:55:19.09Z</time></trkpt><trkpt lat="40.5850983" lon="14.8813917"><ele>2.0</ele><time>2026-04-09T17:55:20.09Z</time></trkpt><trkpt lat="40.58498" lon="14.8815033"><ele>2.0</ele><time>2026-04-09T17:55:21.09Z</time></trkpt><trkpt lat="40.5848633" lon="14.8816133"><ele>2.0</ele><time>2026-04-09T17:55:22.09Z</time></trkpt><trkpt lat="40.5847483" lon="14.8817233"><ele>1.75</ele><time>2026-04-09T17:55:23.09Z</time></trkpt><trkpt lat="40.58464" lon="14.8818267"><ele>1.5</ele><time>2026-04-09T17:55:24.09Z</time></trkpt><trkpt lat="40.584535" lon="14.8819333"><ele>1.25</ele><time>2026-04-09T17:55:25.09Z</time></trkpt><trkpt lat="40.584435" lon="14.8820483"><ele>1.0</ele><time>2026-04-09T17:55:26.09Z</time></trkpt><trkpt lat="40.5843433" lon="14.8821783"><ele>1.0</ele><time>2026-04-09T17:55:27.09Z</time></trkpt><trkpt lat="40.5842567" lon="14.8823283"><ele>1.0</ele><time>2026-04-09T17:55:28.09Z</time></trkpt><trkpt lat="40.5841817" lon="14.8824833"><ele>1.0</ele><time>2026-04-09T17:55:29.09Z</time></trkpt><trkpt lat="40.5841183" lon="14.8826417"><ele>1.0</ele><time>2026-04-09T17:55:30.09Z</time></trkpt><trkpt lat="40.5840633" lon="14.8828033"><ele>1.25</ele><time>2026-04-09T17:55:31.09Z</time></trkpt><trkpt lat="40.58402" lon="14.8829717"><ele>1.5</ele><time>2026-04-09T17:55:32.09Z</time></trkpt><trkpt lat="40.5839917" lon="14.88315"><ele>1.75</ele><time>2026-04-09T17:55:33.09Z</time></trkpt><trkpt lat="40.5839683" lon="14.883335"><ele>2.0</ele><time>2026-04-09T17:55:34.09Z</time></trkpt><trkpt lat="40.583955" lon="14.88352"><ele>2.25</ele><time>2026-04-09T17:55:35.09Z</time></trkpt><trkpt lat="40.5839483" lon="14.8836933"><ele>2.5</ele><time>2026-04-09T17:55:36.09Z</time></trkpt><trkpt lat="40.58395" lon="14.88386"><ele>2.75</ele><time>2026-04-09T17:55:37.09Z</time></trkpt><trkpt lat="40.5839583" lon="14.8840217"><ele>3.0</ele><time>2026-04-09T17:55:38.09Z</time></trkpt><trkpt lat="40.583965" lon="14.8841667"><ele>2.75</ele><time>2026-04-09T17:55:39.09Z</time></trkpt><trkpt lat="40.5839733" lon="14.8843117"><ele>2.5</ele><time>2026-04-09T17:55:40.09Z</time></trkpt><trkpt lat="40.58397" lon="14.884465"><ele>2.25</ele><time>2026-04-09T17:55:41.09Z</time></trkpt><trkpt lat="40.5839467" lon="14.884615"><ele>2.0</ele><time>2026-04-09T17:55:42.091Z</time></trkpt><trkpt lat="40.583915" lon="14.884755"><ele>2.0</ele><time>2026-04-09T17:55:43.09Z</time></trkpt><trkpt lat="40.5838717" lon="14.8848917"><ele>2.0</ele><time>2026-04-09T17:55:44.09Z</time></trkpt><trkpt lat="40.5838067" lon="14.8850283"><ele>2.0</ele><time>2026-04-09T17:55:45.09Z</time></trkpt><trkpt lat="40.5837283" lon="14.8851617"><ele>2.0</ele><time>2026-04-09T17:55:46.09Z</time></trkpt><trkpt lat="40.5836367" lon="14.8852783"><ele>1.75</ele><time>2026-04-09T17:55:47.09Z</time></trkpt><trkpt lat="40.5835233" lon="14.8853883"><ele>1.5</ele><time>2026-04-09T17:55:48.09Z</time></trkpt><trkpt lat="40.5834133" lon="14.88549"><ele>1.25</ele><time>2026-04-09T17:55:49.09Z</time></trkpt><trkpt lat="40.5832883" lon="14.8855967"><ele>1.0</ele><time>2026-04-09T17:55:50.09Z</time></trkpt><trkpt lat="40.5831667" lon="14.8857017"><ele>1.0</ele><time>2026-04-09T17:55:51.09Z</time></trkpt><trkpt lat="40.5830483" lon="14.8858017"><ele>1.0</ele><time>2026-04-09T17:55:52.09Z</time></trkpt><trkpt lat="40.5829433" lon="14.8858933"><ele>1.0</ele><time>2026-04-09T17:55:53.09Z</time></trkpt><trkpt lat="40.5828417" lon="14.8859767"><ele>1.0</ele><time>2026-04-09T17:55:54.09Z</time></trkpt><trkpt lat="40.58272" lon="14.8860417"><ele>0.75</ele><time>2026-04-09T17:55:55.09Z</time></trkpt><trkpt lat="40.5825967" lon="14.8860883"><ele>0.5</ele><time>2026-04-09T17:55:56.09Z</time></trkpt><trkpt lat="40.5824783" lon="14.8861133"><ele>0.25</ele><time>2026-04-09T17:55:57.09Z</time></trkpt><trkpt lat="40.5823617" lon="14.8861033"><ele>0.0</ele><time>2026-04-09T17:55:58.09Z</time></trkpt><trkpt lat="40.5822383" lon="14.8860817"><ele>0.0</ele><time>2026-04-09T17:55:59.09Z</time></trkpt><trkpt lat="40.5821167" lon="14.8860517"><ele>0.0</ele><time>2026-04-09T17:56:00.09Z</time></trkpt><trkpt lat="40.5819917" lon="14.885995"><ele>0.0</ele><time>2026-04-09T17:56:01.09Z</time></trkpt><trkpt lat="40.5818717" lon="14.8859217"><ele>0.0</ele><time>2026-04-09T17:56:02.09Z</time></trkpt><trkpt lat="40.5817617" lon="14.8858283"><ele>0.75</ele><time>2026-04-09T17:56:03.09Z</time></trkpt><trkpt lat="40.5816417" lon="14.8857333"><ele>1.5</ele><time>2026-04-09T17:56:04.09Z</time></trkpt><trkpt lat="40.5815333" lon="14.88564"><ele>2.25</ele><time>2026-04-09T17:56:05.09Z</time></trkpt><trkpt lat="40.5814317" lon="14.8855583"><ele>3.0</ele><time>2026-04-09T17:56:06.09Z</time></trkpt><trkpt lat="40.581335" lon="14.8854717"><ele>3.0</ele><time>2026-04-09T17:56:07.09Z</time></trkpt><trkpt lat="40.5812283" lon="14.8853917"><ele>3.0</ele><time>2026-04-09T17:56:08.09Z</time></trkpt><trkpt lat="40.5811217" lon="14.8853167"><ele>3.0</ele><time>2026-04-09T17:56:09.09Z</time></trkpt><trkpt lat="40.5810067" lon="14.885245"><ele>3.0</ele><time>2026-04-09T17:56:10.09Z</time></trkpt><trkpt lat="40.5808783" lon="14.8851867"><ele>2.75</ele><time>2026-04-09T17:56:11.09Z</time></trkpt><trkpt lat="40.58075" lon="14.8851383"><ele>2.5</ele><time>2026-04-09T17:56:12.09Z</time></trkpt><trkpt lat="40.5806283" lon="14.885105"><ele>2.25</ele><time>2026-04-09T17:56:13.09Z</time></trkpt><trkpt lat="40.5805083" lon="14.885085"><ele>2.0</ele><time>2026-04-09T17:56:14.09Z</time></trkpt><trkpt lat="40.5803883" lon="14.8850817"><ele>1.75</ele><time>2026-04-09T17:56:15.09Z</time></trkpt><trkpt lat="40.5802583" lon="14.8850933"><ele>1.5</ele><time>2026-04-09T17:56:16.09Z</time></trkpt><trkpt lat="40.580125" lon="14.8851183"><ele>1.25</ele><time>2026-04-09T17:56:17.09Z</time></trkpt><trkpt lat="40.5799917" lon="14.8851617"><ele>1.0</ele><time>2026-04-09T17:56:18.09Z</time></trkpt><trkpt lat="40.5798633" lon="14.8852167"><ele>0.75</ele><time>2026-04-09T17:56:19.09Z</time></trkpt><trkpt lat="40.5797517" lon="14.885285"><ele>0.5</ele><time>2026-04-09T17:56:20.09Z</time></trkpt><trkpt lat="40.5796417" lon="14.8853583"><ele>0.25</ele><time>2026-04-09T17:56:21.09Z</time></trkpt><trkpt lat="40.57953" lon="14.8854367"><ele>0.0</ele><time>2026-04-09T17:56:22.09Z</time></trkpt><trkpt lat="40.579425" lon="14.8855217"><ele>0.75</ele><time>2026-04-09T17:56:23.09Z</time></trkpt><trkpt lat="40.5793183" lon="14.8856067"><ele>1.5</ele><time>2026-04-09T17:56:24.09Z</time></trkpt><trkpt lat="40.5792117" lon="14.8856883"><ele>2.25</ele><time>2026-04-09T17:56:25.09Z</time></trkpt><trkpt lat="40.5791067" lon="14.8857733"><ele>3.0</ele><time>2026-04-09T17:56:26.09Z</time></trkpt><trkpt lat="40.579" lon="14.8858633"><ele>3.0</ele><time>2026-04-09T17:56:27.09Z</time></trkpt><trkpt lat="40.5788933" lon="14.8859467"><ele>3.0</ele><time>2026-04-09T17:56:28.09Z</time></trkpt><trkpt lat="40.5787867" lon="14.8860283"><ele>3.0</ele><time>2026-04-09T17:56:29.09Z</time></trkpt><trkpt lat="40.578685" lon="14.8861117"><ele>3.0</ele><time>2026-04-09T17:56:30.09Z</time></trkpt><trkpt lat="40.578585" lon="14.88619"><ele>3.0</ele><time>2026-04-09T17:56:31.09Z</time></trkpt><trkpt lat="40.5784917" lon="14.8862617"><ele>3.0</ele><time>2026-04-09T17:56:32.09Z</time></trkpt><trkpt lat="40.5784" lon="14.8863317"><ele>3.0</ele><time>2026-04-09T17:56:33.09Z</time></trkpt><trkpt lat="40.57831" lon="14.886405"><ele>3.0</ele><time>2026-04-09T17:56:34.09Z</time></trkpt><trkpt lat="40.5782133" lon="14.88648"><ele>3.0</ele><time>2026-04-09T17:56:35.09Z</time></trkpt><trkpt lat="40.5781117" lon="14.886555"><ele>3.0</ele><time>2026-04-09T17:56:36.09Z</time></trkpt><trkpt lat="40.5780033" lon="14.8866383"><ele>3.0</ele><time>2026-04-09T17:56:37.09Z</time></trkpt><trkpt lat="40.5778983" lon="14.8867317"><ele>3.0</ele><time>2026-04-09T17:56:38.09Z</time></trkpt><trkpt lat="40.5777833" lon="14.88683"><ele>3.0</ele><time>2026-04-09T17:56:39.09Z</time></trkpt><trkpt lat="40.5776617" lon="14.8869317"><ele>2.75</ele><time>2026-04-09T17:56:40.09Z</time></trkpt><trkpt lat="40.5775367" lon="14.8870317"><ele>2.5</ele><time>2026-04-09T17:56:41.09Z</time></trkpt><trkpt lat="40.577405" lon="14.8871267"><ele>2.25</ele><time>2026-04-09T17:56:42.09Z</time></trkpt><trkpt lat="40.5772717" lon="14.88722"><ele>2.0</ele><time>2026-04-09T17:56:43.09Z</time></trkpt><trkpt lat="40.5771467" lon="14.8873117"><ele>2.0</ele><time>2026-04-09T17:56:44.09Z</time></trkpt><trkpt lat="40.5770333" lon="14.8873983"><ele>2.0</ele><time>2026-04-09T17:56:45.09Z</time></trkpt><trkpt lat="40.57692" lon="14.887485"><ele>2.0</ele><time>2026-04-09T17:56:46.09Z</time></trkpt><trkpt lat="40.5768067" lon="14.88757"><ele>2.0</ele><time>2026-04-09T17:56:47.09Z</time></trkpt><trkpt lat="40.5766917" lon="14.8876683"><ele>1.75</ele><time>2026-04-09T17:56:48.09Z</time></trkpt><trkpt lat="40.5765717" lon="14.88776"><ele>1.5</ele><time>2026-04-09T17:56:49.09Z</time></trkpt><trkpt lat="40.5764483" lon="14.8878583"><ele>1.25</ele><time>2026-04-09T17:56:50.09Z</time></trkpt><trkpt lat="40.5763267" lon="14.88795"><ele>1.0</ele><time>2026-04-09T17:56:51.09Z</time></trkpt><trkpt lat="40.5761983" lon="14.8880467"><ele>2.3333333333333335</ele><time>2026-04-09T17:56:52.09Z</time></trkpt><trkpt lat="40.5760717" lon="14.8881517"><ele>3.666666666666667</ele><time>2026-04-09T17:56:53.09Z</time></trkpt><trkpt lat="40.5759367" lon="14.88826"><ele>5.0</ele><time>2026-04-09T17:56:54.09Z</time></trkpt><trkpt lat="40.57578" lon="14.88838"><ele>3.666666666666667</ele><time>2026-04-09T17:56:55.09Z</time></trkpt><trkpt lat="40.5756283" lon="14.8884983"><ele>2.3333333333333335</ele><time>2026-04-09T17:56:56.09Z</time></trkpt><trkpt lat="40.5754767" lon="14.888605"><ele>1.0</ele><time>2026-04-09T17:56:57.09Z</time></trkpt><trkpt lat="40.57534" lon="14.888705"><ele>1.0</ele><time>2026-04-09T17:56:58.09Z</time></trkpt><trkpt lat="40.57521" lon="14.888805"><ele>1.0</ele><time>2026-04-09T17:56:59.09Z</time></trkpt><trkpt lat="40.575085" lon="14.8889"><ele>1.0</ele><time>2026-04-09T17:57:00.09Z</time></trkpt><trkpt lat="40.5749733" lon="14.8889867"><ele>1.0</ele><time>2026-04-09T17:57:01.09Z</time></trkpt><trkpt lat="40.574865" lon="14.8890683"><ele>1.0</ele><time>2026-04-09T17:57:02.09Z</time></trkpt><trkpt lat="40.574755" lon="14.88915"><ele>1.0</ele><time>2026-04-09T17:57:03.09Z</time></trkpt><trkpt lat="40.574645" lon="14.8892283"><ele>1.0</ele><time>2026-04-09T17:57:04.09Z</time></trkpt><trkpt lat="40.574535" lon="14.8893167"><ele>1.0</ele><time>2026-04-09T17:57:05.09Z</time></trkpt><trkpt lat="40.574425" lon="14.8894033"><ele>1.75</ele><time>2026-04-09T17:57:06.09Z</time></trkpt><trkpt lat="40.574315" lon="14.8894883"><ele>2.5</ele><time>2026-04-09T17:57:07.09Z</time></trkpt><trkpt lat="40.574205" lon="14.8895767"><ele>3.25</ele><time>2026-04-09T17:57:08.09Z</time></trkpt><trkpt lat="40.5740933" lon="14.8896617"><ele>4.0</ele><time>2026-04-09T17:57:09.09Z</time></trkpt><trkpt lat="40.57398" lon="14.8897467"><ele>4.0</ele><time>2026-04-09T17:57:10.09Z</time></trkpt><trkpt lat="40.573865" lon="14.889835"><ele>4.0</ele><time>2026-04-09T17:57:11.09Z</time></trkpt><trkpt lat="40.5737317" lon="14.8899333"><ele>4.0</ele><time>2026-04-09T17:57:12.09Z</time></trkpt><trkpt lat="40.5736083" lon="14.8900283"><ele>4.0</ele><time>2026-04-09T17:57:13.09Z</time></trkpt><trkpt lat="40.5734883" lon="14.89012"><ele>3.5</ele><time>2026-04-09T17:57:14.09Z</time></trkpt><trkpt lat="40.57337" lon="14.8902133"><ele>3.0</ele><time>2026-04-09T17:57:15.09Z</time></trkpt><trkpt lat="40.57325" lon="14.8903067"><ele>2.5</ele><time>2026-04-09T17:57:16.09Z</time></trkpt><trkpt lat="40.57312" lon="14.8904083"><ele>2.0</ele><time>2026-04-09T17:57:17.09Z</time></trkpt><trkpt lat="40.5729817" lon="14.89052"><ele>3.333333333333333</ele><time>2026-04-09T17:57:18.09Z</time></trkpt><trkpt lat="40.5728383" lon="14.8906333"><ele>4.666666666666667</ele><time>2026-04-09T17:57:19.09Z</time></trkpt><trkpt lat="40.5726833" lon="14.8907583"><ele>6.0</ele><time>2026-04-09T17:57:20.09Z</time></trkpt><trkpt lat="40.5725117" lon="14.8908983"><ele>5.0</ele><time>2026-04-09T17:57:21.09Z</time></trkpt><trkpt lat="40.5723317" lon="14.8910383"><ele>4.0</ele><time>2026-04-09T17:57:22.09Z</time></trkpt><trkpt lat="40.5721483" lon="14.891175"><ele>3.0</ele><time>2026-04-09T17:57:23.09Z</time></trkpt><trkpt lat="40.5719633" lon="14.891305"><ele>3.0</ele><time>2026-04-09T17:57:24.09Z</time></trkpt><trkpt lat="40.5717783" lon="14.8914383"><ele>3.0</ele><time>2026-04-09T17:57:25.09Z</time></trkpt><trkpt lat="40.5715967" lon="14.89158"><ele>3.0</ele><time>2026-04-09T17:57:26.09Z</time></trkpt><trkpt lat="40.5714183" lon="14.8917183"><ele>3.333333333333333</ele><time>2026-04-09T17:57:27.09Z</time></trkpt><trkpt lat="40.5712483" lon="14.8918483"><ele>3.6666666666666665</ele><time>2026-04-09T17:57:28.09Z</time></trkpt><trkpt lat="40.5710783" lon="14.891975"><ele>4.0</ele><time>2026-04-09T17:57:29.09Z</time></trkpt><trkpt lat="40.5709167" lon="14.892095"><ele>4.0</ele><time>2026-04-09T17:57:30.09Z</time></trkpt><trkpt lat="40.57076" lon="14.8922167"><ele>4.0</ele><time>2026-04-09T17:57:31.09Z</time></trkpt><trkpt lat="40.5706067" lon="14.8923383"><ele>4.0</ele><time>2026-04-09T17:57:32.09Z</time></trkpt><trkpt lat="40.5704533" lon="14.8924567"><ele>4.0</ele><time>2026-04-09T17:57:33.09Z</time></trkpt><trkpt lat="40.570305" lon="14.8925733"><ele>4.0</ele><time>2026-04-09T17:57:34.09Z</time></trkpt><trkpt lat="40.5701583" lon="14.8926917"><ele>4.0</ele><time>2026-04-09T17:57:35.09Z</time></trkpt><trkpt lat="40.570005" lon="14.8928083"><ele>3.333333333333333</ele><time>2026-04-09T17:57:36.09Z</time></trkpt><trkpt lat="40.5698467" lon="14.8929317"><ele>2.6666666666666665</ele><time>2026-04-09T17:57:37.09Z</time></trkpt><trkpt lat="40.5696833" lon="14.89306"><ele>2.0</ele><time>2026-04-09T17:57:38.09Z</time></trkpt><trkpt lat="40.5695283" lon="14.8931833"><ele>3.0</ele><time>2026-04-09T17:57:39.09Z</time></trkpt><trkpt lat="40.5693717" lon="14.8932983"><ele>4.0</ele><time>2026-04-09T17:57:40.09Z</time></trkpt><trkpt lat="40.5692183" lon="14.893415"><ele>5.0</ele><time>2026-04-09T17:57:41.09Z</time></trkpt><trkpt lat="40.5690633" lon="14.8935383"><ele>5.0</ele><time>2026-04-09T17:57:42.09Z</time></trkpt><trkpt lat="40.5689083" lon="14.893655"><ele>5.0</ele><time>2026-04-09T17:57:43.09Z</time></trkpt><trkpt lat="40.5687517" lon="14.8937683"><ele>5.0</ele><time>2026-04-09T17:57:44.09Z</time></trkpt><trkpt lat="40.5686" lon="14.89388"><ele>4.666666666666667</ele><time>2026-04-09T17:57:45.09Z</time></trkpt><trkpt lat="40.56845" lon="14.894"><ele>4.333333333333333</ele><time>2026-04-09T17:57:46.09Z</time></trkpt><trkpt lat="40.5683017" lon="14.894115"><ele>4.0</ele><time>2026-04-09T17:57:47.09Z</time></trkpt><trkpt lat="40.5681483" lon="14.8942383"><ele>4.0</ele><time>2026-04-09T17:57:48.09Z</time></trkpt><trkpt lat="40.5679883" lon="14.8943667"><ele>4.0</ele><time>2026-04-09T17:57:49.09Z</time></trkpt><trkpt lat="40.56783" lon="14.8944967"><ele>4.0</ele><time>2026-04-09T17:57:50.09Z</time></trkpt><trkpt lat="40.5676717" lon="14.8946167"><ele>3.6666666666666665</ele><time>2026-04-09T17:57:51.09Z</time></trkpt><trkpt lat="40.56752" lon="14.8947267"><ele>3.333333333333333</ele><time>2026-04-09T17:57:52.09Z</time></trkpt><trkpt lat="40.56737" lon="14.894845"><ele>3.0</ele><time>2026-04-09T17:57:53.09Z</time></trkpt><trkpt lat="40.5672217" lon="14.8949633"><ele>3.0</ele><time>2026-04-09T17:57:54.09Z</time></trkpt><trkpt lat="40.5670733" lon="14.8950767"><ele>3.0</ele><time>2026-04-09T17:57:55.09Z</time></trkpt><trkpt lat="40.56693" lon="14.8951867"><ele>3.0</ele><time>2026-04-09T17:57:56.09Z</time></trkpt><trkpt lat="40.5667933" lon="14.8952917"><ele>3.333333333333333</ele><time>2026-04-09T17:57:57.09Z</time></trkpt><trkpt lat="40.5666583" lon="14.8953933"><ele>3.6666666666666665</ele><time>2026-04-09T17:57:58.09Z</time></trkpt><trkpt lat="40.56651" lon="14.8955033"><ele>4.0</ele><time>2026-04-09T17:57:59.09Z</time></trkpt><trkpt lat="40.5663583" lon="14.89562"><ele>4.0</ele><time>2026-04-09T17:58:00.09Z</time></trkpt><trkpt lat="40.566205" lon="14.8957333"><ele>4.0</ele><time>2026-04-09T17:58:01.09Z</time></trkpt><trkpt lat="40.56605" lon="14.8958517"><ele>4.0</ele><time>2026-04-09T17:58:02.09Z</time></trkpt><trkpt lat="40.5658917" lon="14.89598"><ele>4.333333333333333</ele><time>2026-04-09T17:58:03.09Z</time></trkpt><trkpt lat="40.5657233" lon="14.8961133"><ele>4.666666666666667</ele><time>2026-04-09T17:58:04.09Z</time></trkpt><trkpt lat="40.5655433" lon="14.8962567"><ele>5.0</ele><time>2026-04-09T17:58:05.09Z</time></trkpt><trkpt lat="40.5653583" lon="14.8964117"><ele>5.0</ele><time>2026-04-09T17:58:06.09Z</time></trkpt><trkpt lat="40.5651683" lon="14.8965683"><ele>5.0</ele><time>2026-04-09T17:58:07.09Z</time></trkpt><trkpt lat="40.5649717" lon="14.896715"><ele>5.0</ele><time>2026-04-09T17:58:08.09Z</time></trkpt><trkpt lat="40.56478" lon="14.8968583"><ele>5.0</ele><time>2026-04-09T17:58:09.09Z</time></trkpt><trkpt lat="40.5645983" lon="14.89699"><ele>5.0</ele><time>2026-04-09T17:58:10.09Z</time></trkpt><trkpt lat="40.5644233" lon="14.89712"><ele>5.0</ele><time>2026-04-09T17:58:11.09Z</time></trkpt><trkpt lat="40.564255" lon="14.8972467"><ele>5.0</ele><time>2026-04-09T17:58:12.09Z</time></trkpt><trkpt lat="40.56409" lon="14.897375"><ele>5.0</ele><time>2026-04-09T17:58:13.09Z</time></trkpt><trkpt lat="40.5639233" lon="14.8975083"><ele>5.0</ele><time>2026-04-09T17:58:14.09Z</time></trkpt><trkpt lat="40.5637583" lon="14.8976333"><ele>5.0</ele><time>2026-04-09T17:58:15.09Z</time></trkpt><trkpt lat="40.5636" lon="14.89775"><ele>5.0</ele><time>2026-04-09T17:58:16.09Z</time></trkpt><trkpt lat="40.5634533" lon="14.8978633"><ele>5.0</ele><time>2026-04-09T17:58:17.09Z</time></trkpt><trkpt lat="40.5633083" lon="14.89797"><ele>5.0</ele><time>2026-04-09T17:58:18.09Z</time></trkpt><trkpt lat="40.5631567" lon="14.8980883"><ele>5.0</ele><time>2026-04-09T17:58:19.09Z</time></trkpt><trkpt lat="40.5630033" lon="14.8982033"><ele>5.0</ele><time>2026-04-09T17:58:20.09Z</time></trkpt><trkpt lat="40.5628533" lon="14.8983117"><ele>5.0</ele><time>2026-04-09T17:58:21.09Z</time></trkpt><trkpt lat="40.5627033" lon="14.8984283"><ele>5.0</ele><time>2026-04-09T17:58:22.09Z</time></trkpt><trkpt lat="40.5625533" lon="14.8985467"><ele>5.0</ele><time>2026-04-09T17:58:23.09Z</time></trkpt><trkpt lat="40.5624017" lon="14.8986617"><ele>5.0</ele><time>2026-04-09T17:58:24.09Z</time></trkpt><trkpt lat="40.562245" lon="14.8987833"><ele>5.0</ele><time>2026-04-09T17:58:25.09Z</time></trkpt><trkpt lat="40.5620867" lon="14.89891"><ele>5.333333333333334</ele><time>2026-04-09T17:58:26.09Z</time></trkpt><trkpt lat="40.5619267" lon="14.899035"><ele>5.666666666666667</ele><time>2026-04-09T17:58:27.09Z</time></trkpt><trkpt lat="40.5617717" lon="14.8991617"><ele>6.0</ele><time>2026-04-09T17:58:28.09Z</time></trkpt><trkpt lat="40.56163" lon="14.899275"><ele>5.0</ele><time>2026-04-09T17:58:29.09Z</time></trkpt><trkpt lat="40.5614833" lon="14.8993867"><ele>4.0</ele><time>2026-04-09T17:58:30.09Z</time></trkpt><trkpt lat="40.5613367" lon="14.8995"><ele>3.0</ele><time>2026-04-09T17:58:31.09Z</time></trkpt><trkpt lat="40.561195" lon="14.8996067"><ele>3.0</ele><time>2026-04-09T17:58:32.09Z</time></trkpt><trkpt lat="40.561055" lon="14.8997167"><ele>3.0</ele><time>2026-04-09T17:58:33.09Z</time></trkpt><trkpt lat="40.56092" lon="14.8998233"><ele>3.0</ele><time>2026-04-09T17:58:34.09Z</time></trkpt><trkpt lat="40.5607883" lon="14.899925"><ele>3.0</ele><time>2026-04-09T17:58:35.09Z</time></trkpt><trkpt lat="40.5606567" lon="14.900035"><ele>3.0</ele><time>2026-04-09T17:58:36.09Z</time></trkpt><trkpt lat="40.5605167" lon="14.9001383"><ele>3.0</ele><time>2026-04-09T17:58:37.09Z</time></trkpt><trkpt lat="40.5603733" lon="14.9002433"><ele>2.3333333333333335</ele><time>2026-04-09T17:58:38.09Z</time></trkpt><trkpt lat="40.56023" lon="14.900345"><ele>1.6666666666666665</ele><time>2026-04-09T17:58:39.09Z</time></trkpt><trkpt lat="40.56008" lon="14.9004583"><ele>1.0</ele><time>2026-04-09T17:58:40.09Z</time></trkpt><trkpt lat="40.55994" lon="14.9005767"><ele>1.0</ele><time>2026-04-09T17:58:41.09Z</time></trkpt><trkpt lat="40.5597917" lon="14.9006933"><ele>1.0</ele><time>2026-04-09T17:58:42.09Z</time></trkpt><trkpt lat="40.5596483" lon="14.900805"><ele>1.0</ele><time>2026-04-09T17:58:43.09Z</time></trkpt><trkpt lat="40.5595017" lon="14.9009183"><ele>1.6666666666666665</ele><time>2026-04-09T17:58:44.09Z</time></trkpt><trkpt lat="40.5593483" lon="14.901035"><ele>2.3333333333333335</ele><time>2026-04-09T17:58:45.09Z</time></trkpt><trkpt lat="40.5592033" lon="14.901155"><ele>3.0</ele><time>2026-04-09T17:58:46.09Z</time></trkpt><trkpt lat="40.5590583" lon="14.9012633"><ele>3.0</ele><time>2026-04-09T17:58:47.09Z</time></trkpt><trkpt lat="40.5589217" lon="14.9013667"><ele>3.0</ele><time>2026-04-09T17:58:48.09Z</time></trkpt><trkpt lat="40.5587833" lon="14.901475"><ele>3.0</ele><time>2026-04-09T17:58:49.09Z</time></trkpt><trkpt lat="40.5586367" lon="14.9015833"><ele>4.0</ele><time>2026-04-09T17:58:50.09Z</time></trkpt><trkpt lat="40.558485" lon="14.9017033"><ele>5.0</ele><time>2026-04-09T17:58:51.09Z</time></trkpt><trkpt lat="40.5583333" lon="14.9018283"><ele>6.0</ele><time>2026-04-09T17:58:52.09Z</time></trkpt><trkpt lat="40.5581983" lon="14.9019433"><ele>6.0</ele><time>2026-04-09T17:58:53.09Z</time></trkpt><trkpt lat="40.558065" lon="14.9020483"><ele>6.0</ele><time>2026-04-09T17:58:54.09Z</time></trkpt><trkpt lat="40.5579333" lon="14.90215"><ele>6.0</ele><time>2026-04-09T17:58:55.09Z</time></trkpt><trkpt lat="40.5577983" lon="14.9022417"><ele>6.0</ele><time>2026-04-09T17:58:56.09Z</time></trkpt><trkpt lat="40.557665" lon="14.902345"><ele>6.0</ele><time>2026-04-09T17:58:57.09Z</time></trkpt><trkpt lat="40.5575283" lon="14.9024483"><ele>6.0</ele><time>2026-04-09T17:58:58.09Z</time></trkpt><trkpt lat="40.5573867" lon="14.902545"><ele>5.333333333333333</ele><time>2026-04-09T17:58:59.09Z</time></trkpt><trkpt lat="40.557255" lon="14.9026517"><ele>4.666666666666666</ele><time>2026-04-09T17:59:00.09Z</time></trkpt><trkpt lat="40.5571183" lon="14.9027567"><ele>4.0</ele><time>2026-04-09T17:59:01.09Z</time></trkpt><trkpt lat="40.5569817" lon="14.9028567"><ele>3.75</ele><time>2026-04-09T17:59:02.09Z</time></trkpt><trkpt lat="40.55686" lon="14.9029617"><ele>3.5</ele><time>2026-04-09T17:59:03.09Z</time></trkpt><trkpt lat="40.5567367" lon="14.90306"><ele>3.25</ele><time>2026-04-09T17:59:04.09Z</time></trkpt><trkpt lat="40.5566167" lon="14.903155"><ele>3.0</ele><time>2026-04-09T17:59:05.09Z</time></trkpt><trkpt lat="40.5564983" lon="14.9032467"><ele>3.0</ele><time>2026-04-09T17:59:06.09Z</time></trkpt><trkpt lat="40.5563783" lon="14.9033417"><ele>3.0</ele><time>2026-04-09T17:59:07.09Z</time></trkpt><trkpt lat="40.5562617" lon="14.9034333"><ele>3.0</ele><time>2026-04-09T17:59:08.09Z</time></trkpt><trkpt lat="40.556145" lon="14.9035183"><ele>3.0</ele><time>2026-04-09T17:59:09.09Z</time></trkpt><trkpt lat="40.5560333" lon="14.903605"><ele>3.333333333333333</ele><time>2026-04-09T17:59:10.09Z</time></trkpt><trkpt lat="40.5559117" lon="14.9036967"><ele>3.6666666666666665</ele><time>2026-04-09T17:59:11.09Z</time></trkpt><trkpt lat="40.5557817" lon="14.903795"><ele>4.0</ele><time>2026-04-09T17:59:12.09Z</time></trkpt><trkpt lat="40.5556467" lon="14.9039067"><ele>4.0</ele><time>2026-04-09T17:59:13.09Z</time></trkpt><trkpt lat="40.5555067" lon="14.9040233"><ele>4.0</ele><time>2026-04-09T17:59:14.09Z</time></trkpt><trkpt lat="40.55537" lon="14.9041283"><ele>4.0</ele><time>2026-04-09T17:59:15.09Z</time></trkpt><trkpt lat="40.555225" lon="14.904235"><ele>3.5</ele><time>2026-04-09T17:59:16.09Z</time></trkpt><trkpt lat="40.555095" lon="14.9043367"><ele>3.0</ele><time>2026-04-09T17:59:17.09Z</time></trkpt><trkpt lat="40.5549683" lon="14.9044317"><ele>2.5</ele><time>2026-04-09T17:59:18.09Z</time></trkpt><trkpt lat="40.554845" lon="14.90452"><ele>2.0</ele><time>2026-04-09T17:59:19.09Z</time></trkpt><trkpt lat="40.5547267" lon="14.90461"><ele>2.0</ele><time>2026-04-09T17:59:20.09Z</time></trkpt><trkpt lat="40.554615" lon="14.9047"><ele>2.0</ele><time>2026-04-09T17:59:21.09Z</time></trkpt><trkpt lat="40.5544983" lon="14.90479"><ele>2.0</ele><time>2026-04-09T17:59:22.09Z</time></trkpt><trkpt lat="40.5543767" lon="14.904885"><ele>2.0</ele><time>2026-04-09T17:59:23.09Z</time></trkpt><trkpt lat="40.5542467" lon="14.9049917"><ele>1.6666666666666665</ele><time>2026-04-09T17:59:24.09Z</time></trkpt><trkpt lat="40.554105" lon="14.9051"><ele>1.3333333333333333</ele><time>2026-04-09T17:59:25.09Z</time></trkpt><trkpt lat="40.5539517" lon="14.905215"><ele>1.0</ele><time>2026-04-09T17:59:26.09Z</time></trkpt><trkpt lat="40.5537883" lon="14.9053267"><ele>1.6666666666666665</ele><time>2026-04-09T17:59:27.09Z</time></trkpt><trkpt lat="40.5536267" lon="14.9054467"><ele>2.3333333333333335</ele><time>2026-04-09T17:59:28.09Z</time></trkpt><trkpt lat="40.5534667" lon="14.905565"><ele>3.0</ele><time>2026-04-09T17:59:29.09Z</time></trkpt><trkpt lat="40.5533117" lon="14.9056783"><ele>3.0</ele><time>2026-04-09T17:59:30.09Z</time></trkpt><trkpt lat="40.5531617" lon="14.9057917"><ele>3.0</ele><time>2026-04-09T17:59:31.09Z</time></trkpt><trkpt lat="40.5530067" lon="14.9059117"><ele>3.0</ele><time>2026-04-09T17:59:32.09Z</time></trkpt><trkpt lat="40.5528617" lon="14.9060283"><ele>2.6666666666666665</ele><time>2026-04-09T17:59:33.09Z</time></trkpt><trkpt lat="40.55272" lon="14.9061417"><ele>2.333333333333333</ele><time>2026-04-09T17:59:34.09Z</time></trkpt><trkpt lat="40.55258" lon="14.9062517"><ele>2.0</ele><time>2026-04-09T17:59:35.09Z</time></trkpt><trkpt lat="40.5524417" lon="14.9063567"><ele>2.0</ele><time>2026-04-09T17:59:36.09Z</time></trkpt><trkpt lat="40.5523083" lon="14.906455"><ele>2.0</ele><time>2026-04-09T17:59:37.09Z</time></trkpt><trkpt lat="40.552185" lon="14.9065533"><ele>2.0</ele><time>2026-04-09T17:59:38.09Z</time></trkpt><trkpt lat="40.5520667" lon="14.9066433"><ele>2.0</ele><time>2026-04-09T17:59:39.09Z</time></trkpt><trkpt lat="40.5519533" lon="14.9067367"><ele>1.75</ele><time>2026-04-09T17:59:40.09Z</time></trkpt><trkpt lat="40.55185" lon="14.90682"><ele>1.5</ele><time>2026-04-09T17:59:41.09Z</time></trkpt><trkpt lat="40.551745" lon="14.9069017"><ele>1.25</ele><time>2026-04-09T17:59:42.09Z</time></trkpt><trkpt lat="40.5516433" lon="14.9069767"><ele>1.0</ele><time>2026-04-09T17:59:43.09Z</time></trkpt><trkpt lat="40.5515333" lon="14.907055"><ele>1.0</ele><time>2026-04-09T17:59:44.09Z</time></trkpt><trkpt lat="40.5514267" lon="14.907135"><ele>1.0</ele><time>2026-04-09T17:59:45.09Z</time></trkpt><trkpt lat="40.551315" lon="14.907225"><ele>1.0</ele><time>2026-04-09T17:59:46.09Z</time></trkpt><trkpt lat="40.551195" lon="14.9073217"><ele>1.0</ele><time>2026-04-09T17:59:47.09Z</time></trkpt><trkpt lat="40.55107" lon="14.9074183"><ele>1.0</ele><time>2026-04-09T17:59:48.09Z</time></trkpt><trkpt lat="40.5509267" lon="14.90753"><ele>1.0</ele><time>2026-04-09T17:59:49.09Z</time></trkpt><trkpt lat="40.550775" lon="14.907655"><ele>1.0</ele><time>2026-04-09T17:59:50.09Z</time></trkpt><trkpt lat="40.5506133" lon="14.9077833"><ele>0.6666666666666666</ele><time>2026-04-09T17:59:51.091Z</time></trkpt><trkpt lat="40.5504517" lon="14.9079283"><ele>0.3333333333333333</ele><time>2026-04-09T17:59:52.091Z</time></trkpt><trkpt lat="40.5502817" lon="14.9080583"><ele>0.0</ele><time>2026-04-09T17:59:53.091Z</time></trkpt><trkpt lat="40.5501067" lon="14.9081867"><ele>0.0</ele><time>2026-04-09T17:59:54.091Z</time></trkpt><trkpt lat="40.5499283" lon="14.9083017"><ele>0.0</ele><time>2026-04-09T17:59:55.091Z</time></trkpt><trkpt lat="40.54975" lon="14.9084283"><ele>0.0</ele><time>2026-04-09T17:59:56.091Z</time></trkpt><trkpt lat="40.549585" lon="14.9085533"><ele>1.3333333333333333</ele><time>2026-04-09T17:59:57.091Z</time></trkpt><trkpt lat="40.5494217" lon="14.9086733"><ele>2.6666666666666665</ele><time>2026-04-09T17:59:58.091Z</time></trkpt><trkpt lat="40.5492583" lon="14.9087967"><ele>4.0</ele><time>2026-04-09T17:59:59.091Z</time></trkpt><trkpt lat="40.5491067" lon="14.9089167"><ele>4.0</ele><time>2026-04-09T18:00:00.091Z</time></trkpt><trkpt lat="40.5489583" lon="14.90903"><ele>4.0</ele><time>2026-04-09T18:00:01.091Z</time></trkpt><trkpt lat="40.548805" lon="14.9091417"><ele>4.0</ele><time>2026-04-09T18:00:02.091Z</time></trkpt><trkpt lat="40.5486583" lon="14.9092567"><ele>3.6666666666666665</ele><time>2026-04-09T18:00:03.091Z</time></trkpt><trkpt lat="40.5485067" lon="14.9093733"><ele>3.333333333333333</ele><time>2026-04-09T18:00:04.091Z</time></trkpt><trkpt lat="40.548355" lon="14.9094917"><ele>3.0</ele><time>2026-04-09T18:00:05.091Z</time></trkpt><trkpt lat="40.5481967" lon="14.909615"><ele>3.0</ele><time>2026-04-09T18:00:06.091Z</time></trkpt><trkpt lat="40.5480317" lon="14.9097383"><ele>3.0</ele><time>2026-04-09T18:00:07.091Z</time></trkpt><trkpt lat="40.5478667" lon="14.9098567"><ele>3.0</ele><time>2026-04-09T18:00:08.091Z</time></trkpt><trkpt lat="40.5477033" lon="14.9099767"><ele>3.333333333333333</ele><time>2026-04-09T18:00:09.091Z</time></trkpt><trkpt lat="40.54754" lon="14.9101033"><ele>3.6666666666666665</ele><time>2026-04-09T18:00:10.091Z</time></trkpt><trkpt lat="40.5473733" lon="14.9102333"><ele>4.0</ele><time>2026-04-09T18:00:11.091Z</time></trkpt><trkpt lat="40.54721" lon="14.9103583"><ele>4.0</ele><time>2026-04-09T18:00:12.091Z</time></trkpt><trkpt lat="40.5470467" lon="14.9104817"><ele>4.0</ele><time>2026-04-09T18:00:13.091Z</time></trkpt><trkpt lat="40.5468817" lon="14.9106067"><ele>4.0</ele><time>2026-04-09T18:00:14.091Z</time></trkpt><trkpt lat="40.54672" lon="14.9107317"><ele>4.0</ele><time>2026-04-09T18:00:15.091Z</time></trkpt><trkpt lat="40.5465583" lon="14.9108633"><ele>4.0</ele><time>2026-04-09T18:00:16.091Z</time></trkpt><trkpt lat="40.5463967" lon="14.91099"><ele>4.0</ele><time>2026-04-09T18:00:17.091Z</time></trkpt><trkpt lat="40.5462367" lon="14.911115"><ele>3.6666666666666665</ele><time>2026-04-09T18:00:18.091Z</time></trkpt><trkpt lat="40.546075" lon="14.9112317"><ele>3.333333333333333</ele><time>2026-04-09T18:00:19.091Z</time></trkpt><trkpt lat="40.5459117" lon="14.91136"><ele>3.0</ele><time>2026-04-09T18:00:20.091Z</time></trkpt><trkpt lat="40.545735" lon="14.9114967"><ele>3.0</ele><time>2026-04-09T18:00:21.091Z</time></trkpt><trkpt lat="40.5455683" lon="14.91163"><ele>3.0</ele><time>2026-04-09T18:00:22.091Z</time></trkpt><trkpt lat="40.5454017" lon="14.9117583"><ele>3.0</ele><time>2026-04-09T18:00:23.091Z</time></trkpt><trkpt lat="40.5452317" lon="14.9118867"><ele>2.6666666666666665</ele><time>2026-04-09T18:00:24.091Z</time></trkpt><trkpt lat="40.5450617" lon="14.912015"><ele>2.333333333333333</ele><time>2026-04-09T18:00:25.091Z</time></trkpt><trkpt lat="40.5448967" lon="14.912145"><ele>2.0</ele><time>2026-04-09T18:00:26.091Z</time></trkpt><trkpt lat="40.5447383" lon="14.912275"><ele>2.0</ele><time>2026-04-09T18:00:27.091Z</time></trkpt><trkpt lat="40.5445817" lon="14.912405"><ele>2.0</ele><time>2026-04-09T18:00:28.091Z</time></trkpt><trkpt lat="40.5444183" lon="14.9125267"><ele>2.0</ele><time>2026-04-09T18:00:29.091Z</time></trkpt><trkpt lat="40.5442567" lon="14.9126433"><ele>2.333333333333333</ele><time>2026-04-09T18:00:30.091Z</time></trkpt><trkpt lat="40.5441" lon="14.912765"><ele>2.6666666666666665</ele><time>2026-04-09T18:00:31.091Z</time></trkpt><trkpt lat="40.543935" lon="14.91289"><ele>3.0</ele><time>2026-04-09T18:00:32.091Z</time></trkpt><trkpt lat="40.54377" lon="14.91302"><ele>3.0</ele><time>2026-04-09T18:00:33.091Z</time></trkpt><trkpt lat="40.5436" lon="14.9131533"><ele>3.0</ele><time>2026-04-09T18:00:34.091Z</time></trkpt><trkpt lat="40.54343" lon="14.9132917"><ele>3.0</ele><time>2026-04-09T18:00:35.091Z</time></trkpt><trkpt lat="40.54326" lon="14.9134283"><ele>3.0</ele><time>2026-04-09T18:00:36.091Z</time></trkpt><trkpt lat="40.543085" lon="14.9135583"><ele>3.0</ele><time>2026-04-09T18:00:37.091Z</time></trkpt><trkpt lat="40.5429183" lon="14.9136783"><ele>3.0</ele><time>2026-04-09T18:00:38.091Z</time></trkpt><trkpt lat="40.5427483" lon="14.913805"><ele>2.6666666666666665</ele><time>2026-04-09T18:00:39.091Z</time></trkpt><trkpt lat="40.5425767" lon="14.9139367"><ele>2.333333333333333</ele><time>2026-04-09T18:00:40.091Z</time></trkpt><trkpt lat="40.5424133" lon="14.9140617"><ele>2.0</ele><time>2026-04-09T18:00:41.091Z</time></trkpt><trkpt lat="40.5422583" lon="14.9141817"><ele>2.0</ele><time>2026-04-09T18:00:42.091Z</time></trkpt><trkpt lat="40.5421133" lon="14.9143017"><ele>2.0</ele><time>2026-04-09T18:00:43.091Z</time></trkpt><trkpt lat="40.54196" lon="14.9144233"><ele>2.0</ele><time>2026-04-09T18:00:44.091Z</time></trkpt><trkpt lat="40.5418017" lon="14.9145467"><ele>2.6666666666666665</ele><time>2026-04-09T18:00:45.091Z</time></trkpt><trkpt lat="40.5416417" lon="14.9146667"><ele>3.333333333333333</ele><time>2026-04-09T18:00:46.091Z</time></trkpt><trkpt lat="40.5414767" lon="14.914795"><ele>4.0</ele><time>2026-04-09T18:00:47.091Z</time></trkpt><trkpt lat="40.541315" lon="14.9149233"><ele>4.0</ele><time>2026-04-09T18:00:48.091Z</time></trkpt><trkpt lat="40.541155" lon="14.9150517"><ele>4.0</ele><time>2026-04-09T18:00:49.091Z</time></trkpt><trkpt lat="40.5409933" lon="14.9151783"><ele>4.0</ele><time>2026-04-09T18:00:50.091Z</time></trkpt><trkpt lat="40.54082" lon="14.9153"><ele>4.0</ele><time>2026-04-09T18:00:51.091Z</time></trkpt><trkpt lat="40.5406567" lon="14.9154133"><ele>4.0</ele><time>2026-04-09T18:00:52.091Z</time></trkpt><trkpt lat="40.5405017" lon="14.915525"><ele>4.0</ele><time>2026-04-09T18:00:53.091Z</time></trkpt><trkpt lat="40.5403383" lon="14.9156283"><ele>4.0</ele><time>2026-04-09T18:00:54.091Z</time></trkpt><trkpt lat="40.54017" lon="14.9157367"><ele>4.0</ele><time>2026-04-09T18:00:55.091Z</time></trkpt><trkpt lat="40.5399883" lon="14.9158467"><ele>4.0</ele><time>2026-04-09T18:00:56.091Z</time></trkpt><trkpt lat="40.539815" lon="14.915955"><ele>3.6666666666666665</ele><time>2026-04-09T18:00:57.091Z</time></trkpt><trkpt lat="40.5396417" lon="14.9160533"><ele>3.333333333333333</ele><time>2026-04-09T18:00:58.091Z</time></trkpt><trkpt lat="40.5394767" lon="14.916145"><ele>3.0</ele><time>2026-04-09T18:00:59.091Z</time></trkpt><trkpt lat="40.539315" lon="14.91623"><ele>3.0</ele><time>2026-04-09T18:01:00.091Z</time></trkpt><trkpt lat="40.539155" lon="14.91632"><ele>3.0</ele><time>2026-04-09T18:01:01.091Z</time></trkpt><trkpt lat="40.53899" lon="14.9164083"><ele>3.0</ele><time>2026-04-09T18:01:02.091Z</time></trkpt><trkpt lat="40.5388317" lon="14.9164983"><ele>3.0</ele><time>2026-04-09T18:01:03.091Z</time></trkpt><trkpt lat="40.5386667" lon="14.9165933"><ele>3.0</ele><time>2026-04-09T18:01:04.091Z</time></trkpt><trkpt lat="40.5385017" lon="14.9166767"><ele>3.0</ele><time>2026-04-09T18:01:05.091Z</time></trkpt><trkpt lat="40.538335" lon="14.916775"><ele>2.3333333333333335</ele><time>2026-04-09T18:01:06.091Z</time></trkpt><trkpt lat="40.5381667" lon="14.91687"><ele>1.6666666666666665</ele><time>2026-04-09T18:01:07.091Z</time></trkpt><trkpt lat="40.538" lon="14.9169617"><ele>1.0</ele><time>2026-04-09T18:01:08.091Z</time></trkpt><trkpt lat="40.5378233" lon="14.9170517"><ele>1.0</ele><time>2026-04-09T18:01:09.091Z</time></trkpt><trkpt lat="40.5376517" lon="14.9171433"><ele>1.0</ele><time>2026-04-09T18:01:10.091Z</time></trkpt><trkpt lat="40.5374733" lon="14.9172417"><ele>1.0</ele><time>2026-04-09T18:01:11.091Z</time></trkpt><trkpt lat="40.5372933" lon="14.9173433"><ele>1.0</ele><time>2026-04-09T18:01:12.091Z</time></trkpt><trkpt lat="40.5371133" lon="14.9174433"><ele>1.0</ele><time>2026-04-09T18:01:13.091Z</time></trkpt><trkpt lat="40.5369283" lon="14.9175483"><ele>1.0</ele><time>2026-04-09T18:01:14.091Z</time></trkpt><trkpt lat="40.5367383" lon="14.91765"><ele>1.3333333333333333</ele><time>2026-04-09T18:01:15.091Z</time></trkpt><trkpt lat="40.5365517" lon="14.9177517"><ele>1.6666666666666665</ele><time>2026-04-09T18:01:16.091Z</time></trkpt><trkpt lat="40.536355" lon="14.91785"><ele>2.0</ele><time>2026-04-09T18:01:17.091Z</time></trkpt><trkpt lat="40.5361583" lon="14.91796"><ele>2.0</ele><time>2026-04-09T18:01:18.091Z</time></trkpt><trkpt lat="40.5359717" lon="14.9180617"><ele>2.0</ele><time>2026-04-09T18:01:19.091Z</time></trkpt><trkpt lat="40.5357883" lon="14.91816"><ele>2.0</ele><time>2026-04-09T18:01:20.091Z</time></trkpt><trkpt lat="40.5356083" lon="14.9182567"><ele>2.0</ele><time>2026-04-09T18:01:21.091Z</time></trkpt><trkpt lat="40.535425" lon="14.9183633"><ele>2.0</ele><time>2026-04-09T18:01:22.091Z</time></trkpt><trkpt lat="40.5352417" lon="14.9184617"><ele>2.0</ele><time>2026-04-09T18:01:23.091Z</time></trkpt><trkpt lat="40.53506" lon="14.9185533"><ele>2.0</ele><time>2026-04-09T18:01:24.091Z</time></trkpt><trkpt lat="40.5348917" lon="14.91865"><ele>2.0</ele><time>2026-04-09T18:01:25.091Z</time></trkpt><trkpt lat="40.5347217" lon="14.9187467"><ele>2.0</ele><time>2026-04-09T18:01:26.091Z</time></trkpt><trkpt lat="40.534545" lon="14.9188467"><ele>2.0</ele><time>2026-04-09T18:01:27.091Z</time></trkpt><trkpt lat="40.5343717" lon="14.91894"><ele>2.0</ele><time>2026-04-09T18:01:28.091Z</time></trkpt><trkpt lat="40.5342067" lon="14.9190317"><ele>2.0</ele><time>2026-04-09T18:01:29.091Z</time></trkpt><trkpt lat="40.5340383" lon="14.9191233"><ele>2.0</ele><time>2026-04-09T18:01:30.091Z</time></trkpt><trkpt lat="40.5338717" lon="14.91921"><ele>2.0</ele><time>2026-04-09T18:01:31.091Z</time></trkpt><trkpt lat="40.5337067" lon="14.9193033"><ele>2.0</ele><time>2026-04-09T18:01:32.091Z</time></trkpt><trkpt lat="40.53354" lon="14.9193983"><ele>2.0</ele><time>2026-04-09T18:01:33.091Z</time></trkpt><trkpt lat="40.53337" lon="14.9194883"><ele>2.0</ele><time>2026-04-09T18:01:34.091Z</time></trkpt><trkpt lat="40.5331967" lon="14.919585"><ele>2.0</ele><time>2026-04-09T18:01:35.091Z</time></trkpt><trkpt lat="40.5330233" lon="14.91968"><ele>2.333333333333333</ele><time>2026-04-09T18:01:36.091Z</time></trkpt><trkpt lat="40.5328533" lon="14.91977"><ele>2.6666666666666665</ele><time>2026-04-09T18:01:37.091Z</time></trkpt><trkpt lat="40.5326783" lon="14.9198633"><ele>3.0</ele><time>2026-04-09T18:01:38.091Z</time></trkpt><trkpt lat="40.532505" lon="14.9199583"><ele>3.0</ele><time>2026-04-09T18:01:39.091Z</time></trkpt><trkpt lat="40.5323317" lon="14.92006"><ele>3.0</ele><time>2026-04-09T18:01:40.091Z</time></trkpt><trkpt lat="40.5321617" lon="14.9201533"><ele>3.0</ele><time>2026-04-09T18:01:41.091Z</time></trkpt><trkpt lat="40.53199" lon="14.920245"><ele>2.3333333333333335</ele><time>2026-04-09T18:01:42.091Z</time></trkpt><trkpt lat="40.5318117" lon="14.9203367"><ele>1.6666666666666665</ele><time>2026-04-09T18:01:43.091Z</time></trkpt><trkpt lat="40.5316233" lon="14.9204417"><ele>1.0</ele><time>2026-04-09T18:01:44.091Z</time></trkpt><trkpt lat="40.5314317" lon="14.9205517"><ele>1.0</ele><time>2026-04-09T18:01:45.091Z</time></trkpt><trkpt lat="40.53123" lon="14.9206633"><ele>1.0</ele><time>2026-04-09T18:01:46.091Z</time></trkpt><trkpt lat="40.53103" lon="14.92078"><ele>1.0</ele><time>2026-04-09T18:01:47.091Z</time></trkpt><trkpt lat="40.530815" lon="14.9209017"><ele>1.5</ele><time>2026-04-09T18:01:48.091Z</time></trkpt><trkpt lat="40.53061" lon="14.9210167"><ele>2.0</ele><time>2026-04-09T18:01:49.091Z</time></trkpt><trkpt lat="40.530395" lon="14.9211267"><ele>2.0</ele><time>2026-04-09T18:01:50.091Z</time></trkpt><trkpt lat="40.5301933" lon="14.9212267"><ele>2.0</ele><time>2026-04-09T18:01:51.091Z</time></trkpt><trkpt lat="40.5299967" lon="14.9213267"><ele>2.0</ele><time>2026-04-09T18:01:52.091Z</time></trkpt><trkpt lat="40.5298033" lon="14.9214283"><ele>2.0</ele><time>2026-04-09T18:01:53.091Z</time></trkpt><trkpt lat="40.5296117" lon="14.9215283"><ele>2.0</ele><time>2026-04-09T18:01:54.091Z</time></trkpt><trkpt lat="40.5294183" lon="14.9216317"><ele>2.0</ele><time>2026-04-09T18:01:55.091Z</time></trkpt><trkpt lat="40.52923" lon="14.9217317"><ele>2.0</ele><time>2026-04-09T18:01:56.091Z</time></trkpt><trkpt lat="40.5290417" lon="14.9218333"><ele>2.0</ele><time>2026-04-09T18:01:57.091Z</time></trkpt><trkpt lat="40.5288533" lon="14.9219417"><ele>2.0</ele><time>2026-04-09T18:01:58.091Z</time></trkpt><trkpt lat="40.5286633" lon="14.9220467"><ele>2.0</ele><time>2026-04-09T18:01:59.091Z</time></trkpt><trkpt lat="40.5284767" lon="14.92215"><ele>2.0</ele><time>2026-04-09T18:02:00.091Z</time></trkpt><trkpt lat="40.52829" lon="14.9222483"><ele>2.0</ele><time>2026-04-09T18:02:01.091Z</time></trkpt><trkpt lat="40.5281117" lon="14.9223467"><ele>2.0</ele><time>2026-04-09T18:02:02.091Z</time></trkpt><trkpt lat="40.5279433" lon="14.9224433"><ele>2.0</ele><time>2026-04-09T18:02:03.091Z</time></trkpt><trkpt lat="40.5277783" lon="14.9225317"><ele>2.0</ele><time>2026-04-09T18:02:04.091Z</time></trkpt><trkpt lat="40.5276167" lon="14.9226183"><ele>2.333333333333333</ele><time>2026-04-09T18:02:05.091Z</time></trkpt><trkpt lat="40.52746" lon="14.9227033"><ele>2.6666666666666665</ele><time>2026-04-09T18:02:06.091Z</time></trkpt><trkpt lat="40.5273083" lon="14.9227883"><ele>3.0</ele><time>2026-04-09T18:02:07.091Z</time></trkpt><trkpt lat="40.52717" lon="14.92286"><ele>3.0</ele><time>2026-04-09T18:02:08.091Z</time></trkpt><trkpt lat="40.5270333" lon="14.9229317"><ele>3.0</ele><time>2026-04-09T18:02:09.091Z</time></trkpt><trkpt lat="40.5269" lon="14.9230017"><ele>3.0</ele><time>2026-04-09T18:02:10.091Z</time></trkpt><trkpt lat="40.5267717" lon="14.923075"><ele>3.0</ele><time>2026-04-09T18:02:11.091Z</time></trkpt><trkpt lat="40.5266467" lon="14.9231467"><ele>3.0</ele><time>2026-04-09T18:02:12.091Z</time></trkpt><trkpt lat="40.5265283" lon="14.92321"><ele>3.0</ele><time>2026-04-09T18:02:13.091Z</time></trkpt><trkpt lat="40.52642" lon="14.9232667"><ele>3.0</ele><time>2026-04-09T18:02:14.091Z</time></trkpt><trkpt lat="40.5263283" lon="14.9233167"><ele>3.0</ele><time>2026-04-09T18:02:15.091Z</time></trkpt><trkpt lat="40.526245" lon="14.9233583"><ele>3.0</ele><time>2026-04-09T18:02:16.091Z</time></trkpt><trkpt lat="40.5261617" lon="14.9233933"><ele>2.6666666666666665</ele><time>2026-04-09T18:02:17.091Z</time></trkpt><trkpt lat="40.52608" lon="14.9234017"><ele>2.3333333333333335</ele><time>2026-04-09T18:02:18.091Z</time></trkpt><trkpt lat="40.526" lon="14.923415"><ele>2.0</ele><time>2026-04-09T18:02:19.091Z</time></trkpt><trkpt lat="40.52592" lon="14.923445"><ele>1.6666666666666665</ele><time>2026-04-09T18:02:20.091Z</time></trkpt><trkpt lat="40.52585" lon="14.9234983"><ele>1.3333333333333333</ele><time>2026-04-09T18:02:21.091Z</time></trkpt><trkpt lat="40.5257683" lon="14.923575"><ele>1.0</ele><time>2026-04-09T18:02:22.091Z</time></trkpt><trkpt lat="40.5256617" lon="14.9236567"><ele>1.0</ele><time>2026-04-09T18:02:23.091Z</time></trkpt><trkpt lat="40.5255417" lon="14.9237417"><ele>1.0</ele><time>2026-04-09T18:02:24.091Z</time></trkpt><trkpt lat="40.5254" lon="14.9238217"><ele>1.0</ele><time>2026-04-09T18:02:25.091Z</time></trkpt><trkpt lat="40.5252583" lon="14.9238967"><ele>1.0</ele><time>2026-04-09T18:02:26.091Z</time></trkpt><trkpt lat="40.5251183" lon="14.9239733"><ele>1.0</ele><time>2026-04-09T18:02:27.091Z</time></trkpt><trkpt lat="40.524965" lon="14.9240483"><ele>1.0</ele><time>2026-04-09T18:02:28.091Z</time></trkpt><trkpt lat="40.524805" lon="14.9241333"><ele>1.0</ele><time>2026-04-09T18:02:29.091Z</time></trkpt><trkpt lat="40.52464" lon="14.924225"><ele>1.3333333333333333</ele><time>2026-04-09T18:02:30.091Z</time></trkpt><trkpt lat="40.5244717" lon="14.924315"><ele>1.6666666666666665</ele><time>2026-04-09T18:02:31.091Z</time></trkpt><trkpt lat="40.5243167" lon="14.9244"><ele>2.0</ele><time>2026-04-09T18:02:32.091Z</time></trkpt><trkpt lat="40.52415" lon="14.9244917"><ele>2.0</ele><time>2026-04-09T18:02:33.091Z</time></trkpt><trkpt lat="40.5239817" lon="14.9245917"><ele>2.0</ele><time>2026-04-09T18:02:34.091Z</time></trkpt><trkpt lat="40.5238033" lon="14.924695"><ele>2.0</ele><time>2026-04-09T18:02:35.091Z</time></trkpt><trkpt lat="40.5236267" lon="14.9247867"><ele>2.333333333333333</ele><time>2026-04-09T18:02:36.091Z</time></trkpt><trkpt lat="40.5234533" lon="14.9248783"><ele>2.6666666666666665</ele><time>2026-04-09T18:02:37.091Z</time></trkpt><trkpt lat="40.52328" lon="14.9249733"><ele>3.0</ele><time>2026-04-09T18:02:38.091Z</time></trkpt><trkpt lat="40.52311" lon="14.9250683"><ele>3.0</ele><time>2026-04-09T18:02:39.091Z</time></trkpt><trkpt lat="40.5229317" lon="14.9251683"><ele>3.0</ele><time>2026-04-09T18:02:40.091Z</time></trkpt><trkpt lat="40.5227483" lon="14.9252633"><ele>3.0</ele><time>2026-04-09T18:02:41.091Z</time></trkpt><trkpt lat="40.5225767" lon="14.9253583"><ele>2.6666666666666665</ele><time>2026-04-09T18:02:42.091Z</time></trkpt><trkpt lat="40.52241" lon="14.9254467"><ele>2.333333333333333</ele><time>2026-04-09T18:02:43.091Z</time></trkpt><trkpt lat="40.522245" lon="14.925535"><ele>2.0</ele><time>2026-04-09T18:02:44.091Z</time></trkpt><trkpt lat="40.5220817" lon="14.9256217"><ele>2.0</ele><time>2026-04-09T18:02:45.091Z</time></trkpt><trkpt lat="40.5219217" lon="14.925715"><ele>2.0</ele><time>2026-04-09T18:02:46.091Z</time></trkpt><trkpt lat="40.5217583" lon="14.92581"><ele>2.0</ele><time>2026-04-09T18:02:47.091Z</time></trkpt><trkpt lat="40.5215867" lon="14.9259017"><ele>2.0</ele><time>2026-04-09T18:02:48.091Z</time></trkpt><trkpt lat="40.5214167" lon="14.925995"><ele>2.0</ele><time>2026-04-09T18:02:49.091Z</time></trkpt><trkpt lat="40.521235" lon="14.9260933"><ele>2.0</ele><time>2026-04-09T18:02:50.091Z</time></trkpt><trkpt lat="40.5210567" lon="14.92619"><ele>2.0</ele><time>2026-04-09T18:02:51.091Z</time></trkpt><trkpt lat="40.5208817" lon="14.9262867"><ele>2.0</ele><time>2026-04-09T18:02:52.091Z</time></trkpt><trkpt lat="40.5207083" lon="14.9263717"><ele>2.0</ele><time>2026-04-09T18:02:53.091Z</time></trkpt><trkpt lat="40.5205433" lon="14.9264617"><ele>3.0</ele><time>2026-04-09T18:02:54.091Z</time></trkpt><trkpt lat="40.5203733" lon="14.926555"><ele>4.0</ele><time>2026-04-09T18:02:55.091Z</time></trkpt><trkpt lat="40.5202133" lon="14.9266383"><ele>5.0</ele><time>2026-04-09T18:02:56.091Z</time></trkpt><trkpt lat="40.5200583" lon="14.9267233"><ele>4.333333333333334</ele><time>2026-04-09T18:02:57.091Z</time></trkpt><trkpt lat="40.5198983" lon="14.9268117"><ele>3.666666666666667</ele><time>2026-04-09T18:02:58.091Z</time></trkpt><trkpt lat="40.5197333" lon="14.926905"><ele>3.0</ele><time>2026-04-09T18:02:59.091Z</time></trkpt><trkpt lat="40.5195667" lon="14.9269917"><ele>3.0</ele><time>2026-04-09T18:03:00.091Z</time></trkpt><trkpt lat="40.5194" lon="14.92708"><ele>3.0</ele><time>2026-04-09T18:03:01.091Z</time></trkpt><trkpt lat="40.5192267" lon="14.92718"><ele>3.0</ele><time>2026-04-09T18:03:02.091Z</time></trkpt><trkpt lat="40.5190533" lon="14.9272733"><ele>3.0</ele><time>2026-04-09T18:03:03.091Z</time></trkpt><trkpt lat="40.51888" lon="14.927375"><ele>3.0</ele><time>2026-04-09T18:03:04.091Z</time></trkpt><trkpt lat="40.5187017" lon="14.9274783"><ele>3.0</ele><time>2026-04-09T18:03:05.091Z</time></trkpt><trkpt lat="40.518525" lon="14.9275767"><ele>2.3333333333333335</ele><time>2026-04-09T18:03:06.091Z</time></trkpt><trkpt lat="40.5183383" lon="14.9276833"><ele>1.6666666666666665</ele><time>2026-04-09T18:03:07.091Z</time></trkpt><trkpt lat="40.51816" lon="14.9277833"><ele>1.0</ele><time>2026-04-09T18:03:08.091Z</time></trkpt><trkpt lat="40.5179917" lon="14.9278767"><ele>1.0</ele><time>2026-04-09T18:03:09.091Z</time></trkpt><trkpt lat="40.5178367" lon="14.9279617"><ele>1.0</ele><time>2026-04-09T18:03:10.091Z</time></trkpt><trkpt lat="40.5176833" lon="14.9280417"><ele>1.0</ele><time>2026-04-09T18:03:11.091Z</time></trkpt><trkpt lat="40.51753" lon="14.9281183"><ele>1.0</ele><time>2026-04-09T18:03:12.091Z</time></trkpt><trkpt lat="40.5173767" lon="14.9282"><ele>1.0</ele><time>2026-04-09T18:03:13.091Z</time></trkpt><trkpt lat="40.51722" lon="14.9282867"><ele>1.0</ele><time>2026-04-09T18:03:14.091Z</time></trkpt><trkpt lat="40.5170717" lon="14.9283717"><ele>1.6666666666666665</ele><time>2026-04-09T18:03:15.091Z</time></trkpt><trkpt lat="40.5169233" lon="14.92845"><ele>2.3333333333333335</ele><time>2026-04-09T18:03:16.091Z</time></trkpt><trkpt lat="40.516765" lon="14.9285417"><ele>3.0</ele><time>2026-04-09T18:03:17.091Z</time></trkpt><trkpt lat="40.5166" lon="14.9286267"><ele>3.0</ele><time>2026-04-09T18:03:18.091Z</time></trkpt><trkpt lat="40.5164317" lon="14.928715"><ele>3.0</ele><time>2026-04-09T18:03:19.091Z</time></trkpt><trkpt lat="40.5162617" lon="14.9288067"><ele>3.0</ele><time>2026-04-09T18:03:20.091Z</time></trkpt><trkpt lat="40.5160867" lon="14.9288983"><ele>3.333333333333333</ele><time>2026-04-09T18:03:21.091Z</time></trkpt><trkpt lat="40.5159183" lon="14.9289917"><ele>3.6666666666666665</ele><time>2026-04-09T18:03:22.091Z</time></trkpt><trkpt lat="40.515755" lon="14.9290767"><ele>4.0</ele><time>2026-04-09T18:03:23.091Z</time></trkpt><trkpt lat="40.5156017" lon="14.9291683"><ele>3.6666666666666665</ele><time>2026-04-09T18:03:24.091Z</time></trkpt><trkpt lat="40.5154533" lon="14.9292517"><ele>3.333333333333333</ele><time>2026-04-09T18:03:25.091Z</time></trkpt><trkpt lat="40.5153067" lon="14.9293333"><ele>3.0</ele><time>2026-04-09T18:03:26.091Z</time></trkpt><trkpt lat="40.5151633" lon="14.9294083"><ele>2.6666666666666665</ele><time>2026-04-09T18:03:27.091Z</time></trkpt><trkpt lat="40.5150083" lon="14.9294883"><ele>2.333333333333333</ele><time>2026-04-09T18:03:28.091Z</time></trkpt><trkpt lat="40.5148417" lon="14.92958"><ele>2.0</ele><time>2026-04-09T18:03:29.091Z</time></trkpt><trkpt lat="40.5146667" lon="14.9296817"><ele>2.0</ele><time>2026-04-09T18:03:30.091Z</time></trkpt><trkpt lat="40.5144867" lon="14.9297867"><ele>2.0</ele><time>2026-04-09T18:03:31.091Z</time></trkpt><trkpt lat="40.5142983" lon="14.9298867"><ele>2.0</ele><time>2026-04-09T18:03:32.091Z</time></trkpt><trkpt lat="40.514115" lon="14.9299783"><ele>1.6666666666666665</ele><time>2026-04-09T18:03:33.091Z</time></trkpt><trkpt lat="40.5139433" lon="14.9300683"><ele>1.3333333333333333</ele><time>2026-04-09T18:03:34.091Z</time></trkpt><trkpt lat="40.5137783" lon="14.9301517"><ele>1.0</ele><time>2026-04-09T18:03:35.091Z</time></trkpt><trkpt lat="40.5136217" lon="14.9302333"><ele>1.0</ele><time>2026-04-09T18:03:36.091Z</time></trkpt><trkpt lat="40.5134733" lon="14.9303133"><ele>1.0</ele><time>2026-04-09T18:03:37.091Z</time></trkpt><trkpt lat="40.51332" lon="14.9303933"><ele>1.0</ele><time>2026-04-09T18:03:38.091Z</time></trkpt><trkpt lat="40.5131683" lon="14.93048"><ele>1.0</ele><time>2026-04-09T18:03:39.091Z</time></trkpt><trkpt lat="40.5130217" lon="14.930565"><ele>1.0</ele><time>2026-04-09T18:03:40.091Z</time></trkpt><trkpt lat="40.51288" lon="14.9306467"><ele>1.0</ele><time>2026-04-09T18:03:41.091Z</time></trkpt><trkpt lat="40.51273" lon="14.9307283"><ele>1.3333333333333333</ele><time>2026-04-09T18:03:42.091Z</time></trkpt><trkpt lat="40.5125767" lon="14.9308183"><ele>1.6666666666666665</ele><time>2026-04-09T18:03:43.091Z</time></trkpt><trkpt lat="40.5124183" lon="14.9309167"><ele>2.0</ele><time>2026-04-09T18:03:44.091Z</time></trkpt><trkpt lat="40.5122467" lon="14.9310183"><ele>2.333333333333333</ele><time>2026-04-09T18:03:45.091Z</time></trkpt><trkpt lat="40.5120683" lon="14.931125"><ele>2.6666666666666665</ele><time>2026-04-09T18:03:46.091Z</time></trkpt><trkpt lat="40.5118717" lon="14.9312133"><ele>3.0</ele><time>2026-04-09T18:03:47.091Z</time></trkpt><trkpt lat="40.511675" lon="14.9313167"><ele>3.0</ele><time>2026-04-09T18:03:48.091Z</time></trkpt><trkpt lat="40.5114783" lon="14.931425"><ele>3.0</ele><time>2026-04-09T18:03:49.091Z</time></trkpt><trkpt lat="40.5112783" lon="14.9315283"><ele>3.0</ele><time>2026-04-09T18:03:50.091Z</time></trkpt><trkpt lat="40.5110783" lon="14.9316383"><ele>2.6666666666666665</ele><time>2026-04-09T18:03:51.091Z</time></trkpt><trkpt lat="40.5108817" lon="14.93175"><ele>2.333333333333333</ele><time>2026-04-09T18:03:52.091Z</time></trkpt><trkpt lat="40.5106833" lon="14.931865"><ele>2.0</ele><time>2026-04-09T18:03:53.091Z</time></trkpt><trkpt lat="40.5104933" lon="14.93197"><ele>3.0</ele><time>2026-04-09T18:03:54.091Z</time></trkpt><trkpt lat="40.510295" lon="14.9320717"><ele>4.0</ele><time>2026-04-09T18:03:55.091Z</time></trkpt><trkpt lat="40.5100967" lon="14.932185"><ele>5.0</ele><time>2026-04-09T18:03:56.091Z</time></trkpt><trkpt lat="40.5098867" lon="14.9323"><ele>5.0</ele><time>2026-04-09T18:03:57.091Z</time></trkpt><trkpt lat="40.5096767" lon="14.9324083"><ele>5.0</ele><time>2026-04-09T18:03:58.091Z</time></trkpt><trkpt lat="40.50947" lon="14.932515"><ele>5.0</ele><time>2026-04-09T18:03:59.091Z</time></trkpt><trkpt lat="40.5092733" lon="14.9326183"><ele>4.333333333333334</ele><time>2026-04-09T18:04:00.091Z</time></trkpt><trkpt lat="40.5090867" lon="14.9327233"><ele>3.666666666666667</ele><time>2026-04-09T18:04:01.091Z</time></trkpt><trkpt lat="40.508895" lon="14.932825"><ele>3.0</ele><time>2026-04-09T18:04:02.091Z</time></trkpt><trkpt lat="40.5087083" lon="14.932925"><ele>3.0</ele><time>2026-04-09T18:04:03.091Z</time></trkpt><trkpt lat="40.5085267" lon="14.93302"><ele>3.0</ele><time>2026-04-09T18:04:04.091Z</time></trkpt><trkpt lat="40.5083567" lon="14.9331133"><ele>3.0</ele><time>2026-04-09T18:04:05.091Z</time></trkpt><trkpt lat="40.508185" lon="14.93321"><ele>3.0</ele><time>2026-04-09T18:04:06.091Z</time></trkpt><trkpt lat="40.50801" lon="14.9333033"><ele>3.0</ele><time>2026-04-09T18:04:07.091Z</time></trkpt><trkpt lat="40.507835" lon="14.933395"><ele>3.0</ele><time>2026-04-09T18:04:08.091Z</time></trkpt><trkpt lat="40.5076667" lon="14.9334833"><ele>2.6666666666666665</ele><time>2026-04-09T18:04:09.091Z</time></trkpt><trkpt lat="40.507495" lon="14.9335833"><ele>2.333333333333333</ele><time>2026-04-09T18:04:10.091Z</time></trkpt><trkpt lat="40.50732" lon="14.9336717"><ele>2.0</ele><time>2026-04-09T18:04:11.091Z</time></trkpt><trkpt lat="40.5071433" lon="14.9337667"><ele>3.333333333333333</ele><time>2026-04-09T18:04:12.091Z</time></trkpt><trkpt lat="40.50697" lon="14.9338633"><ele>4.666666666666667</ele><time>2026-04-09T18:04:13.091Z</time></trkpt><trkpt lat="40.5068017" lon="14.9339583"><ele>6.0</ele><time>2026-04-09T18:04:14.091Z</time></trkpt><trkpt lat="40.506635" lon="14.9340517"><ele>6.0</ele><time>2026-04-09T18:04:15.091Z</time></trkpt><trkpt lat="40.5064783" lon="14.9341433"><ele>6.0</ele><time>2026-04-09T18:04:16.091Z</time></trkpt><trkpt lat="40.50631" lon="14.9342267"><ele>6.0</ele><time>2026-04-09T18:04:17.091Z</time></trkpt><trkpt lat="40.5061333" lon="14.93432"><ele>4.666666666666667</ele><time>2026-04-09T18:04:18.091Z</time></trkpt><trkpt lat="40.50596" lon="14.9344233"><ele>3.333333333333333</ele><time>2026-04-09T18:04:19.091Z</time></trkpt><trkpt lat="40.5057783" lon="14.9345267"><ele>2.0</ele><time>2026-04-09T18:04:20.091Z</time></trkpt><trkpt lat="40.5055933" lon="14.9346333"><ele>4.0</ele><time>2026-04-09T18:04:21.091Z</time></trkpt><trkpt lat="40.505395" lon="14.9347333"><ele>6.0</ele><time>2026-04-09T18:04:22.091Z</time></trkpt><trkpt lat="40.5051933" lon="14.9348333"><ele>8.0</ele><time>2026-04-09T18:04:23.091Z</time></trkpt><trkpt lat="40.5049883" lon="14.9349367"><ele>8.0</ele><time>2026-04-09T18:04:24.091Z</time></trkpt><trkpt lat="40.5047933" lon="14.9350417"><ele>8.0</ele><time>2026-04-09T18:04:25.091Z</time></trkpt><trkpt lat="40.5045983" lon="14.9351433"><ele>8.0</ele><time>2026-04-09T18:04:26.091Z</time></trkpt><trkpt lat="40.50441" lon="14.9352417"><ele>7.0</ele><time>2026-04-09T18:04:27.091Z</time></trkpt><trkpt lat="40.50422" lon="14.935345"><ele>6.0</ele><time>2026-04-09T18:04:28.091Z</time></trkpt><trkpt lat="40.5040383" lon="14.9354483"><ele>5.0</ele><time>2026-04-09T18:04:29.091Z</time></trkpt><trkpt lat="40.5038567" lon="14.93555"><ele>6.0</ele><time>2026-04-09T18:04:30.091Z</time></trkpt><trkpt lat="40.50368" lon="14.935645"><ele>7.0</ele><time>2026-04-09T18:04:31.091Z</time></trkpt><trkpt lat="40.5035083" lon="14.9357433"><ele>8.0</ele><time>2026-04-09T18:04:32.091Z</time></trkpt><trkpt lat="40.5033267" lon="14.93584"><ele>6.666666666666666</ele><time>2026-04-09T18:04:33.091Z</time></trkpt><trkpt lat="40.5031467" lon="14.935935"><ele>5.333333333333333</ele><time>2026-04-09T18:04:34.091Z</time></trkpt><trkpt lat="40.502965" lon="14.9360367"><ele>4.0</ele><time>2026-04-09T18:04:35.091Z</time></trkpt><trkpt lat="40.502785" lon="14.9361283"><ele>4.0</ele><time>2026-04-09T18:04:36.091Z</time></trkpt><trkpt lat="40.5025983" lon="14.9362317"><ele>4.0</ele><time>2026-04-09T18:04:37.091Z</time></trkpt><trkpt lat="40.5024133" lon="14.93633"><ele>4.0</ele><time>2026-04-09T18:04:38.091Z</time></trkpt><trkpt lat="40.5022317" lon="14.9364317"><ele>4.666666666666666</ele><time>2026-04-09T18:04:39.091Z</time></trkpt><trkpt lat="40.5020417" lon="14.9365367"><ele>5.333333333333333</ele><time>2026-04-09T18:04:40.091Z</time></trkpt><trkpt lat="40.5018517" lon="14.9366467"><ele>6.0</ele><time>2026-04-09T18:04:41.091Z</time></trkpt><trkpt lat="40.5016583" lon="14.9367467"><ele>6.0</ele><time>2026-04-09T18:04:42.091Z</time></trkpt><trkpt lat="40.50146" lon="14.936855"><ele>6.0</ele><time>2026-04-09T18:04:43.091Z</time></trkpt><trkpt lat="40.501265" lon="14.936955"><ele>6.0</ele><time>2026-04-09T18:04:44.091Z</time></trkpt><trkpt lat="40.5010683" lon="14.93706"><ele>6.666666666666666</ele><time>2026-04-09T18:04:45.091Z</time></trkpt><trkpt lat="40.5008733" lon="14.9371717"><ele>7.333333333333333</ele><time>2026-04-09T18:04:46.091Z</time></trkpt><trkpt lat="40.500685" lon="14.9372733"><ele>8.0</ele><time>2026-04-09T18:04:47.091Z</time></trkpt><trkpt lat="40.5004933" lon="14.93737"><ele>6.0</ele><time>2026-04-09T18:04:48.091Z</time></trkpt><trkpt lat="40.5002967" lon="14.937475"><ele>4.0</ele><time>2026-04-09T18:04:49.091Z</time></trkpt><trkpt lat="40.5001033" lon="14.9375833"><ele>2.0</ele><time>2026-04-09T18:04:50.091Z</time></trkpt><trkpt lat="40.4999167" lon="14.93769"><ele>2.0</ele><time>2026-04-09T18:04:51.091Z</time></trkpt><trkpt lat="40.49973" lon="14.9378"><ele>2.0</ele><time>2026-04-09T18:04:52.091Z</time></trkpt><trkpt lat="40.4995383" lon="14.9379083"><ele>2.0</ele><time>2026-04-09T18:04:53.091Z</time></trkpt><trkpt lat="40.4993383" lon="14.9380183"><ele>2.0</ele><time>2026-04-09T18:04:54.091Z</time></trkpt><trkpt lat="40.499135" lon="14.938135"><ele>2.0</ele><time>2026-04-09T18:04:55.091Z</time></trkpt><trkpt lat="40.4989267" lon="14.9382433"><ele>2.0</ele><time>2026-04-09T18:04:56.091Z</time></trkpt><trkpt lat="40.4987283" lon="14.9383483"><ele>2.0</ele><time>2026-04-09T18:04:57.091Z</time></trkpt><trkpt lat="40.498535" lon="14.9384517"><ele>2.0</ele><time>2026-04-09T18:04:58.091Z</time></trkpt><trkpt lat="40.498345" lon="14.9385533"><ele>2.0</ele><time>2026-04-09T18:04:59.091Z</time></trkpt><trkpt lat="40.4981533" lon="14.9386583"><ele>2.0</ele><time>2026-04-09T18:05:00.091Z</time></trkpt><trkpt lat="40.4979617" lon="14.9387667"><ele>2.0</ele><time>2026-04-09T18:05:01.091Z</time></trkpt><trkpt lat="40.4977733" lon="14.9388683"><ele>2.0</ele><time>2026-04-09T18:05:02.091Z</time></trkpt><trkpt lat="40.4975933" lon="14.9389617"><ele>2.333333333333333</ele><time>2026-04-09T18:05:03.091Z</time></trkpt><trkpt lat="40.4974183" lon="14.9390583"><ele>2.6666666666666665</ele><time>2026-04-09T18:05:04.091Z</time></trkpt><trkpt lat="40.4972367" lon="14.939145"><ele>3.0</ele><time>2026-04-09T18:05:05.091Z</time></trkpt><trkpt lat="40.4970583" lon="14.9392433"><ele>3.0</ele><time>2026-04-09T18:05:06.091Z</time></trkpt><trkpt lat="40.4968817" lon="14.9393417"><ele>3.0</ele><time>2026-04-09T18:05:07.091Z</time></trkpt><trkpt lat="40.4966983" lon="14.939445"><ele>3.0</ele><time>2026-04-09T18:05:08.091Z</time></trkpt><trkpt lat="40.49652" lon="14.9395467"><ele>3.0</ele><time>2026-04-09T18:05:09.091Z</time></trkpt><trkpt lat="40.4963333" lon="14.9396483"><ele>3.0</ele><time>2026-04-09T18:05:10.091Z</time></trkpt><trkpt lat="40.4961483" lon="14.93976"><ele>3.0</ele><time>2026-04-09T18:05:11.091Z</time></trkpt><trkpt lat="40.4959533" lon="14.9398633"><ele>3.0</ele><time>2026-04-09T18:05:12.091Z</time></trkpt><trkpt lat="40.4957583" lon="14.93997"><ele>3.0</ele><time>2026-04-09T18:05:13.091Z</time></trkpt><trkpt lat="40.4955583" lon="14.9400783"><ele>3.0</ele><time>2026-04-09T18:05:14.091Z</time></trkpt><trkpt lat="40.4953567" lon="14.940185"><ele>3.0</ele><time>2026-04-09T18:05:15.091Z</time></trkpt><trkpt lat="40.495155" lon="14.9402983"><ele>3.0</ele><time>2026-04-09T18:05:16.091Z</time></trkpt><trkpt lat="40.4949517" lon="14.9404083"><ele>3.0</ele><time>2026-04-09T18:05:17.091Z</time></trkpt><trkpt lat="40.4947483" lon="14.9405167"><ele>4.0</ele><time>2026-04-09T18:05:18.091Z</time></trkpt><trkpt lat="40.4945467" lon="14.9406183"><ele>5.0</ele><time>2026-04-09T18:05:19.091Z</time></trkpt><trkpt lat="40.4943433" lon="14.940735"><ele>6.0</ele><time>2026-04-09T18:05:20.091Z</time></trkpt><trkpt lat="40.4941333" lon="14.94085"><ele>5.0</ele><time>2026-04-09T18:05:21.091Z</time></trkpt><trkpt lat="40.4939233" lon="14.940965"><ele>4.0</ele><time>2026-04-09T18:05:22.091Z</time></trkpt><trkpt lat="40.4937117" lon="14.9410867"><ele>4.0</ele><time>2026-04-09T18:05:23.091Z</time></trkpt><trkpt lat="40.493495" lon="14.94121"><ele>4.0</ele><time>2026-04-09T18:05:24.091Z</time></trkpt><trkpt lat="40.4932817" lon="14.9413267"><ele>4.0</ele><time>2026-04-09T18:05:25.091Z</time></trkpt><trkpt lat="40.4930667" lon="14.9414433"><ele>4.0</ele><time>2026-04-09T18:05:26.091Z</time></trkpt><trkpt lat="40.4928583" lon="14.9415583"><ele>4.0</ele><time>2026-04-09T18:05:27.091Z</time></trkpt><trkpt lat="40.4926483" lon="14.94167"><ele>4.0</ele><time>2026-04-09T18:05:28.091Z</time></trkpt><trkpt lat="40.4924417" lon="14.9417783"><ele>4.0</ele><time>2026-04-09T18:05:29.091Z</time></trkpt><trkpt lat="40.4922317" lon="14.94189"><ele>4.0</ele><time>2026-04-09T18:05:30.091Z</time></trkpt><trkpt lat="40.49203" lon="14.942005"><ele>4.0</ele><time>2026-04-09T18:05:31.091Z</time></trkpt><trkpt lat="40.49183" lon="14.9421183"><ele>4.0</ele><time>2026-04-09T18:05:32.091Z</time></trkpt><trkpt lat="40.49164" lon="14.9422183"><ele>4.0</ele><time>2026-04-09T18:05:33.091Z</time></trkpt><trkpt lat="40.4914583" lon="14.9423233"><ele>4.0</ele><time>2026-04-09T18:05:34.091Z</time></trkpt><trkpt lat="40.491265" lon="14.94243"><ele>4.0</ele><time>2026-04-09T18:05:35.091Z</time></trkpt><trkpt lat="40.49107" lon="14.9425417"><ele>3.333333333333333</ele><time>2026-04-09T18:05:36.091Z</time></trkpt><trkpt lat="40.490865" lon="14.9426417"><ele>2.6666666666666665</ele><time>2026-04-09T18:05:37.091Z</time></trkpt><trkpt lat="40.4906617" lon="14.94275"><ele>2.0</ele><time>2026-04-09T18:05:38.091Z</time></trkpt><trkpt lat="40.490455" lon="14.9428583"><ele>2.0</ele><time>2026-04-09T18:05:39.091Z</time></trkpt><trkpt lat="40.4902567" lon="14.9429683"><ele>2.0</ele><time>2026-04-09T18:05:40.091Z</time></trkpt><trkpt lat="40.4900517" lon="14.9430783"><ele>2.0</ele><time>2026-04-09T18:05:41.091Z</time></trkpt><trkpt lat="40.4898483" lon="14.94319"><ele>2.0</ele><time>2026-04-09T18:05:42.091Z</time></trkpt><trkpt lat="40.4896417" lon="14.9433033"><ele>2.0</ele><time>2026-04-09T18:05:43.091Z</time></trkpt><trkpt lat="40.4894433" lon="14.9434167"><ele>2.0</ele><time>2026-04-09T18:05:44.091Z</time></trkpt><trkpt lat="40.4892467" lon="14.9435267"><ele>1.6666666666666665</ele><time>2026-04-09T18:05:45.091Z</time></trkpt><trkpt lat="40.489055" lon="14.94363"><ele>1.3333333333333333</ele><time>2026-04-09T18:05:46.091Z</time></trkpt><trkpt lat="40.4888683" lon="14.94373"><ele>1.0</ele><time>2026-04-09T18:05:47.091Z</time></trkpt><trkpt lat="40.4886883" lon="14.9438283"><ele>1.0</ele><time>2026-04-09T18:05:48.091Z</time></trkpt><trkpt lat="40.4885067" lon="14.94393"><ele>1.0</ele><time>2026-04-09T18:05:49.091Z</time></trkpt><trkpt lat="40.4883183" lon="14.944035"><ele>1.0</ele><time>2026-04-09T18:05:50.091Z</time></trkpt><trkpt lat="40.4881283" lon="14.9441383"><ele>0.6666666666666666</ele><time>2026-04-09T18:05:51.091Z</time></trkpt><trkpt lat="40.4879467" lon="14.94423"><ele>0.3333333333333333</ele><time>2026-04-09T18:05:52.091Z</time></trkpt><trkpt lat="40.4877667" lon="14.944325"><ele>0.0</ele><time>2026-04-09T18:05:53.091Z</time></trkpt><trkpt lat="40.4875933" lon="14.9444267"><ele>0.0</ele><time>2026-04-09T18:05:54.091Z</time></trkpt><trkpt lat="40.487415" lon="14.9445217"><ele>0.0</ele><time>2026-04-09T18:05:55.091Z</time></trkpt><trkpt lat="40.4872367" lon="14.9446183"><ele>0.0</ele><time>2026-04-09T18:05:56.091Z</time></trkpt><trkpt lat="40.487065" lon="14.94471"><ele>0.6666666666666666</ele><time>2026-04-09T18:05:57.091Z</time></trkpt><trkpt lat="40.486905" lon="14.9448"><ele>1.3333333333333333</ele><time>2026-04-09T18:05:58.091Z</time></trkpt><trkpt lat="40.4867533" lon="14.944885"><ele>2.0</ele><time>2026-04-09T18:05:59.091Z</time></trkpt><trkpt lat="40.4865967" lon="14.94497"><ele>2.0</ele><time>2026-04-09T18:06:00.091Z</time></trkpt><trkpt lat="40.48645" lon="14.9450533"><ele>2.0</ele><time>2026-04-09T18:06:01.091Z</time></trkpt><trkpt lat="40.4863117" lon="14.94513"><ele>2.0</ele><time>2026-04-09T18:06:02.091Z</time></trkpt><trkpt lat="40.4861733" lon="14.94521"><ele>2.0</ele><time>2026-04-09T18:06:03.091Z</time></trkpt><trkpt lat="40.4860367" lon="14.9452967"><ele>2.0</ele><time>2026-04-09T18:06:04.091Z</time></trkpt><trkpt lat="40.4859017" lon="14.9453983"><ele>2.0</ele><time>2026-04-09T18:06:05.091Z</time></trkpt><trkpt lat="40.4857683" lon="14.9455117"><ele>2.0</ele><time>2026-04-09T18:06:06.091Z</time></trkpt><trkpt lat="40.4856333" lon="14.9456417"><ele>2.0</ele><time>2026-04-09T18:06:07.091Z</time></trkpt><trkpt lat="40.4854983" lon="14.9457883"><ele>2.0</ele><time>2026-04-09T18:06:08.091Z</time></trkpt><trkpt lat="40.4853733" lon="14.9459517"><ele>1.3333333333333333</ele><time>2026-04-09T18:06:09.091Z</time></trkpt><trkpt lat="40.4852483" lon="14.946135"><ele>0.6666666666666666</ele><time>2026-04-09T18:06:10.091Z</time></trkpt><trkpt lat="40.4851217" lon="14.946335"><ele>0.0</ele><time>2026-04-09T18:06:11.091Z</time></trkpt><trkpt lat="40.485" lon="14.9465433"><ele>0.0</ele><time>2026-04-09T18:06:12.091Z</time></trkpt><trkpt lat="40.4848883" lon="14.946745"><ele>0.0</ele><time>2026-04-09T18:06:13.091Z</time></trkpt><trkpt lat="40.48478" lon="14.94695"><ele>0.0</ele><time>2026-04-09T18:06:14.091Z</time></trkpt><trkpt lat="40.4846767" lon="14.947155"><ele>0.3333333333333333</ele><time>2026-04-09T18:06:15.091Z</time></trkpt><trkpt lat="40.484575" lon="14.9473433"><ele>0.6666666666666666</ele><time>2026-04-09T18:06:16.091Z</time></trkpt><trkpt lat="40.4844767" lon="14.94752"><ele>1.0</ele><time>2026-04-09T18:06:17.091Z</time></trkpt><trkpt lat="40.48438" lon="14.947685"><ele>1.0</ele><time>2026-04-09T18:06:18.091Z</time></trkpt><trkpt lat="40.4842783" lon="14.947845"><ele>1.0</ele><time>2026-04-09T18:06:19.091Z</time></trkpt><trkpt lat="40.48418" lon="14.947995"><ele>1.0</ele><time>2026-04-09T18:06:20.091Z</time></trkpt><trkpt lat="40.4840817" lon="14.9481233"><ele>1.0</ele><time>2026-04-09T18:06:21.091Z</time></trkpt><trkpt lat="40.4839767" lon="14.94825"><ele>1.0</ele><time>2026-04-09T18:06:22.091Z</time></trkpt><trkpt lat="40.48387" lon="14.9483617"><ele>1.0</ele><time>2026-04-09T18:06:23.091Z</time></trkpt><trkpt lat="40.483755" lon="14.9484633"><ele>1.0</ele><time>2026-04-09T18:06:24.091Z</time></trkpt><trkpt lat="40.4836317" lon="14.94855"><ele>1.0</ele><time>2026-04-09T18:06:25.091Z</time></trkpt><trkpt lat="40.4835" lon="14.9486317"><ele>1.3333333333333333</ele><time>2026-04-09T18:06:26.091Z</time></trkpt><trkpt lat="40.4833567" lon="14.9487083"><ele>1.6666666666666665</ele><time>2026-04-09T18:06:27.091Z</time></trkpt><trkpt lat="40.4832033" lon="14.948775"><ele>2.0</ele><time>2026-04-09T18:06:28.091Z</time></trkpt><trkpt lat="40.48305" lon="14.94883"><ele>2.0</ele><time>2026-04-09T18:06:29.091Z</time></trkpt><trkpt lat="40.48288" lon="14.9488617"><ele>2.0</ele><time>2026-04-09T18:06:30.091Z</time></trkpt><trkpt lat="40.4827067" lon="14.9488917"><ele>2.0</ele><time>2026-04-09T18:06:31.091Z</time></trkpt><trkpt lat="40.4825167" lon="14.9489067"><ele>2.0</ele><time>2026-04-09T18:06:32.091Z</time></trkpt><trkpt lat="40.4823167" lon="14.9489217"><ele>2.0</ele><time>2026-04-09T18:06:33.091Z</time></trkpt><trkpt lat="40.482115" lon="14.9489333"><ele>2.0</ele><time>2026-04-09T18:06:34.091Z</time></trkpt><trkpt lat="40.481915" lon="14.94894"><ele>1.3333333333333333</ele><time>2026-04-09T18:06:35.091Z</time></trkpt><trkpt lat="40.481715" lon="14.9489433"><ele>0.6666666666666666</ele><time>2026-04-09T18:06:36.091Z</time></trkpt><trkpt lat="40.4815133" lon="14.9489517"><ele>0.0</ele><time>2026-04-09T18:06:37.091Z</time></trkpt><trkpt lat="40.481315" lon="14.9489667"><ele>0.0</ele><time>2026-04-09T18:06:38.091Z</time></trkpt><trkpt lat="40.4811167" lon="14.9489767"><ele>0.0</ele><time>2026-04-09T18:06:39.091Z</time></trkpt><trkpt lat="40.4809217" lon="14.9489883"><ele>0.0</ele><time>2026-04-09T18:06:40.091Z</time></trkpt><trkpt lat="40.48073" lon="14.948995"><ele>0.0</ele><time>2026-04-09T18:06:41.091Z</time></trkpt><trkpt lat="40.4805333" lon="14.949005"><ele>0.0</ele><time>2026-04-09T18:06:42.091Z</time></trkpt><trkpt lat="40.4803433" lon="14.949015"><ele>0.0</ele><time>2026-04-09T18:06:43.091Z</time></trkpt><trkpt lat="40.480165" lon="14.9490233"><ele>0.6666666666666666</ele><time>2026-04-09T18:06:44.091Z</time></trkpt><trkpt lat="40.4799833" lon="14.9490317"><ele>1.3333333333333333</ele><time>2026-04-09T18:06:45.091Z</time></trkpt><trkpt lat="40.4798083" lon="14.9490417"><ele>2.0</ele><time>2026-04-09T18:06:46.091Z</time></trkpt><trkpt lat="40.4796333" lon="14.949055"><ele>3.0</ele><time>2026-04-09T18:06:47.091Z</time></trkpt><trkpt lat="40.47947" lon="14.949065"><ele>4.0</ele><time>2026-04-09T18:06:48.091Z</time></trkpt><trkpt lat="40.479305" lon="14.9490783"><ele>5.0</ele><time>2026-04-09T18:06:49.091Z</time></trkpt><trkpt lat="40.4791517" lon="14.9490933"><ele>5.0</ele><time>2026-04-09T18:06:50.091Z</time></trkpt><trkpt lat="40.4789967" lon="14.9491133"><ele>5.0</ele><time>2026-04-09T18:06:51.091Z</time></trkpt><trkpt lat="40.4788333" lon="14.9491333"><ele>5.0</ele><time>2026-04-09T18:06:52.091Z</time></trkpt><trkpt lat="40.47867" lon="14.9491717"><ele>4.666666666666667</ele><time>2026-04-09T18:06:53.091Z</time></trkpt><trkpt lat="40.4785183" lon="14.9492133"><ele>4.333333333333333</ele><time>2026-04-09T18:06:54.091Z</time></trkpt><trkpt lat="40.478375" lon="14.9492667"><ele>4.0</ele><time>2026-04-09T18:06:55.091Z</time></trkpt><trkpt lat="40.4782333" lon="14.9493267"><ele>4.0</ele><time>2026-04-09T18:06:56.091Z</time></trkpt><trkpt lat="40.4780917" lon="14.94939"><ele>4.0</ele><time>2026-04-09T18:06:57.091Z</time></trkpt><trkpt lat="40.4779467" lon="14.94946"><ele>4.0</ele><time>2026-04-09T18:06:58.091Z</time></trkpt><trkpt lat="40.4778033" lon="14.9495317"><ele>3.6666666666666665</ele><time>2026-04-09T18:06:59.091Z</time></trkpt><trkpt lat="40.4776433" lon="14.9496217"><ele>3.333333333333333</ele><time>2026-04-09T18:07:00.091Z</time></trkpt><trkpt lat="40.4774717" lon="14.9497083"><ele>3.0</ele><time>2026-04-09T18:07:01.091Z</time></trkpt><trkpt lat="40.4772967" lon="14.94981"><ele>3.0</ele><time>2026-04-09T18:07:02.091Z</time></trkpt><trkpt lat="40.4771167" lon="14.9499217"><ele>3.0</ele><time>2026-04-09T18:07:03.091Z</time></trkpt><trkpt lat="40.4769317" lon="14.9500367"><ele>3.0</ele><time>2026-04-09T18:07:04.091Z</time></trkpt><trkpt lat="40.4767467" lon="14.950165"><ele>2.6666666666666665</ele><time>2026-04-09T18:07:05.091Z</time></trkpt><trkpt lat="40.4765533" lon="14.9502967"><ele>2.333333333333333</ele><time>2026-04-09T18:07:06.091Z</time></trkpt><trkpt lat="40.4763683" lon="14.9504267"><ele>2.0</ele><time>2026-04-09T18:07:07.091Z</time></trkpt><trkpt lat="40.4761883" lon="14.9505567"><ele>1.6666666666666665</ele><time>2026-04-09T18:07:08.091Z</time></trkpt><trkpt lat="40.4760183" lon="14.9506883"><ele>1.3333333333333333</ele><time>2026-04-09T18:07:09.091Z</time></trkpt><trkpt lat="40.4758417" lon="14.95082"><ele>1.0</ele><time>2026-04-09T18:07:10.091Z</time></trkpt><trkpt lat="40.4756817" lon="14.9509417"><ele>1.0</ele><time>2026-04-09T18:07:11.091Z</time></trkpt><trkpt lat="40.4755267" lon="14.9510567"><ele>1.0</ele><time>2026-04-09T18:07:12.091Z</time></trkpt><trkpt lat="40.4753767" lon="14.951175"><ele>1.0</ele><time>2026-04-09T18:07:13.091Z</time></trkpt><trkpt lat="40.475225" lon="14.9513083"><ele>2.3333333333333335</ele><time>2026-04-09T18:07:14.091Z</time></trkpt><trkpt lat="40.4750617" lon="14.9514317"><ele>3.666666666666667</ele><time>2026-04-09T18:07:15.091Z</time></trkpt><trkpt lat="40.474905" lon="14.951555"><ele>5.0</ele><time>2026-04-09T18:07:16.091Z</time></trkpt><trkpt lat="40.4747367" lon="14.9516783"><ele>5.0</ele><time>2026-04-09T18:07:17.091Z</time></trkpt><trkpt lat="40.4745717" lon="14.9518083"><ele>5.0</ele><time>2026-04-09T18:07:18.091Z</time></trkpt><trkpt lat="40.4744067" lon="14.9519367"><ele>5.0</ele><time>2026-04-09T18:07:19.091Z</time></trkpt><trkpt lat="40.4742383" lon="14.9520617"><ele>5.0</ele><time>2026-04-09T18:07:20.091Z</time></trkpt><trkpt lat="40.4740817" lon="14.9521833"><ele>5.0</ele><time>2026-04-09T18:07:21.091Z</time></trkpt><trkpt lat="40.473945" lon="14.9522933"><ele>5.0</ele><time>2026-04-09T18:07:22.091Z</time></trkpt><trkpt lat="40.4738217" lon="14.9523967"><ele>5.5</ele><time>2026-04-09T18:07:23.091Z</time></trkpt><trkpt lat="40.4737067" lon="14.9524933"><ele>6.0</ele><time>2026-04-09T18:07:24.091Z</time></trkpt><trkpt lat="40.473595" lon="14.95258"><ele>6.5</ele><time>2026-04-09T18:07:25.091Z</time></trkpt><trkpt lat="40.473485" lon="14.9526667"><ele>7.0</ele><time>2026-04-09T18:07:26.091Z</time></trkpt><trkpt lat="40.47338" lon="14.9527467"><ele>7.25</ele><time>2026-04-09T18:07:27.091Z</time></trkpt><trkpt lat="40.4732667" lon="14.9528417"><ele>7.5</ele><time>2026-04-09T18:07:28.091Z</time></trkpt><trkpt lat="40.4731433" lon="14.9529483"><ele>7.75</ele><time>2026-04-09T18:07:29.091Z</time></trkpt><trkpt lat="40.473005" lon="14.953065"><ele>8.0</ele><time>2026-04-09T18:07:30.091Z</time></trkpt><trkpt lat="40.4728467" lon="14.9531883"><ele>8.0</ele><time>2026-04-09T18:07:31.091Z</time></trkpt><trkpt lat="40.4726667" lon="14.9533233"><ele>8.0</ele><time>2026-04-09T18:07:32.091Z</time></trkpt><trkpt lat="40.4724767" lon="14.953465"><ele>8.0</ele><time>2026-04-09T18:07:33.091Z</time></trkpt><trkpt lat="40.472285" lon="14.9536167"><ele>8.0</ele><time>2026-04-09T18:07:34.091Z</time></trkpt><trkpt lat="40.472095" lon="14.9537683"><ele>8.0</ele><time>2026-04-09T18:07:35.091Z</time></trkpt><trkpt lat="40.4719083" lon="14.9539167"><ele>8.0</ele><time>2026-04-09T18:07:36.091Z</time></trkpt><trkpt lat="40.4717333" lon="14.9540533"><ele>8.0</ele><time>2026-04-09T18:07:37.091Z</time></trkpt><trkpt lat="40.4715567" lon="14.9541867"><ele>8.0</ele><time>2026-04-09T18:07:38.091Z</time></trkpt><trkpt lat="40.471385" lon="14.9543233"><ele>8.0</ele><time>2026-04-09T18:07:39.091Z</time></trkpt><trkpt lat="40.4712167" lon="14.9544467"><ele>7.333333333333333</ele><time>2026-04-09T18:07:40.091Z</time></trkpt><trkpt lat="40.47106" lon="14.9545633"><ele>6.666666666666666</ele><time>2026-04-09T18:07:41.091Z</time></trkpt><trkpt lat="40.470905" lon="14.9546833"><ele>6.0</ele><time>2026-04-09T18:07:42.091Z</time></trkpt><trkpt lat="40.47075" lon="14.9548067"><ele>6.0</ele><time>2026-04-09T18:07:43.091Z</time></trkpt><trkpt lat="40.4705683" lon="14.9549517"><ele>6.0</ele><time>2026-04-09T18:07:44.091Z</time></trkpt><trkpt lat="40.4703817" lon="14.9551067"><ele>6.0</ele><time>2026-04-09T18:07:45.091Z</time></trkpt><trkpt lat="40.4701933" lon="14.955255"><ele>5.666666666666667</ele><time>2026-04-09T18:07:46.091Z</time></trkpt><trkpt lat="40.47" lon="14.955405"><ele>5.333333333333334</ele><time>2026-04-09T18:07:47.091Z</time></trkpt><trkpt lat="40.46981" lon="14.9555567"><ele>5.0</ele><time>2026-04-09T18:07:48.091Z</time></trkpt><trkpt lat="40.46962" lon="14.9557067"><ele>5.333333333333334</ele><time>2026-04-09T18:07:49.091Z</time></trkpt><trkpt lat="40.4694317" lon="14.9558517"><ele>5.666666666666667</ele><time>2026-04-09T18:07:50.091Z</time></trkpt><trkpt lat="40.46924" lon="14.9560033"><ele>6.0</ele><time>2026-04-09T18:07:51.091Z</time></trkpt><trkpt lat="40.4690433" lon="14.956155"><ele>6.0</ele><time>2026-04-09T18:07:52.091Z</time></trkpt><trkpt lat="40.4688317" lon="14.9563217"><ele>6.0</ele><time>2026-04-09T18:07:53.091Z</time></trkpt><trkpt lat="40.4686167" lon="14.9564883"><ele>7.5</ele><time>2026-04-09T18:07:54.091Z</time></trkpt><trkpt lat="40.4684117" lon="14.9566517"><ele>9.0</ele><time>2026-04-09T18:07:55.091Z</time></trkpt><trkpt lat="40.46821" lon="14.9568117"><ele>8.5</ele><time>2026-04-09T18:07:56.091Z</time></trkpt><trkpt lat="40.4680083" lon="14.9569833"><ele>8.0</ele><time>2026-04-09T18:07:57.091Z</time></trkpt><trkpt lat="40.4678" lon="14.9571467"><ele>8.0</ele><time>2026-04-09T18:07:58.091Z</time></trkpt><trkpt lat="40.4675933" lon="14.9572967"><ele>8.0</ele><time>2026-04-09T18:07:59.091Z</time></trkpt><trkpt lat="40.4673867" lon="14.9574483"><ele>7.5</ele><time>2026-04-09T18:08:00.091Z</time></trkpt><trkpt lat="40.46719" lon="14.9576033"><ele>7.0</ele><time>2026-04-09T18:08:01.091Z</time></trkpt><trkpt lat="40.4669983" lon="14.9577533"><ele>7.0</ele><time>2026-04-09T18:08:02.091Z</time></trkpt><trkpt lat="40.4668067" lon="14.9578983"><ele>7.0</ele><time>2026-04-09T18:08:03.091Z</time></trkpt><trkpt lat="40.46663" lon="14.9580667"><ele>7.0</ele><time>2026-04-09T18:08:04.091Z</time></trkpt><trkpt lat="40.4664417" lon="14.9582183"><ele>6.333333333333334</ele><time>2026-04-09T18:08:05.091Z</time></trkpt><trkpt lat="40.466255" lon="14.9583717"><ele>5.666666666666667</ele><time>2026-04-09T18:08:06.091Z</time></trkpt><trkpt lat="40.4660733" lon="14.958525"><ele>5.0</ele><time>2026-04-09T18:08:07.091Z</time></trkpt><trkpt lat="40.4658817" lon="14.9586783"><ele>5.0</ele><time>2026-04-09T18:08:08.091Z</time></trkpt><trkpt lat="40.46569" lon="14.95883"><ele>5.0</ele><time>2026-04-09T18:08:09.091Z</time></trkpt><trkpt lat="40.4655033" lon="14.95897"><ele>5.0</ele><time>2026-04-09T18:08:10.091Z</time></trkpt><trkpt lat="40.4653233" lon="14.9591083"><ele>4.666666666666667</ele><time>2026-04-09T18:08:11.091Z</time></trkpt><trkpt lat="40.4651567" lon="14.95924"><ele>4.333333333333333</ele><time>2026-04-09T18:08:12.091Z</time></trkpt><trkpt lat="40.4649817" lon="14.9593767"><ele>4.0</ele><time>2026-04-09T18:08:13.091Z</time></trkpt><trkpt lat="40.4647983" lon="14.959505"><ele>4.0</ele><time>2026-04-09T18:08:14.091Z</time></trkpt><trkpt lat="40.4646183" lon="14.95964"><ele>4.0</ele><time>2026-04-09T18:08:15.091Z</time></trkpt><trkpt lat="40.4644283" lon="14.959775"><ele>4.0</ele><time>2026-04-09T18:08:16.091Z</time></trkpt><trkpt lat="40.4642333" lon="14.95992"><ele>3.0</ele><time>2026-04-09T18:08:17.091Z</time></trkpt><trkpt lat="40.464045" lon="14.96006"><ele>2.0</ele><time>2026-04-09T18:08:18.091Z</time></trkpt><trkpt lat="40.463875" lon="14.9602067"><ele>1.0</ele><time>2026-04-09T18:08:19.091Z</time></trkpt><trkpt lat="40.463715" lon="14.960345"><ele>3.0</ele><time>2026-04-09T18:08:20.091Z</time></trkpt><trkpt lat="40.4635617" lon="14.9604733"><ele>5.0</ele><time>2026-04-09T18:08:21.091Z</time></trkpt><trkpt lat="40.4634017" lon="14.9606"><ele>7.0</ele><time>2026-04-09T18:08:22.091Z</time></trkpt><trkpt lat="40.4632517" lon="14.9607167"><ele>7.0</ele><time>2026-04-09T18:08:23.091Z</time></trkpt><trkpt lat="40.4631" lon="14.9608367"><ele>7.0</ele><time>2026-04-09T18:08:24.091Z</time></trkpt><trkpt lat="40.462955" lon="14.9609567"><ele>7.0</ele><time>2026-04-09T18:08:25.091Z</time></trkpt><trkpt lat="40.46282" lon="14.961055"><ele>6.25</ele><time>2026-04-09T18:08:26.091Z</time></trkpt><trkpt lat="40.462695" lon="14.9611433"><ele>5.5</ele><time>2026-04-09T18:08:27.091Z</time></trkpt><trkpt lat="40.4625683" lon="14.9612317"><ele>4.75</ele><time>2026-04-09T18:08:28.091Z</time></trkpt><trkpt lat="40.4624467" lon="14.9613317"><ele>4.0</ele><time>2026-04-09T18:08:29.091Z</time></trkpt><trkpt lat="40.462325" lon="14.9614467"><ele>4.0</ele><time>2026-04-09T18:08:30.091Z</time></trkpt><trkpt lat="40.4622083" lon="14.961555"><ele>4.0</ele><time>2026-04-09T18:08:31.091Z</time></trkpt><trkpt lat="40.462105" lon="14.9616317"><ele>4.0</ele><time>2026-04-09T18:08:32.091Z</time></trkpt><trkpt lat="40.4620117" lon="14.961705"><ele>4.0</ele><time>2026-04-09T18:08:33.091Z</time></trkpt><trkpt lat="40.46191" lon="14.9617717"><ele>3.8000000000000003</ele><time>2026-04-09T18:08:34.091Z</time></trkpt><trkpt lat="40.461805" lon="14.9618317"><ele>3.6000000000000005</ele><time>2026-04-09T18:08:35.091Z</time></trkpt><trkpt lat="40.4617017" lon="14.9618867"><ele>3.4</ele><time>2026-04-09T18:08:36.091Z</time></trkpt><trkpt lat="40.461615" lon="14.9619183"><ele>3.2</ele><time>2026-04-09T18:08:37.091Z</time></trkpt><trkpt lat="40.4615317" lon="14.9619383"><ele>3.0</ele><time>2026-04-09T18:08:38.091Z</time></trkpt><trkpt lat="40.46145" lon="14.96196"><ele>3.0</ele><time>2026-04-09T18:08:39.091Z</time></trkpt><trkpt lat="40.4613817" lon="14.9620017"><ele>3.0</ele><time>2026-04-09T18:08:40.091Z</time></trkpt><trkpt lat="40.4613333" lon="14.962055"><ele>3.0</ele><time>2026-04-09T18:08:41.091Z</time></trkpt><trkpt lat="40.4613233" lon="14.9621883"><ele>3.0</ele><time>2026-04-09T18:08:43.091Z</time></trkpt><trkpt lat="40.46133" lon="14.9622967"><ele>3.0</ele><time>2026-04-09T18:08:44.091Z</time></trkpt><trkpt lat="40.461345" lon="14.9624233"><ele>3.0</ele><time>2026-04-09T18:08:45.091Z</time></trkpt><trkpt lat="40.4613517" lon="14.96256"><ele>2.5</ele><time>2026-04-09T18:08:46.091Z</time></trkpt><trkpt lat="40.4613567" lon="14.9627083"><ele>2.0</ele><time>2026-04-09T18:08:47.091Z</time></trkpt><trkpt lat="40.46136" lon="14.9628783"><ele>1.5</ele><time>2026-04-09T18:08:48.091Z</time></trkpt><trkpt lat="40.46136" lon="14.9630667"><ele>1.0</ele><time>2026-04-09T18:08:49.091Z</time></trkpt><trkpt lat="40.4613717" lon="14.9632483"><ele>1.3333333333333333</ele><time>2026-04-09T18:08:50.091Z</time></trkpt><trkpt lat="40.4614083" lon="14.963435"><ele>1.6666666666666665</ele><time>2026-04-09T18:08:51.091Z</time></trkpt><trkpt lat="40.4614583" lon="14.9636317"><ele>2.0</ele><time>2026-04-09T18:08:52.091Z</time></trkpt><trkpt lat="40.4615067" lon="14.9638433"><ele>2.0</ele><time>2026-04-09T18:08:53.091Z</time></trkpt><trkpt lat="40.461565" lon="14.96406"><ele>2.0</ele><time>2026-04-09T18:08:54.091Z</time></trkpt><trkpt lat="40.461625" lon="14.9642833"><ele>2.0</ele><time>2026-04-09T18:08:55.091Z</time></trkpt><trkpt lat="40.4616867" lon="14.9644967"><ele>2.0</ele><time>2026-04-09T18:08:56.091Z</time></trkpt><trkpt lat="40.4617517" lon="14.9647233"><ele>2.0</ele><time>2026-04-09T18:08:57.091Z</time></trkpt><trkpt lat="40.4618217" lon="14.9649633"><ele>2.0</ele><time>2026-04-09T18:08:58.091Z</time></trkpt><trkpt lat="40.4618883" lon="14.9652"><ele>1.6666666666666665</ele><time>2026-04-09T18:08:59.091Z</time></trkpt><trkpt lat="40.4619567" lon="14.9654367"><ele>1.3333333333333333</ele><time>2026-04-09T18:09:00.091Z</time></trkpt><trkpt lat="40.462015" lon="14.9656667"><ele>1.0</ele><time>2026-04-09T18:09:01.091Z</time></trkpt><trkpt lat="40.4620733" lon="14.96588"><ele>1.3333333333333333</ele><time>2026-04-09T18:09:02.091Z</time></trkpt><trkpt lat="40.46214" lon="14.96609"><ele>1.6666666666666665</ele><time>2026-04-09T18:09:03.091Z</time></trkpt><trkpt lat="40.4621967" lon="14.9663"><ele>2.0</ele><time>2026-04-09T18:09:04.091Z</time></trkpt><trkpt lat="40.46225" lon="14.9664967"><ele>2.333333333333333</ele><time>2026-04-09T18:09:05.091Z</time></trkpt><trkpt lat="40.4623067" lon="14.9666967"><ele>2.6666666666666665</ele><time>2026-04-09T18:09:06.091Z</time></trkpt><trkpt lat="40.4623617" lon="14.9668833"><ele>3.0</ele><time>2026-04-09T18:09:07.091Z</time></trkpt><trkpt lat="40.4624133" lon="14.9670617"><ele>3.0</ele><time>2026-04-09T18:09:08.091Z</time></trkpt><trkpt lat="40.4624633" lon="14.967235"><ele>3.0</ele><time>2026-04-09T18:09:09.091Z</time></trkpt><trkpt lat="40.4625233" lon="14.9673967"><ele>3.0</ele><time>2026-04-09T18:09:10.091Z</time></trkpt><trkpt lat="40.4625817" lon="14.967555"><ele>3.0</ele><time>2026-04-09T18:09:11.091Z</time></trkpt><trkpt lat="40.4626467" lon="14.9677017"><ele>2.75</ele><time>2026-04-09T18:09:12.091Z</time></trkpt><trkpt lat="40.462705" lon="14.967845"><ele>2.5</ele><time>2026-04-09T18:09:13.091Z</time></trkpt><trkpt lat="40.46276" lon="14.96798"><ele>2.25</ele><time>2026-04-09T18:09:14.091Z</time></trkpt><trkpt lat="40.4628117" lon="14.9681117"><ele>2.0</ele><time>2026-04-09T18:09:15.091Z</time></trkpt><trkpt lat="40.462855" lon="14.968245"><ele>2.2</ele><time>2026-04-09T18:09:16.091Z</time></trkpt><trkpt lat="40.4628917" lon="14.968365"><ele>2.4000000000000004</ele><time>2026-04-09T18:09:17.091Z</time></trkpt><trkpt lat="40.4629033" lon="14.9684883"><ele>2.5999999999999996</ele><time>2026-04-09T18:09:18.091Z</time></trkpt><trkpt lat="40.4628967" lon="14.9686083"><ele>2.8</ele><time>2026-04-09T18:09:19.091Z</time></trkpt><trkpt lat="40.4628633" lon="14.9687317"><ele>3.0</ele><time>2026-04-09T18:09:20.091Z</time></trkpt><trkpt lat="40.46281" lon="14.9688383"><ele>3.0</ele><time>2026-04-09T18:09:21.091Z</time></trkpt><trkpt lat="40.4627433" lon="14.968935"><ele>3.0</ele><time>2026-04-09T18:09:22.091Z</time></trkpt><trkpt lat="40.46265" lon="14.96902"><ele>3.0</ele><time>2026-04-09T18:09:23.091Z</time></trkpt><trkpt lat="40.4625467" lon="14.9690967"><ele>3.0</ele><time>2026-04-09T18:09:24.091Z</time></trkpt><trkpt lat="40.4624233" lon="14.9691767"><ele>3.0</ele><time>2026-04-09T18:09:25.091Z</time></trkpt><trkpt lat="40.4622833" lon="14.969255"><ele>3.0</ele><time>2026-04-09T18:09:26.091Z</time></trkpt><trkpt lat="40.462145" lon="14.9693333"><ele>3.0</ele><time>2026-04-09T18:09:27.091Z</time></trkpt><trkpt lat="40.4619967" lon="14.96942"><ele>3.666666666666667</ele><time>2026-04-09T18:09:28.091Z</time></trkpt><trkpt lat="40.46184" lon="14.9695083"><ele>4.333333333333334</ele><time>2026-04-09T18:09:29.091Z</time></trkpt><trkpt lat="40.4616867" lon="14.969605"><ele>5.0</ele><time>2026-04-09T18:09:30.091Z</time></trkpt><trkpt lat="40.4615333" lon="14.9697017"><ele>5.0</ele><time>2026-04-09T18:09:31.091Z</time></trkpt><trkpt lat="40.4613883" lon="14.9697867"><ele>5.0</ele><time>2026-04-09T18:09:32.091Z</time></trkpt><trkpt lat="40.461255" lon="14.9698683"><ele>5.0</ele><time>2026-04-09T18:09:33.091Z</time></trkpt><trkpt lat="40.4611233" lon="14.969945"><ele>4.5</ele><time>2026-04-09T18:09:34.091Z</time></trkpt><trkpt lat="40.4609917" lon="14.9700283"><ele>4.0</ele><time>2026-04-09T18:09:35.091Z</time></trkpt><trkpt lat="40.460865" lon="14.9701017"><ele>3.5</ele><time>2026-04-09T18:09:36.091Z</time></trkpt><trkpt lat="40.4607267" lon="14.9701833"><ele>3.0</ele><time>2026-04-09T18:09:37.091Z</time></trkpt><trkpt lat="40.460585" lon="14.97027"><ele>3.0</ele><time>2026-04-09T18:09:38.091Z</time></trkpt><trkpt lat="40.4604333" lon="14.97036"><ele>3.0</ele><time>2026-04-09T18:09:39.091Z</time></trkpt><trkpt lat="40.46028" lon="14.970455"><ele>3.0</ele><time>2026-04-09T18:09:40.091Z</time></trkpt><trkpt lat="40.46011" lon="14.9705633"><ele>3.0</ele><time>2026-04-09T18:09:41.091Z</time></trkpt><trkpt lat="40.4599217" lon="14.9706833"><ele>3.0</ele><time>2026-04-09T18:09:42.091Z</time></trkpt><trkpt lat="40.4597317" lon="14.9708"><ele>3.0</ele><time>2026-04-09T18:09:43.091Z</time></trkpt><trkpt lat="40.4595267" lon="14.9709117"><ele>3.0</ele><time>2026-04-09T18:09:44.091Z</time></trkpt><trkpt lat="40.4593133" lon="14.9710317"><ele>3.0</ele><time>2026-04-09T18:09:45.091Z</time></trkpt><trkpt lat="40.459105" lon="14.9711483"><ele>3.0</ele><time>2026-04-09T18:09:46.091Z</time></trkpt><trkpt lat="40.4589083" lon="14.9712683"><ele>3.0</ele><time>2026-04-09T18:09:47.091Z</time></trkpt><trkpt lat="40.4587133" lon="14.97138"><ele>3.0</ele><time>2026-04-09T18:09:48.091Z</time></trkpt><trkpt lat="40.45852" lon="14.9714983"><ele>3.333333333333333</ele><time>2026-04-09T18:09:49.091Z</time></trkpt><trkpt lat="40.458335" lon="14.97161"><ele>3.6666666666666665</ele><time>2026-04-09T18:09:50.091Z</time></trkpt><trkpt lat="40.4581517" lon="14.9717217"><ele>4.0</ele><time>2026-04-09T18:09:51.091Z</time></trkpt><trkpt lat="40.457975" lon="14.9718267"><ele>3.6666666666666665</ele><time>2026-04-09T18:09:52.091Z</time></trkpt><trkpt lat="40.4577967" lon="14.9719317"><ele>3.333333333333333</ele><time>2026-04-09T18:09:53.091Z</time></trkpt><trkpt lat="40.457615" lon="14.9720333"><ele>3.0</ele><time>2026-04-09T18:09:54.091Z</time></trkpt><trkpt lat="40.4574333" lon="14.9721383"><ele>3.0</ele><time>2026-04-09T18:09:55.091Z</time></trkpt><trkpt lat="40.4572567" lon="14.972245"><ele>3.0</ele><time>2026-04-09T18:09:56.091Z</time></trkpt><trkpt lat="40.457075" lon="14.9723517"><ele>3.0</ele><time>2026-04-09T18:09:57.091Z</time></trkpt><trkpt lat="40.4568967" lon="14.9724567"><ele>3.333333333333333</ele><time>2026-04-09T18:09:58.091Z</time></trkpt><trkpt lat="40.4567217" lon="14.97256"><ele>3.6666666666666665</ele><time>2026-04-09T18:09:59.091Z</time></trkpt><trkpt lat="40.45654" lon="14.9726667"><ele>4.0</ele><time>2026-04-09T18:10:00.091Z</time></trkpt><trkpt lat="40.4563583" lon="14.9727783"><ele>3.6666666666666665</ele><time>2026-04-09T18:10:01.091Z</time></trkpt><trkpt lat="40.456165" lon="14.9728883"><ele>3.333333333333333</ele><time>2026-04-09T18:10:02.091Z</time></trkpt><trkpt lat="40.4559767" lon="14.973"><ele>3.0</ele><time>2026-04-09T18:10:03.091Z</time></trkpt><trkpt lat="40.455805" lon="14.9731033"><ele>3.0</ele><time>2026-04-09T18:10:04.091Z</time></trkpt><trkpt lat="40.45564" lon="14.9732067"><ele>3.0</ele><time>2026-04-09T18:10:05.091Z</time></trkpt><trkpt lat="40.455475" lon="14.9733067"><ele>3.0</ele><time>2026-04-09T18:10:06.091Z</time></trkpt><trkpt lat="40.4553083" lon="14.9734083"><ele>3.0</ele><time>2026-04-09T18:10:07.091Z</time></trkpt><trkpt lat="40.4551383" lon="14.973515"><ele>3.0</ele><time>2026-04-09T18:10:08.091Z</time></trkpt><trkpt lat="40.4549783" lon="14.973605"><ele>3.0</ele><time>2026-04-09T18:10:09.091Z</time></trkpt><trkpt lat="40.4548233" lon="14.9737017"><ele>3.0</ele><time>2026-04-09T18:10:10.091Z</time></trkpt><trkpt lat="40.4546733" lon="14.9737883"><ele>3.0</ele><time>2026-04-09T18:10:11.091Z</time></trkpt><trkpt lat="40.4545217" lon="14.973885"><ele>3.0</ele><time>2026-04-09T18:10:12.091Z</time></trkpt><trkpt lat="40.4543633" lon="14.9739733"><ele>3.0</ele><time>2026-04-09T18:10:13.091Z</time></trkpt><trkpt lat="40.4542" lon="14.9740717"><ele>3.0</ele><time>2026-04-09T18:10:14.091Z</time></trkpt><trkpt lat="40.45403" lon="14.974165"><ele>3.0</ele><time>2026-04-09T18:10:15.091Z</time></trkpt><trkpt lat="40.4538567" lon="14.9742567"><ele>3.0</ele><time>2026-04-09T18:10:16.091Z</time></trkpt><trkpt lat="40.4536917" lon="14.9743467"><ele>3.0</ele><time>2026-04-09T18:10:17.091Z</time></trkpt><trkpt lat="40.4535333" lon="14.974445"><ele>3.0</ele><time>2026-04-09T18:10:18.091Z</time></trkpt><trkpt lat="40.4533933" lon="14.9745317"><ele>3.0</ele><time>2026-04-09T18:10:19.091Z</time></trkpt><trkpt lat="40.453255" lon="14.97461"><ele>3.0</ele><time>2026-04-09T18:10:20.091Z</time></trkpt><trkpt lat="40.453125" lon="14.9746867"><ele>3.0</ele><time>2026-04-09T18:10:21.091Z</time></trkpt><trkpt lat="40.4529983" lon="14.974765"><ele>3.0</ele><time>2026-04-09T18:10:22.091Z</time></trkpt><trkpt lat="40.45288" lon="14.9748367"><ele>3.25</ele><time>2026-04-09T18:10:23.091Z</time></trkpt><trkpt lat="40.452765" lon="14.974905"><ele>3.5</ele><time>2026-04-09T18:10:24.091Z</time></trkpt><trkpt lat="40.4526517" lon="14.9749783"><ele>3.75</ele><time>2026-04-09T18:10:25.091Z</time></trkpt><trkpt lat="40.4525367" lon="14.9750467"><ele>4.0</ele><time>2026-04-09T18:10:26.091Z</time></trkpt><trkpt lat="40.4524167" lon="14.9751133"><ele>4.0</ele><time>2026-04-09T18:10:27.091Z</time></trkpt><trkpt lat="40.4523" lon="14.975185"><ele>4.0</ele><time>2026-04-09T18:10:28.091Z</time></trkpt><trkpt lat="40.4521783" lon="14.9752583"><ele>4.0</ele><time>2026-04-09T18:10:29.091Z</time></trkpt><trkpt lat="40.452065" lon="14.975325"><ele>4.0</ele><time>2026-04-09T18:10:30.091Z</time></trkpt><trkpt lat="40.4519467" lon="14.975395"><ele>4.5</ele><time>2026-04-09T18:10:31.091Z</time></trkpt><trkpt lat="40.4518283" lon="14.975465"><ele>5.0</ele><time>2026-04-09T18:10:32.091Z</time></trkpt><trkpt lat="40.4517217" lon="14.9755267"><ele>5.5</ele><time>2026-04-09T18:10:33.091Z</time></trkpt><trkpt lat="40.4516167" lon="14.9755867"><ele>6.0</ele><time>2026-04-09T18:10:34.091Z</time></trkpt><trkpt lat="40.4515133" lon="14.9756483"><ele>6.0</ele><time>2026-04-09T18:10:35.091Z</time></trkpt><trkpt lat="40.4514083" lon="14.9757117"><ele>6.0</ele><time>2026-04-09T18:10:36.091Z</time></trkpt><trkpt lat="40.4513117" lon="14.9757717"><ele>6.0</ele><time>2026-04-09T18:10:37.091Z</time></trkpt><trkpt lat="40.4512183" lon="14.97583"><ele>6.0</ele><time>2026-04-09T18:10:38.091Z</time></trkpt><trkpt lat="40.4511267" lon="14.97589"><ele>6.0</ele><time>2026-04-09T18:10:39.091Z</time></trkpt><trkpt lat="40.4510467" lon="14.97594"><ele>5.6</ele><time>2026-04-09T18:10:40.091Z</time></trkpt><trkpt lat="40.4509583" lon="14.9759917"><ele>5.199999999999999</ele><time>2026-04-09T18:10:41.091Z</time></trkpt><trkpt lat="40.450875" lon="14.9760417"><ele>4.800000000000001</ele><time>2026-04-09T18:10:42.091Z</time></trkpt><trkpt lat="40.45079" lon="14.97609"><ele>4.4</ele><time>2026-04-09T18:10:43.091Z</time></trkpt><trkpt lat="40.4507117" lon="14.97614"><ele>4.0</ele><time>2026-04-09T18:10:44.091Z</time></trkpt><trkpt lat="40.4506333" lon="14.9761883"><ele>3.9999999999999996</ele><time>2026-04-09T18:10:45.091Z</time></trkpt><trkpt lat="40.4505683" lon="14.9762283"><ele>4.0</ele><time>2026-04-09T18:10:46.091Z</time></trkpt><trkpt lat="40.4505033" lon="14.9762733"><ele>4.0</ele><time>2026-04-09T18:10:47.091Z</time></trkpt><trkpt lat="40.4504417" lon="14.9763167"><ele>4.0</ele><time>2026-04-09T18:10:48.091Z</time></trkpt><trkpt lat="40.4503417" lon="14.97639"><ele>3.9999999999999996</ele><time>2026-04-09T18:10:50.091Z</time></trkpt><trkpt lat="40.4502483" lon="14.9764333"><ele>4.0</ele><time>2026-04-09T18:10:52.091Z</time></trkpt><trkpt lat="40.45018" lon="14.9764817"><ele>4.333333333333333</ele><time>2026-04-09T18:10:54.091Z</time></trkpt><trkpt lat="40.450115" lon="14.9765133"><ele>4.666666666666666</ele><time>2026-04-09T18:10:57.091Z</time></trkpt><trkpt lat="40.4500783" lon="14.9766"><ele>5.0</ele><time>2026-04-09T18:11:01.091Z</time></trkpt><trkpt lat="40.4500817" lon="14.9767067"><ele>5.333333333333333</ele><time>2026-04-09T18:11:03.091Z</time></trkpt><trkpt lat="40.45014" lon="14.976865"><ele>5.666666666666667</ele><time>2026-04-09T18:11:05.091Z</time></trkpt><trkpt lat="40.450175" lon="14.976965"><ele>6.0</ele><time>2026-04-09T18:11:06.091Z</time></trkpt><trkpt lat="40.4502133" lon="14.9770683"><ele>6.0</ele><time>2026-04-09T18:11:07.091Z</time></trkpt><trkpt lat="40.4502483" lon="14.97717"><ele>6.0</ele><time>2026-04-09T18:11:08.091Z</time></trkpt><trkpt lat="40.4502867" lon="14.977275"><ele>6.0</ele><time>2026-04-09T18:11:09.091Z</time></trkpt><trkpt lat="40.4503283" lon="14.9773867"><ele>6.0</ele><time>2026-04-09T18:11:10.091Z</time></trkpt><trkpt lat="40.4503733" lon="14.9775183"><ele>6.0</ele><time>2026-04-09T18:11:11.091Z</time></trkpt><trkpt lat="40.45042" lon="14.9776533"><ele>5.25</ele><time>2026-04-09T18:11:12.091Z</time></trkpt><trkpt lat="40.450475" lon="14.9777883"><ele>4.5</ele><time>2026-04-09T18:11:13.091Z</time></trkpt><trkpt lat="40.4505267" lon="14.97793"><ele>3.75</ele><time>2026-04-09T18:11:14.091Z</time></trkpt><trkpt lat="40.4505767" lon="14.97808"><ele>3.0</ele><time>2026-04-09T18:11:15.091Z</time></trkpt><trkpt lat="40.4506267" lon="14.978245"><ele>2.75</ele><time>2026-04-09T18:11:16.091Z</time></trkpt><trkpt lat="40.4506833" lon="14.9784083"><ele>2.5</ele><time>2026-04-09T18:11:17.091Z</time></trkpt><trkpt lat="40.4507417" lon="14.978585"><ele>2.25</ele><time>2026-04-09T18:11:18.091Z</time></trkpt><trkpt lat="40.4508117" lon="14.9787583"><ele>2.0</ele><time>2026-04-09T18:11:19.091Z</time></trkpt><trkpt lat="40.4508833" lon="14.9789633"><ele>2.0</ele><time>2026-04-09T18:11:20.091Z</time></trkpt><trkpt lat="40.450965" lon="14.979185"><ele>2.0</ele><time>2026-04-09T18:11:21.091Z</time></trkpt><trkpt lat="40.45104" lon="14.9794167"><ele>2.0</ele><time>2026-04-09T18:11:22.091Z</time></trkpt><trkpt lat="40.4511183" lon="14.9796267"><ele>2.0</ele><time>2026-04-09T18:11:23.091Z</time></trkpt><trkpt lat="40.45119" lon="14.9798433"><ele>2.0</ele><time>2026-04-09T18:11:24.091Z</time></trkpt><trkpt lat="40.45126" lon="14.9800617"><ele>2.0</ele><time>2026-04-09T18:11:25.091Z</time></trkpt><trkpt lat="40.451345" lon="14.980275"><ele>1.6666666666666665</ele><time>2026-04-09T18:11:26.091Z</time></trkpt><trkpt lat="40.4514417" lon="14.980495"><ele>1.3333333333333333</ele><time>2026-04-09T18:11:27.091Z</time></trkpt><trkpt lat="40.4515567" lon="14.9807117"><ele>1.0</ele><time>2026-04-09T18:11:28.091Z</time></trkpt><trkpt lat="40.4516767" lon="14.980925"><ele>1.0</ele><time>2026-04-09T18:11:29.091Z</time></trkpt><trkpt lat="40.451795" lon="14.9811317"><ele>1.0</ele><time>2026-04-09T18:11:30.091Z</time></trkpt><trkpt lat="40.4519117" lon="14.9813467"><ele>1.0</ele><time>2026-04-09T18:11:31.091Z</time></trkpt><trkpt lat="40.452035" lon="14.9815717"><ele>0.6666666666666666</ele><time>2026-04-09T18:11:32.091Z</time></trkpt><trkpt lat="40.452155" lon="14.9818"><ele>0.3333333333333333</ele><time>2026-04-09T18:11:33.091Z</time></trkpt><trkpt lat="40.4522733" lon="14.9820283"><ele>0.0</ele><time>2026-04-09T18:11:34.091Z</time></trkpt><trkpt lat="40.452395" lon="14.982255"><ele>0.0</ele><time>2026-04-09T18:11:35.091Z</time></trkpt><trkpt lat="40.4525167" lon="14.9824833"><ele>0.0</ele><time>2026-04-09T18:11:36.091Z</time></trkpt><trkpt lat="40.45264" lon="14.98271"><ele>0.0</ele><time>2026-04-09T18:11:37.091Z</time></trkpt><trkpt lat="40.4527633" lon="14.9829317"><ele>-0.3333333333333333</ele><time>2026-04-09T18:11:38.091Z</time></trkpt><trkpt lat="40.45288" lon="14.9831367"><ele>-0.6666666666666666</ele><time>2026-04-09T18:11:39.091Z</time></trkpt><trkpt lat="40.4529917" lon="14.9833517"><ele>-1.0</ele><time>2026-04-09T18:11:40.091Z</time></trkpt><trkpt lat="40.4531033" lon="14.983555"><ele>0.0</ele><time>2026-04-09T18:11:41.091Z</time></trkpt><trkpt lat="40.453215" lon="14.9837583"><ele>1.0</ele><time>2026-04-09T18:11:42.091Z</time></trkpt><trkpt lat="40.4533183" lon="14.9839583"><ele>2.0</ele><time>2026-04-09T18:11:43.091Z</time></trkpt><trkpt lat="40.4534233" lon="14.9841567"><ele>2.333333333333333</ele><time>2026-04-09T18:11:44.091Z</time></trkpt><trkpt lat="40.4535317" lon="14.984355"><ele>2.6666666666666665</ele><time>2026-04-09T18:11:45.091Z</time></trkpt><trkpt lat="40.4536417" lon="14.9845533"><ele>3.0</ele><time>2026-04-09T18:11:46.091Z</time></trkpt><trkpt lat="40.453745" lon="14.9847533"><ele>2.6666666666666665</ele><time>2026-04-09T18:11:47.091Z</time></trkpt><trkpt lat="40.4538533" lon="14.9849483"><ele>2.333333333333333</ele><time>2026-04-09T18:11:48.091Z</time></trkpt><trkpt lat="40.45395" lon="14.9851417"><ele>2.0</ele><time>2026-04-09T18:11:49.091Z</time></trkpt><trkpt lat="40.4540483" lon="14.9853383"><ele>1.6666666666666665</ele><time>2026-04-09T18:11:50.091Z</time></trkpt><trkpt lat="40.4541417" lon="14.985535"><ele>1.3333333333333333</ele><time>2026-04-09T18:11:51.091Z</time></trkpt><trkpt lat="40.4542233" lon="14.9857317"><ele>1.0</ele><time>2026-04-09T18:11:52.091Z</time></trkpt><trkpt lat="40.45429" lon="14.98594"><ele>1.6666666666666665</ele><time>2026-04-09T18:11:53.091Z</time></trkpt><trkpt lat="40.45435" lon="14.986155"><ele>2.3333333333333335</ele><time>2026-04-09T18:11:54.091Z</time></trkpt><trkpt lat="40.4543983" lon="14.986375"><ele>3.0</ele><time>2026-04-09T18:11:55.091Z</time></trkpt><trkpt lat="40.4544283" lon="14.9866067"><ele>4.0</ele><time>2026-04-09T18:11:56.091Z</time></trkpt><trkpt lat="40.454455" lon="14.9868417"><ele>5.0</ele><time>2026-04-09T18:11:57.091Z</time></trkpt><trkpt lat="40.4544817" lon="14.9870917"><ele>6.0</ele><time>2026-04-09T18:11:58.091Z</time></trkpt><trkpt lat="40.4545067" lon="14.987345"><ele>5.0</ele><time>2026-04-09T18:11:59.091Z</time></trkpt><trkpt lat="40.4545183" lon="14.9875983"><ele>4.0</ele><time>2026-04-09T18:12:00.091Z</time></trkpt><trkpt lat="40.4545333" lon="14.98786"><ele>3.0</ele><time>2026-04-09T18:12:01.091Z</time></trkpt><trkpt lat="40.454555" lon="14.9881217"><ele>3.333333333333333</ele><time>2026-04-09T18:12:02.091Z</time></trkpt><trkpt lat="40.4545767" lon="14.9883817"><ele>3.6666666666666665</ele><time>2026-04-09T18:12:03.091Z</time></trkpt><trkpt lat="40.4545933" lon="14.9886283"><ele>4.0</ele><time>2026-04-09T18:12:04.091Z</time></trkpt><trkpt lat="40.4546067" lon="14.988875"><ele>4.0</ele><time>2026-04-09T18:12:05.091Z</time></trkpt><trkpt lat="40.4546217" lon="14.9891133"><ele>4.0</ele><time>2026-04-09T18:12:06.091Z</time></trkpt><trkpt lat="40.454635" lon="14.9893517"><ele>4.0</ele><time>2026-04-09T18:12:07.091Z</time></trkpt><trkpt lat="40.4546517" lon="14.98959"><ele>4.0</ele><time>2026-04-09T18:12:08.091Z</time></trkpt><trkpt lat="40.4546633" lon="14.9898267"><ele>4.0</ele><time>2026-04-09T18:12:09.091Z</time></trkpt><trkpt lat="40.4546833" lon="14.99006"><ele>4.0</ele><time>2026-04-09T18:12:10.091Z</time></trkpt><trkpt lat="40.454705" lon="14.9902933"><ele>4.0</ele><time>2026-04-09T18:12:11.091Z</time></trkpt><trkpt lat="40.45472" lon="14.990525"><ele>4.0</ele><time>2026-04-09T18:12:12.091Z</time></trkpt><trkpt lat="40.4547367" lon="14.990755"><ele>4.0</ele><time>2026-04-09T18:12:13.091Z</time></trkpt><trkpt lat="40.4547533" lon="14.9909867"><ele>4.0</ele><time>2026-04-09T18:12:14.091Z</time></trkpt><trkpt lat="40.4547767" lon="14.9912267"><ele>4.0</ele><time>2026-04-09T18:12:15.091Z</time></trkpt><trkpt lat="40.4547967" lon="14.99148"><ele>4.0</ele><time>2026-04-09T18:12:16.091Z</time></trkpt><trkpt lat="40.454815" lon="14.9917433"><ele>4.333333333333333</ele><time>2026-04-09T18:12:17.091Z</time></trkpt><trkpt lat="40.4548317" lon="14.9920017"><ele>4.666666666666667</ele><time>2026-04-09T18:12:18.091Z</time></trkpt><trkpt lat="40.4548483" lon="14.992245"><ele>5.0</ele><time>2026-04-09T18:12:19.091Z</time></trkpt><trkpt lat="40.4548617" lon="14.9924883"><ele>5.666666666666667</ele><time>2026-04-09T18:12:20.091Z</time></trkpt><trkpt lat="40.4548817" lon="14.9927183"><ele>6.333333333333334</ele><time>2026-04-09T18:12:21.091Z</time></trkpt><trkpt lat="40.4548967" lon="14.9929483"><ele>7.0</ele><time>2026-04-09T18:12:22.091Z</time></trkpt><trkpt lat="40.4549133" lon="14.993175"><ele>7.333333333333334</ele><time>2026-04-09T18:12:23.091Z</time></trkpt><trkpt lat="40.45493" lon="14.9933983"><ele>7.666666666666666</ele><time>2026-04-09T18:12:24.091Z</time></trkpt><trkpt lat="40.45495" lon="14.993625"><ele>8.0</ele><time>2026-04-09T18:12:25.091Z</time></trkpt><trkpt lat="40.4549683" lon="14.9938433"><ele>8.0</ele><time>2026-04-09T18:12:26.091Z</time></trkpt><trkpt lat="40.45498" lon="14.9940583"><ele>8.0</ele><time>2026-04-09T18:12:27.091Z</time></trkpt><trkpt lat="40.4549933" lon="14.99427"><ele>8.0</ele><time>2026-04-09T18:12:28.091Z</time></trkpt><trkpt lat="40.4550067" lon="14.9944783"><ele>8.25</ele><time>2026-04-09T18:12:29.091Z</time></trkpt><trkpt lat="40.4550217" lon="14.9946733"><ele>8.5</ele><time>2026-04-09T18:12:30.091Z</time></trkpt><trkpt lat="40.4550383" lon="14.9948633"><ele>8.75</ele><time>2026-04-09T18:12:31.091Z</time></trkpt><trkpt lat="40.4550467" lon="14.9950533"><ele>9.0</ele><time>2026-04-09T18:12:32.091Z</time></trkpt><trkpt lat="40.4550617" lon="14.9952467"><ele>9.0</ele><time>2026-04-09T18:12:33.091Z</time></trkpt><trkpt lat="40.455075" lon="14.995445"><ele>9.0</ele><time>2026-04-09T18:12:34.091Z</time></trkpt><trkpt lat="40.4550883" lon="14.99564"><ele>9.0</ele><time>2026-04-09T18:12:35.091Z</time></trkpt><trkpt lat="40.4551017" lon="14.9958333"><ele>9.0</ele><time>2026-04-09T18:12:36.091Z</time></trkpt><trkpt lat="40.4551167" lon="14.996025"><ele>9.333333333333334</ele><time>2026-04-09T18:12:37.091Z</time></trkpt><trkpt lat="40.45513" lon="14.99622"><ele>9.666666666666668</ele><time>2026-04-09T18:12:38.091Z</time></trkpt><trkpt lat="40.4551417" lon="14.9964217"><ele>10.0</ele><time>2026-04-09T18:12:39.091Z</time></trkpt><trkpt lat="40.4551583" lon="14.9966267"><ele>10.0</ele><time>2026-04-09T18:12:40.091Z</time></trkpt><trkpt lat="40.455175" lon="14.9968267"><ele>10.0</ele><time>2026-04-09T18:12:41.091Z</time></trkpt><trkpt lat="40.4551933" lon="14.9970217"><ele>10.0</ele><time>2026-04-09T18:12:42.091Z</time></trkpt><trkpt lat="40.455205" lon="14.9972083"><ele>10.0</ele><time>2026-04-09T18:12:43.091Z</time></trkpt><trkpt lat="40.4552167" lon="14.9974017"><ele>10.25</ele><time>2026-04-09T18:12:44.091Z</time></trkpt><trkpt lat="40.45523" lon="14.9975967"><ele>10.5</ele><time>2026-04-09T18:12:45.091Z</time></trkpt><trkpt lat="40.4552433" lon="14.997785"><ele>10.75</ele><time>2026-04-09T18:12:46.091Z</time></trkpt><trkpt lat="40.4552517" lon="14.9979667"><ele>11.0</ele><time>2026-04-09T18:12:47.091Z</time></trkpt><trkpt lat="40.4552583" lon="14.9981383"><ele>11.0</ele><time>2026-04-09T18:12:48.091Z</time></trkpt><trkpt lat="40.45527" lon="14.9983117"><ele>11.0</ele><time>2026-04-09T18:12:49.091Z</time></trkpt><trkpt lat="40.4552783" lon="14.9985"><ele>11.0</ele><time>2026-04-09T18:12:50.091Z</time></trkpt><trkpt lat="40.455285" lon="14.9986933"><ele>11.0</ele><time>2026-04-09T18:12:51.091Z</time></trkpt><trkpt lat="40.455295" lon="14.998895"><ele>11.666666666666666</ele><time>2026-04-09T18:12:52.091Z</time></trkpt><trkpt lat="40.455315" lon="14.999105"><ele>12.333333333333332</ele><time>2026-04-09T18:12:53.091Z</time></trkpt><trkpt lat="40.455335" lon="14.9993117"><ele>13.0</ele><time>2026-04-09T18:12:54.091Z</time></trkpt><trkpt lat="40.4553517" lon="14.9995083"><ele>13.25</ele><time>2026-04-09T18:12:55.091Z</time></trkpt><trkpt lat="40.4553667" lon="14.9997"><ele>13.5</ele><time>2026-04-09T18:12:56.091Z</time></trkpt><trkpt lat="40.4553783" lon="14.9998883"><ele>13.75</ele><time>2026-04-09T18:12:57.091Z</time></trkpt><trkpt lat="40.45539" lon="15.00007"><ele>14.0</ele><time>2026-04-09T18:12:58.091Z</time></trkpt><trkpt lat="40.455405" lon="15.0002433"><ele>14.0</ele><time>2026-04-09T18:12:59.091Z</time></trkpt><trkpt lat="40.4554167" lon="15.0004017"><ele>13.999999999999998</ele><time>2026-04-09T18:13:00.091Z</time></trkpt><trkpt lat="40.4554317" lon="15.0005483"><ele>13.999999999999998</ele><time>2026-04-09T18:13:01.091Z</time></trkpt><trkpt lat="40.4554417" lon="15.0006817"><ele>14.0</ele><time>2026-04-09T18:13:02.091Z</time></trkpt><trkpt lat="40.4554483" lon="15.0008183"><ele>14.0</ele><time>2026-04-09T18:13:03.091Z</time></trkpt><trkpt lat="40.4554517" lon="15.0009467"><ele>14.000000000000002</ele><time>2026-04-09T18:13:04.091Z</time></trkpt><trkpt lat="40.455455" lon="15.0010667"><ele>14.0</ele><time>2026-04-09T18:13:05.091Z</time></trkpt><trkpt lat="40.4554533" lon="15.0011783"><ele>14.0</ele><time>2026-04-09T18:13:06.091Z</time></trkpt><trkpt lat="40.45545" lon="15.0012867"><ele>14.0</ele><time>2026-04-09T18:13:07.091Z</time></trkpt><trkpt lat="40.455445" lon="15.00139"><ele>14.000000000000002</ele><time>2026-04-09T18:13:08.091Z</time></trkpt><trkpt lat="40.4554433" lon="15.0015"><ele>14.0</ele><time>2026-04-09T18:13:09.091Z</time></trkpt><trkpt lat="40.4554583" lon="15.0016117"><ele>14.2</ele><time>2026-04-09T18:13:10.091Z</time></trkpt><trkpt lat="40.4554833" lon="15.0017233"><ele>14.399999999999999</ele><time>2026-04-09T18:13:11.091Z</time></trkpt><trkpt lat="40.4555117" lon="15.0018383"><ele>14.6</ele><time>2026-04-09T18:13:12.091Z</time></trkpt><trkpt lat="40.455535" lon="15.0019667"><ele>14.8</ele><time>2026-04-09T18:13:13.091Z</time></trkpt><trkpt lat="40.45555" lon="15.0021167"><ele>15.0</ele><time>2026-04-09T18:13:14.091Z</time></trkpt><trkpt lat="40.4555583" lon="15.002275"><ele>15.0</ele><time>2026-04-09T18:13:15.091Z</time></trkpt><trkpt lat="40.4555783" lon="15.0024567"><ele>15.0</ele><time>2026-04-09T18:13:16.091Z</time></trkpt><trkpt lat="40.4556" lon="15.0026633"><ele>15.0</ele><time>2026-04-09T18:13:17.091Z</time></trkpt><trkpt lat="40.4556117" lon="15.00288"><ele>15.5</ele><time>2026-04-09T18:13:18.091Z</time></trkpt><trkpt lat="40.4556267" lon="15.0030817"><ele>16.0</ele><time>2026-04-09T18:13:19.091Z</time></trkpt><trkpt lat="40.455635" lon="15.0032833"><ele>16.5</ele><time>2026-04-09T18:13:20.091Z</time></trkpt><trkpt lat="40.4556417" lon="15.0034683"><ele>17.0</ele><time>2026-04-09T18:13:21.091Z</time></trkpt><trkpt lat="40.4556483" lon="15.0036467"><ele>17.75</ele><time>2026-04-09T18:13:22.091Z</time></trkpt><trkpt lat="40.45566" lon="15.003805"><ele>18.5</ele><time>2026-04-09T18:13:23.091Z</time></trkpt><trkpt lat="40.4556667" lon="15.0039567"><ele>19.25</ele><time>2026-04-09T18:13:24.091Z</time></trkpt><trkpt lat="40.4556867" lon="15.0041"><ele>20.0</ele><time>2026-04-09T18:13:25.091Z</time></trkpt><trkpt lat="40.4557033" lon="15.0042333"><ele>20.0</ele><time>2026-04-09T18:13:26.091Z</time></trkpt><trkpt lat="40.4557233" lon="15.00437"><ele>20.0</ele><time>2026-04-09T18:13:27.091Z</time></trkpt><trkpt lat="40.4557367" lon="15.004515"><ele>20.0</ele><time>2026-04-09T18:13:28.091Z</time></trkpt><trkpt lat="40.4557433" lon="15.0046733"><ele>20.0</ele><time>2026-04-09T18:13:29.091Z</time></trkpt><trkpt lat="40.4557517" lon="15.00484"><ele>19.75</ele><time>2026-04-09T18:13:30.091Z</time></trkpt><trkpt lat="40.4557517" lon="15.0050133"><ele>19.5</ele><time>2026-04-09T18:13:31.091Z</time></trkpt><trkpt lat="40.4557633" lon="15.0051767"><ele>19.25</ele><time>2026-04-09T18:13:32.091Z</time></trkpt><trkpt lat="40.4557733" lon="15.00533"><ele>19.0</ele><time>2026-04-09T18:13:33.091Z</time></trkpt><trkpt lat="40.455785" lon="15.005475"><ele>19.0</ele><time>2026-04-09T18:13:34.091Z</time></trkpt><trkpt lat="40.455795" lon="15.00562"><ele>19.0</ele><time>2026-04-09T18:13:35.091Z</time></trkpt><trkpt lat="40.4558067" lon="15.0057633"><ele>19.0</ele><time>2026-04-09T18:13:36.091Z</time></trkpt><trkpt lat="40.4558167" lon="15.0059017"><ele>19.0</ele><time>2026-04-09T18:13:37.091Z</time></trkpt><trkpt lat="40.455825" lon="15.006025"><ele>19.0</ele><time>2026-04-09T18:13:38.091Z</time></trkpt><trkpt lat="40.4558317" lon="15.0061367"><ele>19.5</ele><time>2026-04-09T18:13:39.091Z</time></trkpt><trkpt lat="40.4558383" lon="15.0062417"><ele>20.0</ele><time>2026-04-09T18:13:40.091Z</time></trkpt><trkpt lat="40.45585" lon="15.00635"><ele>20.5</ele><time>2026-04-09T18:13:41.091Z</time></trkpt><trkpt lat="40.4558633" lon="15.0064617"><ele>21.0</ele><time>2026-04-09T18:13:42.091Z</time></trkpt><trkpt lat="40.45587" lon="15.0065767"><ele>21.5</ele><time>2026-04-09T18:13:43.091Z</time></trkpt><trkpt lat="40.45588" lon="15.006685"><ele>22.0</ele><time>2026-04-09T18:13:44.091Z</time></trkpt><trkpt lat="40.4558833" lon="15.006795"><ele>22.166666666666664</ele><time>2026-04-09T18:13:45.091Z</time></trkpt><trkpt lat="40.4558867" lon="15.0069"><ele>22.333333333333332</ele><time>2026-04-09T18:13:46.091Z</time></trkpt><trkpt lat="40.4558933" lon="15.007"><ele>22.5</ele><time>2026-04-09T18:13:47.091Z</time></trkpt><trkpt lat="40.455905" lon="15.0070983"><ele>22.666666666666668</ele><time>2026-04-09T18:13:48.091Z</time></trkpt><trkpt lat="40.4559117" lon="15.0072117"><ele>22.833333333333336</ele><time>2026-04-09T18:13:49.091Z</time></trkpt><trkpt lat="40.4559217" lon="15.0073217"><ele>23.0</ele><time>2026-04-09T18:13:50.091Z</time></trkpt><trkpt lat="40.45593" lon="15.0074233"><ele>23.0</ele><time>2026-04-09T18:13:51.091Z</time></trkpt><trkpt lat="40.4559283" lon="15.0075133"><ele>23.0</ele><time>2026-04-09T18:13:52.091Z</time></trkpt><trkpt lat="40.455935" lon="15.0076033"><ele>23.0</ele><time>2026-04-09T18:13:53.091Z</time></trkpt><trkpt lat="40.4559367" lon="15.0077033"><ele>23.0</ele><time>2026-04-09T18:13:54.091Z</time></trkpt><trkpt lat="40.4559433" lon="15.0078067"><ele>23.0</ele><time>2026-04-09T18:13:55.091Z</time></trkpt><trkpt lat="40.4559617" lon="15.0079217"><ele>23.0</ele><time>2026-04-09T18:13:56.091Z</time></trkpt><trkpt lat="40.4559783" lon="15.0080617"><ele>23.0</ele><time>2026-04-09T18:13:57.091Z</time></trkpt><trkpt lat="40.455995" lon="15.008205"><ele>23.0</ele><time>2026-04-09T18:13:58.091Z</time></trkpt><trkpt lat="40.4560017" lon="15.0083617"><ele>23.0</ele><time>2026-04-09T18:13:59.091Z</time></trkpt><trkpt lat="40.4560067" lon="15.00852"><ele>23.0</ele><time>2026-04-09T18:14:00.091Z</time></trkpt><trkpt lat="40.4560033" lon="15.0086683"><ele>23.0</ele><time>2026-04-09T18:14:01.091Z</time></trkpt><trkpt lat="40.4560133" lon="15.0087983"><ele>23.0</ele><time>2026-04-09T18:14:02.091Z</time></trkpt><trkpt lat="40.4560183" lon="15.0089233"><ele>23.0</ele><time>2026-04-09T18:14:03.091Z</time></trkpt><trkpt lat="40.456025" lon="15.0090583"><ele>23.0</ele><time>2026-04-09T18:14:04.091Z</time></trkpt><trkpt lat="40.4560417" lon="15.0091917"><ele>23.0</ele><time>2026-04-09T18:14:05.091Z</time></trkpt><trkpt lat="40.4560567" lon="15.0093083"><ele>22.799999999999997</ele><time>2026-04-09T18:14:06.091Z</time></trkpt><trkpt lat="40.45606" lon="15.0094033"><ele>22.6</ele><time>2026-04-09T18:14:07.091Z</time></trkpt><trkpt lat="40.456065" lon="15.0094933"><ele>22.4</ele><time>2026-04-09T18:14:08.091Z</time></trkpt><trkpt lat="40.4560667" lon="15.00964"><ele>22.200000000000003</ele><time>2026-04-09T18:14:10.091Z</time></trkpt><trkpt lat="40.4560917" lon="15.00977"><ele>22.0</ele><time>2026-04-09T18:14:12.091Z</time></trkpt><trkpt lat="40.456105" lon="15.0099333"><ele>22.0</ele><time>2026-04-09T18:14:14.091Z</time></trkpt><trkpt lat="40.456115" lon="15.0100433"><ele>22.0</ele><time>2026-04-09T18:14:15.091Z</time></trkpt><trkpt lat="40.456135" lon="15.0101617"><ele>22.0</ele><time>2026-04-09T18:14:16.091Z</time></trkpt><trkpt lat="40.4561467" lon="15.0102917"><ele>22.0</ele><time>2026-04-09T18:14:17.091Z</time></trkpt><trkpt lat="40.45615" lon="15.010415"><ele>22.0</ele><time>2026-04-09T18:14:18.091Z</time></trkpt><trkpt lat="40.4561483" lon="15.010525"><ele>22.0</ele><time>2026-04-09T18:14:19.091Z</time></trkpt><trkpt lat="40.45615" lon="15.0106233"><ele>22.0</ele><time>2026-04-09T18:14:20.091Z</time></trkpt><trkpt lat="40.456155" lon="15.0107217"><ele>22.0</ele><time>2026-04-09T18:14:21.091Z</time></trkpt><trkpt lat="40.4561567" lon="15.0108233"><ele>22.0</ele><time>2026-04-09T18:14:22.091Z</time></trkpt><trkpt lat="40.4561567" lon="15.01093"><ele>22.0</ele><time>2026-04-09T18:14:23.091Z</time></trkpt><trkpt lat="40.4561483" lon="15.0110417"><ele>22.0</ele><time>2026-04-09T18:14:24.091Z</time></trkpt><trkpt lat="40.4561383" lon="15.0111533"><ele>22.666666666666664</ele><time>2026-04-09T18:14:25.091Z</time></trkpt><trkpt lat="40.4561233" lon="15.0112567"><ele>23.333333333333332</ele><time>2026-04-09T18:14:26.091Z</time></trkpt><trkpt lat="40.4561217" lon="15.01135"><ele>24.0</ele><time>2026-04-09T18:14:27.091Z</time></trkpt><trkpt lat="40.4561083" lon="15.011435"><ele>24.666666666666664</ele><time>2026-04-09T18:14:28.091Z</time></trkpt><trkpt lat="40.45609" lon="15.0115567"><ele>25.333333333333332</ele><time>2026-04-09T18:14:30.091Z</time></trkpt><trkpt lat="40.4560783" lon="15.0116617"><ele>26.0</ele><time>2026-04-09T18:14:33.091Z</time></trkpt><trkpt lat="40.45606" lon="15.0118067"><ele>26.166666666666664</ele><time>2026-04-09T18:14:36.091Z</time></trkpt><trkpt lat="40.4560467" lon="15.0119333"><ele>26.333333333333332</ele><time>2026-04-09T18:14:38.091Z</time></trkpt><trkpt lat="40.4560733" lon="15.012015"><ele>26.5</ele><time>2026-04-09T18:14:40.091Z</time></trkpt><trkpt lat="40.4561433" lon="15.0120383"><ele>26.666666666666664</ele><time>2026-04-09T18:14:42.091Z</time></trkpt><trkpt lat="40.4562383" lon="15.012025"><ele>26.833333333333332</ele><time>2026-04-09T18:14:44.091Z</time></trkpt><trkpt lat="40.4563517" lon="15.01201"><ele>27.0</ele><time>2026-04-09T18:14:46.091Z</time></trkpt><trkpt lat="40.4564617" lon="15.012025"><ele>27.0</ele><time>2026-04-09T18:14:48.091Z</time></trkpt><trkpt lat="40.45656" lon="15.012045"><ele>27.000000000000004</ele><time>2026-04-09T18:14:50.091Z</time></trkpt><trkpt lat="40.4566533" lon="15.012045"><ele>27.000000000000004</ele><time>2026-04-09T18:14:52.091Z</time></trkpt><trkpt lat="40.4567483" lon="15.01204"><ele>27.0</ele><time>2026-04-09T18:14:54.091Z</time></trkpt><trkpt lat="40.4568333" lon="15.0120417"><ele>27.0</ele><time>2026-04-09T18:14:56.091Z</time></trkpt><trkpt lat="40.456925" lon="15.0120417"><ele>27.0</ele><time>2026-04-09T18:14:58.091Z</time></trkpt><trkpt lat="40.457025" lon="15.012055"><ele>27.000000000000004</ele><time>2026-04-09T18:15:00.091Z</time></trkpt><trkpt lat="40.457135" lon="15.0120717"><ele>27.000000000000004</ele><time>2026-04-09T18:15:02.091Z</time></trkpt><trkpt lat="40.4572417" lon="15.0121017"><ele>27.0</ele><time>2026-04-09T18:15:04.091Z</time></trkpt><trkpt lat="40.4573667" lon="15.0121017"><ele>27.0</ele><time>2026-04-09T18:15:06.091Z</time></trkpt><trkpt lat="40.4574917" lon="15.0121217"><ele>26.8</ele><time>2026-04-09T18:15:08.091Z</time></trkpt><trkpt lat="40.45762" lon="15.0121367"><ele>26.6</ele><time>2026-04-09T18:15:10.091Z</time></trkpt><trkpt lat="40.4576883" lon="15.0121433"><ele>26.400000000000002</ele><time>2026-04-09T18:15:11.091Z</time></trkpt><trkpt lat="40.4577617" lon="15.0121567"><ele>26.200000000000003</ele><time>2026-04-09T18:15:12.091Z</time></trkpt><trkpt lat="40.4578683" lon="15.012175"><ele>26.0</ele><time>2026-04-09T18:15:14.091Z</time></trkpt><trkpt lat="40.4579617" lon="15.01219"><ele>25.833333333333332</ele><time>2026-04-09T18:15:16.091Z</time></trkpt><trkpt lat="40.4580633" lon="15.0121883"><ele>25.666666666666664</ele><time>2026-04-09T18:15:18.091Z</time></trkpt><trkpt lat="40.4581483" lon="15.012225"><ele>25.5</ele><time>2026-04-09T18:15:20.091Z</time></trkpt><trkpt lat="40.4581833" lon="15.0123083"><ele>25.333333333333336</ele><time>2026-04-09T18:15:22.091Z</time></trkpt><trkpt lat="40.45814" lon="15.0123817"><ele>25.166666666666668</ele><time>2026-04-09T18:15:51.091Z</time></trkpt><trkpt lat="40.4581267" lon="15.01253"><ele>25.0</ele><time>2026-04-09T18:15:53.091Z</time></trkpt><trkpt lat="40.4581367" lon="15.01265"><ele>25.000000000000004</ele><time>2026-04-09T18:15:54.091Z</time></trkpt><trkpt lat="40.4581483" lon="15.0127633"><ele>25.0</ele><time>2026-04-09T18:15:55.091Z</time></trkpt><trkpt lat="40.4581567" lon="15.012855"><ele>25.0</ele><time>2026-04-09T18:15:56.091Z</time></trkpt><trkpt lat="40.45817" lon="15.012955"><ele>25.0</ele><time>2026-04-09T18:15:58.091Z</time></trkpt><trkpt lat="40.4581596" lon="15.0128721"><ele>25.0</ele><time>2026-04-09T18:23:14.107Z</time></trkpt><trkpt lat="40.4581656" lon="15.0127834"><ele>25.000000000000004</ele><time>2026-04-09T18:23:24.092Z</time></trkpt><trkpt lat="40.4582075" lon="15.0127099"><ele>25.0</ele><time>2026-04-09T18:23:58.092Z</time></trkpt><trkpt lat="40.4581425" lon="15.0127012"><ele>25.000000000000004</ele><time>2026-04-09T18:24:07.175Z</time></trkpt><trkpt lat="40.4581001" lon="15.0126206"><ele>25.0</ele><time>2026-04-09T18:24:17.153Z</time></trkpt><trkpt lat="40.4581856" lon="15.0126083"><ele>25.0</ele><time>2026-04-09T18:24:19.127Z</time></trkpt><trkpt lat="40.4582563" lon="15.0125718"><ele>25.0</ele><time>2026-04-09T18:24:21.1Z</time></trkpt><trkpt lat="40.4583134" lon="15.0126632"><ele>25.000000000000004</ele><time>2026-04-09T18:24:30.201Z</time></trkpt><trkpt lat="40.4582495" lon="15.0126372"><ele>25.0</ele><time>2026-04-09T18:29:03.104Z</time></trkpt><trkpt lat="40.4582073" lon="15.0125736"><ele>25.0</ele><time>2026-04-09T18:29:38.191Z</time></trkpt></trkseg></trk></gpx>